<?xml version="1.0" encoding="UTF-8" standalone="no" ?>
<gpx xmlns="http://www.topografix.com/GPX/1/1" xmlns:xsi="http://www.w3.org/2001/XMLSchema-instance" xsi:schemaLocation="http://www.topografix.com/GPX/1/1 http://www.topografix.com/GPX/1/1/gpx.xsd" version="1.1" creator="VisuGPX - https://www.visugpx.com">
  <metadata>
    <name>CRETS DU PILAT - JASSERIE - 18 AOUT 26</name>
  </metadata>
  <trk>
    <name><![CDATA[Trace 1787036798263]]></name>
    <trkseg>
      <trkpt lat="45.39023" lon="4.57417">
        <ele>1358.8</ele>
        <time>2026-08-18T07:06:38.263Z</time>
      </trkpt>
      <trkpt lat="45.39021" lon="4.57415">
        <ele>1358.9</ele>
        <time>2026-08-18T07:06:40.006Z</time>
      </trkpt>
      <trkpt lat="45.39021" lon="4.57415">
        <ele>1358.9</ele>
        <time>2026-08-18T07:06:41.007Z</time>
      </trkpt>
      <trkpt lat="45.39021" lon="4.57415">
        <ele>1358.9</ele>
        <time>2026-08-18T07:06:42.007Z</time>
      </trkpt>
      <trkpt lat="45.39021" lon="4.57415">
        <ele>1358.9</ele>
        <time>2026-08-18T07:06:43.007Z</time>
      </trkpt>
      <trkpt lat="45.39022" lon="4.57415">
        <ele>1358.8</ele>
        <time>2026-08-18T07:06:45.007Z</time>
      </trkpt>
      <trkpt lat="45.39022" lon="4.57415">
        <ele>1358.8</ele>
        <time>2026-08-18T07:06:46.007Z</time>
      </trkpt>
      <trkpt lat="45.39022" lon="4.57415">
        <ele>1358.8</ele>
        <time>2026-08-18T07:06:47.007Z</time>
      </trkpt>
      <trkpt lat="45.39022" lon="4.57415">
        <ele>1358.8</ele>
        <time>2026-08-18T07:06:49.007Z</time>
      </trkpt>
      <trkpt lat="45.39022" lon="4.57415">
        <ele>1358.8</ele>
        <time>2026-08-18T07:06:51.006Z</time>
      </trkpt>
      <trkpt lat="45.39022" lon="4.57415">
        <ele>1358.8</ele>
        <time>2026-08-18T07:06:52.007Z</time>
      </trkpt>
      <trkpt lat="45.39022" lon="4.57415">
        <ele>1358.8</ele>
        <time>2026-08-18T07:06:53.007Z</time>
      </trkpt>
      <trkpt lat="45.39022" lon="4.57415">
        <ele>1358.8</ele>
        <time>2026-08-18T07:06:55.007Z</time>
      </trkpt>
      <trkpt lat="45.39022" lon="4.57416">
        <ele>1358.8</ele>
        <time>2026-08-18T07:06:56.946Z</time>
      </trkpt>
      <trkpt lat="45.39022" lon="4.57415">
        <ele>1358.8</ele>
        <time>2026-08-18T07:06:58.006Z</time>
      </trkpt>
      <trkpt lat="45.39022" lon="4.57415">
        <ele>1358.8</ele>
        <time>2026-08-18T07:06:59.007Z</time>
      </trkpt>
      <trkpt lat="45.39022" lon="4.57415">
        <ele>1358.8</ele>
        <time>2026-08-18T07:07:00.007Z</time>
      </trkpt>
      <trkpt lat="45.39022" lon="4.57415">
        <ele>1358.8</ele>
        <time>2026-08-18T07:07:01.007Z</time>
      </trkpt>
      <trkpt lat="45.39023" lon="4.57413">
        <ele>1358.9</ele>
        <time>2026-08-18T07:08:57.006Z</time>
      </trkpt>
      <trkpt lat="45.39023" lon="4.57412">
        <ele>1358.9</ele>
        <time>2026-08-18T07:08:58.006Z</time>
      </trkpt>
      <trkpt lat="45.39023" lon="4.57411">
        <ele>1358.9</ele>
        <time>2026-08-18T07:08:59.006Z</time>
      </trkpt>
      <trkpt lat="45.39023" lon="4.57411">
        <ele>1358.9</ele>
        <time>2026-08-18T07:09:00.007Z</time>
      </trkpt>
      <trkpt lat="45.39023" lon="4.57409">
        <ele>1358.9</ele>
        <time>2026-08-18T07:09:01.007Z</time>
      </trkpt>
      <trkpt lat="45.39025" lon="4.57407">
        <ele>1358.9</ele>
        <time>2026-08-18T07:09:16.007Z</time>
      </trkpt>
      <trkpt lat="45.39026" lon="4.57406">
        <ele>1358.9</ele>
        <time>2026-08-18T07:09:17.007Z</time>
      </trkpt>
      <trkpt lat="45.39027" lon="4.57405">
        <ele>1358.9</ele>
        <time>2026-08-18T07:09:19.007Z</time>
      </trkpt>
      <trkpt lat="45.39027" lon="4.57404">
        <ele>1358.8</ele>
        <time>2026-08-18T07:09:21.007Z</time>
      </trkpt>
      <trkpt lat="45.3903" lon="4.57401">
        <ele>1358.8</ele>
        <time>2026-08-18T07:09:38.007Z</time>
      </trkpt>
      <trkpt lat="45.39032" lon="4.574">
        <ele>1358.8</ele>
        <time>2026-08-18T07:09:40.007Z</time>
      </trkpt>
      <trkpt lat="45.39033" lon="4.57399">
        <ele>1358.8</ele>
        <time>2026-08-18T07:09:41.007Z</time>
      </trkpt>
      <trkpt lat="45.39035" lon="4.57398">
        <ele>1358.8</ele>
        <time>2026-08-18T07:09:43.007Z</time>
      </trkpt>
      <trkpt lat="45.39036" lon="4.57397">
        <ele>1358.8</ele>
        <time>2026-08-18T07:09:45.007Z</time>
      </trkpt>
      <trkpt lat="45.39037" lon="4.57396">
        <ele>1358.8</ele>
        <time>2026-08-18T07:09:46.007Z</time>
      </trkpt>
      <trkpt lat="45.3904" lon="4.57395">
        <ele>1358.8</ele>
        <time>2026-08-18T07:09:47.960Z</time>
      </trkpt>
      <trkpt lat="45.39042" lon="4.57393">
        <ele>1358.8</ele>
        <time>2026-08-18T07:09:49.007Z</time>
      </trkpt>
      <trkpt lat="45.39043" lon="4.5739">
        <ele>1358.8</ele>
        <time>2026-08-18T07:09:51.007Z</time>
      </trkpt>
      <trkpt lat="45.39044" lon="4.57389">
        <ele>1358.8</ele>
        <time>2026-08-18T07:09:52.941Z</time>
      </trkpt>
      <trkpt lat="45.39045" lon="4.57386">
        <ele>1358.8</ele>
        <time>2026-08-18T07:09:55.011Z</time>
      </trkpt>
      <trkpt lat="45.39043" lon="4.57385">
        <ele>1358.8</ele>
        <time>2026-08-18T07:09:57.007Z</time>
      </trkpt>
      <trkpt lat="45.39043" lon="4.57386">
        <ele>1358.8</ele>
        <time>2026-08-18T07:09:58.007Z</time>
      </trkpt>
      <trkpt lat="45.39042" lon="4.57386">
        <ele>1358.8</ele>
        <time>2026-08-18T07:10:00.007Z</time>
      </trkpt>
      <trkpt lat="45.39039" lon="4.57387">
        <ele>1358.8</ele>
        <time>2026-08-18T07:10:26.007Z</time>
      </trkpt>
      <trkpt lat="45.39039" lon="4.57385">
        <ele>1358.8</ele>
        <time>2026-08-18T07:10:28.007Z</time>
      </trkpt>
      <trkpt lat="45.39038" lon="4.57382">
        <ele>1358.8</ele>
        <time>2026-08-18T07:10:30.006Z</time>
      </trkpt>
      <trkpt lat="45.39039" lon="4.57379">
        <ele>1358.8</ele>
        <time>2026-08-18T07:10:31.006Z</time>
      </trkpt>
      <trkpt lat="45.39038" lon="4.57378">
        <ele>1358.8</ele>
        <time>2026-08-18T07:10:32.006Z</time>
      </trkpt>
      <trkpt lat="45.39037" lon="4.57377">
        <ele>1358.8</ele>
        <time>2026-08-18T07:10:33.007Z</time>
      </trkpt>
      <trkpt lat="45.39036" lon="4.57375">
        <ele>1358.8</ele>
        <time>2026-08-18T07:10:35.007Z</time>
      </trkpt>
      <trkpt lat="45.39035" lon="4.57375">
        <ele>1358.8</ele>
        <time>2026-08-18T07:10:37.007Z</time>
      </trkpt>
      <trkpt lat="45.39034" lon="4.57373">
        <ele>1358.8</ele>
        <time>2026-08-18T07:10:39.007Z</time>
      </trkpt>
      <trkpt lat="45.39034" lon="4.57371">
        <ele>1358.8</ele>
        <time>2026-08-18T07:10:40.007Z</time>
      </trkpt>
      <trkpt lat="45.39034" lon="4.5737">
        <ele>1358.8</ele>
        <time>2026-08-18T07:10:41.007Z</time>
      </trkpt>
      <trkpt lat="45.39034" lon="4.57368">
        <ele>1358.8</ele>
        <time>2026-08-18T07:10:42.007Z</time>
      </trkpt>
      <trkpt lat="45.39035" lon="4.57368">
        <ele>1358.8</ele>
        <time>2026-08-18T07:10:43.007Z</time>
      </trkpt>
      <trkpt lat="45.39037" lon="4.57368">
        <ele>1358.8</ele>
        <time>2026-08-18T07:10:44.007Z</time>
      </trkpt>
      <trkpt lat="45.39037" lon="4.57368">
        <ele>1358.8</ele>
        <time>2026-08-18T07:10:45.007Z</time>
      </trkpt>
      <trkpt lat="45.39036" lon="4.57368">
        <ele>1358.8</ele>
        <time>2026-08-18T07:10:47.007Z</time>
      </trkpt>
      <trkpt lat="45.39036" lon="4.57368">
        <ele>1358.8</ele>
        <time>2026-08-18T07:10:48.007Z</time>
      </trkpt>
      <trkpt lat="45.39036" lon="4.57369">
        <ele>1358.8</ele>
        <time>2026-08-18T07:10:50.006Z</time>
      </trkpt>
      <trkpt lat="45.39036" lon="4.57369">
        <ele>1358.8</ele>
        <time>2026-08-18T07:10:51.007Z</time>
      </trkpt>
      <trkpt lat="45.39035" lon="4.57369">
        <ele>1358.8</ele>
        <time>2026-08-18T07:10:53.007Z</time>
      </trkpt>
      <trkpt lat="45.39035" lon="4.57371">
        <ele>1358.8</ele>
        <time>2026-08-18T07:10:54.981Z</time>
      </trkpt>
      <trkpt lat="45.39036" lon="4.57374">
        <ele>1358.8</ele>
        <time>2026-08-18T07:10:56.007Z</time>
      </trkpt>
      <trkpt lat="45.39037" lon="4.57375">
        <ele>1358.8</ele>
        <time>2026-08-18T07:10:58.007Z</time>
      </trkpt>
      <trkpt lat="45.39038" lon="4.57375">
        <ele>1358.8</ele>
        <time>2026-08-18T07:10:59.007Z</time>
      </trkpt>
      <trkpt lat="45.3904" lon="4.57373">
        <ele>1358.8</ele>
        <time>2026-08-18T07:11:01.007Z</time>
      </trkpt>
      <trkpt lat="45.39043" lon="4.57375">
        <ele>1358.8</ele>
        <time>2026-08-18T07:11:03.007Z</time>
      </trkpt>
      <trkpt lat="45.39044" lon="4.57376">
        <ele>1358.8</ele>
        <time>2026-08-18T07:11:05.007Z</time>
      </trkpt>
      <trkpt lat="45.39046" lon="4.57377">
        <ele>1358.8</ele>
        <time>2026-08-18T07:11:07.007Z</time>
      </trkpt>
      <trkpt lat="45.39047" lon="4.57377">
        <ele>1358.8</ele>
        <time>2026-08-18T07:11:09.006Z</time>
      </trkpt>
      <trkpt lat="45.39049" lon="4.57376">
        <ele>1358.8</ele>
        <time>2026-08-18T07:11:11.007Z</time>
      </trkpt>
      <trkpt lat="45.39051" lon="4.57375">
        <ele>1358.8</ele>
        <time>2026-08-18T07:11:13.007Z</time>
      </trkpt>
      <trkpt lat="45.39051" lon="4.57374">
        <ele>1358.8</ele>
        <time>2026-08-18T07:11:14.007Z</time>
      </trkpt>
      <trkpt lat="45.39052" lon="4.57375">
        <ele>1358.8</ele>
        <time>2026-08-18T07:11:15.007Z</time>
      </trkpt>
      <trkpt lat="45.39053" lon="4.57375">
        <ele>1358.8</ele>
        <time>2026-08-18T07:11:16.007Z</time>
      </trkpt>
      <trkpt lat="45.39053" lon="4.57375">
        <ele>1358.8</ele>
        <time>2026-08-18T07:11:17.007Z</time>
      </trkpt>
      <trkpt lat="45.39056" lon="4.57374">
        <ele>1358.7</ele>
        <time>2026-08-18T07:11:19.007Z</time>
      </trkpt>
      <trkpt lat="45.39058" lon="4.57373">
        <ele>1358.7</ele>
        <time>2026-08-18T07:11:21.007Z</time>
      </trkpt>
      <trkpt lat="45.39059" lon="4.57373">
        <ele>1358.7</ele>
        <time>2026-08-18T07:11:22.007Z</time>
      </trkpt>
      <trkpt lat="45.39062" lon="4.57372">
        <ele>1358.7</ele>
        <time>2026-08-18T07:11:23.985Z</time>
      </trkpt>
      <trkpt lat="45.39064" lon="4.57371">
        <ele>1358.7</ele>
        <time>2026-08-18T07:11:26.006Z</time>
      </trkpt>
      <trkpt lat="45.39065" lon="4.5737">
        <ele>1358.7</ele>
        <time>2026-08-18T07:11:27.006Z</time>
      </trkpt>
      <trkpt lat="45.39066" lon="4.5737">
        <ele>1358.7</ele>
        <time>2026-08-18T07:11:28.006Z</time>
      </trkpt>
      <trkpt lat="45.39067" lon="4.57369">
        <ele>1358.7</ele>
        <time>2026-08-18T07:11:29.007Z</time>
      </trkpt>
      <trkpt lat="45.39068" lon="4.57369">
        <ele>1358.7</ele>
        <time>2026-08-18T07:11:30.007Z</time>
      </trkpt>
      <trkpt lat="45.39071" lon="4.57368">
        <ele>1358.7</ele>
        <time>2026-08-18T07:11:32.007Z</time>
      </trkpt>
      <trkpt lat="45.39072" lon="4.57368">
        <ele>1358.7</ele>
        <time>2026-08-18T07:11:33.007Z</time>
      </trkpt>
      <trkpt lat="45.39074" lon="4.57368">
        <ele>1358.7</ele>
        <time>2026-08-18T07:11:35.006Z</time>
      </trkpt>
      <trkpt lat="45.39075" lon="4.57368">
        <ele>1358.7</ele>
        <time>2026-08-18T07:11:36.007Z</time>
      </trkpt>
      <trkpt lat="45.39075" lon="4.57368">
        <ele>1358.7</ele>
        <time>2026-08-18T07:11:37.007Z</time>
      </trkpt>
      <trkpt lat="45.39074" lon="4.57368">
        <ele>1358.7</ele>
        <time>2026-08-18T07:11:38.007Z</time>
      </trkpt>
      <trkpt lat="45.39073" lon="4.57368">
        <ele>1358.7</ele>
        <time>2026-08-18T07:11:39.007Z</time>
      </trkpt>
      <trkpt lat="45.39073" lon="4.57368">
        <ele>1358.7</ele>
        <time>2026-08-18T07:11:41.006Z</time>
      </trkpt>
      <trkpt lat="45.39073" lon="4.57368">
        <ele>1358.7</ele>
        <time>2026-08-18T07:11:42.007Z</time>
      </trkpt>
      <trkpt lat="45.39073" lon="4.57368">
        <ele>1358.7</ele>
        <time>2026-08-18T07:11:43.007Z</time>
      </trkpt>
      <trkpt lat="45.39072" lon="4.57368">
        <ele>1358.7</ele>
        <time>2026-08-18T07:11:44.007Z</time>
      </trkpt>
      <trkpt lat="45.39072" lon="4.57368">
        <ele>1358.3</ele>
        <time>2026-08-18T07:11:45.007Z</time>
      </trkpt>
      <trkpt lat="45.39071" lon="4.57368">
        <ele>1358.3</ele>
        <time>2026-08-18T07:11:46.925Z</time>
      </trkpt>
      <trkpt lat="45.3907" lon="4.57369">
        <ele>1358.3</ele>
        <time>2026-08-18T07:11:48.007Z</time>
      </trkpt>
      <trkpt lat="45.39068" lon="4.57371">
        <ele>1358.3</ele>
        <time>2026-08-18T07:11:50.007Z</time>
      </trkpt>
      <trkpt lat="45.39067" lon="4.57372">
        <ele>1358.3</ele>
        <time>2026-08-18T07:11:51.007Z</time>
      </trkpt>
      <trkpt lat="45.39066" lon="4.57373">
        <ele>1358.7</ele>
        <time>2026-08-18T07:11:52.007Z</time>
      </trkpt>
      <trkpt lat="45.39065" lon="4.57374">
        <ele>1358.7</ele>
        <time>2026-08-18T07:11:54.006Z</time>
      </trkpt>
      <trkpt lat="45.39064" lon="4.57375">
        <ele>1358.7</ele>
        <time>2026-08-18T07:11:55.007Z</time>
      </trkpt>
      <trkpt lat="45.39062" lon="4.57376">
        <ele>1358.7</ele>
        <time>2026-08-18T07:11:57.007Z</time>
      </trkpt>
      <trkpt lat="45.39061" lon="4.57377">
        <ele>1358.7</ele>
        <time>2026-08-18T07:11:58.007Z</time>
      </trkpt>
      <trkpt lat="45.39058" lon="4.57378">
        <ele>1358.4</ele>
        <time>2026-08-18T07:12:00.006Z</time>
      </trkpt>
      <trkpt lat="45.39056" lon="4.5738">
        <ele>1358.4</ele>
        <time>2026-08-18T07:12:02.005Z</time>
      </trkpt>
      <trkpt lat="45.39055" lon="4.57381">
        <ele>1358.4</ele>
        <time>2026-08-18T07:12:03.005Z</time>
      </trkpt>
      <trkpt lat="45.39054" lon="4.57382">
        <ele>1358.4</ele>
        <time>2026-08-18T07:12:04.006Z</time>
      </trkpt>
      <trkpt lat="45.39053" lon="4.57383">
        <ele>1358.4</ele>
        <time>2026-08-18T07:12:05.006Z</time>
      </trkpt>
      <trkpt lat="45.39051" lon="4.57384">
        <ele>1358.7</ele>
        <time>2026-08-18T07:12:07.006Z</time>
      </trkpt>
      <trkpt lat="45.39049" lon="4.57386">
        <ele>1358.7</ele>
        <time>2026-08-18T07:12:09.007Z</time>
      </trkpt>
      <trkpt lat="45.39048" lon="4.57387">
        <ele>1358.7</ele>
        <time>2026-08-18T07:12:10.007Z</time>
      </trkpt>
      <trkpt lat="45.39048" lon="4.57388">
        <ele>1358.7</ele>
        <time>2026-08-18T07:12:11.007Z</time>
      </trkpt>
      <trkpt lat="45.39048" lon="4.57389">
        <ele>1358.7</ele>
        <time>2026-08-18T07:12:12.007Z</time>
      </trkpt>
      <trkpt lat="45.39047" lon="4.5739">
        <ele>1358.8</ele>
        <time>2026-08-18T07:12:13.007Z</time>
      </trkpt>
      <trkpt lat="45.39046" lon="4.57392">
        <ele>1358.8</ele>
        <time>2026-08-18T07:12:15.007Z</time>
      </trkpt>
      <trkpt lat="45.39047" lon="4.57395">
        <ele>1358.8</ele>
        <time>2026-08-18T07:12:17.006Z</time>
      </trkpt>
      <trkpt lat="45.39048" lon="4.57396">
        <ele>1358.8</ele>
        <time>2026-08-18T07:12:18.006Z</time>
      </trkpt>
      <trkpt lat="45.39049" lon="4.57397">
        <ele>1358.8</ele>
        <time>2026-08-18T07:12:19.007Z</time>
      </trkpt>
      <trkpt lat="45.3905" lon="4.57399">
        <ele>1358.8</ele>
        <time>2026-08-18T07:12:21.007Z</time>
      </trkpt>
      <trkpt lat="45.3905" lon="4.57401">
        <ele>1358.8</ele>
        <time>2026-08-18T07:12:23.007Z</time>
      </trkpt>
      <trkpt lat="45.39049" lon="4.57403">
        <ele>1358.8</ele>
        <time>2026-08-18T07:12:24.905Z</time>
      </trkpt>
      <trkpt lat="45.3905" lon="4.57404">
        <ele>1358.8</ele>
        <time>2026-08-18T07:12:26.006Z</time>
      </trkpt>
      <trkpt lat="45.3905" lon="4.57404">
        <ele>1358.8</ele>
        <time>2026-08-18T07:12:27.007Z</time>
      </trkpt>
      <trkpt lat="45.3905" lon="4.57403">
        <ele>1358.8</ele>
        <time>2026-08-18T07:12:28.007Z</time>
      </trkpt>
      <trkpt lat="45.3905" lon="4.57403">
        <ele>1358.8</ele>
        <time>2026-08-18T07:12:29.009Z</time>
      </trkpt>
      <trkpt lat="45.39049" lon="4.57403">
        <ele>1358.8</ele>
        <time>2026-08-18T07:12:31.007Z</time>
      </trkpt>
      <trkpt lat="45.3905" lon="4.57401">
        <ele>1358.9</ele>
        <time>2026-08-18T07:13:30.007Z</time>
      </trkpt>
      <trkpt lat="45.39053" lon="4.57402">
        <ele>1358.9</ele>
        <time>2026-08-18T07:13:32.007Z</time>
      </trkpt>
      <trkpt lat="45.39054" lon="4.57401">
        <ele>1358.9</ele>
        <time>2026-08-18T07:13:34.006Z</time>
      </trkpt>
      <trkpt lat="45.39055" lon="4.57403">
        <ele>1358.8</ele>
        <time>2026-08-18T07:14:01.922Z</time>
      </trkpt>
      <trkpt lat="45.39054" lon="4.57402">
        <ele>1358.8</ele>
        <time>2026-08-18T07:14:03.006Z</time>
      </trkpt>
      <trkpt lat="45.39052" lon="4.57402">
        <ele>1358.8</ele>
        <time>2026-08-18T07:14:04.006Z</time>
      </trkpt>
      <trkpt lat="45.39049" lon="4.57403">
        <ele>1358.8</ele>
        <time>2026-08-18T07:14:06.007Z</time>
      </trkpt>
      <trkpt lat="45.39047" lon="4.57404">
        <ele>1358.8</ele>
        <time>2026-08-18T07:14:07.977Z</time>
      </trkpt>
      <trkpt lat="45.39046" lon="4.57405">
        <ele>1358.8</ele>
        <time>2026-08-18T07:14:09.007Z</time>
      </trkpt>
      <trkpt lat="45.39043" lon="4.57405">
        <ele>1358.8</ele>
        <time>2026-08-18T07:14:11.007Z</time>
      </trkpt>
      <trkpt lat="45.39042" lon="4.57405">
        <ele>1358.8</ele>
        <time>2026-08-18T07:14:12.007Z</time>
      </trkpt>
      <trkpt lat="45.39041" lon="4.57405">
        <ele>1358.8</ele>
        <time>2026-08-18T07:14:13.007Z</time>
      </trkpt>
      <trkpt lat="45.39038" lon="4.57406">
        <ele>1358.8</ele>
        <time>2026-08-18T07:14:15.007Z</time>
      </trkpt>
      <trkpt lat="45.39036" lon="4.57407">
        <ele>1358.9</ele>
        <time>2026-08-18T07:14:17.007Z</time>
      </trkpt>
      <trkpt lat="45.39035" lon="4.57407">
        <ele>1358.9</ele>
        <time>2026-08-18T07:14:18.007Z</time>
      </trkpt>
      <trkpt lat="45.39033" lon="4.57408">
        <ele>1358.9</ele>
        <time>2026-08-18T07:14:19.007Z</time>
      </trkpt>
      <trkpt lat="45.39032" lon="4.57408">
        <ele>1358.9</ele>
        <time>2026-08-18T07:14:20.007Z</time>
      </trkpt>
      <trkpt lat="45.39031" lon="4.57408">
        <ele>1358.9</ele>
        <time>2026-08-18T07:14:21.007Z</time>
      </trkpt>
      <trkpt lat="45.39029" lon="4.57407">
        <ele>1358.8</ele>
        <time>2026-08-18T07:14:23.007Z</time>
      </trkpt>
      <trkpt lat="45.39028" lon="4.57407">
        <ele>1358.8</ele>
        <time>2026-08-18T07:14:24.007Z</time>
      </trkpt>
      <trkpt lat="45.39025" lon="4.57408">
        <ele>1358.8</ele>
        <time>2026-08-18T07:14:26.007Z</time>
      </trkpt>
      <trkpt lat="45.39024" lon="4.57408">
        <ele>1358.8</ele>
        <time>2026-08-18T07:14:27.007Z</time>
      </trkpt>
      <trkpt lat="45.39021" lon="4.57408">
        <ele>1358.8</ele>
        <time>2026-08-18T07:14:29.007Z</time>
      </trkpt>
      <trkpt lat="45.39018" lon="4.57408">
        <ele>1358.8</ele>
        <time>2026-08-18T07:14:31.006Z</time>
      </trkpt>
      <trkpt lat="45.39017" lon="4.57408">
        <ele>1358.8</ele>
        <time>2026-08-18T07:14:32.007Z</time>
      </trkpt>
      <trkpt lat="45.39016" lon="4.57408">
        <ele>1358.8</ele>
        <time>2026-08-18T07:14:33.007Z</time>
      </trkpt>
      <trkpt lat="45.39014" lon="4.57408">
        <ele>1358.8</ele>
        <time>2026-08-18T07:14:34.007Z</time>
      </trkpt>
      <trkpt lat="45.39011" lon="4.57409">
        <ele>1358.9</ele>
        <time>2026-08-18T07:14:36.006Z</time>
      </trkpt>
      <trkpt lat="45.3901" lon="4.57409">
        <ele>1358.9</ele>
        <time>2026-08-18T07:14:37.008Z</time>
      </trkpt>
      <trkpt lat="45.39008" lon="4.5741">
        <ele>1358.9</ele>
        <time>2026-08-18T07:14:39.007Z</time>
      </trkpt>
      <trkpt lat="45.39007" lon="4.5741">
        <ele>1358.9</ele>
        <time>2026-08-18T07:14:40.007Z</time>
      </trkpt>
      <trkpt lat="45.39006" lon="4.57411">
        <ele>1358.9</ele>
        <time>2026-08-18T07:14:41.007Z</time>
      </trkpt>
      <trkpt lat="45.39004" lon="4.57411">
        <ele>1358.9</ele>
        <time>2026-08-18T07:14:42.028Z</time>
      </trkpt>
      <trkpt lat="45.39003" lon="4.5741">
        <ele>1358.9</ele>
        <time>2026-08-18T07:14:43.093Z</time>
      </trkpt>
      <trkpt lat="45.39001" lon="4.57409">
        <ele>1358.9</ele>
        <time>2026-08-18T07:14:45.007Z</time>
      </trkpt>
      <trkpt lat="45.38999" lon="4.57408">
        <ele>1358.9</ele>
        <time>2026-08-18T07:14:47.006Z</time>
      </trkpt>
      <trkpt lat="45.38997" lon="4.57407">
        <ele>1358.9</ele>
        <time>2026-08-18T07:14:48.007Z</time>
      </trkpt>
      <trkpt lat="45.38996" lon="4.57407">
        <ele>1358.9</ele>
        <time>2026-08-18T07:14:49.026Z</time>
      </trkpt>
      <trkpt lat="45.38994" lon="4.57407">
        <ele>1358.9</ele>
        <time>2026-08-18T07:14:51.006Z</time>
      </trkpt>
      <trkpt lat="45.38992" lon="4.57407">
        <ele>1358.9</ele>
        <time>2026-08-18T07:14:52.006Z</time>
      </trkpt>
      <trkpt lat="45.38991" lon="4.57407">
        <ele>1358.9</ele>
        <time>2026-08-18T07:14:53.006Z</time>
      </trkpt>
      <trkpt lat="45.3899" lon="4.57407">
        <ele>1358.9</ele>
        <time>2026-08-18T07:14:54.007Z</time>
      </trkpt>
      <trkpt lat="45.38988" lon="4.57407">
        <ele>1358.9</ele>
        <time>2026-08-18T07:14:56.098Z</time>
      </trkpt>
      <trkpt lat="45.38985" lon="4.57407">
        <ele>1358.9</ele>
        <time>2026-08-18T07:14:58.007Z</time>
      </trkpt>
      <trkpt lat="45.38984" lon="4.57407">
        <ele>1358.9</ele>
        <time>2026-08-18T07:14:59.007Z</time>
      </trkpt>
      <trkpt lat="45.38981" lon="4.57406">
        <ele>1358.8</ele>
        <time>2026-08-18T07:15:01.006Z</time>
      </trkpt>
      <trkpt lat="45.3898" lon="4.57405">
        <ele>1358.8</ele>
        <time>2026-08-18T07:15:02.006Z</time>
      </trkpt>
      <trkpt lat="45.38979" lon="4.57405">
        <ele>1358.8</ele>
        <time>2026-08-18T07:15:03.018Z</time>
      </trkpt>
      <trkpt lat="45.38977" lon="4.57405">
        <ele>1358.8</ele>
        <time>2026-08-18T07:15:05.006Z</time>
      </trkpt>
      <trkpt lat="45.38975" lon="4.57405">
        <ele>1358.8</ele>
        <time>2026-08-18T07:15:06.006Z</time>
      </trkpt>
      <trkpt lat="45.38974" lon="4.57405">
        <ele>1358.8</ele>
        <time>2026-08-18T07:15:07.006Z</time>
      </trkpt>
      <trkpt lat="45.38973" lon="4.57405">
        <ele>1358.8</ele>
        <time>2026-08-18T07:15:08.038Z</time>
      </trkpt>
      <trkpt lat="45.3897" lon="4.57406">
        <ele>1358.8</ele>
        <time>2026-08-18T07:15:10.006Z</time>
      </trkpt>
      <trkpt lat="45.38968" lon="4.57407">
        <ele>1358.8</ele>
        <time>2026-08-18T07:15:12.006Z</time>
      </trkpt>
      <trkpt lat="45.38966" lon="4.57407">
        <ele>1358.8</ele>
        <time>2026-08-18T07:15:14.006Z</time>
      </trkpt>
      <trkpt lat="45.38964" lon="4.57408">
        <ele>1358.8</ele>
        <time>2026-08-18T07:15:16.007Z</time>
      </trkpt>
      <trkpt lat="45.38962" lon="4.57409">
        <ele>1358.8</ele>
        <time>2026-08-18T07:15:17.007Z</time>
      </trkpt>
      <trkpt lat="45.3896" lon="4.5741">
        <ele>1358.8</ele>
        <time>2026-08-18T07:15:19.006Z</time>
      </trkpt>
      <trkpt lat="45.38958" lon="4.57411">
        <ele>1358.8</ele>
        <time>2026-08-18T07:15:21.007Z</time>
      </trkpt>
      <trkpt lat="45.38957" lon="4.57412">
        <ele>1358.8</ele>
        <time>2026-08-18T07:15:22.007Z</time>
      </trkpt>
      <trkpt lat="45.38955" lon="4.57412">
        <ele>1358.9</ele>
        <time>2026-08-18T07:15:24.009Z</time>
      </trkpt>
      <trkpt lat="45.38954" lon="4.57413">
        <ele>1358.9</ele>
        <time>2026-08-18T07:15:25.093Z</time>
      </trkpt>
      <trkpt lat="45.38951" lon="4.57412">
        <ele>1358.9</ele>
        <time>2026-08-18T07:15:27.006Z</time>
      </trkpt>
      <trkpt lat="45.3895" lon="4.57413">
        <ele>1358.9</ele>
        <time>2026-08-18T07:15:28.020Z</time>
      </trkpt>
      <trkpt lat="45.38948" lon="4.57412">
        <ele>1358.9</ele>
        <time>2026-08-18T07:15:30.007Z</time>
      </trkpt>
      <trkpt lat="45.38947" lon="4.57412">
        <ele>1358.8</ele>
        <time>2026-08-18T07:15:32.007Z</time>
      </trkpt>
      <trkpt lat="45.38946" lon="4.57412">
        <ele>1358.8</ele>
        <time>2026-08-18T07:15:33.088Z</time>
      </trkpt>
      <trkpt lat="45.38944" lon="4.57413">
        <ele>1358.8</ele>
        <time>2026-08-18T07:15:35.007Z</time>
      </trkpt>
      <trkpt lat="45.38943" lon="4.57413">
        <ele>1358.8</ele>
        <time>2026-08-18T07:15:36.007Z</time>
      </trkpt>
      <trkpt lat="45.38941" lon="4.57415">
        <ele>1358.9</ele>
        <time>2026-08-18T07:15:38.087Z</time>
      </trkpt>
      <trkpt lat="45.38939" lon="4.57416">
        <ele>1358.9</ele>
        <time>2026-08-18T07:15:40.006Z</time>
      </trkpt>
      <trkpt lat="45.38939" lon="4.57416">
        <ele>1358.9</ele>
        <time>2026-08-18T07:15:41.007Z</time>
      </trkpt>
      <trkpt lat="45.38939" lon="4.57416">
        <ele>1358.9</ele>
        <time>2026-08-18T07:15:42.007Z</time>
      </trkpt>
      <trkpt lat="45.3894" lon="4.57416">
        <ele>1358.9</ele>
        <time>2026-08-18T07:15:43.007Z</time>
      </trkpt>
      <trkpt lat="45.38939" lon="4.57419">
        <ele>1358.8</ele>
        <time>2026-08-18T07:16:19.007Z</time>
      </trkpt>
      <trkpt lat="45.3894" lon="4.57419">
        <ele>1358.8</ele>
        <time>2026-08-18T07:16:20.041Z</time>
      </trkpt>
      <trkpt lat="45.38938" lon="4.57422">
        <ele>1358.8</ele>
        <time>2026-08-18T07:16:22.007Z</time>
      </trkpt>
      <trkpt lat="45.38937" lon="4.57423">
        <ele>1358.8</ele>
        <time>2026-08-18T07:16:23.007Z</time>
      </trkpt>
      <trkpt lat="45.38932" lon="4.57423">
        <ele>1364.5</ele>
        <time>2026-08-18T07:16:25.006Z</time>
      </trkpt>
      <trkpt lat="45.38931" lon="4.57424">
        <ele>1364.9</ele>
        <time>2026-08-18T07:16:26.088Z</time>
      </trkpt>
      <trkpt lat="45.38928" lon="4.57424">
        <ele>1365.7</ele>
        <time>2026-08-18T07:16:28.007Z</time>
      </trkpt>
      <trkpt lat="45.38926" lon="4.57426">
        <ele>1365.9</ele>
        <time>2026-08-18T07:16:30.007Z</time>
      </trkpt>
      <trkpt lat="45.38924" lon="4.57428">
        <ele>1358.8</ele>
        <time>2026-08-18T07:16:32.091Z</time>
      </trkpt>
      <trkpt lat="45.38922" lon="4.57429">
        <ele>1358.8</ele>
        <time>2026-08-18T07:16:34.007Z</time>
      </trkpt>
      <trkpt lat="45.3892" lon="4.57429">
        <ele>1358.8</ele>
        <time>2026-08-18T07:16:36.006Z</time>
      </trkpt>
      <trkpt lat="45.38919" lon="4.57431">
        <ele>1358.9</ele>
        <time>2026-08-18T07:16:37.007Z</time>
      </trkpt>
      <trkpt lat="45.38918" lon="4.57431">
        <ele>1358.9</ele>
        <time>2026-08-18T07:16:38.087Z</time>
      </trkpt>
      <trkpt lat="45.38917" lon="4.57433">
        <ele>1358.9</ele>
        <time>2026-08-18T07:16:40.006Z</time>
      </trkpt>
      <trkpt lat="45.38914" lon="4.57433">
        <ele>1358.9</ele>
        <time>2026-08-18T07:16:42.006Z</time>
      </trkpt>
      <trkpt lat="45.38912" lon="4.57432">
        <ele>1358.8</ele>
        <time>2026-08-18T07:16:43.006Z</time>
      </trkpt>
      <trkpt lat="45.38911" lon="4.57431">
        <ele>1358.8</ele>
        <time>2026-08-18T07:16:44.012Z</time>
      </trkpt>
      <trkpt lat="45.38908" lon="4.57432">
        <ele>1358.8</ele>
        <time>2026-08-18T07:16:46.006Z</time>
      </trkpt>
      <trkpt lat="45.38907" lon="4.57433">
        <ele>1358.8</ele>
        <time>2026-08-18T07:16:47.006Z</time>
      </trkpt>
      <trkpt lat="45.38905" lon="4.57434">
        <ele>1358.8</ele>
        <time>2026-08-18T07:16:49.007Z</time>
      </trkpt>
      <trkpt lat="45.38904" lon="4.57434">
        <ele>1358.8</ele>
        <time>2026-08-18T07:16:50.007Z</time>
      </trkpt>
      <trkpt lat="45.38903" lon="4.57435">
        <ele>1358.9</ele>
        <time>2026-08-18T07:16:51.007Z</time>
      </trkpt>
      <trkpt lat="45.38902" lon="4.57435">
        <ele>1358.9</ele>
        <time>2026-08-18T07:16:52.088Z</time>
      </trkpt>
      <trkpt lat="45.389" lon="4.57436">
        <ele>1358.9</ele>
        <time>2026-08-18T07:16:54.007Z</time>
      </trkpt>
      <trkpt lat="45.38899" lon="4.57436">
        <ele>1358.9</ele>
        <time>2026-08-18T07:16:55.007Z</time>
      </trkpt>
      <trkpt lat="45.38898" lon="4.57437">
        <ele>1358.9</ele>
        <time>2026-08-18T07:16:56.007Z</time>
      </trkpt>
      <trkpt lat="45.38896" lon="4.57438">
        <ele>1358.8</ele>
        <time>2026-08-18T07:16:58.006Z</time>
      </trkpt>
      <trkpt lat="45.38895" lon="4.57439">
        <ele>1358.8</ele>
        <time>2026-08-18T07:16:59.013Z</time>
      </trkpt>
      <trkpt lat="45.38893" lon="4.5744">
        <ele>1358.8</ele>
        <time>2026-08-18T07:17:01.007Z</time>
      </trkpt>
      <trkpt lat="45.38891" lon="4.57441">
        <ele>1358.9</ele>
        <time>2026-08-18T07:17:03.006Z</time>
      </trkpt>
      <trkpt lat="45.3889" lon="4.57441">
        <ele>1358.9</ele>
        <time>2026-08-18T07:17:04.007Z</time>
      </trkpt>
      <trkpt lat="45.38889" lon="4.57441">
        <ele>1358.9</ele>
        <time>2026-08-18T07:17:05.025Z</time>
      </trkpt>
      <trkpt lat="45.38887" lon="4.57442">
        <ele>1358.9</ele>
        <time>2026-08-18T07:17:07.021Z</time>
      </trkpt>
      <trkpt lat="45.38885" lon="4.57443">
        <ele>1358.9</ele>
        <time>2026-08-18T07:17:09.027Z</time>
      </trkpt>
      <trkpt lat="45.38884" lon="4.57444">
        <ele>1358.9</ele>
        <time>2026-08-18T07:17:10.088Z</time>
      </trkpt>
      <trkpt lat="45.38882" lon="4.57444">
        <ele>1358.9</ele>
        <time>2026-08-18T07:17:12.007Z</time>
      </trkpt>
      <trkpt lat="45.38881" lon="4.57445">
        <ele>1358.9</ele>
        <time>2026-08-18T07:17:13.007Z</time>
      </trkpt>
      <trkpt lat="45.3888" lon="4.57445">
        <ele>1358.9</ele>
        <time>2026-08-18T07:17:14.007Z</time>
      </trkpt>
      <trkpt lat="45.38879" lon="4.57445">
        <ele>1358.9</ele>
        <time>2026-08-18T07:17:15.007Z</time>
      </trkpt>
      <trkpt lat="45.38878" lon="4.57446">
        <ele>1358.9</ele>
        <time>2026-08-18T07:17:16.007Z</time>
      </trkpt>
      <trkpt lat="45.38877" lon="4.57446">
        <ele>1358.9</ele>
        <time>2026-08-18T07:17:17.007Z</time>
      </trkpt>
      <trkpt lat="45.38876" lon="4.57446">
        <ele>1358.9</ele>
        <time>2026-08-18T07:17:18.007Z</time>
      </trkpt>
      <trkpt lat="45.38875" lon="4.57445">
        <ele>1358.9</ele>
        <time>2026-08-18T07:17:19.007Z</time>
      </trkpt>
      <trkpt lat="45.38874" lon="4.57445">
        <ele>1370.5</ele>
        <time>2026-08-18T07:17:20.007Z</time>
      </trkpt>
      <trkpt lat="45.38873" lon="4.57445">
        <ele>1370.6</ele>
        <time>2026-08-18T07:17:21.007Z</time>
      </trkpt>
      <trkpt lat="45.38873" lon="4.57445">
        <ele>1370.6</ele>
        <time>2026-08-18T07:17:22.007Z</time>
      </trkpt>
      <trkpt lat="45.38873" lon="4.57445">
        <ele>1370.7</ele>
        <time>2026-08-18T07:17:23.007Z</time>
      </trkpt>
      <trkpt lat="45.38873" lon="4.57445">
        <ele>1370.3</ele>
        <time>2026-08-18T07:17:24.007Z</time>
      </trkpt>
      <trkpt lat="45.38872" lon="4.57445">
        <ele>1370.4</ele>
        <time>2026-08-18T07:17:25.007Z</time>
      </trkpt>
      <trkpt lat="45.38869" lon="4.57446">
        <ele>1371.3</ele>
        <time>2026-08-18T07:17:27.007Z</time>
      </trkpt>
      <trkpt lat="45.38867" lon="4.57447">
        <ele>1371.4</ele>
        <time>2026-08-18T07:17:29.007Z</time>
      </trkpt>
      <trkpt lat="45.38865" lon="4.57448">
        <ele>1371.3</ele>
        <time>2026-08-18T07:17:31.006Z</time>
      </trkpt>
      <trkpt lat="45.38863" lon="4.5745">
        <ele>1371.2</ele>
        <time>2026-08-18T07:17:33.009Z</time>
      </trkpt>
      <trkpt lat="45.38861" lon="4.57451">
        <ele>1371.5</ele>
        <time>2026-08-18T07:17:35.007Z</time>
      </trkpt>
      <trkpt lat="45.38861" lon="4.57451">
        <ele>1371.9</ele>
        <time>2026-08-18T07:17:36.007Z</time>
      </trkpt>
      <trkpt lat="45.38859" lon="4.57453">
        <ele>1371.8</ele>
        <time>2026-08-18T07:17:38.007Z</time>
      </trkpt>
      <trkpt lat="45.38859" lon="4.57454">
        <ele>1371.8</ele>
        <time>2026-08-18T07:17:39.007Z</time>
      </trkpt>
      <trkpt lat="45.38859" lon="4.57453">
        <ele>1371.8</ele>
        <time>2026-08-18T07:17:40.007Z</time>
      </trkpt>
      <trkpt lat="45.38859" lon="4.57452">
        <ele>1371.8</ele>
        <time>2026-08-18T07:17:41.007Z</time>
      </trkpt>
      <trkpt lat="45.3886" lon="4.57452">
        <ele>1358.9</ele>
        <time>2026-08-18T07:17:42.007Z</time>
      </trkpt>
      <trkpt lat="45.3886" lon="4.57452">
        <ele>1358.9</ele>
        <time>2026-08-18T07:17:43.007Z</time>
      </trkpt>
      <trkpt lat="45.38859" lon="4.57452">
        <ele>1358.9</ele>
        <time>2026-08-18T07:17:45.006Z</time>
      </trkpt>
      <trkpt lat="45.38858" lon="4.57452">
        <ele>1358.9</ele>
        <time>2026-08-18T07:17:46.007Z</time>
      </trkpt>
      <trkpt lat="45.38855" lon="4.57452">
        <ele>1358.8</ele>
        <time>2026-08-18T07:17:48.007Z</time>
      </trkpt>
      <trkpt lat="45.38855" lon="4.57452">
        <ele>1358.8</ele>
        <time>2026-08-18T07:17:49.007Z</time>
      </trkpt>
      <trkpt lat="45.38853" lon="4.57453">
        <ele>1358.8</ele>
        <time>2026-08-18T07:17:51.007Z</time>
      </trkpt>
      <trkpt lat="45.38852" lon="4.57454">
        <ele>1358.8</ele>
        <time>2026-08-18T07:17:52.007Z</time>
      </trkpt>
      <trkpt lat="45.3885" lon="4.57455">
        <ele>1358.8</ele>
        <time>2026-08-18T07:17:54.007Z</time>
      </trkpt>
      <trkpt lat="45.38848" lon="4.57456">
        <ele>1358.8</ele>
        <time>2026-08-18T07:17:56.007Z</time>
      </trkpt>
      <trkpt lat="45.38847" lon="4.57458">
        <ele>1358.8</ele>
        <time>2026-08-18T07:17:58.007Z</time>
      </trkpt>
      <trkpt lat="45.38846" lon="4.57459">
        <ele>1358.8</ele>
        <time>2026-08-18T07:17:59.007Z</time>
      </trkpt>
      <trkpt lat="45.38844" lon="4.57459">
        <ele>1358.8</ele>
        <time>2026-08-18T07:18:01.006Z</time>
      </trkpt>
      <trkpt lat="45.38843" lon="4.57459">
        <ele>1358.8</ele>
        <time>2026-08-18T07:18:02.007Z</time>
      </trkpt>
      <trkpt lat="45.38843" lon="4.57458">
        <ele>1358.8</ele>
        <time>2026-08-18T07:18:03.007Z</time>
      </trkpt>
      <trkpt lat="45.38839" lon="4.57462">
        <ele>1358.8</ele>
        <time>2026-08-18T07:18:18.987Z</time>
      </trkpt>
      <trkpt lat="45.38838" lon="4.57462">
        <ele>1358.8</ele>
        <time>2026-08-18T07:18:20.007Z</time>
      </trkpt>
      <trkpt lat="45.38835" lon="4.57462">
        <ele>1358.8</ele>
        <time>2026-08-18T07:18:22.007Z</time>
      </trkpt>
      <trkpt lat="45.38832" lon="4.57463">
        <ele>1358.8</ele>
        <time>2026-08-18T07:18:24.006Z</time>
      </trkpt>
      <trkpt lat="45.38831" lon="4.57463">
        <ele>1358.8</ele>
        <time>2026-08-18T07:18:25.006Z</time>
      </trkpt>
      <trkpt lat="45.3883" lon="4.57463">
        <ele>1358.8</ele>
        <time>2026-08-18T07:18:26.006Z</time>
      </trkpt>
      <trkpt lat="45.38829" lon="4.57462">
        <ele>1358.8</ele>
        <time>2026-08-18T07:18:27.006Z</time>
      </trkpt>
      <trkpt lat="45.38828" lon="4.57461">
        <ele>1358.8</ele>
        <time>2026-08-18T07:18:28.007Z</time>
      </trkpt>
      <trkpt lat="45.38826" lon="4.57461">
        <ele>1358.8</ele>
        <time>2026-08-18T07:18:30.007Z</time>
      </trkpt>
      <trkpt lat="45.38826" lon="4.57462">
        <ele>1358.8</ele>
        <time>2026-08-18T07:18:32.007Z</time>
      </trkpt>
      <trkpt lat="45.38824" lon="4.57463">
        <ele>1358.8</ele>
        <time>2026-08-18T07:18:34.006Z</time>
      </trkpt>
      <trkpt lat="45.38823" lon="4.57464">
        <ele>1358.8</ele>
        <time>2026-08-18T07:18:35.007Z</time>
      </trkpt>
      <trkpt lat="45.38822" lon="4.57464">
        <ele>1358.9</ele>
        <time>2026-08-18T07:18:36.007Z</time>
      </trkpt>
      <trkpt lat="45.3882" lon="4.57465">
        <ele>1358.9</ele>
        <time>2026-08-18T07:18:38.007Z</time>
      </trkpt>
      <trkpt lat="45.3882" lon="4.57464">
        <ele>1358.9</ele>
        <time>2026-08-18T07:18:40.007Z</time>
      </trkpt>
      <trkpt lat="45.38819" lon="4.57464">
        <ele>1358.9</ele>
        <time>2026-08-18T07:18:41.007Z</time>
      </trkpt>
      <trkpt lat="45.38819" lon="4.57465">
        <ele>1358.9</ele>
        <time>2026-08-18T07:18:43.007Z</time>
      </trkpt>
      <trkpt lat="45.38817" lon="4.57467">
        <ele>1358.9</ele>
        <time>2026-08-18T07:18:45.006Z</time>
      </trkpt>
      <trkpt lat="45.38816" lon="4.57468">
        <ele>1358.9</ele>
        <time>2026-08-18T07:18:46.007Z</time>
      </trkpt>
      <trkpt lat="45.38816" lon="4.57468">
        <ele>1358.9</ele>
        <time>2026-08-18T07:18:47.007Z</time>
      </trkpt>
      <trkpt lat="45.38816" lon="4.57466">
        <ele>1358.9</ele>
        <time>2026-08-18T07:18:49.007Z</time>
      </trkpt>
      <trkpt lat="45.38816" lon="4.57467">
        <ele>1358.9</ele>
        <time>2026-08-18T07:18:51.007Z</time>
      </trkpt>
      <trkpt lat="45.38815" lon="4.57467">
        <ele>1358.9</ele>
        <time>2026-08-18T07:18:53.007Z</time>
      </trkpt>
      <trkpt lat="45.38814" lon="4.57467">
        <ele>1358.9</ele>
        <time>2026-08-18T07:18:54.007Z</time>
      </trkpt>
      <trkpt lat="45.38812" lon="4.57469">
        <ele>1358.9</ele>
        <time>2026-08-18T07:18:56.006Z</time>
      </trkpt>
      <trkpt lat="45.38811" lon="4.57469">
        <ele>1377.7</ele>
        <time>2026-08-18T07:18:57.006Z</time>
      </trkpt>
      <trkpt lat="45.3881" lon="4.5747">
        <ele>1377.9</ele>
        <time>2026-08-18T07:18:58.007Z</time>
      </trkpt>
      <trkpt lat="45.38808" lon="4.5747">
        <ele>1378.4</ele>
        <time>2026-08-18T07:19:00.006Z</time>
      </trkpt>
      <trkpt lat="45.38805" lon="4.5747">
        <ele>1358.8</ele>
        <time>2026-08-18T07:19:02.007Z</time>
      </trkpt>
      <trkpt lat="45.38803" lon="4.57471">
        <ele>1358.8</ele>
        <time>2026-08-18T07:19:04.006Z</time>
      </trkpt>
      <trkpt lat="45.38802" lon="4.57471">
        <ele>1358.8</ele>
        <time>2026-08-18T07:19:05.007Z</time>
      </trkpt>
      <trkpt lat="45.388" lon="4.57471">
        <ele>1358.8</ele>
        <time>2026-08-18T07:19:06.007Z</time>
      </trkpt>
      <trkpt lat="45.38799" lon="4.57471">
        <ele>1377.9</ele>
        <time>2026-08-18T07:19:07.007Z</time>
      </trkpt>
      <trkpt lat="45.38797" lon="4.57471">
        <ele>1358.8</ele>
        <time>2026-08-18T07:19:09.007Z</time>
      </trkpt>
      <trkpt lat="45.38796" lon="4.57471">
        <ele>1358.8</ele>
        <time>2026-08-18T07:19:10.007Z</time>
      </trkpt>
      <trkpt lat="45.38795" lon="4.57471">
        <ele>1358.8</ele>
        <time>2026-08-18T07:19:11.007Z</time>
      </trkpt>
      <trkpt lat="45.38792" lon="4.57471">
        <ele>1358.9</ele>
        <time>2026-08-18T07:19:13.007Z</time>
      </trkpt>
      <trkpt lat="45.3879" lon="4.57471">
        <ele>1358.9</ele>
        <time>2026-08-18T07:19:15.007Z</time>
      </trkpt>
      <trkpt lat="45.38788" lon="4.57472">
        <ele>1358.9</ele>
        <time>2026-08-18T07:19:17.006Z</time>
      </trkpt>
      <trkpt lat="45.38787" lon="4.57472">
        <ele>1358.9</ele>
        <time>2026-08-18T07:19:18.007Z</time>
      </trkpt>
      <trkpt lat="45.38785" lon="4.5747">
        <ele>1381.4</ele>
        <time>2026-08-18T07:19:20.007Z</time>
      </trkpt>
      <trkpt lat="45.38784" lon="4.5747">
        <ele>1382.3</ele>
        <time>2026-08-18T07:19:21.007Z</time>
      </trkpt>
      <trkpt lat="45.38782" lon="4.57471">
        <ele>1382</ele>
        <time>2026-08-18T07:19:22.007Z</time>
      </trkpt>
      <trkpt lat="45.38781" lon="4.57471">
        <ele>1381.7</ele>
        <time>2026-08-18T07:19:23.007Z</time>
      </trkpt>
      <trkpt lat="45.38779" lon="4.57471">
        <ele>1358.8</ele>
        <time>2026-08-18T07:19:25.007Z</time>
      </trkpt>
      <trkpt lat="45.38778" lon="4.57471">
        <ele>1358.8</ele>
        <time>2026-08-18T07:19:26.007Z</time>
      </trkpt>
      <trkpt lat="45.38777" lon="4.57471">
        <ele>1358.8</ele>
        <time>2026-08-18T07:19:27.007Z</time>
      </trkpt>
      <trkpt lat="45.38775" lon="4.57473">
        <ele>1358.8</ele>
        <time>2026-08-18T07:19:28.865Z</time>
      </trkpt>
      <trkpt lat="45.38774" lon="4.57474">
        <ele>1383.9</ele>
        <time>2026-08-18T07:19:29.950Z</time>
      </trkpt>
      <trkpt lat="45.38773" lon="4.57474">
        <ele>1383.8</ele>
        <time>2026-08-18T07:19:31.006Z</time>
      </trkpt>
      <trkpt lat="45.38772" lon="4.57474">
        <ele>1384</ele>
        <time>2026-08-18T07:19:32.006Z</time>
      </trkpt>
      <trkpt lat="45.38771" lon="4.57473">
        <ele>1384.2</ele>
        <time>2026-08-18T07:19:33.007Z</time>
      </trkpt>
      <trkpt lat="45.38768" lon="4.57474">
        <ele>1358.8</ele>
        <time>2026-08-18T07:19:35.007Z</time>
      </trkpt>
      <trkpt lat="45.38768" lon="4.57474">
        <ele>1358.8</ele>
        <time>2026-08-18T07:19:36.007Z</time>
      </trkpt>
      <trkpt lat="45.38766" lon="4.57476">
        <ele>1358.8</ele>
        <time>2026-08-18T07:19:38.007Z</time>
      </trkpt>
      <trkpt lat="45.38764" lon="4.57477">
        <ele>1358.8</ele>
        <time>2026-08-18T07:19:40.007Z</time>
      </trkpt>
      <trkpt lat="45.38762" lon="4.57478">
        <ele>1358.9</ele>
        <time>2026-08-18T07:19:42.007Z</time>
      </trkpt>
      <trkpt lat="45.38761" lon="4.57477">
        <ele>1358.9</ele>
        <time>2026-08-18T07:19:43.007Z</time>
      </trkpt>
      <trkpt lat="45.3876" lon="4.57478">
        <ele>1358.9</ele>
        <time>2026-08-18T07:19:44.007Z</time>
      </trkpt>
      <trkpt lat="45.38759" lon="4.57478">
        <ele>1358.9</ele>
        <time>2026-08-18T07:19:45.007Z</time>
      </trkpt>
      <trkpt lat="45.38758" lon="4.57478">
        <ele>1358.9</ele>
        <time>2026-08-18T07:19:46.008Z</time>
      </trkpt>
      <trkpt lat="45.38756" lon="4.57479">
        <ele>1358.9</ele>
        <time>2026-08-18T07:19:47.947Z</time>
      </trkpt>
      <trkpt lat="45.38755" lon="4.57479">
        <ele>1358.9</ele>
        <time>2026-08-18T07:19:49.007Z</time>
      </trkpt>
      <trkpt lat="45.38753" lon="4.5748">
        <ele>1358.9</ele>
        <time>2026-08-18T07:19:51.007Z</time>
      </trkpt>
      <trkpt lat="45.38751" lon="4.5748">
        <ele>1358.9</ele>
        <time>2026-08-18T07:19:53.007Z</time>
      </trkpt>
      <trkpt lat="45.38749" lon="4.57481">
        <ele>1358.9</ele>
        <time>2026-08-18T07:19:55.007Z</time>
      </trkpt>
      <trkpt lat="45.38748" lon="4.57481">
        <ele>1358.9</ele>
        <time>2026-08-18T07:19:56.007Z</time>
      </trkpt>
      <trkpt lat="45.38747" lon="4.57482">
        <ele>1358.9</ele>
        <time>2026-08-18T07:19:57.007Z</time>
      </trkpt>
      <trkpt lat="45.38746" lon="4.57482">
        <ele>1358.9</ele>
        <time>2026-08-18T07:19:58.007Z</time>
      </trkpt>
      <trkpt lat="45.38744" lon="4.57483">
        <ele>1358.9</ele>
        <time>2026-08-18T07:19:59.007Z</time>
      </trkpt>
      <trkpt lat="45.38742" lon="4.57483">
        <ele>1358.9</ele>
        <time>2026-08-18T07:20:01.007Z</time>
      </trkpt>
      <trkpt lat="45.38741" lon="4.57484">
        <ele>1358.9</ele>
        <time>2026-08-18T07:20:02.007Z</time>
      </trkpt>
      <trkpt lat="45.3874" lon="4.57485">
        <ele>1358.9</ele>
        <time>2026-08-18T07:20:03.007Z</time>
      </trkpt>
      <trkpt lat="45.38739" lon="4.57485">
        <ele>1358.9</ele>
        <time>2026-08-18T07:20:04.007Z</time>
      </trkpt>
      <trkpt lat="45.38737" lon="4.57487">
        <ele>1358.9</ele>
        <time>2026-08-18T07:20:06.007Z</time>
      </trkpt>
      <trkpt lat="45.38737" lon="4.57488">
        <ele>1358.9</ele>
        <time>2026-08-18T07:20:07.007Z</time>
      </trkpt>
      <trkpt lat="45.38736" lon="4.57489">
        <ele>1358.9</ele>
        <time>2026-08-18T07:20:08.007Z</time>
      </trkpt>
      <trkpt lat="45.38734" lon="4.5749">
        <ele>1358.9</ele>
        <time>2026-08-18T07:20:10.007Z</time>
      </trkpt>
      <trkpt lat="45.38732" lon="4.57491">
        <ele>1358.9</ele>
        <time>2026-08-18T07:20:12.006Z</time>
      </trkpt>
      <trkpt lat="45.38729" lon="4.57491">
        <ele>1358.9</ele>
        <time>2026-08-18T07:20:14.006Z</time>
      </trkpt>
      <trkpt lat="45.38728" lon="4.57491">
        <ele>1358.9</ele>
        <time>2026-08-18T07:20:16.006Z</time>
      </trkpt>
      <trkpt lat="45.38726" lon="4.57492">
        <ele>1358.9</ele>
        <time>2026-08-18T07:20:17.007Z</time>
      </trkpt>
      <trkpt lat="45.38725" lon="4.57491">
        <ele>1358.9</ele>
        <time>2026-08-18T07:20:18.007Z</time>
      </trkpt>
      <trkpt lat="45.38723" lon="4.57491">
        <ele>1358.8</ele>
        <time>2026-08-18T07:20:20.007Z</time>
      </trkpt>
      <trkpt lat="45.38722" lon="4.57491">
        <ele>1358.8</ele>
        <time>2026-08-18T07:20:21.007Z</time>
      </trkpt>
      <trkpt lat="45.38721" lon="4.57492">
        <ele>1358.8</ele>
        <time>2026-08-18T07:20:22.007Z</time>
      </trkpt>
      <trkpt lat="45.38719" lon="4.57492">
        <ele>1358.8</ele>
        <time>2026-08-18T07:20:24.006Z</time>
      </trkpt>
      <trkpt lat="45.38718" lon="4.57492">
        <ele>1358.9</ele>
        <time>2026-08-18T07:20:25.006Z</time>
      </trkpt>
      <trkpt lat="45.38718" lon="4.57492">
        <ele>1358.9</ele>
        <time>2026-08-18T07:20:26.007Z</time>
      </trkpt>
      <trkpt lat="45.38716" lon="4.57494">
        <ele>1358.9</ele>
        <time>2026-08-18T07:20:28.006Z</time>
      </trkpt>
      <trkpt lat="45.38715" lon="4.57495">
        <ele>1358.9</ele>
        <time>2026-08-18T07:20:29.006Z</time>
      </trkpt>
      <trkpt lat="45.38714" lon="4.57496">
        <ele>1358.9</ele>
        <time>2026-08-18T07:20:30.006Z</time>
      </trkpt>
      <trkpt lat="45.38713" lon="4.57497">
        <ele>1358.9</ele>
        <time>2026-08-18T07:20:31.007Z</time>
      </trkpt>
      <trkpt lat="45.38713" lon="4.57498">
        <ele>1358.9</ele>
        <time>2026-08-18T07:20:32.012Z</time>
      </trkpt>
      <trkpt lat="45.38711" lon="4.575">
        <ele>1358.9</ele>
        <time>2026-08-18T07:20:33.981Z</time>
      </trkpt>
      <trkpt lat="45.3871" lon="4.575">
        <ele>1358.9</ele>
        <time>2026-08-18T07:20:35.007Z</time>
      </trkpt>
      <trkpt lat="45.38709" lon="4.57501">
        <ele>1358.8</ele>
        <time>2026-08-18T07:20:36.007Z</time>
      </trkpt>
      <trkpt lat="45.38708" lon="4.57501">
        <ele>1358.8</ele>
        <time>2026-08-18T07:20:38.006Z</time>
      </trkpt>
      <trkpt lat="45.38706" lon="4.57503">
        <ele>1358.8</ele>
        <time>2026-08-18T07:20:40.007Z</time>
      </trkpt>
      <trkpt lat="45.38705" lon="4.57503">
        <ele>1358.8</ele>
        <time>2026-08-18T07:20:41.007Z</time>
      </trkpt>
      <trkpt lat="45.38704" lon="4.57504">
        <ele>1358.9</ele>
        <time>2026-08-18T07:20:42.007Z</time>
      </trkpt>
      <trkpt lat="45.38703" lon="4.57504">
        <ele>1358.9</ele>
        <time>2026-08-18T07:20:43.007Z</time>
      </trkpt>
      <trkpt lat="45.38701" lon="4.57506">
        <ele>1358.9</ele>
        <time>2026-08-18T07:20:45.007Z</time>
      </trkpt>
      <trkpt lat="45.38699" lon="4.57507">
        <ele>1358.8</ele>
        <time>2026-08-18T07:20:47.007Z</time>
      </trkpt>
      <trkpt lat="45.38698" lon="4.57506">
        <ele>1358.8</ele>
        <time>2026-08-18T07:20:49.006Z</time>
      </trkpt>
      <trkpt lat="45.38698" lon="4.57505">
        <ele>1358.8</ele>
        <time>2026-08-18T07:20:50.007Z</time>
      </trkpt>
      <trkpt lat="45.38693" lon="4.5751">
        <ele>1399.9</ele>
        <time>2026-08-18T07:21:04.976Z</time>
      </trkpt>
      <trkpt lat="45.38691" lon="4.57511">
        <ele>1401</ele>
        <time>2026-08-18T07:21:06.006Z</time>
      </trkpt>
      <trkpt lat="45.3869" lon="4.57512">
        <ele>1358.8</ele>
        <time>2026-08-18T07:21:07.006Z</time>
      </trkpt>
      <trkpt lat="45.38689" lon="4.57513">
        <ele>1358.8</ele>
        <time>2026-08-18T07:21:08.007Z</time>
      </trkpt>
      <trkpt lat="45.38688" lon="4.57514">
        <ele>1358.8</ele>
        <time>2026-08-18T07:21:09.007Z</time>
      </trkpt>
      <trkpt lat="45.38686" lon="4.57515">
        <ele>1358.8</ele>
        <time>2026-08-18T07:21:11.007Z</time>
      </trkpt>
      <trkpt lat="45.38684" lon="4.57517">
        <ele>1358.9</ele>
        <time>2026-08-18T07:21:13.007Z</time>
      </trkpt>
      <trkpt lat="45.38683" lon="4.57518">
        <ele>1358.9</ele>
        <time>2026-08-18T07:21:14.007Z</time>
      </trkpt>
      <trkpt lat="45.38682" lon="4.57518">
        <ele>1358.9</ele>
        <time>2026-08-18T07:21:15.007Z</time>
      </trkpt>
      <trkpt lat="45.3868" lon="4.57519">
        <ele>1358.9</ele>
        <time>2026-08-18T07:21:17.006Z</time>
      </trkpt>
      <trkpt lat="45.38678" lon="4.57521">
        <ele>1401.7</ele>
        <time>2026-08-18T07:21:19.007Z</time>
      </trkpt>
      <trkpt lat="45.38676" lon="4.57522">
        <ele>1401.9</ele>
        <time>2026-08-18T07:21:21.007Z</time>
      </trkpt>
      <trkpt lat="45.38676" lon="4.57522">
        <ele>1402.3</ele>
        <time>2026-08-18T07:21:22.007Z</time>
      </trkpt>
      <trkpt lat="45.38674" lon="4.57523">
        <ele>1402.8</ele>
        <time>2026-08-18T07:21:23.007Z</time>
      </trkpt>
      <trkpt lat="45.38674" lon="4.57524">
        <ele>1403</ele>
        <time>2026-08-18T07:21:24.007Z</time>
      </trkpt>
      <trkpt lat="45.38672" lon="4.57525">
        <ele>1403.5</ele>
        <time>2026-08-18T07:21:26.016Z</time>
      </trkpt>
      <trkpt lat="45.3867" lon="4.57527">
        <ele>1404</ele>
        <time>2026-08-18T07:21:28.007Z</time>
      </trkpt>
      <trkpt lat="45.38669" lon="4.57528">
        <ele>1404.3</ele>
        <time>2026-08-18T07:21:29.007Z</time>
      </trkpt>
      <trkpt lat="45.38667" lon="4.57529">
        <ele>1404.4</ele>
        <time>2026-08-18T07:21:31.006Z</time>
      </trkpt>
      <trkpt lat="45.38666" lon="4.5753">
        <ele>1404.6</ele>
        <time>2026-08-18T07:21:32.006Z</time>
      </trkpt>
      <trkpt lat="45.38665" lon="4.5753">
        <ele>1404.7</ele>
        <time>2026-08-18T07:21:33.007Z</time>
      </trkpt>
      <trkpt lat="45.38664" lon="4.5753">
        <ele>1404.7</ele>
        <time>2026-08-18T07:21:34.011Z</time>
      </trkpt>
      <trkpt lat="45.38662" lon="4.5753">
        <ele>1404.6</ele>
        <time>2026-08-18T07:21:35.971Z</time>
      </trkpt>
      <trkpt lat="45.38661" lon="4.57531">
        <ele>1404.6</ele>
        <time>2026-08-18T07:21:37.007Z</time>
      </trkpt>
      <trkpt lat="45.38659" lon="4.57532">
        <ele>1358.9</ele>
        <time>2026-08-18T07:21:39.007Z</time>
      </trkpt>
      <trkpt lat="45.38658" lon="4.57533">
        <ele>1358.9</ele>
        <time>2026-08-18T07:21:40.007Z</time>
      </trkpt>
      <trkpt lat="45.38657" lon="4.57534">
        <ele>1358.9</ele>
        <time>2026-08-18T07:21:41.007Z</time>
      </trkpt>
      <trkpt lat="45.38655" lon="4.57536">
        <ele>1358.9</ele>
        <time>2026-08-18T07:21:43.007Z</time>
      </trkpt>
      <trkpt lat="45.38654" lon="4.57538">
        <ele>1358.9</ele>
        <time>2026-08-18T07:21:45.006Z</time>
      </trkpt>
      <trkpt lat="45.38654" lon="4.57539">
        <ele>1358.9</ele>
        <time>2026-08-18T07:21:46.010Z</time>
      </trkpt>
      <trkpt lat="45.38654" lon="4.57541">
        <ele>1358.9</ele>
        <time>2026-08-18T07:21:48.006Z</time>
      </trkpt>
      <trkpt lat="45.38653" lon="4.57541">
        <ele>1358.9</ele>
        <time>2026-08-18T07:21:49.007Z</time>
      </trkpt>
      <trkpt lat="45.38652" lon="4.57542">
        <ele>1358.9</ele>
        <time>2026-08-18T07:21:50.007Z</time>
      </trkpt>
      <trkpt lat="45.38652" lon="4.57542">
        <ele>1358.9</ele>
        <time>2026-08-18T07:21:51.007Z</time>
      </trkpt>
      <trkpt lat="45.38651" lon="4.57543">
        <ele>1358.9</ele>
        <time>2026-08-18T07:21:53.007Z</time>
      </trkpt>
      <trkpt lat="45.38649" lon="4.57543">
        <ele>1358.9</ele>
        <time>2026-08-18T07:21:55.007Z</time>
      </trkpt>
      <trkpt lat="45.38647" lon="4.57545">
        <ele>1358.9</ele>
        <time>2026-08-18T07:21:57.010Z</time>
      </trkpt>
      <trkpt lat="45.38645" lon="4.57547">
        <ele>1358.9</ele>
        <time>2026-08-18T07:21:59.007Z</time>
      </trkpt>
      <trkpt lat="45.38644" lon="4.57548">
        <ele>1358.9</ele>
        <time>2026-08-18T07:22:00.007Z</time>
      </trkpt>
      <trkpt lat="45.38643" lon="4.57549">
        <ele>1358.9</ele>
        <time>2026-08-18T07:22:01.007Z</time>
      </trkpt>
      <trkpt lat="45.38642" lon="4.57551">
        <ele>1358.9</ele>
        <time>2026-08-18T07:22:03.007Z</time>
      </trkpt>
      <trkpt lat="45.38641" lon="4.57551">
        <ele>1358.9</ele>
        <time>2026-08-18T07:22:04.007Z</time>
      </trkpt>
      <trkpt lat="45.3864" lon="4.57552">
        <ele>1358.9</ele>
        <time>2026-08-18T07:22:05.976Z</time>
      </trkpt>
      <trkpt lat="45.38639" lon="4.57553">
        <ele>1358.9</ele>
        <time>2026-08-18T07:22:07.006Z</time>
      </trkpt>
      <trkpt lat="45.38639" lon="4.57553">
        <ele>1358.9</ele>
        <time>2026-08-18T07:22:08.007Z</time>
      </trkpt>
      <trkpt lat="45.38638" lon="4.57554">
        <ele>1358.9</ele>
        <time>2026-08-18T07:22:09.007Z</time>
      </trkpt>
      <trkpt lat="45.38637" lon="4.57555">
        <ele>1358.9</ele>
        <time>2026-08-18T07:22:10.015Z</time>
      </trkpt>
      <trkpt lat="45.38637" lon="4.57556">
        <ele>1358.9</ele>
        <time>2026-08-18T07:22:11.015Z</time>
      </trkpt>
      <trkpt lat="45.38635" lon="4.57558">
        <ele>1358.9</ele>
        <time>2026-08-18T07:22:13.007Z</time>
      </trkpt>
      <trkpt lat="45.38634" lon="4.57559">
        <ele>1358.9</ele>
        <time>2026-08-18T07:22:14.007Z</time>
      </trkpt>
      <trkpt lat="45.38633" lon="4.5756">
        <ele>1358.9</ele>
        <time>2026-08-18T07:22:16.006Z</time>
      </trkpt>
      <trkpt lat="45.38631" lon="4.5756">
        <ele>1358.9</ele>
        <time>2026-08-18T07:22:17.007Z</time>
      </trkpt>
      <trkpt lat="45.38631" lon="4.57557">
        <ele>1358.9</ele>
        <time>2026-08-18T07:22:18.007Z</time>
      </trkpt>
      <trkpt lat="45.38631" lon="4.57557">
        <ele>1358.9</ele>
        <time>2026-08-18T07:22:20.007Z</time>
      </trkpt>
      <trkpt lat="45.38631" lon="4.57557">
        <ele>1358.9</ele>
        <time>2026-08-18T07:22:22.007Z</time>
      </trkpt>
      <trkpt lat="45.38631" lon="4.57558">
        <ele>1358.9</ele>
        <time>2026-08-18T07:22:24.007Z</time>
      </trkpt>
      <trkpt lat="45.3863" lon="4.57559">
        <ele>1358.9</ele>
        <time>2026-08-18T07:22:25.007Z</time>
      </trkpt>
      <trkpt lat="45.38629" lon="4.57559">
        <ele>1358.9</ele>
        <time>2026-08-18T07:22:26.007Z</time>
      </trkpt>
      <trkpt lat="45.38626" lon="4.57559">
        <ele>1358.9</ele>
        <time>2026-08-18T07:22:28.007Z</time>
      </trkpt>
      <trkpt lat="45.38624" lon="4.57562">
        <ele>1358.9</ele>
        <time>2026-08-18T07:22:30.006Z</time>
      </trkpt>
      <trkpt lat="45.38623" lon="4.57562">
        <ele>1358.9</ele>
        <time>2026-08-18T07:22:31.006Z</time>
      </trkpt>
      <trkpt lat="45.38622" lon="4.57563">
        <ele>1358.9</ele>
        <time>2026-08-18T07:22:32.009Z</time>
      </trkpt>
      <trkpt lat="45.3862" lon="4.57563">
        <ele>1358.9</ele>
        <time>2026-08-18T07:22:34.006Z</time>
      </trkpt>
      <trkpt lat="45.38619" lon="4.57563">
        <ele>1358.9</ele>
        <time>2026-08-18T07:22:35.007Z</time>
      </trkpt>
      <trkpt lat="45.38618" lon="4.57564">
        <ele>1358.9</ele>
        <time>2026-08-18T07:22:37.007Z</time>
      </trkpt>
      <trkpt lat="45.38616" lon="4.57564">
        <ele>1358.9</ele>
        <time>2026-08-18T07:22:39.007Z</time>
      </trkpt>
      <trkpt lat="45.38614" lon="4.57564">
        <ele>1358.9</ele>
        <time>2026-08-18T07:22:40.917Z</time>
      </trkpt>
      <trkpt lat="45.38613" lon="4.57564">
        <ele>1358.9</ele>
        <time>2026-08-18T07:22:42.006Z</time>
      </trkpt>
      <trkpt lat="45.38613" lon="4.57564">
        <ele>1358.9</ele>
        <time>2026-08-18T07:22:43.007Z</time>
      </trkpt>
      <trkpt lat="45.38612" lon="4.57563">
        <ele>1358.9</ele>
        <time>2026-08-18T07:22:45.007Z</time>
      </trkpt>
      <trkpt lat="45.38608" lon="4.57565">
        <ele>1358.9</ele>
        <time>2026-08-18T07:22:59.006Z</time>
      </trkpt>
      <trkpt lat="45.38606" lon="4.57565">
        <ele>1358.9</ele>
        <time>2026-08-18T07:23:00.007Z</time>
      </trkpt>
      <trkpt lat="45.38605" lon="4.57564">
        <ele>1358.9</ele>
        <time>2026-08-18T07:23:01.911Z</time>
      </trkpt>
      <trkpt lat="45.38605" lon="4.57563">
        <ele>1358.9</ele>
        <time>2026-08-18T07:23:03.007Z</time>
      </trkpt>
      <trkpt lat="45.38605" lon="4.57563">
        <ele>1415.6</ele>
        <time>2026-08-18T07:23:04.007Z</time>
      </trkpt>
      <trkpt lat="45.38605" lon="4.57564">
        <ele>1415.8</ele>
        <time>2026-08-18T07:23:05.007Z</time>
      </trkpt>
      <trkpt lat="45.38605" lon="4.57565">
        <ele>1416.3</ele>
        <time>2026-08-18T07:23:06.007Z</time>
      </trkpt>
      <trkpt lat="45.38604" lon="4.57566">
        <ele>1416.1</ele>
        <time>2026-08-18T07:23:07.007Z</time>
      </trkpt>
      <trkpt lat="45.38602" lon="4.57567">
        <ele>1416.6</ele>
        <time>2026-08-18T07:23:09.006Z</time>
      </trkpt>
      <trkpt lat="45.386" lon="4.57567">
        <ele>1416.2</ele>
        <time>2026-08-18T07:23:10.007Z</time>
      </trkpt>
      <trkpt lat="45.38599" lon="4.57565">
        <ele>1416.6</ele>
        <time>2026-08-18T07:23:12.007Z</time>
      </trkpt>
      <trkpt lat="45.38599" lon="4.57564">
        <ele>1415.8</ele>
        <time>2026-08-18T07:23:14.007Z</time>
      </trkpt>
      <trkpt lat="45.38564" lon="4.57583">
        <ele>1420.1</ele>
        <time>2026-08-18T07:24:31.007Z</time>
      </trkpt>
      <trkpt lat="45.38563" lon="4.57583">
        <ele>1420.7</ele>
        <time>2026-08-18T07:24:32.007Z</time>
      </trkpt>
      <trkpt lat="45.38562" lon="4.57584">
        <ele>1421.1</ele>
        <time>2026-08-18T07:24:34.006Z</time>
      </trkpt>
      <trkpt lat="45.3856" lon="4.57585">
        <ele>1421.4</ele>
        <time>2026-08-18T07:24:36.006Z</time>
      </trkpt>
      <trkpt lat="45.3856" lon="4.57586">
        <ele>1421.4</ele>
        <time>2026-08-18T07:24:37.007Z</time>
      </trkpt>
      <trkpt lat="45.38559" lon="4.57586">
        <ele>1421.4</ele>
        <time>2026-08-18T07:24:38.007Z</time>
      </trkpt>
      <trkpt lat="45.38557" lon="4.57586">
        <ele>1421.8</ele>
        <time>2026-08-18T07:24:40.007Z</time>
      </trkpt>
      <trkpt lat="45.38554" lon="4.57587">
        <ele>1421.9</ele>
        <time>2026-08-18T07:24:42.006Z</time>
      </trkpt>
      <trkpt lat="45.38553" lon="4.57588">
        <ele>1422.4</ele>
        <time>2026-08-18T07:24:44.007Z</time>
      </trkpt>
      <trkpt lat="45.38552" lon="4.57588">
        <ele>1422.5</ele>
        <time>2026-08-18T07:24:45.007Z</time>
      </trkpt>
      <trkpt lat="45.38551" lon="4.57588">
        <ele>1422.8</ele>
        <time>2026-08-18T07:24:46.007Z</time>
      </trkpt>
      <trkpt lat="45.3855" lon="4.57589">
        <ele>1422.8</ele>
        <time>2026-08-18T07:24:47.909Z</time>
      </trkpt>
      <trkpt lat="45.38549" lon="4.57589">
        <ele>1422.9</ele>
        <time>2026-08-18T07:24:49.006Z</time>
      </trkpt>
      <trkpt lat="45.38548" lon="4.5759">
        <ele>1423.2</ele>
        <time>2026-08-18T07:24:50.006Z</time>
      </trkpt>
      <trkpt lat="45.38546" lon="4.57591">
        <ele>1423.8</ele>
        <time>2026-08-18T07:24:52.007Z</time>
      </trkpt>
      <trkpt lat="45.38545" lon="4.57591">
        <ele>1423.7</ele>
        <time>2026-08-18T07:24:53.007Z</time>
      </trkpt>
      <trkpt lat="45.38544" lon="4.57591">
        <ele>1424</ele>
        <time>2026-08-18T07:24:54.007Z</time>
      </trkpt>
      <trkpt lat="45.38543" lon="4.57592">
        <ele>1424.2</ele>
        <time>2026-08-18T07:24:55.007Z</time>
      </trkpt>
      <trkpt lat="45.38542" lon="4.57593">
        <ele>1424.5</ele>
        <time>2026-08-18T07:24:57.006Z</time>
      </trkpt>
      <trkpt lat="45.38541" lon="4.57593">
        <ele>1425</ele>
        <time>2026-08-18T07:24:58.007Z</time>
      </trkpt>
      <trkpt lat="45.38539" lon="4.57594">
        <ele>1425.4</ele>
        <time>2026-08-18T07:25:00.007Z</time>
      </trkpt>
      <trkpt lat="45.38538" lon="4.57593">
        <ele>1425.6</ele>
        <time>2026-08-18T07:25:01.007Z</time>
      </trkpt>
      <trkpt lat="45.38536" lon="4.57593">
        <ele>1425.8</ele>
        <time>2026-08-18T07:25:02.007Z</time>
      </trkpt>
      <trkpt lat="45.38535" lon="4.57592">
        <ele>1425.9</ele>
        <time>2026-08-18T07:25:03.928Z</time>
      </trkpt>
      <trkpt lat="45.38533" lon="4.57593">
        <ele>1425.8</ele>
        <time>2026-08-18T07:25:05.005Z</time>
      </trkpt>
      <trkpt lat="45.38533" lon="4.57593">
        <ele>1426</ele>
        <time>2026-08-18T07:25:06.006Z</time>
      </trkpt>
      <trkpt lat="45.38532" lon="4.57594">
        <ele>1426.5</ele>
        <time>2026-08-18T07:25:07.006Z</time>
      </trkpt>
      <trkpt lat="45.38531" lon="4.57594">
        <ele>1426.7</ele>
        <time>2026-08-18T07:25:08.006Z</time>
      </trkpt>
      <trkpt lat="45.3853" lon="4.57594">
        <ele>1427.1</ele>
        <time>2026-08-18T07:25:09.006Z</time>
      </trkpt>
      <trkpt lat="45.38529" lon="4.57594">
        <ele>1427.1</ele>
        <time>2026-08-18T07:25:10.007Z</time>
      </trkpt>
      <trkpt lat="45.38526" lon="4.57594">
        <ele>1427.1</ele>
        <time>2026-08-18T07:25:12.006Z</time>
      </trkpt>
      <trkpt lat="45.38524" lon="4.57595">
        <ele>1427.3</ele>
        <time>2026-08-18T07:25:14.006Z</time>
      </trkpt>
      <trkpt lat="45.38522" lon="4.57595">
        <ele>1427.5</ele>
        <time>2026-08-18T07:25:16.006Z</time>
      </trkpt>
      <trkpt lat="45.38521" lon="4.57595">
        <ele>1427.2</ele>
        <time>2026-08-18T07:25:17.008Z</time>
      </trkpt>
      <trkpt lat="45.38519" lon="4.57596">
        <ele>1427.7</ele>
        <time>2026-08-18T07:25:19.006Z</time>
      </trkpt>
      <trkpt lat="45.38518" lon="4.57596">
        <ele>1427.8</ele>
        <time>2026-08-18T07:25:20.006Z</time>
      </trkpt>
      <trkpt lat="45.38517" lon="4.57596">
        <ele>1428.1</ele>
        <time>2026-08-18T07:25:21.007Z</time>
      </trkpt>
      <trkpt lat="45.38516" lon="4.57597">
        <ele>1428.3</ele>
        <time>2026-08-18T07:25:22.007Z</time>
      </trkpt>
      <trkpt lat="45.38514" lon="4.57598">
        <ele>1428.7</ele>
        <time>2026-08-18T07:25:23.989Z</time>
      </trkpt>
      <trkpt lat="45.38512" lon="4.57598">
        <ele>1428.7</ele>
        <time>2026-08-18T07:25:25.007Z</time>
      </trkpt>
      <trkpt lat="45.3851" lon="4.57598">
        <ele>1429</ele>
        <time>2026-08-18T07:25:27.005Z</time>
      </trkpt>
      <trkpt lat="45.38509" lon="4.57598">
        <ele>1429</ele>
        <time>2026-08-18T07:25:28.029Z</time>
      </trkpt>
      <trkpt lat="45.38507" lon="4.57598">
        <ele>1428.8</ele>
        <time>2026-08-18T07:25:30.007Z</time>
      </trkpt>
      <trkpt lat="45.38505" lon="4.57599">
        <ele>1429.6</ele>
        <time>2026-08-18T07:25:32.005Z</time>
      </trkpt>
      <trkpt lat="45.38503" lon="4.576">
        <ele>1429.9</ele>
        <time>2026-08-18T07:25:33.007Z</time>
      </trkpt>
      <trkpt lat="45.38502" lon="4.576">
        <ele>1430.2</ele>
        <time>2026-08-18T07:25:34.008Z</time>
      </trkpt>
      <trkpt lat="45.38501" lon="4.57601">
        <ele>1430.8</ele>
        <time>2026-08-18T07:25:36.007Z</time>
      </trkpt>
      <trkpt lat="45.385" lon="4.57601">
        <ele>1430.8</ele>
        <time>2026-08-18T07:25:37.015Z</time>
      </trkpt>
      <trkpt lat="45.38498" lon="4.57601">
        <ele>1431</ele>
        <time>2026-08-18T07:25:39.007Z</time>
      </trkpt>
      <trkpt lat="45.38496" lon="4.57601">
        <ele>1430.9</ele>
        <time>2026-08-18T07:25:41.007Z</time>
      </trkpt>
      <trkpt lat="45.38494" lon="4.576">
        <ele>1431.4</ele>
        <time>2026-08-18T07:25:43.021Z</time>
      </trkpt>
      <trkpt lat="45.38492" lon="4.57602">
        <ele>1431.5</ele>
        <time>2026-08-18T07:25:45.006Z</time>
      </trkpt>
      <trkpt lat="45.38491" lon="4.57602">
        <ele>1431.7</ele>
        <time>2026-08-18T07:25:46.006Z</time>
      </trkpt>
      <trkpt lat="45.3849" lon="4.57602">
        <ele>1431.5</ele>
        <time>2026-08-18T07:25:47.007Z</time>
      </trkpt>
      <trkpt lat="45.38488" lon="4.57602">
        <ele>1431.5</ele>
        <time>2026-08-18T07:25:48.956Z</time>
      </trkpt>
      <trkpt lat="45.38487" lon="4.57603">
        <ele>1431.3</ele>
        <time>2026-08-18T07:25:49.980Z</time>
      </trkpt>
      <trkpt lat="45.38485" lon="4.57603">
        <ele>1431.6</ele>
        <time>2026-08-18T07:25:51.029Z</time>
      </trkpt>
      <trkpt lat="45.38483" lon="4.57603">
        <ele>1432.4</ele>
        <time>2026-08-18T07:25:53.006Z</time>
      </trkpt>
      <trkpt lat="45.38483" lon="4.57604">
        <ele>1432.3</ele>
        <time>2026-08-18T07:25:54.007Z</time>
      </trkpt>
      <trkpt lat="45.38481" lon="4.57604">
        <ele>1432.5</ele>
        <time>2026-08-18T07:25:56.030Z</time>
      </trkpt>
      <trkpt lat="45.38478" lon="4.57603">
        <ele>1433.6</ele>
        <time>2026-08-18T07:25:58.006Z</time>
      </trkpt>
      <trkpt lat="45.38477" lon="4.57603">
        <ele>1433.7</ele>
        <time>2026-08-18T07:25:59.006Z</time>
      </trkpt>
      <trkpt lat="45.38476" lon="4.57603">
        <ele>1434.2</ele>
        <time>2026-08-18T07:26:00.007Z</time>
      </trkpt>
      <trkpt lat="45.38474" lon="4.57604">
        <ele>1434.5</ele>
        <time>2026-08-18T07:26:02.006Z</time>
      </trkpt>
      <trkpt lat="45.38473" lon="4.57604">
        <ele>1434.5</ele>
        <time>2026-08-18T07:26:03.036Z</time>
      </trkpt>
      <trkpt lat="45.38472" lon="4.57605">
        <ele>1434.9</ele>
        <time>2026-08-18T07:26:05.006Z</time>
      </trkpt>
      <trkpt lat="45.38471" lon="4.57605">
        <ele>1434.9</ele>
        <time>2026-08-18T07:26:06.007Z</time>
      </trkpt>
      <trkpt lat="45.38469" lon="4.57606">
        <ele>1436.1</ele>
        <time>2026-08-18T07:26:08.007Z</time>
      </trkpt>
      <trkpt lat="45.38469" lon="4.57606">
        <ele>1436.1</ele>
        <time>2026-08-18T07:26:09.007Z</time>
      </trkpt>
      <trkpt lat="45.38467" lon="4.57607">
        <ele>1436.6</ele>
        <time>2026-08-18T07:26:11.013Z</time>
      </trkpt>
      <trkpt lat="45.38465" lon="4.57606">
        <ele>1437.4</ele>
        <time>2026-08-18T07:26:13.006Z</time>
      </trkpt>
      <trkpt lat="45.38464" lon="4.57606">
        <ele>1438.2</ele>
        <time>2026-08-18T07:26:15.006Z</time>
      </trkpt>
      <trkpt lat="45.38462" lon="4.57606">
        <ele>1438</ele>
        <time>2026-08-18T07:26:16.007Z</time>
      </trkpt>
      <trkpt lat="45.38462" lon="4.57606">
        <ele>1438</ele>
        <time>2026-08-18T07:26:17.020Z</time>
      </trkpt>
      <trkpt lat="45.3846" lon="4.57605">
        <ele>1438.3</ele>
        <time>2026-08-18T07:26:19.006Z</time>
      </trkpt>
      <trkpt lat="45.38459" lon="4.57605">
        <ele>1438.8</ele>
        <time>2026-08-18T07:26:20.007Z</time>
      </trkpt>
      <trkpt lat="45.38458" lon="4.57605">
        <ele>1439.1</ele>
        <time>2026-08-18T07:26:21.013Z</time>
      </trkpt>
      <trkpt lat="45.38455" lon="4.57605">
        <ele>1439.3</ele>
        <time>2026-08-18T07:26:22.954Z</time>
      </trkpt>
      <trkpt lat="45.38454" lon="4.57605">
        <ele>1439.3</ele>
        <time>2026-08-18T07:26:24.006Z</time>
      </trkpt>
      <trkpt lat="45.38453" lon="4.57605">
        <ele>1439.7</ele>
        <time>2026-08-18T07:26:25.007Z</time>
      </trkpt>
      <trkpt lat="45.38452" lon="4.57606">
        <ele>1439.9</ele>
        <time>2026-08-18T07:26:26.007Z</time>
      </trkpt>
      <trkpt lat="45.38451" lon="4.57606">
        <ele>1440.5</ele>
        <time>2026-08-18T07:26:27.088Z</time>
      </trkpt>
      <trkpt lat="45.38449" lon="4.57607">
        <ele>1440.5</ele>
        <time>2026-08-18T07:26:29.018Z</time>
      </trkpt>
      <trkpt lat="45.38448" lon="4.57608">
        <ele>1440.3</ele>
        <time>2026-08-18T07:26:31.007Z</time>
      </trkpt>
      <trkpt lat="45.38447" lon="4.57608">
        <ele>1440.1</ele>
        <time>2026-08-18T07:26:32.007Z</time>
      </trkpt>
      <trkpt lat="45.38444" lon="4.57608">
        <ele>1440.4</ele>
        <time>2026-08-18T07:26:34.006Z</time>
      </trkpt>
      <trkpt lat="45.38443" lon="4.57608">
        <ele>1440.5</ele>
        <time>2026-08-18T07:26:35.006Z</time>
      </trkpt>
      <trkpt lat="45.38442" lon="4.57608">
        <ele>1440.7</ele>
        <time>2026-08-18T07:26:36.006Z</time>
      </trkpt>
      <trkpt lat="45.3844" lon="4.57608">
        <ele>1440.6</ele>
        <time>2026-08-18T07:26:38.006Z</time>
      </trkpt>
      <trkpt lat="45.38439" lon="4.57608">
        <ele>1440.6</ele>
        <time>2026-08-18T07:26:39.006Z</time>
      </trkpt>
      <trkpt lat="45.38438" lon="4.57608">
        <ele>1440.3</ele>
        <time>2026-08-18T07:26:40.006Z</time>
      </trkpt>
      <trkpt lat="45.38437" lon="4.57608">
        <ele>1440.3</ele>
        <time>2026-08-18T07:26:41.029Z</time>
      </trkpt>
      <trkpt lat="45.38435" lon="4.57607">
        <ele>1441.1</ele>
        <time>2026-08-18T07:26:43.129Z</time>
      </trkpt>
      <trkpt lat="45.38434" lon="4.57607">
        <ele>1441.3</ele>
        <time>2026-08-18T07:26:44.509Z</time>
      </trkpt>
      <trkpt lat="45.38433" lon="4.57607">
        <ele>1441.7</ele>
        <time>2026-08-18T07:26:45.961Z</time>
      </trkpt>
      <trkpt lat="45.38431" lon="4.57608">
        <ele>1442.4</ele>
        <time>2026-08-18T07:26:47.006Z</time>
      </trkpt>
      <trkpt lat="45.38429" lon="4.57609">
        <ele>1442.7</ele>
        <time>2026-08-18T07:26:49.006Z</time>
      </trkpt>
      <trkpt lat="45.38428" lon="4.5761">
        <ele>1442.7</ele>
        <time>2026-08-18T07:26:50.014Z</time>
      </trkpt>
      <trkpt lat="45.38427" lon="4.57611">
        <ele>1443.1</ele>
        <time>2026-08-18T07:26:52.007Z</time>
      </trkpt>
      <trkpt lat="45.38425" lon="4.57611">
        <ele>1443.3</ele>
        <time>2026-08-18T07:26:54.005Z</time>
      </trkpt>
      <trkpt lat="45.38425" lon="4.57611">
        <ele>1443.6</ele>
        <time>2026-08-18T07:26:55.006Z</time>
      </trkpt>
      <trkpt lat="45.38424" lon="4.5761">
        <ele>1443.8</ele>
        <time>2026-08-18T07:26:56.006Z</time>
      </trkpt>
      <trkpt lat="45.38423" lon="4.57608">
        <ele>1443.8</ele>
        <time>2026-08-18T07:26:58.005Z</time>
      </trkpt>
      <trkpt lat="45.38423" lon="4.57607">
        <ele>1443.9</ele>
        <time>2026-08-18T07:26:59.005Z</time>
      </trkpt>
      <trkpt lat="45.38423" lon="4.57605">
        <ele>1444.3</ele>
        <time>2026-08-18T07:27:00.006Z</time>
      </trkpt>
      <trkpt lat="45.38422" lon="4.57603">
        <ele>1444.2</ele>
        <time>2026-08-18T07:27:01.898Z</time>
      </trkpt>
      <trkpt lat="45.38422" lon="4.57602">
        <ele>1444.2</ele>
        <time>2026-08-18T07:27:03.005Z</time>
      </trkpt>
      <trkpt lat="45.38421" lon="4.57601">
        <ele>1444.5</ele>
        <time>2026-08-18T07:27:04.005Z</time>
      </trkpt>
      <trkpt lat="45.3842" lon="4.57601">
        <ele>1444.5</ele>
        <time>2026-08-18T07:27:06.014Z</time>
      </trkpt>
      <trkpt lat="45.38419" lon="4.57601">
        <ele>1444.4</ele>
        <time>2026-08-18T07:27:08.005Z</time>
      </trkpt>
      <trkpt lat="45.38419" lon="4.57601">
        <ele>1444.4</ele>
        <time>2026-08-18T07:27:09.006Z</time>
      </trkpt>
      <trkpt lat="45.3842" lon="4.57601">
        <ele>1444.4</ele>
        <time>2026-08-18T07:27:11.006Z</time>
      </trkpt>
      <trkpt lat="45.3842" lon="4.57601">
        <ele>1444</ele>
        <time>2026-08-18T07:27:13.005Z</time>
      </trkpt>
      <trkpt lat="45.3842" lon="4.57602">
        <ele>1444</ele>
        <time>2026-08-18T07:27:14.006Z</time>
      </trkpt>
      <trkpt lat="45.3842" lon="4.57603">
        <ele>1444.3</ele>
        <time>2026-08-18T07:27:16.006Z</time>
      </trkpt>
      <trkpt lat="45.3842" lon="4.57603">
        <ele>1444.3</ele>
        <time>2026-08-18T07:27:17.006Z</time>
      </trkpt>
      <trkpt lat="45.3842" lon="4.57604">
        <ele>1444.4</ele>
        <time>2026-08-18T07:27:18.006Z</time>
      </trkpt>
      <trkpt lat="45.3842" lon="4.57604">
        <ele>1444.5</ele>
        <time>2026-08-18T07:27:19.006Z</time>
      </trkpt>
      <trkpt lat="45.3842" lon="4.57605">
        <ele>1444.3</ele>
        <time>2026-08-18T07:27:20.006Z</time>
      </trkpt>
      <trkpt lat="45.3842" lon="4.57606">
        <ele>1444.4</ele>
        <time>2026-08-18T07:27:21.006Z</time>
      </trkpt>
      <trkpt lat="45.3842" lon="4.57608">
        <ele>1444.1</ele>
        <time>2026-08-18T07:27:22.012Z</time>
      </trkpt>
      <trkpt lat="45.38419" lon="4.57611">
        <ele>1444.2</ele>
        <time>2026-08-18T07:27:24.005Z</time>
      </trkpt>
      <trkpt lat="45.38418" lon="4.57612">
        <ele>1444.2</ele>
        <time>2026-08-18T07:27:25.005Z</time>
      </trkpt>
      <trkpt lat="45.38416" lon="4.57612">
        <ele>1444.4</ele>
        <time>2026-08-18T07:27:26.005Z</time>
      </trkpt>
      <trkpt lat="45.38416" lon="4.57611">
        <ele>1444</ele>
        <time>2026-08-18T07:27:27.006Z</time>
      </trkpt>
      <trkpt lat="45.38415" lon="4.5761">
        <ele>1443.9</ele>
        <time>2026-08-18T07:27:29.006Z</time>
      </trkpt>
      <trkpt lat="45.38415" lon="4.5761">
        <ele>1444.3</ele>
        <time>2026-08-18T07:27:30.006Z</time>
      </trkpt>
      <trkpt lat="45.38414" lon="4.5761">
        <ele>1444.4</ele>
        <time>2026-08-18T07:27:31.006Z</time>
      </trkpt>
      <trkpt lat="45.38413" lon="4.5761">
        <ele>1445.1</ele>
        <time>2026-08-18T07:27:33.006Z</time>
      </trkpt>
      <trkpt lat="45.38412" lon="4.5761">
        <ele>1445.1</ele>
        <time>2026-08-18T07:27:35.005Z</time>
      </trkpt>
      <trkpt lat="45.38412" lon="4.5761">
        <ele>1445.1</ele>
        <time>2026-08-18T07:27:36.006Z</time>
      </trkpt>
      <trkpt lat="45.38412" lon="4.5761">
        <ele>1445</ele>
        <time>2026-08-18T07:27:37.006Z</time>
      </trkpt>
      <trkpt lat="45.38412" lon="4.5761">
        <ele>1445</ele>
        <time>2026-08-18T07:27:38.006Z</time>
      </trkpt>
      <trkpt lat="45.38412" lon="4.5761">
        <ele>1445</ele>
        <time>2026-08-18T07:27:40.006Z</time>
      </trkpt>
      <trkpt lat="45.38412" lon="4.5761">
        <ele>1445</ele>
        <time>2026-08-18T07:27:41.006Z</time>
      </trkpt>
      <trkpt lat="45.38412" lon="4.57611">
        <ele>1445</ele>
        <time>2026-08-18T07:27:43.005Z</time>
      </trkpt>
      <trkpt lat="45.38412" lon="4.57611">
        <ele>1445</ele>
        <time>2026-08-18T07:27:44.005Z</time>
      </trkpt>
      <trkpt lat="45.38412" lon="4.57611">
        <ele>1445</ele>
        <time>2026-08-18T07:27:45.006Z</time>
      </trkpt>
      <trkpt lat="45.38412" lon="4.57611">
        <ele>1445</ele>
        <time>2026-08-18T07:27:46.006Z</time>
      </trkpt>
      <trkpt lat="45.38412" lon="4.5761">
        <ele>1444.8</ele>
        <time>2026-08-18T07:27:47.006Z</time>
      </trkpt>
      <trkpt lat="45.38412" lon="4.5761">
        <ele>1444.4</ele>
        <time>2026-08-18T07:27:49.005Z</time>
      </trkpt>
      <trkpt lat="45.38412" lon="4.57609">
        <ele>1444.5</ele>
        <time>2026-08-18T07:27:50.006Z</time>
      </trkpt>
      <trkpt lat="45.38411" lon="4.57608">
        <ele>1444.7</ele>
        <time>2026-08-18T07:27:51.992Z</time>
      </trkpt>
      <trkpt lat="45.3841" lon="4.57607">
        <ele>1445.3</ele>
        <time>2026-08-18T07:27:53.006Z</time>
      </trkpt>
      <trkpt lat="45.38407" lon="4.57605">
        <ele>1445.6</ele>
        <time>2026-08-18T07:27:55.006Z</time>
      </trkpt>
      <trkpt lat="45.38405" lon="4.57604">
        <ele>1446.1</ele>
        <time>2026-08-18T07:27:57.005Z</time>
      </trkpt>
      <trkpt lat="45.38404" lon="4.57604">
        <ele>1446.3</ele>
        <time>2026-08-18T07:27:58.005Z</time>
      </trkpt>
      <trkpt lat="45.38403" lon="4.57603">
        <ele>1446.4</ele>
        <time>2026-08-18T07:27:59.006Z</time>
      </trkpt>
      <trkpt lat="45.38401" lon="4.57601">
        <ele>1447.1</ele>
        <time>2026-08-18T07:28:01.005Z</time>
      </trkpt>
      <trkpt lat="45.384" lon="4.576">
        <ele>1446.8</ele>
        <time>2026-08-18T07:28:02.006Z</time>
      </trkpt>
      <trkpt lat="45.38399" lon="4.57597">
        <ele>1446.6</ele>
        <time>2026-08-18T07:28:04.005Z</time>
      </trkpt>
      <trkpt lat="45.38398" lon="4.57596">
        <ele>1446.4</ele>
        <time>2026-08-18T07:28:05.005Z</time>
      </trkpt>
      <trkpt lat="45.38397" lon="4.57595">
        <ele>1446.6</ele>
        <time>2026-08-18T07:28:06.006Z</time>
      </trkpt>
      <trkpt lat="45.38395" lon="4.57593">
        <ele>1447</ele>
        <time>2026-08-18T07:28:08.006Z</time>
      </trkpt>
      <trkpt lat="45.38394" lon="4.57592">
        <ele>1447.2</ele>
        <time>2026-08-18T07:28:09.006Z</time>
      </trkpt>
      <trkpt lat="45.38393" lon="4.57591">
        <ele>1447.2</ele>
        <time>2026-08-18T07:28:10.006Z</time>
      </trkpt>
      <trkpt lat="45.38392" lon="4.5759">
        <ele>1447.2</ele>
        <time>2026-08-18T07:28:11.017Z</time>
      </trkpt>
      <trkpt lat="45.38391" lon="4.57588">
        <ele>1447.8</ele>
        <time>2026-08-18T07:28:13.012Z</time>
      </trkpt>
      <trkpt lat="45.38389" lon="4.57586">
        <ele>1448.2</ele>
        <time>2026-08-18T07:28:15.006Z</time>
      </trkpt>
      <trkpt lat="45.38388" lon="4.57584">
        <ele>1448.5</ele>
        <time>2026-08-18T07:28:17.006Z</time>
      </trkpt>
      <trkpt lat="45.38386" lon="4.57582">
        <ele>1448.5</ele>
        <time>2026-08-18T07:28:19.005Z</time>
      </trkpt>
      <trkpt lat="45.38385" lon="4.5758">
        <ele>1448.5</ele>
        <time>2026-08-18T07:28:21.005Z</time>
      </trkpt>
      <trkpt lat="45.38384" lon="4.57579">
        <ele>1448.7</ele>
        <time>2026-08-18T07:28:22.006Z</time>
      </trkpt>
      <trkpt lat="45.38382" lon="4.57577">
        <ele>1448.9</ele>
        <time>2026-08-18T07:28:24.006Z</time>
      </trkpt>
      <trkpt lat="45.38381" lon="4.57576">
        <ele>1448.9</ele>
        <time>2026-08-18T07:28:25.012Z</time>
      </trkpt>
      <trkpt lat="45.38379" lon="4.57574">
        <ele>1449</ele>
        <time>2026-08-18T07:28:26.970Z</time>
      </trkpt>
      <trkpt lat="45.38379" lon="4.57573">
        <ele>1449.4</ele>
        <time>2026-08-18T07:28:28.005Z</time>
      </trkpt>
      <trkpt lat="45.38378" lon="4.57572">
        <ele>1449.2</ele>
        <time>2026-08-18T07:28:29.006Z</time>
      </trkpt>
      <trkpt lat="45.38377" lon="4.57571">
        <ele>1449.3</ele>
        <time>2026-08-18T07:28:30.011Z</time>
      </trkpt>
      <trkpt lat="45.38375" lon="4.5757">
        <ele>1449.5</ele>
        <time>2026-08-18T07:28:31.914Z</time>
      </trkpt>
      <trkpt lat="45.38375" lon="4.57569">
        <ele>1449.9</ele>
        <time>2026-08-18T07:28:33.005Z</time>
      </trkpt>
      <trkpt lat="45.38374" lon="4.57567">
        <ele>1449.9</ele>
        <time>2026-08-18T07:28:34.034Z</time>
      </trkpt>
      <trkpt lat="45.38373" lon="4.57566">
        <ele>1450.1</ele>
        <time>2026-08-18T07:28:36.005Z</time>
      </trkpt>
      <trkpt lat="45.38372" lon="4.57565">
        <ele>1450.1</ele>
        <time>2026-08-18T07:28:38.005Z</time>
      </trkpt>
      <trkpt lat="45.38371" lon="4.57564">
        <ele>1450.2</ele>
        <time>2026-08-18T07:28:39.005Z</time>
      </trkpt>
      <trkpt lat="45.3837" lon="4.57563">
        <ele>1450.1</ele>
        <time>2026-08-18T07:28:40.005Z</time>
      </trkpt>
      <trkpt lat="45.38369" lon="4.57563">
        <ele>1450.4</ele>
        <time>2026-08-18T07:28:41.006Z</time>
      </trkpt>
      <trkpt lat="45.38367" lon="4.57562">
        <ele>1451.1</ele>
        <time>2026-08-18T07:28:43.015Z</time>
      </trkpt>
      <trkpt lat="45.38366" lon="4.5756">
        <ele>1451.2</ele>
        <time>2026-08-18T07:28:45.006Z</time>
      </trkpt>
      <trkpt lat="45.38364" lon="4.57558">
        <ele>1451.9</ele>
        <time>2026-08-18T07:28:47.009Z</time>
      </trkpt>
      <trkpt lat="45.38363" lon="4.57556">
        <ele>1451.9</ele>
        <time>2026-08-18T07:28:48.932Z</time>
      </trkpt>
      <trkpt lat="45.38363" lon="4.57554">
        <ele>1452.2</ele>
        <time>2026-08-18T07:28:50.087Z</time>
      </trkpt>
      <trkpt lat="45.38361" lon="4.57553">
        <ele>1452.6</ele>
        <time>2026-08-18T07:28:52.010Z</time>
      </trkpt>
      <trkpt lat="45.3836" lon="4.57551">
        <ele>1452.4</ele>
        <time>2026-08-18T07:28:54.006Z</time>
      </trkpt>
      <trkpt lat="45.38359" lon="4.5755">
        <ele>1452.4</ele>
        <time>2026-08-18T07:28:55.006Z</time>
      </trkpt>
      <trkpt lat="45.38358" lon="4.57549">
        <ele>1452.4</ele>
        <time>2026-08-18T07:28:56.014Z</time>
      </trkpt>
      <trkpt lat="45.38357" lon="4.57548">
        <ele>1452.8</ele>
        <time>2026-08-18T07:28:57.029Z</time>
      </trkpt>
      <trkpt lat="45.38356" lon="4.57546">
        <ele>1453</ele>
        <time>2026-08-18T07:28:59.006Z</time>
      </trkpt>
      <trkpt lat="45.38354" lon="4.57547">
        <ele>1453.3</ele>
        <time>2026-08-18T07:29:00.997Z</time>
      </trkpt>
      <trkpt lat="45.38353" lon="4.57546">
        <ele>1453.2</ele>
        <time>2026-08-18T07:29:02.005Z</time>
      </trkpt>
      <trkpt lat="45.38352" lon="4.57545">
        <ele>1453.3</ele>
        <time>2026-08-18T07:29:03.006Z</time>
      </trkpt>
      <trkpt lat="45.3835" lon="4.57544">
        <ele>1453.6</ele>
        <time>2026-08-18T07:29:05.016Z</time>
      </trkpt>
      <trkpt lat="45.3835" lon="4.57542">
        <ele>1453.6</ele>
        <time>2026-08-18T07:29:06.016Z</time>
      </trkpt>
      <trkpt lat="45.38349" lon="4.5754">
        <ele>1453.6</ele>
        <time>2026-08-18T07:29:08.006Z</time>
      </trkpt>
      <trkpt lat="45.38349" lon="4.57538">
        <ele>1453.7</ele>
        <time>2026-08-18T07:29:09.008Z</time>
      </trkpt>
      <trkpt lat="45.38348" lon="4.57536">
        <ele>1453.8</ele>
        <time>2026-08-18T07:29:11.005Z</time>
      </trkpt>
      <trkpt lat="45.38347" lon="4.57535">
        <ele>1453.9</ele>
        <time>2026-08-18T07:29:12.006Z</time>
      </trkpt>
      <trkpt lat="45.38346" lon="4.57532">
        <ele>1454.1</ele>
        <time>2026-08-18T07:29:14.005Z</time>
      </trkpt>
      <trkpt lat="45.38345" lon="4.57531">
        <ele>1454.1</ele>
        <time>2026-08-18T07:29:15.006Z</time>
      </trkpt>
      <trkpt lat="45.38345" lon="4.5753">
        <ele>1455.7</ele>
        <time>2026-08-18T07:29:16.006Z</time>
      </trkpt>
      <trkpt lat="45.38344" lon="4.57529">
        <ele>1455.8</ele>
        <time>2026-08-18T07:29:17.006Z</time>
      </trkpt>
      <trkpt lat="45.38344" lon="4.57527">
        <ele>1454.8</ele>
        <time>2026-08-18T07:29:19.006Z</time>
      </trkpt>
      <trkpt lat="45.38343" lon="4.57526">
        <ele>1455</ele>
        <time>2026-08-18T07:29:20.006Z</time>
      </trkpt>
      <trkpt lat="45.38343" lon="4.57525">
        <ele>1455.3</ele>
        <time>2026-08-18T07:29:21.006Z</time>
      </trkpt>
      <trkpt lat="45.38343" lon="4.57522">
        <ele>1455.6</ele>
        <time>2026-08-18T07:29:22.909Z</time>
      </trkpt>
      <trkpt lat="45.38343" lon="4.5752">
        <ele>1455.9</ele>
        <time>2026-08-18T07:29:24.006Z</time>
      </trkpt>
      <trkpt lat="45.38342" lon="4.57519">
        <ele>1455.5</ele>
        <time>2026-08-18T07:29:25.006Z</time>
      </trkpt>
      <trkpt lat="45.38342" lon="4.57517">
        <ele>1455.5</ele>
        <time>2026-08-18T07:29:26.006Z</time>
      </trkpt>
      <trkpt lat="45.38342" lon="4.57514">
        <ele>1455.5</ele>
        <time>2026-08-18T07:29:28.005Z</time>
      </trkpt>
      <trkpt lat="45.38341" lon="4.57512">
        <ele>1455.6</ele>
        <time>2026-08-18T07:29:29.005Z</time>
      </trkpt>
      <trkpt lat="45.38341" lon="4.5751">
        <ele>1455.5</ele>
        <time>2026-08-18T07:29:31.025Z</time>
      </trkpt>
      <trkpt lat="45.3834" lon="4.57507">
        <ele>1456</ele>
        <time>2026-08-18T07:29:33.006Z</time>
      </trkpt>
      <trkpt lat="45.38339" lon="4.57504">
        <ele>1456.3</ele>
        <time>2026-08-18T07:29:35.018Z</time>
      </trkpt>
      <trkpt lat="45.38338" lon="4.57501">
        <ele>1456.6</ele>
        <time>2026-08-18T07:29:37.009Z</time>
      </trkpt>
      <trkpt lat="45.38337" lon="4.57499">
        <ele>1457.2</ele>
        <time>2026-08-18T07:29:39.011Z</time>
      </trkpt>
      <trkpt lat="45.38336" lon="4.57497">
        <ele>1457.1</ele>
        <time>2026-08-18T07:29:41.006Z</time>
      </trkpt>
      <trkpt lat="45.38335" lon="4.57494">
        <ele>1457.6</ele>
        <time>2026-08-18T07:29:43.005Z</time>
      </trkpt>
      <trkpt lat="45.38335" lon="4.57493">
        <ele>1457.1</ele>
        <time>2026-08-18T07:29:44.005Z</time>
      </trkpt>
      <trkpt lat="45.38335" lon="4.57492">
        <ele>1457.1</ele>
        <time>2026-08-18T07:29:45.005Z</time>
      </trkpt>
      <trkpt lat="45.38334" lon="4.57489">
        <ele>1457.5</ele>
        <time>2026-08-18T07:29:46.006Z</time>
      </trkpt>
      <trkpt lat="45.38334" lon="4.57489">
        <ele>1457.9</ele>
        <time>2026-08-18T07:29:47.006Z</time>
      </trkpt>
      <trkpt lat="45.38334" lon="4.57487">
        <ele>1458.5</ele>
        <time>2026-08-18T07:29:48.006Z</time>
      </trkpt>
      <trkpt lat="45.38333" lon="4.57486">
        <ele>1458.3</ele>
        <time>2026-08-18T07:29:49.006Z</time>
      </trkpt>
      <trkpt lat="45.38331" lon="4.57483">
        <ele>1458.5</ele>
        <time>2026-08-18T07:29:51.005Z</time>
      </trkpt>
      <trkpt lat="45.3833" lon="4.57482">
        <ele>1458.4</ele>
        <time>2026-08-18T07:29:52.006Z</time>
      </trkpt>
      <trkpt lat="45.38328" lon="4.57479">
        <ele>1458.4</ele>
        <time>2026-08-18T07:29:54.006Z</time>
      </trkpt>
      <trkpt lat="45.38328" lon="4.57479">
        <ele>1458.4</ele>
        <time>2026-08-18T07:29:55.034Z</time>
      </trkpt>
      <trkpt lat="45.38326" lon="4.57476">
        <ele>1458.3</ele>
        <time>2026-08-18T07:29:56.973Z</time>
      </trkpt>
      <trkpt lat="45.38325" lon="4.57473">
        <ele>1458.5</ele>
        <time>2026-08-18T07:29:59.005Z</time>
      </trkpt>
      <trkpt lat="45.38324" lon="4.57472">
        <ele>1458.8</ele>
        <time>2026-08-18T07:30:00.006Z</time>
      </trkpt>
      <trkpt lat="45.38324" lon="4.5747">
        <ele>1458.8</ele>
        <time>2026-08-18T07:30:01.032Z</time>
      </trkpt>
      <trkpt lat="45.38322" lon="4.57467">
        <ele>1458.9</ele>
        <time>2026-08-18T07:30:03.006Z</time>
      </trkpt>
      <trkpt lat="45.38321" lon="4.57464">
        <ele>1459.2</ele>
        <time>2026-08-18T07:30:05.023Z</time>
      </trkpt>
      <trkpt lat="45.3832" lon="4.57462">
        <ele>1459.7</ele>
        <time>2026-08-18T07:30:07.006Z</time>
      </trkpt>
      <trkpt lat="45.3832" lon="4.5746">
        <ele>1459.9</ele>
        <time>2026-08-18T07:30:08.006Z</time>
      </trkpt>
      <trkpt lat="45.38319" lon="4.57459">
        <ele>1460</ele>
        <time>2026-08-18T07:30:09.014Z</time>
      </trkpt>
      <trkpt lat="45.38319" lon="4.57457">
        <ele>1460.2</ele>
        <time>2026-08-18T07:30:11.006Z</time>
      </trkpt>
      <trkpt lat="45.38319" lon="4.57456">
        <ele>1460.2</ele>
        <time>2026-08-18T07:30:12.030Z</time>
      </trkpt>
      <trkpt lat="45.38317" lon="4.57454">
        <ele>1460.4</ele>
        <time>2026-08-18T07:30:14.008Z</time>
      </trkpt>
      <trkpt lat="45.38316" lon="4.57451">
        <ele>1460.6</ele>
        <time>2026-08-18T07:30:15.929Z</time>
      </trkpt>
      <trkpt lat="45.38316" lon="4.57449">
        <ele>1460.7</ele>
        <time>2026-08-18T07:30:17.006Z</time>
      </trkpt>
      <trkpt lat="45.38315" lon="4.57448">
        <ele>1460.7</ele>
        <time>2026-08-18T07:30:18.029Z</time>
      </trkpt>
      <trkpt lat="45.38314" lon="4.57445">
        <ele>1461.3</ele>
        <time>2026-08-18T07:30:20.005Z</time>
      </trkpt>
      <trkpt lat="45.38314" lon="4.57444">
        <ele>1461.4</ele>
        <time>2026-08-18T07:30:21.005Z</time>
      </trkpt>
      <trkpt lat="45.38313" lon="4.57443">
        <ele>1461.7</ele>
        <time>2026-08-18T07:30:22.019Z</time>
      </trkpt>
      <trkpt lat="45.38312" lon="4.57441">
        <ele>1462.1</ele>
        <time>2026-08-18T07:30:24.006Z</time>
      </trkpt>
      <trkpt lat="45.38311" lon="4.5744">
        <ele>1462.2</ele>
        <time>2026-08-18T07:30:25.006Z</time>
      </trkpt>
      <trkpt lat="45.3831" lon="4.57439">
        <ele>1462.1</ele>
        <time>2026-08-18T07:30:26.012Z</time>
      </trkpt>
      <trkpt lat="45.38309" lon="4.57437">
        <ele>1462.5</ele>
        <time>2026-08-18T07:30:28.012Z</time>
      </trkpt>
      <trkpt lat="45.38307" lon="4.57436">
        <ele>1462.8</ele>
        <time>2026-08-18T07:30:30.006Z</time>
      </trkpt>
      <trkpt lat="45.38306" lon="4.57435">
        <ele>1463</ele>
        <time>2026-08-18T07:30:31.006Z</time>
      </trkpt>
      <trkpt lat="45.38305" lon="4.57434">
        <ele>1463.1</ele>
        <time>2026-08-18T07:30:32.006Z</time>
      </trkpt>
      <trkpt lat="45.38304" lon="4.57433">
        <ele>1463.2</ele>
        <time>2026-08-18T07:30:33.006Z</time>
      </trkpt>
      <trkpt lat="45.38303" lon="4.57431">
        <ele>1463.7</ele>
        <time>2026-08-18T07:30:35.025Z</time>
      </trkpt>
      <trkpt lat="45.38301" lon="4.57429">
        <ele>1463.8</ele>
        <time>2026-08-18T07:30:36.909Z</time>
      </trkpt>
      <trkpt lat="45.38301" lon="4.57428">
        <ele>1464</ele>
        <time>2026-08-18T07:30:38.006Z</time>
      </trkpt>
      <trkpt lat="45.38299" lon="4.57426">
        <ele>1464.1</ele>
        <time>2026-08-18T07:30:40.005Z</time>
      </trkpt>
      <trkpt lat="45.38298" lon="4.57425">
        <ele>1463.9</ele>
        <time>2026-08-18T07:30:41.006Z</time>
      </trkpt>
      <trkpt lat="45.38296" lon="4.57423">
        <ele>1464.1</ele>
        <time>2026-08-18T07:30:42.908Z</time>
      </trkpt>
      <trkpt lat="45.38296" lon="4.57422">
        <ele>1463.8</ele>
        <time>2026-08-18T07:30:44.005Z</time>
      </trkpt>
      <trkpt lat="45.38295" lon="4.57421">
        <ele>1463.8</ele>
        <time>2026-08-18T07:30:45.075Z</time>
      </trkpt>
      <trkpt lat="45.38294" lon="4.57419">
        <ele>1464</ele>
        <time>2026-08-18T07:30:47.005Z</time>
      </trkpt>
      <trkpt lat="45.38293" lon="4.57418">
        <ele>1463.9</ele>
        <time>2026-08-18T07:30:48.005Z</time>
      </trkpt>
      <trkpt lat="45.38292" lon="4.57417">
        <ele>1464.7</ele>
        <time>2026-08-18T07:30:49.019Z</time>
      </trkpt>
      <trkpt lat="45.3829" lon="4.57415">
        <ele>1463.6</ele>
        <time>2026-08-18T07:30:51.006Z</time>
      </trkpt>
      <trkpt lat="45.38289" lon="4.57414">
        <ele>1464</ele>
        <time>2026-08-18T07:30:52.006Z</time>
      </trkpt>
      <trkpt lat="45.38288" lon="4.57413">
        <ele>1465.4</ele>
        <time>2026-08-18T07:30:53.088Z</time>
      </trkpt>
      <trkpt lat="45.38285" lon="4.57412">
        <ele>1466.5</ele>
        <time>2026-08-18T07:30:54.914Z</time>
      </trkpt>
      <trkpt lat="45.38284" lon="4.57411">
        <ele>1466.5</ele>
        <time>2026-08-18T07:30:56.006Z</time>
      </trkpt>
      <trkpt lat="45.38282" lon="4.5741">
        <ele>1465.6</ele>
        <time>2026-08-18T07:30:58.006Z</time>
      </trkpt>
      <trkpt lat="45.38279" lon="4.57408">
        <ele>1466.6</ele>
        <time>2026-08-18T07:31:00.006Z</time>
      </trkpt>
      <trkpt lat="45.38278" lon="4.57408">
        <ele>1467</ele>
        <time>2026-08-18T07:31:01.006Z</time>
      </trkpt>
      <trkpt lat="45.38277" lon="4.57407">
        <ele>1467.3</ele>
        <time>2026-08-18T07:31:02.006Z</time>
      </trkpt>
      <trkpt lat="45.38276" lon="4.57406">
        <ele>1466.6</ele>
        <time>2026-08-18T07:31:03.012Z</time>
      </trkpt>
      <trkpt lat="45.38275" lon="4.57405">
        <ele>1466.6</ele>
        <time>2026-08-18T07:31:04.251Z</time>
      </trkpt>
      <trkpt lat="45.38274" lon="4.57405">
        <ele>1466.8</ele>
        <time>2026-08-18T07:31:05.610Z</time>
      </trkpt>
      <trkpt lat="45.38272" lon="4.57404">
        <ele>1466.8</ele>
        <time>2026-08-18T07:31:07.005Z</time>
      </trkpt>
      <trkpt lat="45.38272" lon="4.57404">
        <ele>1466.4</ele>
        <time>2026-08-18T07:31:08.006Z</time>
      </trkpt>
      <trkpt lat="45.38271" lon="4.57403">
        <ele>1465.9</ele>
        <time>2026-08-18T07:31:09.006Z</time>
      </trkpt>
      <trkpt lat="45.3827" lon="4.57402">
        <ele>1466.1</ele>
        <time>2026-08-18T07:31:10.006Z</time>
      </trkpt>
      <trkpt lat="45.38268" lon="4.57401">
        <ele>1465.4</ele>
        <time>2026-08-18T07:31:12.005Z</time>
      </trkpt>
      <trkpt lat="45.38267" lon="4.574">
        <ele>1465</ele>
        <time>2026-08-18T07:31:13.006Z</time>
      </trkpt>
      <trkpt lat="45.38266" lon="4.574">
        <ele>1465</ele>
        <time>2026-08-18T07:31:14.006Z</time>
      </trkpt>
      <trkpt lat="45.38265" lon="4.57399">
        <ele>1464.9</ele>
        <time>2026-08-18T07:31:15.006Z</time>
      </trkpt>
      <trkpt lat="45.38264" lon="4.57399">
        <ele>1465.5</ele>
        <time>2026-08-18T07:31:16.017Z</time>
      </trkpt>
      <trkpt lat="45.38262" lon="4.57398">
        <ele>1465.4</ele>
        <time>2026-08-18T07:31:17.949Z</time>
      </trkpt>
      <trkpt lat="45.38262" lon="4.57397">
        <ele>1465.7</ele>
        <time>2026-08-18T07:31:19.006Z</time>
      </trkpt>
      <trkpt lat="45.38262" lon="4.57395">
        <ele>1465.6</ele>
        <time>2026-08-18T07:31:20.009Z</time>
      </trkpt>
      <trkpt lat="45.38264" lon="4.57394">
        <ele>1465.3</ele>
        <time>2026-08-18T07:31:22.005Z</time>
      </trkpt>
      <trkpt lat="45.38265" lon="4.57394">
        <ele>1465.5</ele>
        <time>2026-08-18T07:31:24.006Z</time>
      </trkpt>
      <trkpt lat="45.38267" lon="4.57393">
        <ele>1465.2</ele>
        <time>2026-08-18T07:31:25.972Z</time>
      </trkpt>
      <trkpt lat="45.38267" lon="4.57392">
        <ele>1465.5</ele>
        <time>2026-08-18T07:31:27.006Z</time>
      </trkpt>
      <trkpt lat="45.38266" lon="4.5739">
        <ele>1466.1</ele>
        <time>2026-08-18T07:31:29.006Z</time>
      </trkpt>
      <trkpt lat="45.38265" lon="4.57389">
        <ele>1466.1</ele>
        <time>2026-08-18T07:31:30.006Z</time>
      </trkpt>
      <trkpt lat="45.38264" lon="4.57387">
        <ele>1465.9</ele>
        <time>2026-08-18T07:31:32.005Z</time>
      </trkpt>
      <trkpt lat="45.38264" lon="4.57386">
        <ele>1465.9</ele>
        <time>2026-08-18T07:31:33.015Z</time>
      </trkpt>
      <trkpt lat="45.38263" lon="4.57383">
        <ele>1466.5</ele>
        <time>2026-08-18T07:31:35.005Z</time>
      </trkpt>
      <trkpt lat="45.38264" lon="4.57381">
        <ele>1466.9</ele>
        <time>2026-08-18T07:31:36.006Z</time>
      </trkpt>
      <trkpt lat="45.38264" lon="4.5738">
        <ele>1466.8</ele>
        <time>2026-08-18T07:31:37.007Z</time>
      </trkpt>
      <trkpt lat="45.38264" lon="4.57377">
        <ele>1467.2</ele>
        <time>2026-08-18T07:31:39.006Z</time>
      </trkpt>
      <trkpt lat="45.38263" lon="4.57375">
        <ele>1467.5</ele>
        <time>2026-08-18T07:31:41.006Z</time>
      </trkpt>
      <trkpt lat="45.38263" lon="4.57374">
        <ele>1467.7</ele>
        <time>2026-08-18T07:31:42.006Z</time>
      </trkpt>
      <trkpt lat="45.38262" lon="4.57371">
        <ele>1468.2</ele>
        <time>2026-08-18T07:31:44.005Z</time>
      </trkpt>
      <trkpt lat="45.38262" lon="4.5737">
        <ele>1468.1</ele>
        <time>2026-08-18T07:31:45.006Z</time>
      </trkpt>
      <trkpt lat="45.38262" lon="4.57369">
        <ele>1468.8</ele>
        <time>2026-08-18T07:31:46.006Z</time>
      </trkpt>
      <trkpt lat="45.38261" lon="4.57368">
        <ele>1468.8</ele>
        <time>2026-08-18T07:31:47.006Z</time>
      </trkpt>
      <trkpt lat="45.38261" lon="4.57368">
        <ele>1468.9</ele>
        <time>2026-08-18T07:31:48.006Z</time>
      </trkpt>
      <trkpt lat="45.38261" lon="4.57367">
        <ele>1468.8</ele>
        <time>2026-08-18T07:31:49.006Z</time>
      </trkpt>
      <trkpt lat="45.38261" lon="4.57366">
        <ele>1469.2</ele>
        <time>2026-08-18T07:31:50.012Z</time>
      </trkpt>
      <trkpt lat="45.3826" lon="4.57364">
        <ele>1469.1</ele>
        <time>2026-08-18T07:31:52.006Z</time>
      </trkpt>
      <trkpt lat="45.38261" lon="4.57362">
        <ele>1469.4</ele>
        <time>2026-08-18T07:31:54.023Z</time>
      </trkpt>
      <trkpt lat="45.38262" lon="4.5736">
        <ele>1469.8</ele>
        <time>2026-08-18T07:31:56.005Z</time>
      </trkpt>
      <trkpt lat="45.38263" lon="4.57359">
        <ele>1469.5</ele>
        <time>2026-08-18T07:31:57.006Z</time>
      </trkpt>
      <trkpt lat="45.38265" lon="4.57358">
        <ele>1469.6</ele>
        <time>2026-08-18T07:31:59.006Z</time>
      </trkpt>
      <trkpt lat="45.38266" lon="4.57357">
        <ele>1469.6</ele>
        <time>2026-08-18T07:32:00.015Z</time>
      </trkpt>
      <trkpt lat="45.38267" lon="4.57356">
        <ele>1469.9</ele>
        <time>2026-08-18T07:32:02.009Z</time>
      </trkpt>
      <trkpt lat="45.38267" lon="4.57354">
        <ele>1470.2</ele>
        <time>2026-08-18T07:32:04.006Z</time>
      </trkpt>
      <trkpt lat="45.38267" lon="4.57353">
        <ele>1470</ele>
        <time>2026-08-18T07:32:05.006Z</time>
      </trkpt>
      <trkpt lat="45.38268" lon="4.57351">
        <ele>1470.1</ele>
        <time>2026-08-18T07:32:07.006Z</time>
      </trkpt>
      <trkpt lat="45.38269" lon="4.5735">
        <ele>1470.3</ele>
        <time>2026-08-18T07:32:09.006Z</time>
      </trkpt>
      <trkpt lat="45.3827" lon="4.5735">
        <ele>1470.2</ele>
        <time>2026-08-18T07:32:10.006Z</time>
      </trkpt>
      <trkpt lat="45.38271" lon="4.5735">
        <ele>1470.5</ele>
        <time>2026-08-18T07:32:11.021Z</time>
      </trkpt>
      <trkpt lat="45.38272" lon="4.57349">
        <ele>1470.7</ele>
        <time>2026-08-18T07:32:13.029Z</time>
      </trkpt>
      <trkpt lat="45.38273" lon="4.57348">
        <ele>1471</ele>
        <time>2026-08-18T07:32:15.013Z</time>
      </trkpt>
      <trkpt lat="45.38274" lon="4.57346">
        <ele>1471</ele>
        <time>2026-08-18T07:32:17.006Z</time>
      </trkpt>
      <trkpt lat="45.38275" lon="4.57346">
        <ele>1471</ele>
        <time>2026-08-18T07:32:18.006Z</time>
      </trkpt>
      <trkpt lat="45.38275" lon="4.57345">
        <ele>1471.3</ele>
        <time>2026-08-18T07:32:19.006Z</time>
      </trkpt>
      <trkpt lat="45.38276" lon="4.57344">
        <ele>1471.3</ele>
        <time>2026-08-18T07:32:20.017Z</time>
      </trkpt>
      <trkpt lat="45.38277" lon="4.57344">
        <ele>1472.1</ele>
        <time>2026-08-18T07:32:22.006Z</time>
      </trkpt>
      <trkpt lat="45.38277" lon="4.57343">
        <ele>1472.5</ele>
        <time>2026-08-18T07:32:23.006Z</time>
      </trkpt>
      <trkpt lat="45.38278" lon="4.57343">
        <ele>1471.9</ele>
        <time>2026-08-18T07:32:24.026Z</time>
      </trkpt>
      <trkpt lat="45.38278" lon="4.57342">
        <ele>1471.9</ele>
        <time>2026-08-18T07:32:25.071Z</time>
      </trkpt>
      <trkpt lat="45.38278" lon="4.57342">
        <ele>1472.8</ele>
        <time>2026-08-18T07:32:26.088Z</time>
      </trkpt>
      <trkpt lat="45.38277" lon="4.5734">
        <ele>1472.9</ele>
        <time>2026-08-18T07:32:28.049Z</time>
      </trkpt>
      <trkpt lat="45.38275" lon="4.57337">
        <ele>1473</ele>
        <time>2026-08-18T07:32:30.006Z</time>
      </trkpt>
      <trkpt lat="45.38274" lon="4.57335">
        <ele>1473.5</ele>
        <time>2026-08-18T07:32:32.011Z</time>
      </trkpt>
      <trkpt lat="45.38273" lon="4.57334">
        <ele>1473.9</ele>
        <time>2026-08-18T07:32:33.094Z</time>
      </trkpt>
      <trkpt lat="45.38273" lon="4.57332">
        <ele>1474.2</ele>
        <time>2026-08-18T07:32:35.006Z</time>
      </trkpt>
      <trkpt lat="45.38272" lon="4.57332">
        <ele>1474.2</ele>
        <time>2026-08-18T07:32:36.006Z</time>
      </trkpt>
      <trkpt lat="45.3827" lon="4.57332">
        <ele>1474.8</ele>
        <time>2026-08-18T07:32:38.006Z</time>
      </trkpt>
      <trkpt lat="45.38269" lon="4.57332">
        <ele>1476</ele>
        <time>2026-08-18T07:32:40.006Z</time>
      </trkpt>
      <trkpt lat="45.38268" lon="4.57332">
        <ele>1475.6</ele>
        <time>2026-08-18T07:32:41.006Z</time>
      </trkpt>
      <trkpt lat="45.38267" lon="4.57332">
        <ele>1475.6</ele>
        <time>2026-08-18T07:32:42.087Z</time>
      </trkpt>
      <trkpt lat="45.38267" lon="4.57333">
        <ele>1476.9</ele>
        <time>2026-08-18T07:32:43.088Z</time>
      </trkpt>
      <trkpt lat="45.38266" lon="4.57333">
        <ele>1477.4</ele>
        <time>2026-08-18T07:32:45.014Z</time>
      </trkpt>
      <trkpt lat="45.38265" lon="4.57333">
        <ele>1478.1</ele>
        <time>2026-08-18T07:32:47.006Z</time>
      </trkpt>
      <trkpt lat="45.38265" lon="4.57333">
        <ele>1477.7</ele>
        <time>2026-08-18T07:32:48.006Z</time>
      </trkpt>
      <trkpt lat="45.38265" lon="4.57333">
        <ele>1476.5</ele>
        <time>2026-08-18T07:32:49.007Z</time>
      </trkpt>
      <trkpt lat="45.38265" lon="4.57332">
        <ele>1475.4</ele>
        <time>2026-08-18T07:32:50.111Z</time>
      </trkpt>
      <trkpt lat="45.38264" lon="4.57331">
        <ele>1473.9</ele>
        <time>2026-08-18T07:32:51.596Z</time>
      </trkpt>
      <trkpt lat="45.38264" lon="4.5733">
        <ele>1474.9</ele>
        <time>2026-08-18T07:32:53.630Z</time>
      </trkpt>
      <trkpt lat="45.38263" lon="4.5733">
        <ele>1474.6</ele>
        <time>2026-08-18T07:32:55.005Z</time>
      </trkpt>
      <trkpt lat="45.38263" lon="4.57329">
        <ele>1474.6</ele>
        <time>2026-08-18T07:32:56.006Z</time>
      </trkpt>
      <trkpt lat="45.38263" lon="4.57328">
        <ele>1474.5</ele>
        <time>2026-08-18T07:32:57.006Z</time>
      </trkpt>
      <trkpt lat="45.38262" lon="4.57327">
        <ele>1475</ele>
        <time>2026-08-18T07:32:58.006Z</time>
      </trkpt>
      <trkpt lat="45.38262" lon="4.57327">
        <ele>1475.1</ele>
        <time>2026-08-18T07:32:59.008Z</time>
      </trkpt>
      <trkpt lat="45.38262" lon="4.57325">
        <ele>1475.6</ele>
        <time>2026-08-18T07:33:01.006Z</time>
      </trkpt>
      <trkpt lat="45.38262" lon="4.57324">
        <ele>1475.8</ele>
        <time>2026-08-18T07:33:02.006Z</time>
      </trkpt>
      <trkpt lat="45.38261" lon="4.57322">
        <ele>1475.6</ele>
        <time>2026-08-18T07:33:04.006Z</time>
      </trkpt>
      <trkpt lat="45.3826" lon="4.57322">
        <ele>1476.1</ele>
        <time>2026-08-18T07:33:05.006Z</time>
      </trkpt>
      <trkpt lat="45.38259" lon="4.57322">
        <ele>1476.6</ele>
        <time>2026-08-18T07:33:06.006Z</time>
      </trkpt>
      <trkpt lat="45.38258" lon="4.57322">
        <ele>1476.9</ele>
        <time>2026-08-18T07:33:07.006Z</time>
      </trkpt>
      <trkpt lat="45.38257" lon="4.57321">
        <ele>1476.8</ele>
        <time>2026-08-18T07:33:08.020Z</time>
      </trkpt>
      <trkpt lat="45.38256" lon="4.57321">
        <ele>1477</ele>
        <time>2026-08-18T07:33:10.029Z</time>
      </trkpt>
      <trkpt lat="45.38255" lon="4.5732">
        <ele>1477.1</ele>
        <time>2026-08-18T07:33:11.036Z</time>
      </trkpt>
      <trkpt lat="45.38254" lon="4.57319">
        <ele>1477.1</ele>
        <time>2026-08-18T07:33:12.975Z</time>
      </trkpt>
      <trkpt lat="45.38253" lon="4.57318">
        <ele>1477.3</ele>
        <time>2026-08-18T07:33:14.005Z</time>
      </trkpt>
      <trkpt lat="45.38253" lon="4.57317">
        <ele>1477.3</ele>
        <time>2026-08-18T07:33:15.006Z</time>
      </trkpt>
      <trkpt lat="45.38252" lon="4.57316">
        <ele>1477.2</ele>
        <time>2026-08-18T07:33:16.006Z</time>
      </trkpt>
      <trkpt lat="45.38252" lon="4.57316">
        <ele>1477.6</ele>
        <time>2026-08-18T07:33:17.006Z</time>
      </trkpt>
      <trkpt lat="45.38252" lon="4.57314">
        <ele>1477</ele>
        <time>2026-08-18T07:33:19.006Z</time>
      </trkpt>
      <trkpt lat="45.38252" lon="4.57311">
        <ele>1477.4</ele>
        <time>2026-08-18T07:33:21.006Z</time>
      </trkpt>
      <trkpt lat="45.38252" lon="4.57309">
        <ele>1477.3</ele>
        <time>2026-08-18T07:33:22.956Z</time>
      </trkpt>
      <trkpt lat="45.38252" lon="4.57308">
        <ele>1477.9</ele>
        <time>2026-08-18T07:33:24.005Z</time>
      </trkpt>
      <trkpt lat="45.38251" lon="4.57307">
        <ele>1478</ele>
        <time>2026-08-18T07:33:25.016Z</time>
      </trkpt>
      <trkpt lat="45.38251" lon="4.57305">
        <ele>1478.2</ele>
        <time>2026-08-18T07:33:27.005Z</time>
      </trkpt>
      <trkpt lat="45.3825" lon="4.57304">
        <ele>1478.2</ele>
        <time>2026-08-18T07:33:28.014Z</time>
      </trkpt>
      <trkpt lat="45.38249" lon="4.57302">
        <ele>1478.3</ele>
        <time>2026-08-18T07:33:30.006Z</time>
      </trkpt>
      <trkpt lat="45.38249" lon="4.57301">
        <ele>1478.7</ele>
        <time>2026-08-18T07:33:31.006Z</time>
      </trkpt>
      <trkpt lat="45.38249" lon="4.573">
        <ele>1478.3</ele>
        <time>2026-08-18T07:33:32.006Z</time>
      </trkpt>
      <trkpt lat="45.38249" lon="4.57299">
        <ele>1478.9</ele>
        <time>2026-08-18T07:33:33.006Z</time>
      </trkpt>
      <trkpt lat="45.38249" lon="4.57298">
        <ele>1478.7</ele>
        <time>2026-08-18T07:33:34.915Z</time>
      </trkpt>
      <trkpt lat="45.38249" lon="4.57297">
        <ele>1479.6</ele>
        <time>2026-08-18T07:33:36.006Z</time>
      </trkpt>
      <trkpt lat="45.3825" lon="4.57296">
        <ele>1479.5</ele>
        <time>2026-08-18T07:33:37.006Z</time>
      </trkpt>
      <trkpt lat="45.38251" lon="4.57295">
        <ele>1479.3</ele>
        <time>2026-08-18T07:33:39.006Z</time>
      </trkpt>
      <trkpt lat="45.38251" lon="4.57294">
        <ele>1479.3</ele>
        <time>2026-08-18T07:33:40.011Z</time>
      </trkpt>
      <trkpt lat="45.38252" lon="4.57293">
        <ele>1479.8</ele>
        <time>2026-08-18T07:33:41.931Z</time>
      </trkpt>
      <trkpt lat="45.38252" lon="4.57292">
        <ele>1480.3</ele>
        <time>2026-08-18T07:33:43.021Z</time>
      </trkpt>
      <trkpt lat="45.38252" lon="4.5729">
        <ele>1480.6</ele>
        <time>2026-08-18T07:33:45.006Z</time>
      </trkpt>
      <trkpt lat="45.38252" lon="4.57289">
        <ele>1480.7</ele>
        <time>2026-08-18T07:33:47.036Z</time>
      </trkpt>
      <trkpt lat="45.38253" lon="4.57287">
        <ele>1481.9</ele>
        <time>2026-08-18T07:33:49.005Z</time>
      </trkpt>
      <trkpt lat="45.38253" lon="4.57286">
        <ele>1481.6</ele>
        <time>2026-08-18T07:33:50.006Z</time>
      </trkpt>
      <trkpt lat="45.38252" lon="4.57285">
        <ele>1482.2</ele>
        <time>2026-08-18T07:33:51.006Z</time>
      </trkpt>
      <trkpt lat="45.38252" lon="4.57284">
        <ele>1482.4</ele>
        <time>2026-08-18T07:33:52.006Z</time>
      </trkpt>
      <trkpt lat="45.38251" lon="4.57283">
        <ele>1482.3</ele>
        <time>2026-08-18T07:33:53.006Z</time>
      </trkpt>
      <trkpt lat="45.38251" lon="4.57282">
        <ele>1482.5</ele>
        <time>2026-08-18T07:33:54.006Z</time>
      </trkpt>
      <trkpt lat="45.38251" lon="4.57281">
        <ele>1481.9</ele>
        <time>2026-08-18T07:33:55.019Z</time>
      </trkpt>
      <trkpt lat="45.38251" lon="4.5728">
        <ele>1482.5</ele>
        <time>2026-08-18T07:33:57.006Z</time>
      </trkpt>
      <trkpt lat="45.38251" lon="4.57278">
        <ele>1483</ele>
        <time>2026-08-18T07:33:59.012Z</time>
      </trkpt>
      <trkpt lat="45.38252" lon="4.57278">
        <ele>1483.2</ele>
        <time>2026-08-18T07:34:01.005Z</time>
      </trkpt>
      <trkpt lat="45.38253" lon="4.57278">
        <ele>1483.4</ele>
        <time>2026-08-18T07:34:02.006Z</time>
      </trkpt>
      <trkpt lat="45.38254" lon="4.57278">
        <ele>1483.5</ele>
        <time>2026-08-18T07:34:04.006Z</time>
      </trkpt>
      <trkpt lat="45.38254" lon="4.57277">
        <ele>1483.2</ele>
        <time>2026-08-18T07:34:06.006Z</time>
      </trkpt>
      <trkpt lat="45.38254" lon="4.57276">
        <ele>1483.7</ele>
        <time>2026-08-18T07:34:08.006Z</time>
      </trkpt>
      <trkpt lat="45.38254" lon="4.57276">
        <ele>1483.7</ele>
        <time>2026-08-18T07:34:09.006Z</time>
      </trkpt>
      <trkpt lat="45.38254" lon="4.57276">
        <ele>1483.7</ele>
        <time>2026-08-18T07:34:11.006Z</time>
      </trkpt>
      <trkpt lat="45.38254" lon="4.57276">
        <ele>1483.7</ele>
        <time>2026-08-18T07:34:12.006Z</time>
      </trkpt>
      <trkpt lat="45.38254" lon="4.57276">
        <ele>1483.7</ele>
        <time>2026-08-18T07:34:13.006Z</time>
      </trkpt>
      <trkpt lat="45.38254" lon="4.57277">
        <ele>1483.7</ele>
        <time>2026-08-18T07:34:15.005Z</time>
      </trkpt>
      <trkpt lat="45.38254" lon="4.57277">
        <ele>1483.7</ele>
        <time>2026-08-18T07:34:16.008Z</time>
      </trkpt>
      <trkpt lat="45.38254" lon="4.57277">
        <ele>1483.7</ele>
        <time>2026-08-18T07:34:18.005Z</time>
      </trkpt>
      <trkpt lat="45.38254" lon="4.57277">
        <ele>1483.7</ele>
        <time>2026-08-18T07:34:19.006Z</time>
      </trkpt>
      <trkpt lat="45.38254" lon="4.57277">
        <ele>1483.7</ele>
        <time>2026-08-18T07:34:21.004Z</time>
      </trkpt>
      <trkpt lat="45.38254" lon="4.57277">
        <ele>1483.7</ele>
        <time>2026-08-18T07:34:22.005Z</time>
      </trkpt>
      <trkpt lat="45.38254" lon="4.57277">
        <ele>1483.7</ele>
        <time>2026-08-18T07:34:23.006Z</time>
      </trkpt>
      <trkpt lat="45.38254" lon="4.57276">
        <ele>1483.8</ele>
        <time>2026-08-18T07:34:25.020Z</time>
      </trkpt>
      <trkpt lat="45.38254" lon="4.57276">
        <ele>1483.8</ele>
        <time>2026-08-18T07:34:27.005Z</time>
      </trkpt>
      <trkpt lat="45.38254" lon="4.57276">
        <ele>1483.8</ele>
        <time>2026-08-18T07:34:28.006Z</time>
      </trkpt>
      <trkpt lat="45.38254" lon="4.57276">
        <ele>1483.8</ele>
        <time>2026-08-18T07:34:29.014Z</time>
      </trkpt>
      <trkpt lat="45.38254" lon="4.57276">
        <ele>1483.8</ele>
        <time>2026-08-18T07:34:31.006Z</time>
      </trkpt>
      <trkpt lat="45.38254" lon="4.57276">
        <ele>1483.8</ele>
        <time>2026-08-18T07:34:32.006Z</time>
      </trkpt>
      <trkpt lat="45.38254" lon="4.57276">
        <ele>1483.8</ele>
        <time>2026-08-18T07:34:33.006Z</time>
      </trkpt>
      <trkpt lat="45.38254" lon="4.57276">
        <ele>1483.8</ele>
        <time>2026-08-18T07:34:34.006Z</time>
      </trkpt>
      <trkpt lat="45.38254" lon="4.57276">
        <ele>1483.8</ele>
        <time>2026-08-18T07:34:36.006Z</time>
      </trkpt>
      <trkpt lat="45.38254" lon="4.57276">
        <ele>1483.5</ele>
        <time>2026-08-18T07:34:38.006Z</time>
      </trkpt>
      <trkpt lat="45.38254" lon="4.57276">
        <ele>1483.2</ele>
        <time>2026-08-18T07:34:40.006Z</time>
      </trkpt>
      <trkpt lat="45.38254" lon="4.57277">
        <ele>1483.2</ele>
        <time>2026-08-18T07:34:42.018Z</time>
      </trkpt>
      <trkpt lat="45.38255" lon="4.57277">
        <ele>1483.3</ele>
        <time>2026-08-18T07:34:44.006Z</time>
      </trkpt>
      <trkpt lat="45.38255" lon="4.57277">
        <ele>1483.6</ele>
        <time>2026-08-18T07:34:45.006Z</time>
      </trkpt>
      <trkpt lat="45.38255" lon="4.57277">
        <ele>1483.6</ele>
        <time>2026-08-18T07:34:46.010Z</time>
      </trkpt>
      <trkpt lat="45.38255" lon="4.57277">
        <ele>1483.6</ele>
        <time>2026-08-18T07:34:47.095Z</time>
      </trkpt>
      <trkpt lat="45.38255" lon="4.57277">
        <ele>1483.6</ele>
        <time>2026-08-18T07:34:49.006Z</time>
      </trkpt>
      <trkpt lat="45.38255" lon="4.57277">
        <ele>1483.6</ele>
        <time>2026-08-18T07:34:51.005Z</time>
      </trkpt>
      <trkpt lat="45.38255" lon="4.57277">
        <ele>1483.6</ele>
        <time>2026-08-18T07:34:52.006Z</time>
      </trkpt>
      <trkpt lat="45.38255" lon="4.57277">
        <ele>1483.6</ele>
        <time>2026-08-18T07:34:53.006Z</time>
      </trkpt>
      <trkpt lat="45.38255" lon="4.57277">
        <ele>1483.6</ele>
        <time>2026-08-18T07:34:55.006Z</time>
      </trkpt>
      <trkpt lat="45.38255" lon="4.57277">
        <ele>1483.6</ele>
        <time>2026-08-18T07:34:56.068Z</time>
      </trkpt>
      <trkpt lat="45.38255" lon="4.57277">
        <ele>1483.6</ele>
        <time>2026-08-18T07:34:57.088Z</time>
      </trkpt>
      <trkpt lat="45.38255" lon="4.57277">
        <ele>1483.6</ele>
        <time>2026-08-18T07:34:59.014Z</time>
      </trkpt>
      <trkpt lat="45.38255" lon="4.57277">
        <ele>1483.6</ele>
        <time>2026-08-18T07:35:01.006Z</time>
      </trkpt>
      <trkpt lat="45.38255" lon="4.57277">
        <ele>1483.6</ele>
        <time>2026-08-18T07:35:03.007Z</time>
      </trkpt>
      <trkpt lat="45.38255" lon="4.57277">
        <ele>1483.6</ele>
        <time>2026-08-18T07:35:04.035Z</time>
      </trkpt>
      <trkpt lat="45.38255" lon="4.57277">
        <ele>1483.6</ele>
        <time>2026-08-18T07:35:06.006Z</time>
      </trkpt>
      <trkpt lat="45.38255" lon="4.57277">
        <ele>1483.6</ele>
        <time>2026-08-18T07:35:08.005Z</time>
      </trkpt>
      <trkpt lat="45.38255" lon="4.57277">
        <ele>1483.6</ele>
        <time>2026-08-18T07:35:09.006Z</time>
      </trkpt>
      <trkpt lat="45.38255" lon="4.57277">
        <ele>1483.6</ele>
        <time>2026-08-18T07:35:10.006Z</time>
      </trkpt>
      <trkpt lat="45.38255" lon="4.57277">
        <ele>1483.6</ele>
        <time>2026-08-18T07:35:11.006Z</time>
      </trkpt>
      <trkpt lat="45.38255" lon="4.57277">
        <ele>1483.6</ele>
        <time>2026-08-18T07:35:12.020Z</time>
      </trkpt>
      <trkpt lat="45.38255" lon="4.57277">
        <ele>1483.8</ele>
        <time>2026-08-18T07:35:13.065Z</time>
      </trkpt>
      <trkpt lat="45.38255" lon="4.57277">
        <ele>1483.5</ele>
        <time>2026-08-18T07:35:15.005Z</time>
      </trkpt>
      <trkpt lat="45.38256" lon="4.57277">
        <ele>1483.3</ele>
        <time>2026-08-18T07:35:16.005Z</time>
      </trkpt>
      <trkpt lat="45.38256" lon="4.57277">
        <ele>1483.3</ele>
        <time>2026-08-18T07:35:17.006Z</time>
      </trkpt>
      <trkpt lat="45.38256" lon="4.57277">
        <ele>1483.3</ele>
        <time>2026-08-18T07:35:19.006Z</time>
      </trkpt>
      <trkpt lat="45.38256" lon="4.57276">
        <ele>1483.3</ele>
        <time>2026-08-18T07:35:20.006Z</time>
      </trkpt>
      <trkpt lat="45.38256" lon="4.57276">
        <ele>1483.3</ele>
        <time>2026-08-18T07:35:21.087Z</time>
      </trkpt>
      <trkpt lat="45.38256" lon="4.57276">
        <ele>1483.3</ele>
        <time>2026-08-18T07:35:23.005Z</time>
      </trkpt>
      <trkpt lat="45.38256" lon="4.57276">
        <ele>1483.3</ele>
        <time>2026-08-18T07:35:24.005Z</time>
      </trkpt>
      <trkpt lat="45.38256" lon="4.57276">
        <ele>1483.3</ele>
        <time>2026-08-18T07:35:25.006Z</time>
      </trkpt>
      <trkpt lat="45.38256" lon="4.57276">
        <ele>1483.1</ele>
        <time>2026-08-18T07:35:26.006Z</time>
      </trkpt>
      <trkpt lat="45.38256" lon="4.57276">
        <ele>1483.1</ele>
        <time>2026-08-18T07:35:27.006Z</time>
      </trkpt>
      <trkpt lat="45.38256" lon="4.57276">
        <ele>1483.1</ele>
        <time>2026-08-18T07:35:28.006Z</time>
      </trkpt>
      <trkpt lat="45.38256" lon="4.57276">
        <ele>1483.1</ele>
        <time>2026-08-18T07:35:29.017Z</time>
      </trkpt>
      <trkpt lat="45.38256" lon="4.57276">
        <ele>1483.1</ele>
        <time>2026-08-18T07:35:31.127Z</time>
      </trkpt>
      <trkpt lat="45.38256" lon="4.57276">
        <ele>1483.1</ele>
        <time>2026-08-18T07:35:33.005Z</time>
      </trkpt>
      <trkpt lat="45.38256" lon="4.57276">
        <ele>1483.1</ele>
        <time>2026-08-18T07:35:34.006Z</time>
      </trkpt>
      <trkpt lat="45.38256" lon="4.57275">
        <ele>1482.8</ele>
        <time>2026-08-18T07:35:36.005Z</time>
      </trkpt>
      <trkpt lat="45.38256" lon="4.57275">
        <ele>1482.8</ele>
        <time>2026-08-18T07:35:37.005Z</time>
      </trkpt>
      <trkpt lat="45.38256" lon="4.57275">
        <ele>1482.8</ele>
        <time>2026-08-18T07:35:38.005Z</time>
      </trkpt>
      <trkpt lat="45.38256" lon="4.57275">
        <ele>1482.8</ele>
        <time>2026-08-18T07:35:39.005Z</time>
      </trkpt>
      <trkpt lat="45.38256" lon="4.57275">
        <ele>1482.8</ele>
        <time>2026-08-18T07:35:40.025Z</time>
      </trkpt>
      <trkpt lat="45.38256" lon="4.57275">
        <ele>1482.9</ele>
        <time>2026-08-18T07:35:42.006Z</time>
      </trkpt>
      <trkpt lat="45.38256" lon="4.57275">
        <ele>1482.9</ele>
        <time>2026-08-18T07:35:43.006Z</time>
      </trkpt>
      <trkpt lat="45.38256" lon="4.57276">
        <ele>1482.9</ele>
        <time>2026-08-18T07:35:44.018Z</time>
      </trkpt>
      <trkpt lat="45.38256" lon="4.57276">
        <ele>1482.9</ele>
        <time>2026-08-18T07:35:46.005Z</time>
      </trkpt>
      <trkpt lat="45.38256" lon="4.57276">
        <ele>1482.9</ele>
        <time>2026-08-18T07:35:47.079Z</time>
      </trkpt>
      <trkpt lat="45.38256" lon="4.57276">
        <ele>1483.1</ele>
        <time>2026-08-18T07:35:49.018Z</time>
      </trkpt>
      <trkpt lat="45.38256" lon="4.57276">
        <ele>1483.1</ele>
        <time>2026-08-18T07:35:51.005Z</time>
      </trkpt>
      <trkpt lat="45.38255" lon="4.57277">
        <ele>1483.2</ele>
        <time>2026-08-18T07:35:52.895Z</time>
      </trkpt>
      <trkpt lat="45.38254" lon="4.57277">
        <ele>1483.7</ele>
        <time>2026-08-18T07:35:53.897Z</time>
      </trkpt>
      <trkpt lat="45.38254" lon="4.57277">
        <ele>1483.9</ele>
        <time>2026-08-18T07:35:55.076Z</time>
      </trkpt>
      <trkpt lat="45.38252" lon="4.57277">
        <ele>1484.4</ele>
        <time>2026-08-18T07:35:57.005Z</time>
      </trkpt>
      <trkpt lat="45.38251" lon="4.57278">
        <ele>1484.4</ele>
        <time>2026-08-18T07:35:58.006Z</time>
      </trkpt>
      <trkpt lat="45.38251" lon="4.57278">
        <ele>1484.5</ele>
        <time>2026-08-18T07:35:59.006Z</time>
      </trkpt>
      <trkpt lat="45.38251" lon="4.57278">
        <ele>1484.5</ele>
        <time>2026-08-18T07:36:00.006Z</time>
      </trkpt>
      <trkpt lat="45.38251" lon="4.57278">
        <ele>1484.5</ele>
        <time>2026-08-18T07:36:02.022Z</time>
      </trkpt>
      <trkpt lat="45.38251" lon="4.57278">
        <ele>1484.5</ele>
        <time>2026-08-18T07:36:03.088Z</time>
      </trkpt>
      <trkpt lat="45.38251" lon="4.57278">
        <ele>1484.5</ele>
        <time>2026-08-18T07:36:05.025Z</time>
      </trkpt>
      <trkpt lat="45.38251" lon="4.57278">
        <ele>1484.5</ele>
        <time>2026-08-18T07:36:07.005Z</time>
      </trkpt>
      <trkpt lat="45.38251" lon="4.57278">
        <ele>1484.5</ele>
        <time>2026-08-18T07:36:08.006Z</time>
      </trkpt>
      <trkpt lat="45.38251" lon="4.57278">
        <ele>1484.5</ele>
        <time>2026-08-18T07:36:09.006Z</time>
      </trkpt>
      <trkpt lat="45.38251" lon="4.57277">
        <ele>1484.5</ele>
        <time>2026-08-18T07:36:10.006Z</time>
      </trkpt>
      <trkpt lat="45.38251" lon="4.57278">
        <ele>1484.5</ele>
        <time>2026-08-18T07:36:11.006Z</time>
      </trkpt>
      <trkpt lat="45.38251" lon="4.57277">
        <ele>1484.5</ele>
        <time>2026-08-18T07:36:13.006Z</time>
      </trkpt>
      <trkpt lat="45.38251" lon="4.57277">
        <ele>1484.5</ele>
        <time>2026-08-18T07:36:14.019Z</time>
      </trkpt>
      <trkpt lat="45.38251" lon="4.57277">
        <ele>1484.5</ele>
        <time>2026-08-18T07:36:16.006Z</time>
      </trkpt>
      <trkpt lat="45.38251" lon="4.57277">
        <ele>1484.5</ele>
        <time>2026-08-18T07:36:18.006Z</time>
      </trkpt>
      <trkpt lat="45.38251" lon="4.57277">
        <ele>1484.5</ele>
        <time>2026-08-18T07:36:19.006Z</time>
      </trkpt>
      <trkpt lat="45.38251" lon="4.57277">
        <ele>1484.5</ele>
        <time>2026-08-18T07:36:20.006Z</time>
      </trkpt>
      <trkpt lat="45.38251" lon="4.57278">
        <ele>1484.8</ele>
        <time>2026-08-18T07:36:22.005Z</time>
      </trkpt>
      <trkpt lat="45.38251" lon="4.57278">
        <ele>1484.7</ele>
        <time>2026-08-18T07:36:23.031Z</time>
      </trkpt>
      <trkpt lat="45.38252" lon="4.57278">
        <ele>1484.5</ele>
        <time>2026-08-18T07:36:25.006Z</time>
      </trkpt>
      <trkpt lat="45.38252" lon="4.57278">
        <ele>1484.5</ele>
        <time>2026-08-18T07:36:26.006Z</time>
      </trkpt>
      <trkpt lat="45.38252" lon="4.57278">
        <ele>1484.3</ele>
        <time>2026-08-18T07:36:28.006Z</time>
      </trkpt>
      <trkpt lat="45.38251" lon="4.57279">
        <ele>1483.8</ele>
        <time>2026-08-18T07:36:30.006Z</time>
      </trkpt>
      <trkpt lat="45.38251" lon="4.57278">
        <ele>1483.8</ele>
        <time>2026-08-18T07:36:31.006Z</time>
      </trkpt>
      <trkpt lat="45.38251" lon="4.57278">
        <ele>1483.8</ele>
        <time>2026-08-18T07:36:32.006Z</time>
      </trkpt>
      <trkpt lat="45.38251" lon="4.57278">
        <ele>1483.8</ele>
        <time>2026-08-18T07:36:34.006Z</time>
      </trkpt>
      <trkpt lat="45.38251" lon="4.57278">
        <ele>1483.8</ele>
        <time>2026-08-18T07:36:35.009Z</time>
      </trkpt>
      <trkpt lat="45.38251" lon="4.57278">
        <ele>1483.8</ele>
        <time>2026-08-18T07:36:37.005Z</time>
      </trkpt>
      <trkpt lat="45.38251" lon="4.57278">
        <ele>1483.9</ele>
        <time>2026-08-18T07:36:38.005Z</time>
      </trkpt>
      <trkpt lat="45.38251" lon="4.57278">
        <ele>1483.7</ele>
        <time>2026-08-18T07:36:39.006Z</time>
      </trkpt>
      <trkpt lat="45.38251" lon="4.57278">
        <ele>1483.6</ele>
        <time>2026-08-18T07:36:40.006Z</time>
      </trkpt>
      <trkpt lat="45.38251" lon="4.57278">
        <ele>1483.6</ele>
        <time>2026-08-18T07:36:42.006Z</time>
      </trkpt>
      <trkpt lat="45.38251" lon="4.57278">
        <ele>1483.9</ele>
        <time>2026-08-18T07:36:43.006Z</time>
      </trkpt>
      <trkpt lat="45.38251" lon="4.57278">
        <ele>1483.7</ele>
        <time>2026-08-18T07:36:45.006Z</time>
      </trkpt>
      <trkpt lat="45.38251" lon="4.57278">
        <ele>1483.5</ele>
        <time>2026-08-18T07:36:47.005Z</time>
      </trkpt>
      <trkpt lat="45.38251" lon="4.57278">
        <ele>1483.5</ele>
        <time>2026-08-18T07:36:48.006Z</time>
      </trkpt>
      <trkpt lat="45.38252" lon="4.57278">
        <ele>1483.5</ele>
        <time>2026-08-18T07:36:49.006Z</time>
      </trkpt>
      <trkpt lat="45.38252" lon="4.57278">
        <ele>1483.5</ele>
        <time>2026-08-18T07:36:50.006Z</time>
      </trkpt>
      <trkpt lat="45.38252" lon="4.57278">
        <ele>1483.5</ele>
        <time>2026-08-18T07:36:51.006Z</time>
      </trkpt>
      <trkpt lat="45.38252" lon="4.57278">
        <ele>1483.5</ele>
        <time>2026-08-18T07:36:52.006Z</time>
      </trkpt>
      <trkpt lat="45.38252" lon="4.57278">
        <ele>1483.5</ele>
        <time>2026-08-18T07:36:53.006Z</time>
      </trkpt>
      <trkpt lat="45.38252" lon="4.57278">
        <ele>1483.6</ele>
        <time>2026-08-18T07:36:54.006Z</time>
      </trkpt>
      <trkpt lat="45.38252" lon="4.57279">
        <ele>1483.5</ele>
        <time>2026-08-18T07:36:55.006Z</time>
      </trkpt>
      <trkpt lat="45.38252" lon="4.57279">
        <ele>1483.4</ele>
        <time>2026-08-18T07:36:56.006Z</time>
      </trkpt>
      <trkpt lat="45.38252" lon="4.57279">
        <ele>1483.5</ele>
        <time>2026-08-18T07:36:57.006Z</time>
      </trkpt>
      <trkpt lat="45.38251" lon="4.57279">
        <ele>1483.8</ele>
        <time>2026-08-18T07:36:58.006Z</time>
      </trkpt>
      <trkpt lat="45.38251" lon="4.57279">
        <ele>1483.9</ele>
        <time>2026-08-18T07:37:00.006Z</time>
      </trkpt>
      <trkpt lat="45.38251" lon="4.57279">
        <ele>1483.9</ele>
        <time>2026-08-18T07:37:02.006Z</time>
      </trkpt>
      <trkpt lat="45.38251" lon="4.57279">
        <ele>1483.9</ele>
        <time>2026-08-18T07:37:03.006Z</time>
      </trkpt>
      <trkpt lat="45.38251" lon="4.57279">
        <ele>1484</ele>
        <time>2026-08-18T07:37:05.006Z</time>
      </trkpt>
      <trkpt lat="45.38251" lon="4.57279">
        <ele>1484</ele>
        <time>2026-08-18T07:37:06.006Z</time>
      </trkpt>
      <trkpt lat="45.38251" lon="4.57279">
        <ele>1484</ele>
        <time>2026-08-18T07:37:07.006Z</time>
      </trkpt>
      <trkpt lat="45.38251" lon="4.57279">
        <ele>1484</ele>
        <time>2026-08-18T07:37:08.006Z</time>
      </trkpt>
      <trkpt lat="45.38251" lon="4.57279">
        <ele>1484</ele>
        <time>2026-08-18T07:37:09.006Z</time>
      </trkpt>
      <trkpt lat="45.38251" lon="4.57279">
        <ele>1484</ele>
        <time>2026-08-18T07:37:10.006Z</time>
      </trkpt>
      <trkpt lat="45.38251" lon="4.57279">
        <ele>1484</ele>
        <time>2026-08-18T07:37:12.006Z</time>
      </trkpt>
      <trkpt lat="45.38251" lon="4.57279">
        <ele>1484</ele>
        <time>2026-08-18T07:37:13.006Z</time>
      </trkpt>
      <trkpt lat="45.38251" lon="4.57279">
        <ele>1484</ele>
        <time>2026-08-18T07:37:15.005Z</time>
      </trkpt>
      <trkpt lat="45.38251" lon="4.57279">
        <ele>1484</ele>
        <time>2026-08-18T07:37:16.006Z</time>
      </trkpt>
      <trkpt lat="45.38251" lon="4.57279">
        <ele>1484</ele>
        <time>2026-08-18T07:37:17.006Z</time>
      </trkpt>
      <trkpt lat="45.38251" lon="4.57279">
        <ele>1484</ele>
        <time>2026-08-18T07:37:18.006Z</time>
      </trkpt>
      <trkpt lat="45.38251" lon="4.57279">
        <ele>1484</ele>
        <time>2026-08-18T07:37:19.006Z</time>
      </trkpt>
      <trkpt lat="45.38251" lon="4.57279">
        <ele>1484.2</ele>
        <time>2026-08-18T07:37:21.013Z</time>
      </trkpt>
      <trkpt lat="45.38251" lon="4.5728">
        <ele>1484.1</ele>
        <time>2026-08-18T07:37:23.006Z</time>
      </trkpt>
      <trkpt lat="45.38251" lon="4.5728">
        <ele>1484.1</ele>
        <time>2026-08-18T07:37:24.006Z</time>
      </trkpt>
      <trkpt lat="45.38251" lon="4.5728">
        <ele>1483.7</ele>
        <time>2026-08-18T07:37:26.006Z</time>
      </trkpt>
      <trkpt lat="45.38251" lon="4.5728">
        <ele>1483.5</ele>
        <time>2026-08-18T07:37:28.005Z</time>
      </trkpt>
      <trkpt lat="45.38251" lon="4.57281">
        <ele>1483.2</ele>
        <time>2026-08-18T07:37:29.006Z</time>
      </trkpt>
      <trkpt lat="45.38251" lon="4.57281">
        <ele>1483.2</ele>
        <time>2026-08-18T07:37:30.006Z</time>
      </trkpt>
      <trkpt lat="45.38252" lon="4.57282">
        <ele>1482.8</ele>
        <time>2026-08-18T07:37:32.006Z</time>
      </trkpt>
      <trkpt lat="45.38252" lon="4.57283">
        <ele>1482.5</ele>
        <time>2026-08-18T07:37:33.006Z</time>
      </trkpt>
      <trkpt lat="45.38251" lon="4.57283">
        <ele>1482.3</ele>
        <time>2026-08-18T07:37:34.006Z</time>
      </trkpt>
      <trkpt lat="45.38251" lon="4.57284">
        <ele>1482.3</ele>
        <time>2026-08-18T07:37:35.015Z</time>
      </trkpt>
      <trkpt lat="45.38252" lon="4.57286">
        <ele>1481.9</ele>
        <time>2026-08-18T07:37:37.006Z</time>
      </trkpt>
      <trkpt lat="45.38252" lon="4.57287">
        <ele>1481.9</ele>
        <time>2026-08-18T07:37:38.006Z</time>
      </trkpt>
      <trkpt lat="45.38253" lon="4.57288">
        <ele>1481.9</ele>
        <time>2026-08-18T07:37:39.008Z</time>
      </trkpt>
      <trkpt lat="45.38253" lon="4.57288">
        <ele>1482.2</ele>
        <time>2026-08-18T07:37:41.006Z</time>
      </trkpt>
      <trkpt lat="45.38253" lon="4.57289">
        <ele>1481.7</ele>
        <time>2026-08-18T07:37:43.005Z</time>
      </trkpt>
      <trkpt lat="45.38253" lon="4.57289">
        <ele>1481.8</ele>
        <time>2026-08-18T07:37:44.027Z</time>
      </trkpt>
      <trkpt lat="45.38253" lon="4.5729">
        <ele>1481.6</ele>
        <time>2026-08-18T07:37:46.081Z</time>
      </trkpt>
      <trkpt lat="45.38253" lon="4.57291">
        <ele>1480.9</ele>
        <time>2026-08-18T07:37:48.019Z</time>
      </trkpt>
      <trkpt lat="45.38253" lon="4.57292">
        <ele>1481</ele>
        <time>2026-08-18T07:37:50.009Z</time>
      </trkpt>
      <trkpt lat="45.38253" lon="4.57293">
        <ele>1480.9</ele>
        <time>2026-08-18T07:37:51.949Z</time>
      </trkpt>
      <trkpt lat="45.38253" lon="4.57295">
        <ele>1480.4</ele>
        <time>2026-08-18T07:37:54.006Z</time>
      </trkpt>
      <trkpt lat="45.38253" lon="4.57295">
        <ele>1480.4</ele>
        <time>2026-08-18T07:37:55.006Z</time>
      </trkpt>
      <trkpt lat="45.38253" lon="4.57296">
        <ele>1479.9</ele>
        <time>2026-08-18T07:37:56.006Z</time>
      </trkpt>
      <trkpt lat="45.38253" lon="4.57297">
        <ele>1479.8</ele>
        <time>2026-08-18T07:37:57.995Z</time>
      </trkpt>
      <trkpt lat="45.38252" lon="4.57297">
        <ele>1479.1</ele>
        <time>2026-08-18T07:37:59.004Z</time>
      </trkpt>
      <trkpt lat="45.38252" lon="4.57298">
        <ele>1479.1</ele>
        <time>2026-08-18T07:38:00.006Z</time>
      </trkpt>
      <trkpt lat="45.38251" lon="4.57299">
        <ele>1479.1</ele>
        <time>2026-08-18T07:38:01.024Z</time>
      </trkpt>
      <trkpt lat="45.38251" lon="4.57299">
        <ele>1479.2</ele>
        <time>2026-08-18T07:38:03.005Z</time>
      </trkpt>
      <trkpt lat="45.38251" lon="4.57299">
        <ele>1479</ele>
        <time>2026-08-18T07:38:04.006Z</time>
      </trkpt>
      <trkpt lat="45.38251" lon="4.57299">
        <ele>1478.7</ele>
        <time>2026-08-18T07:38:06.006Z</time>
      </trkpt>
      <trkpt lat="45.38251" lon="4.573">
        <ele>1478.7</ele>
        <time>2026-08-18T07:38:07.454Z</time>
      </trkpt>
      <trkpt lat="45.38251" lon="4.57301">
        <ele>1477.9</ele>
        <time>2026-08-18T07:38:09.010Z</time>
      </trkpt>
      <trkpt lat="45.38251" lon="4.57301">
        <ele>1477.8</ele>
        <time>2026-08-18T07:38:10.036Z</time>
      </trkpt>
      <trkpt lat="45.38251" lon="4.57302">
        <ele>1477.8</ele>
        <time>2026-08-18T07:38:12.006Z</time>
      </trkpt>
      <trkpt lat="45.38251" lon="4.57304">
        <ele>1477.1</ele>
        <time>2026-08-18T07:38:14.006Z</time>
      </trkpt>
      <trkpt lat="45.38252" lon="4.57306">
        <ele>1477.1</ele>
        <time>2026-08-18T07:38:16.004Z</time>
      </trkpt>
      <trkpt lat="45.38252" lon="4.57307">
        <ele>1477</ele>
        <time>2026-08-18T07:38:17.006Z</time>
      </trkpt>
      <trkpt lat="45.38252" lon="4.57308">
        <ele>1477</ele>
        <time>2026-08-18T07:38:18.006Z</time>
      </trkpt>
      <trkpt lat="45.38252" lon="4.5731">
        <ele>1477</ele>
        <time>2026-08-18T07:38:20.006Z</time>
      </trkpt>
      <trkpt lat="45.38253" lon="4.57311">
        <ele>1476.6</ele>
        <time>2026-08-18T07:38:21.006Z</time>
      </trkpt>
      <trkpt lat="45.38253" lon="4.57313">
        <ele>1476.6</ele>
        <time>2026-08-18T07:38:22.014Z</time>
      </trkpt>
      <trkpt lat="45.38252" lon="4.57315">
        <ele>1476.5</ele>
        <time>2026-08-18T07:38:23.975Z</time>
      </trkpt>
      <trkpt lat="45.38252" lon="4.57316">
        <ele>1476.6</ele>
        <time>2026-08-18T07:38:25.005Z</time>
      </trkpt>
      <trkpt lat="45.38252" lon="4.57316">
        <ele>1476.8</ele>
        <time>2026-08-18T07:38:26.007Z</time>
      </trkpt>
      <trkpt lat="45.38252" lon="4.57317">
        <ele>1477</ele>
        <time>2026-08-18T07:38:28.006Z</time>
      </trkpt>
      <trkpt lat="45.38252" lon="4.57317">
        <ele>1476.8</ele>
        <time>2026-08-18T07:38:29.006Z</time>
      </trkpt>
      <trkpt lat="45.38252" lon="4.57317">
        <ele>1477.9</ele>
        <time>2026-08-18T07:38:31.006Z</time>
      </trkpt>
      <trkpt lat="45.38251" lon="4.57319">
        <ele>1477.1</ele>
        <time>2026-08-18T07:38:33.006Z</time>
      </trkpt>
      <trkpt lat="45.3825" lon="4.57322">
        <ele>1476.4</ele>
        <time>2026-08-18T07:38:35.005Z</time>
      </trkpt>
      <trkpt lat="45.3825" lon="4.57323">
        <ele>1476.9</ele>
        <time>2026-08-18T07:38:36.005Z</time>
      </trkpt>
      <trkpt lat="45.38249" lon="4.57324">
        <ele>1476.8</ele>
        <time>2026-08-18T07:38:37.005Z</time>
      </trkpt>
      <trkpt lat="45.38248" lon="4.57325">
        <ele>1476.6</ele>
        <time>2026-08-18T07:38:38.006Z</time>
      </trkpt>
      <trkpt lat="45.38247" lon="4.57326">
        <ele>1476.4</ele>
        <time>2026-08-18T07:38:39.011Z</time>
      </trkpt>
      <trkpt lat="45.38246" lon="4.57328">
        <ele>1475.9</ele>
        <time>2026-08-18T07:38:41.005Z</time>
      </trkpt>
      <trkpt lat="45.38246" lon="4.57329">
        <ele>1475.9</ele>
        <time>2026-08-18T07:38:42.005Z</time>
      </trkpt>
      <trkpt lat="45.38246" lon="4.5733">
        <ele>1476</ele>
        <time>2026-08-18T07:38:43.006Z</time>
      </trkpt>
      <trkpt lat="45.38246" lon="4.57331">
        <ele>1475.4</ele>
        <time>2026-08-18T07:38:44.006Z</time>
      </trkpt>
      <trkpt lat="45.38246" lon="4.57333">
        <ele>1475.2</ele>
        <time>2026-08-18T07:38:46.006Z</time>
      </trkpt>
      <trkpt lat="45.38247" lon="4.57335">
        <ele>1475.1</ele>
        <time>2026-08-18T07:38:48.006Z</time>
      </trkpt>
      <trkpt lat="45.38247" lon="4.57336">
        <ele>1475.1</ele>
        <time>2026-08-18T07:38:49.006Z</time>
      </trkpt>
      <trkpt lat="45.38248" lon="4.57336">
        <ele>1475.1</ele>
        <time>2026-08-18T07:38:50.006Z</time>
      </trkpt>
      <trkpt lat="45.38249" lon="4.57336">
        <ele>1474.4</ele>
        <time>2026-08-18T07:38:52.016Z</time>
      </trkpt>
      <trkpt lat="45.38249" lon="4.57337">
        <ele>1473.8</ele>
        <time>2026-08-18T07:38:54.006Z</time>
      </trkpt>
      <trkpt lat="45.38249" lon="4.57338">
        <ele>1473.5</ele>
        <time>2026-08-18T07:38:55.006Z</time>
      </trkpt>
      <trkpt lat="45.3825" lon="4.57338">
        <ele>1473.4</ele>
        <time>2026-08-18T07:38:56.009Z</time>
      </trkpt>
      <trkpt lat="45.3825" lon="4.57341">
        <ele>1473</ele>
        <time>2026-08-18T07:38:58.004Z</time>
      </trkpt>
      <trkpt lat="45.3825" lon="4.57342">
        <ele>1473.1</ele>
        <time>2026-08-18T07:38:59.006Z</time>
      </trkpt>
      <trkpt lat="45.3825" lon="4.57344">
        <ele>1473</ele>
        <time>2026-08-18T07:39:01.005Z</time>
      </trkpt>
      <trkpt lat="45.3825" lon="4.57345">
        <ele>1473</ele>
        <time>2026-08-18T07:39:02.010Z</time>
      </trkpt>
      <trkpt lat="45.38252" lon="4.57346">
        <ele>1473.5</ele>
        <time>2026-08-18T07:39:04.005Z</time>
      </trkpt>
      <trkpt lat="45.38253" lon="4.57347">
        <ele>1473.3</ele>
        <time>2026-08-18T07:39:05.006Z</time>
      </trkpt>
      <trkpt lat="45.38253" lon="4.57348">
        <ele>1473.1</ele>
        <time>2026-08-18T07:39:07.005Z</time>
      </trkpt>
      <trkpt lat="45.38254" lon="4.57349">
        <ele>1473.1</ele>
        <time>2026-08-18T07:39:08.018Z</time>
      </trkpt>
      <trkpt lat="45.38254" lon="4.57351">
        <ele>1472.2</ele>
        <time>2026-08-18T07:39:10.006Z</time>
      </trkpt>
      <trkpt lat="45.38253" lon="4.57354">
        <ele>1472.2</ele>
        <time>2026-08-18T07:39:12.006Z</time>
      </trkpt>
      <trkpt lat="45.38252" lon="4.57356">
        <ele>1471.1</ele>
        <time>2026-08-18T07:39:14.005Z</time>
      </trkpt>
      <trkpt lat="45.38251" lon="4.57357">
        <ele>1470.9</ele>
        <time>2026-08-18T07:39:15.006Z</time>
      </trkpt>
      <trkpt lat="45.3825" lon="4.57358">
        <ele>1470.7</ele>
        <time>2026-08-18T07:39:16.006Z</time>
      </trkpt>
      <trkpt lat="45.3825" lon="4.57359">
        <ele>1470.4</ele>
        <time>2026-08-18T07:39:17.006Z</time>
      </trkpt>
      <trkpt lat="45.3825" lon="4.57361">
        <ele>1470.4</ele>
        <time>2026-08-18T07:39:19.006Z</time>
      </trkpt>
      <trkpt lat="45.38252" lon="4.57363">
        <ele>1470</ele>
        <time>2026-08-18T07:39:21.006Z</time>
      </trkpt>
      <trkpt lat="45.38253" lon="4.57363">
        <ele>1470.2</ele>
        <time>2026-08-18T07:39:22.018Z</time>
      </trkpt>
      <trkpt lat="45.38254" lon="4.57364">
        <ele>1469.9</ele>
        <time>2026-08-18T07:39:24.006Z</time>
      </trkpt>
      <trkpt lat="45.38256" lon="4.57364">
        <ele>1469.9</ele>
        <time>2026-08-18T07:39:25.918Z</time>
      </trkpt>
      <trkpt lat="45.38256" lon="4.57363">
        <ele>1469.6</ele>
        <time>2026-08-18T07:39:27.006Z</time>
      </trkpt>
      <trkpt lat="45.38257" lon="4.57364">
        <ele>1470</ele>
        <time>2026-08-18T07:39:28.088Z</time>
      </trkpt>
      <trkpt lat="45.38259" lon="4.57364">
        <ele>1469.5</ele>
        <time>2026-08-18T07:39:30.022Z</time>
      </trkpt>
      <trkpt lat="45.3826" lon="4.57365">
        <ele>1470</ele>
        <time>2026-08-18T07:39:32.006Z</time>
      </trkpt>
      <trkpt lat="45.38262" lon="4.57366">
        <ele>1469.9</ele>
        <time>2026-08-18T07:39:34.005Z</time>
      </trkpt>
      <trkpt lat="45.38262" lon="4.57367">
        <ele>1469.2</ele>
        <time>2026-08-18T07:39:35.006Z</time>
      </trkpt>
      <trkpt lat="45.38262" lon="4.57368">
        <ele>1468.8</ele>
        <time>2026-08-18T07:39:36.006Z</time>
      </trkpt>
      <trkpt lat="45.38263" lon="4.57371">
        <ele>1468.5</ele>
        <time>2026-08-18T07:39:38.006Z</time>
      </trkpt>
      <trkpt lat="45.38263" lon="4.57372">
        <ele>1468.1</ele>
        <time>2026-08-18T07:39:39.006Z</time>
      </trkpt>
      <trkpt lat="45.38263" lon="4.57374">
        <ele>1467.8</ele>
        <time>2026-08-18T07:39:40.006Z</time>
      </trkpt>
      <trkpt lat="45.38263" lon="4.57375">
        <ele>1467.5</ele>
        <time>2026-08-18T07:39:41.006Z</time>
      </trkpt>
      <trkpt lat="45.38263" lon="4.57376">
        <ele>1467.6</ele>
        <time>2026-08-18T07:39:42.006Z</time>
      </trkpt>
      <trkpt lat="45.38264" lon="4.57377">
        <ele>1467.4</ele>
        <time>2026-08-18T07:39:43.006Z</time>
      </trkpt>
      <trkpt lat="45.38265" lon="4.57379">
        <ele>1467.4</ele>
        <time>2026-08-18T07:39:44.911Z</time>
      </trkpt>
      <trkpt lat="45.38266" lon="4.5738">
        <ele>1466.7</ele>
        <time>2026-08-18T07:39:46.087Z</time>
      </trkpt>
      <trkpt lat="45.38267" lon="4.57382">
        <ele>1466.6</ele>
        <time>2026-08-18T07:39:47.934Z</time>
      </trkpt>
      <trkpt lat="45.38267" lon="4.57383">
        <ele>1466.3</ele>
        <time>2026-08-18T07:39:49.005Z</time>
      </trkpt>
      <trkpt lat="45.38267" lon="4.57385">
        <ele>1466.1</ele>
        <time>2026-08-18T07:39:50.006Z</time>
      </trkpt>
      <trkpt lat="45.38266" lon="4.57388">
        <ele>1465.9</ele>
        <time>2026-08-18T07:39:52.004Z</time>
      </trkpt>
      <trkpt lat="45.38266" lon="4.57389">
        <ele>1465.5</ele>
        <time>2026-08-18T07:39:53.027Z</time>
      </trkpt>
      <trkpt lat="45.38265" lon="4.57392">
        <ele>1464.9</ele>
        <time>2026-08-18T07:39:55.006Z</time>
      </trkpt>
      <trkpt lat="45.38265" lon="4.57394">
        <ele>1464.9</ele>
        <time>2026-08-18T07:39:57.006Z</time>
      </trkpt>
      <trkpt lat="45.38265" lon="4.57395">
        <ele>1464.7</ele>
        <time>2026-08-18T07:39:59.006Z</time>
      </trkpt>
      <trkpt lat="45.38265" lon="4.57396">
        <ele>1464.6</ele>
        <time>2026-08-18T07:40:00.023Z</time>
      </trkpt>
      <trkpt lat="45.38264" lon="4.57396">
        <ele>1464.5</ele>
        <time>2026-08-18T07:40:02.006Z</time>
      </trkpt>
      <trkpt lat="45.38264" lon="4.57397">
        <ele>1464.7</ele>
        <time>2026-08-18T07:40:03.006Z</time>
      </trkpt>
      <trkpt lat="45.38264" lon="4.57396">
        <ele>1464.9</ele>
        <time>2026-08-18T07:40:05.006Z</time>
      </trkpt>
      <trkpt lat="45.38264" lon="4.57396">
        <ele>1464.9</ele>
        <time>2026-08-18T07:40:06.006Z</time>
      </trkpt>
      <trkpt lat="45.38263" lon="4.57397">
        <ele>1465</ele>
        <time>2026-08-18T07:40:07.006Z</time>
      </trkpt>
      <trkpt lat="45.38263" lon="4.57397">
        <ele>1465.3</ele>
        <time>2026-08-18T07:40:08.087Z</time>
      </trkpt>
      <trkpt lat="45.38263" lon="4.574">
        <ele>1464.4</ele>
        <time>2026-08-18T07:40:10.023Z</time>
      </trkpt>
      <trkpt lat="45.38261" lon="4.57404">
        <ele>1463.8</ele>
        <time>2026-08-18T07:40:12.006Z</time>
      </trkpt>
      <trkpt lat="45.3826" lon="4.57405">
        <ele>1463.9</ele>
        <time>2026-08-18T07:40:13.006Z</time>
      </trkpt>
      <trkpt lat="45.3826" lon="4.57407">
        <ele>1463.8</ele>
        <time>2026-08-18T07:40:14.006Z</time>
      </trkpt>
      <trkpt lat="45.38259" lon="4.57409">
        <ele>1463.8</ele>
        <time>2026-08-18T07:40:15.006Z</time>
      </trkpt>
      <trkpt lat="45.38259" lon="4.57412">
        <ele>1464.3</ele>
        <time>2026-08-18T07:40:17.005Z</time>
      </trkpt>
      <trkpt lat="45.3826" lon="4.57413">
        <ele>1464.5</ele>
        <time>2026-08-18T07:40:18.008Z</time>
      </trkpt>
      <trkpt lat="45.3826" lon="4.57415">
        <ele>1464.5</ele>
        <time>2026-08-18T07:40:20.005Z</time>
      </trkpt>
      <trkpt lat="45.3826" lon="4.57416">
        <ele>1464.3</ele>
        <time>2026-08-18T07:40:21.006Z</time>
      </trkpt>
      <trkpt lat="45.3826" lon="4.57419">
        <ele>1464.2</ele>
        <time>2026-08-18T07:40:23.004Z</time>
      </trkpt>
      <trkpt lat="45.38261" lon="4.57421">
        <ele>1464</ele>
        <time>2026-08-18T07:40:24.006Z</time>
      </trkpt>
      <trkpt lat="45.3826" lon="4.57422">
        <ele>1463.7</ele>
        <time>2026-08-18T07:40:25.006Z</time>
      </trkpt>
      <trkpt lat="45.3826" lon="4.57423">
        <ele>1463.8</ele>
        <time>2026-08-18T07:40:26.006Z</time>
      </trkpt>
      <trkpt lat="45.38259" lon="4.57424">
        <ele>1463.8</ele>
        <time>2026-08-18T07:40:27.020Z</time>
      </trkpt>
      <trkpt lat="45.38259" lon="4.57428">
        <ele>1463.8</ele>
        <time>2026-08-18T07:40:29.006Z</time>
      </trkpt>
      <trkpt lat="45.38259" lon="4.5743">
        <ele>1463.6</ele>
        <time>2026-08-18T07:40:30.006Z</time>
      </trkpt>
      <trkpt lat="45.3826" lon="4.57431">
        <ele>1463.6</ele>
        <time>2026-08-18T07:40:31.015Z</time>
      </trkpt>
      <trkpt lat="45.38259" lon="4.57434">
        <ele>1462.5</ele>
        <time>2026-08-18T07:40:33.010Z</time>
      </trkpt>
      <trkpt lat="45.3826" lon="4.57438">
        <ele>1462.3</ele>
        <time>2026-08-18T07:40:34.970Z</time>
      </trkpt>
      <trkpt lat="45.3826" lon="4.57439">
        <ele>1461.8</ele>
        <time>2026-08-18T07:40:36.005Z</time>
      </trkpt>
      <trkpt lat="45.3826" lon="4.57442">
        <ele>1461.2</ele>
        <time>2026-08-18T07:40:38.006Z</time>
      </trkpt>
      <trkpt lat="45.3826" lon="4.57444">
        <ele>1461.1</ele>
        <time>2026-08-18T07:40:39.006Z</time>
      </trkpt>
      <trkpt lat="45.3826" lon="4.57448">
        <ele>1460.9</ele>
        <time>2026-08-18T07:40:41.005Z</time>
      </trkpt>
      <trkpt lat="45.38261" lon="4.5745">
        <ele>1461.2</ele>
        <time>2026-08-18T07:40:42.005Z</time>
      </trkpt>
      <trkpt lat="45.38261" lon="4.57452">
        <ele>1461.6</ele>
        <time>2026-08-18T07:40:43.006Z</time>
      </trkpt>
      <trkpt lat="45.38261" lon="4.57454">
        <ele>1461.6</ele>
        <time>2026-08-18T07:40:44.017Z</time>
      </trkpt>
      <trkpt lat="45.38261" lon="4.57457">
        <ele>1462.5</ele>
        <time>2026-08-18T07:40:45.978Z</time>
      </trkpt>
      <trkpt lat="45.38261" lon="4.57459">
        <ele>1462.1</ele>
        <time>2026-08-18T07:40:47.005Z</time>
      </trkpt>
      <trkpt lat="45.3826" lon="4.57462">
        <ele>1462.3</ele>
        <time>2026-08-18T07:40:49.005Z</time>
      </trkpt>
      <trkpt lat="45.3826" lon="4.57463">
        <ele>1462.2</ele>
        <time>2026-08-18T07:40:50.006Z</time>
      </trkpt>
      <trkpt lat="45.3826" lon="4.57466">
        <ele>1462.3</ele>
        <time>2026-08-18T07:40:52.006Z</time>
      </trkpt>
      <trkpt lat="45.38261" lon="4.57469">
        <ele>1462.3</ele>
        <time>2026-08-18T07:40:54.005Z</time>
      </trkpt>
      <trkpt lat="45.38261" lon="4.57471">
        <ele>1461.8</ele>
        <time>2026-08-18T07:40:56.004Z</time>
      </trkpt>
      <trkpt lat="45.38261" lon="4.57473">
        <ele>1461.3</ele>
        <time>2026-08-18T07:40:57.005Z</time>
      </trkpt>
      <trkpt lat="45.38261" lon="4.57474">
        <ele>1461.4</ele>
        <time>2026-08-18T07:40:58.006Z</time>
      </trkpt>
      <trkpt lat="45.38261" lon="4.57476">
        <ele>1461.7</ele>
        <time>2026-08-18T07:40:59.017Z</time>
      </trkpt>
      <trkpt lat="45.38262" lon="4.57479">
        <ele>1461.4</ele>
        <time>2026-08-18T07:41:01.006Z</time>
      </trkpt>
      <trkpt lat="45.38262" lon="4.5748">
        <ele>1461.3</ele>
        <time>2026-08-18T07:41:02.097Z</time>
      </trkpt>
      <trkpt lat="45.38263" lon="4.57483">
        <ele>1461.5</ele>
        <time>2026-08-18T07:41:04.006Z</time>
      </trkpt>
      <trkpt lat="45.38263" lon="4.57486">
        <ele>1461.3</ele>
        <time>2026-08-18T07:41:06.006Z</time>
      </trkpt>
      <trkpt lat="45.38263" lon="4.57489">
        <ele>1460.8</ele>
        <time>2026-08-18T07:41:08.006Z</time>
      </trkpt>
      <trkpt lat="45.38264" lon="4.57492">
        <ele>1460.6</ele>
        <time>2026-08-18T07:41:10.006Z</time>
      </trkpt>
      <trkpt lat="45.38264" lon="4.57493">
        <ele>1460.3</ele>
        <time>2026-08-18T07:41:11.014Z</time>
      </trkpt>
      <trkpt lat="45.38265" lon="4.57497">
        <ele>1459.9</ele>
        <time>2026-08-18T07:41:13.006Z</time>
      </trkpt>
      <trkpt lat="45.38265" lon="4.57499">
        <ele>1459.9</ele>
        <time>2026-08-18T07:41:14.011Z</time>
      </trkpt>
      <trkpt lat="45.38265" lon="4.57503">
        <ele>1460.1</ele>
        <time>2026-08-18T07:41:16.006Z</time>
      </trkpt>
      <trkpt lat="45.38265" lon="4.57504">
        <ele>1459.9</ele>
        <time>2026-08-18T07:41:17.006Z</time>
      </trkpt>
      <trkpt lat="45.38265" lon="4.57506">
        <ele>1460</ele>
        <time>2026-08-18T07:41:18.006Z</time>
      </trkpt>
      <trkpt lat="45.38266" lon="4.57509">
        <ele>1460</ele>
        <time>2026-08-18T07:41:20.006Z</time>
      </trkpt>
      <trkpt lat="45.38267" lon="4.57513">
        <ele>1460.1</ele>
        <time>2026-08-18T07:41:21.977Z</time>
      </trkpt>
      <trkpt lat="45.38267" lon="4.57514">
        <ele>1459.8</ele>
        <time>2026-08-18T07:41:23.006Z</time>
      </trkpt>
      <trkpt lat="45.38267" lon="4.57516">
        <ele>1459.8</ele>
        <time>2026-08-18T07:41:24.018Z</time>
      </trkpt>
      <trkpt lat="45.38267" lon="4.57517">
        <ele>1459.8</ele>
        <time>2026-08-18T07:41:25.038Z</time>
      </trkpt>
      <trkpt lat="45.38268" lon="4.57521">
        <ele>1459.5</ele>
        <time>2026-08-18T07:41:27.060Z</time>
      </trkpt>
      <trkpt lat="45.38269" lon="4.57523">
        <ele>1459.4</ele>
        <time>2026-08-18T07:41:28.089Z</time>
      </trkpt>
      <trkpt lat="45.38269" lon="4.57526">
        <ele>1459.2</ele>
        <time>2026-08-18T07:41:30.038Z</time>
      </trkpt>
      <trkpt lat="45.3827" lon="4.57529">
        <ele>1458.6</ele>
        <time>2026-08-18T07:41:32.006Z</time>
      </trkpt>
      <trkpt lat="45.38271" lon="4.5753">
        <ele>1458.2</ele>
        <time>2026-08-18T07:41:33.006Z</time>
      </trkpt>
      <trkpt lat="45.38271" lon="4.57532">
        <ele>1458.2</ele>
        <time>2026-08-18T07:41:34.018Z</time>
      </trkpt>
      <trkpt lat="45.38271" lon="4.57535">
        <ele>1457.7</ele>
        <time>2026-08-18T07:41:36.006Z</time>
      </trkpt>
      <trkpt lat="45.38271" lon="4.57536">
        <ele>1457.5</ele>
        <time>2026-08-18T07:41:37.006Z</time>
      </trkpt>
      <trkpt lat="45.38272" lon="4.57539">
        <ele>1457.3</ele>
        <time>2026-08-18T07:41:39.006Z</time>
      </trkpt>
      <trkpt lat="45.38272" lon="4.57541">
        <ele>1457.3</ele>
        <time>2026-08-18T07:41:40.029Z</time>
      </trkpt>
      <trkpt lat="45.38273" lon="4.57544">
        <ele>1457.2</ele>
        <time>2026-08-18T07:41:41.948Z</time>
      </trkpt>
      <trkpt lat="45.38273" lon="4.57546">
        <ele>1457.1</ele>
        <time>2026-08-18T07:41:43.032Z</time>
      </trkpt>
      <trkpt lat="45.38273" lon="4.57549">
        <ele>1456.9</ele>
        <time>2026-08-18T07:41:45.006Z</time>
      </trkpt>
      <trkpt lat="45.38274" lon="4.5755">
        <ele>1457.2</ele>
        <time>2026-08-18T07:41:46.006Z</time>
      </trkpt>
      <trkpt lat="45.38274" lon="4.57552">
        <ele>1457</ele>
        <time>2026-08-18T07:41:47.006Z</time>
      </trkpt>
      <trkpt lat="45.38274" lon="4.57555">
        <ele>1457</ele>
        <time>2026-08-18T07:41:49.005Z</time>
      </trkpt>
      <trkpt lat="45.38275" lon="4.57559">
        <ele>1456.5</ele>
        <time>2026-08-18T07:41:51.006Z</time>
      </trkpt>
      <trkpt lat="45.38275" lon="4.57562">
        <ele>1456</ele>
        <time>2026-08-18T07:41:53.011Z</time>
      </trkpt>
      <trkpt lat="45.38275" lon="4.57565">
        <ele>1455.9</ele>
        <time>2026-08-18T07:41:54.991Z</time>
      </trkpt>
      <trkpt lat="45.38276" lon="4.57566">
        <ele>1456.1</ele>
        <time>2026-08-18T07:41:56.006Z</time>
      </trkpt>
      <trkpt lat="45.38276" lon="4.57568">
        <ele>1456.2</ele>
        <time>2026-08-18T07:41:57.006Z</time>
      </trkpt>
      <trkpt lat="45.38276" lon="4.5757">
        <ele>1456</ele>
        <time>2026-08-18T07:41:58.006Z</time>
      </trkpt>
      <trkpt lat="45.38277" lon="4.57571">
        <ele>1456.3</ele>
        <time>2026-08-18T07:41:59.006Z</time>
      </trkpt>
      <trkpt lat="45.38277" lon="4.57574">
        <ele>1456</ele>
        <time>2026-08-18T07:42:01.005Z</time>
      </trkpt>
      <trkpt lat="45.38277" lon="4.57576">
        <ele>1455.8</ele>
        <time>2026-08-18T07:42:02.006Z</time>
      </trkpt>
      <trkpt lat="45.38278" lon="4.57579">
        <ele>1455.7</ele>
        <time>2026-08-18T07:42:04.005Z</time>
      </trkpt>
      <trkpt lat="45.38279" lon="4.57582">
        <ele>1455.7</ele>
        <time>2026-08-18T07:42:06.014Z</time>
      </trkpt>
      <trkpt lat="45.3828" lon="4.57585">
        <ele>1455.5</ele>
        <time>2026-08-18T07:42:08.052Z</time>
      </trkpt>
      <trkpt lat="45.38282" lon="4.57587">
        <ele>1455.4</ele>
        <time>2026-08-18T07:42:10.008Z</time>
      </trkpt>
      <trkpt lat="45.38284" lon="4.57589">
        <ele>1455.5</ele>
        <time>2026-08-18T07:42:11.950Z</time>
      </trkpt>
      <trkpt lat="45.38284" lon="4.57591">
        <ele>1455.4</ele>
        <time>2026-08-18T07:42:13.005Z</time>
      </trkpt>
      <trkpt lat="45.38285" lon="4.57595">
        <ele>1455.1</ele>
        <time>2026-08-18T07:42:15.027Z</time>
      </trkpt>
      <trkpt lat="45.38286" lon="4.57598">
        <ele>1454.6</ele>
        <time>2026-08-18T07:42:17.087Z</time>
      </trkpt>
      <trkpt lat="45.38287" lon="4.576">
        <ele>1454.6</ele>
        <time>2026-08-18T07:42:18.975Z</time>
      </trkpt>
      <trkpt lat="45.38287" lon="4.57602">
        <ele>1454.5</ele>
        <time>2026-08-18T07:42:20.006Z</time>
      </trkpt>
      <trkpt lat="45.38287" lon="4.57606">
        <ele>1454.7</ele>
        <time>2026-08-18T07:42:22.005Z</time>
      </trkpt>
      <trkpt lat="45.38287" lon="4.57607">
        <ele>1454.8</ele>
        <time>2026-08-18T07:42:23.005Z</time>
      </trkpt>
      <trkpt lat="45.38288" lon="4.57609">
        <ele>1455</ele>
        <time>2026-08-18T07:42:24.005Z</time>
      </trkpt>
      <trkpt lat="45.38288" lon="4.5761">
        <ele>1454.7</ele>
        <time>2026-08-18T07:42:25.087Z</time>
      </trkpt>
      <trkpt lat="45.38288" lon="4.57612">
        <ele>1454.6</ele>
        <time>2026-08-18T07:42:27.005Z</time>
      </trkpt>
      <trkpt lat="45.38289" lon="4.57614">
        <ele>1454.6</ele>
        <time>2026-08-18T07:42:28.006Z</time>
      </trkpt>
      <trkpt lat="45.38289" lon="4.57616">
        <ele>1454.5</ele>
        <time>2026-08-18T07:42:29.006Z</time>
      </trkpt>
      <trkpt lat="45.3829" lon="4.57617">
        <ele>1454.2</ele>
        <time>2026-08-18T07:42:30.006Z</time>
      </trkpt>
      <trkpt lat="45.3829" lon="4.57619">
        <ele>1454.1</ele>
        <time>2026-08-18T07:42:31.015Z</time>
      </trkpt>
      <trkpt lat="45.38291" lon="4.57622">
        <ele>1454.1</ele>
        <time>2026-08-18T07:42:33.129Z</time>
      </trkpt>
      <trkpt lat="45.38291" lon="4.57624">
        <ele>1454.4</ele>
        <time>2026-08-18T07:42:34.497Z</time>
      </trkpt>
      <trkpt lat="45.38292" lon="4.57625">
        <ele>1454.5</ele>
        <time>2026-08-18T07:42:35.771Z</time>
      </trkpt>
      <trkpt lat="45.38292" lon="4.57626">
        <ele>1454.3</ele>
        <time>2026-08-18T07:42:37.005Z</time>
      </trkpt>
      <trkpt lat="45.38291" lon="4.57627">
        <ele>1453.9</ele>
        <time>2026-08-18T07:42:39.020Z</time>
      </trkpt>
      <trkpt lat="45.38292" lon="4.57628">
        <ele>1453.6</ele>
        <time>2026-08-18T07:42:41.088Z</time>
      </trkpt>
      <trkpt lat="45.38292" lon="4.57628">
        <ele>1453.3</ele>
        <time>2026-08-18T07:42:42.100Z</time>
      </trkpt>
      <trkpt lat="45.38293" lon="4.5763">
        <ele>1453.1</ele>
        <time>2026-08-18T07:42:44.005Z</time>
      </trkpt>
      <trkpt lat="45.38293" lon="4.5763">
        <ele>1452.8</ele>
        <time>2026-08-18T07:42:45.006Z</time>
      </trkpt>
      <trkpt lat="45.38293" lon="4.5763">
        <ele>1452.8</ele>
        <time>2026-08-18T07:42:46.006Z</time>
      </trkpt>
      <trkpt lat="45.38293" lon="4.5763">
        <ele>1453</ele>
        <time>2026-08-18T07:42:47.006Z</time>
      </trkpt>
      <trkpt lat="45.38292" lon="4.57631">
        <ele>1452.8</ele>
        <time>2026-08-18T07:42:49.005Z</time>
      </trkpt>
      <trkpt lat="45.38291" lon="4.57633">
        <ele>1452.6</ele>
        <time>2026-08-18T07:42:51.006Z</time>
      </trkpt>
      <trkpt lat="45.38289" lon="4.57636">
        <ele>1452.9</ele>
        <time>2026-08-18T07:42:53.006Z</time>
      </trkpt>
      <trkpt lat="45.38288" lon="4.57638">
        <ele>1453.1</ele>
        <time>2026-08-18T07:42:54.006Z</time>
      </trkpt>
      <trkpt lat="45.38287" lon="4.57638">
        <ele>1453.4</ele>
        <time>2026-08-18T07:42:55.006Z</time>
      </trkpt>
      <trkpt lat="45.38285" lon="4.57639">
        <ele>1453.9</ele>
        <time>2026-08-18T07:42:56.970Z</time>
      </trkpt>
      <trkpt lat="45.38284" lon="4.57638">
        <ele>1453.7</ele>
        <time>2026-08-18T07:42:58.006Z</time>
      </trkpt>
      <trkpt lat="45.38284" lon="4.57638">
        <ele>1453.7</ele>
        <time>2026-08-18T07:42:59.006Z</time>
      </trkpt>
      <trkpt lat="45.38283" lon="4.57637">
        <ele>1453.6</ele>
        <time>2026-08-18T07:43:00.006Z</time>
      </trkpt>
      <trkpt lat="45.38281" lon="4.57637">
        <ele>1453.4</ele>
        <time>2026-08-18T07:43:02.005Z</time>
      </trkpt>
      <trkpt lat="45.3828" lon="4.57637">
        <ele>1453.3</ele>
        <time>2026-08-18T07:43:03.005Z</time>
      </trkpt>
      <trkpt lat="45.38279" lon="4.57637">
        <ele>1453.3</ele>
        <time>2026-08-18T07:43:04.005Z</time>
      </trkpt>
      <trkpt lat="45.38279" lon="4.57638">
        <ele>1453.2</ele>
        <time>2026-08-18T07:43:05.005Z</time>
      </trkpt>
      <trkpt lat="45.38279" lon="4.57639">
        <ele>1453.2</ele>
        <time>2026-08-18T07:43:06.006Z</time>
      </trkpt>
      <trkpt lat="45.38279" lon="4.57639">
        <ele>1453.2</ele>
        <time>2026-08-18T07:43:07.006Z</time>
      </trkpt>
      <trkpt lat="45.38279" lon="4.57639">
        <ele>1453.5</ele>
        <time>2026-08-18T07:43:08.006Z</time>
      </trkpt>
      <trkpt lat="45.38279" lon="4.57639">
        <ele>1453.5</ele>
        <time>2026-08-18T07:43:09.006Z</time>
      </trkpt>
      <trkpt lat="45.38279" lon="4.57639">
        <ele>1453.5</ele>
        <time>2026-08-18T07:43:10.006Z</time>
      </trkpt>
      <trkpt lat="45.38279" lon="4.57639">
        <ele>1453.4</ele>
        <time>2026-08-18T07:43:11.006Z</time>
      </trkpt>
      <trkpt lat="45.38279" lon="4.57638">
        <ele>1453.4</ele>
        <time>2026-08-18T07:43:13.006Z</time>
      </trkpt>
      <trkpt lat="45.38279" lon="4.57638">
        <ele>1453.4</ele>
        <time>2026-08-18T07:43:14.006Z</time>
      </trkpt>
      <trkpt lat="45.38279" lon="4.57638">
        <ele>1453.4</ele>
        <time>2026-08-18T07:43:15.006Z</time>
      </trkpt>
      <trkpt lat="45.38279" lon="4.57638">
        <ele>1453.3</ele>
        <time>2026-08-18T07:43:17.005Z</time>
      </trkpt>
      <trkpt lat="45.38279" lon="4.57638">
        <ele>1453</ele>
        <time>2026-08-18T07:43:18.006Z</time>
      </trkpt>
      <trkpt lat="45.38279" lon="4.57638">
        <ele>1453</ele>
        <time>2026-08-18T07:43:19.006Z</time>
      </trkpt>
      <trkpt lat="45.38279" lon="4.57638">
        <ele>1452.8</ele>
        <time>2026-08-18T07:43:20.006Z</time>
      </trkpt>
      <trkpt lat="45.38277" lon="4.57637">
        <ele>1453.5</ele>
        <time>2026-08-18T07:43:22.004Z</time>
      </trkpt>
      <trkpt lat="45.38276" lon="4.57636">
        <ele>1453.5</ele>
        <time>2026-08-18T07:43:23.005Z</time>
      </trkpt>
      <trkpt lat="45.38276" lon="4.57636">
        <ele>1453.5</ele>
        <time>2026-08-18T07:43:24.006Z</time>
      </trkpt>
      <trkpt lat="45.38276" lon="4.57635">
        <ele>1453.5</ele>
        <time>2026-08-18T07:43:26.006Z</time>
      </trkpt>
      <trkpt lat="45.38276" lon="4.57635">
        <ele>1453.5</ele>
        <time>2026-08-18T07:43:27.006Z</time>
      </trkpt>
      <trkpt lat="45.38275" lon="4.57635">
        <ele>1453.5</ele>
        <time>2026-08-18T07:43:29.006Z</time>
      </trkpt>
      <trkpt lat="45.38275" lon="4.57635">
        <ele>1453.5</ele>
        <time>2026-08-18T07:43:31.006Z</time>
      </trkpt>
      <trkpt lat="45.38275" lon="4.57635">
        <ele>1453.8</ele>
        <time>2026-08-18T07:43:33.006Z</time>
      </trkpt>
      <trkpt lat="45.38275" lon="4.57635">
        <ele>1453.8</ele>
        <time>2026-08-18T07:43:34.006Z</time>
      </trkpt>
      <trkpt lat="45.38274" lon="4.57635">
        <ele>1453</ele>
        <time>2026-08-18T07:43:36.005Z</time>
      </trkpt>
      <trkpt lat="45.38272" lon="4.57634">
        <ele>1452.5</ele>
        <time>2026-08-18T07:43:37.006Z</time>
      </trkpt>
      <trkpt lat="45.38271" lon="4.57634">
        <ele>1452.4</ele>
        <time>2026-08-18T07:43:38.006Z</time>
      </trkpt>
      <trkpt lat="45.3827" lon="4.57634">
        <ele>1452.3</ele>
        <time>2026-08-18T07:43:39.006Z</time>
      </trkpt>
      <trkpt lat="45.38267" lon="4.57634">
        <ele>1452.1</ele>
        <time>2026-08-18T07:43:41.005Z</time>
      </trkpt>
      <trkpt lat="45.38264" lon="4.57633">
        <ele>1452.1</ele>
        <time>2026-08-18T07:43:43.005Z</time>
      </trkpt>
      <trkpt lat="45.38262" lon="4.57633">
        <ele>1451.8</ele>
        <time>2026-08-18T07:43:45.006Z</time>
      </trkpt>
      <trkpt lat="45.38261" lon="4.57633">
        <ele>1451.7</ele>
        <time>2026-08-18T07:43:46.006Z</time>
      </trkpt>
      <trkpt lat="45.38262" lon="4.57632">
        <ele>1452.2</ele>
        <time>2026-08-18T07:43:47.009Z</time>
      </trkpt>
      <trkpt lat="45.3826" lon="4.5763">
        <ele>1453</ele>
        <time>2026-08-18T07:43:49.006Z</time>
      </trkpt>
      <trkpt lat="45.38259" lon="4.5763">
        <ele>1453.2</ele>
        <time>2026-08-18T07:43:50.006Z</time>
      </trkpt>
      <trkpt lat="45.38256" lon="4.57631">
        <ele>1453.4</ele>
        <time>2026-08-18T07:43:52.006Z</time>
      </trkpt>
      <trkpt lat="45.38254" lon="4.57631">
        <ele>1452.3</ele>
        <time>2026-08-18T07:43:54.006Z</time>
      </trkpt>
      <trkpt lat="45.38252" lon="4.57632">
        <ele>1452.5</ele>
        <time>2026-08-18T07:43:55.910Z</time>
      </trkpt>
      <trkpt lat="45.38251" lon="4.57632">
        <ele>1452.5</ele>
        <time>2026-08-18T07:43:57.006Z</time>
      </trkpt>
      <trkpt lat="45.3825" lon="4.57632">
        <ele>1452.2</ele>
        <time>2026-08-18T07:43:59.006Z</time>
      </trkpt>
      <trkpt lat="45.38249" lon="4.57634">
        <ele>1452.7</ele>
        <time>2026-08-18T07:44:01.005Z</time>
      </trkpt>
      <trkpt lat="45.38249" lon="4.57635">
        <ele>1452.5</ele>
        <time>2026-08-18T07:44:02.005Z</time>
      </trkpt>
      <trkpt lat="45.38249" lon="4.57636">
        <ele>1452.5</ele>
        <time>2026-08-18T07:44:03.006Z</time>
      </trkpt>
      <trkpt lat="45.38249" lon="4.57638">
        <ele>1452.6</ele>
        <time>2026-08-18T07:44:04.006Z</time>
      </trkpt>
      <trkpt lat="45.38249" lon="4.57639">
        <ele>1452.4</ele>
        <time>2026-08-18T07:44:05.006Z</time>
      </trkpt>
      <trkpt lat="45.3825" lon="4.57642">
        <ele>1452.5</ele>
        <time>2026-08-18T07:44:07.005Z</time>
      </trkpt>
      <trkpt lat="45.38249" lon="4.57645">
        <ele>1452.7</ele>
        <time>2026-08-18T07:44:09.005Z</time>
      </trkpt>
      <trkpt lat="45.38249" lon="4.57646">
        <ele>1452.6</ele>
        <time>2026-08-18T07:44:10.005Z</time>
      </trkpt>
      <trkpt lat="45.38249" lon="4.57648">
        <ele>1452.6</ele>
        <time>2026-08-18T07:44:11.005Z</time>
      </trkpt>
      <trkpt lat="45.38248" lon="4.57649">
        <ele>1452.4</ele>
        <time>2026-08-18T07:44:12.005Z</time>
      </trkpt>
      <trkpt lat="45.38248" lon="4.5765">
        <ele>1452.5</ele>
        <time>2026-08-18T07:44:13.006Z</time>
      </trkpt>
      <trkpt lat="45.38248" lon="4.57652">
        <ele>1452.3</ele>
        <time>2026-08-18T07:44:15.005Z</time>
      </trkpt>
      <trkpt lat="45.38247" lon="4.57654">
        <ele>1451.6</ele>
        <time>2026-08-18T07:44:16.005Z</time>
      </trkpt>
      <trkpt lat="45.38247" lon="4.57655">
        <ele>1451.7</ele>
        <time>2026-08-18T07:44:17.006Z</time>
      </trkpt>
      <trkpt lat="45.38246" lon="4.57658">
        <ele>1451.6</ele>
        <time>2026-08-18T07:44:18.954Z</time>
      </trkpt>
      <trkpt lat="45.38245" lon="4.57659">
        <ele>1451.1</ele>
        <time>2026-08-18T07:44:20.005Z</time>
      </trkpt>
      <trkpt lat="45.38243" lon="4.5766">
        <ele>1451.4</ele>
        <time>2026-08-18T07:44:21.892Z</time>
      </trkpt>
      <trkpt lat="45.38243" lon="4.5766">
        <ele>1451.3</ele>
        <time>2026-08-18T07:44:23.006Z</time>
      </trkpt>
      <trkpt lat="45.38241" lon="4.57661">
        <ele>1451.4</ele>
        <time>2026-08-18T07:44:25.006Z</time>
      </trkpt>
      <trkpt lat="45.3824" lon="4.57662">
        <ele>1451.7</ele>
        <time>2026-08-18T07:44:27.006Z</time>
      </trkpt>
      <trkpt lat="45.38239" lon="4.57664">
        <ele>1450.9</ele>
        <time>2026-08-18T07:44:29.006Z</time>
      </trkpt>
      <trkpt lat="45.38239" lon="4.57665">
        <ele>1450.9</ele>
        <time>2026-08-18T07:44:30.030Z</time>
      </trkpt>
      <trkpt lat="45.38238" lon="4.57668">
        <ele>1450.7</ele>
        <time>2026-08-18T07:44:31.970Z</time>
      </trkpt>
      <trkpt lat="45.38238" lon="4.57669">
        <ele>1451.9</ele>
        <time>2026-08-18T07:44:33.006Z</time>
      </trkpt>
      <trkpt lat="45.38238" lon="4.5767">
        <ele>1451.9</ele>
        <time>2026-08-18T07:44:34.011Z</time>
      </trkpt>
      <trkpt lat="45.38237" lon="4.57672">
        <ele>1450.6</ele>
        <time>2026-08-18T07:44:36.006Z</time>
      </trkpt>
      <trkpt lat="45.38236" lon="4.57672">
        <ele>1450.6</ele>
        <time>2026-08-18T07:44:37.018Z</time>
      </trkpt>
      <trkpt lat="45.38235" lon="4.57674">
        <ele>1451.1</ele>
        <time>2026-08-18T07:44:39.005Z</time>
      </trkpt>
      <trkpt lat="45.38234" lon="4.57675">
        <ele>1451.3</ele>
        <time>2026-08-18T07:44:40.005Z</time>
      </trkpt>
      <trkpt lat="45.38233" lon="4.57675">
        <ele>1451.3</ele>
        <time>2026-08-18T07:44:41.011Z</time>
      </trkpt>
      <trkpt lat="45.38232" lon="4.57677">
        <ele>1451.3</ele>
        <time>2026-08-18T07:44:42.911Z</time>
      </trkpt>
      <trkpt lat="45.38232" lon="4.57679">
        <ele>1452.1</ele>
        <time>2026-08-18T07:44:44.004Z</time>
      </trkpt>
      <trkpt lat="45.38231" lon="4.5768">
        <ele>1452.4</ele>
        <time>2026-08-18T07:44:45.006Z</time>
      </trkpt>
      <trkpt lat="45.38231" lon="4.57683">
        <ele>1451.4</ele>
        <time>2026-08-18T07:44:47.006Z</time>
      </trkpt>
      <trkpt lat="45.38231" lon="4.57684">
        <ele>1451.7</ele>
        <time>2026-08-18T07:44:48.006Z</time>
      </trkpt>
      <trkpt lat="45.3823" lon="4.57685">
        <ele>1452</ele>
        <time>2026-08-18T07:44:49.006Z</time>
      </trkpt>
      <trkpt lat="45.38229" lon="4.57688">
        <ele>1451.7</ele>
        <time>2026-08-18T07:44:51.008Z</time>
      </trkpt>
      <trkpt lat="45.38228" lon="4.57689">
        <ele>1452.3</ele>
        <time>2026-08-18T07:44:53.006Z</time>
      </trkpt>
      <trkpt lat="45.38227" lon="4.5769">
        <ele>1452.9</ele>
        <time>2026-08-18T07:44:54.006Z</time>
      </trkpt>
      <trkpt lat="45.38226" lon="4.57692">
        <ele>1452.2</ele>
        <time>2026-08-18T07:44:56.029Z</time>
      </trkpt>
      <trkpt lat="45.38226" lon="4.57693">
        <ele>1452.1</ele>
        <time>2026-08-18T07:44:57.088Z</time>
      </trkpt>
      <trkpt lat="45.38224" lon="4.57694">
        <ele>1451.8</ele>
        <time>2026-08-18T07:44:59.034Z</time>
      </trkpt>
      <trkpt lat="45.38223" lon="4.57695">
        <ele>1451.7</ele>
        <time>2026-08-18T07:45:01.006Z</time>
      </trkpt>
      <trkpt lat="45.38222" lon="4.57696">
        <ele>1451.4</ele>
        <time>2026-08-18T07:45:02.006Z</time>
      </trkpt>
      <trkpt lat="45.38222" lon="4.57697">
        <ele>1451.8</ele>
        <time>2026-08-18T07:45:03.006Z</time>
      </trkpt>
      <trkpt lat="45.38221" lon="4.57698">
        <ele>1451.8</ele>
        <time>2026-08-18T07:45:04.146Z</time>
      </trkpt>
      <trkpt lat="45.3822" lon="4.57699">
        <ele>1451.8</ele>
        <time>2026-08-18T07:45:05.509Z</time>
      </trkpt>
      <trkpt lat="45.3822" lon="4.57701">
        <ele>1451</ele>
        <time>2026-08-18T07:45:06.831Z</time>
      </trkpt>
      <trkpt lat="45.38219" lon="4.57703">
        <ele>1451.3</ele>
        <time>2026-08-18T07:45:08.005Z</time>
      </trkpt>
      <trkpt lat="45.38218" lon="4.57704">
        <ele>1451.4</ele>
        <time>2026-08-18T07:45:09.006Z</time>
      </trkpt>
      <trkpt lat="45.38218" lon="4.57705">
        <ele>1451.7</ele>
        <time>2026-08-18T07:45:10.006Z</time>
      </trkpt>
      <trkpt lat="45.38217" lon="4.57708">
        <ele>1450.9</ele>
        <time>2026-08-18T07:45:12.019Z</time>
      </trkpt>
      <trkpt lat="45.38215" lon="4.5771">
        <ele>1450.9</ele>
        <time>2026-08-18T07:45:14.005Z</time>
      </trkpt>
      <trkpt lat="45.38215" lon="4.57712">
        <ele>1450.9</ele>
        <time>2026-08-18T07:45:15.054Z</time>
      </trkpt>
      <trkpt lat="45.38213" lon="4.57714">
        <ele>1451.9</ele>
        <time>2026-08-18T07:45:17.006Z</time>
      </trkpt>
      <trkpt lat="45.38212" lon="4.57715">
        <ele>1451.5</ele>
        <time>2026-08-18T07:45:18.006Z</time>
      </trkpt>
      <trkpt lat="45.3821" lon="4.57716">
        <ele>1450.6</ele>
        <time>2026-08-18T07:45:20.006Z</time>
      </trkpt>
      <trkpt lat="45.38209" lon="4.57717">
        <ele>1450.6</ele>
        <time>2026-08-18T07:45:21.034Z</time>
      </trkpt>
      <trkpt lat="45.38207" lon="4.57719">
        <ele>1450.9</ele>
        <time>2026-08-18T07:45:23.046Z</time>
      </trkpt>
      <trkpt lat="45.38205" lon="4.5772">
        <ele>1450</ele>
        <time>2026-08-18T07:45:25.006Z</time>
      </trkpt>
      <trkpt lat="45.38203" lon="4.57722">
        <ele>1449.7</ele>
        <time>2026-08-18T07:45:27.006Z</time>
      </trkpt>
      <trkpt lat="45.38201" lon="4.57722">
        <ele>1449.6</ele>
        <time>2026-08-18T07:45:29.006Z</time>
      </trkpt>
      <trkpt lat="45.382" lon="4.57723">
        <ele>1449.6</ele>
        <time>2026-08-18T07:45:30.074Z</time>
      </trkpt>
      <trkpt lat="45.38199" lon="4.57724">
        <ele>1449.5</ele>
        <time>2026-08-18T07:45:31.088Z</time>
      </trkpt>
      <trkpt lat="45.38197" lon="4.57725">
        <ele>1449.5</ele>
        <time>2026-08-18T07:45:33.008Z</time>
      </trkpt>
      <trkpt lat="45.38196" lon="4.57726">
        <ele>1450.1</ele>
        <time>2026-08-18T07:45:35.005Z</time>
      </trkpt>
      <trkpt lat="45.38194" lon="4.57727">
        <ele>1449.3</ele>
        <time>2026-08-18T07:45:37.006Z</time>
      </trkpt>
      <trkpt lat="45.38193" lon="4.57727">
        <ele>1449.1</ele>
        <time>2026-08-18T07:45:38.006Z</time>
      </trkpt>
      <trkpt lat="45.38193" lon="4.57728">
        <ele>1449</ele>
        <time>2026-08-18T07:45:39.006Z</time>
      </trkpt>
      <trkpt lat="45.38192" lon="4.57729">
        <ele>1449.1</ele>
        <time>2026-08-18T07:45:40.006Z</time>
      </trkpt>
      <trkpt lat="45.3819" lon="4.5773">
        <ele>1449.1</ele>
        <time>2026-08-18T07:45:42.006Z</time>
      </trkpt>
      <trkpt lat="45.38189" lon="4.5773">
        <ele>1449.2</ele>
        <time>2026-08-18T07:45:43.006Z</time>
      </trkpt>
      <trkpt lat="45.38187" lon="4.57729">
        <ele>1450.7</ele>
        <time>2026-08-18T07:45:45.006Z</time>
      </trkpt>
      <trkpt lat="45.38186" lon="4.57729">
        <ele>1452.2</ele>
        <time>2026-08-18T07:45:47.041Z</time>
      </trkpt>
      <trkpt lat="45.38184" lon="4.5773">
        <ele>1452.1</ele>
        <time>2026-08-18T07:45:49.006Z</time>
      </trkpt>
      <trkpt lat="45.38183" lon="4.57731">
        <ele>1451.1</ele>
        <time>2026-08-18T07:45:50.007Z</time>
      </trkpt>
      <trkpt lat="45.38182" lon="4.57732">
        <ele>1449.7</ele>
        <time>2026-08-18T07:45:51.892Z</time>
      </trkpt>
      <trkpt lat="45.38181" lon="4.57733">
        <ele>1452.4</ele>
        <time>2026-08-18T07:45:53.005Z</time>
      </trkpt>
      <trkpt lat="45.3818" lon="4.57734">
        <ele>1452.8</ele>
        <time>2026-08-18T07:45:54.005Z</time>
      </trkpt>
      <trkpt lat="45.38179" lon="4.57736">
        <ele>1452.8</ele>
        <time>2026-08-18T07:45:55.026Z</time>
      </trkpt>
      <trkpt lat="45.38179" lon="4.57737">
        <ele>1451.2</ele>
        <time>2026-08-18T07:45:56.090Z</time>
      </trkpt>
      <trkpt lat="45.38177" lon="4.57738">
        <ele>1449.2</ele>
        <time>2026-08-18T07:45:58.005Z</time>
      </trkpt>
      <trkpt lat="45.38176" lon="4.57739">
        <ele>1447.5</ele>
        <time>2026-08-18T07:45:59.006Z</time>
      </trkpt>
      <trkpt lat="45.38174" lon="4.57739">
        <ele>1449.5</ele>
        <time>2026-08-18T07:46:01.005Z</time>
      </trkpt>
      <trkpt lat="45.38173" lon="4.57739">
        <ele>1449.5</ele>
        <time>2026-08-18T07:46:02.035Z</time>
      </trkpt>
      <trkpt lat="45.38172" lon="4.57739">
        <ele>1451.5</ele>
        <time>2026-08-18T07:46:04.019Z</time>
      </trkpt>
      <trkpt lat="45.38171" lon="4.57738">
        <ele>1450.3</ele>
        <time>2026-08-18T07:46:06.006Z</time>
      </trkpt>
      <trkpt lat="45.3817" lon="4.57738">
        <ele>1451.6</ele>
        <time>2026-08-18T07:46:07.006Z</time>
      </trkpt>
      <trkpt lat="45.3817" lon="4.57737">
        <ele>1453.6</ele>
        <time>2026-08-18T07:46:08.012Z</time>
      </trkpt>
      <trkpt lat="45.38168" lon="4.57737">
        <ele>1450.8</ele>
        <time>2026-08-18T07:46:10.005Z</time>
      </trkpt>
      <trkpt lat="45.38167" lon="4.57737">
        <ele>1450.2</ele>
        <time>2026-08-18T07:46:11.006Z</time>
      </trkpt>
      <trkpt lat="45.38165" lon="4.57737">
        <ele>1450.3</ele>
        <time>2026-08-18T07:46:13.033Z</time>
      </trkpt>
      <trkpt lat="45.38164" lon="4.57736">
        <ele>1449.5</ele>
        <time>2026-08-18T07:46:15.005Z</time>
      </trkpt>
      <trkpt lat="45.38163" lon="4.57736">
        <ele>1452.9</ele>
        <time>2026-08-18T07:46:16.006Z</time>
      </trkpt>
      <trkpt lat="45.38162" lon="4.57736">
        <ele>1451.6</ele>
        <time>2026-08-18T07:46:17.006Z</time>
      </trkpt>
      <trkpt lat="45.38162" lon="4.57735">
        <ele>1451.2</ele>
        <time>2026-08-18T07:46:18.006Z</time>
      </trkpt>
      <trkpt lat="45.38161" lon="4.57735">
        <ele>1452.8</ele>
        <time>2026-08-18T07:46:19.006Z</time>
      </trkpt>
      <trkpt lat="45.3816" lon="4.57735">
        <ele>1451.9</ele>
        <time>2026-08-18T07:46:20.006Z</time>
      </trkpt>
      <trkpt lat="45.38159" lon="4.57735">
        <ele>1452.6</ele>
        <time>2026-08-18T07:46:21.006Z</time>
      </trkpt>
      <trkpt lat="45.38158" lon="4.57735">
        <ele>1452.9</ele>
        <time>2026-08-18T07:46:22.100Z</time>
      </trkpt>
      <trkpt lat="45.38156" lon="4.57736">
        <ele>1454.3</ele>
        <time>2026-08-18T07:46:23.995Z</time>
      </trkpt>
      <trkpt lat="45.38155" lon="4.57738">
        <ele>1451.8</ele>
        <time>2026-08-18T07:46:25.006Z</time>
      </trkpt>
      <trkpt lat="45.38155" lon="4.5774">
        <ele>1451.8</ele>
        <time>2026-08-18T07:46:26.028Z</time>
      </trkpt>
      <trkpt lat="45.38154" lon="4.57743">
        <ele>1451.7</ele>
        <time>2026-08-18T07:46:28.006Z</time>
      </trkpt>
      <trkpt lat="45.38153" lon="4.57746">
        <ele>1448.8</ele>
        <time>2026-08-18T07:46:30.006Z</time>
      </trkpt>
      <trkpt lat="45.38153" lon="4.57748">
        <ele>1448.7</ele>
        <time>2026-08-18T07:46:31.006Z</time>
      </trkpt>
      <trkpt lat="45.38153" lon="4.5775">
        <ele>1450.2</ele>
        <time>2026-08-18T07:46:32.006Z</time>
      </trkpt>
      <trkpt lat="45.38153" lon="4.57754">
        <ele>1450.8</ele>
        <time>2026-08-18T07:46:34.005Z</time>
      </trkpt>
      <trkpt lat="45.38153" lon="4.57757">
        <ele>1449.6</ele>
        <time>2026-08-18T07:46:36.018Z</time>
      </trkpt>
      <trkpt lat="45.38152" lon="4.57759">
        <ele>1450.9</ele>
        <time>2026-08-18T07:46:38.071Z</time>
      </trkpt>
      <trkpt lat="45.38152" lon="4.57761">
        <ele>1451.8</ele>
        <time>2026-08-18T07:46:40.010Z</time>
      </trkpt>
      <trkpt lat="45.38152" lon="4.57764">
        <ele>1454.3</ele>
        <time>2026-08-18T07:46:42.006Z</time>
      </trkpt>
      <trkpt lat="45.3815" lon="4.57766">
        <ele>1453.8</ele>
        <time>2026-08-18T07:46:44.006Z</time>
      </trkpt>
      <trkpt lat="45.38149" lon="4.57766">
        <ele>1453.6</ele>
        <time>2026-08-18T07:46:45.006Z</time>
      </trkpt>
      <trkpt lat="45.38146" lon="4.57766">
        <ele>1452.5</ele>
        <time>2026-08-18T07:46:47.006Z</time>
      </trkpt>
      <trkpt lat="45.38143" lon="4.57765">
        <ele>1452.1</ele>
        <time>2026-08-18T07:46:49.005Z</time>
      </trkpt>
      <trkpt lat="45.38142" lon="4.57765">
        <ele>1450.8</ele>
        <time>2026-08-18T07:46:50.005Z</time>
      </trkpt>
      <trkpt lat="45.38141" lon="4.57765">
        <ele>1448.4</ele>
        <time>2026-08-18T07:46:51.006Z</time>
      </trkpt>
      <trkpt lat="45.3814" lon="4.57764">
        <ele>1447.9</ele>
        <time>2026-08-18T07:46:52.006Z</time>
      </trkpt>
      <trkpt lat="45.38139" lon="4.57764">
        <ele>1447</ele>
        <time>2026-08-18T07:46:54.006Z</time>
      </trkpt>
      <trkpt lat="45.38138" lon="4.57765">
        <ele>1446</ele>
        <time>2026-08-18T07:46:55.069Z</time>
      </trkpt>
      <trkpt lat="45.38137" lon="4.57765">
        <ele>1445.6</ele>
        <time>2026-08-18T07:46:57.008Z</time>
      </trkpt>
      <trkpt lat="45.38137" lon="4.57766">
        <ele>1445.8</ele>
        <time>2026-08-18T07:46:58.969Z</time>
      </trkpt>
      <trkpt lat="45.38136" lon="4.57767">
        <ele>1447.4</ele>
        <time>2026-08-18T07:47:00.889Z</time>
      </trkpt>
      <trkpt lat="45.38136" lon="4.57768">
        <ele>1448</ele>
        <time>2026-08-18T07:47:02.005Z</time>
      </trkpt>
      <trkpt lat="45.38135" lon="4.57769">
        <ele>1448.2</ele>
        <time>2026-08-18T07:47:03.006Z</time>
      </trkpt>
      <trkpt lat="45.38135" lon="4.5777">
        <ele>1448.8</ele>
        <time>2026-08-18T07:47:04.006Z</time>
      </trkpt>
      <trkpt lat="45.38134" lon="4.57771">
        <ele>1446.5</ele>
        <time>2026-08-18T07:47:05.006Z</time>
      </trkpt>
      <trkpt lat="45.38133" lon="4.57772">
        <ele>1450.3</ele>
        <time>2026-08-18T07:47:06.020Z</time>
      </trkpt>
      <trkpt lat="45.38131" lon="4.57773">
        <ele>1449.7</ele>
        <time>2026-08-18T07:47:07.971Z</time>
      </trkpt>
      <trkpt lat="45.3813" lon="4.57774">
        <ele>1449.5</ele>
        <time>2026-08-18T07:47:09.005Z</time>
      </trkpt>
      <trkpt lat="45.38129" lon="4.57776">
        <ele>1450.3</ele>
        <time>2026-08-18T07:47:10.005Z</time>
      </trkpt>
      <trkpt lat="45.38129" lon="4.57777">
        <ele>1450.7</ele>
        <time>2026-08-18T07:47:11.006Z</time>
      </trkpt>
      <trkpt lat="45.38128" lon="4.57779">
        <ele>1450</ele>
        <time>2026-08-18T07:47:12.006Z</time>
      </trkpt>
      <trkpt lat="45.38128" lon="4.5778">
        <ele>1444</ele>
        <time>2026-08-18T07:47:13.006Z</time>
      </trkpt>
      <trkpt lat="45.38127" lon="4.57781">
        <ele>1444</ele>
        <time>2026-08-18T07:47:14.017Z</time>
      </trkpt>
      <trkpt lat="45.38126" lon="4.57783">
        <ele>1447.5</ele>
        <time>2026-08-18T07:47:16.006Z</time>
      </trkpt>
      <trkpt lat="45.38126" lon="4.57784">
        <ele>1447.5</ele>
        <time>2026-08-18T07:47:17.012Z</time>
      </trkpt>
      <trkpt lat="45.38126" lon="4.57786">
        <ele>1448.4</ele>
        <time>2026-08-18T07:47:19.024Z</time>
      </trkpt>
      <trkpt lat="45.38125" lon="4.57789">
        <ele>1448.4</ele>
        <time>2026-08-18T07:47:21.006Z</time>
      </trkpt>
      <trkpt lat="45.38125" lon="4.5779">
        <ele>1447.3</ele>
        <time>2026-08-18T07:47:22.006Z</time>
      </trkpt>
      <trkpt lat="45.38125" lon="4.57792">
        <ele>1447.2</ele>
        <time>2026-08-18T07:47:23.017Z</time>
      </trkpt>
      <trkpt lat="45.38125" lon="4.57794">
        <ele>1446.6</ele>
        <time>2026-08-18T07:47:25.006Z</time>
      </trkpt>
      <trkpt lat="45.38124" lon="4.57796">
        <ele>1446</ele>
        <time>2026-08-18T07:47:26.006Z</time>
      </trkpt>
      <trkpt lat="45.38124" lon="4.57797">
        <ele>1448.6</ele>
        <time>2026-08-18T07:47:27.010Z</time>
      </trkpt>
      <trkpt lat="45.38123" lon="4.57798">
        <ele>1447.7</ele>
        <time>2026-08-18T07:47:29.005Z</time>
      </trkpt>
      <trkpt lat="45.38122" lon="4.57799">
        <ele>1445.3</ele>
        <time>2026-08-18T07:47:30.006Z</time>
      </trkpt>
      <trkpt lat="45.38121" lon="4.578">
        <ele>1445.3</ele>
        <time>2026-08-18T07:47:31.034Z</time>
      </trkpt>
      <trkpt lat="45.3812" lon="4.57801">
        <ele>1443.5</ele>
        <time>2026-08-18T07:47:33.006Z</time>
      </trkpt>
      <trkpt lat="45.3812" lon="4.57803">
        <ele>1442.1</ele>
        <time>2026-08-18T07:47:34.006Z</time>
      </trkpt>
      <trkpt lat="45.38119" lon="4.57804">
        <ele>1444.3</ele>
        <time>2026-08-18T07:47:35.006Z</time>
      </trkpt>
      <trkpt lat="45.38119" lon="4.57806">
        <ele>1443.5</ele>
        <time>2026-08-18T07:47:37.006Z</time>
      </trkpt>
      <trkpt lat="45.38118" lon="4.57807">
        <ele>1443.5</ele>
        <time>2026-08-18T07:47:38.006Z</time>
      </trkpt>
      <trkpt lat="45.38117" lon="4.57807">
        <ele>1443</ele>
        <time>2026-08-18T07:47:39.006Z</time>
      </trkpt>
      <trkpt lat="45.38116" lon="4.57807">
        <ele>1443</ele>
        <time>2026-08-18T07:47:40.006Z</time>
      </trkpt>
      <trkpt lat="45.38115" lon="4.57806">
        <ele>1442.9</ele>
        <time>2026-08-18T07:47:42.006Z</time>
      </trkpt>
      <trkpt lat="45.38114" lon="4.57807">
        <ele>1444.8</ele>
        <time>2026-08-18T07:47:43.006Z</time>
      </trkpt>
      <trkpt lat="45.38114" lon="4.57809">
        <ele>1445.9</ele>
        <time>2026-08-18T07:47:44.006Z</time>
      </trkpt>
      <trkpt lat="45.38113" lon="4.57809">
        <ele>1448.4</ele>
        <time>2026-08-18T07:47:46.006Z</time>
      </trkpt>
      <trkpt lat="45.38112" lon="4.57808">
        <ele>1448.5</ele>
        <time>2026-08-18T07:47:47.006Z</time>
      </trkpt>
      <trkpt lat="45.38111" lon="4.57807">
        <ele>1449.5</ele>
        <time>2026-08-18T07:47:48.006Z</time>
      </trkpt>
      <trkpt lat="45.38109" lon="4.57806">
        <ele>1450.5</ele>
        <time>2026-08-18T07:47:50.006Z</time>
      </trkpt>
      <trkpt lat="45.38107" lon="4.57807">
        <ele>1451.2</ele>
        <time>2026-08-18T07:47:52.005Z</time>
      </trkpt>
      <trkpt lat="45.38105" lon="4.57808">
        <ele>1451.1</ele>
        <time>2026-08-18T07:47:53.006Z</time>
      </trkpt>
      <trkpt lat="45.38104" lon="4.57809">
        <ele>1451.6</ele>
        <time>2026-08-18T07:47:54.006Z</time>
      </trkpt>
      <trkpt lat="45.38102" lon="4.5781">
        <ele>1450.4</ele>
        <time>2026-08-18T07:47:56.005Z</time>
      </trkpt>
      <trkpt lat="45.381" lon="4.57811">
        <ele>1449.4</ele>
        <time>2026-08-18T07:47:57.005Z</time>
      </trkpt>
      <trkpt lat="45.38098" lon="4.57812">
        <ele>1449.8</ele>
        <time>2026-08-18T07:47:59.005Z</time>
      </trkpt>
      <trkpt lat="45.38095" lon="4.57812">
        <ele>1452.1</ele>
        <time>2026-08-18T07:48:01.006Z</time>
      </trkpt>
      <trkpt lat="45.38094" lon="4.57811">
        <ele>1453</ele>
        <time>2026-08-18T07:48:02.006Z</time>
      </trkpt>
      <trkpt lat="45.38093" lon="4.57811">
        <ele>1453.4</ele>
        <time>2026-08-18T07:48:03.006Z</time>
      </trkpt>
      <trkpt lat="45.38092" lon="4.57811">
        <ele>1454.2</ele>
        <time>2026-08-18T07:48:04.006Z</time>
      </trkpt>
      <trkpt lat="45.38091" lon="4.57811">
        <ele>1455.1</ele>
        <time>2026-08-18T07:48:05.006Z</time>
      </trkpt>
      <trkpt lat="45.38089" lon="4.5781">
        <ele>1455.4</ele>
        <time>2026-08-18T07:48:07.006Z</time>
      </trkpt>
      <trkpt lat="45.38088" lon="4.5781">
        <ele>1455.5</ele>
        <time>2026-08-18T07:48:08.006Z</time>
      </trkpt>
      <trkpt lat="45.38087" lon="4.5781">
        <ele>1454</ele>
        <time>2026-08-18T07:48:09.006Z</time>
      </trkpt>
      <trkpt lat="45.38085" lon="4.57809">
        <ele>1454.1</ele>
        <time>2026-08-18T07:48:10.006Z</time>
      </trkpt>
      <trkpt lat="45.38083" lon="4.57809">
        <ele>1456.9</ele>
        <time>2026-08-18T07:48:12.006Z</time>
      </trkpt>
      <trkpt lat="45.38081" lon="4.57809">
        <ele>1457.1</ele>
        <time>2026-08-18T07:48:14.006Z</time>
      </trkpt>
      <trkpt lat="45.38079" lon="4.5781">
        <ele>1456.6</ele>
        <time>2026-08-18T07:48:15.006Z</time>
      </trkpt>
      <trkpt lat="45.38078" lon="4.5781">
        <ele>1454.5</ele>
        <time>2026-08-18T07:48:16.006Z</time>
      </trkpt>
      <trkpt lat="45.38076" lon="4.5781">
        <ele>1455.3</ele>
        <time>2026-08-18T07:48:18.006Z</time>
      </trkpt>
      <trkpt lat="45.38074" lon="4.57811">
        <ele>1451.6</ele>
        <time>2026-08-18T07:48:20.005Z</time>
      </trkpt>
      <trkpt lat="45.38073" lon="4.57811">
        <ele>1452</ele>
        <time>2026-08-18T07:48:21.006Z</time>
      </trkpt>
      <trkpt lat="45.38072" lon="4.57812">
        <ele>1452.2</ele>
        <time>2026-08-18T07:48:22.006Z</time>
      </trkpt>
      <trkpt lat="45.38071" lon="4.57812">
        <ele>1451.3</ele>
        <time>2026-08-18T07:48:23.006Z</time>
      </trkpt>
      <trkpt lat="45.38069" lon="4.57812">
        <ele>1451.5</ele>
        <time>2026-08-18T07:48:25.005Z</time>
      </trkpt>
      <trkpt lat="45.38068" lon="4.57812">
        <ele>1449.6</ele>
        <time>2026-08-18T07:48:26.005Z</time>
      </trkpt>
      <trkpt lat="45.38067" lon="4.57811">
        <ele>1448.9</ele>
        <time>2026-08-18T07:48:27.005Z</time>
      </trkpt>
      <trkpt lat="45.38065" lon="4.57811">
        <ele>1448.4</ele>
        <time>2026-08-18T07:48:28.006Z</time>
      </trkpt>
      <trkpt lat="45.38064" lon="4.57811">
        <ele>1448.7</ele>
        <time>2026-08-18T07:48:29.006Z</time>
      </trkpt>
      <trkpt lat="45.38063" lon="4.57811">
        <ele>1448</ele>
        <time>2026-08-18T07:48:30.006Z</time>
      </trkpt>
      <trkpt lat="45.38061" lon="4.57811">
        <ele>1448.9</ele>
        <time>2026-08-18T07:48:32.006Z</time>
      </trkpt>
      <trkpt lat="45.3806" lon="4.57813">
        <ele>1448.4</ele>
        <time>2026-08-18T07:48:33.911Z</time>
      </trkpt>
      <trkpt lat="45.38059" lon="4.57813">
        <ele>1447.2</ele>
        <time>2026-08-18T07:48:35.006Z</time>
      </trkpt>
      <trkpt lat="45.38057" lon="4.57814">
        <ele>1446.8</ele>
        <time>2026-08-18T07:48:37.006Z</time>
      </trkpt>
      <trkpt lat="45.38056" lon="4.57814">
        <ele>1448</ele>
        <time>2026-08-18T07:48:38.006Z</time>
      </trkpt>
      <trkpt lat="45.38056" lon="4.57815">
        <ele>1446.8</ele>
        <time>2026-08-18T07:48:39.006Z</time>
      </trkpt>
      <trkpt lat="45.38055" lon="4.57816">
        <ele>1446.8</ele>
        <time>2026-08-18T07:48:40.006Z</time>
      </trkpt>
      <trkpt lat="45.38055" lon="4.57817">
        <ele>1446.8</ele>
        <time>2026-08-18T07:48:41.006Z</time>
      </trkpt>
      <trkpt lat="45.38054" lon="4.5782">
        <ele>1448.3</ele>
        <time>2026-08-18T07:48:42.953Z</time>
      </trkpt>
      <trkpt lat="45.38054" lon="4.57821">
        <ele>1452.8</ele>
        <time>2026-08-18T07:48:44.006Z</time>
      </trkpt>
      <trkpt lat="45.38053" lon="4.57823">
        <ele>1452</ele>
        <time>2026-08-18T07:48:45.006Z</time>
      </trkpt>
      <trkpt lat="45.38053" lon="4.57824">
        <ele>1451.3</ele>
        <time>2026-08-18T07:48:46.006Z</time>
      </trkpt>
      <trkpt lat="45.38053" lon="4.57826">
        <ele>1451</ele>
        <time>2026-08-18T07:48:47.006Z</time>
      </trkpt>
      <trkpt lat="45.38053" lon="4.57828">
        <ele>1451</ele>
        <time>2026-08-18T07:48:48.006Z</time>
      </trkpt>
      <trkpt lat="45.38052" lon="4.57829">
        <ele>1447</ele>
        <time>2026-08-18T07:48:49.006Z</time>
      </trkpt>
      <trkpt lat="45.38052" lon="4.5783">
        <ele>1446</ele>
        <time>2026-08-18T07:48:50.006Z</time>
      </trkpt>
      <trkpt lat="45.38051" lon="4.57831">
        <ele>1445</ele>
        <time>2026-08-18T07:48:51.006Z</time>
      </trkpt>
      <trkpt lat="45.3805" lon="4.57832">
        <ele>1443.8</ele>
        <time>2026-08-18T07:48:52.006Z</time>
      </trkpt>
      <trkpt lat="45.38049" lon="4.57833">
        <ele>1444</ele>
        <time>2026-08-18T07:48:53.006Z</time>
      </trkpt>
      <trkpt lat="45.38047" lon="4.57834">
        <ele>1444</ele>
        <time>2026-08-18T07:48:55.005Z</time>
      </trkpt>
      <trkpt lat="45.38046" lon="4.57835">
        <ele>1443.9</ele>
        <time>2026-08-18T07:48:56.006Z</time>
      </trkpt>
      <trkpt lat="45.38045" lon="4.57835">
        <ele>1442.8</ele>
        <time>2026-08-18T07:48:57.006Z</time>
      </trkpt>
      <trkpt lat="45.38044" lon="4.57836">
        <ele>1443</ele>
        <time>2026-08-18T07:48:58.006Z</time>
      </trkpt>
      <trkpt lat="45.38041" lon="4.57836">
        <ele>1444.5</ele>
        <time>2026-08-18T07:49:00.005Z</time>
      </trkpt>
      <trkpt lat="45.3804" lon="4.57837">
        <ele>1444.2</ele>
        <time>2026-08-18T07:49:01.006Z</time>
      </trkpt>
      <trkpt lat="45.38038" lon="4.57837">
        <ele>1444.6</ele>
        <time>2026-08-18T07:49:02.006Z</time>
      </trkpt>
      <trkpt lat="45.38037" lon="4.57838">
        <ele>1444.7</ele>
        <time>2026-08-18T07:49:03.006Z</time>
      </trkpt>
      <trkpt lat="45.38036" lon="4.57838">
        <ele>1444.7</ele>
        <time>2026-08-18T07:49:04.011Z</time>
      </trkpt>
      <trkpt lat="45.38034" lon="4.5784">
        <ele>1442.9</ele>
        <time>2026-08-18T07:49:06.005Z</time>
      </trkpt>
      <trkpt lat="45.38033" lon="4.5784">
        <ele>1442.8</ele>
        <time>2026-08-18T07:49:07.006Z</time>
      </trkpt>
      <trkpt lat="45.38031" lon="4.57841">
        <ele>1443.4</ele>
        <time>2026-08-18T07:49:09.006Z</time>
      </trkpt>
      <trkpt lat="45.3803" lon="4.57841">
        <ele>1444.1</ele>
        <time>2026-08-18T07:49:10.006Z</time>
      </trkpt>
      <trkpt lat="45.38029" lon="4.57843">
        <ele>1443.1</ele>
        <time>2026-08-18T07:49:12.005Z</time>
      </trkpt>
      <trkpt lat="45.38028" lon="4.57843">
        <ele>1444</ele>
        <time>2026-08-18T07:49:13.006Z</time>
      </trkpt>
      <trkpt lat="45.38028" lon="4.57843">
        <ele>1444.4</ele>
        <time>2026-08-18T07:49:14.006Z</time>
      </trkpt>
      <trkpt lat="45.38027" lon="4.57843">
        <ele>1445</ele>
        <time>2026-08-18T07:49:16.006Z</time>
      </trkpt>
      <trkpt lat="45.38026" lon="4.57843">
        <ele>1446.1</ele>
        <time>2026-08-18T07:49:17.006Z</time>
      </trkpt>
      <trkpt lat="45.38026" lon="4.57844">
        <ele>1446.1</ele>
        <time>2026-08-18T07:49:18.013Z</time>
      </trkpt>
      <trkpt lat="45.38025" lon="4.57844">
        <ele>1446.5</ele>
        <time>2026-08-18T07:49:19.916Z</time>
      </trkpt>
      <trkpt lat="45.38025" lon="4.57844">
        <ele>1447.6</ele>
        <time>2026-08-18T07:49:21.005Z</time>
      </trkpt>
      <trkpt lat="45.38024" lon="4.57844">
        <ele>1448.1</ele>
        <time>2026-08-18T07:49:22.006Z</time>
      </trkpt>
      <trkpt lat="45.38023" lon="4.57846">
        <ele>1447.2</ele>
        <time>2026-08-18T07:49:23.996Z</time>
      </trkpt>
      <trkpt lat="45.38022" lon="4.57847">
        <ele>1447.1</ele>
        <time>2026-08-18T07:49:25.006Z</time>
      </trkpt>
      <trkpt lat="45.38021" lon="4.57849">
        <ele>1446.2</ele>
        <time>2026-08-18T07:49:26.971Z</time>
      </trkpt>
      <trkpt lat="45.38021" lon="4.5785">
        <ele>1448.1</ele>
        <time>2026-08-18T07:49:28.006Z</time>
      </trkpt>
      <trkpt lat="45.38021" lon="4.57852">
        <ele>1448.8</ele>
        <time>2026-08-18T07:49:29.006Z</time>
      </trkpt>
      <trkpt lat="45.3802" lon="4.57853">
        <ele>1449.3</ele>
        <time>2026-08-18T07:49:30.006Z</time>
      </trkpt>
      <trkpt lat="45.3802" lon="4.57855">
        <ele>1449.6</ele>
        <time>2026-08-18T07:49:32.005Z</time>
      </trkpt>
      <trkpt lat="45.38019" lon="4.57856">
        <ele>1450.5</ele>
        <time>2026-08-18T07:49:33.005Z</time>
      </trkpt>
      <trkpt lat="45.38019" lon="4.57857">
        <ele>1449.9</ele>
        <time>2026-08-18T07:49:34.006Z</time>
      </trkpt>
      <trkpt lat="45.38018" lon="4.57859">
        <ele>1449.7</ele>
        <time>2026-08-18T07:49:36.006Z</time>
      </trkpt>
      <trkpt lat="45.38018" lon="4.5786">
        <ele>1449.7</ele>
        <time>2026-08-18T07:49:37.011Z</time>
      </trkpt>
      <trkpt lat="45.38017" lon="4.57863">
        <ele>1449.8</ele>
        <time>2026-08-18T07:49:39.006Z</time>
      </trkpt>
      <trkpt lat="45.38016" lon="4.57864">
        <ele>1449.8</ele>
        <time>2026-08-18T07:49:40.015Z</time>
      </trkpt>
      <trkpt lat="45.38016" lon="4.57866">
        <ele>1448.9</ele>
        <time>2026-08-18T07:49:42.005Z</time>
      </trkpt>
      <trkpt lat="45.38016" lon="4.57867">
        <ele>1448.4</ele>
        <time>2026-08-18T07:49:43.005Z</time>
      </trkpt>
      <trkpt lat="45.38015" lon="4.57868">
        <ele>1448.6</ele>
        <time>2026-08-18T07:49:44.005Z</time>
      </trkpt>
      <trkpt lat="45.38015" lon="4.5787">
        <ele>1448.6</ele>
        <time>2026-08-18T07:49:46.006Z</time>
      </trkpt>
      <trkpt lat="45.38014" lon="4.57872">
        <ele>1448.6</ele>
        <time>2026-08-18T07:49:47.915Z</time>
      </trkpt>
      <trkpt lat="45.38013" lon="4.57873">
        <ele>1448.9</ele>
        <time>2026-08-18T07:49:49.006Z</time>
      </trkpt>
      <trkpt lat="45.38012" lon="4.57876">
        <ele>1448.5</ele>
        <time>2026-08-18T07:49:51.005Z</time>
      </trkpt>
      <trkpt lat="45.38012" lon="4.57877">
        <ele>1447.6</ele>
        <time>2026-08-18T07:49:52.011Z</time>
      </trkpt>
      <trkpt lat="45.38013" lon="4.5788">
        <ele>1446.6</ele>
        <time>2026-08-18T07:49:54.004Z</time>
      </trkpt>
      <trkpt lat="45.38013" lon="4.57882">
        <ele>1446.6</ele>
        <time>2026-08-18T07:49:55.006Z</time>
      </trkpt>
      <trkpt lat="45.38013" lon="4.57882">
        <ele>1446.3</ele>
        <time>2026-08-18T07:49:56.006Z</time>
      </trkpt>
      <trkpt lat="45.38013" lon="4.57883">
        <ele>1445</ele>
        <time>2026-08-18T07:49:57.006Z</time>
      </trkpt>
      <trkpt lat="45.38014" lon="4.57884">
        <ele>1443.6</ele>
        <time>2026-08-18T07:49:58.006Z</time>
      </trkpt>
      <trkpt lat="45.38014" lon="4.57886">
        <ele>1443.5</ele>
        <time>2026-08-18T07:49:59.006Z</time>
      </trkpt>
      <trkpt lat="45.38013" lon="4.57888">
        <ele>1443.5</ele>
        <time>2026-08-18T07:50:00.006Z</time>
      </trkpt>
      <trkpt lat="45.38013" lon="4.57889">
        <ele>1443.3</ele>
        <time>2026-08-18T07:50:01.006Z</time>
      </trkpt>
      <trkpt lat="45.38012" lon="4.57891">
        <ele>1444.2</ele>
        <time>2026-08-18T07:50:02.006Z</time>
      </trkpt>
      <trkpt lat="45.38012" lon="4.57891">
        <ele>1443.4</ele>
        <time>2026-08-18T07:50:03.006Z</time>
      </trkpt>
      <trkpt lat="45.38012" lon="4.57894">
        <ele>1444</ele>
        <time>2026-08-18T07:50:04.913Z</time>
      </trkpt>
      <trkpt lat="45.38011" lon="4.57895">
        <ele>1444.5</ele>
        <time>2026-08-18T07:50:06.005Z</time>
      </trkpt>
      <trkpt lat="45.3801" lon="4.57896">
        <ele>1443</ele>
        <time>2026-08-18T07:50:07.006Z</time>
      </trkpt>
      <trkpt lat="45.3801" lon="4.57897">
        <ele>1443.8</ele>
        <time>2026-08-18T07:50:08.006Z</time>
      </trkpt>
      <trkpt lat="45.38009" lon="4.57898">
        <ele>1444.6</ele>
        <time>2026-08-18T07:50:09.006Z</time>
      </trkpt>
      <trkpt lat="45.38008" lon="4.57899">
        <ele>1446.1</ele>
        <time>2026-08-18T07:50:10.006Z</time>
      </trkpt>
      <trkpt lat="45.38006" lon="4.57901">
        <ele>1448.5</ele>
        <time>2026-08-18T07:50:12.005Z</time>
      </trkpt>
      <trkpt lat="45.38005" lon="4.57902">
        <ele>1448.5</ele>
        <time>2026-08-18T07:50:13.014Z</time>
      </trkpt>
      <trkpt lat="45.38004" lon="4.57904">
        <ele>1447.9</ele>
        <time>2026-08-18T07:50:15.006Z</time>
      </trkpt>
      <trkpt lat="45.38003" lon="4.57907">
        <ele>1448.9</ele>
        <time>2026-08-18T07:50:17.005Z</time>
      </trkpt>
      <trkpt lat="45.38003" lon="4.57908">
        <ele>1448</ele>
        <time>2026-08-18T07:50:18.006Z</time>
      </trkpt>
      <trkpt lat="45.38002" lon="4.57909">
        <ele>1448.9</ele>
        <time>2026-08-18T07:50:19.006Z</time>
      </trkpt>
      <trkpt lat="45.38002" lon="4.5791">
        <ele>1449.6</ele>
        <time>2026-08-18T07:50:20.006Z</time>
      </trkpt>
      <trkpt lat="45.38002" lon="4.57911">
        <ele>1450.3</ele>
        <time>2026-08-18T07:50:21.006Z</time>
      </trkpt>
      <trkpt lat="45.38002" lon="4.57913">
        <ele>1451.1</ele>
        <time>2026-08-18T07:50:23.006Z</time>
      </trkpt>
      <trkpt lat="45.38002" lon="4.57915">
        <ele>1451.4</ele>
        <time>2026-08-18T07:50:24.006Z</time>
      </trkpt>
      <trkpt lat="45.38003" lon="4.57918">
        <ele>1452.4</ele>
        <time>2026-08-18T07:50:25.894Z</time>
      </trkpt>
      <trkpt lat="45.38003" lon="4.57919">
        <ele>1452.7</ele>
        <time>2026-08-18T07:50:27.006Z</time>
      </trkpt>
      <trkpt lat="45.38003" lon="4.57921">
        <ele>1452.7</ele>
        <time>2026-08-18T07:50:28.036Z</time>
      </trkpt>
      <trkpt lat="45.38004" lon="4.57922">
        <ele>1450.9</ele>
        <time>2026-08-18T07:50:30.005Z</time>
      </trkpt>
      <trkpt lat="45.38004" lon="4.57922">
        <ele>1450.5</ele>
        <time>2026-08-18T07:50:31.005Z</time>
      </trkpt>
      <trkpt lat="45.38003" lon="4.57924">
        <ele>1450.5</ele>
        <time>2026-08-18T07:50:32.010Z</time>
      </trkpt>
      <trkpt lat="45.38004" lon="4.57926">
        <ele>1451.5</ele>
        <time>2026-08-18T07:50:34.006Z</time>
      </trkpt>
      <trkpt lat="45.38004" lon="4.57926">
        <ele>1452.3</ele>
        <time>2026-08-18T07:50:35.006Z</time>
      </trkpt>
      <trkpt lat="45.38003" lon="4.57927">
        <ele>1451.2</ele>
        <time>2026-08-18T07:50:36.006Z</time>
      </trkpt>
      <trkpt lat="45.38002" lon="4.5793">
        <ele>1451.6</ele>
        <time>2026-08-18T07:50:38.006Z</time>
      </trkpt>
      <trkpt lat="45.38002" lon="4.5793">
        <ele>1452.4</ele>
        <time>2026-08-18T07:50:39.006Z</time>
      </trkpt>
      <trkpt lat="45.38001" lon="4.57932">
        <ele>1452.7</ele>
        <time>2026-08-18T07:50:41.005Z</time>
      </trkpt>
      <trkpt lat="45.37999" lon="4.57933">
        <ele>1450.6</ele>
        <time>2026-08-18T07:50:43.006Z</time>
      </trkpt>
      <trkpt lat="45.37999" lon="4.57934">
        <ele>1448.3</ele>
        <time>2026-08-18T07:50:44.006Z</time>
      </trkpt>
      <trkpt lat="45.37999" lon="4.57936">
        <ele>1449.2</ele>
        <time>2026-08-18T07:50:45.006Z</time>
      </trkpt>
      <trkpt lat="45.37999" lon="4.57937">
        <ele>1450.1</ele>
        <time>2026-08-18T07:50:47.006Z</time>
      </trkpt>
      <trkpt lat="45.37999" lon="4.57939">
        <ele>1450.6</ele>
        <time>2026-08-18T07:50:48.006Z</time>
      </trkpt>
      <trkpt lat="45.37998" lon="4.57941">
        <ele>1450.1</ele>
        <time>2026-08-18T07:50:50.005Z</time>
      </trkpt>
      <trkpt lat="45.37998" lon="4.57942">
        <ele>1450.9</ele>
        <time>2026-08-18T07:50:51.005Z</time>
      </trkpt>
      <trkpt lat="45.37998" lon="4.57943">
        <ele>1451.7</ele>
        <time>2026-08-18T07:50:52.005Z</time>
      </trkpt>
      <trkpt lat="45.37997" lon="4.57944">
        <ele>1452.1</ele>
        <time>2026-08-18T07:50:53.005Z</time>
      </trkpt>
      <trkpt lat="45.37996" lon="4.57944">
        <ele>1452.6</ele>
        <time>2026-08-18T07:50:54.005Z</time>
      </trkpt>
      <trkpt lat="45.37995" lon="4.57944">
        <ele>1453.2</ele>
        <time>2026-08-18T07:50:55.005Z</time>
      </trkpt>
      <trkpt lat="45.37995" lon="4.57945">
        <ele>1452.7</ele>
        <time>2026-08-18T07:50:56.006Z</time>
      </trkpt>
      <trkpt lat="45.37994" lon="4.57946">
        <ele>1453</ele>
        <time>2026-08-18T07:50:58.005Z</time>
      </trkpt>
      <trkpt lat="45.37994" lon="4.57947">
        <ele>1453.4</ele>
        <time>2026-08-18T07:50:59.006Z</time>
      </trkpt>
      <trkpt lat="45.37994" lon="4.57948">
        <ele>1454.2</ele>
        <time>2026-08-18T07:51:01.006Z</time>
      </trkpt>
      <trkpt lat="45.37993" lon="4.57949">
        <ele>1454.1</ele>
        <time>2026-08-18T07:51:02.006Z</time>
      </trkpt>
      <trkpt lat="45.37993" lon="4.57952">
        <ele>1453.1</ele>
        <time>2026-08-18T07:51:04.006Z</time>
      </trkpt>
      <trkpt lat="45.37992" lon="4.57953">
        <ele>1452.8</ele>
        <time>2026-08-18T07:51:05.006Z</time>
      </trkpt>
      <trkpt lat="45.37992" lon="4.57955">
        <ele>1452.1</ele>
        <time>2026-08-18T07:51:06.006Z</time>
      </trkpt>
      <trkpt lat="45.37992" lon="4.57956">
        <ele>1452.7</ele>
        <time>2026-08-18T07:51:07.006Z</time>
      </trkpt>
      <trkpt lat="45.37992" lon="4.57957">
        <ele>1452</ele>
        <time>2026-08-18T07:51:08.006Z</time>
      </trkpt>
      <trkpt lat="45.37993" lon="4.57958">
        <ele>1452.3</ele>
        <time>2026-08-18T07:51:09.006Z</time>
      </trkpt>
      <trkpt lat="45.37993" lon="4.5796">
        <ele>1451.9</ele>
        <time>2026-08-18T07:51:10.989Z</time>
      </trkpt>
      <trkpt lat="45.37993" lon="4.57962">
        <ele>1450.3</ele>
        <time>2026-08-18T07:51:13.005Z</time>
      </trkpt>
      <trkpt lat="45.37993" lon="4.57964">
        <ele>1451.2</ele>
        <time>2026-08-18T07:51:14.849Z</time>
      </trkpt>
      <trkpt lat="45.37995" lon="4.57966">
        <ele>1452.5</ele>
        <time>2026-08-18T07:51:17.005Z</time>
      </trkpt>
      <trkpt lat="45.37996" lon="4.57966">
        <ele>1453.7</ele>
        <time>2026-08-18T07:51:18.006Z</time>
      </trkpt>
      <trkpt lat="45.37996" lon="4.57966">
        <ele>1453.3</ele>
        <time>2026-08-18T07:51:19.006Z</time>
      </trkpt>
      <trkpt lat="45.37997" lon="4.57967">
        <ele>1453.9</ele>
        <time>2026-08-18T07:51:20.006Z</time>
      </trkpt>
      <trkpt lat="45.37997" lon="4.57968">
        <ele>1453.1</ele>
        <time>2026-08-18T07:51:21.006Z</time>
      </trkpt>
      <trkpt lat="45.37997" lon="4.57969">
        <ele>1453.7</ele>
        <time>2026-08-18T07:51:22.006Z</time>
      </trkpt>
      <trkpt lat="45.37998" lon="4.5797">
        <ele>1453.2</ele>
        <time>2026-08-18T07:51:23.006Z</time>
      </trkpt>
      <trkpt lat="45.37998" lon="4.57972">
        <ele>1452.6</ele>
        <time>2026-08-18T07:51:25.006Z</time>
      </trkpt>
      <trkpt lat="45.37998" lon="4.57973">
        <ele>1454.1</ele>
        <time>2026-08-18T07:51:26.006Z</time>
      </trkpt>
      <trkpt lat="45.37998" lon="4.57974">
        <ele>1456.4</ele>
        <time>2026-08-18T07:51:27.006Z</time>
      </trkpt>
      <trkpt lat="45.37998" lon="4.57975">
        <ele>1456.5</ele>
        <time>2026-08-18T07:51:28.006Z</time>
      </trkpt>
      <trkpt lat="45.37999" lon="4.57976">
        <ele>1455.1</ele>
        <time>2026-08-18T07:51:29.006Z</time>
      </trkpt>
      <trkpt lat="45.37999" lon="4.57977">
        <ele>1455.7</ele>
        <time>2026-08-18T07:51:30.006Z</time>
      </trkpt>
      <trkpt lat="45.38" lon="4.57978">
        <ele>1456.2</ele>
        <time>2026-08-18T07:51:32.009Z</time>
      </trkpt>
      <trkpt lat="45.38001" lon="4.57979">
        <ele>1455.6</ele>
        <time>2026-08-18T07:51:34.003Z</time>
      </trkpt>
      <trkpt lat="45.38002" lon="4.5798">
        <ele>1455.7</ele>
        <time>2026-08-18T07:51:35.006Z</time>
      </trkpt>
      <trkpt lat="45.38003" lon="4.57981">
        <ele>1458.5</ele>
        <time>2026-08-18T07:51:37.006Z</time>
      </trkpt>
      <trkpt lat="45.38003" lon="4.57983">
        <ele>1457.4</ele>
        <time>2026-08-18T07:51:39.004Z</time>
      </trkpt>
      <trkpt lat="45.38004" lon="4.57984">
        <ele>1456.6</ele>
        <time>2026-08-18T07:51:40.005Z</time>
      </trkpt>
      <trkpt lat="45.38004" lon="4.57985">
        <ele>1456.4</ele>
        <time>2026-08-18T07:51:41.005Z</time>
      </trkpt>
      <trkpt lat="45.38004" lon="4.57986">
        <ele>1456.6</ele>
        <time>2026-08-18T07:51:42.006Z</time>
      </trkpt>
      <trkpt lat="45.38004" lon="4.57987">
        <ele>1455.1</ele>
        <time>2026-08-18T07:51:44.005Z</time>
      </trkpt>
      <trkpt lat="45.38004" lon="4.57988">
        <ele>1454.8</ele>
        <time>2026-08-18T07:51:45.005Z</time>
      </trkpt>
      <trkpt lat="45.38004" lon="4.5799">
        <ele>1454.9</ele>
        <time>2026-08-18T07:51:46.006Z</time>
      </trkpt>
      <trkpt lat="45.38005" lon="4.57992">
        <ele>1455.6</ele>
        <time>2026-08-18T07:51:47.006Z</time>
      </trkpt>
      <trkpt lat="45.38006" lon="4.57994">
        <ele>1456.3</ele>
        <time>2026-08-18T07:51:49.006Z</time>
      </trkpt>
      <trkpt lat="45.38007" lon="4.57996">
        <ele>1457.5</ele>
        <time>2026-08-18T07:51:50.975Z</time>
      </trkpt>
      <trkpt lat="45.38007" lon="4.57997">
        <ele>1458</ele>
        <time>2026-08-18T07:51:52.006Z</time>
      </trkpt>
      <trkpt lat="45.38006" lon="4.57999">
        <ele>1457.4</ele>
        <time>2026-08-18T07:51:53.006Z</time>
      </trkpt>
      <trkpt lat="45.38006" lon="4.58">
        <ele>1458</ele>
        <time>2026-08-18T07:51:54.006Z</time>
      </trkpt>
      <trkpt lat="45.38007" lon="4.58003">
        <ele>1457.9</ele>
        <time>2026-08-18T07:51:56.005Z</time>
      </trkpt>
      <trkpt lat="45.38008" lon="4.58004">
        <ele>1455.8</ele>
        <time>2026-08-18T07:51:57.005Z</time>
      </trkpt>
      <trkpt lat="45.38008" lon="4.58005">
        <ele>1457.4</ele>
        <time>2026-08-18T07:51:58.006Z</time>
      </trkpt>
      <trkpt lat="45.38009" lon="4.58005">
        <ele>1458</ele>
        <time>2026-08-18T07:51:59.006Z</time>
      </trkpt>
      <trkpt lat="45.38009" lon="4.58006">
        <ele>1458</ele>
        <time>2026-08-18T07:52:00.018Z</time>
      </trkpt>
      <trkpt lat="45.38009" lon="4.58009">
        <ele>1458.3</ele>
        <time>2026-08-18T07:52:02.005Z</time>
      </trkpt>
      <trkpt lat="45.38008" lon="4.58011">
        <ele>1460.2</ele>
        <time>2026-08-18T07:52:03.005Z</time>
      </trkpt>
      <trkpt lat="45.38008" lon="4.58012">
        <ele>1460.7</ele>
        <time>2026-08-18T07:52:04.008Z</time>
      </trkpt>
      <trkpt lat="45.38007" lon="4.58013">
        <ele>1460.6</ele>
        <time>2026-08-18T07:52:06.006Z</time>
      </trkpt>
      <trkpt lat="45.38007" lon="4.58013">
        <ele>1460.7</ele>
        <time>2026-08-18T07:52:08.005Z</time>
      </trkpt>
      <trkpt lat="45.38007" lon="4.58013">
        <ele>1461.4</ele>
        <time>2026-08-18T07:52:09.006Z</time>
      </trkpt>
      <trkpt lat="45.38006" lon="4.58014">
        <ele>1461.5</ele>
        <time>2026-08-18T07:52:11.005Z</time>
      </trkpt>
      <trkpt lat="45.38006" lon="4.58014">
        <ele>1461.5</ele>
        <time>2026-08-18T07:52:12.006Z</time>
      </trkpt>
      <trkpt lat="45.38005" lon="4.58015">
        <ele>1461.9</ele>
        <time>2026-08-18T07:52:14.005Z</time>
      </trkpt>
      <trkpt lat="45.38004" lon="4.58015">
        <ele>1460.8</ele>
        <time>2026-08-18T07:52:15.005Z</time>
      </trkpt>
      <trkpt lat="45.38004" lon="4.58016">
        <ele>1460.9</ele>
        <time>2026-08-18T07:52:16.006Z</time>
      </trkpt>
      <trkpt lat="45.38003" lon="4.58016">
        <ele>1459.8</ele>
        <time>2026-08-18T07:52:17.006Z</time>
      </trkpt>
      <trkpt lat="45.38002" lon="4.58016">
        <ele>1459.4</ele>
        <time>2026-08-18T07:52:19.006Z</time>
      </trkpt>
      <trkpt lat="45.38002" lon="4.58017">
        <ele>1458.1</ele>
        <time>2026-08-18T07:52:21.006Z</time>
      </trkpt>
      <trkpt lat="45.38002" lon="4.58017">
        <ele>1457.8</ele>
        <time>2026-08-18T07:52:22.006Z</time>
      </trkpt>
      <trkpt lat="45.38002" lon="4.58017">
        <ele>1457.9</ele>
        <time>2026-08-18T07:52:23.006Z</time>
      </trkpt>
      <trkpt lat="45.38001" lon="4.58017">
        <ele>1457.2</ele>
        <time>2026-08-18T07:52:24.006Z</time>
      </trkpt>
      <trkpt lat="45.38" lon="4.58016">
        <ele>1457.2</ele>
        <time>2026-08-18T07:52:26.005Z</time>
      </trkpt>
      <trkpt lat="45.37999" lon="4.58016">
        <ele>1457.6</ele>
        <time>2026-08-18T07:52:27.006Z</time>
      </trkpt>
      <trkpt lat="45.37999" lon="4.58016">
        <ele>1457.6</ele>
        <time>2026-08-18T07:52:28.006Z</time>
      </trkpt>
      <trkpt lat="45.37998" lon="4.58016">
        <ele>1457.6</ele>
        <time>2026-08-18T07:52:29.006Z</time>
      </trkpt>
      <trkpt lat="45.37998" lon="4.58016">
        <ele>1458</ele>
        <time>2026-08-18T07:52:31.005Z</time>
      </trkpt>
      <trkpt lat="45.37997" lon="4.58015">
        <ele>1458</ele>
        <time>2026-08-18T07:52:32.005Z</time>
      </trkpt>
      <trkpt lat="45.37997" lon="4.58015">
        <ele>1458.1</ele>
        <time>2026-08-18T07:52:33.006Z</time>
      </trkpt>
      <trkpt lat="45.37996" lon="4.58015">
        <ele>1458.2</ele>
        <time>2026-08-18T07:52:34.909Z</time>
      </trkpt>
      <trkpt lat="45.37995" lon="4.58015">
        <ele>1458</ele>
        <time>2026-08-18T07:52:37.006Z</time>
      </trkpt>
      <trkpt lat="45.37994" lon="4.58016">
        <ele>1457.4</ele>
        <time>2026-08-18T07:52:38.006Z</time>
      </trkpt>
      <trkpt lat="45.37992" lon="4.58018">
        <ele>1457.7</ele>
        <time>2026-08-18T07:52:40.006Z</time>
      </trkpt>
      <trkpt lat="45.37992" lon="4.58019">
        <ele>1458.4</ele>
        <time>2026-08-18T07:52:41.006Z</time>
      </trkpt>
      <trkpt lat="45.37991" lon="4.58022">
        <ele>1458.7</ele>
        <time>2026-08-18T07:52:43.006Z</time>
      </trkpt>
      <trkpt lat="45.37991" lon="4.58025">
        <ele>1460.5</ele>
        <time>2026-08-18T07:52:45.006Z</time>
      </trkpt>
      <trkpt lat="45.3799" lon="4.58026">
        <ele>1461.1</ele>
        <time>2026-08-18T07:52:46.006Z</time>
      </trkpt>
      <trkpt lat="45.37989" lon="4.58027">
        <ele>1461.7</ele>
        <time>2026-08-18T07:52:48.006Z</time>
      </trkpt>
      <trkpt lat="45.37989" lon="4.58028">
        <ele>1461.9</ele>
        <time>2026-08-18T07:52:50.006Z</time>
      </trkpt>
      <trkpt lat="45.37989" lon="4.58028">
        <ele>1462.1</ele>
        <time>2026-08-18T07:52:51.012Z</time>
      </trkpt>
      <trkpt lat="45.37988" lon="4.5803">
        <ele>1462.2</ele>
        <time>2026-08-18T07:52:53.005Z</time>
      </trkpt>
      <trkpt lat="45.37988" lon="4.58031">
        <ele>1462</ele>
        <time>2026-08-18T07:52:54.006Z</time>
      </trkpt>
      <trkpt lat="45.37986" lon="4.58031">
        <ele>1461.6</ele>
        <time>2026-08-18T07:52:56.014Z</time>
      </trkpt>
      <trkpt lat="45.37984" lon="4.58032">
        <ele>1462.8</ele>
        <time>2026-08-18T07:52:58.006Z</time>
      </trkpt>
      <trkpt lat="45.37984" lon="4.58033">
        <ele>1463.4</ele>
        <time>2026-08-18T07:52:59.006Z</time>
      </trkpt>
      <trkpt lat="45.37983" lon="4.58034">
        <ele>1463.8</ele>
        <time>2026-08-18T07:53:00.006Z</time>
      </trkpt>
      <trkpt lat="45.37983" lon="4.58035">
        <ele>1463.4</ele>
        <time>2026-08-18T07:53:01.006Z</time>
      </trkpt>
      <trkpt lat="45.37981" lon="4.58036">
        <ele>1463.8</ele>
        <time>2026-08-18T07:53:03.005Z</time>
      </trkpt>
      <trkpt lat="45.3798" lon="4.58037">
        <ele>1464.4</ele>
        <time>2026-08-18T07:53:04.005Z</time>
      </trkpt>
      <trkpt lat="45.3798" lon="4.58037">
        <ele>1464.2</ele>
        <time>2026-08-18T07:53:05.006Z</time>
      </trkpt>
      <trkpt lat="45.37979" lon="4.58039">
        <ele>1463.8</ele>
        <time>2026-08-18T07:53:06.996Z</time>
      </trkpt>
      <trkpt lat="45.37979" lon="4.5804">
        <ele>1463.5</ele>
        <time>2026-08-18T07:53:08.935Z</time>
      </trkpt>
      <trkpt lat="45.3798" lon="4.5804">
        <ele>1463.3</ele>
        <time>2026-08-18T07:53:10.005Z</time>
      </trkpt>
      <trkpt lat="45.3798" lon="4.5804">
        <ele>1463.1</ele>
        <time>2026-08-18T07:53:11.006Z</time>
      </trkpt>
      <trkpt lat="45.3798" lon="4.58041">
        <ele>1463.7</ele>
        <time>2026-08-18T07:53:12.006Z</time>
      </trkpt>
      <trkpt lat="45.3798" lon="4.58041">
        <ele>1464.1</ele>
        <time>2026-08-18T07:53:13.006Z</time>
      </trkpt>
      <trkpt lat="45.3798" lon="4.58042">
        <ele>1464.2</ele>
        <time>2026-08-18T07:53:14.006Z</time>
      </trkpt>
      <trkpt lat="45.3798" lon="4.58042">
        <ele>1464.4</ele>
        <time>2026-08-18T07:53:15.006Z</time>
      </trkpt>
      <trkpt lat="45.37981" lon="4.58043">
        <ele>1464.3</ele>
        <time>2026-08-18T07:53:17.005Z</time>
      </trkpt>
      <trkpt lat="45.37981" lon="4.58044">
        <ele>1464.1</ele>
        <time>2026-08-18T07:53:18.006Z</time>
      </trkpt>
      <trkpt lat="45.37981" lon="4.58045">
        <ele>1464</ele>
        <time>2026-08-18T07:53:19.006Z</time>
      </trkpt>
      <trkpt lat="45.37981" lon="4.58045">
        <ele>1462.9</ele>
        <time>2026-08-18T07:53:20.006Z</time>
      </trkpt>
      <trkpt lat="45.37981" lon="4.58046">
        <ele>1462.5</ele>
        <time>2026-08-18T07:53:21.015Z</time>
      </trkpt>
      <trkpt lat="45.37981" lon="4.58047">
        <ele>1460.9</ele>
        <time>2026-08-18T07:53:23.004Z</time>
      </trkpt>
      <trkpt lat="45.37981" lon="4.58048">
        <ele>1461.1</ele>
        <time>2026-08-18T07:53:24.006Z</time>
      </trkpt>
      <trkpt lat="45.37981" lon="4.58049">
        <ele>1461.3</ele>
        <time>2026-08-18T07:53:25.008Z</time>
      </trkpt>
      <trkpt lat="45.37982" lon="4.58051">
        <ele>1463.2</ele>
        <time>2026-08-18T07:53:27.005Z</time>
      </trkpt>
      <trkpt lat="45.37982" lon="4.58053">
        <ele>1463.5</ele>
        <time>2026-08-18T07:53:28.005Z</time>
      </trkpt>
      <trkpt lat="45.37982" lon="4.58054">
        <ele>1463.6</ele>
        <time>2026-08-18T07:53:29.005Z</time>
      </trkpt>
      <trkpt lat="45.37982" lon="4.58054">
        <ele>1462</ele>
        <time>2026-08-18T07:53:30.006Z</time>
      </trkpt>
      <trkpt lat="45.37982" lon="4.58055">
        <ele>1462.5</ele>
        <time>2026-08-18T07:53:31.006Z</time>
      </trkpt>
      <trkpt lat="45.37981" lon="4.58056">
        <ele>1463.7</ele>
        <time>2026-08-18T07:53:32.006Z</time>
      </trkpt>
      <trkpt lat="45.37981" lon="4.58057">
        <ele>1463.8</ele>
        <time>2026-08-18T07:53:33.006Z</time>
      </trkpt>
      <trkpt lat="45.3798" lon="4.58057">
        <ele>1465.4</ele>
        <time>2026-08-18T07:53:34.020Z</time>
      </trkpt>
      <trkpt lat="45.3798" lon="4.58057">
        <ele>1465.8</ele>
        <time>2026-08-18T07:53:36.004Z</time>
      </trkpt>
      <trkpt lat="45.37979" lon="4.58057">
        <ele>1466.3</ele>
        <time>2026-08-18T07:53:37.005Z</time>
      </trkpt>
      <trkpt lat="45.37979" lon="4.58057">
        <ele>1465.9</ele>
        <time>2026-08-18T07:53:38.006Z</time>
      </trkpt>
      <trkpt lat="45.37979" lon="4.58057">
        <ele>1467.4</ele>
        <time>2026-08-18T07:53:39.006Z</time>
      </trkpt>
      <trkpt lat="45.37979" lon="4.58057">
        <ele>1466.4</ele>
        <time>2026-08-18T07:53:41.005Z</time>
      </trkpt>
      <trkpt lat="45.37979" lon="4.58058">
        <ele>1466.4</ele>
        <time>2026-08-18T07:53:42.006Z</time>
      </trkpt>
      <trkpt lat="45.37979" lon="4.58059">
        <ele>1466.9</ele>
        <time>2026-08-18T07:53:43.006Z</time>
      </trkpt>
      <trkpt lat="45.37979" lon="4.5806">
        <ele>1468.2</ele>
        <time>2026-08-18T07:53:44.006Z</time>
      </trkpt>
      <trkpt lat="45.37979" lon="4.58062">
        <ele>1468.1</ele>
        <time>2026-08-18T07:53:45.006Z</time>
      </trkpt>
      <trkpt lat="45.37979" lon="4.58063">
        <ele>1468.3</ele>
        <time>2026-08-18T07:53:46.006Z</time>
      </trkpt>
      <trkpt lat="45.37979" lon="4.58063">
        <ele>1467.8</ele>
        <time>2026-08-18T07:53:47.025Z</time>
      </trkpt>
      <trkpt lat="45.3798" lon="4.58065">
        <ele>1466.7</ele>
        <time>2026-08-18T07:53:49.006Z</time>
      </trkpt>
      <trkpt lat="45.3798" lon="4.58067">
        <ele>1467.7</ele>
        <time>2026-08-18T07:53:51.006Z</time>
      </trkpt>
      <trkpt lat="45.3798" lon="4.58068">
        <ele>1468.3</ele>
        <time>2026-08-18T07:53:52.006Z</time>
      </trkpt>
      <trkpt lat="45.37981" lon="4.58069">
        <ele>1468.8</ele>
        <time>2026-08-18T07:53:54.006Z</time>
      </trkpt>
      <trkpt lat="45.37981" lon="4.5807">
        <ele>1467.8</ele>
        <time>2026-08-18T07:53:55.009Z</time>
      </trkpt>
      <trkpt lat="45.37982" lon="4.5807">
        <ele>1468.5</ele>
        <time>2026-08-18T07:53:57.005Z</time>
      </trkpt>
      <trkpt lat="45.37982" lon="4.58071">
        <ele>1468.7</ele>
        <time>2026-08-18T07:53:58.006Z</time>
      </trkpt>
      <trkpt lat="45.37982" lon="4.58072">
        <ele>1469.7</ele>
        <time>2026-08-18T07:53:59.006Z</time>
      </trkpt>
      <trkpt lat="45.37982" lon="4.58073">
        <ele>1469.4</ele>
        <time>2026-08-18T07:54:00.850Z</time>
      </trkpt>
      <trkpt lat="45.37983" lon="4.58074">
        <ele>1469.6</ele>
        <time>2026-08-18T07:54:02.856Z</time>
      </trkpt>
      <trkpt lat="45.37984" lon="4.58074">
        <ele>1469.4</ele>
        <time>2026-08-18T07:54:04.021Z</time>
      </trkpt>
      <trkpt lat="45.37984" lon="4.58076">
        <ele>1469.9</ele>
        <time>2026-08-18T07:54:06.005Z</time>
      </trkpt>
      <trkpt lat="45.37984" lon="4.58078">
        <ele>1470.1</ele>
        <time>2026-08-18T07:54:07.005Z</time>
      </trkpt>
      <trkpt lat="45.37984" lon="4.58079">
        <ele>1470.1</ele>
        <time>2026-08-18T07:54:08.015Z</time>
      </trkpt>
      <trkpt lat="45.37984" lon="4.58081">
        <ele>1471.1</ele>
        <time>2026-08-18T07:54:10.005Z</time>
      </trkpt>
      <trkpt lat="45.37984" lon="4.58082">
        <ele>1471.3</ele>
        <time>2026-08-18T07:54:11.006Z</time>
      </trkpt>
      <trkpt lat="45.37984" lon="4.58083">
        <ele>1471.2</ele>
        <time>2026-08-18T07:54:12.008Z</time>
      </trkpt>
      <trkpt lat="45.37984" lon="4.58085">
        <ele>1471.2</ele>
        <time>2026-08-18T07:54:13.977Z</time>
      </trkpt>
      <trkpt lat="45.37984" lon="4.58086">
        <ele>1471.4</ele>
        <time>2026-08-18T07:54:15.006Z</time>
      </trkpt>
      <trkpt lat="45.37986" lon="4.58088">
        <ele>1472.1</ele>
        <time>2026-08-18T07:54:17.006Z</time>
      </trkpt>
      <trkpt lat="45.37986" lon="4.58088">
        <ele>1472.5</ele>
        <time>2026-08-18T07:54:18.006Z</time>
      </trkpt>
      <trkpt lat="45.37987" lon="4.58089">
        <ele>1472.8</ele>
        <time>2026-08-18T07:54:19.006Z</time>
      </trkpt>
      <trkpt lat="45.37988" lon="4.5809">
        <ele>1473.3</ele>
        <time>2026-08-18T07:54:21.019Z</time>
      </trkpt>
      <trkpt lat="45.37988" lon="4.58091">
        <ele>1473.7</ele>
        <time>2026-08-18T07:54:23.005Z</time>
      </trkpt>
      <trkpt lat="45.37989" lon="4.58092">
        <ele>1473.6</ele>
        <time>2026-08-18T07:54:24.005Z</time>
      </trkpt>
      <trkpt lat="45.37989" lon="4.58094">
        <ele>1474.5</ele>
        <time>2026-08-18T07:54:25.012Z</time>
      </trkpt>
      <trkpt lat="45.37989" lon="4.58095">
        <ele>1474.6</ele>
        <time>2026-08-18T07:54:26.916Z</time>
      </trkpt>
      <trkpt lat="45.37989" lon="4.58096">
        <ele>1475.8</ele>
        <time>2026-08-18T07:54:28.006Z</time>
      </trkpt>
      <trkpt lat="45.37989" lon="4.58097">
        <ele>1476.4</ele>
        <time>2026-08-18T07:54:29.006Z</time>
      </trkpt>
      <trkpt lat="45.37988" lon="4.58099">
        <ele>1476.3</ele>
        <time>2026-08-18T07:54:30.006Z</time>
      </trkpt>
      <trkpt lat="45.37988" lon="4.58101">
        <ele>1477</ele>
        <time>2026-08-18T07:54:32.004Z</time>
      </trkpt>
      <trkpt lat="45.37987" lon="4.58102">
        <ele>1476.8</ele>
        <time>2026-08-18T07:54:33.006Z</time>
      </trkpt>
      <trkpt lat="45.37986" lon="4.58103">
        <ele>1476.9</ele>
        <time>2026-08-18T07:54:35.006Z</time>
      </trkpt>
      <trkpt lat="45.37984" lon="4.58105">
        <ele>1477</ele>
        <time>2026-08-18T07:54:37.006Z</time>
      </trkpt>
      <trkpt lat="45.37984" lon="4.58105">
        <ele>1477.1</ele>
        <time>2026-08-18T07:54:38.015Z</time>
      </trkpt>
      <trkpt lat="45.37982" lon="4.58107">
        <ele>1477.3</ele>
        <time>2026-08-18T07:54:40.005Z</time>
      </trkpt>
      <trkpt lat="45.37982" lon="4.58108">
        <ele>1477.7</ele>
        <time>2026-08-18T07:54:41.006Z</time>
      </trkpt>
      <trkpt lat="45.37982" lon="4.58109">
        <ele>1478</ele>
        <time>2026-08-18T07:54:42.009Z</time>
      </trkpt>
      <trkpt lat="45.37981" lon="4.58111">
        <ele>1478.3</ele>
        <time>2026-08-18T07:54:43.989Z</time>
      </trkpt>
      <trkpt lat="45.37981" lon="4.58112">
        <ele>1478.8</ele>
        <time>2026-08-18T07:54:45.006Z</time>
      </trkpt>
      <trkpt lat="45.37981" lon="4.58113">
        <ele>1479</ele>
        <time>2026-08-18T07:54:46.006Z</time>
      </trkpt>
      <trkpt lat="45.37981" lon="4.58114">
        <ele>1479.5</ele>
        <time>2026-08-18T07:54:47.028Z</time>
      </trkpt>
      <trkpt lat="45.37981" lon="4.58116">
        <ele>1479.8</ele>
        <time>2026-08-18T07:54:49.005Z</time>
      </trkpt>
      <trkpt lat="45.3798" lon="4.58117">
        <ele>1480.1</ele>
        <time>2026-08-18T07:54:50.006Z</time>
      </trkpt>
      <trkpt lat="45.3798" lon="4.58119">
        <ele>1480.1</ele>
        <time>2026-08-18T07:54:52.006Z</time>
      </trkpt>
      <trkpt lat="45.3798" lon="4.5812">
        <ele>1480.6</ele>
        <time>2026-08-18T07:54:53.006Z</time>
      </trkpt>
      <trkpt lat="45.37979" lon="4.58122">
        <ele>1480.7</ele>
        <time>2026-08-18T07:54:55.013Z</time>
      </trkpt>
      <trkpt lat="45.37979" lon="4.58124">
        <ele>1480.9</ele>
        <time>2026-08-18T07:54:57.005Z</time>
      </trkpt>
      <trkpt lat="45.37979" lon="4.58125">
        <ele>1481.1</ele>
        <time>2026-08-18T07:54:58.005Z</time>
      </trkpt>
      <trkpt lat="45.37979" lon="4.58126">
        <ele>1481.3</ele>
        <time>2026-08-18T07:54:59.006Z</time>
      </trkpt>
      <trkpt lat="45.37979" lon="4.58127">
        <ele>1481.2</ele>
        <time>2026-08-18T07:55:00.006Z</time>
      </trkpt>
      <trkpt lat="45.37979" lon="4.58128">
        <ele>1481.6</ele>
        <time>2026-08-18T07:55:01.006Z</time>
      </trkpt>
      <trkpt lat="45.37979" lon="4.5813">
        <ele>1481.8</ele>
        <time>2026-08-18T07:55:03.005Z</time>
      </trkpt>
      <trkpt lat="45.37979" lon="4.58131">
        <ele>1482.6</ele>
        <time>2026-08-18T07:55:04.005Z</time>
      </trkpt>
      <trkpt lat="45.37979" lon="4.58132">
        <ele>1482.2</ele>
        <time>2026-08-18T07:55:05.006Z</time>
      </trkpt>
      <trkpt lat="45.37979" lon="4.58131">
        <ele>1482.3</ele>
        <time>2026-08-18T07:55:06.006Z</time>
      </trkpt>
      <trkpt lat="45.37979" lon="4.58131">
        <ele>1482.2</ele>
        <time>2026-08-18T07:55:08.006Z</time>
      </trkpt>
      <trkpt lat="45.37979" lon="4.58131">
        <ele>1481.9</ele>
        <time>2026-08-18T07:55:09.006Z</time>
      </trkpt>
      <trkpt lat="45.37979" lon="4.58131">
        <ele>1481.6</ele>
        <time>2026-08-18T07:55:10.006Z</time>
      </trkpt>
      <trkpt lat="45.37979" lon="4.58131">
        <ele>1481.3</ele>
        <time>2026-08-18T07:55:12.010Z</time>
      </trkpt>
      <trkpt lat="45.37978" lon="4.58132">
        <ele>1481</ele>
        <time>2026-08-18T07:55:13.914Z</time>
      </trkpt>
      <trkpt lat="45.37977" lon="4.58133">
        <ele>1480.9</ele>
        <time>2026-08-18T07:55:15.005Z</time>
      </trkpt>
      <trkpt lat="45.37976" lon="4.58134">
        <ele>1480.7</ele>
        <time>2026-08-18T07:55:16.005Z</time>
      </trkpt>
      <trkpt lat="45.37975" lon="4.58134">
        <ele>1480.6</ele>
        <time>2026-08-18T07:55:17.005Z</time>
      </trkpt>
      <trkpt lat="45.37974" lon="4.58136">
        <ele>1480.2</ele>
        <time>2026-08-18T07:55:19.005Z</time>
      </trkpt>
      <trkpt lat="45.37973" lon="4.58137">
        <ele>1480.4</ele>
        <time>2026-08-18T07:55:20.006Z</time>
      </trkpt>
      <trkpt lat="45.37972" lon="4.58138">
        <ele>1480.6</ele>
        <time>2026-08-18T07:55:21.937Z</time>
      </trkpt>
      <trkpt lat="45.3797" lon="4.58137">
        <ele>1480.7</ele>
        <time>2026-08-18T07:55:24.005Z</time>
      </trkpt>
      <trkpt lat="45.37969" lon="4.58137">
        <ele>1480.7</ele>
        <time>2026-08-18T07:55:25.005Z</time>
      </trkpt>
      <trkpt lat="45.37968" lon="4.58137">
        <ele>1480.7</ele>
        <time>2026-08-18T07:55:26.005Z</time>
      </trkpt>
      <trkpt lat="45.37968" lon="4.58137">
        <ele>1480.8</ele>
        <time>2026-08-18T07:55:27.011Z</time>
      </trkpt>
      <trkpt lat="45.37966" lon="4.58137">
        <ele>1480.9</ele>
        <time>2026-08-18T07:55:29.082Z</time>
      </trkpt>
      <trkpt lat="45.37965" lon="4.58137">
        <ele>1481.2</ele>
        <time>2026-08-18T07:55:31.023Z</time>
      </trkpt>
      <trkpt lat="45.37963" lon="4.58136">
        <ele>1481.5</ele>
        <time>2026-08-18T07:55:33.006Z</time>
      </trkpt>
      <trkpt lat="45.37962" lon="4.58134">
        <ele>1481.5</ele>
        <time>2026-08-18T07:55:35.014Z</time>
      </trkpt>
      <trkpt lat="45.37961" lon="4.58133">
        <ele>1481.8</ele>
        <time>2026-08-18T07:55:37.006Z</time>
      </trkpt>
      <trkpt lat="45.3796" lon="4.58133">
        <ele>1481.7</ele>
        <time>2026-08-18T07:55:38.006Z</time>
      </trkpt>
      <trkpt lat="45.37959" lon="4.58133">
        <ele>1481.6</ele>
        <time>2026-08-18T07:55:39.008Z</time>
      </trkpt>
      <trkpt lat="45.37958" lon="4.58134">
        <ele>1481.5</ele>
        <time>2026-08-18T07:55:40.034Z</time>
      </trkpt>
      <trkpt lat="45.37957" lon="4.58134">
        <ele>1481.4</ele>
        <time>2026-08-18T07:55:42.006Z</time>
      </trkpt>
      <trkpt lat="45.37956" lon="4.58135">
        <ele>1481.5</ele>
        <time>2026-08-18T07:55:43.006Z</time>
      </trkpt>
      <trkpt lat="45.37955" lon="4.58136">
        <ele>1481.2</ele>
        <time>2026-08-18T07:55:45.073Z</time>
      </trkpt>
      <trkpt lat="45.37954" lon="4.58137">
        <ele>1481.5</ele>
        <time>2026-08-18T07:55:46.079Z</time>
      </trkpt>
      <trkpt lat="45.37953" lon="4.58138">
        <ele>1481.3</ele>
        <time>2026-08-18T07:55:48.020Z</time>
      </trkpt>
      <trkpt lat="45.37951" lon="4.58139">
        <ele>1481.6</ele>
        <time>2026-08-18T07:55:50.005Z</time>
      </trkpt>
      <trkpt lat="45.37951" lon="4.58139">
        <ele>1481.7</ele>
        <time>2026-08-18T07:55:51.005Z</time>
      </trkpt>
      <trkpt lat="45.3795" lon="4.58138">
        <ele>1482</ele>
        <time>2026-08-18T07:55:52.011Z</time>
      </trkpt>
      <trkpt lat="45.37948" lon="4.58136">
        <ele>1482.1</ele>
        <time>2026-08-18T07:55:53.972Z</time>
      </trkpt>
      <trkpt lat="45.37947" lon="4.58135">
        <ele>1482.5</ele>
        <time>2026-08-18T07:55:55.890Z</time>
      </trkpt>
      <trkpt lat="45.37946" lon="4.58133">
        <ele>1482.7</ele>
        <time>2026-08-18T07:55:57.004Z</time>
      </trkpt>
      <trkpt lat="45.37946" lon="4.58133">
        <ele>1483.1</ele>
        <time>2026-08-18T07:55:58.005Z</time>
      </trkpt>
      <trkpt lat="45.37945" lon="4.58132">
        <ele>1483.1</ele>
        <time>2026-08-18T07:55:59.005Z</time>
      </trkpt>
      <trkpt lat="45.37944" lon="4.58132">
        <ele>1483.4</ele>
        <time>2026-08-18T07:56:00.006Z</time>
      </trkpt>
      <trkpt lat="45.37943" lon="4.58132">
        <ele>1483.3</ele>
        <time>2026-08-18T07:56:01.080Z</time>
      </trkpt>
      <trkpt lat="45.37943" lon="4.58132">
        <ele>1483</ele>
        <time>2026-08-18T07:56:03.006Z</time>
      </trkpt>
      <trkpt lat="45.37942" lon="4.5813">
        <ele>1483.5</ele>
        <time>2026-08-18T07:56:04.991Z</time>
      </trkpt>
      <trkpt lat="45.37942" lon="4.58129">
        <ele>1483.5</ele>
        <time>2026-08-18T07:56:06.006Z</time>
      </trkpt>
      <trkpt lat="45.37942" lon="4.58128">
        <ele>1483.4</ele>
        <time>2026-08-18T07:56:07.013Z</time>
      </trkpt>
      <trkpt lat="45.37942" lon="4.58128">
        <ele>1483.4</ele>
        <time>2026-08-18T07:56:09.006Z</time>
      </trkpt>
      <trkpt lat="45.37942" lon="4.58128">
        <ele>1483.4</ele>
        <time>2026-08-18T07:56:10.006Z</time>
      </trkpt>
      <trkpt lat="45.37942" lon="4.58128">
        <ele>1483.4</ele>
        <time>2026-08-18T07:56:12.032Z</time>
      </trkpt>
      <trkpt lat="45.37942" lon="4.58128">
        <ele>1483.4</ele>
        <time>2026-08-18T07:56:14.085Z</time>
      </trkpt>
      <trkpt lat="45.37942" lon="4.58128">
        <ele>1483.4</ele>
        <time>2026-08-18T07:56:16.025Z</time>
      </trkpt>
      <trkpt lat="45.37942" lon="4.58128">
        <ele>1483.4</ele>
        <time>2026-08-18T07:56:18.005Z</time>
      </trkpt>
      <trkpt lat="45.37943" lon="4.58129">
        <ele>1483.5</ele>
        <time>2026-08-18T07:56:19.005Z</time>
      </trkpt>
      <trkpt lat="45.37942" lon="4.58129">
        <ele>1483.5</ele>
        <time>2026-08-18T07:56:20.006Z</time>
      </trkpt>
      <trkpt lat="45.37942" lon="4.58129">
        <ele>1483.4</ele>
        <time>2026-08-18T07:56:21.082Z</time>
      </trkpt>
      <trkpt lat="45.37942" lon="4.58129">
        <ele>1483.4</ele>
        <time>2026-08-18T07:56:23.022Z</time>
      </trkpt>
      <trkpt lat="45.37942" lon="4.5813">
        <ele>1483.1</ele>
        <time>2026-08-18T07:56:25.006Z</time>
      </trkpt>
      <trkpt lat="45.37942" lon="4.5813">
        <ele>1483.2</ele>
        <time>2026-08-18T07:56:26.912Z</time>
      </trkpt>
      <trkpt lat="45.37942" lon="4.5813">
        <ele>1482.6</ele>
        <time>2026-08-18T07:56:28.006Z</time>
      </trkpt>
      <trkpt lat="45.37942" lon="4.5813">
        <ele>1482.6</ele>
        <time>2026-08-18T07:56:29.031Z</time>
      </trkpt>
      <trkpt lat="45.37941" lon="4.58131">
        <ele>1482.3</ele>
        <time>2026-08-18T07:56:30.990Z</time>
      </trkpt>
      <trkpt lat="45.37941" lon="4.58132">
        <ele>1482.1</ele>
        <time>2026-08-18T07:56:32.005Z</time>
      </trkpt>
      <trkpt lat="45.3794" lon="4.58133">
        <ele>1482.1</ele>
        <time>2026-08-18T07:56:33.006Z</time>
      </trkpt>
      <trkpt lat="45.37939" lon="4.58134">
        <ele>1481.6</ele>
        <time>2026-08-18T07:56:35.005Z</time>
      </trkpt>
      <trkpt lat="45.37939" lon="4.58135">
        <ele>1481.8</ele>
        <time>2026-08-18T07:56:36.005Z</time>
      </trkpt>
      <trkpt lat="45.37937" lon="4.58136">
        <ele>1481.7</ele>
        <time>2026-08-18T07:56:37.005Z</time>
      </trkpt>
      <trkpt lat="45.37937" lon="4.58136">
        <ele>1481.8</ele>
        <time>2026-08-18T07:56:38.005Z</time>
      </trkpt>
      <trkpt lat="45.37936" lon="4.58135">
        <ele>1482</ele>
        <time>2026-08-18T07:56:40.005Z</time>
      </trkpt>
      <trkpt lat="45.37935" lon="4.58135">
        <ele>1482.1</ele>
        <time>2026-08-18T07:56:41.006Z</time>
      </trkpt>
      <trkpt lat="45.37935" lon="4.58135">
        <ele>1481.7</ele>
        <time>2026-08-18T07:56:42.006Z</time>
      </trkpt>
      <trkpt lat="45.37933" lon="4.58135">
        <ele>1481.3</ele>
        <time>2026-08-18T07:56:44.010Z</time>
      </trkpt>
      <trkpt lat="45.37932" lon="4.58136">
        <ele>1480.8</ele>
        <time>2026-08-18T07:56:45.915Z</time>
      </trkpt>
      <trkpt lat="45.37932" lon="4.58137">
        <ele>1481</ele>
        <time>2026-08-18T07:56:47.006Z</time>
      </trkpt>
      <trkpt lat="45.37931" lon="4.58137">
        <ele>1481</ele>
        <time>2026-08-18T07:56:48.006Z</time>
      </trkpt>
      <trkpt lat="45.37931" lon="4.58137">
        <ele>1480.1</ele>
        <time>2026-08-18T07:56:50.005Z</time>
      </trkpt>
      <trkpt lat="45.37931" lon="4.58137">
        <ele>1480</ele>
        <time>2026-08-18T07:56:51.005Z</time>
      </trkpt>
      <trkpt lat="45.37931" lon="4.58137">
        <ele>1479.7</ele>
        <time>2026-08-18T07:56:52.006Z</time>
      </trkpt>
      <trkpt lat="45.37931" lon="4.58137">
        <ele>1479.8</ele>
        <time>2026-08-18T07:56:53.022Z</time>
      </trkpt>
      <trkpt lat="45.3793" lon="4.58138">
        <ele>1479.8</ele>
        <time>2026-08-18T07:56:54.993Z</time>
      </trkpt>
      <trkpt lat="45.37929" lon="4.58138">
        <ele>1480.1</ele>
        <time>2026-08-18T07:56:56.005Z</time>
      </trkpt>
      <trkpt lat="45.37928" lon="4.58138">
        <ele>1480.5</ele>
        <time>2026-08-18T07:56:57.015Z</time>
      </trkpt>
      <trkpt lat="45.37927" lon="4.58139">
        <ele>1480.9</ele>
        <time>2026-08-18T07:56:59.005Z</time>
      </trkpt>
      <trkpt lat="45.37927" lon="4.58139">
        <ele>1480.9</ele>
        <time>2026-08-18T07:57:00.006Z</time>
      </trkpt>
      <trkpt lat="45.37927" lon="4.58138">
        <ele>1480.9</ele>
        <time>2026-08-18T07:57:02.005Z</time>
      </trkpt>
      <trkpt lat="45.37927" lon="4.58138">
        <ele>1480.7</ele>
        <time>2026-08-18T07:57:03.006Z</time>
      </trkpt>
      <trkpt lat="45.37927" lon="4.58139">
        <ele>1480.6</ele>
        <time>2026-08-18T07:57:05.006Z</time>
      </trkpt>
      <trkpt lat="45.37927" lon="4.58139">
        <ele>1480.4</ele>
        <time>2026-08-18T07:57:06.006Z</time>
      </trkpt>
      <trkpt lat="45.37927" lon="4.58139">
        <ele>1480.2</ele>
        <time>2026-08-18T07:57:07.006Z</time>
      </trkpt>
      <trkpt lat="45.37927" lon="4.58139">
        <ele>1480.4</ele>
        <time>2026-08-18T07:57:08.081Z</time>
      </trkpt>
      <trkpt lat="45.37926" lon="4.58139">
        <ele>1480.7</ele>
        <time>2026-08-18T07:57:10.005Z</time>
      </trkpt>
      <trkpt lat="45.37926" lon="4.58139">
        <ele>1480.7</ele>
        <time>2026-08-18T07:57:11.005Z</time>
      </trkpt>
      <trkpt lat="45.37926" lon="4.5814">
        <ele>1480.7</ele>
        <time>2026-08-18T07:57:12.005Z</time>
      </trkpt>
      <trkpt lat="45.37926" lon="4.5814">
        <ele>1480.7</ele>
        <time>2026-08-18T07:57:13.006Z</time>
      </trkpt>
      <trkpt lat="45.37926" lon="4.5814">
        <ele>1480.7</ele>
        <time>2026-08-18T07:57:14.089Z</time>
      </trkpt>
      <trkpt lat="45.37926" lon="4.5814">
        <ele>1480.7</ele>
        <time>2026-08-18T07:57:16.006Z</time>
      </trkpt>
      <trkpt lat="45.37926" lon="4.5814">
        <ele>1480.7</ele>
        <time>2026-08-18T07:57:17.016Z</time>
      </trkpt>
      <trkpt lat="45.37925" lon="4.5814">
        <ele>1480.7</ele>
        <time>2026-08-18T07:57:19.006Z</time>
      </trkpt>
      <trkpt lat="45.37925" lon="4.5814">
        <ele>1480.7</ele>
        <time>2026-08-18T07:57:20.096Z</time>
      </trkpt>
      <trkpt lat="45.37925" lon="4.5814">
        <ele>1480.7</ele>
        <time>2026-08-18T07:57:22.006Z</time>
      </trkpt>
      <trkpt lat="45.37925" lon="4.5814">
        <ele>1480.7</ele>
        <time>2026-08-18T07:57:23.006Z</time>
      </trkpt>
      <trkpt lat="45.37925" lon="4.5814">
        <ele>1480.7</ele>
        <time>2026-08-18T07:57:24.006Z</time>
      </trkpt>
      <trkpt lat="45.37925" lon="4.5814">
        <ele>1480.7</ele>
        <time>2026-08-18T07:57:26.006Z</time>
      </trkpt>
      <trkpt lat="45.37925" lon="4.5814">
        <ele>1480.7</ele>
        <time>2026-08-18T07:57:28.025Z</time>
      </trkpt>
      <trkpt lat="45.37925" lon="4.5814">
        <ele>1480.7</ele>
        <time>2026-08-18T07:57:29.071Z</time>
      </trkpt>
      <trkpt lat="45.37925" lon="4.5814">
        <ele>1480.9</ele>
        <time>2026-08-18T07:57:30.096Z</time>
      </trkpt>
      <trkpt lat="45.37925" lon="4.5814">
        <ele>1480.5</ele>
        <time>2026-08-18T07:57:32.006Z</time>
      </trkpt>
      <trkpt lat="45.37924" lon="4.5814">
        <ele>1480.8</ele>
        <time>2026-08-18T07:57:34.005Z</time>
      </trkpt>
      <trkpt lat="45.37924" lon="4.5814">
        <ele>1480.9</ele>
        <time>2026-08-18T07:57:35.005Z</time>
      </trkpt>
      <trkpt lat="45.37923" lon="4.58139">
        <ele>1480.9</ele>
        <time>2026-08-18T07:57:36.028Z</time>
      </trkpt>
      <trkpt lat="45.37923" lon="4.58139">
        <ele>1480.9</ele>
        <time>2026-08-18T07:57:38.006Z</time>
      </trkpt>
      <trkpt lat="45.37923" lon="4.58139">
        <ele>1480.9</ele>
        <time>2026-08-18T07:57:40.021Z</time>
      </trkpt>
      <trkpt lat="45.37923" lon="4.58139">
        <ele>1480.9</ele>
        <time>2026-08-18T07:57:42.005Z</time>
      </trkpt>
      <trkpt lat="45.37923" lon="4.58139">
        <ele>1480.9</ele>
        <time>2026-08-18T07:57:43.064Z</time>
      </trkpt>
      <trkpt lat="45.37923" lon="4.58139">
        <ele>1480.9</ele>
        <time>2026-08-18T07:57:44.071Z</time>
      </trkpt>
      <trkpt lat="45.37923" lon="4.58139">
        <ele>1480.9</ele>
        <time>2026-08-18T07:57:46.011Z</time>
      </trkpt>
      <trkpt lat="45.37923" lon="4.58139">
        <ele>1480.9</ele>
        <time>2026-08-18T07:57:48.006Z</time>
      </trkpt>
      <trkpt lat="45.37923" lon="4.58139">
        <ele>1480.9</ele>
        <time>2026-08-18T07:57:49.071Z</time>
      </trkpt>
      <trkpt lat="45.37923" lon="4.58139">
        <ele>1481</ele>
        <time>2026-08-18T07:57:50.097Z</time>
      </trkpt>
      <trkpt lat="45.37923" lon="4.58139">
        <ele>1481.2</ele>
        <time>2026-08-18T07:57:52.006Z</time>
      </trkpt>
      <trkpt lat="45.37923" lon="4.58139">
        <ele>1481.2</ele>
        <time>2026-08-18T07:57:53.006Z</time>
      </trkpt>
      <trkpt lat="45.37923" lon="4.58139">
        <ele>1481.2</ele>
        <time>2026-08-18T07:57:54.006Z</time>
      </trkpt>
      <trkpt lat="45.37923" lon="4.58139">
        <ele>1481.2</ele>
        <time>2026-08-18T07:57:55.080Z</time>
      </trkpt>
      <trkpt lat="45.37923" lon="4.58139">
        <ele>1481.2</ele>
        <time>2026-08-18T07:57:56.087Z</time>
      </trkpt>
      <trkpt lat="45.37923" lon="4.58139">
        <ele>1481.2</ele>
        <time>2026-08-18T07:57:58.026Z</time>
      </trkpt>
      <trkpt lat="45.37923" lon="4.58139">
        <ele>1481.2</ele>
        <time>2026-08-18T07:58:00.005Z</time>
      </trkpt>
      <trkpt lat="45.37923" lon="4.58139">
        <ele>1481.2</ele>
        <time>2026-08-18T07:58:01.006Z</time>
      </trkpt>
      <trkpt lat="45.37923" lon="4.58139">
        <ele>1481.2</ele>
        <time>2026-08-18T07:58:03.006Z</time>
      </trkpt>
      <trkpt lat="45.37923" lon="4.58139">
        <ele>1481.2</ele>
        <time>2026-08-18T07:58:05.006Z</time>
      </trkpt>
      <trkpt lat="45.37923" lon="4.58139">
        <ele>1481.2</ele>
        <time>2026-08-18T07:58:06.012Z</time>
      </trkpt>
      <trkpt lat="45.37923" lon="4.58139">
        <ele>1481.2</ele>
        <time>2026-08-18T07:58:08.006Z</time>
      </trkpt>
      <trkpt lat="45.37923" lon="4.58138">
        <ele>1481.2</ele>
        <time>2026-08-18T07:58:09.006Z</time>
      </trkpt>
      <trkpt lat="45.37923" lon="4.58138">
        <ele>1481.1</ele>
        <time>2026-08-18T07:58:10.006Z</time>
      </trkpt>
      <trkpt lat="45.37923" lon="4.58138">
        <ele>1481.1</ele>
        <time>2026-08-18T07:58:11.006Z</time>
      </trkpt>
      <trkpt lat="45.37923" lon="4.58138">
        <ele>1481.2</ele>
        <time>2026-08-18T07:58:13.006Z</time>
      </trkpt>
      <trkpt lat="45.37923" lon="4.58138">
        <ele>1481.2</ele>
        <time>2026-08-18T07:58:15.006Z</time>
      </trkpt>
      <trkpt lat="45.37923" lon="4.58138">
        <ele>1481.2</ele>
        <time>2026-08-18T07:58:16.006Z</time>
      </trkpt>
      <trkpt lat="45.37923" lon="4.58138">
        <ele>1481.2</ele>
        <time>2026-08-18T07:58:18.006Z</time>
      </trkpt>
      <trkpt lat="45.37923" lon="4.58138">
        <ele>1481.2</ele>
        <time>2026-08-18T07:58:19.016Z</time>
      </trkpt>
      <trkpt lat="45.37923" lon="4.58138">
        <ele>1481.2</ele>
        <time>2026-08-18T07:58:21.006Z</time>
      </trkpt>
      <trkpt lat="45.37923" lon="4.58138">
        <ele>1481.2</ele>
        <time>2026-08-18T07:58:23.009Z</time>
      </trkpt>
      <trkpt lat="45.37923" lon="4.58138">
        <ele>1481.2</ele>
        <time>2026-08-18T07:58:25.005Z</time>
      </trkpt>
      <trkpt lat="45.37923" lon="4.58138">
        <ele>1481.2</ele>
        <time>2026-08-18T07:58:26.006Z</time>
      </trkpt>
      <trkpt lat="45.37923" lon="4.58138">
        <ele>1481.2</ele>
        <time>2026-08-18T07:58:27.006Z</time>
      </trkpt>
      <trkpt lat="45.37923" lon="4.58138">
        <ele>1481.1</ele>
        <time>2026-08-18T07:58:28.006Z</time>
      </trkpt>
      <trkpt lat="45.37923" lon="4.58138">
        <ele>1481.1</ele>
        <time>2026-08-18T07:58:29.092Z</time>
      </trkpt>
      <trkpt lat="45.37923" lon="4.58138">
        <ele>1481.1</ele>
        <time>2026-08-18T07:58:31.005Z</time>
      </trkpt>
      <trkpt lat="45.37923" lon="4.58138">
        <ele>1481.1</ele>
        <time>2026-08-18T07:58:32.005Z</time>
      </trkpt>
      <trkpt lat="45.37923" lon="4.58138">
        <ele>1481.1</ele>
        <time>2026-08-18T07:58:33.006Z</time>
      </trkpt>
      <trkpt lat="45.37923" lon="4.58138">
        <ele>1481.1</ele>
        <time>2026-08-18T07:58:34.006Z</time>
      </trkpt>
      <trkpt lat="45.37923" lon="4.58138">
        <ele>1481.1</ele>
        <time>2026-08-18T07:58:36.005Z</time>
      </trkpt>
      <trkpt lat="45.37923" lon="4.58138">
        <ele>1481.1</ele>
        <time>2026-08-18T07:58:37.006Z</time>
      </trkpt>
      <trkpt lat="45.37923" lon="4.58138">
        <ele>1481.1</ele>
        <time>2026-08-18T07:58:39.016Z</time>
      </trkpt>
      <trkpt lat="45.37923" lon="4.58138">
        <ele>1481.1</ele>
        <time>2026-08-18T07:58:41.006Z</time>
      </trkpt>
      <trkpt lat="45.37923" lon="4.58138">
        <ele>1481.1</ele>
        <time>2026-08-18T07:58:43.010Z</time>
      </trkpt>
      <trkpt lat="45.37923" lon="4.58138">
        <ele>1481.1</ele>
        <time>2026-08-18T07:58:45.006Z</time>
      </trkpt>
      <trkpt lat="45.37923" lon="4.58138">
        <ele>1481.1</ele>
        <time>2026-08-18T07:58:46.069Z</time>
      </trkpt>
      <trkpt lat="45.37923" lon="4.58138">
        <ele>1481.1</ele>
        <time>2026-08-18T07:58:48.010Z</time>
      </trkpt>
      <trkpt lat="45.37923" lon="4.58138">
        <ele>1481.1</ele>
        <time>2026-08-18T07:58:50.006Z</time>
      </trkpt>
      <trkpt lat="45.37923" lon="4.58138">
        <ele>1481.1</ele>
        <time>2026-08-18T07:58:51.006Z</time>
      </trkpt>
      <trkpt lat="45.37923" lon="4.58138">
        <ele>1481.1</ele>
        <time>2026-08-18T07:58:53.006Z</time>
      </trkpt>
      <trkpt lat="45.37923" lon="4.58138">
        <ele>1481.1</ele>
        <time>2026-08-18T07:58:54.006Z</time>
      </trkpt>
      <trkpt lat="45.37923" lon="4.58138">
        <ele>1481.1</ele>
        <time>2026-08-18T07:58:55.006Z</time>
      </trkpt>
      <trkpt lat="45.37923" lon="4.58138">
        <ele>1481.1</ele>
        <time>2026-08-18T07:58:56.006Z</time>
      </trkpt>
      <trkpt lat="45.37923" lon="4.58138">
        <ele>1481.1</ele>
        <time>2026-08-18T07:58:57.021Z</time>
      </trkpt>
      <trkpt lat="45.37923" lon="4.58138">
        <ele>1481.1</ele>
        <time>2026-08-18T07:58:59.005Z</time>
      </trkpt>
      <trkpt lat="45.37923" lon="4.58138">
        <ele>1481.1</ele>
        <time>2026-08-18T07:59:01.014Z</time>
      </trkpt>
      <trkpt lat="45.37924" lon="4.58138">
        <ele>1481.1</ele>
        <time>2026-08-18T07:59:03.006Z</time>
      </trkpt>
      <trkpt lat="45.37924" lon="4.58138">
        <ele>1481.1</ele>
        <time>2026-08-18T07:59:05.005Z</time>
      </trkpt>
      <trkpt lat="45.37924" lon="4.58138">
        <ele>1481.1</ele>
        <time>2026-08-18T07:59:06.006Z</time>
      </trkpt>
      <trkpt lat="45.37924" lon="4.58138">
        <ele>1481.1</ele>
        <time>2026-08-18T07:59:08.005Z</time>
      </trkpt>
      <trkpt lat="45.37924" lon="4.58138">
        <ele>1480.9</ele>
        <time>2026-08-18T07:59:09.006Z</time>
      </trkpt>
      <trkpt lat="45.37924" lon="4.58139">
        <ele>1480.9</ele>
        <time>2026-08-18T07:59:10.006Z</time>
      </trkpt>
      <trkpt lat="45.37924" lon="4.58139">
        <ele>1481</ele>
        <time>2026-08-18T07:59:12.005Z</time>
      </trkpt>
      <trkpt lat="45.37924" lon="4.58139">
        <ele>1481</ele>
        <time>2026-08-18T07:59:13.006Z</time>
      </trkpt>
      <trkpt lat="45.37924" lon="4.58139">
        <ele>1481</ele>
        <time>2026-08-18T07:59:14.018Z</time>
      </trkpt>
      <trkpt lat="45.37924" lon="4.58139">
        <ele>1481</ele>
        <time>2026-08-18T07:59:16.006Z</time>
      </trkpt>
      <trkpt lat="45.37924" lon="4.58139">
        <ele>1481</ele>
        <time>2026-08-18T07:59:17.006Z</time>
      </trkpt>
      <trkpt lat="45.37924" lon="4.58139">
        <ele>1481</ele>
        <time>2026-08-18T07:59:18.010Z</time>
      </trkpt>
      <trkpt lat="45.37924" lon="4.58139">
        <ele>1481</ele>
        <time>2026-08-18T07:59:20.005Z</time>
      </trkpt>
      <trkpt lat="45.37924" lon="4.58139">
        <ele>1481</ele>
        <time>2026-08-18T07:59:21.005Z</time>
      </trkpt>
      <trkpt lat="45.37924" lon="4.58139">
        <ele>1481</ele>
        <time>2026-08-18T07:59:22.005Z</time>
      </trkpt>
      <trkpt lat="45.37924" lon="4.58139">
        <ele>1481</ele>
        <time>2026-08-18T07:59:23.006Z</time>
      </trkpt>
      <trkpt lat="45.37924" lon="4.58139">
        <ele>1481</ele>
        <time>2026-08-18T07:59:25.006Z</time>
      </trkpt>
      <trkpt lat="45.37924" lon="4.58139">
        <ele>1481</ele>
        <time>2026-08-18T07:59:26.016Z</time>
      </trkpt>
      <trkpt lat="45.37924" lon="4.58139">
        <ele>1481.1</ele>
        <time>2026-08-18T07:59:28.006Z</time>
      </trkpt>
      <trkpt lat="45.37924" lon="4.58139">
        <ele>1481.1</ele>
        <time>2026-08-18T07:59:29.006Z</time>
      </trkpt>
      <trkpt lat="45.37924" lon="4.58139">
        <ele>1481.1</ele>
        <time>2026-08-18T07:59:30.006Z</time>
      </trkpt>
      <trkpt lat="45.37924" lon="4.58139">
        <ele>1481.1</ele>
        <time>2026-08-18T07:59:31.014Z</time>
      </trkpt>
      <trkpt lat="45.37924" lon="4.58139">
        <ele>1481.1</ele>
        <time>2026-08-18T07:59:33.006Z</time>
      </trkpt>
      <trkpt lat="45.37924" lon="4.58139">
        <ele>1481.1</ele>
        <time>2026-08-18T07:59:35.006Z</time>
      </trkpt>
      <trkpt lat="45.37924" lon="4.58139">
        <ele>1481.1</ele>
        <time>2026-08-18T07:59:36.006Z</time>
      </trkpt>
      <trkpt lat="45.37924" lon="4.58139">
        <ele>1481.1</ele>
        <time>2026-08-18T07:59:37.006Z</time>
      </trkpt>
      <trkpt lat="45.37924" lon="4.58139">
        <ele>1481.1</ele>
        <time>2026-08-18T07:59:38.006Z</time>
      </trkpt>
      <trkpt lat="45.37924" lon="4.58139">
        <ele>1481.1</ele>
        <time>2026-08-18T07:59:39.006Z</time>
      </trkpt>
      <trkpt lat="45.37924" lon="4.58139">
        <ele>1481.1</ele>
        <time>2026-08-18T07:59:40.006Z</time>
      </trkpt>
      <trkpt lat="45.37924" lon="4.58139">
        <ele>1481.1</ele>
        <time>2026-08-18T07:59:42.006Z</time>
      </trkpt>
      <trkpt lat="45.37924" lon="4.58139">
        <ele>1481.3</ele>
        <time>2026-08-18T07:59:43.006Z</time>
      </trkpt>
      <trkpt lat="45.37924" lon="4.58139">
        <ele>1481.3</ele>
        <time>2026-08-18T07:59:45.006Z</time>
      </trkpt>
      <trkpt lat="45.37924" lon="4.58139">
        <ele>1481.2</ele>
        <time>2026-08-18T07:59:47.006Z</time>
      </trkpt>
      <trkpt lat="45.37924" lon="4.58139">
        <ele>1481.2</ele>
        <time>2026-08-18T07:59:48.010Z</time>
      </trkpt>
      <trkpt lat="45.37924" lon="4.58139">
        <ele>1481.2</ele>
        <time>2026-08-18T07:59:49.951Z</time>
      </trkpt>
      <trkpt lat="45.37924" lon="4.58139">
        <ele>1481.2</ele>
        <time>2026-08-18T07:59:51.006Z</time>
      </trkpt>
      <trkpt lat="45.37924" lon="4.58139">
        <ele>1481.2</ele>
        <time>2026-08-18T07:59:53.005Z</time>
      </trkpt>
      <trkpt lat="45.37924" lon="4.58139">
        <ele>1481.2</ele>
        <time>2026-08-18T07:59:55.006Z</time>
      </trkpt>
      <trkpt lat="45.37924" lon="4.58139">
        <ele>1481.2</ele>
        <time>2026-08-18T07:59:56.006Z</time>
      </trkpt>
      <trkpt lat="45.37924" lon="4.58139">
        <ele>1481.2</ele>
        <time>2026-08-18T07:59:58.006Z</time>
      </trkpt>
      <trkpt lat="45.37924" lon="4.58139">
        <ele>1481.2</ele>
        <time>2026-08-18T08:00:00.006Z</time>
      </trkpt>
      <trkpt lat="45.37924" lon="4.58139">
        <ele>1481.2</ele>
        <time>2026-08-18T08:00:01.013Z</time>
      </trkpt>
      <trkpt lat="45.37924" lon="4.58139">
        <ele>1481.2</ele>
        <time>2026-08-18T08:00:03.006Z</time>
      </trkpt>
      <trkpt lat="45.37924" lon="4.58139">
        <ele>1481.2</ele>
        <time>2026-08-18T08:00:05.006Z</time>
      </trkpt>
      <trkpt lat="45.37924" lon="4.58139">
        <ele>1481.2</ele>
        <time>2026-08-18T08:00:07.006Z</time>
      </trkpt>
      <trkpt lat="45.37924" lon="4.58139">
        <ele>1481.2</ele>
        <time>2026-08-18T08:00:08.006Z</time>
      </trkpt>
      <trkpt lat="45.37924" lon="4.58139">
        <ele>1481.2</ele>
        <time>2026-08-18T08:00:10.006Z</time>
      </trkpt>
      <trkpt lat="45.37924" lon="4.58139">
        <ele>1481.2</ele>
        <time>2026-08-18T08:00:12.005Z</time>
      </trkpt>
      <trkpt lat="45.37924" lon="4.58139">
        <ele>1481.2</ele>
        <time>2026-08-18T08:00:13.005Z</time>
      </trkpt>
      <trkpt lat="45.37924" lon="4.58139">
        <ele>1481.2</ele>
        <time>2026-08-18T08:00:15.006Z</time>
      </trkpt>
      <trkpt lat="45.37924" lon="4.58139">
        <ele>1481.2</ele>
        <time>2026-08-18T08:00:16.006Z</time>
      </trkpt>
      <trkpt lat="45.37924" lon="4.58139">
        <ele>1481.2</ele>
        <time>2026-08-18T08:00:17.006Z</time>
      </trkpt>
      <trkpt lat="45.37924" lon="4.58139">
        <ele>1481.2</ele>
        <time>2026-08-18T08:00:18.010Z</time>
      </trkpt>
      <trkpt lat="45.37924" lon="4.58139">
        <ele>1481.2</ele>
        <time>2026-08-18T08:00:20.005Z</time>
      </trkpt>
      <trkpt lat="45.37924" lon="4.58139">
        <ele>1481</ele>
        <time>2026-08-18T08:00:21.006Z</time>
      </trkpt>
      <trkpt lat="45.37924" lon="4.58139">
        <ele>1481</ele>
        <time>2026-08-18T08:00:22.006Z</time>
      </trkpt>
      <trkpt lat="45.37924" lon="4.58139">
        <ele>1481</ele>
        <time>2026-08-18T08:00:23.006Z</time>
      </trkpt>
      <trkpt lat="45.37924" lon="4.58139">
        <ele>1481</ele>
        <time>2026-08-18T08:00:25.005Z</time>
      </trkpt>
      <trkpt lat="45.37924" lon="4.58139">
        <ele>1481</ele>
        <time>2026-08-18T08:00:26.006Z</time>
      </trkpt>
      <trkpt lat="45.37924" lon="4.58139">
        <ele>1481</ele>
        <time>2026-08-18T08:00:27.006Z</time>
      </trkpt>
      <trkpt lat="45.37924" lon="4.58139">
        <ele>1481</ele>
        <time>2026-08-18T08:00:29.006Z</time>
      </trkpt>
      <trkpt lat="45.37924" lon="4.58139">
        <ele>1481</ele>
        <time>2026-08-18T08:00:30.006Z</time>
      </trkpt>
      <trkpt lat="45.37924" lon="4.58139">
        <ele>1481.1</ele>
        <time>2026-08-18T08:00:31.013Z</time>
      </trkpt>
      <trkpt lat="45.37924" lon="4.5814">
        <ele>1481.2</ele>
        <time>2026-08-18T08:00:33.006Z</time>
      </trkpt>
      <trkpt lat="45.37924" lon="4.5814">
        <ele>1481.2</ele>
        <time>2026-08-18T08:00:35.007Z</time>
      </trkpt>
      <trkpt lat="45.37924" lon="4.58139">
        <ele>1481.2</ele>
        <time>2026-08-18T08:00:37.006Z</time>
      </trkpt>
      <trkpt lat="45.37924" lon="4.58139">
        <ele>1481.2</ele>
        <time>2026-08-18T08:00:38.006Z</time>
      </trkpt>
      <trkpt lat="45.37924" lon="4.58139">
        <ele>1481.2</ele>
        <time>2026-08-18T08:00:39.006Z</time>
      </trkpt>
      <trkpt lat="45.37924" lon="4.58139">
        <ele>1481.2</ele>
        <time>2026-08-18T08:00:41.006Z</time>
      </trkpt>
      <trkpt lat="45.37924" lon="4.58139">
        <ele>1481.2</ele>
        <time>2026-08-18T08:00:42.006Z</time>
      </trkpt>
      <trkpt lat="45.37924" lon="4.58139">
        <ele>1481.2</ele>
        <time>2026-08-18T08:00:43.006Z</time>
      </trkpt>
      <trkpt lat="45.37924" lon="4.58139">
        <ele>1481.2</ele>
        <time>2026-08-18T08:00:44.006Z</time>
      </trkpt>
      <trkpt lat="45.37924" lon="4.58139">
        <ele>1481.2</ele>
        <time>2026-08-18T08:00:45.006Z</time>
      </trkpt>
      <trkpt lat="45.37924" lon="4.58139">
        <ele>1481.2</ele>
        <time>2026-08-18T08:00:46.006Z</time>
      </trkpt>
      <trkpt lat="45.37924" lon="4.58139">
        <ele>1481.2</ele>
        <time>2026-08-18T08:00:47.006Z</time>
      </trkpt>
      <trkpt lat="45.37924" lon="4.58139">
        <ele>1481.2</ele>
        <time>2026-08-18T08:00:48.010Z</time>
      </trkpt>
      <trkpt lat="45.37923" lon="4.58139">
        <ele>1481.2</ele>
        <time>2026-08-18T08:00:50.006Z</time>
      </trkpt>
      <trkpt lat="45.37923" lon="4.58139">
        <ele>1481.2</ele>
        <time>2026-08-18T08:00:52.006Z</time>
      </trkpt>
      <trkpt lat="45.37923" lon="4.58139">
        <ele>1481.2</ele>
        <time>2026-08-18T08:00:53.006Z</time>
      </trkpt>
      <trkpt lat="45.37923" lon="4.58139">
        <ele>1481.2</ele>
        <time>2026-08-18T08:00:54.006Z</time>
      </trkpt>
      <trkpt lat="45.37923" lon="4.58139">
        <ele>1481.2</ele>
        <time>2026-08-18T08:00:56.005Z</time>
      </trkpt>
      <trkpt lat="45.37923" lon="4.58139">
        <ele>1481.2</ele>
        <time>2026-08-18T08:00:57.005Z</time>
      </trkpt>
      <trkpt lat="45.37923" lon="4.58139">
        <ele>1481.2</ele>
        <time>2026-08-18T08:00:58.006Z</time>
      </trkpt>
      <trkpt lat="45.37923" lon="4.58139">
        <ele>1481.2</ele>
        <time>2026-08-18T08:01:00.006Z</time>
      </trkpt>
      <trkpt lat="45.37923" lon="4.58139">
        <ele>1481.2</ele>
        <time>2026-08-18T08:01:01.006Z</time>
      </trkpt>
      <trkpt lat="45.37923" lon="4.58139">
        <ele>1481.2</ele>
        <time>2026-08-18T08:01:02.006Z</time>
      </trkpt>
      <trkpt lat="45.37924" lon="4.58139">
        <ele>1481.2</ele>
        <time>2026-08-18T08:01:03.006Z</time>
      </trkpt>
      <trkpt lat="45.37923" lon="4.58139">
        <ele>1481.2</ele>
        <time>2026-08-18T08:01:04.006Z</time>
      </trkpt>
      <trkpt lat="45.37924" lon="4.58139">
        <ele>1481.2</ele>
        <time>2026-08-18T08:01:05.007Z</time>
      </trkpt>
      <trkpt lat="45.37923" lon="4.58139">
        <ele>1481.2</ele>
        <time>2026-08-18T08:01:07.005Z</time>
      </trkpt>
      <trkpt lat="45.37923" lon="4.58139">
        <ele>1481.1</ele>
        <time>2026-08-18T08:01:08.006Z</time>
      </trkpt>
      <trkpt lat="45.37923" lon="4.58139">
        <ele>1481.1</ele>
        <time>2026-08-18T08:01:10.005Z</time>
      </trkpt>
      <trkpt lat="45.37923" lon="4.58139">
        <ele>1481.1</ele>
        <time>2026-08-18T08:01:11.005Z</time>
      </trkpt>
      <trkpt lat="45.37923" lon="4.58139">
        <ele>1481.1</ele>
        <time>2026-08-18T08:01:12.005Z</time>
      </trkpt>
      <trkpt lat="45.37923" lon="4.58139">
        <ele>1481.1</ele>
        <time>2026-08-18T08:01:13.006Z</time>
      </trkpt>
      <trkpt lat="45.37923" lon="4.58139">
        <ele>1481.1</ele>
        <time>2026-08-18T08:01:14.006Z</time>
      </trkpt>
      <trkpt lat="45.37923" lon="4.58139">
        <ele>1481.1</ele>
        <time>2026-08-18T08:01:15.006Z</time>
      </trkpt>
      <trkpt lat="45.37923" lon="4.58139">
        <ele>1481.1</ele>
        <time>2026-08-18T08:01:16.006Z</time>
      </trkpt>
      <trkpt lat="45.37923" lon="4.58139">
        <ele>1481.1</ele>
        <time>2026-08-18T08:01:17.006Z</time>
      </trkpt>
      <trkpt lat="45.37923" lon="4.58139">
        <ele>1481.1</ele>
        <time>2026-08-18T08:01:18.011Z</time>
      </trkpt>
      <trkpt lat="45.37923" lon="4.58139">
        <ele>1481.1</ele>
        <time>2026-08-18T08:01:20.005Z</time>
      </trkpt>
      <trkpt lat="45.37923" lon="4.58138">
        <ele>1481.1</ele>
        <time>2026-08-18T08:01:21.006Z</time>
      </trkpt>
      <trkpt lat="45.37923" lon="4.58138">
        <ele>1481.1</ele>
        <time>2026-08-18T08:01:22.006Z</time>
      </trkpt>
      <trkpt lat="45.37923" lon="4.58138">
        <ele>1481.1</ele>
        <time>2026-08-18T08:01:23.006Z</time>
      </trkpt>
      <trkpt lat="45.37923" lon="4.58138">
        <ele>1481.1</ele>
        <time>2026-08-18T08:01:25.005Z</time>
      </trkpt>
      <trkpt lat="45.37923" lon="4.58138">
        <ele>1481.1</ele>
        <time>2026-08-18T08:01:26.005Z</time>
      </trkpt>
      <trkpt lat="45.37923" lon="4.58138">
        <ele>1481.1</ele>
        <time>2026-08-18T08:01:27.006Z</time>
      </trkpt>
      <trkpt lat="45.37923" lon="4.58138">
        <ele>1481.1</ele>
        <time>2026-08-18T08:01:29.005Z</time>
      </trkpt>
      <trkpt lat="45.37923" lon="4.58138">
        <ele>1481.1</ele>
        <time>2026-08-18T08:01:30.006Z</time>
      </trkpt>
      <trkpt lat="45.37923" lon="4.58138">
        <ele>1481</ele>
        <time>2026-08-18T08:01:31.014Z</time>
      </trkpt>
      <trkpt lat="45.37923" lon="4.58138">
        <ele>1481</ele>
        <time>2026-08-18T08:01:33.006Z</time>
      </trkpt>
      <trkpt lat="45.37923" lon="4.58138">
        <ele>1481.1</ele>
        <time>2026-08-18T08:01:35.008Z</time>
      </trkpt>
      <trkpt lat="45.37923" lon="4.58138">
        <ele>1481.1</ele>
        <time>2026-08-18T08:01:37.004Z</time>
      </trkpt>
      <trkpt lat="45.37923" lon="4.58138">
        <ele>1481.1</ele>
        <time>2026-08-18T08:01:38.005Z</time>
      </trkpt>
      <trkpt lat="45.37923" lon="4.58138">
        <ele>1481</ele>
        <time>2026-08-18T08:01:39.005Z</time>
      </trkpt>
      <trkpt lat="45.37923" lon="4.58138">
        <ele>1481</ele>
        <time>2026-08-18T08:01:40.005Z</time>
      </trkpt>
      <trkpt lat="45.37924" lon="4.58138">
        <ele>1481.6</ele>
        <time>2026-08-18T08:01:42.006Z</time>
      </trkpt>
      <trkpt lat="45.37924" lon="4.58138">
        <ele>1481.6</ele>
        <time>2026-08-18T08:01:43.006Z</time>
      </trkpt>
      <trkpt lat="45.37924" lon="4.58138">
        <ele>1481.6</ele>
        <time>2026-08-18T08:01:45.005Z</time>
      </trkpt>
      <trkpt lat="45.37924" lon="4.58139">
        <ele>1481.6</ele>
        <time>2026-08-18T08:01:46.006Z</time>
      </trkpt>
      <trkpt lat="45.37924" lon="4.58139">
        <ele>1481.5</ele>
        <time>2026-08-18T08:01:48.012Z</time>
      </trkpt>
      <trkpt lat="45.37925" lon="4.58139">
        <ele>1482</ele>
        <time>2026-08-18T08:01:50.005Z</time>
      </trkpt>
      <trkpt lat="45.37926" lon="4.58139">
        <ele>1482</ele>
        <time>2026-08-18T08:01:51.006Z</time>
      </trkpt>
      <trkpt lat="45.37926" lon="4.58139">
        <ele>1481.8</ele>
        <time>2026-08-18T08:01:53.006Z</time>
      </trkpt>
      <trkpt lat="45.37927" lon="4.58139">
        <ele>1481.8</ele>
        <time>2026-08-18T08:01:54.006Z</time>
      </trkpt>
      <trkpt lat="45.37928" lon="4.58139">
        <ele>1481.6</ele>
        <time>2026-08-18T08:01:56.006Z</time>
      </trkpt>
      <trkpt lat="45.37928" lon="4.58139">
        <ele>1481.5</ele>
        <time>2026-08-18T08:01:57.910Z</time>
      </trkpt>
      <trkpt lat="45.37929" lon="4.58139">
        <ele>1481</ele>
        <time>2026-08-18T08:01:59.005Z</time>
      </trkpt>
      <trkpt lat="45.37929" lon="4.58138">
        <ele>1480.8</ele>
        <time>2026-08-18T08:02:00.006Z</time>
      </trkpt>
      <trkpt lat="45.3793" lon="4.58137">
        <ele>1480.7</ele>
        <time>2026-08-18T08:02:02.006Z</time>
      </trkpt>
      <trkpt lat="45.37931" lon="4.58136">
        <ele>1480.7</ele>
        <time>2026-08-18T08:02:04.006Z</time>
      </trkpt>
      <trkpt lat="45.37932" lon="4.58135">
        <ele>1480.5</ele>
        <time>2026-08-18T08:02:05.913Z</time>
      </trkpt>
      <trkpt lat="45.37933" lon="4.58135">
        <ele>1480.7</ele>
        <time>2026-08-18T08:02:07.006Z</time>
      </trkpt>
      <trkpt lat="45.37934" lon="4.58136">
        <ele>1480.7</ele>
        <time>2026-08-18T08:02:09.006Z</time>
      </trkpt>
      <trkpt lat="45.37935" lon="4.58135">
        <ele>1480.6</ele>
        <time>2026-08-18T08:02:10.006Z</time>
      </trkpt>
      <trkpt lat="45.37937" lon="4.58135">
        <ele>1481.5</ele>
        <time>2026-08-18T08:02:12.005Z</time>
      </trkpt>
      <trkpt lat="45.37938" lon="4.58136">
        <ele>1481.4</ele>
        <time>2026-08-18T08:02:14.019Z</time>
      </trkpt>
      <trkpt lat="45.37939" lon="4.58138">
        <ele>1481.3</ele>
        <time>2026-08-18T08:02:16.006Z</time>
      </trkpt>
      <trkpt lat="45.3794" lon="4.58139">
        <ele>1481.2</ele>
        <time>2026-08-18T08:02:17.929Z</time>
      </trkpt>
      <trkpt lat="45.37941" lon="4.58139">
        <ele>1481.2</ele>
        <time>2026-08-18T08:02:18.938Z</time>
      </trkpt>
      <trkpt lat="45.37942" lon="4.58139">
        <ele>1480.8</ele>
        <time>2026-08-18T08:02:20.006Z</time>
      </trkpt>
      <trkpt lat="45.37942" lon="4.58139">
        <ele>1480.6</ele>
        <time>2026-08-18T08:02:21.006Z</time>
      </trkpt>
      <trkpt lat="45.37943" lon="4.58139">
        <ele>1480.9</ele>
        <time>2026-08-18T08:02:23.006Z</time>
      </trkpt>
      <trkpt lat="45.37943" lon="4.58138">
        <ele>1481.4</ele>
        <time>2026-08-18T08:02:24.006Z</time>
      </trkpt>
      <trkpt lat="45.37944" lon="4.58138">
        <ele>1481.1</ele>
        <time>2026-08-18T08:02:25.006Z</time>
      </trkpt>
      <trkpt lat="45.37945" lon="4.58138">
        <ele>1480.8</ele>
        <time>2026-08-18T08:02:27.006Z</time>
      </trkpt>
      <trkpt lat="45.37947" lon="4.58139">
        <ele>1481.1</ele>
        <time>2026-08-18T08:02:29.006Z</time>
      </trkpt>
      <trkpt lat="45.37947" lon="4.58138">
        <ele>1481.1</ele>
        <time>2026-08-18T08:02:31.016Z</time>
      </trkpt>
      <trkpt lat="45.37947" lon="4.58138">
        <ele>1481.2</ele>
        <time>2026-08-18T08:02:33.006Z</time>
      </trkpt>
      <trkpt lat="45.37947" lon="4.58138">
        <ele>1481.2</ele>
        <time>2026-08-18T08:02:34.006Z</time>
      </trkpt>
      <trkpt lat="45.37947" lon="4.58138">
        <ele>1481.2</ele>
        <time>2026-08-18T08:02:35.010Z</time>
      </trkpt>
      <trkpt lat="45.37947" lon="4.58138">
        <ele>1481.2</ele>
        <time>2026-08-18T08:02:37.006Z</time>
      </trkpt>
      <trkpt lat="45.37947" lon="4.58138">
        <ele>1481.2</ele>
        <time>2026-08-18T08:02:38.006Z</time>
      </trkpt>
      <trkpt lat="45.37947" lon="4.58138">
        <ele>1481.2</ele>
        <time>2026-08-18T08:02:39.006Z</time>
      </trkpt>
      <trkpt lat="45.37947" lon="4.58138">
        <ele>1481.2</ele>
        <time>2026-08-18T08:02:40.028Z</time>
      </trkpt>
      <trkpt lat="45.37947" lon="4.58138">
        <ele>1481.2</ele>
        <time>2026-08-18T08:02:42.005Z</time>
      </trkpt>
      <trkpt lat="45.37947" lon="4.58138">
        <ele>1481.2</ele>
        <time>2026-08-18T08:02:43.005Z</time>
      </trkpt>
      <trkpt lat="45.37947" lon="4.58138">
        <ele>1481.2</ele>
        <time>2026-08-18T08:02:44.006Z</time>
      </trkpt>
      <trkpt lat="45.37947" lon="4.58138">
        <ele>1481.2</ele>
        <time>2026-08-18T08:02:45.006Z</time>
      </trkpt>
      <trkpt lat="45.37947" lon="4.58138">
        <ele>1481.2</ele>
        <time>2026-08-18T08:02:46.006Z</time>
      </trkpt>
      <trkpt lat="45.37947" lon="4.58138">
        <ele>1481.2</ele>
        <time>2026-08-18T08:02:47.006Z</time>
      </trkpt>
      <trkpt lat="45.37947" lon="4.58138">
        <ele>1481.2</ele>
        <time>2026-08-18T08:02:48.014Z</time>
      </trkpt>
      <trkpt lat="45.37947" lon="4.58138">
        <ele>1481.2</ele>
        <time>2026-08-18T08:02:50.068Z</time>
      </trkpt>
      <trkpt lat="45.37947" lon="4.58138">
        <ele>1481.6</ele>
        <time>2026-08-18T08:02:52.006Z</time>
      </trkpt>
      <trkpt lat="45.37947" lon="4.58138">
        <ele>1481.6</ele>
        <time>2026-08-18T08:02:53.006Z</time>
      </trkpt>
      <trkpt lat="45.37947" lon="4.58138">
        <ele>1481.7</ele>
        <time>2026-08-18T08:02:54.006Z</time>
      </trkpt>
      <trkpt lat="45.37947" lon="4.58137">
        <ele>1481.7</ele>
        <time>2026-08-18T08:02:55.006Z</time>
      </trkpt>
      <trkpt lat="45.37947" lon="4.58137">
        <ele>1481.7</ele>
        <time>2026-08-18T08:02:57.006Z</time>
      </trkpt>
      <trkpt lat="45.37947" lon="4.58137">
        <ele>1481.7</ele>
        <time>2026-08-18T08:02:58.006Z</time>
      </trkpt>
      <trkpt lat="45.37947" lon="4.58137">
        <ele>1481.7</ele>
        <time>2026-08-18T08:02:59.006Z</time>
      </trkpt>
      <trkpt lat="45.37947" lon="4.58137">
        <ele>1481.7</ele>
        <time>2026-08-18T08:03:01.019Z</time>
      </trkpt>
      <trkpt lat="45.37947" lon="4.58137">
        <ele>1481.7</ele>
        <time>2026-08-18T08:03:03.006Z</time>
      </trkpt>
      <trkpt lat="45.37947" lon="4.58137">
        <ele>1481.7</ele>
        <time>2026-08-18T08:03:04.006Z</time>
      </trkpt>
      <trkpt lat="45.37947" lon="4.58137">
        <ele>1481.6</ele>
        <time>2026-08-18T08:03:05.010Z</time>
      </trkpt>
      <trkpt lat="45.37947" lon="4.58137">
        <ele>1481.4</ele>
        <time>2026-08-18T08:03:07.005Z</time>
      </trkpt>
      <trkpt lat="45.37947" lon="4.58137">
        <ele>1481.2</ele>
        <time>2026-08-18T08:03:08.005Z</time>
      </trkpt>
      <trkpt lat="45.37947" lon="4.58137">
        <ele>1481.2</ele>
        <time>2026-08-18T08:03:09.006Z</time>
      </trkpt>
      <trkpt lat="45.37947" lon="4.58137">
        <ele>1481.2</ele>
        <time>2026-08-18T08:03:11.006Z</time>
      </trkpt>
      <trkpt lat="45.37947" lon="4.58138">
        <ele>1481.2</ele>
        <time>2026-08-18T08:03:12.006Z</time>
      </trkpt>
      <trkpt lat="45.37947" lon="4.58138">
        <ele>1481.2</ele>
        <time>2026-08-18T08:03:13.006Z</time>
      </trkpt>
      <trkpt lat="45.37947" lon="4.58138">
        <ele>1481.2</ele>
        <time>2026-08-18T08:03:14.023Z</time>
      </trkpt>
      <trkpt lat="45.37947" lon="4.58138">
        <ele>1481.2</ele>
        <time>2026-08-18T08:03:16.005Z</time>
      </trkpt>
      <trkpt lat="45.37947" lon="4.58138">
        <ele>1481.2</ele>
        <time>2026-08-18T08:03:17.006Z</time>
      </trkpt>
      <trkpt lat="45.37947" lon="4.58138">
        <ele>1481.2</ele>
        <time>2026-08-18T08:03:19.006Z</time>
      </trkpt>
      <trkpt lat="45.37947" lon="4.58138">
        <ele>1481.2</ele>
        <time>2026-08-18T08:03:20.006Z</time>
      </trkpt>
      <trkpt lat="45.37947" lon="4.58138">
        <ele>1481.2</ele>
        <time>2026-08-18T08:03:22.007Z</time>
      </trkpt>
      <trkpt lat="45.37947" lon="4.58138">
        <ele>1481.2</ele>
        <time>2026-08-18T08:03:24.005Z</time>
      </trkpt>
      <trkpt lat="45.37947" lon="4.58138">
        <ele>1481.2</ele>
        <time>2026-08-18T08:03:25.005Z</time>
      </trkpt>
      <trkpt lat="45.37947" lon="4.58138">
        <ele>1481.2</ele>
        <time>2026-08-18T08:03:26.005Z</time>
      </trkpt>
      <trkpt lat="45.37947" lon="4.58138">
        <ele>1481.3</ele>
        <time>2026-08-18T08:03:27.005Z</time>
      </trkpt>
      <trkpt lat="45.37948" lon="4.58137">
        <ele>1481.4</ele>
        <time>2026-08-18T08:03:29.006Z</time>
      </trkpt>
      <trkpt lat="45.37948" lon="4.58137">
        <ele>1481.5</ele>
        <time>2026-08-18T08:03:30.006Z</time>
      </trkpt>
      <trkpt lat="45.37948" lon="4.58137">
        <ele>1481.5</ele>
        <time>2026-08-18T08:03:31.020Z</time>
      </trkpt>
      <trkpt lat="45.37948" lon="4.58137">
        <ele>1481.5</ele>
        <time>2026-08-18T08:03:33.006Z</time>
      </trkpt>
      <trkpt lat="45.37948" lon="4.58137">
        <ele>1481.5</ele>
        <time>2026-08-18T08:03:35.012Z</time>
      </trkpt>
      <trkpt lat="45.37948" lon="4.58137">
        <ele>1481.4</ele>
        <time>2026-08-18T08:03:37.004Z</time>
      </trkpt>
      <trkpt lat="45.37948" lon="4.58137">
        <ele>1481.4</ele>
        <time>2026-08-18T08:03:38.006Z</time>
      </trkpt>
      <trkpt lat="45.37948" lon="4.58137">
        <ele>1481.4</ele>
        <time>2026-08-18T08:03:40.005Z</time>
      </trkpt>
      <trkpt lat="45.37948" lon="4.58137">
        <ele>1481.4</ele>
        <time>2026-08-18T08:03:41.005Z</time>
      </trkpt>
      <trkpt lat="45.37948" lon="4.58137">
        <ele>1481.4</ele>
        <time>2026-08-18T08:03:43.006Z</time>
      </trkpt>
      <trkpt lat="45.37948" lon="4.58137">
        <ele>1481.4</ele>
        <time>2026-08-18T08:03:44.006Z</time>
      </trkpt>
      <trkpt lat="45.37948" lon="4.58137">
        <ele>1481.4</ele>
        <time>2026-08-18T08:03:45.964Z</time>
      </trkpt>
      <trkpt lat="45.37948" lon="4.58137">
        <ele>1481.4</ele>
        <time>2026-08-18T08:03:47.005Z</time>
      </trkpt>
      <trkpt lat="45.37948" lon="4.58137">
        <ele>1481.4</ele>
        <time>2026-08-18T08:03:48.006Z</time>
      </trkpt>
      <trkpt lat="45.37948" lon="4.58137">
        <ele>1481.7</ele>
        <time>2026-08-18T08:03:50.006Z</time>
      </trkpt>
      <trkpt lat="45.37949" lon="4.58137">
        <ele>1482.1</ele>
        <time>2026-08-18T08:03:52.010Z</time>
      </trkpt>
      <trkpt lat="45.37951" lon="4.58136">
        <ele>1481.9</ele>
        <time>2026-08-18T08:03:54.005Z</time>
      </trkpt>
      <trkpt lat="45.37952" lon="4.58136">
        <ele>1481.7</ele>
        <time>2026-08-18T08:03:55.006Z</time>
      </trkpt>
      <trkpt lat="45.37954" lon="4.58135">
        <ele>1481.8</ele>
        <time>2026-08-18T08:03:57.005Z</time>
      </trkpt>
      <trkpt lat="45.37955" lon="4.58134">
        <ele>1481.8</ele>
        <time>2026-08-18T08:03:58.006Z</time>
      </trkpt>
      <trkpt lat="45.37957" lon="4.58133">
        <ele>1481.4</ele>
        <time>2026-08-18T08:04:00.006Z</time>
      </trkpt>
      <trkpt lat="45.37958" lon="4.58132">
        <ele>1480.9</ele>
        <time>2026-08-18T08:04:01.021Z</time>
      </trkpt>
      <trkpt lat="45.37959" lon="4.58131">
        <ele>1480.9</ele>
        <time>2026-08-18T08:04:03.010Z</time>
      </trkpt>
      <trkpt lat="45.3796" lon="4.58132">
        <ele>1480.8</ele>
        <time>2026-08-18T08:04:05.006Z</time>
      </trkpt>
      <trkpt lat="45.37961" lon="4.58132">
        <ele>1480.9</ele>
        <time>2026-08-18T08:04:06.006Z</time>
      </trkpt>
      <trkpt lat="45.37963" lon="4.58132">
        <ele>1480.5</ele>
        <time>2026-08-18T08:04:08.004Z</time>
      </trkpt>
      <trkpt lat="45.37963" lon="4.58132">
        <ele>1480.6</ele>
        <time>2026-08-18T08:04:09.007Z</time>
      </trkpt>
      <trkpt lat="45.37965" lon="4.58133">
        <ele>1480.8</ele>
        <time>2026-08-18T08:04:11.006Z</time>
      </trkpt>
      <trkpt lat="45.37966" lon="4.58134">
        <ele>1480.4</ele>
        <time>2026-08-18T08:04:13.006Z</time>
      </trkpt>
      <trkpt lat="45.37967" lon="4.58135">
        <ele>1480.2</ele>
        <time>2026-08-18T08:04:15.006Z</time>
      </trkpt>
      <trkpt lat="45.37968" lon="4.58135">
        <ele>1480.1</ele>
        <time>2026-08-18T08:04:16.006Z</time>
      </trkpt>
      <trkpt lat="45.37969" lon="4.58135">
        <ele>1480</ele>
        <time>2026-08-18T08:04:17.006Z</time>
      </trkpt>
      <trkpt lat="45.3797" lon="4.58136">
        <ele>1479.7</ele>
        <time>2026-08-18T08:04:18.933Z</time>
      </trkpt>
      <trkpt lat="45.37971" lon="4.58136">
        <ele>1478.6</ele>
        <time>2026-08-18T08:04:20.006Z</time>
      </trkpt>
      <trkpt lat="45.37973" lon="4.58137">
        <ele>1478</ele>
        <time>2026-08-18T08:04:22.010Z</time>
      </trkpt>
      <trkpt lat="45.37975" lon="4.58137">
        <ele>1478.4</ele>
        <time>2026-08-18T08:04:24.005Z</time>
      </trkpt>
      <trkpt lat="45.37976" lon="4.58136">
        <ele>1478.3</ele>
        <time>2026-08-18T08:04:25.005Z</time>
      </trkpt>
      <trkpt lat="45.37977" lon="4.58136">
        <ele>1479</ele>
        <time>2026-08-18T08:04:26.005Z</time>
      </trkpt>
      <trkpt lat="45.37977" lon="4.58135">
        <ele>1478.9</ele>
        <time>2026-08-18T08:04:27.006Z</time>
      </trkpt>
      <trkpt lat="45.37978" lon="4.58135">
        <ele>1479.3</ele>
        <time>2026-08-18T08:04:28.006Z</time>
      </trkpt>
      <trkpt lat="45.37979" lon="4.58135">
        <ele>1479</ele>
        <time>2026-08-18T08:04:29.006Z</time>
      </trkpt>
      <trkpt lat="45.37979" lon="4.58135">
        <ele>1479</ele>
        <time>2026-08-18T08:04:30.006Z</time>
      </trkpt>
      <trkpt lat="45.37981" lon="4.58135">
        <ele>1479</ele>
        <time>2026-08-18T08:04:31.996Z</time>
      </trkpt>
      <trkpt lat="45.37982" lon="4.58134">
        <ele>1479</ele>
        <time>2026-08-18T08:04:33.005Z</time>
      </trkpt>
      <trkpt lat="45.37983" lon="4.58133">
        <ele>1479.1</ele>
        <time>2026-08-18T08:04:34.006Z</time>
      </trkpt>
      <trkpt lat="45.37983" lon="4.58132">
        <ele>1479.1</ele>
        <time>2026-08-18T08:04:35.016Z</time>
      </trkpt>
      <trkpt lat="45.37985" lon="4.5813">
        <ele>1479.3</ele>
        <time>2026-08-18T08:04:37.006Z</time>
      </trkpt>
      <trkpt lat="45.37986" lon="4.58129">
        <ele>1479.4</ele>
        <time>2026-08-18T08:04:39.048Z</time>
      </trkpt>
      <trkpt lat="45.37986" lon="4.58128">
        <ele>1479.8</ele>
        <time>2026-08-18T08:04:41.006Z</time>
      </trkpt>
      <trkpt lat="45.37988" lon="4.58127">
        <ele>1479.9</ele>
        <time>2026-08-18T08:04:43.006Z</time>
      </trkpt>
      <trkpt lat="45.37988" lon="4.58127">
        <ele>1479.9</ele>
        <time>2026-08-18T08:04:44.006Z</time>
      </trkpt>
      <trkpt lat="45.3799" lon="4.58126">
        <ele>1479.6</ele>
        <time>2026-08-18T08:04:45.912Z</time>
      </trkpt>
      <trkpt lat="45.37991" lon="4.58126">
        <ele>1479.4</ele>
        <time>2026-08-18T08:04:47.006Z</time>
      </trkpt>
      <trkpt lat="45.37991" lon="4.58125">
        <ele>1479.2</ele>
        <time>2026-08-18T08:04:48.021Z</time>
      </trkpt>
      <trkpt lat="45.37993" lon="4.58124">
        <ele>1479</ele>
        <time>2026-08-18T08:04:50.006Z</time>
      </trkpt>
      <trkpt lat="45.37993" lon="4.58124">
        <ele>1478.8</ele>
        <time>2026-08-18T08:04:51.006Z</time>
      </trkpt>
      <trkpt lat="45.37994" lon="4.58123">
        <ele>1478.7</ele>
        <time>2026-08-18T08:04:52.006Z</time>
      </trkpt>
      <trkpt lat="45.37995" lon="4.58123">
        <ele>1478.5</ele>
        <time>2026-08-18T08:04:54.005Z</time>
      </trkpt>
      <trkpt lat="45.37996" lon="4.58123">
        <ele>1478.5</ele>
        <time>2026-08-18T08:04:55.006Z</time>
      </trkpt>
      <trkpt lat="45.37997" lon="4.58123">
        <ele>1478.4</ele>
        <time>2026-08-18T08:04:56.006Z</time>
      </trkpt>
      <trkpt lat="45.37998" lon="4.58122">
        <ele>1478.3</ele>
        <time>2026-08-18T08:04:57.006Z</time>
      </trkpt>
      <trkpt lat="45.38" lon="4.58122">
        <ele>1478.1</ele>
        <time>2026-08-18T08:04:59.006Z</time>
      </trkpt>
      <trkpt lat="45.38001" lon="4.58122">
        <ele>1477.8</ele>
        <time>2026-08-18T08:05:00.006Z</time>
      </trkpt>
      <trkpt lat="45.38002" lon="4.58122">
        <ele>1477.9</ele>
        <time>2026-08-18T08:05:01.006Z</time>
      </trkpt>
      <trkpt lat="45.38004" lon="4.58122">
        <ele>1478</ele>
        <time>2026-08-18T08:05:03.004Z</time>
      </trkpt>
      <trkpt lat="45.38004" lon="4.58121">
        <ele>1477.8</ele>
        <time>2026-08-18T08:05:04.005Z</time>
      </trkpt>
      <trkpt lat="45.38005" lon="4.58121">
        <ele>1477.8</ele>
        <time>2026-08-18T08:05:05.018Z</time>
      </trkpt>
      <trkpt lat="45.38007" lon="4.58121">
        <ele>1477.8</ele>
        <time>2026-08-18T08:05:07.004Z</time>
      </trkpt>
      <trkpt lat="45.38008" lon="4.5812">
        <ele>1477.9</ele>
        <time>2026-08-18T08:05:08.006Z</time>
      </trkpt>
      <trkpt lat="45.38009" lon="4.58119">
        <ele>1477.7</ele>
        <time>2026-08-18T08:05:09.011Z</time>
      </trkpt>
      <trkpt lat="45.3801" lon="4.58118">
        <ele>1478.1</ele>
        <time>2026-08-18T08:05:11.006Z</time>
      </trkpt>
      <trkpt lat="45.38011" lon="4.58116">
        <ele>1478.2</ele>
        <time>2026-08-18T08:05:13.006Z</time>
      </trkpt>
      <trkpt lat="45.38011" lon="4.58115">
        <ele>1478.4</ele>
        <time>2026-08-18T08:05:14.006Z</time>
      </trkpt>
      <trkpt lat="45.38011" lon="4.58114">
        <ele>1478.5</ele>
        <time>2026-08-18T08:05:15.006Z</time>
      </trkpt>
      <trkpt lat="45.38011" lon="4.58113">
        <ele>1478.5</ele>
        <time>2026-08-18T08:05:17.006Z</time>
      </trkpt>
      <trkpt lat="45.38012" lon="4.58112">
        <ele>1478.4</ele>
        <time>2026-08-18T08:05:18.006Z</time>
      </trkpt>
      <trkpt lat="45.38013" lon="4.58112">
        <ele>1478.2</ele>
        <time>2026-08-18T08:05:19.006Z</time>
      </trkpt>
      <trkpt lat="45.38014" lon="4.58113">
        <ele>1478.3</ele>
        <time>2026-08-18T08:05:21.006Z</time>
      </trkpt>
      <trkpt lat="45.38015" lon="4.58114">
        <ele>1478.3</ele>
        <time>2026-08-18T08:05:22.016Z</time>
      </trkpt>
      <trkpt lat="45.38016" lon="4.58114">
        <ele>1478.7</ele>
        <time>2026-08-18T08:05:24.006Z</time>
      </trkpt>
      <trkpt lat="45.38017" lon="4.58114">
        <ele>1478.9</ele>
        <time>2026-08-18T08:05:25.006Z</time>
      </trkpt>
      <trkpt lat="45.38017" lon="4.58114">
        <ele>1478.9</ele>
        <time>2026-08-18T08:05:26.009Z</time>
      </trkpt>
      <trkpt lat="45.38017" lon="4.58114">
        <ele>1479.1</ele>
        <time>2026-08-18T08:05:28.004Z</time>
      </trkpt>
      <trkpt lat="45.38017" lon="4.58114">
        <ele>1478.9</ele>
        <time>2026-08-18T08:05:29.005Z</time>
      </trkpt>
      <trkpt lat="45.38017" lon="4.58114">
        <ele>1478.9</ele>
        <time>2026-08-18T08:05:30.005Z</time>
      </trkpt>
      <trkpt lat="45.38019" lon="4.58115">
        <ele>1478.8</ele>
        <time>2026-08-18T08:05:32.006Z</time>
      </trkpt>
      <trkpt lat="45.38021" lon="4.58114">
        <ele>1479</ele>
        <time>2026-08-18T08:05:34.006Z</time>
      </trkpt>
      <trkpt lat="45.38023" lon="4.58113">
        <ele>1479.4</ele>
        <time>2026-08-18T08:05:36.006Z</time>
      </trkpt>
      <trkpt lat="45.38024" lon="4.58112">
        <ele>1479.9</ele>
        <time>2026-08-18T08:05:38.006Z</time>
      </trkpt>
      <trkpt lat="45.38026" lon="4.58111">
        <ele>1479.9</ele>
        <time>2026-08-18T08:05:40.006Z</time>
      </trkpt>
      <trkpt lat="45.38026" lon="4.5811">
        <ele>1479.5</ele>
        <time>2026-08-18T08:05:41.006Z</time>
      </trkpt>
      <trkpt lat="45.38027" lon="4.5811">
        <ele>1479.8</ele>
        <time>2026-08-18T08:05:42.006Z</time>
      </trkpt>
      <trkpt lat="45.38028" lon="4.58109">
        <ele>1480.3</ele>
        <time>2026-08-18T08:05:44.006Z</time>
      </trkpt>
      <trkpt lat="45.38029" lon="4.58108">
        <ele>1480.3</ele>
        <time>2026-08-18T08:05:45.006Z</time>
      </trkpt>
      <trkpt lat="45.38029" lon="4.58107">
        <ele>1480.5</ele>
        <time>2026-08-18T08:05:46.006Z</time>
      </trkpt>
      <trkpt lat="45.3803" lon="4.58106">
        <ele>1480.5</ele>
        <time>2026-08-18T08:05:47.031Z</time>
      </trkpt>
      <trkpt lat="45.38031" lon="4.58104">
        <ele>1480.4</ele>
        <time>2026-08-18T08:05:49.005Z</time>
      </trkpt>
      <trkpt lat="45.38032" lon="4.58102">
        <ele>1480.8</ele>
        <time>2026-08-18T08:05:51.006Z</time>
      </trkpt>
      <trkpt lat="45.38033" lon="4.58102">
        <ele>1480.6</ele>
        <time>2026-08-18T08:05:52.006Z</time>
      </trkpt>
      <trkpt lat="45.38035" lon="4.58101">
        <ele>1480.8</ele>
        <time>2026-08-18T08:05:53.951Z</time>
      </trkpt>
      <trkpt lat="45.38036" lon="4.581">
        <ele>1480.9</ele>
        <time>2026-08-18T08:05:55.006Z</time>
      </trkpt>
      <trkpt lat="45.38036" lon="4.581">
        <ele>1480.9</ele>
        <time>2026-08-18T08:05:56.012Z</time>
      </trkpt>
      <trkpt lat="45.38038" lon="4.58099">
        <ele>1480.9</ele>
        <time>2026-08-18T08:05:58.006Z</time>
      </trkpt>
      <trkpt lat="45.38039" lon="4.58099">
        <ele>1480.7</ele>
        <time>2026-08-18T08:05:59.006Z</time>
      </trkpt>
      <trkpt lat="45.38041" lon="4.58097">
        <ele>1480.6</ele>
        <time>2026-08-18T08:06:00.978Z</time>
      </trkpt>
      <trkpt lat="45.38042" lon="4.58096">
        <ele>1480.8</ele>
        <time>2026-08-18T08:06:02.005Z</time>
      </trkpt>
      <trkpt lat="45.38043" lon="4.58095">
        <ele>1481.3</ele>
        <time>2026-08-18T08:06:03.006Z</time>
      </trkpt>
      <trkpt lat="45.38045" lon="4.58094">
        <ele>1481</ele>
        <time>2026-08-18T08:06:05.025Z</time>
      </trkpt>
      <trkpt lat="45.38048" lon="4.58094">
        <ele>1481</ele>
        <time>2026-08-18T08:06:07.006Z</time>
      </trkpt>
      <trkpt lat="45.3805" lon="4.58095">
        <ele>1481</ele>
        <time>2026-08-18T08:06:09.017Z</time>
      </trkpt>
      <trkpt lat="45.38052" lon="4.58095">
        <ele>1481.3</ele>
        <time>2026-08-18T08:06:10.912Z</time>
      </trkpt>
      <trkpt lat="45.38054" lon="4.58096">
        <ele>1481.6</ele>
        <time>2026-08-18T08:06:13.467Z</time>
      </trkpt>
      <trkpt lat="45.38056" lon="4.58096">
        <ele>1481.4</ele>
        <time>2026-08-18T08:06:14.971Z</time>
      </trkpt>
      <trkpt lat="45.38056" lon="4.58096">
        <ele>1481.4</ele>
        <time>2026-08-18T08:06:16.006Z</time>
      </trkpt>
      <trkpt lat="45.38057" lon="4.58096">
        <ele>1481.4</ele>
        <time>2026-08-18T08:06:17.006Z</time>
      </trkpt>
      <trkpt lat="45.38059" lon="4.58095">
        <ele>1481.1</ele>
        <time>2026-08-18T08:06:19.012Z</time>
      </trkpt>
      <trkpt lat="45.38058" lon="4.58093">
        <ele>1480.4</ele>
        <time>2026-08-18T08:06:21.091Z</time>
      </trkpt>
      <trkpt lat="45.38058" lon="4.58094">
        <ele>1480.4</ele>
        <time>2026-08-18T08:06:23.005Z</time>
      </trkpt>
      <trkpt lat="45.38058" lon="4.58094">
        <ele>1480.4</ele>
        <time>2026-08-18T08:06:24.006Z</time>
      </trkpt>
      <trkpt lat="45.38058" lon="4.58094">
        <ele>1480.2</ele>
        <time>2026-08-18T08:06:26.006Z</time>
      </trkpt>
      <trkpt lat="45.38058" lon="4.58094">
        <ele>1480.3</ele>
        <time>2026-08-18T08:06:27.023Z</time>
      </trkpt>
      <trkpt lat="45.38058" lon="4.58094">
        <ele>1480.2</ele>
        <time>2026-08-18T08:06:29.006Z</time>
      </trkpt>
      <trkpt lat="45.38058" lon="4.58094">
        <ele>1480.2</ele>
        <time>2026-08-18T08:06:31.093Z</time>
      </trkpt>
      <trkpt lat="45.38058" lon="4.58095">
        <ele>1480.2</ele>
        <time>2026-08-18T08:06:33.005Z</time>
      </trkpt>
      <trkpt lat="45.38058" lon="4.58095">
        <ele>1480.2</ele>
        <time>2026-08-18T08:06:34.006Z</time>
      </trkpt>
      <trkpt lat="45.38058" lon="4.58095">
        <ele>1480.2</ele>
        <time>2026-08-18T08:06:35.006Z</time>
      </trkpt>
      <trkpt lat="45.38058" lon="4.58094">
        <ele>1480.2</ele>
        <time>2026-08-18T08:06:37.024Z</time>
      </trkpt>
      <trkpt lat="45.38058" lon="4.58094">
        <ele>1480.2</ele>
        <time>2026-08-18T08:06:38.070Z</time>
      </trkpt>
      <trkpt lat="45.38058" lon="4.58094">
        <ele>1480.2</ele>
        <time>2026-08-18T08:06:39.077Z</time>
      </trkpt>
      <trkpt lat="45.38058" lon="4.58094">
        <ele>1480.2</ele>
        <time>2026-08-18T08:06:41.017Z</time>
      </trkpt>
      <trkpt lat="45.38058" lon="4.58094">
        <ele>1480.2</ele>
        <time>2026-08-18T08:06:43.005Z</time>
      </trkpt>
      <trkpt lat="45.38058" lon="4.58094">
        <ele>1480.2</ele>
        <time>2026-08-18T08:06:44.005Z</time>
      </trkpt>
      <trkpt lat="45.38058" lon="4.58094">
        <ele>1480.2</ele>
        <time>2026-08-18T08:06:45.010Z</time>
      </trkpt>
      <trkpt lat="45.38058" lon="4.58094">
        <ele>1480.6</ele>
        <time>2026-08-18T08:06:47.005Z</time>
      </trkpt>
      <trkpt lat="45.38058" lon="4.58094">
        <ele>1480.4</ele>
        <time>2026-08-18T08:06:48.090Z</time>
      </trkpt>
      <trkpt lat="45.38058" lon="4.58094">
        <ele>1480.3</ele>
        <time>2026-08-18T08:06:50.006Z</time>
      </trkpt>
      <trkpt lat="45.38059" lon="4.58094">
        <ele>1480.6</ele>
        <time>2026-08-18T08:06:52.006Z</time>
      </trkpt>
      <trkpt lat="45.38059" lon="4.58094">
        <ele>1480.6</ele>
        <time>2026-08-18T08:06:54.021Z</time>
      </trkpt>
      <trkpt lat="45.38059" lon="4.58094">
        <ele>1480.6</ele>
        <time>2026-08-18T08:06:56.006Z</time>
      </trkpt>
      <trkpt lat="45.38059" lon="4.58094">
        <ele>1480.6</ele>
        <time>2026-08-18T08:06:57.006Z</time>
      </trkpt>
      <trkpt lat="45.38059" lon="4.58094">
        <ele>1480.6</ele>
        <time>2026-08-18T08:06:58.014Z</time>
      </trkpt>
      <trkpt lat="45.38059" lon="4.58094">
        <ele>1480.7</ele>
        <time>2026-08-18T08:07:00.006Z</time>
      </trkpt>
      <trkpt lat="45.38059" lon="4.58095">
        <ele>1480.8</ele>
        <time>2026-08-18T08:07:02.007Z</time>
      </trkpt>
      <trkpt lat="45.3806" lon="4.58094">
        <ele>1481.5</ele>
        <time>2026-08-18T08:07:04.079Z</time>
      </trkpt>
      <trkpt lat="45.38062" lon="4.58094">
        <ele>1481.3</ele>
        <time>2026-08-18T08:07:06.006Z</time>
      </trkpt>
      <trkpt lat="45.38062" lon="4.58094">
        <ele>1481.2</ele>
        <time>2026-08-18T08:07:07.007Z</time>
      </trkpt>
      <trkpt lat="45.38063" lon="4.58094">
        <ele>1481.4</ele>
        <time>2026-08-18T08:07:09.006Z</time>
      </trkpt>
      <trkpt lat="45.38063" lon="4.58094">
        <ele>1481.6</ele>
        <time>2026-08-18T08:07:10.006Z</time>
      </trkpt>
      <trkpt lat="45.38064" lon="4.58093">
        <ele>1481.6</ele>
        <time>2026-08-18T08:07:12.026Z</time>
      </trkpt>
      <trkpt lat="45.38065" lon="4.58093">
        <ele>1482</ele>
        <time>2026-08-18T08:07:13.092Z</time>
      </trkpt>
      <trkpt lat="45.38067" lon="4.58093">
        <ele>1482.2</ele>
        <time>2026-08-18T08:07:14.910Z</time>
      </trkpt>
      <trkpt lat="45.38068" lon="4.58092">
        <ele>1482.6</ele>
        <time>2026-08-18T08:07:16.006Z</time>
      </trkpt>
      <trkpt lat="45.38069" lon="4.58091">
        <ele>1482.8</ele>
        <time>2026-08-18T08:07:17.006Z</time>
      </trkpt>
      <trkpt lat="45.3807" lon="4.58091">
        <ele>1482.9</ele>
        <time>2026-08-18T08:07:18.006Z</time>
      </trkpt>
      <trkpt lat="45.38071" lon="4.5809">
        <ele>1483.2</ele>
        <time>2026-08-18T08:07:19.006Z</time>
      </trkpt>
      <trkpt lat="45.38072" lon="4.58089">
        <ele>1483.8</ele>
        <time>2026-08-18T08:07:21.078Z</time>
      </trkpt>
      <trkpt lat="45.38073" lon="4.58089">
        <ele>1483</ele>
        <time>2026-08-18T08:07:23.017Z</time>
      </trkpt>
      <trkpt lat="45.38074" lon="4.58089">
        <ele>1483</ele>
        <time>2026-08-18T08:07:24.018Z</time>
      </trkpt>
      <trkpt lat="45.38076" lon="4.58089">
        <ele>1482.7</ele>
        <time>2026-08-18T08:07:26.006Z</time>
      </trkpt>
      <trkpt lat="45.38077" lon="4.5809">
        <ele>1482.8</ele>
        <time>2026-08-18T08:07:27.009Z</time>
      </trkpt>
      <trkpt lat="45.38078" lon="4.5809">
        <ele>1482.5</ele>
        <time>2026-08-18T08:07:29.005Z</time>
      </trkpt>
      <trkpt lat="45.38079" lon="4.5809">
        <ele>1482.1</ele>
        <time>2026-08-18T08:07:30.070Z</time>
      </trkpt>
      <trkpt lat="45.38079" lon="4.5809">
        <ele>1482.8</ele>
        <time>2026-08-18T08:07:31.096Z</time>
      </trkpt>
      <trkpt lat="45.3808" lon="4.58089">
        <ele>1483</ele>
        <time>2026-08-18T08:07:33.006Z</time>
      </trkpt>
      <trkpt lat="45.3808" lon="4.58089">
        <ele>1483.5</ele>
        <time>2026-08-18T08:07:34.006Z</time>
      </trkpt>
      <trkpt lat="45.38081" lon="4.58088">
        <ele>1483.9</ele>
        <time>2026-08-18T08:07:35.006Z</time>
      </trkpt>
      <trkpt lat="45.38081" lon="4.58087">
        <ele>1483.9</ele>
        <time>2026-08-18T08:07:36.015Z</time>
      </trkpt>
      <trkpt lat="45.38082" lon="4.58086">
        <ele>1483.9</ele>
        <time>2026-08-18T08:07:37.848Z</time>
      </trkpt>
      <trkpt lat="45.38083" lon="4.58085">
        <ele>1483.5</ele>
        <time>2026-08-18T08:07:39.006Z</time>
      </trkpt>
      <trkpt lat="45.38083" lon="4.58084">
        <ele>1483.7</ele>
        <time>2026-08-18T08:07:40.090Z</time>
      </trkpt>
      <trkpt lat="45.38085" lon="4.58084">
        <ele>1484</ele>
        <time>2026-08-18T08:07:41.918Z</time>
      </trkpt>
      <trkpt lat="45.38086" lon="4.58083">
        <ele>1483.5</ele>
        <time>2026-08-18T08:07:43.006Z</time>
      </trkpt>
      <trkpt lat="45.38087" lon="4.58083">
        <ele>1483.3</ele>
        <time>2026-08-18T08:07:45.006Z</time>
      </trkpt>
      <trkpt lat="45.38089" lon="4.58083">
        <ele>1482.6</ele>
        <time>2026-08-18T08:07:46.006Z</time>
      </trkpt>
      <trkpt lat="45.3809" lon="4.58082">
        <ele>1482.5</ele>
        <time>2026-08-18T08:07:48.006Z</time>
      </trkpt>
      <trkpt lat="45.3809" lon="4.58082">
        <ele>1482.3</ele>
        <time>2026-08-18T08:07:49.006Z</time>
      </trkpt>
      <trkpt lat="45.38091" lon="4.58081">
        <ele>1482.2</ele>
        <time>2026-08-18T08:07:50.015Z</time>
      </trkpt>
      <trkpt lat="45.38093" lon="4.5808">
        <ele>1482.1</ele>
        <time>2026-08-18T08:07:52.006Z</time>
      </trkpt>
      <trkpt lat="45.38095" lon="4.58081">
        <ele>1482</ele>
        <time>2026-08-18T08:07:54.029Z</time>
      </trkpt>
      <trkpt lat="45.38097" lon="4.58082">
        <ele>1481.6</ele>
        <time>2026-08-18T08:07:56.118Z</time>
      </trkpt>
      <trkpt lat="45.38098" lon="4.58082">
        <ele>1481.3</ele>
        <time>2026-08-18T08:07:58.006Z</time>
      </trkpt>
      <trkpt lat="45.38099" lon="4.58082">
        <ele>1481</ele>
        <time>2026-08-18T08:07:59.006Z</time>
      </trkpt>
      <trkpt lat="45.381" lon="4.58082">
        <ele>1480.6</ele>
        <time>2026-08-18T08:08:00.006Z</time>
      </trkpt>
      <trkpt lat="45.38101" lon="4.58082">
        <ele>1480.7</ele>
        <time>2026-08-18T08:08:01.022Z</time>
      </trkpt>
      <trkpt lat="45.38103" lon="4.58081">
        <ele>1481</ele>
        <time>2026-08-18T08:08:02.992Z</time>
      </trkpt>
      <trkpt lat="45.38104" lon="4.58081">
        <ele>1480.9</ele>
        <time>2026-08-18T08:08:04.083Z</time>
      </trkpt>
      <trkpt lat="45.38105" lon="4.5808">
        <ele>1480.6</ele>
        <time>2026-08-18T08:08:05.087Z</time>
      </trkpt>
      <trkpt lat="45.38106" lon="4.58079">
        <ele>1481.1</ele>
        <time>2026-08-18T08:08:07.011Z</time>
      </trkpt>
      <trkpt lat="45.38108" lon="4.58079">
        <ele>1480.8</ele>
        <time>2026-08-18T08:08:09.005Z</time>
      </trkpt>
      <trkpt lat="45.38109" lon="4.58078">
        <ele>1481.7</ele>
        <time>2026-08-18T08:08:10.006Z</time>
      </trkpt>
      <trkpt lat="45.38111" lon="4.58078">
        <ele>1481.6</ele>
        <time>2026-08-18T08:08:12.005Z</time>
      </trkpt>
      <trkpt lat="45.38112" lon="4.58077">
        <ele>1481.4</ele>
        <time>2026-08-18T08:08:13.096Z</time>
      </trkpt>
      <trkpt lat="45.38113" lon="4.58077">
        <ele>1481.1</ele>
        <time>2026-08-18T08:08:15.006Z</time>
      </trkpt>
      <trkpt lat="45.38115" lon="4.58076">
        <ele>1481.2</ele>
        <time>2026-08-18T08:08:17.006Z</time>
      </trkpt>
      <trkpt lat="45.38118" lon="4.58075">
        <ele>1480.6</ele>
        <time>2026-08-18T08:08:19.006Z</time>
      </trkpt>
      <trkpt lat="45.38119" lon="4.58076">
        <ele>1480.9</ele>
        <time>2026-08-18T08:08:20.006Z</time>
      </trkpt>
      <trkpt lat="45.3812" lon="4.58076">
        <ele>1480.4</ele>
        <time>2026-08-18T08:08:21.062Z</time>
      </trkpt>
      <trkpt lat="45.38124" lon="4.58073">
        <ele>1480.5</ele>
        <time>2026-08-18T08:08:23.005Z</time>
      </trkpt>
      <trkpt lat="45.38125" lon="4.58073">
        <ele>1480.7</ele>
        <time>2026-08-18T08:08:24.005Z</time>
      </trkpt>
      <trkpt lat="45.38126" lon="4.58072">
        <ele>1480.7</ele>
        <time>2026-08-18T08:08:25.006Z</time>
      </trkpt>
      <trkpt lat="45.38127" lon="4.58071">
        <ele>1480.6</ele>
        <time>2026-08-18T08:08:26.006Z</time>
      </trkpt>
      <trkpt lat="45.38129" lon="4.5807">
        <ele>1480.4</ele>
        <time>2026-08-18T08:08:28.021Z</time>
      </trkpt>
      <trkpt lat="45.38131" lon="4.58069">
        <ele>1480.1</ele>
        <time>2026-08-18T08:08:30.005Z</time>
      </trkpt>
      <trkpt lat="45.38132" lon="4.58069">
        <ele>1480.1</ele>
        <time>2026-08-18T08:08:31.088Z</time>
      </trkpt>
      <trkpt lat="45.38135" lon="4.58071">
        <ele>1480.3</ele>
        <time>2026-08-18T08:08:33.006Z</time>
      </trkpt>
      <trkpt lat="45.38136" lon="4.58071">
        <ele>1480.1</ele>
        <time>2026-08-18T08:08:34.006Z</time>
      </trkpt>
      <trkpt lat="45.38138" lon="4.58072">
        <ele>1480.4</ele>
        <time>2026-08-18T08:08:35.006Z</time>
      </trkpt>
      <trkpt lat="45.3814" lon="4.58072">
        <ele>1480.8</ele>
        <time>2026-08-18T08:08:37.006Z</time>
      </trkpt>
      <trkpt lat="45.38143" lon="4.58073">
        <ele>1480.7</ele>
        <time>2026-08-18T08:08:39.128Z</time>
      </trkpt>
      <trkpt lat="45.38145" lon="4.58073">
        <ele>1481.1</ele>
        <time>2026-08-18T08:08:41.006Z</time>
      </trkpt>
      <trkpt lat="45.38146" lon="4.58073">
        <ele>1480.9</ele>
        <time>2026-08-18T08:08:42.014Z</time>
      </trkpt>
      <trkpt lat="45.38148" lon="4.58073">
        <ele>1481.4</ele>
        <time>2026-08-18T08:08:44.006Z</time>
      </trkpt>
      <trkpt lat="45.38149" lon="4.58072">
        <ele>1481.3</ele>
        <time>2026-08-18T08:08:45.006Z</time>
      </trkpt>
      <trkpt lat="45.38151" lon="4.58071">
        <ele>1481.8</ele>
        <time>2026-08-18T08:08:47.006Z</time>
      </trkpt>
      <trkpt lat="45.38152" lon="4.58071">
        <ele>1481.8</ele>
        <time>2026-08-18T08:08:48.175Z</time>
      </trkpt>
      <trkpt lat="45.38153" lon="4.58071">
        <ele>1482.3</ele>
        <time>2026-08-18T08:08:49.393Z</time>
      </trkpt>
      <trkpt lat="45.38155" lon="4.58071">
        <ele>1482.2</ele>
        <time>2026-08-18T08:08:50.791Z</time>
      </trkpt>
      <trkpt lat="45.38156" lon="4.58071">
        <ele>1483.5</ele>
        <time>2026-08-18T08:08:52.014Z</time>
      </trkpt>
      <trkpt lat="45.38157" lon="4.58071">
        <ele>1484.6</ele>
        <time>2026-08-18T08:08:54.005Z</time>
      </trkpt>
      <trkpt lat="45.38158" lon="4.58071">
        <ele>1484.6</ele>
        <time>2026-08-18T08:08:55.005Z</time>
      </trkpt>
      <trkpt lat="45.38159" lon="4.58071">
        <ele>1485</ele>
        <time>2026-08-18T08:08:56.101Z</time>
      </trkpt>
      <trkpt lat="45.3816" lon="4.58071">
        <ele>1484.6</ele>
        <time>2026-08-18T08:08:58.006Z</time>
      </trkpt>
      <trkpt lat="45.38161" lon="4.58071">
        <ele>1484.5</ele>
        <time>2026-08-18T08:08:59.006Z</time>
      </trkpt>
      <trkpt lat="45.38162" lon="4.5807">
        <ele>1484.5</ele>
        <time>2026-08-18T08:09:01.007Z</time>
      </trkpt>
      <trkpt lat="45.38164" lon="4.58069">
        <ele>1484.4</ele>
        <time>2026-08-18T08:09:03.004Z</time>
      </trkpt>
      <trkpt lat="45.38165" lon="4.58068">
        <ele>1483.9</ele>
        <time>2026-08-18T08:09:04.068Z</time>
      </trkpt>
      <trkpt lat="45.38166" lon="4.58068">
        <ele>1484.3</ele>
        <time>2026-08-18T08:09:05.128Z</time>
      </trkpt>
      <trkpt lat="45.38167" lon="4.58067">
        <ele>1484</ele>
        <time>2026-08-18T08:09:06.276Z</time>
      </trkpt>
      <trkpt lat="45.38168" lon="4.58066">
        <ele>1483.9</ele>
        <time>2026-08-18T08:09:07.854Z</time>
      </trkpt>
      <trkpt lat="45.38169" lon="4.58066">
        <ele>1483.7</ele>
        <time>2026-08-18T08:09:09.005Z</time>
      </trkpt>
      <trkpt lat="45.3817" lon="4.58066">
        <ele>1483.8</ele>
        <time>2026-08-18T08:09:10.006Z</time>
      </trkpt>
      <trkpt lat="45.38172" lon="4.58065">
        <ele>1483.6</ele>
        <time>2026-08-18T08:09:12.005Z</time>
      </trkpt>
      <trkpt lat="45.38172" lon="4.58065">
        <ele>1483.6</ele>
        <time>2026-08-18T08:09:13.079Z</time>
      </trkpt>
      <trkpt lat="45.38173" lon="4.58065">
        <ele>1483.7</ele>
        <time>2026-08-18T08:09:15.006Z</time>
      </trkpt>
      <trkpt lat="45.38175" lon="4.58064">
        <ele>1483.6</ele>
        <time>2026-08-18T08:09:16.932Z</time>
      </trkpt>
      <trkpt lat="45.38175" lon="4.58064">
        <ele>1483.5</ele>
        <time>2026-08-18T08:09:18.005Z</time>
      </trkpt>
      <trkpt lat="45.38176" lon="4.58064">
        <ele>1483.8</ele>
        <time>2026-08-18T08:09:19.005Z</time>
      </trkpt>
      <trkpt lat="45.38177" lon="4.58063">
        <ele>1483.9</ele>
        <time>2026-08-18T08:09:20.019Z</time>
      </trkpt>
      <trkpt lat="45.38178" lon="4.58063">
        <ele>1484.2</ele>
        <time>2026-08-18T08:09:22.006Z</time>
      </trkpt>
      <trkpt lat="45.38179" lon="4.58063">
        <ele>1484.3</ele>
        <time>2026-08-18T08:09:23.080Z</time>
      </trkpt>
      <trkpt lat="45.38181" lon="4.58062">
        <ele>1484.4</ele>
        <time>2026-08-18T08:09:25.020Z</time>
      </trkpt>
      <trkpt lat="45.38182" lon="4.58062">
        <ele>1484.4</ele>
        <time>2026-08-18T08:09:26.030Z</time>
      </trkpt>
      <trkpt lat="45.38183" lon="4.58062">
        <ele>1484.5</ele>
        <time>2026-08-18T08:09:28.006Z</time>
      </trkpt>
      <trkpt lat="45.38185" lon="4.58061">
        <ele>1484.3</ele>
        <time>2026-08-18T08:09:30.076Z</time>
      </trkpt>
      <trkpt lat="45.38186" lon="4.5806">
        <ele>1484.1</ele>
        <time>2026-08-18T08:09:31.084Z</time>
      </trkpt>
      <trkpt lat="45.38187" lon="4.58059">
        <ele>1483.6</ele>
        <time>2026-08-18T08:09:33.023Z</time>
      </trkpt>
      <trkpt lat="45.3819" lon="4.5806">
        <ele>1483.9</ele>
        <time>2026-08-18T08:09:34.955Z</time>
      </trkpt>
      <trkpt lat="45.38191" lon="4.5806">
        <ele>1484.4</ele>
        <time>2026-08-18T08:09:36.005Z</time>
      </trkpt>
      <trkpt lat="45.38192" lon="4.5806">
        <ele>1484.5</ele>
        <time>2026-08-18T08:09:37.006Z</time>
      </trkpt>
      <trkpt lat="45.38193" lon="4.5806">
        <ele>1484.1</ele>
        <time>2026-08-18T08:09:38.006Z</time>
      </trkpt>
      <trkpt lat="45.38194" lon="4.58061">
        <ele>1484.1</ele>
        <time>2026-08-18T08:09:39.088Z</time>
      </trkpt>
      <trkpt lat="45.38196" lon="4.58061">
        <ele>1483.5</ele>
        <time>2026-08-18T08:09:41.006Z</time>
      </trkpt>
      <trkpt lat="45.38197" lon="4.58061">
        <ele>1483</ele>
        <time>2026-08-18T08:09:42.006Z</time>
      </trkpt>
      <trkpt lat="45.38199" lon="4.5806">
        <ele>1483.1</ele>
        <time>2026-08-18T08:09:44.006Z</time>
      </trkpt>
      <trkpt lat="45.382" lon="4.5806">
        <ele>1482.9</ele>
        <time>2026-08-18T08:09:45.006Z</time>
      </trkpt>
      <trkpt lat="45.38202" lon="4.58059">
        <ele>1482.8</ele>
        <time>2026-08-18T08:09:46.006Z</time>
      </trkpt>
      <trkpt lat="45.38202" lon="4.58059">
        <ele>1483</ele>
        <time>2026-08-18T08:09:47.017Z</time>
      </trkpt>
      <trkpt lat="45.38204" lon="4.58059">
        <ele>1483.2</ele>
        <time>2026-08-18T08:09:49.006Z</time>
      </trkpt>
      <trkpt lat="45.38205" lon="4.58059">
        <ele>1482.7</ele>
        <time>2026-08-18T08:09:50.006Z</time>
      </trkpt>
      <trkpt lat="45.38206" lon="4.58059">
        <ele>1482.1</ele>
        <time>2026-08-18T08:09:51.914Z</time>
      </trkpt>
      <trkpt lat="45.38207" lon="4.5806">
        <ele>1482.2</ele>
        <time>2026-08-18T08:09:53.006Z</time>
      </trkpt>
      <trkpt lat="45.38208" lon="4.58061">
        <ele>1482.9</ele>
        <time>2026-08-18T08:09:54.006Z</time>
      </trkpt>
      <trkpt lat="45.38209" lon="4.58061">
        <ele>1482.9</ele>
        <time>2026-08-18T08:09:55.006Z</time>
      </trkpt>
      <trkpt lat="45.3821" lon="4.5806">
        <ele>1482.4</ele>
        <time>2026-08-18T08:09:56.006Z</time>
      </trkpt>
      <trkpt lat="45.38211" lon="4.5806">
        <ele>1483.6</ele>
        <time>2026-08-18T08:09:57.006Z</time>
      </trkpt>
      <trkpt lat="45.38212" lon="4.5806">
        <ele>1483</ele>
        <time>2026-08-18T08:09:58.006Z</time>
      </trkpt>
      <trkpt lat="45.38214" lon="4.5806">
        <ele>1482.3</ele>
        <time>2026-08-18T08:09:59.006Z</time>
      </trkpt>
      <trkpt lat="45.38215" lon="4.5806">
        <ele>1482.1</ele>
        <time>2026-08-18T08:10:00.006Z</time>
      </trkpt>
      <trkpt lat="45.38216" lon="4.5806">
        <ele>1480.8</ele>
        <time>2026-08-18T08:10:01.006Z</time>
      </trkpt>
      <trkpt lat="45.38218" lon="4.58061">
        <ele>1479.2</ele>
        <time>2026-08-18T08:10:03.006Z</time>
      </trkpt>
      <trkpt lat="45.38219" lon="4.58061">
        <ele>1479</ele>
        <time>2026-08-18T08:10:04.006Z</time>
      </trkpt>
      <trkpt lat="45.38221" lon="4.58061">
        <ele>1478.1</ele>
        <time>2026-08-18T08:10:05.006Z</time>
      </trkpt>
      <trkpt lat="45.38223" lon="4.58061">
        <ele>1478.9</ele>
        <time>2026-08-18T08:10:07.017Z</time>
      </trkpt>
      <trkpt lat="45.38225" lon="4.58062">
        <ele>1478.6</ele>
        <time>2026-08-18T08:10:08.950Z</time>
      </trkpt>
      <trkpt lat="45.38226" lon="4.58062">
        <ele>1477.5</ele>
        <time>2026-08-18T08:10:10.006Z</time>
      </trkpt>
      <trkpt lat="45.38228" lon="4.58062">
        <ele>1478.1</ele>
        <time>2026-08-18T08:10:11.006Z</time>
      </trkpt>
      <trkpt lat="45.38229" lon="4.58062">
        <ele>1477.1</ele>
        <time>2026-08-18T08:10:12.006Z</time>
      </trkpt>
      <trkpt lat="45.38231" lon="4.58063">
        <ele>1476.7</ele>
        <time>2026-08-18T08:10:14.004Z</time>
      </trkpt>
      <trkpt lat="45.38232" lon="4.58064">
        <ele>1478</ele>
        <time>2026-08-18T08:10:15.006Z</time>
      </trkpt>
      <trkpt lat="45.38233" lon="4.58065">
        <ele>1477.7</ele>
        <time>2026-08-18T08:10:16.006Z</time>
      </trkpt>
      <trkpt lat="45.38235" lon="4.58065">
        <ele>1478.1</ele>
        <time>2026-08-18T08:10:18.005Z</time>
      </trkpt>
      <trkpt lat="45.38236" lon="4.58065">
        <ele>1477.7</ele>
        <time>2026-08-18T08:10:19.006Z</time>
      </trkpt>
      <trkpt lat="45.38237" lon="4.58065">
        <ele>1476.9</ele>
        <time>2026-08-18T08:10:20.021Z</time>
      </trkpt>
      <trkpt lat="45.38238" lon="4.58065">
        <ele>1478.2</ele>
        <time>2026-08-18T08:10:21.991Z</time>
      </trkpt>
      <trkpt lat="45.38239" lon="4.58065">
        <ele>1477.6</ele>
        <time>2026-08-18T08:10:23.006Z</time>
      </trkpt>
      <trkpt lat="45.38241" lon="4.58065">
        <ele>1476.8</ele>
        <time>2026-08-18T08:10:25.005Z</time>
      </trkpt>
      <trkpt lat="45.38242" lon="4.58065">
        <ele>1475.4</ele>
        <time>2026-08-18T08:10:26.006Z</time>
      </trkpt>
      <trkpt lat="45.38244" lon="4.58065">
        <ele>1474.3</ele>
        <time>2026-08-18T08:10:28.007Z</time>
      </trkpt>
      <trkpt lat="45.38247" lon="4.58064">
        <ele>1475.1</ele>
        <time>2026-08-18T08:10:29.996Z</time>
      </trkpt>
      <trkpt lat="45.38248" lon="4.58064">
        <ele>1474.4</ele>
        <time>2026-08-18T08:10:31.006Z</time>
      </trkpt>
      <trkpt lat="45.3825" lon="4.58063">
        <ele>1475.6</ele>
        <time>2026-08-18T08:10:33.006Z</time>
      </trkpt>
      <trkpt lat="45.38251" lon="4.58063">
        <ele>1475</ele>
        <time>2026-08-18T08:10:34.006Z</time>
      </trkpt>
      <trkpt lat="45.38252" lon="4.58062">
        <ele>1475.2</ele>
        <time>2026-08-18T08:10:35.006Z</time>
      </trkpt>
      <trkpt lat="45.38253" lon="4.58062">
        <ele>1475.5</ele>
        <time>2026-08-18T08:10:36.006Z</time>
      </trkpt>
      <trkpt lat="45.38255" lon="4.5806">
        <ele>1475.9</ele>
        <time>2026-08-18T08:10:38.006Z</time>
      </trkpt>
      <trkpt lat="45.38256" lon="4.58058">
        <ele>1472.4</ele>
        <time>2026-08-18T08:10:40.006Z</time>
      </trkpt>
      <trkpt lat="45.38256" lon="4.58056">
        <ele>1472.4</ele>
        <time>2026-08-18T08:10:41.012Z</time>
      </trkpt>
      <trkpt lat="45.38257" lon="4.58054">
        <ele>1472.4</ele>
        <time>2026-08-18T08:10:43.006Z</time>
      </trkpt>
      <trkpt lat="45.38258" lon="4.58052">
        <ele>1472.8</ele>
        <time>2026-08-18T08:10:45.005Z</time>
      </trkpt>
      <trkpt lat="45.38258" lon="4.58052">
        <ele>1472.8</ele>
        <time>2026-08-18T08:10:46.006Z</time>
      </trkpt>
      <trkpt lat="45.38257" lon="4.58052">
        <ele>1472.8</ele>
        <time>2026-08-18T08:10:48.005Z</time>
      </trkpt>
      <trkpt lat="45.38257" lon="4.58052">
        <ele>1472.8</ele>
        <time>2026-08-18T08:10:49.006Z</time>
      </trkpt>
      <trkpt lat="45.38257" lon="4.58052">
        <ele>1472.4</ele>
        <time>2026-08-18T08:10:51.049Z</time>
      </trkpt>
      <trkpt lat="45.38257" lon="4.58052">
        <ele>1472.6</ele>
        <time>2026-08-18T08:10:53.028Z</time>
      </trkpt>
      <trkpt lat="45.3826" lon="4.58053">
        <ele>1473.6</ele>
        <time>2026-08-18T08:10:54.911Z</time>
      </trkpt>
      <trkpt lat="45.38262" lon="4.58054">
        <ele>1471</ele>
        <time>2026-08-18T08:10:56.006Z</time>
      </trkpt>
      <trkpt lat="45.38265" lon="4.58054">
        <ele>1472.3</ele>
        <time>2026-08-18T08:10:58.008Z</time>
      </trkpt>
      <trkpt lat="45.38266" lon="4.58052">
        <ele>1471.9</ele>
        <time>2026-08-18T08:11:00.006Z</time>
      </trkpt>
      <trkpt lat="45.38267" lon="4.5805">
        <ele>1473.8</ele>
        <time>2026-08-18T08:11:01.006Z</time>
      </trkpt>
      <trkpt lat="45.38267" lon="4.58049">
        <ele>1474</ele>
        <time>2026-08-18T08:11:02.006Z</time>
      </trkpt>
      <trkpt lat="45.38268" lon="4.58047">
        <ele>1474.6</ele>
        <time>2026-08-18T08:11:03.912Z</time>
      </trkpt>
      <trkpt lat="45.38268" lon="4.58046">
        <ele>1475</ele>
        <time>2026-08-18T08:11:05.005Z</time>
      </trkpt>
      <trkpt lat="45.38268" lon="4.58045">
        <ele>1475.2</ele>
        <time>2026-08-18T08:11:06.006Z</time>
      </trkpt>
      <trkpt lat="45.38268" lon="4.58043">
        <ele>1474.6</ele>
        <time>2026-08-18T08:11:08.006Z</time>
      </trkpt>
      <trkpt lat="45.38268" lon="4.58041">
        <ele>1475.7</ele>
        <time>2026-08-18T08:11:09.006Z</time>
      </trkpt>
      <trkpt lat="45.38269" lon="4.58039">
        <ele>1475.8</ele>
        <time>2026-08-18T08:11:10.928Z</time>
      </trkpt>
      <trkpt lat="45.3827" lon="4.58037">
        <ele>1475.8</ele>
        <time>2026-08-18T08:11:12.006Z</time>
      </trkpt>
      <trkpt lat="45.3827" lon="4.58036">
        <ele>1475.7</ele>
        <time>2026-08-18T08:11:13.006Z</time>
      </trkpt>
      <trkpt lat="45.3827" lon="4.58035">
        <ele>1476</ele>
        <time>2026-08-18T08:11:14.006Z</time>
      </trkpt>
      <trkpt lat="45.38271" lon="4.58034">
        <ele>1476</ele>
        <time>2026-08-18T08:11:15.016Z</time>
      </trkpt>
      <trkpt lat="45.38272" lon="4.58031">
        <ele>1475.2</ele>
        <time>2026-08-18T08:11:17.006Z</time>
      </trkpt>
      <trkpt lat="45.38272" lon="4.5803">
        <ele>1475.6</ele>
        <time>2026-08-18T08:11:18.006Z</time>
      </trkpt>
      <trkpt lat="45.38274" lon="4.58028">
        <ele>1476.4</ele>
        <time>2026-08-18T08:11:20.006Z</time>
      </trkpt>
      <trkpt lat="45.38274" lon="4.58027">
        <ele>1477.5</ele>
        <time>2026-08-18T08:11:21.006Z</time>
      </trkpt>
      <trkpt lat="45.38274" lon="4.58026">
        <ele>1477.5</ele>
        <time>2026-08-18T08:11:22.006Z</time>
      </trkpt>
      <trkpt lat="45.38274" lon="4.58024">
        <ele>1476.5</ele>
        <time>2026-08-18T08:11:23.006Z</time>
      </trkpt>
      <trkpt lat="45.38275" lon="4.58023">
        <ele>1476.3</ele>
        <time>2026-08-18T08:11:24.016Z</time>
      </trkpt>
      <trkpt lat="45.38276" lon="4.58022">
        <ele>1477.2</ele>
        <time>2026-08-18T08:11:26.006Z</time>
      </trkpt>
      <trkpt lat="45.38278" lon="4.58023">
        <ele>1475.6</ele>
        <time>2026-08-18T08:11:28.008Z</time>
      </trkpt>
      <trkpt lat="45.38278" lon="4.58026">
        <ele>1475.4</ele>
        <time>2026-08-18T08:11:30.005Z</time>
      </trkpt>
      <trkpt lat="45.38279" lon="4.58027">
        <ele>1475.3</ele>
        <time>2026-08-18T08:11:31.006Z</time>
      </trkpt>
      <trkpt lat="45.38279" lon="4.5803">
        <ele>1474.5</ele>
        <time>2026-08-18T08:11:32.878Z</time>
      </trkpt>
      <trkpt lat="45.38279" lon="4.58031">
        <ele>1474.2</ele>
        <time>2026-08-18T08:11:34.005Z</time>
      </trkpt>
      <trkpt lat="45.38278" lon="4.58032">
        <ele>1474.2</ele>
        <time>2026-08-18T08:11:35.005Z</time>
      </trkpt>
      <trkpt lat="45.38278" lon="4.58032">
        <ele>1474.6</ele>
        <time>2026-08-18T08:11:36.006Z</time>
      </trkpt>
      <trkpt lat="45.38278" lon="4.58032">
        <ele>1474.5</ele>
        <time>2026-08-18T08:11:37.019Z</time>
      </trkpt>
      <trkpt lat="45.38279" lon="4.58032">
        <ele>1474.5</ele>
        <time>2026-08-18T08:11:39.006Z</time>
      </trkpt>
      <trkpt lat="45.38278" lon="4.58032">
        <ele>1473.7</ele>
        <time>2026-08-18T08:11:40.006Z</time>
      </trkpt>
      <trkpt lat="45.38278" lon="4.58032">
        <ele>1473.7</ele>
        <time>2026-08-18T08:11:41.011Z</time>
      </trkpt>
      <trkpt lat="45.38279" lon="4.58032">
        <ele>1474.7</ele>
        <time>2026-08-18T08:11:43.006Z</time>
      </trkpt>
      <trkpt lat="45.38279" lon="4.58032">
        <ele>1474.3</ele>
        <time>2026-08-18T08:11:44.006Z</time>
      </trkpt>
      <trkpt lat="45.38279" lon="4.58033">
        <ele>1473.9</ele>
        <time>2026-08-18T08:11:46.006Z</time>
      </trkpt>
      <trkpt lat="45.38279" lon="4.58033">
        <ele>1473.6</ele>
        <time>2026-08-18T08:11:47.006Z</time>
      </trkpt>
      <trkpt lat="45.3828" lon="4.58033">
        <ele>1473.6</ele>
        <time>2026-08-18T08:11:49.037Z</time>
      </trkpt>
      <trkpt lat="45.3828" lon="4.58032">
        <ele>1473.5</ele>
        <time>2026-08-18T08:11:51.006Z</time>
      </trkpt>
      <trkpt lat="45.38279" lon="4.58032">
        <ele>1473.5</ele>
        <time>2026-08-18T08:11:52.006Z</time>
      </trkpt>
      <trkpt lat="45.38279" lon="4.58032">
        <ele>1473.5</ele>
        <time>2026-08-18T08:11:53.006Z</time>
      </trkpt>
      <trkpt lat="45.38279" lon="4.58032">
        <ele>1473.5</ele>
        <time>2026-08-18T08:11:54.015Z</time>
      </trkpt>
      <trkpt lat="45.38279" lon="4.58032">
        <ele>1473.5</ele>
        <time>2026-08-18T08:11:56.005Z</time>
      </trkpt>
      <trkpt lat="45.38279" lon="4.58032">
        <ele>1473.5</ele>
        <time>2026-08-18T08:11:57.006Z</time>
      </trkpt>
      <trkpt lat="45.38279" lon="4.58032">
        <ele>1473.5</ele>
        <time>2026-08-18T08:11:58.009Z</time>
      </trkpt>
      <trkpt lat="45.38279" lon="4.58032">
        <ele>1473.5</ele>
        <time>2026-08-18T08:12:00.006Z</time>
      </trkpt>
      <trkpt lat="45.38279" lon="4.58032">
        <ele>1473.5</ele>
        <time>2026-08-18T08:12:01.006Z</time>
      </trkpt>
      <trkpt lat="45.38279" lon="4.58032">
        <ele>1473.5</ele>
        <time>2026-08-18T08:12:02.006Z</time>
      </trkpt>
      <trkpt lat="45.38279" lon="4.58032">
        <ele>1473.5</ele>
        <time>2026-08-18T08:12:04.005Z</time>
      </trkpt>
      <trkpt lat="45.38279" lon="4.58032">
        <ele>1473.5</ele>
        <time>2026-08-18T08:12:05.006Z</time>
      </trkpt>
      <trkpt lat="45.38279" lon="4.58032">
        <ele>1473.5</ele>
        <time>2026-08-18T08:12:07.005Z</time>
      </trkpt>
      <trkpt lat="45.38279" lon="4.58032">
        <ele>1473.5</ele>
        <time>2026-08-18T08:12:08.005Z</time>
      </trkpt>
      <trkpt lat="45.38279" lon="4.58032">
        <ele>1473.5</ele>
        <time>2026-08-18T08:12:09.006Z</time>
      </trkpt>
      <trkpt lat="45.38279" lon="4.58032">
        <ele>1473.5</ele>
        <time>2026-08-18T08:12:11.005Z</time>
      </trkpt>
      <trkpt lat="45.38279" lon="4.58032">
        <ele>1473.5</ele>
        <time>2026-08-18T08:12:12.005Z</time>
      </trkpt>
      <trkpt lat="45.38279" lon="4.58032">
        <ele>1473.4</ele>
        <time>2026-08-18T08:12:13.006Z</time>
      </trkpt>
      <trkpt lat="45.38279" lon="4.58032">
        <ele>1473.4</ele>
        <time>2026-08-18T08:12:14.006Z</time>
      </trkpt>
      <trkpt lat="45.38279" lon="4.58032">
        <ele>1473.6</ele>
        <time>2026-08-18T08:12:15.006Z</time>
      </trkpt>
      <trkpt lat="45.38279" lon="4.58032">
        <ele>1473.5</ele>
        <time>2026-08-18T08:12:16.006Z</time>
      </trkpt>
      <trkpt lat="45.38279" lon="4.58032">
        <ele>1473.5</ele>
        <time>2026-08-18T08:12:18.006Z</time>
      </trkpt>
      <trkpt lat="45.38279" lon="4.58032">
        <ele>1473.5</ele>
        <time>2026-08-18T08:12:19.006Z</time>
      </trkpt>
      <trkpt lat="45.38279" lon="4.58032">
        <ele>1473.6</ele>
        <time>2026-08-18T08:12:21.006Z</time>
      </trkpt>
      <trkpt lat="45.38279" lon="4.58032">
        <ele>1473.6</ele>
        <time>2026-08-18T08:12:22.935Z</time>
      </trkpt>
      <trkpt lat="45.38279" lon="4.58032">
        <ele>1474</ele>
        <time>2026-08-18T08:12:24.971Z</time>
      </trkpt>
      <trkpt lat="45.3828" lon="4.58032">
        <ele>1474</ele>
        <time>2026-08-18T08:12:26.005Z</time>
      </trkpt>
      <trkpt lat="45.3828" lon="4.58032">
        <ele>1474</ele>
        <time>2026-08-18T08:12:28.006Z</time>
      </trkpt>
      <trkpt lat="45.3828" lon="4.58032">
        <ele>1474</ele>
        <time>2026-08-18T08:12:29.006Z</time>
      </trkpt>
      <trkpt lat="45.3828" lon="4.58032">
        <ele>1474</ele>
        <time>2026-08-18T08:12:30.006Z</time>
      </trkpt>
      <trkpt lat="45.3828" lon="4.58032">
        <ele>1474</ele>
        <time>2026-08-18T08:12:32.004Z</time>
      </trkpt>
      <trkpt lat="45.3828" lon="4.58032">
        <ele>1474</ele>
        <time>2026-08-18T08:12:33.006Z</time>
      </trkpt>
      <trkpt lat="45.3828" lon="4.58032">
        <ele>1474</ele>
        <time>2026-08-18T08:12:34.006Z</time>
      </trkpt>
      <trkpt lat="45.3828" lon="4.58032">
        <ele>1474</ele>
        <time>2026-08-18T08:12:35.006Z</time>
      </trkpt>
      <trkpt lat="45.3828" lon="4.58032">
        <ele>1474</ele>
        <time>2026-08-18T08:12:36.006Z</time>
      </trkpt>
      <trkpt lat="45.3828" lon="4.58032">
        <ele>1474</ele>
        <time>2026-08-18T08:12:38.005Z</time>
      </trkpt>
      <trkpt lat="45.3828" lon="4.58032">
        <ele>1474</ele>
        <time>2026-08-18T08:12:39.006Z</time>
      </trkpt>
      <trkpt lat="45.3828" lon="4.58032">
        <ele>1474</ele>
        <time>2026-08-18T08:12:40.006Z</time>
      </trkpt>
      <trkpt lat="45.3828" lon="4.58032">
        <ele>1474</ele>
        <time>2026-08-18T08:12:42.005Z</time>
      </trkpt>
      <trkpt lat="45.3828" lon="4.58031">
        <ele>1474</ele>
        <time>2026-08-18T08:12:43.006Z</time>
      </trkpt>
      <trkpt lat="45.3828" lon="4.58032">
        <ele>1473.7</ele>
        <time>2026-08-18T08:12:44.006Z</time>
      </trkpt>
      <trkpt lat="45.38279" lon="4.58032">
        <ele>1473.4</ele>
        <time>2026-08-18T08:12:46.005Z</time>
      </trkpt>
      <trkpt lat="45.38279" lon="4.58032">
        <ele>1473.4</ele>
        <time>2026-08-18T08:12:47.017Z</time>
      </trkpt>
      <trkpt lat="45.38279" lon="4.58035">
        <ele>1472.8</ele>
        <time>2026-08-18T08:12:49.005Z</time>
      </trkpt>
      <trkpt lat="45.38279" lon="4.58037">
        <ele>1472.7</ele>
        <time>2026-08-18T08:12:50.006Z</time>
      </trkpt>
      <trkpt lat="45.38279" lon="4.58039">
        <ele>1473</ele>
        <time>2026-08-18T08:12:51.006Z</time>
      </trkpt>
      <trkpt lat="45.38279" lon="4.58042">
        <ele>1473.5</ele>
        <time>2026-08-18T08:12:53.006Z</time>
      </trkpt>
      <trkpt lat="45.38279" lon="4.58044">
        <ele>1473.2</ele>
        <time>2026-08-18T08:12:54.006Z</time>
      </trkpt>
      <trkpt lat="45.38279" lon="4.58045">
        <ele>1474</ele>
        <time>2026-08-18T08:12:55.006Z</time>
      </trkpt>
      <trkpt lat="45.3828" lon="4.58047">
        <ele>1474.6</ele>
        <time>2026-08-18T08:12:56.006Z</time>
      </trkpt>
      <trkpt lat="45.3828" lon="4.5805">
        <ele>1477.1</ele>
        <time>2026-08-18T08:12:58.012Z</time>
      </trkpt>
      <trkpt lat="45.3828" lon="4.58052">
        <ele>1477.1</ele>
        <time>2026-08-18T08:12:59.078Z</time>
      </trkpt>
      <trkpt lat="45.3828" lon="4.58056">
        <ele>1478.4</ele>
        <time>2026-08-18T08:13:01.006Z</time>
      </trkpt>
      <trkpt lat="45.38281" lon="4.5806">
        <ele>1478.1</ele>
        <time>2026-08-18T08:13:03.006Z</time>
      </trkpt>
      <trkpt lat="45.3828" lon="4.58064">
        <ele>1478.1</ele>
        <time>2026-08-18T08:13:05.005Z</time>
      </trkpt>
      <trkpt lat="45.38279" lon="4.58067">
        <ele>1477.6</ele>
        <time>2026-08-18T08:13:07.005Z</time>
      </trkpt>
      <trkpt lat="45.38278" lon="4.5807">
        <ele>1477.1</ele>
        <time>2026-08-18T08:13:08.949Z</time>
      </trkpt>
      <trkpt lat="45.38278" lon="4.58072">
        <ele>1476</ele>
        <time>2026-08-18T08:13:10.005Z</time>
      </trkpt>
      <trkpt lat="45.38278" lon="4.58074">
        <ele>1476</ele>
        <time>2026-08-18T08:13:12.004Z</time>
      </trkpt>
      <trkpt lat="45.38277" lon="4.58077">
        <ele>1476.5</ele>
        <time>2026-08-18T08:13:14.005Z</time>
      </trkpt>
      <trkpt lat="45.38277" lon="4.58079">
        <ele>1476.3</ele>
        <time>2026-08-18T08:13:15.011Z</time>
      </trkpt>
      <trkpt lat="45.38278" lon="4.58081">
        <ele>1476.3</ele>
        <time>2026-08-18T08:13:16.116Z</time>
      </trkpt>
      <trkpt lat="45.38277" lon="4.58083">
        <ele>1475.2</ele>
        <time>2026-08-18T08:13:17.457Z</time>
      </trkpt>
      <trkpt lat="45.38277" lon="4.58084">
        <ele>1474.9</ele>
        <time>2026-08-18T08:13:18.636Z</time>
      </trkpt>
      <trkpt lat="45.38276" lon="4.58086">
        <ele>1475.1</ele>
        <time>2026-08-18T08:13:19.976Z</time>
      </trkpt>
      <trkpt lat="45.38276" lon="4.58087">
        <ele>1474.9</ele>
        <time>2026-08-18T08:13:21.004Z</time>
      </trkpt>
      <trkpt lat="45.38274" lon="4.58089">
        <ele>1474.9</ele>
        <time>2026-08-18T08:13:23.004Z</time>
      </trkpt>
      <trkpt lat="45.38274" lon="4.5809">
        <ele>1474.6</ele>
        <time>2026-08-18T08:13:24.004Z</time>
      </trkpt>
      <trkpt lat="45.38273" lon="4.58091">
        <ele>1474.5</ele>
        <time>2026-08-18T08:13:25.005Z</time>
      </trkpt>
      <trkpt lat="45.38273" lon="4.58092">
        <ele>1474</ele>
        <time>2026-08-18T08:13:26.005Z</time>
      </trkpt>
      <trkpt lat="45.38272" lon="4.58094">
        <ele>1472.7</ele>
        <time>2026-08-18T08:13:28.005Z</time>
      </trkpt>
      <trkpt lat="45.38272" lon="4.58096">
        <ele>1472</ele>
        <time>2026-08-18T08:13:29.005Z</time>
      </trkpt>
      <trkpt lat="45.38272" lon="4.58097">
        <ele>1473.2</ele>
        <time>2026-08-18T08:13:30.005Z</time>
      </trkpt>
      <trkpt lat="45.38272" lon="4.58098">
        <ele>1473</ele>
        <time>2026-08-18T08:13:31.005Z</time>
      </trkpt>
      <trkpt lat="45.38271" lon="4.58099">
        <ele>1473</ele>
        <time>2026-08-18T08:13:32.005Z</time>
      </trkpt>
      <trkpt lat="45.38271" lon="4.58102">
        <ele>1473.6</ele>
        <time>2026-08-18T08:13:34.006Z</time>
      </trkpt>
      <trkpt lat="45.38271" lon="4.58104">
        <ele>1474.1</ele>
        <time>2026-08-18T08:13:36.005Z</time>
      </trkpt>
      <trkpt lat="45.38271" lon="4.58105">
        <ele>1474.1</ele>
        <time>2026-08-18T08:13:37.005Z</time>
      </trkpt>
      <trkpt lat="45.38272" lon="4.58105">
        <ele>1473.2</ele>
        <time>2026-08-18T08:13:38.005Z</time>
      </trkpt>
      <trkpt lat="45.38272" lon="4.58107">
        <ele>1473.4</ele>
        <time>2026-08-18T08:13:40.004Z</time>
      </trkpt>
      <trkpt lat="45.38273" lon="4.58107">
        <ele>1473.6</ele>
        <time>2026-08-18T08:13:41.005Z</time>
      </trkpt>
      <trkpt lat="45.38275" lon="4.58108">
        <ele>1473.6</ele>
        <time>2026-08-18T08:13:43.004Z</time>
      </trkpt>
      <trkpt lat="45.38276" lon="4.58108">
        <ele>1473.4</ele>
        <time>2026-08-18T08:13:44.004Z</time>
      </trkpt>
      <trkpt lat="45.38278" lon="4.58108">
        <ele>1473.6</ele>
        <time>2026-08-18T08:13:45.872Z</time>
      </trkpt>
      <trkpt lat="45.38279" lon="4.58108">
        <ele>1473.7</ele>
        <time>2026-08-18T08:13:47.011Z</time>
      </trkpt>
      <trkpt lat="45.38281" lon="4.58112">
        <ele>1476</ele>
        <time>2026-08-18T08:13:49.005Z</time>
      </trkpt>
      <trkpt lat="45.38281" lon="4.58115">
        <ele>1475.9</ele>
        <time>2026-08-18T08:13:51.005Z</time>
      </trkpt>
      <trkpt lat="45.38281" lon="4.58119">
        <ele>1474.6</ele>
        <time>2026-08-18T08:13:53.005Z</time>
      </trkpt>
      <trkpt lat="45.38281" lon="4.5812">
        <ele>1473.6</ele>
        <time>2026-08-18T08:13:54.005Z</time>
      </trkpt>
      <trkpt lat="45.3828" lon="4.58122">
        <ele>1474.3</ele>
        <time>2026-08-18T08:13:55.091Z</time>
      </trkpt>
      <trkpt lat="45.3828" lon="4.58125">
        <ele>1475.8</ele>
        <time>2026-08-18T08:13:57.005Z</time>
      </trkpt>
      <trkpt lat="45.38279" lon="4.58126">
        <ele>1474.4</ele>
        <time>2026-08-18T08:13:58.005Z</time>
      </trkpt>
      <trkpt lat="45.38279" lon="4.58127">
        <ele>1474.4</ele>
        <time>2026-08-18T08:13:59.010Z</time>
      </trkpt>
      <trkpt lat="45.38278" lon="4.58129">
        <ele>1471.2</ele>
        <time>2026-08-18T08:14:01.005Z</time>
      </trkpt>
      <trkpt lat="45.38277" lon="4.5813">
        <ele>1471.2</ele>
        <time>2026-08-18T08:14:02.014Z</time>
      </trkpt>
      <trkpt lat="45.38276" lon="4.58131">
        <ele>1472</ele>
        <time>2026-08-18T08:14:03.020Z</time>
      </trkpt>
      <trkpt lat="45.38276" lon="4.58132">
        <ele>1471.4</ele>
        <time>2026-08-18T08:14:04.102Z</time>
      </trkpt>
      <trkpt lat="45.38275" lon="4.58133">
        <ele>1471.1</ele>
        <time>2026-08-18T08:14:06.004Z</time>
      </trkpt>
      <trkpt lat="45.38275" lon="4.58134">
        <ele>1472.9</ele>
        <time>2026-08-18T08:14:07.005Z</time>
      </trkpt>
      <trkpt lat="45.38274" lon="4.58135">
        <ele>1473.4</ele>
        <time>2026-08-18T08:14:08.934Z</time>
      </trkpt>
      <trkpt lat="45.38274" lon="4.58137">
        <ele>1473.7</ele>
        <time>2026-08-18T08:14:11.005Z</time>
      </trkpt>
      <trkpt lat="45.38274" lon="4.58138">
        <ele>1471.5</ele>
        <time>2026-08-18T08:14:12.005Z</time>
      </trkpt>
      <trkpt lat="45.38274" lon="4.5814">
        <ele>1470.8</ele>
        <time>2026-08-18T08:14:13.087Z</time>
      </trkpt>
      <trkpt lat="45.38274" lon="4.58143">
        <ele>1472.4</ele>
        <time>2026-08-18T08:14:15.016Z</time>
      </trkpt>
      <trkpt lat="45.38273" lon="4.58145">
        <ele>1471.7</ele>
        <time>2026-08-18T08:14:17.012Z</time>
      </trkpt>
      <trkpt lat="45.38271" lon="4.58147">
        <ele>1471.4</ele>
        <time>2026-08-18T08:14:19.005Z</time>
      </trkpt>
      <trkpt lat="45.3827" lon="4.58148">
        <ele>1471.5</ele>
        <time>2026-08-18T08:14:20.005Z</time>
      </trkpt>
      <trkpt lat="45.3827" lon="4.58149">
        <ele>1474.4</ele>
        <time>2026-08-18T08:14:21.082Z</time>
      </trkpt>
      <trkpt lat="45.38268" lon="4.5815">
        <ele>1474.4</ele>
        <time>2026-08-18T08:14:23.021Z</time>
      </trkpt>
      <trkpt lat="45.38268" lon="4.5815">
        <ele>1474.4</ele>
        <time>2026-08-18T08:14:24.050Z</time>
      </trkpt>
      <trkpt lat="45.38267" lon="4.58151">
        <ele>1474.4</ele>
        <time>2026-08-18T08:14:26.004Z</time>
      </trkpt>
      <trkpt lat="45.38267" lon="4.58152">
        <ele>1473.9</ele>
        <time>2026-08-18T08:14:27.014Z</time>
      </trkpt>
      <trkpt lat="45.38268" lon="4.58153">
        <ele>1473.7</ele>
        <time>2026-08-18T08:14:28.991Z</time>
      </trkpt>
      <trkpt lat="45.38268" lon="4.58153">
        <ele>1472.5</ele>
        <time>2026-08-18T08:14:30.075Z</time>
      </trkpt>
      <trkpt lat="45.38269" lon="4.58153">
        <ele>1470.9</ele>
        <time>2026-08-18T08:14:32.014Z</time>
      </trkpt>
      <trkpt lat="45.3827" lon="4.58154">
        <ele>1470.7</ele>
        <time>2026-08-18T08:14:34.005Z</time>
      </trkpt>
      <trkpt lat="45.38271" lon="4.58156">
        <ele>1470.6</ele>
        <time>2026-08-18T08:14:36.007Z</time>
      </trkpt>
      <trkpt lat="45.38271" lon="4.58157">
        <ele>1470.6</ele>
        <time>2026-08-18T08:14:37.036Z</time>
      </trkpt>
      <trkpt lat="45.38271" lon="4.58159">
        <ele>1471.2</ele>
        <time>2026-08-18T08:14:39.004Z</time>
      </trkpt>
      <trkpt lat="45.38272" lon="4.58161">
        <ele>1470.4</ele>
        <time>2026-08-18T08:14:40.005Z</time>
      </trkpt>
      <trkpt lat="45.38273" lon="4.58163">
        <ele>1468.3</ele>
        <time>2026-08-18T08:14:42.005Z</time>
      </trkpt>
      <trkpt lat="45.38274" lon="4.58166">
        <ele>1468</ele>
        <time>2026-08-18T08:14:43.909Z</time>
      </trkpt>
      <trkpt lat="45.38273" lon="4.58168">
        <ele>1468</ele>
        <time>2026-08-18T08:14:45.018Z</time>
      </trkpt>
      <trkpt lat="45.38273" lon="4.58171">
        <ele>1465.7</ele>
        <time>2026-08-18T08:14:47.004Z</time>
      </trkpt>
      <trkpt lat="45.38274" lon="4.58172">
        <ele>1465.4</ele>
        <time>2026-08-18T08:14:48.004Z</time>
      </trkpt>
      <trkpt lat="45.38274" lon="4.58174">
        <ele>1464.2</ele>
        <time>2026-08-18T08:14:49.011Z</time>
      </trkpt>
      <trkpt lat="45.38275" lon="4.58177">
        <ele>1463.7</ele>
        <time>2026-08-18T08:14:51.005Z</time>
      </trkpt>
      <trkpt lat="45.38275" lon="4.5818">
        <ele>1463.8</ele>
        <time>2026-08-18T08:14:53.004Z</time>
      </trkpt>
      <trkpt lat="45.38275" lon="4.58181">
        <ele>1465.5</ele>
        <time>2026-08-18T08:14:54.005Z</time>
      </trkpt>
      <trkpt lat="45.38276" lon="4.58183">
        <ele>1465.4</ele>
        <time>2026-08-18T08:14:55.005Z</time>
      </trkpt>
      <trkpt lat="45.38277" lon="4.58186">
        <ele>1466.9</ele>
        <time>2026-08-18T08:14:57.005Z</time>
      </trkpt>
      <trkpt lat="45.38278" lon="4.58187">
        <ele>1466.5</ele>
        <time>2026-08-18T08:14:58.005Z</time>
      </trkpt>
      <trkpt lat="45.38278" lon="4.58189">
        <ele>1468.8</ele>
        <time>2026-08-18T08:14:59.005Z</time>
      </trkpt>
      <trkpt lat="45.38279" lon="4.5819">
        <ele>1469.5</ele>
        <time>2026-08-18T08:15:00.005Z</time>
      </trkpt>
      <trkpt lat="45.3828" lon="4.58192">
        <ele>1471.2</ele>
        <time>2026-08-18T08:15:02.016Z</time>
      </trkpt>
      <trkpt lat="45.38281" lon="4.58195">
        <ele>1473.6</ele>
        <time>2026-08-18T08:15:04.005Z</time>
      </trkpt>
      <trkpt lat="45.38282" lon="4.58197">
        <ele>1473.9</ele>
        <time>2026-08-18T08:15:06.008Z</time>
      </trkpt>
      <trkpt lat="45.38283" lon="4.58199">
        <ele>1469</ele>
        <time>2026-08-18T08:15:08.005Z</time>
      </trkpt>
      <trkpt lat="45.38283" lon="4.58201">
        <ele>1468.1</ele>
        <time>2026-08-18T08:15:10.005Z</time>
      </trkpt>
      <trkpt lat="45.38283" lon="4.58202">
        <ele>1467.5</ele>
        <time>2026-08-18T08:15:12.005Z</time>
      </trkpt>
      <trkpt lat="45.38282" lon="4.58204">
        <ele>1465.4</ele>
        <time>2026-08-18T08:15:14.005Z</time>
      </trkpt>
      <trkpt lat="45.38282" lon="4.58205">
        <ele>1465.9</ele>
        <time>2026-08-18T08:15:15.005Z</time>
      </trkpt>
      <trkpt lat="45.38281" lon="4.58207">
        <ele>1463</ele>
        <time>2026-08-18T08:15:16.914Z</time>
      </trkpt>
      <trkpt lat="45.3828" lon="4.58208">
        <ele>1460.1</ele>
        <time>2026-08-18T08:15:18.004Z</time>
      </trkpt>
      <trkpt lat="45.38279" lon="4.5821">
        <ele>1460.6</ele>
        <time>2026-08-18T08:15:19.005Z</time>
      </trkpt>
      <trkpt lat="45.38278" lon="4.58211">
        <ele>1460.6</ele>
        <time>2026-08-18T08:15:20.070Z</time>
      </trkpt>
      <trkpt lat="45.38277" lon="4.58212">
        <ele>1460.4</ele>
        <time>2026-08-18T08:15:21.084Z</time>
      </trkpt>
      <trkpt lat="45.38277" lon="4.58214">
        <ele>1459.5</ele>
        <time>2026-08-18T08:15:23.005Z</time>
      </trkpt>
      <trkpt lat="45.38276" lon="4.58215">
        <ele>1459.5</ele>
        <time>2026-08-18T08:15:24.015Z</time>
      </trkpt>
      <trkpt lat="45.38275" lon="4.58217">
        <ele>1457.1</ele>
        <time>2026-08-18T08:15:26.005Z</time>
      </trkpt>
      <trkpt lat="45.38275" lon="4.58218">
        <ele>1457.7</ele>
        <time>2026-08-18T08:15:27.017Z</time>
      </trkpt>
      <trkpt lat="45.38274" lon="4.58219">
        <ele>1457</ele>
        <time>2026-08-18T08:15:28.044Z</time>
      </trkpt>
      <trkpt lat="45.38274" lon="4.5822">
        <ele>1457</ele>
        <time>2026-08-18T08:15:29.054Z</time>
      </trkpt>
      <trkpt lat="45.38273" lon="4.58221">
        <ele>1455.9</ele>
        <time>2026-08-18T08:15:30.077Z</time>
      </trkpt>
      <trkpt lat="45.38274" lon="4.58223">
        <ele>1452.5</ele>
        <time>2026-08-18T08:15:32.005Z</time>
      </trkpt>
      <trkpt lat="45.38274" lon="4.58226">
        <ele>1451.8</ele>
        <time>2026-08-18T08:15:34.005Z</time>
      </trkpt>
      <trkpt lat="45.38274" lon="4.58229">
        <ele>1450.5</ele>
        <time>2026-08-18T08:15:36.009Z</time>
      </trkpt>
      <trkpt lat="45.38274" lon="4.58231">
        <ele>1449.1</ele>
        <time>2026-08-18T08:15:38.005Z</time>
      </trkpt>
      <trkpt lat="45.38274" lon="4.58232">
        <ele>1451</ele>
        <time>2026-08-18T08:15:39.005Z</time>
      </trkpt>
      <trkpt lat="45.38275" lon="4.58233">
        <ele>1451</ele>
        <time>2026-08-18T08:15:40.013Z</time>
      </trkpt>
      <trkpt lat="45.38276" lon="4.58236">
        <ele>1456.9</ele>
        <time>2026-08-18T08:15:42.003Z</time>
      </trkpt>
      <trkpt lat="45.38276" lon="4.58237">
        <ele>1457.2</ele>
        <time>2026-08-18T08:15:43.005Z</time>
      </trkpt>
      <trkpt lat="45.38276" lon="4.58238">
        <ele>1457.6</ele>
        <time>2026-08-18T08:15:44.005Z</time>
      </trkpt>
      <trkpt lat="45.38275" lon="4.58239">
        <ele>1458.2</ele>
        <time>2026-08-18T08:15:45.022Z</time>
      </trkpt>
      <trkpt lat="45.38275" lon="4.58242">
        <ele>1455</ele>
        <time>2026-08-18T08:15:47.004Z</time>
      </trkpt>
      <trkpt lat="45.38275" lon="4.58243">
        <ele>1453.9</ele>
        <time>2026-08-18T08:15:48.005Z</time>
      </trkpt>
      <trkpt lat="45.38274" lon="4.58246">
        <ele>1455</ele>
        <time>2026-08-18T08:15:50.004Z</time>
      </trkpt>
      <trkpt lat="45.38274" lon="4.58247">
        <ele>1455</ele>
        <time>2026-08-18T08:15:51.032Z</time>
      </trkpt>
      <trkpt lat="45.38273" lon="4.5825">
        <ele>1457.3</ele>
        <time>2026-08-18T08:15:53.006Z</time>
      </trkpt>
      <trkpt lat="45.38273" lon="4.58251">
        <ele>1458.6</ele>
        <time>2026-08-18T08:15:54.090Z</time>
      </trkpt>
      <trkpt lat="45.38271" lon="4.58252">
        <ele>1459</ele>
        <time>2026-08-18T08:15:55.975Z</time>
      </trkpt>
      <trkpt lat="45.3827" lon="4.58252">
        <ele>1460.7</ele>
        <time>2026-08-18T08:15:57.005Z</time>
      </trkpt>
      <trkpt lat="45.38269" lon="4.58253">
        <ele>1460.5</ele>
        <time>2026-08-18T08:15:58.005Z</time>
      </trkpt>
      <trkpt lat="45.38269" lon="4.58254">
        <ele>1460.5</ele>
        <time>2026-08-18T08:15:59.036Z</time>
      </trkpt>
      <trkpt lat="45.38268" lon="4.58256">
        <ele>1460</ele>
        <time>2026-08-18T08:16:01.005Z</time>
      </trkpt>
      <trkpt lat="45.38267" lon="4.58258">
        <ele>1460</ele>
        <time>2026-08-18T08:16:02.019Z</time>
      </trkpt>
      <trkpt lat="45.38267" lon="4.58259">
        <ele>1459</ele>
        <time>2026-08-18T08:16:03.101Z</time>
      </trkpt>
      <trkpt lat="45.38266" lon="4.58261">
        <ele>1460.5</ele>
        <time>2026-08-18T08:16:05.004Z</time>
      </trkpt>
      <trkpt lat="45.38265" lon="4.58262">
        <ele>1458.8</ele>
        <time>2026-08-18T08:16:07.005Z</time>
      </trkpt>
      <trkpt lat="45.38264" lon="4.58263">
        <ele>1457.1</ele>
        <time>2026-08-18T08:16:08.008Z</time>
      </trkpt>
      <trkpt lat="45.38264" lon="4.58265">
        <ele>1458.4</ele>
        <time>2026-08-18T08:16:09.930Z</time>
      </trkpt>
      <trkpt lat="45.38263" lon="4.58266">
        <ele>1458.7</ele>
        <time>2026-08-18T08:16:11.050Z</time>
      </trkpt>
      <trkpt lat="45.38262" lon="4.58267">
        <ele>1459.3</ele>
        <time>2026-08-18T08:16:13.005Z</time>
      </trkpt>
      <trkpt lat="45.38261" lon="4.58268">
        <ele>1458.7</ele>
        <time>2026-08-18T08:16:14.005Z</time>
      </trkpt>
      <trkpt lat="45.3826" lon="4.5827">
        <ele>1459.3</ele>
        <time>2026-08-18T08:16:16.004Z</time>
      </trkpt>
      <trkpt lat="45.38259" lon="4.58271">
        <ele>1459.3</ele>
        <time>2026-08-18T08:16:17.005Z</time>
      </trkpt>
      <trkpt lat="45.38259" lon="4.58272">
        <ele>1460.4</ele>
        <time>2026-08-18T08:16:18.007Z</time>
      </trkpt>
      <trkpt lat="45.38257" lon="4.58273">
        <ele>1459.5</ele>
        <time>2026-08-18T08:16:19.949Z</time>
      </trkpt>
      <trkpt lat="45.38257" lon="4.58275">
        <ele>1457.9</ele>
        <time>2026-08-18T08:16:21.005Z</time>
      </trkpt>
      <trkpt lat="45.38256" lon="4.58277">
        <ele>1458.1</ele>
        <time>2026-08-18T08:16:22.005Z</time>
      </trkpt>
      <trkpt lat="45.38256" lon="4.58278">
        <ele>1457.5</ele>
        <time>2026-08-18T08:16:23.005Z</time>
      </trkpt>
      <trkpt lat="45.38255" lon="4.5828">
        <ele>1457.5</ele>
        <time>2026-08-18T08:16:24.005Z</time>
      </trkpt>
      <trkpt lat="45.38253" lon="4.58283">
        <ele>1456.1</ele>
        <time>2026-08-18T08:16:26.005Z</time>
      </trkpt>
      <trkpt lat="45.38252" lon="4.58285">
        <ele>1455</ele>
        <time>2026-08-18T08:16:28.066Z</time>
      </trkpt>
      <trkpt lat="45.38251" lon="4.58286">
        <ele>1455.1</ele>
        <time>2026-08-18T08:16:30.004Z</time>
      </trkpt>
      <trkpt lat="45.38251" lon="4.58287">
        <ele>1455.1</ele>
        <time>2026-08-18T08:16:31.033Z</time>
      </trkpt>
      <trkpt lat="45.38251" lon="4.5829">
        <ele>1456.7</ele>
        <time>2026-08-18T08:16:32.974Z</time>
      </trkpt>
      <trkpt lat="45.38251" lon="4.58291">
        <ele>1456.5</ele>
        <time>2026-08-18T08:16:34.004Z</time>
      </trkpt>
      <trkpt lat="45.38251" lon="4.58292">
        <ele>1456.5</ele>
        <time>2026-08-18T08:16:35.005Z</time>
      </trkpt>
      <trkpt lat="45.3825" lon="4.58294">
        <ele>1457.3</ele>
        <time>2026-08-18T08:16:36.976Z</time>
      </trkpt>
      <trkpt lat="45.3825" lon="4.58297">
        <ele>1458.5</ele>
        <time>2026-08-18T08:16:39.005Z</time>
      </trkpt>
      <trkpt lat="45.3825" lon="4.58298">
        <ele>1458.3</ele>
        <time>2026-08-18T08:16:40.005Z</time>
      </trkpt>
      <trkpt lat="45.38248" lon="4.583">
        <ele>1459.5</ele>
        <time>2026-08-18T08:16:42.004Z</time>
      </trkpt>
      <trkpt lat="45.38248" lon="4.58301">
        <ele>1459.2</ele>
        <time>2026-08-18T08:16:43.005Z</time>
      </trkpt>
      <trkpt lat="45.38247" lon="4.58301">
        <ele>1458.6</ele>
        <time>2026-08-18T08:16:44.005Z</time>
      </trkpt>
      <trkpt lat="45.38246" lon="4.58302">
        <ele>1458.8</ele>
        <time>2026-08-18T08:16:45.088Z</time>
      </trkpt>
      <trkpt lat="45.38245" lon="4.58305">
        <ele>1457.8</ele>
        <time>2026-08-18T08:16:47.004Z</time>
      </trkpt>
      <trkpt lat="45.38245" lon="4.58306">
        <ele>1458.6</ele>
        <time>2026-08-18T08:16:48.004Z</time>
      </trkpt>
      <trkpt lat="45.38244" lon="4.58307">
        <ele>1456.1</ele>
        <time>2026-08-18T08:16:49.005Z</time>
      </trkpt>
      <trkpt lat="45.38242" lon="4.58308">
        <ele>1454.9</ele>
        <time>2026-08-18T08:16:51.004Z</time>
      </trkpt>
      <trkpt lat="45.38241" lon="4.58309">
        <ele>1459.4</ele>
        <time>2026-08-18T08:16:52.004Z</time>
      </trkpt>
      <trkpt lat="45.38241" lon="4.5831">
        <ele>1461.1</ele>
        <time>2026-08-18T08:16:53.011Z</time>
      </trkpt>
      <trkpt lat="45.3824" lon="4.58311">
        <ele>1461.1</ele>
        <time>2026-08-18T08:16:54.087Z</time>
      </trkpt>
      <trkpt lat="45.38239" lon="4.58313">
        <ele>1459</ele>
        <time>2026-08-18T08:16:55.913Z</time>
      </trkpt>
      <trkpt lat="45.38239" lon="4.58314">
        <ele>1458.5</ele>
        <time>2026-08-18T08:16:57.004Z</time>
      </trkpt>
      <trkpt lat="45.38238" lon="4.58315">
        <ele>1457.3</ele>
        <time>2026-08-18T08:16:58.005Z</time>
      </trkpt>
      <trkpt lat="45.38237" lon="4.58317">
        <ele>1455.9</ele>
        <time>2026-08-18T08:17:00.007Z</time>
      </trkpt>
      <trkpt lat="45.38235" lon="4.58317">
        <ele>1454.9</ele>
        <time>2026-08-18T08:17:01.996Z</time>
      </trkpt>
      <trkpt lat="45.38234" lon="4.58318">
        <ele>1453.4</ele>
        <time>2026-08-18T08:17:03.831Z</time>
      </trkpt>
      <trkpt lat="45.38233" lon="4.58318">
        <ele>1453.7</ele>
        <time>2026-08-18T08:17:05.005Z</time>
      </trkpt>
      <trkpt lat="45.38232" lon="4.58318">
        <ele>1454.4</ele>
        <time>2026-08-18T08:17:06.005Z</time>
      </trkpt>
      <trkpt lat="45.38231" lon="4.58319">
        <ele>1457</ele>
        <time>2026-08-18T08:17:08.004Z</time>
      </trkpt>
      <trkpt lat="45.38231" lon="4.5832">
        <ele>1455.8</ele>
        <time>2026-08-18T08:17:09.004Z</time>
      </trkpt>
      <trkpt lat="45.3823" lon="4.58322">
        <ele>1452.3</ele>
        <time>2026-08-18T08:17:11.092Z</time>
      </trkpt>
      <trkpt lat="45.3823" lon="4.58322">
        <ele>1451.9</ele>
        <time>2026-08-18T08:17:13.005Z</time>
      </trkpt>
      <trkpt lat="45.3823" lon="4.58322">
        <ele>1452.2</ele>
        <time>2026-08-18T08:17:14.005Z</time>
      </trkpt>
      <trkpt lat="45.38229" lon="4.58322">
        <ele>1452.2</ele>
        <time>2026-08-18T08:17:15.011Z</time>
      </trkpt>
      <trkpt lat="45.38228" lon="4.58322">
        <ele>1452</ele>
        <time>2026-08-18T08:17:17.016Z</time>
      </trkpt>
      <trkpt lat="45.38227" lon="4.58324">
        <ele>1450.2</ele>
        <time>2026-08-18T08:17:19.116Z</time>
      </trkpt>
      <trkpt lat="45.38226" lon="4.58327">
        <ele>1449</ele>
        <time>2026-08-18T08:17:21.005Z</time>
      </trkpt>
      <trkpt lat="45.38225" lon="4.58329">
        <ele>1449.3</ele>
        <time>2026-08-18T08:17:23.005Z</time>
      </trkpt>
      <trkpt lat="45.38225" lon="4.58331">
        <ele>1449.3</ele>
        <time>2026-08-18T08:17:24.013Z</time>
      </trkpt>
      <trkpt lat="45.38225" lon="4.58335">
        <ele>1449.9</ele>
        <time>2026-08-18T08:17:26.004Z</time>
      </trkpt>
      <trkpt lat="45.38224" lon="4.58336">
        <ele>1449.3</ele>
        <time>2026-08-18T08:17:27.024Z</time>
      </trkpt>
      <trkpt lat="45.38223" lon="4.58337">
        <ele>1449.2</ele>
        <time>2026-08-18T08:17:28.087Z</time>
      </trkpt>
      <trkpt lat="45.38222" lon="4.58339">
        <ele>1450.8</ele>
        <time>2026-08-18T08:17:30.009Z</time>
      </trkpt>
      <trkpt lat="45.38221" lon="4.58341">
        <ele>1450.6</ele>
        <time>2026-08-18T08:17:32.004Z</time>
      </trkpt>
      <trkpt lat="45.38221" lon="4.58342">
        <ele>1451.5</ele>
        <time>2026-08-18T08:17:33.004Z</time>
      </trkpt>
      <trkpt lat="45.38221" lon="4.58343">
        <ele>1450.9</ele>
        <time>2026-08-18T08:17:34.005Z</time>
      </trkpt>
      <trkpt lat="45.3822" lon="4.58344">
        <ele>1450</ele>
        <time>2026-08-18T08:17:35.005Z</time>
      </trkpt>
      <trkpt lat="45.3822" lon="4.58345">
        <ele>1449.2</ele>
        <time>2026-08-18T08:17:36.088Z</time>
      </trkpt>
      <trkpt lat="45.3822" lon="4.58347">
        <ele>1447.9</ele>
        <time>2026-08-18T08:17:38.014Z</time>
      </trkpt>
      <trkpt lat="45.38219" lon="4.58348">
        <ele>1448.4</ele>
        <time>2026-08-18T08:17:40.005Z</time>
      </trkpt>
      <trkpt lat="45.38219" lon="4.58349">
        <ele>1447.7</ele>
        <time>2026-08-18T08:17:42.007Z</time>
      </trkpt>
      <trkpt lat="45.38218" lon="4.58349">
        <ele>1448</ele>
        <time>2026-08-18T08:17:44.005Z</time>
      </trkpt>
      <trkpt lat="45.38218" lon="4.58349">
        <ele>1446.3</ele>
        <time>2026-08-18T08:17:45.005Z</time>
      </trkpt>
      <trkpt lat="45.38218" lon="4.5835">
        <ele>1448.8</ele>
        <time>2026-08-18T08:17:46.088Z</time>
      </trkpt>
      <trkpt lat="45.38217" lon="4.58352">
        <ele>1450.5</ele>
        <time>2026-08-18T08:17:48.015Z</time>
      </trkpt>
      <trkpt lat="45.38216" lon="4.58353">
        <ele>1450.3</ele>
        <time>2026-08-18T08:17:49.976Z</time>
      </trkpt>
      <trkpt lat="45.38216" lon="4.58355">
        <ele>1450.6</ele>
        <time>2026-08-18T08:17:52.007Z</time>
      </trkpt>
      <trkpt lat="45.38214" lon="4.58357">
        <ele>1448.9</ele>
        <time>2026-08-18T08:17:54.005Z</time>
      </trkpt>
      <trkpt lat="45.38213" lon="4.58359">
        <ele>1448.2</ele>
        <time>2026-08-18T08:17:56.004Z</time>
      </trkpt>
      <trkpt lat="45.38212" lon="4.58361">
        <ele>1450.1</ele>
        <time>2026-08-18T08:17:58.005Z</time>
      </trkpt>
      <trkpt lat="45.38211" lon="4.58365">
        <ele>1448.8</ele>
        <time>2026-08-18T08:18:00.005Z</time>
      </trkpt>
      <trkpt lat="45.3821" lon="4.58368">
        <ele>1448.1</ele>
        <time>2026-08-18T08:18:02.005Z</time>
      </trkpt>
      <trkpt lat="45.3821" lon="4.58369">
        <ele>1448.6</ele>
        <time>2026-08-18T08:18:03.005Z</time>
      </trkpt>
      <trkpt lat="45.38209" lon="4.58371">
        <ele>1447</ele>
        <time>2026-08-18T08:18:05.005Z</time>
      </trkpt>
      <trkpt lat="45.38208" lon="4.58371">
        <ele>1446.4</ele>
        <time>2026-08-18T08:18:06.005Z</time>
      </trkpt>
      <trkpt lat="45.38208" lon="4.58373">
        <ele>1445.6</ele>
        <time>2026-08-18T08:18:07.005Z</time>
      </trkpt>
      <trkpt lat="45.38207" lon="4.58375">
        <ele>1447.3</ele>
        <time>2026-08-18T08:18:09.005Z</time>
      </trkpt>
      <trkpt lat="45.38207" lon="4.58376">
        <ele>1446.6</ele>
        <time>2026-08-18T08:18:10.005Z</time>
      </trkpt>
      <trkpt lat="45.38207" lon="4.58377">
        <ele>1446.2</ele>
        <time>2026-08-18T08:18:11.005Z</time>
      </trkpt>
      <trkpt lat="45.38206" lon="4.58378">
        <ele>1446.6</ele>
        <time>2026-08-18T08:18:13.005Z</time>
      </trkpt>
      <trkpt lat="45.38206" lon="4.58381">
        <ele>1445.5</ele>
        <time>2026-08-18T08:18:15.005Z</time>
      </trkpt>
      <trkpt lat="45.38207" lon="4.58383">
        <ele>1442.9</ele>
        <time>2026-08-18T08:18:17.005Z</time>
      </trkpt>
      <trkpt lat="45.38207" lon="4.58384">
        <ele>1445.5</ele>
        <time>2026-08-18T08:18:18.005Z</time>
      </trkpt>
      <trkpt lat="45.38207" lon="4.58385">
        <ele>1446.6</ele>
        <time>2026-08-18T08:18:19.005Z</time>
      </trkpt>
      <trkpt lat="45.38208" lon="4.58386">
        <ele>1447.4</ele>
        <time>2026-08-18T08:18:20.005Z</time>
      </trkpt>
      <trkpt lat="45.3821" lon="4.58387">
        <ele>1445.8</ele>
        <time>2026-08-18T08:18:21.957Z</time>
      </trkpt>
      <trkpt lat="45.38211" lon="4.58388">
        <ele>1445.2</ele>
        <time>2026-08-18T08:18:23.005Z</time>
      </trkpt>
      <trkpt lat="45.38212" lon="4.58389">
        <ele>1446.6</ele>
        <time>2026-08-18T08:18:24.005Z</time>
      </trkpt>
      <trkpt lat="45.38212" lon="4.58391">
        <ele>1446.4</ele>
        <time>2026-08-18T08:18:26.004Z</time>
      </trkpt>
      <trkpt lat="45.38212" lon="4.58391">
        <ele>1446</ele>
        <time>2026-08-18T08:18:27.005Z</time>
      </trkpt>
      <trkpt lat="45.38213" lon="4.58393">
        <ele>1448.4</ele>
        <time>2026-08-18T08:18:29.005Z</time>
      </trkpt>
      <trkpt lat="45.38212" lon="4.58395">
        <ele>1448.4</ele>
        <time>2026-08-18T08:18:30.008Z</time>
      </trkpt>
      <trkpt lat="45.38211" lon="4.58397">
        <ele>1449.6</ele>
        <time>2026-08-18T08:18:32.004Z</time>
      </trkpt>
      <trkpt lat="45.38211" lon="4.58399">
        <ele>1451.5</ele>
        <time>2026-08-18T08:18:33.005Z</time>
      </trkpt>
      <trkpt lat="45.38211" lon="4.58402">
        <ele>1450.2</ele>
        <time>2026-08-18T08:18:35.003Z</time>
      </trkpt>
      <trkpt lat="45.38211" lon="4.58404">
        <ele>1449.6</ele>
        <time>2026-08-18T08:18:36.005Z</time>
      </trkpt>
      <trkpt lat="45.38211" lon="4.58405">
        <ele>1449.6</ele>
        <time>2026-08-18T08:18:37.005Z</time>
      </trkpt>
      <trkpt lat="45.3821" lon="4.58407">
        <ele>1447.8</ele>
        <time>2026-08-18T08:18:39.009Z</time>
      </trkpt>
      <trkpt lat="45.38211" lon="4.5841">
        <ele>1446.9</ele>
        <time>2026-08-18T08:18:40.913Z</time>
      </trkpt>
      <trkpt lat="45.38212" lon="4.58412">
        <ele>1446.3</ele>
        <time>2026-08-18T08:18:43.005Z</time>
      </trkpt>
      <trkpt lat="45.38212" lon="4.58415">
        <ele>1448.2</ele>
        <time>2026-08-18T08:18:45.005Z</time>
      </trkpt>
      <trkpt lat="45.38212" lon="4.58416">
        <ele>1447.9</ele>
        <time>2026-08-18T08:18:46.005Z</time>
      </trkpt>
      <trkpt lat="45.38211" lon="4.58417">
        <ele>1448</ele>
        <time>2026-08-18T08:18:47.005Z</time>
      </trkpt>
      <trkpt lat="45.38211" lon="4.58419">
        <ele>1448</ele>
        <time>2026-08-18T08:18:48.034Z</time>
      </trkpt>
      <trkpt lat="45.38208" lon="4.5842">
        <ele>1449.9</ele>
        <time>2026-08-18T08:18:50.005Z</time>
      </trkpt>
      <trkpt lat="45.38207" lon="4.5842">
        <ele>1449.9</ele>
        <time>2026-08-18T08:18:51.005Z</time>
      </trkpt>
      <trkpt lat="45.38206" lon="4.58421">
        <ele>1453.6</ele>
        <time>2026-08-18T08:18:53.005Z</time>
      </trkpt>
      <trkpt lat="45.38206" lon="4.58424">
        <ele>1453</ele>
        <time>2026-08-18T08:18:55.005Z</time>
      </trkpt>
      <trkpt lat="45.38205" lon="4.58425">
        <ele>1455.6</ele>
        <time>2026-08-18T08:18:56.008Z</time>
      </trkpt>
      <trkpt lat="45.38205" lon="4.58427">
        <ele>1458</ele>
        <time>2026-08-18T08:18:58.004Z</time>
      </trkpt>
      <trkpt lat="45.38205" lon="4.58428">
        <ele>1457.8</ele>
        <time>2026-08-18T08:18:59.069Z</time>
      </trkpt>
      <trkpt lat="45.38204" lon="4.58428">
        <ele>1457.1</ele>
        <time>2026-08-18T08:19:00.088Z</time>
      </trkpt>
      <trkpt lat="45.38203" lon="4.58429">
        <ele>1454.6</ele>
        <time>2026-08-18T08:19:02.015Z</time>
      </trkpt>
      <trkpt lat="45.38202" lon="4.5843">
        <ele>1453.3</ele>
        <time>2026-08-18T08:19:03.853Z</time>
      </trkpt>
      <trkpt lat="45.38201" lon="4.5843">
        <ele>1452.1</ele>
        <time>2026-08-18T08:19:05.005Z</time>
      </trkpt>
      <trkpt lat="45.382" lon="4.58431">
        <ele>1450.7</ele>
        <time>2026-08-18T08:19:06.008Z</time>
      </trkpt>
      <trkpt lat="45.38199" lon="4.58432">
        <ele>1449.5</ele>
        <time>2026-08-18T08:19:07.931Z</time>
      </trkpt>
      <trkpt lat="45.38199" lon="4.58432">
        <ele>1448.8</ele>
        <time>2026-08-18T08:19:09.088Z</time>
      </trkpt>
      <trkpt lat="45.38199" lon="4.58433">
        <ele>1448.2</ele>
        <time>2026-08-18T08:19:10.936Z</time>
      </trkpt>
      <trkpt lat="45.38198" lon="4.58435">
        <ele>1448.7</ele>
        <time>2026-08-18T08:19:13.004Z</time>
      </trkpt>
      <trkpt lat="45.38198" lon="4.58435">
        <ele>1449.2</ele>
        <time>2026-08-18T08:19:14.005Z</time>
      </trkpt>
      <trkpt lat="45.38197" lon="4.58437">
        <ele>1448.5</ele>
        <time>2026-08-18T08:19:16.005Z</time>
      </trkpt>
      <trkpt lat="45.38196" lon="4.58438">
        <ele>1449.1</ele>
        <time>2026-08-18T08:19:18.005Z</time>
      </trkpt>
      <trkpt lat="45.38195" lon="4.58439">
        <ele>1450</ele>
        <time>2026-08-18T08:19:19.005Z</time>
      </trkpt>
      <trkpt lat="45.38195" lon="4.5844">
        <ele>1450.6</ele>
        <time>2026-08-18T08:19:20.005Z</time>
      </trkpt>
      <trkpt lat="45.38195" lon="4.58441">
        <ele>1450.2</ele>
        <time>2026-08-18T08:19:21.005Z</time>
      </trkpt>
      <trkpt lat="45.38194" lon="4.58444">
        <ele>1450.1</ele>
        <time>2026-08-18T08:19:23.004Z</time>
      </trkpt>
      <trkpt lat="45.38194" lon="4.58445">
        <ele>1449</ele>
        <time>2026-08-18T08:19:24.015Z</time>
      </trkpt>
      <trkpt lat="45.38193" lon="4.58446">
        <ele>1449</ele>
        <time>2026-08-18T08:19:25.034Z</time>
      </trkpt>
      <trkpt lat="45.38192" lon="4.58448">
        <ele>1450.9</ele>
        <time>2026-08-18T08:19:26.993Z</time>
      </trkpt>
      <trkpt lat="45.3819" lon="4.5845">
        <ele>1448.5</ele>
        <time>2026-08-18T08:19:29.005Z</time>
      </trkpt>
      <trkpt lat="45.38189" lon="4.58451">
        <ele>1450</ele>
        <time>2026-08-18T08:19:30.994Z</time>
      </trkpt>
      <trkpt lat="45.38188" lon="4.58451">
        <ele>1451</ele>
        <time>2026-08-18T08:19:32.005Z</time>
      </trkpt>
      <trkpt lat="45.38185" lon="4.58451">
        <ele>1449.1</ele>
        <time>2026-08-18T08:19:34.004Z</time>
      </trkpt>
      <trkpt lat="45.38183" lon="4.58451">
        <ele>1447.4</ele>
        <time>2026-08-18T08:19:36.005Z</time>
      </trkpt>
      <trkpt lat="45.38182" lon="4.58453">
        <ele>1449.8</ele>
        <time>2026-08-18T08:19:37.915Z</time>
      </trkpt>
      <trkpt lat="45.38182" lon="4.58456">
        <ele>1449.1</ele>
        <time>2026-08-18T08:19:40.005Z</time>
      </trkpt>
      <trkpt lat="45.38182" lon="4.58457">
        <ele>1449.1</ele>
        <time>2026-08-18T08:19:41.035Z</time>
      </trkpt>
      <trkpt lat="45.38183" lon="4.58459">
        <ele>1448.3</ele>
        <time>2026-08-18T08:19:43.005Z</time>
      </trkpt>
      <trkpt lat="45.38183" lon="4.58461">
        <ele>1445.7</ele>
        <time>2026-08-18T08:19:45.005Z</time>
      </trkpt>
      <trkpt lat="45.38182" lon="4.58463">
        <ele>1446.1</ele>
        <time>2026-08-18T08:19:46.957Z</time>
      </trkpt>
      <trkpt lat="45.38182" lon="4.58463">
        <ele>1446.2</ele>
        <time>2026-08-18T08:19:48.005Z</time>
      </trkpt>
      <trkpt lat="45.38183" lon="4.58463">
        <ele>1446</ele>
        <time>2026-08-18T08:19:49.005Z</time>
      </trkpt>
      <trkpt lat="45.38183" lon="4.58464">
        <ele>1445.9</ele>
        <time>2026-08-18T08:19:50.005Z</time>
      </trkpt>
      <trkpt lat="45.38183" lon="4.58465">
        <ele>1443.6</ele>
        <time>2026-08-18T08:19:52.004Z</time>
      </trkpt>
      <trkpt lat="45.38183" lon="4.58466">
        <ele>1443.3</ele>
        <time>2026-08-18T08:19:53.004Z</time>
      </trkpt>
      <trkpt lat="45.38184" lon="4.58465">
        <ele>1445.1</ele>
        <time>2026-08-18T08:19:55.005Z</time>
      </trkpt>
      <trkpt lat="45.38183" lon="4.58464">
        <ele>1445.1</ele>
        <time>2026-08-18T08:19:56.005Z</time>
      </trkpt>
      <trkpt lat="45.38183" lon="4.58463">
        <ele>1445.4</ele>
        <time>2026-08-18T08:19:58.005Z</time>
      </trkpt>
      <trkpt lat="45.38182" lon="4.58462">
        <ele>1443.8</ele>
        <time>2026-08-18T08:20:00.004Z</time>
      </trkpt>
      <trkpt lat="45.38183" lon="4.58462">
        <ele>1443.8</ele>
        <time>2026-08-18T08:20:01.009Z</time>
      </trkpt>
      <trkpt lat="45.38183" lon="4.58462">
        <ele>1442.8</ele>
        <time>2026-08-18T08:20:03.004Z</time>
      </trkpt>
      <trkpt lat="45.38183" lon="4.58462">
        <ele>1441.9</ele>
        <time>2026-08-18T08:20:04.005Z</time>
      </trkpt>
      <trkpt lat="45.38182" lon="4.58462">
        <ele>1442.7</ele>
        <time>2026-08-18T08:20:06.003Z</time>
      </trkpt>
      <trkpt lat="45.38182" lon="4.58463">
        <ele>1442.7</ele>
        <time>2026-08-18T08:20:07.004Z</time>
      </trkpt>
      <trkpt lat="45.38182" lon="4.58463">
        <ele>1442.7</ele>
        <time>2026-08-18T08:20:08.004Z</time>
      </trkpt>
      <trkpt lat="45.38182" lon="4.58463">
        <ele>1442.7</ele>
        <time>2026-08-18T08:20:09.005Z</time>
      </trkpt>
      <trkpt lat="45.38182" lon="4.58463">
        <ele>1442.7</ele>
        <time>2026-08-18T08:20:10.005Z</time>
      </trkpt>
      <trkpt lat="45.38182" lon="4.58463">
        <ele>1442.5</ele>
        <time>2026-08-18T08:20:12.004Z</time>
      </trkpt>
      <trkpt lat="45.38181" lon="4.58463">
        <ele>1442.5</ele>
        <time>2026-08-18T08:20:13.005Z</time>
      </trkpt>
      <trkpt lat="45.38181" lon="4.58463">
        <ele>1442.4</ele>
        <time>2026-08-18T08:20:15.004Z</time>
      </trkpt>
      <trkpt lat="45.38181" lon="4.58463">
        <ele>1442.4</ele>
        <time>2026-08-18T08:20:16.005Z</time>
      </trkpt>
      <trkpt lat="45.38181" lon="4.58463">
        <ele>1442.4</ele>
        <time>2026-08-18T08:20:18.005Z</time>
      </trkpt>
      <trkpt lat="45.38181" lon="4.58463">
        <ele>1442.4</ele>
        <time>2026-08-18T08:20:19.005Z</time>
      </trkpt>
      <trkpt lat="45.38181" lon="4.58463">
        <ele>1442.4</ele>
        <time>2026-08-18T08:20:20.005Z</time>
      </trkpt>
      <trkpt lat="45.38181" lon="4.58463">
        <ele>1441.5</ele>
        <time>2026-08-18T08:20:21.005Z</time>
      </trkpt>
      <trkpt lat="45.38181" lon="4.58463">
        <ele>1441.7</ele>
        <time>2026-08-18T08:20:22.005Z</time>
      </trkpt>
      <trkpt lat="45.38181" lon="4.58463">
        <ele>1441.7</ele>
        <time>2026-08-18T08:20:23.005Z</time>
      </trkpt>
      <trkpt lat="45.3818" lon="4.58463">
        <ele>1441.7</ele>
        <time>2026-08-18T08:20:24.005Z</time>
      </trkpt>
      <trkpt lat="45.3818" lon="4.58463">
        <ele>1441.4</ele>
        <time>2026-08-18T08:20:26.005Z</time>
      </trkpt>
      <trkpt lat="45.38181" lon="4.58463">
        <ele>1441.9</ele>
        <time>2026-08-18T08:20:27.005Z</time>
      </trkpt>
      <trkpt lat="45.38181" lon="4.58463">
        <ele>1441.7</ele>
        <time>2026-08-18T08:20:29.005Z</time>
      </trkpt>
      <trkpt lat="45.38181" lon="4.58463">
        <ele>1441.7</ele>
        <time>2026-08-18T08:20:30.005Z</time>
      </trkpt>
      <trkpt lat="45.38181" lon="4.58463">
        <ele>1441.7</ele>
        <time>2026-08-18T08:20:32.010Z</time>
      </trkpt>
      <trkpt lat="45.38181" lon="4.58463">
        <ele>1442.3</ele>
        <time>2026-08-18T08:20:33.971Z</time>
      </trkpt>
      <trkpt lat="45.38181" lon="4.58463">
        <ele>1442</ele>
        <time>2026-08-18T08:20:34.996Z</time>
      </trkpt>
      <trkpt lat="45.38182" lon="4.58463">
        <ele>1443.2</ele>
        <time>2026-08-18T08:20:36.004Z</time>
      </trkpt>
      <trkpt lat="45.38182" lon="4.58463">
        <ele>1442.9</ele>
        <time>2026-08-18T08:20:37.005Z</time>
      </trkpt>
      <trkpt lat="45.38184" lon="4.58464">
        <ele>1442.8</ele>
        <time>2026-08-18T08:20:39.005Z</time>
      </trkpt>
      <trkpt lat="45.38184" lon="4.58465">
        <ele>1443.3</ele>
        <time>2026-08-18T08:20:41.004Z</time>
      </trkpt>
      <trkpt lat="45.38185" lon="4.58466">
        <ele>1443.2</ele>
        <time>2026-08-18T08:20:43.005Z</time>
      </trkpt>
      <trkpt lat="45.38186" lon="4.58466">
        <ele>1443.1</ele>
        <time>2026-08-18T08:20:44.005Z</time>
      </trkpt>
      <trkpt lat="45.38186" lon="4.58466">
        <ele>1441.4</ele>
        <time>2026-08-18T08:20:45.005Z</time>
      </trkpt>
      <trkpt lat="45.38186" lon="4.58466">
        <ele>1443.8</ele>
        <time>2026-08-18T08:20:46.005Z</time>
      </trkpt>
      <trkpt lat="45.38187" lon="4.58466">
        <ele>1444.3</ele>
        <time>2026-08-18T08:20:47.005Z</time>
      </trkpt>
      <trkpt lat="45.38188" lon="4.58467">
        <ele>1443.4</ele>
        <time>2026-08-18T08:20:49.009Z</time>
      </trkpt>
      <trkpt lat="45.38191" lon="4.58465">
        <ele>1443.7</ele>
        <time>2026-08-18T08:20:51.004Z</time>
      </trkpt>
      <trkpt lat="45.38192" lon="4.58465">
        <ele>1442.8</ele>
        <time>2026-08-18T08:20:52.004Z</time>
      </trkpt>
      <trkpt lat="45.38192" lon="4.58465">
        <ele>1444.9</ele>
        <time>2026-08-18T08:20:53.005Z</time>
      </trkpt>
      <trkpt lat="45.38193" lon="4.58466">
        <ele>1444.9</ele>
        <time>2026-08-18T08:20:54.031Z</time>
      </trkpt>
      <trkpt lat="45.38195" lon="4.58467">
        <ele>1443.4</ele>
        <time>2026-08-18T08:20:56.005Z</time>
      </trkpt>
      <trkpt lat="45.38196" lon="4.58467">
        <ele>1444.2</ele>
        <time>2026-08-18T08:20:57.005Z</time>
      </trkpt>
      <trkpt lat="45.38196" lon="4.58467">
        <ele>1443.7</ele>
        <time>2026-08-18T08:20:58.005Z</time>
      </trkpt>
      <trkpt lat="45.38197" lon="4.58467">
        <ele>1445.2</ele>
        <time>2026-08-18T08:20:59.005Z</time>
      </trkpt>
      <trkpt lat="45.38198" lon="4.58468">
        <ele>1444.7</ele>
        <time>2026-08-18T08:21:01.005Z</time>
      </trkpt>
      <trkpt lat="45.382" lon="4.58469">
        <ele>1441.3</ele>
        <time>2026-08-18T08:21:03.004Z</time>
      </trkpt>
      <trkpt lat="45.38201" lon="4.58469">
        <ele>1440.6</ele>
        <time>2026-08-18T08:21:04.004Z</time>
      </trkpt>
      <trkpt lat="45.38202" lon="4.58469">
        <ele>1440.6</ele>
        <time>2026-08-18T08:21:05.005Z</time>
      </trkpt>
      <trkpt lat="45.38204" lon="4.5847">
        <ele>1441.3</ele>
        <time>2026-08-18T08:21:07.005Z</time>
      </trkpt>
      <trkpt lat="45.38205" lon="4.5847">
        <ele>1441</ele>
        <time>2026-08-18T08:21:08.005Z</time>
      </trkpt>
      <trkpt lat="45.38206" lon="4.58471">
        <ele>1440.2</ele>
        <time>2026-08-18T08:21:09.005Z</time>
      </trkpt>
      <trkpt lat="45.38206" lon="4.58471">
        <ele>1440</ele>
        <time>2026-08-18T08:21:10.005Z</time>
      </trkpt>
      <trkpt lat="45.38208" lon="4.58471">
        <ele>1439.5</ele>
        <time>2026-08-18T08:21:11.933Z</time>
      </trkpt>
      <trkpt lat="45.38209" lon="4.58471">
        <ele>1439.5</ele>
        <time>2026-08-18T08:21:13.005Z</time>
      </trkpt>
      <trkpt lat="45.38211" lon="4.58472">
        <ele>1438.3</ele>
        <time>2026-08-18T08:21:15.004Z</time>
      </trkpt>
      <trkpt lat="45.38212" lon="4.58472">
        <ele>1438.6</ele>
        <time>2026-08-18T08:21:16.005Z</time>
      </trkpt>
      <trkpt lat="45.38212" lon="4.58473">
        <ele>1438.8</ele>
        <time>2026-08-18T08:21:17.005Z</time>
      </trkpt>
      <trkpt lat="45.38213" lon="4.58473">
        <ele>1439</ele>
        <time>2026-08-18T08:21:18.005Z</time>
      </trkpt>
      <trkpt lat="45.38214" lon="4.58474">
        <ele>1439.5</ele>
        <time>2026-08-18T08:21:19.005Z</time>
      </trkpt>
      <trkpt lat="45.38214" lon="4.58475">
        <ele>1439.6</ele>
        <time>2026-08-18T08:21:20.005Z</time>
      </trkpt>
      <trkpt lat="45.38214" lon="4.58477">
        <ele>1440.5</ele>
        <time>2026-08-18T08:21:21.005Z</time>
      </trkpt>
      <trkpt lat="45.38216" lon="4.58479">
        <ele>1441.1</ele>
        <time>2026-08-18T08:21:23.006Z</time>
      </trkpt>
      <trkpt lat="45.38218" lon="4.5848">
        <ele>1441.5</ele>
        <time>2026-08-18T08:21:25.005Z</time>
      </trkpt>
      <trkpt lat="45.3822" lon="4.5848">
        <ele>1442.7</ele>
        <time>2026-08-18T08:21:27.004Z</time>
      </trkpt>
      <trkpt lat="45.38221" lon="4.5848">
        <ele>1442.3</ele>
        <time>2026-08-18T08:21:28.005Z</time>
      </trkpt>
      <trkpt lat="45.38222" lon="4.5848">
        <ele>1443.7</ele>
        <time>2026-08-18T08:21:29.005Z</time>
      </trkpt>
      <trkpt lat="45.38223" lon="4.58479">
        <ele>1443.7</ele>
        <time>2026-08-18T08:21:30.930Z</time>
      </trkpt>
      <trkpt lat="45.38224" lon="4.58479">
        <ele>1443.4</ele>
        <time>2026-08-18T08:21:32.004Z</time>
      </trkpt>
      <trkpt lat="45.38225" lon="4.58479">
        <ele>1442.4</ele>
        <time>2026-08-18T08:21:33.005Z</time>
      </trkpt>
      <trkpt lat="45.38226" lon="4.58479">
        <ele>1443.6</ele>
        <time>2026-08-18T08:21:34.005Z</time>
      </trkpt>
      <trkpt lat="45.38227" lon="4.58479">
        <ele>1443.6</ele>
        <time>2026-08-18T08:21:35.005Z</time>
      </trkpt>
      <trkpt lat="45.38228" lon="4.58478">
        <ele>1443.6</ele>
        <time>2026-08-18T08:21:36.016Z</time>
      </trkpt>
      <trkpt lat="45.38229" lon="4.58478">
        <ele>1444.1</ele>
        <time>2026-08-18T08:21:37.993Z</time>
      </trkpt>
      <trkpt lat="45.3823" lon="4.58478">
        <ele>1445.2</ele>
        <time>2026-08-18T08:21:39.005Z</time>
      </trkpt>
      <trkpt lat="45.38231" lon="4.58478">
        <ele>1444.8</ele>
        <time>2026-08-18T08:21:40.005Z</time>
      </trkpt>
      <trkpt lat="45.38233" lon="4.58479">
        <ele>1445.7</ele>
        <time>2026-08-18T08:21:42.005Z</time>
      </trkpt>
      <trkpt lat="45.38234" lon="4.58479">
        <ele>1445.6</ele>
        <time>2026-08-18T08:21:43.005Z</time>
      </trkpt>
      <trkpt lat="45.38236" lon="4.5848">
        <ele>1445.3</ele>
        <time>2026-08-18T08:21:44.953Z</time>
      </trkpt>
      <trkpt lat="45.38236" lon="4.5848">
        <ele>1445</ele>
        <time>2026-08-18T08:21:46.004Z</time>
      </trkpt>
      <trkpt lat="45.38238" lon="4.5848">
        <ele>1444.5</ele>
        <time>2026-08-18T08:21:48.005Z</time>
      </trkpt>
      <trkpt lat="45.38241" lon="4.58479">
        <ele>1444.7</ele>
        <time>2026-08-18T08:21:50.005Z</time>
      </trkpt>
      <trkpt lat="45.38242" lon="4.58479">
        <ele>1444.6</ele>
        <time>2026-08-18T08:21:51.005Z</time>
      </trkpt>
      <trkpt lat="45.38243" lon="4.58479">
        <ele>1445.2</ele>
        <time>2026-08-18T08:21:52.005Z</time>
      </trkpt>
      <trkpt lat="45.38244" lon="4.58479">
        <ele>1444.8</ele>
        <time>2026-08-18T08:21:53.005Z</time>
      </trkpt>
      <trkpt lat="45.38247" lon="4.58479">
        <ele>1444.3</ele>
        <time>2026-08-18T08:21:55.005Z</time>
      </trkpt>
      <trkpt lat="45.38249" lon="4.58479">
        <ele>1442.4</ele>
        <time>2026-08-18T08:21:57.006Z</time>
      </trkpt>
      <trkpt lat="45.38253" lon="4.58479">
        <ele>1442.5</ele>
        <time>2026-08-18T08:21:59.005Z</time>
      </trkpt>
      <trkpt lat="45.38256" lon="4.58478">
        <ele>1443.4</ele>
        <time>2026-08-18T08:22:01.004Z</time>
      </trkpt>
      <trkpt lat="45.38259" lon="4.58478">
        <ele>1443.8</ele>
        <time>2026-08-18T08:22:03.004Z</time>
      </trkpt>
      <trkpt lat="45.3826" lon="4.58478">
        <ele>1443.8</ele>
        <time>2026-08-18T08:22:04.015Z</time>
      </trkpt>
      <trkpt lat="45.38262" lon="4.58478">
        <ele>1443.4</ele>
        <time>2026-08-18T08:22:06.019Z</time>
      </trkpt>
      <trkpt lat="45.38265" lon="4.58478">
        <ele>1443.3</ele>
        <time>2026-08-18T08:22:07.932Z</time>
      </trkpt>
      <trkpt lat="45.38266" lon="4.58478">
        <ele>1442.2</ele>
        <time>2026-08-18T08:22:09.005Z</time>
      </trkpt>
      <trkpt lat="45.38267" lon="4.58478">
        <ele>1439.7</ele>
        <time>2026-08-18T08:22:10.012Z</time>
      </trkpt>
      <trkpt lat="45.38268" lon="4.58478">
        <ele>1439.7</ele>
        <time>2026-08-18T08:22:11.058Z</time>
      </trkpt>
      <trkpt lat="45.3827" lon="4.58479">
        <ele>1439.3</ele>
        <time>2026-08-18T08:22:12.998Z</time>
      </trkpt>
      <trkpt lat="45.38271" lon="4.58479">
        <ele>1438.5</ele>
        <time>2026-08-18T08:22:14.004Z</time>
      </trkpt>
      <trkpt lat="45.38272" lon="4.58479">
        <ele>1441.5</ele>
        <time>2026-08-18T08:22:15.005Z</time>
      </trkpt>
      <trkpt lat="45.38274" lon="4.58479">
        <ele>1440.9</ele>
        <time>2026-08-18T08:22:17.005Z</time>
      </trkpt>
      <trkpt lat="45.38275" lon="4.5848">
        <ele>1440.8</ele>
        <time>2026-08-18T08:22:18.018Z</time>
      </trkpt>
      <trkpt lat="45.38276" lon="4.58481">
        <ele>1441.1</ele>
        <time>2026-08-18T08:22:19.063Z</time>
      </trkpt>
      <trkpt lat="45.38279" lon="4.58483">
        <ele>1441.4</ele>
        <time>2026-08-18T08:22:21.004Z</time>
      </trkpt>
      <trkpt lat="45.3828" lon="4.58484">
        <ele>1440.5</ele>
        <time>2026-08-18T08:22:22.005Z</time>
      </trkpt>
      <trkpt lat="45.38283" lon="4.58485">
        <ele>1440</ele>
        <time>2026-08-18T08:22:24.005Z</time>
      </trkpt>
      <trkpt lat="45.38285" lon="4.58486">
        <ele>1438.6</ele>
        <time>2026-08-18T08:22:26.005Z</time>
      </trkpt>
      <trkpt lat="45.38286" lon="4.58487">
        <ele>1437.9</ele>
        <time>2026-08-18T08:22:27.005Z</time>
      </trkpt>
      <trkpt lat="45.38288" lon="4.58487">
        <ele>1438.2</ele>
        <time>2026-08-18T08:22:29.005Z</time>
      </trkpt>
      <trkpt lat="45.3829" lon="4.58488">
        <ele>1438</ele>
        <time>2026-08-18T08:22:31.005Z</time>
      </trkpt>
      <trkpt lat="45.38291" lon="4.58488">
        <ele>1437.1</ele>
        <time>2026-08-18T08:22:32.005Z</time>
      </trkpt>
      <trkpt lat="45.38293" lon="4.58488">
        <ele>1437.4</ele>
        <time>2026-08-18T08:22:33.916Z</time>
      </trkpt>
      <trkpt lat="45.38294" lon="4.58488">
        <ele>1439.7</ele>
        <time>2026-08-18T08:22:35.004Z</time>
      </trkpt>
      <trkpt lat="45.38294" lon="4.58488">
        <ele>1440</ele>
        <time>2026-08-18T08:22:36.004Z</time>
      </trkpt>
      <trkpt lat="45.38295" lon="4.58487">
        <ele>1439</ele>
        <time>2026-08-18T08:22:37.005Z</time>
      </trkpt>
      <trkpt lat="45.38297" lon="4.58487">
        <ele>1437.6</ele>
        <time>2026-08-18T08:22:39.004Z</time>
      </trkpt>
      <trkpt lat="45.38299" lon="4.58485">
        <ele>1437</ele>
        <time>2026-08-18T08:22:41.005Z</time>
      </trkpt>
      <trkpt lat="45.38301" lon="4.58484">
        <ele>1436.6</ele>
        <time>2026-08-18T08:22:43.005Z</time>
      </trkpt>
      <trkpt lat="45.38302" lon="4.58484">
        <ele>1437</ele>
        <time>2026-08-18T08:22:44.005Z</time>
      </trkpt>
      <trkpt lat="45.38303" lon="4.58483">
        <ele>1436.4</ele>
        <time>2026-08-18T08:22:45.095Z</time>
      </trkpt>
      <trkpt lat="45.38304" lon="4.58482">
        <ele>1434.8</ele>
        <time>2026-08-18T08:22:47.003Z</time>
      </trkpt>
      <trkpt lat="45.38305" lon="4.58481">
        <ele>1433.7</ele>
        <time>2026-08-18T08:22:48.004Z</time>
      </trkpt>
      <trkpt lat="45.38305" lon="4.5848">
        <ele>1433.7</ele>
        <time>2026-08-18T08:22:49.005Z</time>
      </trkpt>
      <trkpt lat="45.38307" lon="4.58478">
        <ele>1435.2</ele>
        <time>2026-08-18T08:22:51.005Z</time>
      </trkpt>
      <trkpt lat="45.38308" lon="4.58477">
        <ele>1435.7</ele>
        <time>2026-08-18T08:22:52.005Z</time>
      </trkpt>
      <trkpt lat="45.38308" lon="4.58477">
        <ele>1433.8</ele>
        <time>2026-08-18T08:22:53.005Z</time>
      </trkpt>
      <trkpt lat="45.3831" lon="4.58477">
        <ele>1433.8</ele>
        <time>2026-08-18T08:22:54.072Z</time>
      </trkpt>
      <trkpt lat="45.38312" lon="4.58477">
        <ele>1433.6</ele>
        <time>2026-08-18T08:22:56.004Z</time>
      </trkpt>
      <trkpt lat="45.38313" lon="4.58478">
        <ele>1434.5</ele>
        <time>2026-08-18T08:22:58.005Z</time>
      </trkpt>
      <trkpt lat="45.38314" lon="4.58478">
        <ele>1436.4</ele>
        <time>2026-08-18T08:22:59.005Z</time>
      </trkpt>
      <trkpt lat="45.38315" lon="4.58478">
        <ele>1437.2</ele>
        <time>2026-08-18T08:23:00.005Z</time>
      </trkpt>
      <trkpt lat="45.38316" lon="4.58478">
        <ele>1437.3</ele>
        <time>2026-08-18T08:23:01.009Z</time>
      </trkpt>
      <trkpt lat="45.38318" lon="4.58479">
        <ele>1435.9</ele>
        <time>2026-08-18T08:23:03.004Z</time>
      </trkpt>
      <trkpt lat="45.38318" lon="4.58479">
        <ele>1435.5</ele>
        <time>2026-08-18T08:23:04.014Z</time>
      </trkpt>
      <trkpt lat="45.3832" lon="4.5848">
        <ele>1435.4</ele>
        <time>2026-08-18T08:23:06.004Z</time>
      </trkpt>
      <trkpt lat="45.38321" lon="4.58481">
        <ele>1436</ele>
        <time>2026-08-18T08:23:07.005Z</time>
      </trkpt>
      <trkpt lat="45.38323" lon="4.58482">
        <ele>1435.8</ele>
        <time>2026-08-18T08:23:09.005Z</time>
      </trkpt>
      <trkpt lat="45.38325" lon="4.58483">
        <ele>1438.5</ele>
        <time>2026-08-18T08:23:11.068Z</time>
      </trkpt>
      <trkpt lat="45.38326" lon="4.58483">
        <ele>1440.7</ele>
        <time>2026-08-18T08:23:12.088Z</time>
      </trkpt>
      <trkpt lat="45.38328" lon="4.58484">
        <ele>1440.3</ele>
        <time>2026-08-18T08:23:14.004Z</time>
      </trkpt>
      <trkpt lat="45.38329" lon="4.58484">
        <ele>1441.2</ele>
        <time>2026-08-18T08:23:15.004Z</time>
      </trkpt>
      <trkpt lat="45.3833" lon="4.58485">
        <ele>1440.8</ele>
        <time>2026-08-18T08:23:16.004Z</time>
      </trkpt>
      <trkpt lat="45.3833" lon="4.58484">
        <ele>1440.9</ele>
        <time>2026-08-18T08:23:17.005Z</time>
      </trkpt>
      <trkpt lat="45.38331" lon="4.58484">
        <ele>1441.8</ele>
        <time>2026-08-18T08:23:18.008Z</time>
      </trkpt>
      <trkpt lat="45.38331" lon="4.58483">
        <ele>1436.1</ele>
        <time>2026-08-18T08:23:19.087Z</time>
      </trkpt>
      <trkpt lat="45.38333" lon="4.58483">
        <ele>1436.5</ele>
        <time>2026-08-18T08:23:21.005Z</time>
      </trkpt>
      <trkpt lat="45.38334" lon="4.58483">
        <ele>1438</ele>
        <time>2026-08-18T08:23:22.021Z</time>
      </trkpt>
      <trkpt lat="45.38336" lon="4.58483">
        <ele>1437.7</ele>
        <time>2026-08-18T08:23:23.876Z</time>
      </trkpt>
      <trkpt lat="45.38337" lon="4.58483">
        <ele>1439.3</ele>
        <time>2026-08-18T08:23:25.004Z</time>
      </trkpt>
      <trkpt lat="45.38338" lon="4.58483">
        <ele>1439.2</ele>
        <time>2026-08-18T08:23:26.004Z</time>
      </trkpt>
      <trkpt lat="45.38339" lon="4.58484">
        <ele>1437.9</ele>
        <time>2026-08-18T08:23:27.005Z</time>
      </trkpt>
      <trkpt lat="45.3834" lon="4.58484">
        <ele>1438</ele>
        <time>2026-08-18T08:23:28.005Z</time>
      </trkpt>
      <trkpt lat="45.38342" lon="4.58485">
        <ele>1438.8</ele>
        <time>2026-08-18T08:23:29.952Z</time>
      </trkpt>
      <trkpt lat="45.38343" lon="4.58485">
        <ele>1438.8</ele>
        <time>2026-08-18T08:23:31.004Z</time>
      </trkpt>
      <trkpt lat="45.38344" lon="4.58486">
        <ele>1438.1</ele>
        <time>2026-08-18T08:23:32.004Z</time>
      </trkpt>
      <trkpt lat="45.38345" lon="4.58487">
        <ele>1437</ele>
        <time>2026-08-18T08:23:33.005Z</time>
      </trkpt>
      <trkpt lat="45.38345" lon="4.58488">
        <ele>1437.2</ele>
        <time>2026-08-18T08:23:34.005Z</time>
      </trkpt>
      <trkpt lat="45.38347" lon="4.58489">
        <ele>1437.4</ele>
        <time>2026-08-18T08:23:36.088Z</time>
      </trkpt>
      <trkpt lat="45.38349" lon="4.5849">
        <ele>1436.1</ele>
        <time>2026-08-18T08:23:38.004Z</time>
      </trkpt>
      <trkpt lat="45.3835" lon="4.5849">
        <ele>1434.1</ele>
        <time>2026-08-18T08:23:39.004Z</time>
      </trkpt>
      <trkpt lat="45.38351" lon="4.5849">
        <ele>1434.1</ele>
        <time>2026-08-18T08:23:40.004Z</time>
      </trkpt>
      <trkpt lat="45.38352" lon="4.5849">
        <ele>1434.1</ele>
        <time>2026-08-18T08:23:41.037Z</time>
      </trkpt>
      <trkpt lat="45.38355" lon="4.58489">
        <ele>1433.8</ele>
        <time>2026-08-18T08:23:43.005Z</time>
      </trkpt>
      <trkpt lat="45.38357" lon="4.58489">
        <ele>1432.8</ele>
        <time>2026-08-18T08:23:44.935Z</time>
      </trkpt>
      <trkpt lat="45.38358" lon="4.58489">
        <ele>1432.5</ele>
        <time>2026-08-18T08:23:46.004Z</time>
      </trkpt>
      <trkpt lat="45.3836" lon="4.58488">
        <ele>1432.8</ele>
        <time>2026-08-18T08:23:47.005Z</time>
      </trkpt>
      <trkpt lat="45.38361" lon="4.58488">
        <ele>1433.2</ele>
        <time>2026-08-18T08:23:48.013Z</time>
      </trkpt>
      <trkpt lat="45.38363" lon="4.58487">
        <ele>1431.2</ele>
        <time>2026-08-18T08:23:50.005Z</time>
      </trkpt>
      <trkpt lat="45.38363" lon="4.58486">
        <ele>1428.6</ele>
        <time>2026-08-18T08:23:51.005Z</time>
      </trkpt>
      <trkpt lat="45.38364" lon="4.58485">
        <ele>1428.6</ele>
        <time>2026-08-18T08:23:52.005Z</time>
      </trkpt>
      <trkpt lat="45.38365" lon="4.58485">
        <ele>1428.6</ele>
        <time>2026-08-18T08:23:53.015Z</time>
      </trkpt>
      <trkpt lat="45.38366" lon="4.58485">
        <ele>1430.2</ele>
        <time>2026-08-18T08:23:55.005Z</time>
      </trkpt>
      <trkpt lat="45.38367" lon="4.58485">
        <ele>1430.1</ele>
        <time>2026-08-18T08:23:56.005Z</time>
      </trkpt>
      <trkpt lat="45.38368" lon="4.58485">
        <ele>1429.4</ele>
        <time>2026-08-18T08:23:57.005Z</time>
      </trkpt>
      <trkpt lat="45.38369" lon="4.58484">
        <ele>1430.7</ele>
        <time>2026-08-18T08:23:59.005Z</time>
      </trkpt>
      <trkpt lat="45.3837" lon="4.58484">
        <ele>1430.7</ele>
        <time>2026-08-18T08:24:00.033Z</time>
      </trkpt>
      <trkpt lat="45.38373" lon="4.58486">
        <ele>1428.6</ele>
        <time>2026-08-18T08:24:02.005Z</time>
      </trkpt>
      <trkpt lat="45.38375" lon="4.58487">
        <ele>1426.7</ele>
        <time>2026-08-18T08:24:04.005Z</time>
      </trkpt>
      <trkpt lat="45.38376" lon="4.58486">
        <ele>1426.8</ele>
        <time>2026-08-18T08:24:05.012Z</time>
      </trkpt>
      <trkpt lat="45.38377" lon="4.58486">
        <ele>1425.3</ele>
        <time>2026-08-18T08:24:07.005Z</time>
      </trkpt>
      <trkpt lat="45.38379" lon="4.58485">
        <ele>1425.4</ele>
        <time>2026-08-18T08:24:09.005Z</time>
      </trkpt>
      <trkpt lat="45.3838" lon="4.58485">
        <ele>1424.8</ele>
        <time>2026-08-18T08:24:10.005Z</time>
      </trkpt>
      <trkpt lat="45.38381" lon="4.58485">
        <ele>1424.5</ele>
        <time>2026-08-18T08:24:12.004Z</time>
      </trkpt>
      <trkpt lat="45.38382" lon="4.58485">
        <ele>1426.3</ele>
        <time>2026-08-18T08:24:13.017Z</time>
      </trkpt>
      <trkpt lat="45.38384" lon="4.58485">
        <ele>1427.9</ele>
        <time>2026-08-18T08:24:15.005Z</time>
      </trkpt>
      <trkpt lat="45.38385" lon="4.58485">
        <ele>1425.8</ele>
        <time>2026-08-18T08:24:17.005Z</time>
      </trkpt>
      <trkpt lat="45.38386" lon="4.58484">
        <ele>1425.1</ele>
        <time>2026-08-18T08:24:18.005Z</time>
      </trkpt>
      <trkpt lat="45.38387" lon="4.58484">
        <ele>1425.2</ele>
        <time>2026-08-18T08:24:19.005Z</time>
      </trkpt>
      <trkpt lat="45.38387" lon="4.58484">
        <ele>1425</ele>
        <time>2026-08-18T08:24:20.005Z</time>
      </trkpt>
      <trkpt lat="45.38388" lon="4.58485">
        <ele>1425</ele>
        <time>2026-08-18T08:24:21.005Z</time>
      </trkpt>
      <trkpt lat="45.38388" lon="4.58485">
        <ele>1424.8</ele>
        <time>2026-08-18T08:24:22.005Z</time>
      </trkpt>
      <trkpt lat="45.38388" lon="4.58486">
        <ele>1423.7</ele>
        <time>2026-08-18T08:24:24.004Z</time>
      </trkpt>
      <trkpt lat="45.38389" lon="4.58487">
        <ele>1423.5</ele>
        <time>2026-08-18T08:24:25.005Z</time>
      </trkpt>
      <trkpt lat="45.38389" lon="4.58489">
        <ele>1423.6</ele>
        <time>2026-08-18T08:24:26.005Z</time>
      </trkpt>
      <trkpt lat="45.3839" lon="4.58491">
        <ele>1424</ele>
        <time>2026-08-18T08:24:28.004Z</time>
      </trkpt>
      <trkpt lat="45.3839" lon="4.58492">
        <ele>1424.5</ele>
        <time>2026-08-18T08:24:29.005Z</time>
      </trkpt>
      <trkpt lat="45.3839" lon="4.58495">
        <ele>1424.4</ele>
        <time>2026-08-18T08:24:31.005Z</time>
      </trkpt>
      <trkpt lat="45.38391" lon="4.58497">
        <ele>1424.5</ele>
        <time>2026-08-18T08:24:33.004Z</time>
      </trkpt>
      <trkpt lat="45.3839" lon="4.58497">
        <ele>1426.2</ele>
        <time>2026-08-18T08:24:34.008Z</time>
      </trkpt>
      <trkpt lat="45.38391" lon="4.58498">
        <ele>1426.3</ele>
        <time>2026-08-18T08:24:36.004Z</time>
      </trkpt>
      <trkpt lat="45.38391" lon="4.58497">
        <ele>1426.6</ele>
        <time>2026-08-18T08:24:37.004Z</time>
      </trkpt>
      <trkpt lat="45.38391" lon="4.58497">
        <ele>1426.6</ele>
        <time>2026-08-18T08:24:38.005Z</time>
      </trkpt>
      <trkpt lat="45.38391" lon="4.58497">
        <ele>1426.4</ele>
        <time>2026-08-18T08:24:40.005Z</time>
      </trkpt>
      <trkpt lat="45.38391" lon="4.58497">
        <ele>1426.6</ele>
        <time>2026-08-18T08:24:41.005Z</time>
      </trkpt>
      <trkpt lat="45.38391" lon="4.58498">
        <ele>1426.6</ele>
        <time>2026-08-18T08:24:42.005Z</time>
      </trkpt>
      <trkpt lat="45.38392" lon="4.58499">
        <ele>1426.6</ele>
        <time>2026-08-18T08:24:43.005Z</time>
      </trkpt>
      <trkpt lat="45.38392" lon="4.585">
        <ele>1426.7</ele>
        <time>2026-08-18T08:24:44.005Z</time>
      </trkpt>
      <trkpt lat="45.38392" lon="4.58501">
        <ele>1426.3</ele>
        <time>2026-08-18T08:24:45.005Z</time>
      </trkpt>
      <trkpt lat="45.38393" lon="4.58503">
        <ele>1426.3</ele>
        <time>2026-08-18T08:24:47.005Z</time>
      </trkpt>
      <trkpt lat="45.38393" lon="4.58505">
        <ele>1426.1</ele>
        <time>2026-08-18T08:24:48.005Z</time>
      </trkpt>
      <trkpt lat="45.38393" lon="4.58506">
        <ele>1425.5</ele>
        <time>2026-08-18T08:24:49.005Z</time>
      </trkpt>
      <trkpt lat="45.38393" lon="4.58507">
        <ele>1425.4</ele>
        <time>2026-08-18T08:24:50.005Z</time>
      </trkpt>
      <trkpt lat="45.38393" lon="4.58509">
        <ele>1425.8</ele>
        <time>2026-08-18T08:24:51.009Z</time>
      </trkpt>
      <trkpt lat="45.38393" lon="4.58511">
        <ele>1426.2</ele>
        <time>2026-08-18T08:24:52.989Z</time>
      </trkpt>
      <trkpt lat="45.38394" lon="4.58512">
        <ele>1426</ele>
        <time>2026-08-18T08:24:54.005Z</time>
      </trkpt>
      <trkpt lat="45.38394" lon="4.58513">
        <ele>1425.9</ele>
        <time>2026-08-18T08:24:55.005Z</time>
      </trkpt>
      <trkpt lat="45.38394" lon="4.58516">
        <ele>1426.1</ele>
        <time>2026-08-18T08:24:57.004Z</time>
      </trkpt>
      <trkpt lat="45.38395" lon="4.58517">
        <ele>1425.8</ele>
        <time>2026-08-18T08:24:58.005Z</time>
      </trkpt>
      <trkpt lat="45.38395" lon="4.58519">
        <ele>1426.4</ele>
        <time>2026-08-18T08:25:00.004Z</time>
      </trkpt>
      <trkpt lat="45.38396" lon="4.58522">
        <ele>1426.3</ele>
        <time>2026-08-18T08:25:02.005Z</time>
      </trkpt>
      <trkpt lat="45.38396" lon="4.58523">
        <ele>1426.8</ele>
        <time>2026-08-18T08:25:03.005Z</time>
      </trkpt>
      <trkpt lat="45.38396" lon="4.58524">
        <ele>1427.2</ele>
        <time>2026-08-18T08:25:04.005Z</time>
      </trkpt>
      <trkpt lat="45.38397" lon="4.58527">
        <ele>1428.5</ele>
        <time>2026-08-18T08:25:06.005Z</time>
      </trkpt>
      <trkpt lat="45.38397" lon="4.58528">
        <ele>1428.4</ele>
        <time>2026-08-18T08:25:07.005Z</time>
      </trkpt>
      <trkpt lat="45.38398" lon="4.58531">
        <ele>1427.6</ele>
        <time>2026-08-18T08:25:09.087Z</time>
      </trkpt>
      <trkpt lat="45.38398" lon="4.58532">
        <ele>1427.6</ele>
        <time>2026-08-18T08:25:10.120Z</time>
      </trkpt>
      <trkpt lat="45.38399" lon="4.58534">
        <ele>1427.1</ele>
        <time>2026-08-18T08:25:11.149Z</time>
      </trkpt>
      <trkpt lat="45.384" lon="4.58536">
        <ele>1427</ele>
        <time>2026-08-18T08:25:12.394Z</time>
      </trkpt>
      <trkpt lat="45.384" lon="4.58538">
        <ele>1426.1</ele>
        <time>2026-08-18T08:25:13.574Z</time>
      </trkpt>
      <trkpt lat="45.38401" lon="4.5854">
        <ele>1426</ele>
        <time>2026-08-18T08:25:14.829Z</time>
      </trkpt>
      <trkpt lat="45.38401" lon="4.58542">
        <ele>1425.1</ele>
        <time>2026-08-18T08:25:16.005Z</time>
      </trkpt>
      <trkpt lat="45.38402" lon="4.58543">
        <ele>1425</ele>
        <time>2026-08-18T08:25:17.005Z</time>
      </trkpt>
      <trkpt lat="45.38403" lon="4.58545">
        <ele>1424.9</ele>
        <time>2026-08-18T08:25:19.019Z</time>
      </trkpt>
      <trkpt lat="45.38404" lon="4.58548">
        <ele>1423.8</ele>
        <time>2026-08-18T08:25:21.005Z</time>
      </trkpt>
      <trkpt lat="45.38404" lon="4.5855">
        <ele>1423.8</ele>
        <time>2026-08-18T08:25:23.012Z</time>
      </trkpt>
      <trkpt lat="45.38405" lon="4.58553">
        <ele>1423.9</ele>
        <time>2026-08-18T08:25:25.005Z</time>
      </trkpt>
      <trkpt lat="45.38405" lon="4.58554">
        <ele>1423.8</ele>
        <time>2026-08-18T08:25:26.005Z</time>
      </trkpt>
      <trkpt lat="45.38406" lon="4.58556">
        <ele>1423.5</ele>
        <time>2026-08-18T08:25:27.005Z</time>
      </trkpt>
      <trkpt lat="45.38407" lon="4.58557">
        <ele>1423.3</ele>
        <time>2026-08-18T08:25:28.005Z</time>
      </trkpt>
      <trkpt lat="45.38408" lon="4.5856">
        <ele>1422.8</ele>
        <time>2026-08-18T08:25:30.005Z</time>
      </trkpt>
      <trkpt lat="45.38408" lon="4.58561">
        <ele>1422.6</ele>
        <time>2026-08-18T08:25:31.005Z</time>
      </trkpt>
      <trkpt lat="45.3841" lon="4.58563">
        <ele>1422.6</ele>
        <time>2026-08-18T08:25:32.931Z</time>
      </trkpt>
      <trkpt lat="45.3841" lon="4.58565">
        <ele>1423.7</ele>
        <time>2026-08-18T08:25:34.015Z</time>
      </trkpt>
      <trkpt lat="45.38411" lon="4.58566">
        <ele>1423.2</ele>
        <time>2026-08-18T08:25:35.087Z</time>
      </trkpt>
      <trkpt lat="45.38412" lon="4.58568">
        <ele>1423</ele>
        <time>2026-08-18T08:25:36.915Z</time>
      </trkpt>
      <trkpt lat="45.38412" lon="4.58571">
        <ele>1423.6</ele>
        <time>2026-08-18T08:25:38.004Z</time>
      </trkpt>
      <trkpt lat="45.38412" lon="4.58572">
        <ele>1423.4</ele>
        <time>2026-08-18T08:25:39.004Z</time>
      </trkpt>
      <trkpt lat="45.38413" lon="4.58574">
        <ele>1423.8</ele>
        <time>2026-08-18T08:25:40.005Z</time>
      </trkpt>
      <trkpt lat="45.38413" lon="4.58576">
        <ele>1424.1</ele>
        <time>2026-08-18T08:25:41.005Z</time>
      </trkpt>
      <trkpt lat="45.38413" lon="4.58578">
        <ele>1424.1</ele>
        <time>2026-08-18T08:25:42.012Z</time>
      </trkpt>
      <trkpt lat="45.38416" lon="4.58581">
        <ele>1425.4</ele>
        <time>2026-08-18T08:25:44.005Z</time>
      </trkpt>
      <trkpt lat="45.38417" lon="4.58584">
        <ele>1425.4</ele>
        <time>2026-08-18T08:25:45.995Z</time>
      </trkpt>
      <trkpt lat="45.38418" lon="4.58584">
        <ele>1424.9</ele>
        <time>2026-08-18T08:25:47.005Z</time>
      </trkpt>
      <trkpt lat="45.38419" lon="4.58587">
        <ele>1424</ele>
        <time>2026-08-18T08:25:49.005Z</time>
      </trkpt>
      <trkpt lat="45.3842" lon="4.58588">
        <ele>1424</ele>
        <time>2026-08-18T08:25:50.017Z</time>
      </trkpt>
      <trkpt lat="45.38421" lon="4.5859">
        <ele>1423.7</ele>
        <time>2026-08-18T08:25:52.005Z</time>
      </trkpt>
      <trkpt lat="45.38422" lon="4.58591">
        <ele>1424.7</ele>
        <time>2026-08-18T08:25:53.005Z</time>
      </trkpt>
      <trkpt lat="45.38423" lon="4.58592">
        <ele>1424.8</ele>
        <time>2026-08-18T08:25:54.008Z</time>
      </trkpt>
      <trkpt lat="45.38424" lon="4.58593">
        <ele>1424.4</ele>
        <time>2026-08-18T08:25:55.034Z</time>
      </trkpt>
      <trkpt lat="45.38423" lon="4.58598">
        <ele>1424.3</ele>
        <time>2026-08-18T08:25:57.005Z</time>
      </trkpt>
      <trkpt lat="45.38424" lon="4.586">
        <ele>1424.5</ele>
        <time>2026-08-18T08:25:59.004Z</time>
      </trkpt>
      <trkpt lat="45.38424" lon="4.58601">
        <ele>1423.4</ele>
        <time>2026-08-18T08:26:00.004Z</time>
      </trkpt>
      <trkpt lat="45.38425" lon="4.58602">
        <ele>1423</ele>
        <time>2026-08-18T08:26:01.005Z</time>
      </trkpt>
      <trkpt lat="45.38426" lon="4.58603">
        <ele>1422.6</ele>
        <time>2026-08-18T08:26:02.088Z</time>
      </trkpt>
      <trkpt lat="45.38426" lon="4.58606">
        <ele>1422.9</ele>
        <time>2026-08-18T08:26:04.004Z</time>
      </trkpt>
      <trkpt lat="45.38426" lon="4.58607">
        <ele>1423.4</ele>
        <time>2026-08-18T08:26:05.004Z</time>
      </trkpt>
      <trkpt lat="45.38427" lon="4.58609">
        <ele>1423.1</ele>
        <time>2026-08-18T08:26:07.004Z</time>
      </trkpt>
      <trkpt lat="45.38427" lon="4.5861">
        <ele>1422.7</ele>
        <time>2026-08-18T08:26:08.004Z</time>
      </trkpt>
      <trkpt lat="45.38428" lon="4.58611">
        <ele>1422.4</ele>
        <time>2026-08-18T08:26:09.005Z</time>
      </trkpt>
      <trkpt lat="45.38428" lon="4.58613">
        <ele>1422</ele>
        <time>2026-08-18T08:26:10.005Z</time>
      </trkpt>
      <trkpt lat="45.38429" lon="4.58614">
        <ele>1422</ele>
        <time>2026-08-18T08:26:11.005Z</time>
      </trkpt>
      <trkpt lat="45.3843" lon="4.58615">
        <ele>1421.9</ele>
        <time>2026-08-18T08:26:12.005Z</time>
      </trkpt>
      <trkpt lat="45.3843" lon="4.58616">
        <ele>1422</ele>
        <time>2026-08-18T08:26:13.005Z</time>
      </trkpt>
      <trkpt lat="45.38431" lon="4.58617">
        <ele>1421.8</ele>
        <time>2026-08-18T08:26:14.005Z</time>
      </trkpt>
      <trkpt lat="45.38431" lon="4.58618">
        <ele>1421.8</ele>
        <time>2026-08-18T08:26:15.013Z</time>
      </trkpt>
      <trkpt lat="45.38432" lon="4.58621">
        <ele>1422.2</ele>
        <time>2026-08-18T08:26:17.004Z</time>
      </trkpt>
      <trkpt lat="45.38432" lon="4.58622">
        <ele>1422.4</ele>
        <time>2026-08-18T08:26:18.005Z</time>
      </trkpt>
      <trkpt lat="45.38433" lon="4.58624">
        <ele>1422.7</ele>
        <time>2026-08-18T08:26:20.005Z</time>
      </trkpt>
      <trkpt lat="45.38433" lon="4.58626">
        <ele>1422.2</ele>
        <time>2026-08-18T08:26:21.010Z</time>
      </trkpt>
      <trkpt lat="45.38434" lon="4.58628">
        <ele>1422.5</ele>
        <time>2026-08-18T08:26:23.005Z</time>
      </trkpt>
      <trkpt lat="45.38435" lon="4.58629">
        <ele>1422.2</ele>
        <time>2026-08-18T08:26:24.005Z</time>
      </trkpt>
      <trkpt lat="45.38435" lon="4.5863">
        <ele>1422</ele>
        <time>2026-08-18T08:26:25.005Z</time>
      </trkpt>
      <trkpt lat="45.38435" lon="4.58632">
        <ele>1422.1</ele>
        <time>2026-08-18T08:26:26.030Z</time>
      </trkpt>
      <trkpt lat="45.38437" lon="4.58633">
        <ele>1422.6</ele>
        <time>2026-08-18T08:26:28.005Z</time>
      </trkpt>
      <trkpt lat="45.38437" lon="4.58634">
        <ele>1422.9</ele>
        <time>2026-08-18T08:26:29.005Z</time>
      </trkpt>
      <trkpt lat="45.38437" lon="4.58638">
        <ele>1422.8</ele>
        <time>2026-08-18T08:26:31.005Z</time>
      </trkpt>
      <trkpt lat="45.38437" lon="4.58643">
        <ele>1423.1</ele>
        <time>2026-08-18T08:26:33.004Z</time>
      </trkpt>
      <trkpt lat="45.38436" lon="4.58646">
        <ele>1423.2</ele>
        <time>2026-08-18T08:26:34.016Z</time>
      </trkpt>
      <trkpt lat="45.38436" lon="4.58648">
        <ele>1423</ele>
        <time>2026-08-18T08:26:36.005Z</time>
      </trkpt>
      <trkpt lat="45.38436" lon="4.58651">
        <ele>1422.7</ele>
        <time>2026-08-18T08:26:37.974Z</time>
      </trkpt>
      <trkpt lat="45.38438" lon="4.58653">
        <ele>1423</ele>
        <time>2026-08-18T08:26:40.005Z</time>
      </trkpt>
      <trkpt lat="45.38438" lon="4.58654">
        <ele>1423.8</ele>
        <time>2026-08-18T08:26:41.005Z</time>
      </trkpt>
      <trkpt lat="45.38439" lon="4.58656">
        <ele>1423.5</ele>
        <time>2026-08-18T08:26:43.005Z</time>
      </trkpt>
      <trkpt lat="45.38439" lon="4.58658">
        <ele>1422.6</ele>
        <time>2026-08-18T08:26:44.005Z</time>
      </trkpt>
      <trkpt lat="45.3844" lon="4.58659">
        <ele>1423</ele>
        <time>2026-08-18T08:26:45.005Z</time>
      </trkpt>
      <trkpt lat="45.38441" lon="4.5866">
        <ele>1423.3</ele>
        <time>2026-08-18T08:26:46.005Z</time>
      </trkpt>
      <trkpt lat="45.38442" lon="4.58662">
        <ele>1423.6</ele>
        <time>2026-08-18T08:26:48.005Z</time>
      </trkpt>
      <trkpt lat="45.38442" lon="4.58665">
        <ele>1424</ele>
        <time>2026-08-18T08:26:50.005Z</time>
      </trkpt>
      <trkpt lat="45.38442" lon="4.58668">
        <ele>1423.6</ele>
        <time>2026-08-18T08:26:51.951Z</time>
      </trkpt>
      <trkpt lat="45.38443" lon="4.58669">
        <ele>1423.9</ele>
        <time>2026-08-18T08:26:53.005Z</time>
      </trkpt>
      <trkpt lat="45.38443" lon="4.5867">
        <ele>1423.9</ele>
        <time>2026-08-18T08:26:54.032Z</time>
      </trkpt>
      <trkpt lat="45.38443" lon="4.58673">
        <ele>1422.6</ele>
        <time>2026-08-18T08:26:56.005Z</time>
      </trkpt>
      <trkpt lat="45.38443" lon="4.58674">
        <ele>1422.9</ele>
        <time>2026-08-18T08:26:57.005Z</time>
      </trkpt>
      <trkpt lat="45.38443" lon="4.58675">
        <ele>1423</ele>
        <time>2026-08-18T08:26:58.005Z</time>
      </trkpt>
      <trkpt lat="45.38444" lon="4.58676">
        <ele>1422.8</ele>
        <time>2026-08-18T08:26:59.005Z</time>
      </trkpt>
      <trkpt lat="45.38444" lon="4.58678">
        <ele>1423.2</ele>
        <time>2026-08-18T08:27:00.005Z</time>
      </trkpt>
      <trkpt lat="45.38444" lon="4.5868">
        <ele>1422.4</ele>
        <time>2026-08-18T08:27:02.088Z</time>
      </trkpt>
      <trkpt lat="45.38444" lon="4.58683">
        <ele>1422.6</ele>
        <time>2026-08-18T08:27:04.004Z</time>
      </trkpt>
      <trkpt lat="45.38444" lon="4.58686">
        <ele>1422.4</ele>
        <time>2026-08-18T08:27:06.005Z</time>
      </trkpt>
      <trkpt lat="45.38444" lon="4.58689">
        <ele>1422</ele>
        <time>2026-08-18T08:27:08.016Z</time>
      </trkpt>
      <trkpt lat="45.38444" lon="4.58692">
        <ele>1420.7</ele>
        <time>2026-08-18T08:27:10.089Z</time>
      </trkpt>
      <trkpt lat="45.38443" lon="4.58694">
        <ele>1421.1</ele>
        <time>2026-08-18T08:27:12.004Z</time>
      </trkpt>
      <trkpt lat="45.38443" lon="4.58695">
        <ele>1421.1</ele>
        <time>2026-08-18T08:27:13.029Z</time>
      </trkpt>
      <trkpt lat="45.38441" lon="4.58696">
        <ele>1421.8</ele>
        <time>2026-08-18T08:27:15.005Z</time>
      </trkpt>
      <trkpt lat="45.3844" lon="4.58696">
        <ele>1421.6</ele>
        <time>2026-08-18T08:27:16.005Z</time>
      </trkpt>
      <trkpt lat="45.38439" lon="4.58696">
        <ele>1421.5</ele>
        <time>2026-08-18T08:27:17.005Z</time>
      </trkpt>
      <trkpt lat="45.38439" lon="4.58696">
        <ele>1421.5</ele>
        <time>2026-08-18T08:27:19.004Z</time>
      </trkpt>
      <trkpt lat="45.38438" lon="4.58696">
        <ele>1421.5</ele>
        <time>2026-08-18T08:27:20.015Z</time>
      </trkpt>
      <trkpt lat="45.38439" lon="4.58696">
        <ele>1421.5</ele>
        <time>2026-08-18T08:27:22.003Z</time>
      </trkpt>
      <trkpt lat="45.38439" lon="4.58696">
        <ele>1421.1</ele>
        <time>2026-08-18T08:27:23.005Z</time>
      </trkpt>
      <trkpt lat="45.38439" lon="4.58696">
        <ele>1421.1</ele>
        <time>2026-08-18T08:27:24.007Z</time>
      </trkpt>
      <trkpt lat="45.38439" lon="4.58696">
        <ele>1421.2</ele>
        <time>2026-08-18T08:27:26.088Z</time>
      </trkpt>
      <trkpt lat="45.38439" lon="4.58696">
        <ele>1421.1</ele>
        <time>2026-08-18T08:27:27.088Z</time>
      </trkpt>
      <trkpt lat="45.38439" lon="4.58697">
        <ele>1420.7</ele>
        <time>2026-08-18T08:27:29.005Z</time>
      </trkpt>
      <trkpt lat="45.38439" lon="4.58697">
        <ele>1420.7</ele>
        <time>2026-08-18T08:27:31.004Z</time>
      </trkpt>
      <trkpt lat="45.38439" lon="4.58697">
        <ele>1420.7</ele>
        <time>2026-08-18T08:27:32.005Z</time>
      </trkpt>
      <trkpt lat="45.3844" lon="4.58697">
        <ele>1420.7</ele>
        <time>2026-08-18T08:27:33.021Z</time>
      </trkpt>
      <trkpt lat="45.3844" lon="4.58697">
        <ele>1420.6</ele>
        <time>2026-08-18T08:27:35.004Z</time>
      </trkpt>
      <trkpt lat="45.38439" lon="4.58697">
        <ele>1420.6</ele>
        <time>2026-08-18T08:27:36.004Z</time>
      </trkpt>
      <trkpt lat="45.3844" lon="4.58697">
        <ele>1420.6</ele>
        <time>2026-08-18T08:27:37.014Z</time>
      </trkpt>
      <trkpt lat="45.38439" lon="4.58698">
        <ele>1420.3</ele>
        <time>2026-08-18T08:27:39.005Z</time>
      </trkpt>
      <trkpt lat="45.38439" lon="4.58698">
        <ele>1418.6</ele>
        <time>2026-08-18T08:27:40.005Z</time>
      </trkpt>
      <trkpt lat="45.38439" lon="4.58698">
        <ele>1418.6</ele>
        <time>2026-08-18T08:27:41.007Z</time>
      </trkpt>
      <trkpt lat="45.38439" lon="4.58699">
        <ele>1418.6</ele>
        <time>2026-08-18T08:27:43.004Z</time>
      </trkpt>
      <trkpt lat="45.38439" lon="4.58699">
        <ele>1418.6</ele>
        <time>2026-08-18T08:27:44.005Z</time>
      </trkpt>
      <trkpt lat="45.38439" lon="4.58699">
        <ele>1418.6</ele>
        <time>2026-08-18T08:27:45.005Z</time>
      </trkpt>
      <trkpt lat="45.38439" lon="4.58699">
        <ele>1418.6</ele>
        <time>2026-08-18T08:27:46.005Z</time>
      </trkpt>
      <trkpt lat="45.38439" lon="4.587">
        <ele>1418.6</ele>
        <time>2026-08-18T08:27:48.003Z</time>
      </trkpt>
      <trkpt lat="45.38439" lon="4.587">
        <ele>1418.6</ele>
        <time>2026-08-18T08:27:49.004Z</time>
      </trkpt>
      <trkpt lat="45.38439" lon="4.587">
        <ele>1418.6</ele>
        <time>2026-08-18T08:27:50.005Z</time>
      </trkpt>
      <trkpt lat="45.38439" lon="4.587">
        <ele>1418.6</ele>
        <time>2026-08-18T08:27:52.004Z</time>
      </trkpt>
      <trkpt lat="45.38439" lon="4.587">
        <ele>1418.6</ele>
        <time>2026-08-18T08:27:53.004Z</time>
      </trkpt>
      <trkpt lat="45.38439" lon="4.587">
        <ele>1418.6</ele>
        <time>2026-08-18T08:27:54.005Z</time>
      </trkpt>
      <trkpt lat="45.38439" lon="4.587">
        <ele>1418.6</ele>
        <time>2026-08-18T08:27:55.005Z</time>
      </trkpt>
      <trkpt lat="45.38439" lon="4.587">
        <ele>1418.6</ele>
        <time>2026-08-18T08:27:56.005Z</time>
      </trkpt>
      <trkpt lat="45.38438" lon="4.587">
        <ele>1418.8</ele>
        <time>2026-08-18T08:27:58.007Z</time>
      </trkpt>
      <trkpt lat="45.38438" lon="4.58701">
        <ele>1419.2</ele>
        <time>2026-08-18T08:28:00.005Z</time>
      </trkpt>
      <trkpt lat="45.38439" lon="4.58701">
        <ele>1419.3</ele>
        <time>2026-08-18T08:28:01.005Z</time>
      </trkpt>
      <trkpt lat="45.38439" lon="4.58701">
        <ele>1419.1</ele>
        <time>2026-08-18T08:28:03.005Z</time>
      </trkpt>
      <trkpt lat="45.38439" lon="4.58701">
        <ele>1419.1</ele>
        <time>2026-08-18T08:28:04.005Z</time>
      </trkpt>
      <trkpt lat="45.38439" lon="4.58702">
        <ele>1419.5</ele>
        <time>2026-08-18T08:28:06.005Z</time>
      </trkpt>
      <trkpt lat="45.38439" lon="4.58702">
        <ele>1419.5</ele>
        <time>2026-08-18T08:28:07.005Z</time>
      </trkpt>
      <trkpt lat="45.3844" lon="4.58702">
        <ele>1419.7</ele>
        <time>2026-08-18T08:28:09.004Z</time>
      </trkpt>
      <trkpt lat="45.3844" lon="4.58703">
        <ele>1420.1</ele>
        <time>2026-08-18T08:28:10.004Z</time>
      </trkpt>
      <trkpt lat="45.38441" lon="4.58703">
        <ele>1419.8</ele>
        <time>2026-08-18T08:28:11.005Z</time>
      </trkpt>
      <trkpt lat="45.38442" lon="4.58704">
        <ele>1419.7</ele>
        <time>2026-08-18T08:28:13.004Z</time>
      </trkpt>
      <trkpt lat="45.38444" lon="4.58705">
        <ele>1419.5</ele>
        <time>2026-08-18T08:28:15.003Z</time>
      </trkpt>
      <trkpt lat="45.38444" lon="4.58706">
        <ele>1419.7</ele>
        <time>2026-08-18T08:28:16.004Z</time>
      </trkpt>
      <trkpt lat="45.38443" lon="4.58707">
        <ele>1419.4</ele>
        <time>2026-08-18T08:28:17.004Z</time>
      </trkpt>
      <trkpt lat="45.38444" lon="4.58708">
        <ele>1419.1</ele>
        <time>2026-08-18T08:28:19.004Z</time>
      </trkpt>
      <trkpt lat="45.38446" lon="4.5871">
        <ele>1419.2</ele>
        <time>2026-08-18T08:28:21.003Z</time>
      </trkpt>
      <trkpt lat="45.38448" lon="4.58712">
        <ele>1418.9</ele>
        <time>2026-08-18T08:28:23.003Z</time>
      </trkpt>
      <trkpt lat="45.38448" lon="4.58713">
        <ele>1418.9</ele>
        <time>2026-08-18T08:28:24.014Z</time>
      </trkpt>
      <trkpt lat="45.38449" lon="4.58716">
        <ele>1419</ele>
        <time>2026-08-18T08:28:26.004Z</time>
      </trkpt>
      <trkpt lat="45.3845" lon="4.58719">
        <ele>1419.7</ele>
        <time>2026-08-18T08:28:28.013Z</time>
      </trkpt>
      <trkpt lat="45.3845" lon="4.58721">
        <ele>1419.5</ele>
        <time>2026-08-18T08:28:30.004Z</time>
      </trkpt>
      <trkpt lat="45.3845" lon="4.58724">
        <ele>1419.5</ele>
        <time>2026-08-18T08:28:32.007Z</time>
      </trkpt>
      <trkpt lat="45.38449" lon="4.58725">
        <ele>1419.9</ele>
        <time>2026-08-18T08:28:34.003Z</time>
      </trkpt>
      <trkpt lat="45.38449" lon="4.58725">
        <ele>1419.9</ele>
        <time>2026-08-18T08:28:35.004Z</time>
      </trkpt>
      <trkpt lat="45.38449" lon="4.58724">
        <ele>1419.9</ele>
        <time>2026-08-18T08:28:37.003Z</time>
      </trkpt>
      <trkpt lat="45.38449" lon="4.58724">
        <ele>1419.9</ele>
        <time>2026-08-18T08:28:38.004Z</time>
      </trkpt>
      <trkpt lat="45.38449" lon="4.58724">
        <ele>1420.3</ele>
        <time>2026-08-18T08:28:40.003Z</time>
      </trkpt>
      <trkpt lat="45.38449" lon="4.58725">
        <ele>1420.4</ele>
        <time>2026-08-18T08:28:41.004Z</time>
      </trkpt>
      <trkpt lat="45.38448" lon="4.58728">
        <ele>1420.8</ele>
        <time>2026-08-18T08:28:43.004Z</time>
      </trkpt>
      <trkpt lat="45.38449" lon="4.58729">
        <ele>1421</ele>
        <time>2026-08-18T08:28:44.004Z</time>
      </trkpt>
      <trkpt lat="45.38449" lon="4.58731">
        <ele>1420.9</ele>
        <time>2026-08-18T08:28:46.003Z</time>
      </trkpt>
      <trkpt lat="45.3845" lon="4.58732">
        <ele>1420.9</ele>
        <time>2026-08-18T08:28:47.004Z</time>
      </trkpt>
      <trkpt lat="45.3845" lon="4.58733">
        <ele>1420.9</ele>
        <time>2026-08-18T08:28:48.032Z</time>
      </trkpt>
      <trkpt lat="45.3845" lon="4.58735">
        <ele>1421.4</ele>
        <time>2026-08-18T08:28:49.970Z</time>
      </trkpt>
      <trkpt lat="45.38451" lon="4.58736">
        <ele>1421.5</ele>
        <time>2026-08-18T08:28:51.004Z</time>
      </trkpt>
      <trkpt lat="45.38451" lon="4.58738">
        <ele>1421.5</ele>
        <time>2026-08-18T08:28:53.004Z</time>
      </trkpt>
      <trkpt lat="45.38451" lon="4.58739">
        <ele>1421.8</ele>
        <time>2026-08-18T08:28:54.004Z</time>
      </trkpt>
      <trkpt lat="45.38451" lon="4.5874">
        <ele>1422.1</ele>
        <time>2026-08-18T08:28:56.003Z</time>
      </trkpt>
      <trkpt lat="45.3845" lon="4.5874">
        <ele>1422.7</ele>
        <time>2026-08-18T08:28:58.003Z</time>
      </trkpt>
      <trkpt lat="45.3845" lon="4.58739">
        <ele>1422.8</ele>
        <time>2026-08-18T08:28:59.004Z</time>
      </trkpt>
      <trkpt lat="45.38451" lon="4.5874">
        <ele>1423.2</ele>
        <time>2026-08-18T08:29:01.003Z</time>
      </trkpt>
      <trkpt lat="45.38451" lon="4.5874">
        <ele>1422.7</ele>
        <time>2026-08-18T08:29:02.003Z</time>
      </trkpt>
      <trkpt lat="45.3845" lon="4.58741">
        <ele>1422.9</ele>
        <time>2026-08-18T08:29:03.004Z</time>
      </trkpt>
      <trkpt lat="45.38449" lon="4.58743">
        <ele>1422.6</ele>
        <time>2026-08-18T08:29:04.976Z</time>
      </trkpt>
      <trkpt lat="45.38449" lon="4.58742">
        <ele>1425.1</ele>
        <time>2026-08-18T08:29:06.004Z</time>
      </trkpt>
      <trkpt lat="45.38448" lon="4.58742">
        <ele>1424.6</ele>
        <time>2026-08-18T08:29:07.004Z</time>
      </trkpt>
      <trkpt lat="45.38448" lon="4.5874">
        <ele>1424.3</ele>
        <time>2026-08-18T08:29:08.004Z</time>
      </trkpt>
      <trkpt lat="45.38447" lon="4.58736">
        <ele>1422.7</ele>
        <time>2026-08-18T08:29:10.003Z</time>
      </trkpt>
      <trkpt lat="45.38447" lon="4.58734">
        <ele>1422.3</ele>
        <time>2026-08-18T08:29:11.004Z</time>
      </trkpt>
      <trkpt lat="45.38447" lon="4.5873">
        <ele>1421.8</ele>
        <time>2026-08-18T08:29:13.004Z</time>
      </trkpt>
      <trkpt lat="45.38447" lon="4.58729">
        <ele>1420.7</ele>
        <time>2026-08-18T08:29:14.004Z</time>
      </trkpt>
      <trkpt lat="45.38448" lon="4.58727">
        <ele>1421.1</ele>
        <time>2026-08-18T08:29:15.004Z</time>
      </trkpt>
      <trkpt lat="45.38449" lon="4.58723">
        <ele>1421.1</ele>
        <time>2026-08-18T08:29:17.012Z</time>
      </trkpt>
      <trkpt lat="45.38448" lon="4.58719">
        <ele>1420.8</ele>
        <time>2026-08-18T08:29:18.953Z</time>
      </trkpt>
      <trkpt lat="45.38449" lon="4.58718">
        <ele>1421.2</ele>
        <time>2026-08-18T08:29:20.004Z</time>
      </trkpt>
      <trkpt lat="45.3845" lon="4.58717">
        <ele>1422.2</ele>
        <time>2026-08-18T08:29:21.004Z</time>
      </trkpt>
      <trkpt lat="45.38449" lon="4.58715">
        <ele>1421.2</ele>
        <time>2026-08-18T08:29:23.004Z</time>
      </trkpt>
      <trkpt lat="45.38448" lon="4.58712">
        <ele>1421</ele>
        <time>2026-08-18T08:29:24.971Z</time>
      </trkpt>
      <trkpt lat="45.38445" lon="4.5871">
        <ele>1420.6</ele>
        <time>2026-08-18T08:29:27.004Z</time>
      </trkpt>
      <trkpt lat="45.38444" lon="4.58709">
        <ele>1420.5</ele>
        <time>2026-08-18T08:29:28.004Z</time>
      </trkpt>
      <trkpt lat="45.38442" lon="4.58709">
        <ele>1419.6</ele>
        <time>2026-08-18T08:29:29.004Z</time>
      </trkpt>
      <trkpt lat="45.38441" lon="4.58709">
        <ele>1419.9</ele>
        <time>2026-08-18T08:29:30.004Z</time>
      </trkpt>
      <trkpt lat="45.38438" lon="4.58708">
        <ele>1420.4</ele>
        <time>2026-08-18T08:29:32.004Z</time>
      </trkpt>
      <trkpt lat="45.38436" lon="4.58709">
        <ele>1420.8</ele>
        <time>2026-08-18T08:29:33.956Z</time>
      </trkpt>
      <trkpt lat="45.38435" lon="4.58709">
        <ele>1421.3</ele>
        <time>2026-08-18T08:29:35.004Z</time>
      </trkpt>
      <trkpt lat="45.38434" lon="4.5871">
        <ele>1421.1</ele>
        <time>2026-08-18T08:29:37.004Z</time>
      </trkpt>
      <trkpt lat="45.38433" lon="4.58711">
        <ele>1420.9</ele>
        <time>2026-08-18T08:29:38.004Z</time>
      </trkpt>
      <trkpt lat="45.38432" lon="4.58711">
        <ele>1420.7</ele>
        <time>2026-08-18T08:29:39.004Z</time>
      </trkpt>
      <trkpt lat="45.38432" lon="4.58711">
        <ele>1420</ele>
        <time>2026-08-18T08:29:41.004Z</time>
      </trkpt>
      <trkpt lat="45.38432" lon="4.58711">
        <ele>1420</ele>
        <time>2026-08-18T08:29:42.004Z</time>
      </trkpt>
      <trkpt lat="45.38432" lon="4.58711">
        <ele>1420</ele>
        <time>2026-08-18T08:29:43.004Z</time>
      </trkpt>
      <trkpt lat="45.38432" lon="4.58711">
        <ele>1420</ele>
        <time>2026-08-18T08:29:44.005Z</time>
      </trkpt>
      <trkpt lat="45.38432" lon="4.58711">
        <ele>1419.9</ele>
        <time>2026-08-18T08:29:46.004Z</time>
      </trkpt>
      <trkpt lat="45.38432" lon="4.58711">
        <ele>1419.9</ele>
        <time>2026-08-18T08:29:48.004Z</time>
      </trkpt>
      <trkpt lat="45.38432" lon="4.58711">
        <ele>1419.8</ele>
        <time>2026-08-18T08:29:50.003Z</time>
      </trkpt>
      <trkpt lat="45.38432" lon="4.58711">
        <ele>1419.8</ele>
        <time>2026-08-18T08:29:52.003Z</time>
      </trkpt>
      <trkpt lat="45.38431" lon="4.58712">
        <ele>1420.2</ele>
        <time>2026-08-18T08:29:53.004Z</time>
      </trkpt>
      <trkpt lat="45.3843" lon="4.58715">
        <ele>1419.4</ele>
        <time>2026-08-18T08:29:55.004Z</time>
      </trkpt>
      <trkpt lat="45.38429" lon="4.58716">
        <ele>1419.3</ele>
        <time>2026-08-18T08:29:56.004Z</time>
      </trkpt>
      <trkpt lat="45.38428" lon="4.58717">
        <ele>1419.3</ele>
        <time>2026-08-18T08:29:57.016Z</time>
      </trkpt>
      <trkpt lat="45.38426" lon="4.5872">
        <ele>1419.4</ele>
        <time>2026-08-18T08:29:59.003Z</time>
      </trkpt>
      <trkpt lat="45.38426" lon="4.58721">
        <ele>1418.6</ele>
        <time>2026-08-18T08:30:00.003Z</time>
      </trkpt>
      <trkpt lat="45.38425" lon="4.58722">
        <ele>1418.7</ele>
        <time>2026-08-18T08:30:01.004Z</time>
      </trkpt>
      <trkpt lat="45.38423" lon="4.58724">
        <ele>1418.4</ele>
        <time>2026-08-18T08:30:03.003Z</time>
      </trkpt>
      <trkpt lat="45.38421" lon="4.58726">
        <ele>1417.6</ele>
        <time>2026-08-18T08:30:05.004Z</time>
      </trkpt>
      <trkpt lat="45.3842" lon="4.58729">
        <ele>1417.7</ele>
        <time>2026-08-18T08:30:07.004Z</time>
      </trkpt>
      <trkpt lat="45.38419" lon="4.5873">
        <ele>1417.2</ele>
        <time>2026-08-18T08:30:08.004Z</time>
      </trkpt>
      <trkpt lat="45.38417" lon="4.58731">
        <ele>1416.8</ele>
        <time>2026-08-18T08:30:10.003Z</time>
      </trkpt>
      <trkpt lat="45.38416" lon="4.58732">
        <ele>1416.4</ele>
        <time>2026-08-18T08:30:11.004Z</time>
      </trkpt>
      <trkpt lat="45.38415" lon="4.58733">
        <ele>1416.6</ele>
        <time>2026-08-18T08:30:13.003Z</time>
      </trkpt>
      <trkpt lat="45.38412" lon="4.58734">
        <ele>1415.9</ele>
        <time>2026-08-18T08:30:15.004Z</time>
      </trkpt>
      <trkpt lat="45.38411" lon="4.58735">
        <ele>1415.6</ele>
        <time>2026-08-18T08:30:16.004Z</time>
      </trkpt>
      <trkpt lat="45.3841" lon="4.58734">
        <ele>1415.6</ele>
        <time>2026-08-18T08:30:17.012Z</time>
      </trkpt>
      <trkpt lat="45.38408" lon="4.58732">
        <ele>1415.9</ele>
        <time>2026-08-18T08:30:19.009Z</time>
      </trkpt>
      <trkpt lat="45.38406" lon="4.5873">
        <ele>1415.8</ele>
        <time>2026-08-18T08:30:20.949Z</time>
      </trkpt>
      <trkpt lat="45.38405" lon="4.58729">
        <ele>1415.7</ele>
        <time>2026-08-18T08:30:22.003Z</time>
      </trkpt>
      <trkpt lat="45.38403" lon="4.58727">
        <ele>1414.8</ele>
        <time>2026-08-18T08:30:24.004Z</time>
      </trkpt>
      <trkpt lat="45.384" lon="4.58726">
        <ele>1414</ele>
        <time>2026-08-18T08:30:26.003Z</time>
      </trkpt>
      <trkpt lat="45.38399" lon="4.58725">
        <ele>1414.1</ele>
        <time>2026-08-18T08:30:27.003Z</time>
      </trkpt>
      <trkpt lat="45.38397" lon="4.58724">
        <ele>1413.2</ele>
        <time>2026-08-18T08:30:29.004Z</time>
      </trkpt>
      <trkpt lat="45.38395" lon="4.58723">
        <ele>1413.1</ele>
        <time>2026-08-18T08:30:31.003Z</time>
      </trkpt>
      <trkpt lat="45.38393" lon="4.58723">
        <ele>1413.1</ele>
        <time>2026-08-18T08:30:32.016Z</time>
      </trkpt>
      <trkpt lat="45.38391" lon="4.58723">
        <ele>1413.1</ele>
        <time>2026-08-18T08:30:34.003Z</time>
      </trkpt>
      <trkpt lat="45.3839" lon="4.58723">
        <ele>1413.2</ele>
        <time>2026-08-18T08:30:35.004Z</time>
      </trkpt>
      <trkpt lat="45.38389" lon="4.58722">
        <ele>1413.4</ele>
        <time>2026-08-18T08:30:36.004Z</time>
      </trkpt>
      <trkpt lat="45.38388" lon="4.58722">
        <ele>1413.5</ele>
        <time>2026-08-18T08:30:37.004Z</time>
      </trkpt>
      <trkpt lat="45.38386" lon="4.58723">
        <ele>1413.2</ele>
        <time>2026-08-18T08:30:39.003Z</time>
      </trkpt>
      <trkpt lat="45.38385" lon="4.58723">
        <ele>1413.4</ele>
        <time>2026-08-18T08:30:40.004Z</time>
      </trkpt>
      <trkpt lat="45.38384" lon="4.58723">
        <ele>1412.7</ele>
        <time>2026-08-18T08:30:41.004Z</time>
      </trkpt>
      <trkpt lat="45.38383" lon="4.58723">
        <ele>1411.6</ele>
        <time>2026-08-18T08:30:42.004Z</time>
      </trkpt>
      <trkpt lat="45.38382" lon="4.58723">
        <ele>1412</ele>
        <time>2026-08-18T08:30:43.004Z</time>
      </trkpt>
      <trkpt lat="45.38381" lon="4.58723">
        <ele>1412.4</ele>
        <time>2026-08-18T08:30:44.004Z</time>
      </trkpt>
      <trkpt lat="45.3838" lon="4.58722">
        <ele>1412.2</ele>
        <time>2026-08-18T08:30:45.004Z</time>
      </trkpt>
      <trkpt lat="45.38378" lon="4.58721">
        <ele>1412.4</ele>
        <time>2026-08-18T08:30:47.004Z</time>
      </trkpt>
      <trkpt lat="45.38376" lon="4.5872">
        <ele>1412.8</ele>
        <time>2026-08-18T08:30:49.004Z</time>
      </trkpt>
      <trkpt lat="45.38375" lon="4.5872">
        <ele>1412.5</ele>
        <time>2026-08-18T08:30:50.004Z</time>
      </trkpt>
      <trkpt lat="45.38374" lon="4.5872">
        <ele>1412.8</ele>
        <time>2026-08-18T08:30:51.004Z</time>
      </trkpt>
      <trkpt lat="45.38373" lon="4.5872">
        <ele>1412.8</ele>
        <time>2026-08-18T08:30:52.010Z</time>
      </trkpt>
      <trkpt lat="45.38372" lon="4.58719">
        <ele>1413.9</ele>
        <time>2026-08-18T08:30:54.004Z</time>
      </trkpt>
      <trkpt lat="45.3837" lon="4.58719">
        <ele>1413.7</ele>
        <time>2026-08-18T08:30:55.004Z</time>
      </trkpt>
      <trkpt lat="45.38369" lon="4.58718">
        <ele>1414.8</ele>
        <time>2026-08-18T08:30:57.004Z</time>
      </trkpt>
      <trkpt lat="45.38368" lon="4.58717">
        <ele>1414.1</ele>
        <time>2026-08-18T08:30:58.004Z</time>
      </trkpt>
      <trkpt lat="45.38367" lon="4.58717">
        <ele>1414.5</ele>
        <time>2026-08-18T08:30:59.004Z</time>
      </trkpt>
      <trkpt lat="45.38365" lon="4.58716">
        <ele>1414</ele>
        <time>2026-08-18T08:31:01.004Z</time>
      </trkpt>
      <trkpt lat="45.38363" lon="4.58714">
        <ele>1412.8</ele>
        <time>2026-08-18T08:31:03.003Z</time>
      </trkpt>
      <trkpt lat="45.38362" lon="4.58714">
        <ele>1413.4</ele>
        <time>2026-08-18T08:31:04.004Z</time>
      </trkpt>
      <trkpt lat="45.38361" lon="4.58713">
        <ele>1412.2</ele>
        <time>2026-08-18T08:31:05.004Z</time>
      </trkpt>
      <trkpt lat="45.3836" lon="4.58713">
        <ele>1411.5</ele>
        <time>2026-08-18T08:31:06.004Z</time>
      </trkpt>
      <trkpt lat="45.38359" lon="4.58711">
        <ele>1411</ele>
        <time>2026-08-18T08:31:08.003Z</time>
      </trkpt>
      <trkpt lat="45.38357" lon="4.58709">
        <ele>1410.8</ele>
        <time>2026-08-18T08:31:10.004Z</time>
      </trkpt>
      <trkpt lat="45.38356" lon="4.58708">
        <ele>1410.9</ele>
        <time>2026-08-18T08:31:12.003Z</time>
      </trkpt>
      <trkpt lat="45.38355" lon="4.58708">
        <ele>1409.8</ele>
        <time>2026-08-18T08:31:13.004Z</time>
      </trkpt>
      <trkpt lat="45.38353" lon="4.58708">
        <ele>1409.1</ele>
        <time>2026-08-18T08:31:15.004Z</time>
      </trkpt>
      <trkpt lat="45.38351" lon="4.58707">
        <ele>1408</ele>
        <time>2026-08-18T08:31:17.004Z</time>
      </trkpt>
      <trkpt lat="45.3835" lon="4.58706">
        <ele>1407.4</ele>
        <time>2026-08-18T08:31:19.003Z</time>
      </trkpt>
      <trkpt lat="45.38349" lon="4.58705">
        <ele>1407.4</ele>
        <time>2026-08-18T08:31:20.004Z</time>
      </trkpt>
      <trkpt lat="45.38348" lon="4.58705">
        <ele>1406.3</ele>
        <time>2026-08-18T08:31:21.004Z</time>
      </trkpt>
      <trkpt lat="45.38348" lon="4.58706">
        <ele>1406.9</ele>
        <time>2026-08-18T08:31:23.003Z</time>
      </trkpt>
      <trkpt lat="45.38349" lon="4.58706">
        <ele>1406.6</ele>
        <time>2026-08-18T08:31:24.004Z</time>
      </trkpt>
      <trkpt lat="45.38349" lon="4.58705">
        <ele>1406.2</ele>
        <time>2026-08-18T08:31:26.004Z</time>
      </trkpt>
      <trkpt lat="45.38349" lon="4.58703">
        <ele>1406.4</ele>
        <time>2026-08-18T08:31:28.003Z</time>
      </trkpt>
      <trkpt lat="45.38347" lon="4.58702">
        <ele>1406.5</ele>
        <time>2026-08-18T08:31:29.003Z</time>
      </trkpt>
      <trkpt lat="45.38346" lon="4.58702">
        <ele>1406.8</ele>
        <time>2026-08-18T08:31:30.006Z</time>
      </trkpt>
      <trkpt lat="45.38344" lon="4.58702">
        <ele>1407.1</ele>
        <time>2026-08-18T08:31:31.910Z</time>
      </trkpt>
      <trkpt lat="45.38343" lon="4.58702">
        <ele>1407.4</ele>
        <time>2026-08-18T08:31:33.003Z</time>
      </trkpt>
      <trkpt lat="45.38341" lon="4.58701">
        <ele>1406.9</ele>
        <time>2026-08-18T08:31:35.004Z</time>
      </trkpt>
      <trkpt lat="45.3834" lon="4.587">
        <ele>1406.8</ele>
        <time>2026-08-18T08:31:36.004Z</time>
      </trkpt>
      <trkpt lat="45.3834" lon="4.587">
        <ele>1406.5</ele>
        <time>2026-08-18T08:31:37.004Z</time>
      </trkpt>
      <trkpt lat="45.38338" lon="4.58699">
        <ele>1406.3</ele>
        <time>2026-08-18T08:31:39.004Z</time>
      </trkpt>
      <trkpt lat="45.38336" lon="4.58698">
        <ele>1406.6</ele>
        <time>2026-08-18T08:31:41.004Z</time>
      </trkpt>
      <trkpt lat="45.38336" lon="4.58697">
        <ele>1406.5</ele>
        <time>2026-08-18T08:31:42.004Z</time>
      </trkpt>
      <trkpt lat="45.38334" lon="4.58696">
        <ele>1405.6</ele>
        <time>2026-08-18T08:31:44.003Z</time>
      </trkpt>
      <trkpt lat="45.38333" lon="4.58696">
        <ele>1405.6</ele>
        <time>2026-08-18T08:31:45.004Z</time>
      </trkpt>
      <trkpt lat="45.38331" lon="4.58696">
        <ele>1404.9</ele>
        <time>2026-08-18T08:31:47.006Z</time>
      </trkpt>
      <trkpt lat="45.3833" lon="4.58694">
        <ele>1404.1</ele>
        <time>2026-08-18T08:31:49.004Z</time>
      </trkpt>
      <trkpt lat="45.38328" lon="4.58692">
        <ele>1403.4</ele>
        <time>2026-08-18T08:31:51.004Z</time>
      </trkpt>
      <trkpt lat="45.38326" lon="4.58691">
        <ele>1403.8</ele>
        <time>2026-08-18T08:31:53.003Z</time>
      </trkpt>
      <trkpt lat="45.38326" lon="4.58691">
        <ele>1403.8</ele>
        <time>2026-08-18T08:31:54.004Z</time>
      </trkpt>
      <trkpt lat="45.38325" lon="4.58691">
        <ele>1404.8</ele>
        <time>2026-08-18T08:31:55.004Z</time>
      </trkpt>
      <trkpt lat="45.38323" lon="4.5869">
        <ele>1404.4</ele>
        <time>2026-08-18T08:31:56.974Z</time>
      </trkpt>
      <trkpt lat="45.38322" lon="4.5869">
        <ele>1403.9</ele>
        <time>2026-08-18T08:31:58.004Z</time>
      </trkpt>
      <trkpt lat="45.38321" lon="4.58691">
        <ele>1403</ele>
        <time>2026-08-18T08:32:00.004Z</time>
      </trkpt>
      <trkpt lat="45.3832" lon="4.58691">
        <ele>1402.7</ele>
        <time>2026-08-18T08:32:01.004Z</time>
      </trkpt>
      <trkpt lat="45.38319" lon="4.58691">
        <ele>1401.6</ele>
        <time>2026-08-18T08:32:03.004Z</time>
      </trkpt>
      <trkpt lat="45.38318" lon="4.58691">
        <ele>1402</ele>
        <time>2026-08-18T08:32:04.004Z</time>
      </trkpt>
      <trkpt lat="45.38317" lon="4.58692">
        <ele>1402</ele>
        <time>2026-08-18T08:32:06.004Z</time>
      </trkpt>
      <trkpt lat="45.38316" lon="4.58693">
        <ele>1401.7</ele>
        <time>2026-08-18T08:32:07.004Z</time>
      </trkpt>
      <trkpt lat="45.38315" lon="4.58694">
        <ele>1401.8</ele>
        <time>2026-08-18T08:32:09.011Z</time>
      </trkpt>
      <trkpt lat="45.38315" lon="4.58696">
        <ele>1402.6</ele>
        <time>2026-08-18T08:32:11.004Z</time>
      </trkpt>
      <trkpt lat="45.38316" lon="4.58698">
        <ele>1402.7</ele>
        <time>2026-08-18T08:32:13.003Z</time>
      </trkpt>
      <trkpt lat="45.38316" lon="4.58699">
        <ele>1403.3</ele>
        <time>2026-08-18T08:32:14.003Z</time>
      </trkpt>
      <trkpt lat="45.38317" lon="4.587">
        <ele>1402.8</ele>
        <time>2026-08-18T08:32:15.004Z</time>
      </trkpt>
      <trkpt lat="45.38317" lon="4.58701">
        <ele>1401.9</ele>
        <time>2026-08-18T08:32:16.004Z</time>
      </trkpt>
      <trkpt lat="45.38317" lon="4.58703">
        <ele>1402.2</ele>
        <time>2026-08-18T08:32:18.003Z</time>
      </trkpt>
      <trkpt lat="45.38318" lon="4.58704">
        <ele>1401.9</ele>
        <time>2026-08-18T08:32:19.003Z</time>
      </trkpt>
      <trkpt lat="45.38319" lon="4.58707">
        <ele>1402.2</ele>
        <time>2026-08-18T08:32:21.008Z</time>
      </trkpt>
      <trkpt lat="45.38321" lon="4.58708">
        <ele>1401.4</ele>
        <time>2026-08-18T08:32:23.004Z</time>
      </trkpt>
      <trkpt lat="45.38322" lon="4.5871">
        <ele>1402</ele>
        <time>2026-08-18T08:32:25.004Z</time>
      </trkpt>
      <trkpt lat="45.38323" lon="4.58711">
        <ele>1402.1</ele>
        <time>2026-08-18T08:32:26.004Z</time>
      </trkpt>
      <trkpt lat="45.38324" lon="4.58712">
        <ele>1402.3</ele>
        <time>2026-08-18T08:32:28.003Z</time>
      </trkpt>
      <trkpt lat="45.38325" lon="4.58715">
        <ele>1402.6</ele>
        <time>2026-08-18T08:32:30.003Z</time>
      </trkpt>
      <trkpt lat="45.38326" lon="4.58715">
        <ele>1402.9</ele>
        <time>2026-08-18T08:32:31.004Z</time>
      </trkpt>
      <trkpt lat="45.38327" lon="4.58718">
        <ele>1401.9</ele>
        <time>2026-08-18T08:32:33.003Z</time>
      </trkpt>
      <trkpt lat="45.38329" lon="4.5872">
        <ele>1400.8</ele>
        <time>2026-08-18T08:32:35.004Z</time>
      </trkpt>
      <trkpt lat="45.3833" lon="4.58721">
        <ele>1399.7</ele>
        <time>2026-08-18T08:32:36.004Z</time>
      </trkpt>
      <trkpt lat="45.3833" lon="4.58724">
        <ele>1400.2</ele>
        <time>2026-08-18T08:32:38.009Z</time>
      </trkpt>
      <trkpt lat="45.3833" lon="4.58727">
        <ele>1400.1</ele>
        <time>2026-08-18T08:32:39.934Z</time>
      </trkpt>
      <trkpt lat="45.38331" lon="4.58728">
        <ele>1400</ele>
        <time>2026-08-18T08:32:41.003Z</time>
      </trkpt>
      <trkpt lat="45.38331" lon="4.58729">
        <ele>1400</ele>
        <time>2026-08-18T08:32:42.003Z</time>
      </trkpt>
      <trkpt lat="45.38331" lon="4.58729">
        <ele>1399.8</ele>
        <time>2026-08-18T08:32:43.004Z</time>
      </trkpt>
      <trkpt lat="45.38332" lon="4.58732">
        <ele>1399.2</ele>
        <time>2026-08-18T08:32:45.003Z</time>
      </trkpt>
      <trkpt lat="45.38332" lon="4.58734">
        <ele>1398.8</ele>
        <time>2026-08-18T08:32:47.004Z</time>
      </trkpt>
      <trkpt lat="45.38333" lon="4.58737">
        <ele>1398.2</ele>
        <time>2026-08-18T08:32:49.003Z</time>
      </trkpt>
      <trkpt lat="45.38333" lon="4.58739">
        <ele>1397.4</ele>
        <time>2026-08-18T08:32:51.003Z</time>
      </trkpt>
      <trkpt lat="45.38334" lon="4.58739">
        <ele>1396.9</ele>
        <time>2026-08-18T08:32:52.003Z</time>
      </trkpt>
      <trkpt lat="45.38334" lon="4.5874">
        <ele>1397.4</ele>
        <time>2026-08-18T08:32:53.004Z</time>
      </trkpt>
      <trkpt lat="45.38334" lon="4.58743">
        <ele>1397.8</ele>
        <time>2026-08-18T08:32:54.908Z</time>
      </trkpt>
      <trkpt lat="45.38334" lon="4.58744">
        <ele>1398.5</ele>
        <time>2026-08-18T08:32:56.003Z</time>
      </trkpt>
      <trkpt lat="45.38334" lon="4.58745">
        <ele>1398.5</ele>
        <time>2026-08-18T08:32:57.011Z</time>
      </trkpt>
      <trkpt lat="45.38334" lon="4.58747">
        <ele>1398.7</ele>
        <time>2026-08-18T08:32:59.004Z</time>
      </trkpt>
      <trkpt lat="45.38335" lon="4.58748">
        <ele>1398</ele>
        <time>2026-08-18T08:33:00.004Z</time>
      </trkpt>
      <trkpt lat="45.38335" lon="4.58749">
        <ele>1397.5</ele>
        <time>2026-08-18T08:33:01.004Z</time>
      </trkpt>
      <trkpt lat="45.38336" lon="4.58751">
        <ele>1397.5</ele>
        <time>2026-08-18T08:33:02.883Z</time>
      </trkpt>
      <trkpt lat="45.38336" lon="4.58752">
        <ele>1398.8</ele>
        <time>2026-08-18T08:33:04.003Z</time>
      </trkpt>
      <trkpt lat="45.38336" lon="4.58753">
        <ele>1398.5</ele>
        <time>2026-08-18T08:33:05.003Z</time>
      </trkpt>
      <trkpt lat="45.38336" lon="4.58753">
        <ele>1397.5</ele>
        <time>2026-08-18T08:33:06.003Z</time>
      </trkpt>
      <trkpt lat="45.38335" lon="4.58754">
        <ele>1397.2</ele>
        <time>2026-08-18T08:33:07.003Z</time>
      </trkpt>
      <trkpt lat="45.38335" lon="4.58755">
        <ele>1397.3</ele>
        <time>2026-08-18T08:33:08.004Z</time>
      </trkpt>
      <trkpt lat="45.38334" lon="4.58757">
        <ele>1397.1</ele>
        <time>2026-08-18T08:33:10.003Z</time>
      </trkpt>
      <trkpt lat="45.38334" lon="4.58758">
        <ele>1397.2</ele>
        <time>2026-08-18T08:33:11.003Z</time>
      </trkpt>
      <trkpt lat="45.38335" lon="4.58759">
        <ele>1397.1</ele>
        <time>2026-08-18T08:33:12.012Z</time>
      </trkpt>
      <trkpt lat="45.38335" lon="4.58759">
        <ele>1397.3</ele>
        <time>2026-08-18T08:33:13.039Z</time>
      </trkpt>
      <trkpt lat="45.38335" lon="4.58761">
        <ele>1397.7</ele>
        <time>2026-08-18T08:33:14.088Z</time>
      </trkpt>
      <trkpt lat="45.38336" lon="4.58762">
        <ele>1397.8</ele>
        <time>2026-08-18T08:33:16.004Z</time>
      </trkpt>
      <trkpt lat="45.38336" lon="4.58764">
        <ele>1398.5</ele>
        <time>2026-08-18T08:33:17.910Z</time>
      </trkpt>
      <trkpt lat="45.38337" lon="4.58766">
        <ele>1398.1</ele>
        <time>2026-08-18T08:33:19.003Z</time>
      </trkpt>
      <trkpt lat="45.38338" lon="4.58767">
        <ele>1399.2</ele>
        <time>2026-08-18T08:33:20.004Z</time>
      </trkpt>
      <trkpt lat="45.38339" lon="4.58769">
        <ele>1399.6</ele>
        <time>2026-08-18T08:33:21.988Z</time>
      </trkpt>
      <trkpt lat="45.3834" lon="4.5877">
        <ele>1399.6</ele>
        <time>2026-08-18T08:33:23.004Z</time>
      </trkpt>
      <trkpt lat="45.3834" lon="4.58771">
        <ele>1399</ele>
        <time>2026-08-18T08:33:24.011Z</time>
      </trkpt>
      <trkpt lat="45.38341" lon="4.58773">
        <ele>1398.1</ele>
        <time>2026-08-18T08:33:26.003Z</time>
      </trkpt>
      <trkpt lat="45.38341" lon="4.58775">
        <ele>1397.8</ele>
        <time>2026-08-18T08:33:27.004Z</time>
      </trkpt>
      <trkpt lat="45.38341" lon="4.58776">
        <ele>1397.1</ele>
        <time>2026-08-18T08:33:28.004Z</time>
      </trkpt>
      <trkpt lat="45.38342" lon="4.58778">
        <ele>1396.2</ele>
        <time>2026-08-18T08:33:30.088Z</time>
      </trkpt>
      <trkpt lat="45.38342" lon="4.58779">
        <ele>1396.2</ele>
        <time>2026-08-18T08:33:31.116Z</time>
      </trkpt>
      <trkpt lat="45.38342" lon="4.5878">
        <ele>1398</ele>
        <time>2026-08-18T08:33:32.438Z</time>
      </trkpt>
      <trkpt lat="45.38342" lon="4.58782">
        <ele>1397.8</ele>
        <time>2026-08-18T08:33:34.003Z</time>
      </trkpt>
      <trkpt lat="45.38342" lon="4.58783">
        <ele>1397.4</ele>
        <time>2026-08-18T08:33:35.004Z</time>
      </trkpt>
      <trkpt lat="45.38342" lon="4.58785">
        <ele>1398.6</ele>
        <time>2026-08-18T08:33:36.004Z</time>
      </trkpt>
      <trkpt lat="45.38342" lon="4.58787">
        <ele>1398.2</ele>
        <time>2026-08-18T08:33:37.004Z</time>
      </trkpt>
      <trkpt lat="45.38342" lon="4.58788">
        <ele>1397.7</ele>
        <time>2026-08-18T08:33:38.004Z</time>
      </trkpt>
      <trkpt lat="45.38342" lon="4.58789">
        <ele>1398.2</ele>
        <time>2026-08-18T08:33:39.004Z</time>
      </trkpt>
      <trkpt lat="45.38342" lon="4.58791">
        <ele>1398.2</ele>
        <time>2026-08-18T08:33:40.080Z</time>
      </trkpt>
      <trkpt lat="45.38342" lon="4.58794">
        <ele>1398.9</ele>
        <time>2026-08-18T08:33:42.020Z</time>
      </trkpt>
      <trkpt lat="45.38343" lon="4.58797">
        <ele>1398.4</ele>
        <time>2026-08-18T08:33:44.004Z</time>
      </trkpt>
      <trkpt lat="45.38343" lon="4.58798">
        <ele>1397.3</ele>
        <time>2026-08-18T08:33:45.004Z</time>
      </trkpt>
      <trkpt lat="45.38343" lon="4.588">
        <ele>1396.5</ele>
        <time>2026-08-18T08:33:46.013Z</time>
      </trkpt>
      <trkpt lat="45.38343" lon="4.58802">
        <ele>1396.5</ele>
        <time>2026-08-18T08:33:47.014Z</time>
      </trkpt>
      <trkpt lat="45.38343" lon="4.58804">
        <ele>1396.7</ele>
        <time>2026-08-18T08:33:49.017Z</time>
      </trkpt>
      <trkpt lat="45.38342" lon="4.58807">
        <ele>1395.2</ele>
        <time>2026-08-18T08:33:51.004Z</time>
      </trkpt>
      <trkpt lat="45.38342" lon="4.58808">
        <ele>1395.2</ele>
        <time>2026-08-18T08:33:52.015Z</time>
      </trkpt>
      <trkpt lat="45.38342" lon="4.5881">
        <ele>1393.7</ele>
        <time>2026-08-18T08:33:54.003Z</time>
      </trkpt>
      <trkpt lat="45.38341" lon="4.58812">
        <ele>1393.8</ele>
        <time>2026-08-18T08:33:55.004Z</time>
      </trkpt>
      <trkpt lat="45.3834" lon="4.58814">
        <ele>1393.6</ele>
        <time>2026-08-18T08:33:57.088Z</time>
      </trkpt>
      <trkpt lat="45.3834" lon="4.58816">
        <ele>1394.8</ele>
        <time>2026-08-18T08:33:59.003Z</time>
      </trkpt>
      <trkpt lat="45.38339" lon="4.58818">
        <ele>1395.2</ele>
        <time>2026-08-18T08:34:00.004Z</time>
      </trkpt>
      <trkpt lat="45.38339" lon="4.58819">
        <ele>1395.3</ele>
        <time>2026-08-18T08:34:01.004Z</time>
      </trkpt>
      <trkpt lat="45.38337" lon="4.58822">
        <ele>1394.7</ele>
        <time>2026-08-18T08:34:03.012Z</time>
      </trkpt>
      <trkpt lat="45.38337" lon="4.58823">
        <ele>1394.7</ele>
        <time>2026-08-18T08:34:04.040Z</time>
      </trkpt>
      <trkpt lat="45.38337" lon="4.58826">
        <ele>1393.7</ele>
        <time>2026-08-18T08:34:06.004Z</time>
      </trkpt>
      <trkpt lat="45.38337" lon="4.58827">
        <ele>1393.3</ele>
        <time>2026-08-18T08:34:07.005Z</time>
      </trkpt>
      <trkpt lat="45.38337" lon="4.58829">
        <ele>1393.3</ele>
        <time>2026-08-18T08:34:08.017Z</time>
      </trkpt>
      <trkpt lat="45.38336" lon="4.58831">
        <ele>1391.8</ele>
        <time>2026-08-18T08:34:10.004Z</time>
      </trkpt>
      <trkpt lat="45.38336" lon="4.58834">
        <ele>1391.4</ele>
        <time>2026-08-18T08:34:12.004Z</time>
      </trkpt>
      <trkpt lat="45.38335" lon="4.58835">
        <ele>1391.2</ele>
        <time>2026-08-18T08:34:13.004Z</time>
      </trkpt>
      <trkpt lat="45.38335" lon="4.58838">
        <ele>1391.6</ele>
        <time>2026-08-18T08:34:15.004Z</time>
      </trkpt>
      <trkpt lat="45.38334" lon="4.58839">
        <ele>1390.7</ele>
        <time>2026-08-18T08:34:16.020Z</time>
      </trkpt>
      <trkpt lat="45.38334" lon="4.58841">
        <ele>1390.7</ele>
        <time>2026-08-18T08:34:18.003Z</time>
      </trkpt>
      <trkpt lat="45.38334" lon="4.58843">
        <ele>1390.1</ele>
        <time>2026-08-18T08:34:19.004Z</time>
      </trkpt>
      <trkpt lat="45.38334" lon="4.58844">
        <ele>1389.5</ele>
        <time>2026-08-18T08:34:20.013Z</time>
      </trkpt>
      <trkpt lat="45.38333" lon="4.58845">
        <ele>1388</ele>
        <time>2026-08-18T08:34:22.003Z</time>
      </trkpt>
      <trkpt lat="45.38333" lon="4.58846">
        <ele>1388</ele>
        <time>2026-08-18T08:34:23.003Z</time>
      </trkpt>
      <trkpt lat="45.38333" lon="4.58848">
        <ele>1388.4</ele>
        <time>2026-08-18T08:34:24.005Z</time>
      </trkpt>
      <trkpt lat="45.38333" lon="4.58849">
        <ele>1389.2</ele>
        <time>2026-08-18T08:34:26.003Z</time>
      </trkpt>
      <trkpt lat="45.38332" lon="4.5885">
        <ele>1389.7</ele>
        <time>2026-08-18T08:34:27.004Z</time>
      </trkpt>
      <trkpt lat="45.38332" lon="4.58851">
        <ele>1390.6</ele>
        <time>2026-08-18T08:34:28.004Z</time>
      </trkpt>
      <trkpt lat="45.38331" lon="4.58853">
        <ele>1390.6</ele>
        <time>2026-08-18T08:34:29.037Z</time>
      </trkpt>
      <trkpt lat="45.38331" lon="4.58854">
        <ele>1390.3</ele>
        <time>2026-08-18T08:34:30.977Z</time>
      </trkpt>
      <trkpt lat="45.38331" lon="4.58856">
        <ele>1390.1</ele>
        <time>2026-08-18T08:34:33.018Z</time>
      </trkpt>
      <trkpt lat="45.38331" lon="4.58859">
        <ele>1389.5</ele>
        <time>2026-08-18T08:34:35.004Z</time>
      </trkpt>
      <trkpt lat="45.38332" lon="4.58862">
        <ele>1389.2</ele>
        <time>2026-08-18T08:34:37.004Z</time>
      </trkpt>
      <trkpt lat="45.38332" lon="4.58862">
        <ele>1389.5</ele>
        <time>2026-08-18T08:34:39.004Z</time>
      </trkpt>
      <trkpt lat="45.38333" lon="4.58863">
        <ele>1389.1</ele>
        <time>2026-08-18T08:34:40.004Z</time>
      </trkpt>
      <trkpt lat="45.38333" lon="4.58864">
        <ele>1389.3</ele>
        <time>2026-08-18T08:34:41.006Z</time>
      </trkpt>
      <trkpt lat="45.38333" lon="4.58866">
        <ele>1389</ele>
        <time>2026-08-18T08:34:43.013Z</time>
      </trkpt>
      <trkpt lat="45.38332" lon="4.58867">
        <ele>1390.7</ele>
        <time>2026-08-18T08:34:45.003Z</time>
      </trkpt>
      <trkpt lat="45.38333" lon="4.58869">
        <ele>1390</ele>
        <time>2026-08-18T08:34:47.004Z</time>
      </trkpt>
      <trkpt lat="45.38334" lon="4.5887">
        <ele>1389.7</ele>
        <time>2026-08-18T08:34:48.004Z</time>
      </trkpt>
      <trkpt lat="45.38334" lon="4.58871">
        <ele>1389.7</ele>
        <time>2026-08-18T08:34:49.004Z</time>
      </trkpt>
      <trkpt lat="45.38335" lon="4.58873">
        <ele>1389.6</ele>
        <time>2026-08-18T08:34:50.018Z</time>
      </trkpt>
      <trkpt lat="45.38336" lon="4.58875">
        <ele>1389.6</ele>
        <time>2026-08-18T08:34:52.004Z</time>
      </trkpt>
      <trkpt lat="45.38337" lon="4.58876">
        <ele>1390.5</ele>
        <time>2026-08-18T08:34:53.004Z</time>
      </trkpt>
      <trkpt lat="45.38338" lon="4.58877">
        <ele>1387.8</ele>
        <time>2026-08-18T08:34:54.004Z</time>
      </trkpt>
      <trkpt lat="45.38338" lon="4.58879">
        <ele>1388.1</ele>
        <time>2026-08-18T08:34:56.004Z</time>
      </trkpt>
      <trkpt lat="45.38338" lon="4.58881">
        <ele>1387.1</ele>
        <time>2026-08-18T08:34:57.988Z</time>
      </trkpt>
      <trkpt lat="45.38338" lon="4.58883">
        <ele>1385.4</ele>
        <time>2026-08-18T08:34:59.003Z</time>
      </trkpt>
      <trkpt lat="45.38338" lon="4.58884">
        <ele>1385.5</ele>
        <time>2026-08-18T08:35:00.003Z</time>
      </trkpt>
      <trkpt lat="45.38338" lon="4.58885">
        <ele>1385.3</ele>
        <time>2026-08-18T08:35:01.004Z</time>
      </trkpt>
      <trkpt lat="45.38339" lon="4.58887">
        <ele>1385.2</ele>
        <time>2026-08-18T08:35:02.951Z</time>
      </trkpt>
      <trkpt lat="45.38339" lon="4.58888">
        <ele>1384.9</ele>
        <time>2026-08-18T08:35:04.128Z</time>
      </trkpt>
      <trkpt lat="45.38338" lon="4.5889">
        <ele>1384.5</ele>
        <time>2026-08-18T08:35:06.003Z</time>
      </trkpt>
      <trkpt lat="45.38339" lon="4.58891">
        <ele>1385.1</ele>
        <time>2026-08-18T08:35:07.019Z</time>
      </trkpt>
      <trkpt lat="45.38339" lon="4.58894">
        <ele>1384.2</ele>
        <time>2026-08-18T08:35:09.003Z</time>
      </trkpt>
      <trkpt lat="45.38338" lon="4.58896">
        <ele>1382.9</ele>
        <time>2026-08-18T08:35:11.012Z</time>
      </trkpt>
      <trkpt lat="45.38338" lon="4.58898">
        <ele>1382.9</ele>
        <time>2026-08-18T08:35:12.153Z</time>
      </trkpt>
      <trkpt lat="45.38338" lon="4.589">
        <ele>1381.9</ele>
        <time>2026-08-18T08:35:13.515Z</time>
      </trkpt>
      <trkpt lat="45.38338" lon="4.58902">
        <ele>1382</ele>
        <time>2026-08-18T08:35:15.017Z</time>
      </trkpt>
      <trkpt lat="45.38338" lon="4.58905">
        <ele>1381.9</ele>
        <time>2026-08-18T08:35:17.004Z</time>
      </trkpt>
      <trkpt lat="45.38338" lon="4.58906">
        <ele>1382.1</ele>
        <time>2026-08-18T08:35:18.004Z</time>
      </trkpt>
      <trkpt lat="45.38338" lon="4.58909">
        <ele>1381.7</ele>
        <time>2026-08-18T08:35:20.003Z</time>
      </trkpt>
      <trkpt lat="45.38338" lon="4.5891">
        <ele>1381.4</ele>
        <time>2026-08-18T08:35:21.071Z</time>
      </trkpt>
      <trkpt lat="45.38338" lon="4.58913">
        <ele>1382.8</ele>
        <time>2026-08-18T08:35:23.003Z</time>
      </trkpt>
      <trkpt lat="45.38338" lon="4.58914">
        <ele>1382.5</ele>
        <time>2026-08-18T08:35:24.018Z</time>
      </trkpt>
      <trkpt lat="45.38338" lon="4.58917">
        <ele>1381.6</ele>
        <time>2026-08-18T08:35:26.004Z</time>
      </trkpt>
      <trkpt lat="45.38338" lon="4.5892">
        <ele>1380.7</ele>
        <time>2026-08-18T08:35:28.010Z</time>
      </trkpt>
      <trkpt lat="45.38336" lon="4.58922">
        <ele>1382.2</ele>
        <time>2026-08-18T08:35:30.065Z</time>
      </trkpt>
      <trkpt lat="45.38335" lon="4.58924">
        <ele>1383.2</ele>
        <time>2026-08-18T08:35:32.003Z</time>
      </trkpt>
      <trkpt lat="45.38335" lon="4.58924">
        <ele>1383.3</ele>
        <time>2026-08-18T08:35:33.012Z</time>
      </trkpt>
      <trkpt lat="45.38333" lon="4.58926">
        <ele>1381.4</ele>
        <time>2026-08-18T08:35:35.003Z</time>
      </trkpt>
      <trkpt lat="45.38332" lon="4.58927">
        <ele>1381.4</ele>
        <time>2026-08-18T08:35:36.028Z</time>
      </trkpt>
      <trkpt lat="45.38331" lon="4.58929">
        <ele>1381.5</ele>
        <time>2026-08-18T08:35:38.003Z</time>
      </trkpt>
      <trkpt lat="45.38331" lon="4.5893">
        <ele>1381.1</ele>
        <time>2026-08-18T08:35:39.003Z</time>
      </trkpt>
      <trkpt lat="45.3833" lon="4.58931">
        <ele>1379.6</ele>
        <time>2026-08-18T08:35:41.003Z</time>
      </trkpt>
      <trkpt lat="45.38329" lon="4.58932">
        <ele>1378.8</ele>
        <time>2026-08-18T08:35:43.002Z</time>
      </trkpt>
      <trkpt lat="45.38329" lon="4.58933">
        <ele>1378.8</ele>
        <time>2026-08-18T08:35:44.003Z</time>
      </trkpt>
      <trkpt lat="45.38328" lon="4.58935">
        <ele>1378.6</ele>
        <time>2026-08-18T08:35:45.904Z</time>
      </trkpt>
      <trkpt lat="45.38327" lon="4.58936">
        <ele>1379.5</ele>
        <time>2026-08-18T08:35:48.003Z</time>
      </trkpt>
      <trkpt lat="45.38327" lon="4.58937">
        <ele>1379.8</ele>
        <time>2026-08-18T08:35:49.003Z</time>
      </trkpt>
      <trkpt lat="45.38326" lon="4.58939">
        <ele>1380.4</ele>
        <time>2026-08-18T08:35:51.002Z</time>
      </trkpt>
      <trkpt lat="45.38325" lon="4.5894">
        <ele>1380.9</ele>
        <time>2026-08-18T08:35:53.002Z</time>
      </trkpt>
      <trkpt lat="45.38325" lon="4.58941">
        <ele>1381.4</ele>
        <time>2026-08-18T08:35:54.005Z</time>
      </trkpt>
      <trkpt lat="45.38324" lon="4.58943">
        <ele>1382.1</ele>
        <time>2026-08-18T08:35:56.003Z</time>
      </trkpt>
      <trkpt lat="45.38324" lon="4.58943">
        <ele>1381.3</ele>
        <time>2026-08-18T08:35:57.003Z</time>
      </trkpt>
      <trkpt lat="45.38323" lon="4.58942">
        <ele>1381.2</ele>
        <time>2026-08-18T08:35:58.003Z</time>
      </trkpt>
      <trkpt lat="45.38323" lon="4.58942">
        <ele>1380.5</ele>
        <time>2026-08-18T08:35:59.025Z</time>
      </trkpt>
      <trkpt lat="45.38323" lon="4.58942">
        <ele>1380.4</ele>
        <time>2026-08-18T08:36:01.003Z</time>
      </trkpt>
      <trkpt lat="45.38323" lon="4.58941">
        <ele>1380.4</ele>
        <time>2026-08-18T08:36:02.904Z</time>
      </trkpt>
      <trkpt lat="45.38323" lon="4.58941">
        <ele>1380.3</ele>
        <time>2026-08-18T08:36:04.045Z</time>
      </trkpt>
      <trkpt lat="45.38323" lon="4.58942">
        <ele>1379.5</ele>
        <time>2026-08-18T08:36:05.977Z</time>
      </trkpt>
      <trkpt lat="45.38322" lon="4.58942">
        <ele>1378.8</ele>
        <time>2026-08-18T08:36:07.012Z</time>
      </trkpt>
      <trkpt lat="45.38321" lon="4.58945">
        <ele>1378.9</ele>
        <time>2026-08-18T08:36:09.010Z</time>
      </trkpt>
      <trkpt lat="45.38321" lon="4.58947">
        <ele>1378.2</ele>
        <time>2026-08-18T08:36:10.998Z</time>
      </trkpt>
      <trkpt lat="45.3832" lon="4.58948">
        <ele>1378.7</ele>
        <time>2026-08-18T08:36:12.002Z</time>
      </trkpt>
      <trkpt lat="45.3832" lon="4.58949">
        <ele>1378.7</ele>
        <time>2026-08-18T08:36:13.013Z</time>
      </trkpt>
      <trkpt lat="45.3832" lon="4.58951">
        <ele>1379.1</ele>
        <time>2026-08-18T08:36:15.029Z</time>
      </trkpt>
      <trkpt lat="45.3832" lon="4.58953">
        <ele>1379.4</ele>
        <time>2026-08-18T08:36:17.003Z</time>
      </trkpt>
      <trkpt lat="45.38319" lon="4.58954">
        <ele>1379.8</ele>
        <time>2026-08-18T08:36:18.993Z</time>
      </trkpt>
      <trkpt lat="45.38318" lon="4.58954">
        <ele>1379.9</ele>
        <time>2026-08-18T08:36:21.003Z</time>
      </trkpt>
      <trkpt lat="45.38317" lon="4.58955">
        <ele>1378.7</ele>
        <time>2026-08-18T08:36:22.003Z</time>
      </trkpt>
      <trkpt lat="45.38316" lon="4.58955">
        <ele>1379</ele>
        <time>2026-08-18T08:36:23.003Z</time>
      </trkpt>
      <trkpt lat="45.38315" lon="4.58955">
        <ele>1379.3</ele>
        <time>2026-08-18T08:36:24.011Z</time>
      </trkpt>
      <trkpt lat="45.38314" lon="4.58955">
        <ele>1377.4</ele>
        <time>2026-08-18T08:36:26.002Z</time>
      </trkpt>
      <trkpt lat="45.38313" lon="4.58955">
        <ele>1377.2</ele>
        <time>2026-08-18T08:36:27.003Z</time>
      </trkpt>
      <trkpt lat="45.38312" lon="4.58955">
        <ele>1376.5</ele>
        <time>2026-08-18T08:36:28.003Z</time>
      </trkpt>
      <trkpt lat="45.38311" lon="4.58956">
        <ele>1375.9</ele>
        <time>2026-08-18T08:36:30.088Z</time>
      </trkpt>
      <trkpt lat="45.38311" lon="4.58958">
        <ele>1374.3</ele>
        <time>2026-08-18T08:36:32.003Z</time>
      </trkpt>
      <trkpt lat="45.38311" lon="4.58959">
        <ele>1374.3</ele>
        <time>2026-08-18T08:36:33.017Z</time>
      </trkpt>
      <trkpt lat="45.3831" lon="4.5896">
        <ele>1374.8</ele>
        <time>2026-08-18T08:36:35.003Z</time>
      </trkpt>
      <trkpt lat="45.3831" lon="4.58962">
        <ele>1373.3</ele>
        <time>2026-08-18T08:36:37.016Z</time>
      </trkpt>
      <trkpt lat="45.3831" lon="4.5896">
        <ele>1373</ele>
        <time>2026-08-18T08:36:39.003Z</time>
      </trkpt>
      <trkpt lat="45.3831" lon="4.5896">
        <ele>1373</ele>
        <time>2026-08-18T08:36:41.003Z</time>
      </trkpt>
      <trkpt lat="45.3831" lon="4.5896">
        <ele>1373</ele>
        <time>2026-08-18T08:36:43.003Z</time>
      </trkpt>
      <trkpt lat="45.3831" lon="4.5896">
        <ele>1373</ele>
        <time>2026-08-18T08:36:44.003Z</time>
      </trkpt>
      <trkpt lat="45.3831" lon="4.5896">
        <ele>1373</ele>
        <time>2026-08-18T08:36:45.003Z</time>
      </trkpt>
      <trkpt lat="45.3831" lon="4.5896">
        <ele>1373</ele>
        <time>2026-08-18T08:36:46.003Z</time>
      </trkpt>
      <trkpt lat="45.3831" lon="4.5896">
        <ele>1373</ele>
        <time>2026-08-18T08:36:48.003Z</time>
      </trkpt>
      <trkpt lat="45.3831" lon="4.5896">
        <ele>1373</ele>
        <time>2026-08-18T08:36:50.003Z</time>
      </trkpt>
      <trkpt lat="45.3831" lon="4.5896">
        <ele>1372.8</ele>
        <time>2026-08-18T08:36:52.003Z</time>
      </trkpt>
      <trkpt lat="45.3831" lon="4.58961">
        <ele>1372.7</ele>
        <time>2026-08-18T08:36:53.003Z</time>
      </trkpt>
      <trkpt lat="45.3831" lon="4.58961">
        <ele>1372.8</ele>
        <time>2026-08-18T08:36:54.003Z</time>
      </trkpt>
      <trkpt lat="45.38311" lon="4.58962">
        <ele>1372.5</ele>
        <time>2026-08-18T08:36:56.003Z</time>
      </trkpt>
      <trkpt lat="45.38311" lon="4.58962">
        <ele>1371.9</ele>
        <time>2026-08-18T08:36:57.117Z</time>
      </trkpt>
      <trkpt lat="45.38311" lon="4.58965">
        <ele>1370.7</ele>
        <time>2026-08-18T08:36:59.002Z</time>
      </trkpt>
      <trkpt lat="45.3831" lon="4.58966">
        <ele>1370.9</ele>
        <time>2026-08-18T08:37:00.003Z</time>
      </trkpt>
      <trkpt lat="45.3831" lon="4.58967">
        <ele>1370.5</ele>
        <time>2026-08-18T08:37:01.003Z</time>
      </trkpt>
      <trkpt lat="45.38309" lon="4.58968">
        <ele>1370.7</ele>
        <time>2026-08-18T08:37:02.003Z</time>
      </trkpt>
      <trkpt lat="45.38308" lon="4.58969">
        <ele>1371.8</ele>
        <time>2026-08-18T08:37:03.003Z</time>
      </trkpt>
      <trkpt lat="45.38308" lon="4.5897">
        <ele>1371.8</ele>
        <time>2026-08-18T08:37:04.003Z</time>
      </trkpt>
      <trkpt lat="45.38307" lon="4.58972">
        <ele>1371.8</ele>
        <time>2026-08-18T08:37:05.029Z</time>
      </trkpt>
      <trkpt lat="45.38307" lon="4.58974">
        <ele>1372.2</ele>
        <time>2026-08-18T08:37:07.035Z</time>
      </trkpt>
      <trkpt lat="45.38307" lon="4.58976">
        <ele>1370.8</ele>
        <time>2026-08-18T08:37:09.002Z</time>
      </trkpt>
      <trkpt lat="45.38306" lon="4.58977">
        <ele>1370.8</ele>
        <time>2026-08-18T08:37:10.011Z</time>
      </trkpt>
      <trkpt lat="45.38306" lon="4.58978">
        <ele>1370.2</ele>
        <time>2026-08-18T08:37:12.003Z</time>
      </trkpt>
      <trkpt lat="45.38305" lon="4.58979">
        <ele>1369.4</ele>
        <time>2026-08-18T08:37:13.003Z</time>
      </trkpt>
      <trkpt lat="45.38305" lon="4.5898">
        <ele>1368.3</ele>
        <time>2026-08-18T08:37:14.003Z</time>
      </trkpt>
      <trkpt lat="45.38304" lon="4.58982">
        <ele>1367.6</ele>
        <time>2026-08-18T08:37:16.003Z</time>
      </trkpt>
      <trkpt lat="45.38303" lon="4.58982">
        <ele>1367.5</ele>
        <time>2026-08-18T08:37:17.003Z</time>
      </trkpt>
      <trkpt lat="45.38303" lon="4.58983">
        <ele>1367.7</ele>
        <time>2026-08-18T08:37:18.003Z</time>
      </trkpt>
      <trkpt lat="45.38302" lon="4.58985">
        <ele>1367.7</ele>
        <time>2026-08-18T08:37:20.002Z</time>
      </trkpt>
      <trkpt lat="45.38302" lon="4.58986">
        <ele>1367.8</ele>
        <time>2026-08-18T08:37:21.002Z</time>
      </trkpt>
      <trkpt lat="45.38302" lon="4.58987">
        <ele>1367.2</ele>
        <time>2026-08-18T08:37:22.003Z</time>
      </trkpt>
      <trkpt lat="45.38302" lon="4.58987">
        <ele>1367.5</ele>
        <time>2026-08-18T08:37:23.003Z</time>
      </trkpt>
      <trkpt lat="45.38302" lon="4.58988">
        <ele>1368</ele>
        <time>2026-08-18T08:37:24.003Z</time>
      </trkpt>
      <trkpt lat="45.38302" lon="4.58989">
        <ele>1368.5</ele>
        <time>2026-08-18T08:37:25.003Z</time>
      </trkpt>
      <trkpt lat="45.38302" lon="4.5899">
        <ele>1368.9</ele>
        <time>2026-08-18T08:37:26.003Z</time>
      </trkpt>
      <trkpt lat="45.38301" lon="4.58991">
        <ele>1368.6</ele>
        <time>2026-08-18T08:37:27.009Z</time>
      </trkpt>
      <trkpt lat="45.38301" lon="4.5899">
        <ele>1368.7</ele>
        <time>2026-08-18T08:37:29.003Z</time>
      </trkpt>
      <trkpt lat="45.38301" lon="4.58989">
        <ele>1368.7</ele>
        <time>2026-08-18T08:37:30.003Z</time>
      </trkpt>
      <trkpt lat="45.38301" lon="4.58989">
        <ele>1368.4</ele>
        <time>2026-08-18T08:37:31.003Z</time>
      </trkpt>
      <trkpt lat="45.38301" lon="4.58989">
        <ele>1368.4</ele>
        <time>2026-08-18T08:37:32.003Z</time>
      </trkpt>
      <trkpt lat="45.38301" lon="4.58989">
        <ele>1369.2</ele>
        <time>2026-08-18T08:37:33.003Z</time>
      </trkpt>
      <trkpt lat="45.38301" lon="4.58988">
        <ele>1369.1</ele>
        <time>2026-08-18T08:37:34.003Z</time>
      </trkpt>
      <trkpt lat="45.38301" lon="4.58988">
        <ele>1369.1</ele>
        <time>2026-08-18T08:37:36.003Z</time>
      </trkpt>
      <trkpt lat="45.383" lon="4.58988">
        <ele>1369.1</ele>
        <time>2026-08-18T08:37:37.003Z</time>
      </trkpt>
      <trkpt lat="45.383" lon="4.58988">
        <ele>1369.1</ele>
        <time>2026-08-18T08:37:38.003Z</time>
      </trkpt>
      <trkpt lat="45.383" lon="4.58988">
        <ele>1369.1</ele>
        <time>2026-08-18T08:37:39.003Z</time>
      </trkpt>
      <trkpt lat="45.383" lon="4.58987">
        <ele>1369.1</ele>
        <time>2026-08-18T08:37:40.016Z</time>
      </trkpt>
      <trkpt lat="45.383" lon="4.58987">
        <ele>1369.1</ele>
        <time>2026-08-18T08:37:42.002Z</time>
      </trkpt>
      <trkpt lat="45.383" lon="4.58987">
        <ele>1369</ele>
        <time>2026-08-18T08:37:43.002Z</time>
      </trkpt>
      <trkpt lat="45.383" lon="4.58987">
        <ele>1369</ele>
        <time>2026-08-18T08:37:44.003Z</time>
      </trkpt>
      <trkpt lat="45.383" lon="4.58987">
        <ele>1369</ele>
        <time>2026-08-18T08:37:45.003Z</time>
      </trkpt>
      <trkpt lat="45.383" lon="4.58987">
        <ele>1369</ele>
        <time>2026-08-18T08:37:46.003Z</time>
      </trkpt>
      <trkpt lat="45.383" lon="4.58987">
        <ele>1369</ele>
        <time>2026-08-18T08:37:47.088Z</time>
      </trkpt>
      <trkpt lat="45.383" lon="4.58987">
        <ele>1369</ele>
        <time>2026-08-18T08:37:49.002Z</time>
      </trkpt>
      <trkpt lat="45.383" lon="4.58987">
        <ele>1369</ele>
        <time>2026-08-18T08:37:50.002Z</time>
      </trkpt>
      <trkpt lat="45.383" lon="4.58987">
        <ele>1369</ele>
        <time>2026-08-18T08:37:51.002Z</time>
      </trkpt>
      <trkpt lat="45.383" lon="4.58987">
        <ele>1369</ele>
        <time>2026-08-18T08:37:52.002Z</time>
      </trkpt>
      <trkpt lat="45.383" lon="4.58987">
        <ele>1369</ele>
        <time>2026-08-18T08:37:53.003Z</time>
      </trkpt>
      <trkpt lat="45.383" lon="4.58987">
        <ele>1369</ele>
        <time>2026-08-18T08:37:54.011Z</time>
      </trkpt>
      <trkpt lat="45.383" lon="4.58987">
        <ele>1369</ele>
        <time>2026-08-18T08:37:55.088Z</time>
      </trkpt>
      <trkpt lat="45.383" lon="4.58987">
        <ele>1369</ele>
        <time>2026-08-18T08:37:57.002Z</time>
      </trkpt>
      <trkpt lat="45.383" lon="4.58987">
        <ele>1369</ele>
        <time>2026-08-18T08:37:58.004Z</time>
      </trkpt>
      <trkpt lat="45.383" lon="4.58987">
        <ele>1369</ele>
        <time>2026-08-18T08:37:59.936Z</time>
      </trkpt>
      <trkpt lat="45.383" lon="4.58987">
        <ele>1368.2</ele>
        <time>2026-08-18T08:38:01.001Z</time>
      </trkpt>
      <trkpt lat="45.383" lon="4.58987">
        <ele>1368.3</ele>
        <time>2026-08-18T08:38:02.002Z</time>
      </trkpt>
      <trkpt lat="45.383" lon="4.58987">
        <ele>1368.3</ele>
        <time>2026-08-18T08:38:03.024Z</time>
      </trkpt>
      <trkpt lat="45.383" lon="4.58987">
        <ele>1368.3</ele>
        <time>2026-08-18T08:38:05.002Z</time>
      </trkpt>
      <trkpt lat="45.383" lon="4.58987">
        <ele>1368.3</ele>
        <time>2026-08-18T08:38:06.003Z</time>
      </trkpt>
      <trkpt lat="45.383" lon="4.58987">
        <ele>1368.3</ele>
        <time>2026-08-18T08:38:07.003Z</time>
      </trkpt>
      <trkpt lat="45.383" lon="4.58987">
        <ele>1368.3</ele>
        <time>2026-08-18T08:38:08.003Z</time>
      </trkpt>
      <trkpt lat="45.383" lon="4.58987">
        <ele>1368.4</ele>
        <time>2026-08-18T08:38:09.003Z</time>
      </trkpt>
      <trkpt lat="45.383" lon="4.58987">
        <ele>1368.4</ele>
        <time>2026-08-18T08:38:10.003Z</time>
      </trkpt>
      <trkpt lat="45.383" lon="4.58987">
        <ele>1368.4</ele>
        <time>2026-08-18T08:38:11.010Z</time>
      </trkpt>
      <trkpt lat="45.383" lon="4.58987">
        <ele>1368.4</ele>
        <time>2026-08-18T08:38:12.094Z</time>
      </trkpt>
      <trkpt lat="45.383" lon="4.58987">
        <ele>1368.4</ele>
        <time>2026-08-18T08:38:14.003Z</time>
      </trkpt>
      <trkpt lat="45.383" lon="4.58987">
        <ele>1368.4</ele>
        <time>2026-08-18T08:38:16.003Z</time>
      </trkpt>
      <trkpt lat="45.383" lon="4.58987">
        <ele>1368.4</ele>
        <time>2026-08-18T08:38:17.003Z</time>
      </trkpt>
      <trkpt lat="45.383" lon="4.58987">
        <ele>1368.4</ele>
        <time>2026-08-18T08:38:19.003Z</time>
      </trkpt>
      <trkpt lat="45.383" lon="4.58987">
        <ele>1368.4</ele>
        <time>2026-08-18T08:38:20.003Z</time>
      </trkpt>
      <trkpt lat="45.383" lon="4.58987">
        <ele>1368.4</ele>
        <time>2026-08-18T08:38:22.002Z</time>
      </trkpt>
      <trkpt lat="45.383" lon="4.58987">
        <ele>1368.4</ele>
        <time>2026-08-18T08:38:23.003Z</time>
      </trkpt>
      <trkpt lat="45.383" lon="4.58987">
        <ele>1368.4</ele>
        <time>2026-08-18T08:38:24.003Z</time>
      </trkpt>
      <trkpt lat="45.383" lon="4.58986">
        <ele>1368.4</ele>
        <time>2026-08-18T08:38:25.003Z</time>
      </trkpt>
      <trkpt lat="45.383" lon="4.58986">
        <ele>1368.4</ele>
        <time>2026-08-18T08:38:26.003Z</time>
      </trkpt>
      <trkpt lat="45.383" lon="4.58986">
        <ele>1368.9</ele>
        <time>2026-08-18T08:38:27.003Z</time>
      </trkpt>
      <trkpt lat="45.383" lon="4.58986">
        <ele>1369.3</ele>
        <time>2026-08-18T08:38:28.003Z</time>
      </trkpt>
      <trkpt lat="45.383" lon="4.58986">
        <ele>1368.7</ele>
        <time>2026-08-18T08:38:30.006Z</time>
      </trkpt>
      <trkpt lat="45.383" lon="4.58987">
        <ele>1368.5</ele>
        <time>2026-08-18T08:38:32.002Z</time>
      </trkpt>
      <trkpt lat="45.383" lon="4.58987">
        <ele>1369.2</ele>
        <time>2026-08-18T08:38:33.003Z</time>
      </trkpt>
      <trkpt lat="45.383" lon="4.58988">
        <ele>1369.2</ele>
        <time>2026-08-18T08:38:34.031Z</time>
      </trkpt>
      <trkpt lat="45.38297" lon="4.5899">
        <ele>1369.7</ele>
        <time>2026-08-18T08:38:36.002Z</time>
      </trkpt>
      <trkpt lat="45.38296" lon="4.58992">
        <ele>1370.5</ele>
        <time>2026-08-18T08:38:37.003Z</time>
      </trkpt>
      <trkpt lat="45.38295" lon="4.58992">
        <ele>1370.6</ele>
        <time>2026-08-18T08:38:38.003Z</time>
      </trkpt>
      <trkpt lat="45.38293" lon="4.58994">
        <ele>1370.3</ele>
        <time>2026-08-18T08:38:40.003Z</time>
      </trkpt>
      <trkpt lat="45.38291" lon="4.58995">
        <ele>1369.7</ele>
        <time>2026-08-18T08:38:42.002Z</time>
      </trkpt>
      <trkpt lat="45.38291" lon="4.58996">
        <ele>1368.6</ele>
        <time>2026-08-18T08:38:43.003Z</time>
      </trkpt>
      <trkpt lat="45.3829" lon="4.58996">
        <ele>1368.7</ele>
        <time>2026-08-18T08:38:44.003Z</time>
      </trkpt>
      <trkpt lat="45.38289" lon="4.58996">
        <ele>1368.9</ele>
        <time>2026-08-18T08:38:45.003Z</time>
      </trkpt>
      <trkpt lat="45.38289" lon="4.58997">
        <ele>1367.7</ele>
        <time>2026-08-18T08:38:47.006Z</time>
      </trkpt>
      <trkpt lat="45.38288" lon="4.58998">
        <ele>1367.6</ele>
        <time>2026-08-18T08:38:49.003Z</time>
      </trkpt>
      <trkpt lat="45.38288" lon="4.58999">
        <ele>1366.7</ele>
        <time>2026-08-18T08:38:51.002Z</time>
      </trkpt>
      <trkpt lat="45.38287" lon="4.59">
        <ele>1366.5</ele>
        <time>2026-08-18T08:38:52.003Z</time>
      </trkpt>
      <trkpt lat="45.38287" lon="4.59">
        <ele>1366.2</ele>
        <time>2026-08-18T08:38:53.003Z</time>
      </trkpt>
      <trkpt lat="45.38286" lon="4.59001">
        <ele>1366.1</ele>
        <time>2026-08-18T08:38:55.002Z</time>
      </trkpt>
      <trkpt lat="45.38286" lon="4.59002">
        <ele>1366.6</ele>
        <time>2026-08-18T08:38:56.019Z</time>
      </trkpt>
      <trkpt lat="45.38285" lon="4.59004">
        <ele>1366.5</ele>
        <time>2026-08-18T08:38:58.002Z</time>
      </trkpt>
      <trkpt lat="45.38285" lon="4.59005">
        <ele>1366.3</ele>
        <time>2026-08-18T08:38:59.002Z</time>
      </trkpt>
      <trkpt lat="45.38285" lon="4.59006">
        <ele>1366.3</ele>
        <time>2026-08-18T08:39:00.013Z</time>
      </trkpt>
      <trkpt lat="45.38285" lon="4.59008">
        <ele>1365.9</ele>
        <time>2026-08-18T08:39:02.003Z</time>
      </trkpt>
      <trkpt lat="45.38285" lon="4.59009">
        <ele>1366</ele>
        <time>2026-08-18T08:39:03.003Z</time>
      </trkpt>
      <trkpt lat="45.38284" lon="4.5901">
        <ele>1365.9</ele>
        <time>2026-08-18T08:39:04.004Z</time>
      </trkpt>
      <trkpt lat="45.38283" lon="4.5901">
        <ele>1366.4</ele>
        <time>2026-08-18T08:39:06.003Z</time>
      </trkpt>
      <trkpt lat="45.38282" lon="4.5901">
        <ele>1366.4</ele>
        <time>2026-08-18T08:39:07.011Z</time>
      </trkpt>
      <trkpt lat="45.38281" lon="4.59011">
        <ele>1364.6</ele>
        <time>2026-08-18T08:39:09.003Z</time>
      </trkpt>
      <trkpt lat="45.38281" lon="4.59012">
        <ele>1364</ele>
        <time>2026-08-18T08:39:10.003Z</time>
      </trkpt>
      <trkpt lat="45.38281" lon="4.59013">
        <ele>1362.5</ele>
        <time>2026-08-18T08:39:11.003Z</time>
      </trkpt>
      <trkpt lat="45.3828" lon="4.59014">
        <ele>1362.5</ele>
        <time>2026-08-18T08:39:12.051Z</time>
      </trkpt>
      <trkpt lat="45.3828" lon="4.59015">
        <ele>1360.7</ele>
        <time>2026-08-18T08:39:13.087Z</time>
      </trkpt>
      <trkpt lat="45.38279" lon="4.59016">
        <ele>1359.3</ele>
        <time>2026-08-18T08:39:15.014Z</time>
      </trkpt>
      <trkpt lat="45.38279" lon="4.59019">
        <ele>1358.8</ele>
        <time>2026-08-18T08:39:17.003Z</time>
      </trkpt>
      <trkpt lat="45.38278" lon="4.59021">
        <ele>1358.1</ele>
        <time>2026-08-18T08:39:19.009Z</time>
      </trkpt>
      <trkpt lat="45.38277" lon="4.59022">
        <ele>1358.6</ele>
        <time>2026-08-18T08:39:20.148Z</time>
      </trkpt>
      <trkpt lat="45.38277" lon="4.59025">
        <ele>1358.6</ele>
        <time>2026-08-18T08:39:22.002Z</time>
      </trkpt>
      <trkpt lat="45.38276" lon="4.59026">
        <ele>1358.6</ele>
        <time>2026-08-18T08:39:23.002Z</time>
      </trkpt>
      <trkpt lat="45.38276" lon="4.59027">
        <ele>1358.8</ele>
        <time>2026-08-18T08:39:24.002Z</time>
      </trkpt>
      <trkpt lat="45.38276" lon="4.59029">
        <ele>1359.6</ele>
        <time>2026-08-18T08:39:25.003Z</time>
      </trkpt>
      <trkpt lat="45.38275" lon="4.5903">
        <ele>1359.6</ele>
        <time>2026-08-18T08:39:26.017Z</time>
      </trkpt>
      <trkpt lat="45.38274" lon="4.59033">
        <ele>1361.3</ele>
        <time>2026-08-18T08:39:28.033Z</time>
      </trkpt>
      <trkpt lat="45.38274" lon="4.59036">
        <ele>1361.4</ele>
        <time>2026-08-18T08:39:30.087Z</time>
      </trkpt>
      <trkpt lat="45.38274" lon="4.59038">
        <ele>1361.1</ele>
        <time>2026-08-18T08:39:31.912Z</time>
      </trkpt>
      <trkpt lat="45.38274" lon="4.59039">
        <ele>1360.1</ele>
        <time>2026-08-18T08:39:33.003Z</time>
      </trkpt>
      <trkpt lat="45.38274" lon="4.59043">
        <ele>1359.7</ele>
        <time>2026-08-18T08:39:34.972Z</time>
      </trkpt>
      <trkpt lat="45.38275" lon="4.59044">
        <ele>1359.1</ele>
        <time>2026-08-18T08:39:36.007Z</time>
      </trkpt>
      <trkpt lat="45.38275" lon="4.59047">
        <ele>1358.6</ele>
        <time>2026-08-18T08:39:38.002Z</time>
      </trkpt>
      <trkpt lat="45.38276" lon="4.59049">
        <ele>1358.6</ele>
        <time>2026-08-18T08:39:40.003Z</time>
      </trkpt>
      <trkpt lat="45.38276" lon="4.59052">
        <ele>1358.2</ele>
        <time>2026-08-18T08:39:42.002Z</time>
      </trkpt>
      <trkpt lat="45.38276" lon="4.59054">
        <ele>1358.8</ele>
        <time>2026-08-18T08:39:44.002Z</time>
      </trkpt>
      <trkpt lat="45.38276" lon="4.59055">
        <ele>1361.1</ele>
        <time>2026-08-18T08:39:45.002Z</time>
      </trkpt>
      <trkpt lat="45.38276" lon="4.59056">
        <ele>1359.9</ele>
        <time>2026-08-18T08:39:46.085Z</time>
      </trkpt>
      <trkpt lat="45.38275" lon="4.59058">
        <ele>1359</ele>
        <time>2026-08-18T08:39:48.006Z</time>
      </trkpt>
      <trkpt lat="45.38274" lon="4.59059">
        <ele>1358.7</ele>
        <time>2026-08-18T08:39:50.003Z</time>
      </trkpt>
      <trkpt lat="45.38273" lon="4.59059">
        <ele>1357.5</ele>
        <time>2026-08-18T08:39:51.003Z</time>
      </trkpt>
      <trkpt lat="45.38272" lon="4.59061">
        <ele>1358.2</ele>
        <time>2026-08-18T08:39:53.003Z</time>
      </trkpt>
      <trkpt lat="45.38272" lon="4.59062">
        <ele>1357.8</ele>
        <time>2026-08-18T08:39:54.003Z</time>
      </trkpt>
      <trkpt lat="45.38271" lon="4.59063">
        <ele>1357.8</ele>
        <time>2026-08-18T08:39:55.059Z</time>
      </trkpt>
      <trkpt lat="45.38271" lon="4.59063">
        <ele>1357.6</ele>
        <time>2026-08-18T08:39:56.088Z</time>
      </trkpt>
      <trkpt lat="45.3827" lon="4.59064">
        <ele>1358.2</ele>
        <time>2026-08-18T08:39:58.007Z</time>
      </trkpt>
      <trkpt lat="45.3827" lon="4.59066">
        <ele>1358.5</ele>
        <time>2026-08-18T08:40:00.002Z</time>
      </trkpt>
      <trkpt lat="45.3827" lon="4.59067">
        <ele>1358.3</ele>
        <time>2026-08-18T08:40:01.002Z</time>
      </trkpt>
      <trkpt lat="45.38269" lon="4.59068">
        <ele>1358.2</ele>
        <time>2026-08-18T08:40:02.003Z</time>
      </trkpt>
      <trkpt lat="45.38268" lon="4.59069">
        <ele>1359</ele>
        <time>2026-08-18T08:40:04.003Z</time>
      </trkpt>
      <trkpt lat="45.38268" lon="4.5907">
        <ele>1359.1</ele>
        <time>2026-08-18T08:40:05.003Z</time>
      </trkpt>
      <trkpt lat="45.38268" lon="4.59072">
        <ele>1358.5</ele>
        <time>2026-08-18T08:40:06.012Z</time>
      </trkpt>
      <trkpt lat="45.38267" lon="4.59073">
        <ele>1358.4</ele>
        <time>2026-08-18T08:40:08.002Z</time>
      </trkpt>
      <trkpt lat="45.38266" lon="4.59073">
        <ele>1359.5</ele>
        <time>2026-08-18T08:40:09.002Z</time>
      </trkpt>
      <trkpt lat="45.38265" lon="4.59074">
        <ele>1360</ele>
        <time>2026-08-18T08:40:10.006Z</time>
      </trkpt>
      <trkpt lat="45.38264" lon="4.59076">
        <ele>1357.8</ele>
        <time>2026-08-18T08:40:12.003Z</time>
      </trkpt>
      <trkpt lat="45.38263" lon="4.59078">
        <ele>1356.7</ele>
        <time>2026-08-18T08:40:14.002Z</time>
      </trkpt>
      <trkpt lat="45.38262" lon="4.59079">
        <ele>1357.9</ele>
        <time>2026-08-18T08:40:15.026Z</time>
      </trkpt>
      <trkpt lat="45.3826" lon="4.59079">
        <ele>1356.9</ele>
        <time>2026-08-18T08:40:17.003Z</time>
      </trkpt>
      <trkpt lat="45.38259" lon="4.5908">
        <ele>1356.3</ele>
        <time>2026-08-18T08:40:18.003Z</time>
      </trkpt>
      <trkpt lat="45.38257" lon="4.59081">
        <ele>1356.3</ele>
        <time>2026-08-18T08:40:20.045Z</time>
      </trkpt>
      <trkpt lat="45.38256" lon="4.59082">
        <ele>1355.2</ele>
        <time>2026-08-18T08:40:22.002Z</time>
      </trkpt>
      <trkpt lat="45.38254" lon="4.59083">
        <ele>1352.9</ele>
        <time>2026-08-18T08:40:24.001Z</time>
      </trkpt>
      <trkpt lat="45.38253" lon="4.59083">
        <ele>1352.8</ele>
        <time>2026-08-18T08:40:25.003Z</time>
      </trkpt>
      <trkpt lat="45.38252" lon="4.59084">
        <ele>1353.1</ele>
        <time>2026-08-18T08:40:26.003Z</time>
      </trkpt>
      <trkpt lat="45.38251" lon="4.59084">
        <ele>1352.8</ele>
        <time>2026-08-18T08:40:27.005Z</time>
      </trkpt>
      <trkpt lat="45.38249" lon="4.59086">
        <ele>1353</ele>
        <time>2026-08-18T08:40:29.003Z</time>
      </trkpt>
      <trkpt lat="45.38248" lon="4.59086">
        <ele>1350.7</ele>
        <time>2026-08-18T08:40:31.003Z</time>
      </trkpt>
      <trkpt lat="45.38246" lon="4.59086">
        <ele>1350.6</ele>
        <time>2026-08-18T08:40:33.003Z</time>
      </trkpt>
      <trkpt lat="45.38245" lon="4.59086">
        <ele>1352.1</ele>
        <time>2026-08-18T08:40:35.002Z</time>
      </trkpt>
      <trkpt lat="45.38244" lon="4.59085">
        <ele>1350.6</ele>
        <time>2026-08-18T08:40:37.002Z</time>
      </trkpt>
      <trkpt lat="45.38242" lon="4.59086">
        <ele>1351.6</ele>
        <time>2026-08-18T08:40:39.002Z</time>
      </trkpt>
      <trkpt lat="45.38241" lon="4.59086">
        <ele>1352.3</ele>
        <time>2026-08-18T08:40:40.003Z</time>
      </trkpt>
      <trkpt lat="45.38241" lon="4.59087">
        <ele>1351.8</ele>
        <time>2026-08-18T08:40:41.003Z</time>
      </trkpt>
      <trkpt lat="45.3824" lon="4.59089">
        <ele>1350.9</ele>
        <time>2026-08-18T08:40:42.953Z</time>
      </trkpt>
      <trkpt lat="45.38239" lon="4.5909">
        <ele>1351</ele>
        <time>2026-08-18T08:40:44.005Z</time>
      </trkpt>
      <trkpt lat="45.38238" lon="4.59092">
        <ele>1349.2</ele>
        <time>2026-08-18T08:40:46.058Z</time>
      </trkpt>
      <trkpt lat="45.38237" lon="4.59093">
        <ele>1348.8</ele>
        <time>2026-08-18T08:40:47.998Z</time>
      </trkpt>
      <trkpt lat="45.38236" lon="4.59094">
        <ele>1346.2</ele>
        <time>2026-08-18T08:40:50.002Z</time>
      </trkpt>
      <trkpt lat="45.38235" lon="4.59095">
        <ele>1347</ele>
        <time>2026-08-18T08:40:51.003Z</time>
      </trkpt>
      <trkpt lat="45.38235" lon="4.59096">
        <ele>1345.1</ele>
        <time>2026-08-18T08:40:52.003Z</time>
      </trkpt>
      <trkpt lat="45.38234" lon="4.59098">
        <ele>1342.8</ele>
        <time>2026-08-18T08:40:54.002Z</time>
      </trkpt>
      <trkpt lat="45.38234" lon="4.59099">
        <ele>1342.3</ele>
        <time>2026-08-18T08:40:55.003Z</time>
      </trkpt>
      <trkpt lat="45.38233" lon="4.59102">
        <ele>1342</ele>
        <time>2026-08-18T08:40:56.910Z</time>
      </trkpt>
      <trkpt lat="45.38233" lon="4.59104">
        <ele>1342.4</ele>
        <time>2026-08-18T08:40:58.003Z</time>
      </trkpt>
      <trkpt lat="45.38233" lon="4.59107">
        <ele>1341.9</ele>
        <time>2026-08-18T08:41:00.003Z</time>
      </trkpt>
      <trkpt lat="45.38233" lon="4.5911">
        <ele>1342.5</ele>
        <time>2026-08-18T08:41:02.003Z</time>
      </trkpt>
      <trkpt lat="45.38233" lon="4.59112">
        <ele>1342.9</ele>
        <time>2026-08-18T08:41:04.002Z</time>
      </trkpt>
      <trkpt lat="45.38232" lon="4.59114">
        <ele>1342.9</ele>
        <time>2026-08-18T08:41:05.028Z</time>
      </trkpt>
      <trkpt lat="45.38232" lon="4.59116">
        <ele>1343.6</ele>
        <time>2026-08-18T08:41:06.997Z</time>
      </trkpt>
      <trkpt lat="45.3823" lon="4.59119">
        <ele>1343.7</ele>
        <time>2026-08-18T08:41:08.994Z</time>
      </trkpt>
      <trkpt lat="45.3823" lon="4.5912">
        <ele>1343.9</ele>
        <time>2026-08-18T08:41:10.003Z</time>
      </trkpt>
      <trkpt lat="45.3823" lon="4.59122">
        <ele>1341.7</ele>
        <time>2026-08-18T08:41:12.090Z</time>
      </trkpt>
      <trkpt lat="45.38229" lon="4.59123">
        <ele>1340.4</ele>
        <time>2026-08-18T08:41:14.003Z</time>
      </trkpt>
      <trkpt lat="45.38228" lon="4.59124">
        <ele>1338.3</ele>
        <time>2026-08-18T08:41:16.003Z</time>
      </trkpt>
      <trkpt lat="45.38227" lon="4.59126">
        <ele>1337.2</ele>
        <time>2026-08-18T08:41:17.998Z</time>
      </trkpt>
      <trkpt lat="45.38226" lon="4.59126">
        <ele>1337.5</ele>
        <time>2026-08-18T08:41:19.003Z</time>
      </trkpt>
      <trkpt lat="45.38225" lon="4.59128">
        <ele>1337.8</ele>
        <time>2026-08-18T08:41:21.003Z</time>
      </trkpt>
      <trkpt lat="45.38225" lon="4.5913">
        <ele>1338.3</ele>
        <time>2026-08-18T08:41:23.005Z</time>
      </trkpt>
      <trkpt lat="45.38224" lon="4.59132">
        <ele>1338.1</ele>
        <time>2026-08-18T08:41:24.956Z</time>
      </trkpt>
      <trkpt lat="45.38224" lon="4.59132">
        <ele>1337.8</ele>
        <time>2026-08-18T08:41:26.003Z</time>
      </trkpt>
      <trkpt lat="45.38223" lon="4.59133">
        <ele>1337.7</ele>
        <time>2026-08-18T08:41:27.003Z</time>
      </trkpt>
      <trkpt lat="45.38222" lon="4.59134">
        <ele>1337.4</ele>
        <time>2026-08-18T08:41:28.026Z</time>
      </trkpt>
      <trkpt lat="45.38222" lon="4.59135">
        <ele>1337.4</ele>
        <time>2026-08-18T08:41:29.073Z</time>
      </trkpt>
      <trkpt lat="45.38221" lon="4.59136">
        <ele>1337.6</ele>
        <time>2026-08-18T08:41:31.003Z</time>
      </trkpt>
      <trkpt lat="45.3822" lon="4.59138">
        <ele>1338</ele>
        <time>2026-08-18T08:41:33.003Z</time>
      </trkpt>
      <trkpt lat="45.3822" lon="4.59138">
        <ele>1337</ele>
        <time>2026-08-18T08:41:34.003Z</time>
      </trkpt>
      <trkpt lat="45.38219" lon="4.5914">
        <ele>1337.1</ele>
        <time>2026-08-18T08:41:36.011Z</time>
      </trkpt>
      <trkpt lat="45.38219" lon="4.59142">
        <ele>1336.7</ele>
        <time>2026-08-18T08:41:37.934Z</time>
      </trkpt>
      <trkpt lat="45.38219" lon="4.59143">
        <ele>1336.6</ele>
        <time>2026-08-18T08:41:39.002Z</time>
      </trkpt>
      <trkpt lat="45.38219" lon="4.59144">
        <ele>1336.3</ele>
        <time>2026-08-18T08:41:40.004Z</time>
      </trkpt>
      <trkpt lat="45.38219" lon="4.59146">
        <ele>1334.2</ele>
        <time>2026-08-18T08:41:42.003Z</time>
      </trkpt>
      <trkpt lat="45.38219" lon="4.59146">
        <ele>1334.3</ele>
        <time>2026-08-18T08:41:43.003Z</time>
      </trkpt>
      <trkpt lat="45.38219" lon="4.59149">
        <ele>1333.5</ele>
        <time>2026-08-18T08:41:45.002Z</time>
      </trkpt>
      <trkpt lat="45.38219" lon="4.59149">
        <ele>1332.7</ele>
        <time>2026-08-18T08:41:46.003Z</time>
      </trkpt>
      <trkpt lat="45.38218" lon="4.5915">
        <ele>1332.5</ele>
        <time>2026-08-18T08:41:47.003Z</time>
      </trkpt>
      <trkpt lat="45.38217" lon="4.59151">
        <ele>1333.3</ele>
        <time>2026-08-18T08:41:49.003Z</time>
      </trkpt>
      <trkpt lat="45.38216" lon="4.59151">
        <ele>1332.3</ele>
        <time>2026-08-18T08:41:50.003Z</time>
      </trkpt>
      <trkpt lat="45.38214" lon="4.59152">
        <ele>1332.2</ele>
        <time>2026-08-18T08:41:52.002Z</time>
      </trkpt>
      <trkpt lat="45.38213" lon="4.59153">
        <ele>1330.9</ele>
        <time>2026-08-18T08:41:53.012Z</time>
      </trkpt>
      <trkpt lat="45.38212" lon="4.59153">
        <ele>1330.9</ele>
        <time>2026-08-18T08:41:54.032Z</time>
      </trkpt>
      <trkpt lat="45.38209" lon="4.59154">
        <ele>1332.5</ele>
        <time>2026-08-18T08:41:56.003Z</time>
      </trkpt>
      <trkpt lat="45.38208" lon="4.59155">
        <ele>1332.1</ele>
        <time>2026-08-18T08:41:57.005Z</time>
      </trkpt>
      <trkpt lat="45.38207" lon="4.59156">
        <ele>1332.1</ele>
        <time>2026-08-18T08:41:58.014Z</time>
      </trkpt>
      <trkpt lat="45.38206" lon="4.59157">
        <ele>1332.4</ele>
        <time>2026-08-18T08:41:59.935Z</time>
      </trkpt>
      <trkpt lat="45.38206" lon="4.59157">
        <ele>1333.5</ele>
        <time>2026-08-18T08:42:01.002Z</time>
      </trkpt>
      <trkpt lat="45.38205" lon="4.59158">
        <ele>1332.7</ele>
        <time>2026-08-18T08:42:02.003Z</time>
      </trkpt>
      <trkpt lat="45.38204" lon="4.59158">
        <ele>1331.1</ele>
        <time>2026-08-18T08:42:03.003Z</time>
      </trkpt>
      <trkpt lat="45.38203" lon="4.59159">
        <ele>1331.9</ele>
        <time>2026-08-18T08:42:04.992Z</time>
      </trkpt>
      <trkpt lat="45.38202" lon="4.5916">
        <ele>1333</ele>
        <time>2026-08-18T08:42:06.017Z</time>
      </trkpt>
      <trkpt lat="45.38201" lon="4.59161">
        <ele>1332.1</ele>
        <time>2026-08-18T08:42:08.003Z</time>
      </trkpt>
      <trkpt lat="45.38201" lon="4.59162">
        <ele>1332.6</ele>
        <time>2026-08-18T08:42:09.003Z</time>
      </trkpt>
      <trkpt lat="45.382" lon="4.59163">
        <ele>1332.2</ele>
        <time>2026-08-18T08:42:10.003Z</time>
      </trkpt>
      <trkpt lat="45.38199" lon="4.59164">
        <ele>1332.2</ele>
        <time>2026-08-18T08:42:11.030Z</time>
      </trkpt>
      <trkpt lat="45.38199" lon="4.59165">
        <ele>1330</ele>
        <time>2026-08-18T08:42:12.087Z</time>
      </trkpt>
      <trkpt lat="45.382" lon="4.59168">
        <ele>1330.2</ele>
        <time>2026-08-18T08:42:14.003Z</time>
      </trkpt>
      <trkpt lat="45.38199" lon="4.5917">
        <ele>1331.3</ele>
        <time>2026-08-18T08:42:16.002Z</time>
      </trkpt>
      <trkpt lat="45.38199" lon="4.59171">
        <ele>1331.2</ele>
        <time>2026-08-18T08:42:17.003Z</time>
      </trkpt>
      <trkpt lat="45.38199" lon="4.59172">
        <ele>1330.8</ele>
        <time>2026-08-18T08:42:18.003Z</time>
      </trkpt>
      <trkpt lat="45.38198" lon="4.59175">
        <ele>1329.7</ele>
        <time>2026-08-18T08:42:20.090Z</time>
      </trkpt>
      <trkpt lat="45.38198" lon="4.59177">
        <ele>1329.4</ele>
        <time>2026-08-18T08:42:22.003Z</time>
      </trkpt>
      <trkpt lat="45.38198" lon="4.59179">
        <ele>1329</ele>
        <time>2026-08-18T08:42:24.002Z</time>
      </trkpt>
      <trkpt lat="45.38198" lon="4.59181">
        <ele>1328.3</ele>
        <time>2026-08-18T08:42:25.003Z</time>
      </trkpt>
      <trkpt lat="45.38198" lon="4.59182">
        <ele>1329.2</ele>
        <time>2026-08-18T08:42:26.003Z</time>
      </trkpt>
      <trkpt lat="45.38199" lon="4.59183">
        <ele>1328.6</ele>
        <time>2026-08-18T08:42:27.003Z</time>
      </trkpt>
      <trkpt lat="45.38199" lon="4.59185">
        <ele>1327.5</ele>
        <time>2026-08-18T08:42:29.095Z</time>
      </trkpt>
      <trkpt lat="45.38198" lon="4.59187">
        <ele>1325.6</ele>
        <time>2026-08-18T08:42:31.001Z</time>
      </trkpt>
      <trkpt lat="45.38198" lon="4.59189">
        <ele>1327.2</ele>
        <time>2026-08-18T08:42:33.002Z</time>
      </trkpt>
      <trkpt lat="45.38198" lon="4.59191">
        <ele>1326.4</ele>
        <time>2026-08-18T08:42:34.009Z</time>
      </trkpt>
      <trkpt lat="45.38197" lon="4.59193">
        <ele>1326</ele>
        <time>2026-08-18T08:42:35.951Z</time>
      </trkpt>
      <trkpt lat="45.38196" lon="4.59195">
        <ele>1324.8</ele>
        <time>2026-08-18T08:42:38.003Z</time>
      </trkpt>
      <trkpt lat="45.38195" lon="4.59195">
        <ele>1324.6</ele>
        <time>2026-08-18T08:42:39.003Z</time>
      </trkpt>
      <trkpt lat="45.38196" lon="4.59198">
        <ele>1321.7</ele>
        <time>2026-08-18T08:42:40.969Z</time>
      </trkpt>
      <trkpt lat="45.38196" lon="4.59199">
        <ele>1321</ele>
        <time>2026-08-18T08:42:42.002Z</time>
      </trkpt>
      <trkpt lat="45.38195" lon="4.592">
        <ele>1320.4</ele>
        <time>2026-08-18T08:42:43.003Z</time>
      </trkpt>
      <trkpt lat="45.38195" lon="4.59201">
        <ele>1321.7</ele>
        <time>2026-08-18T08:42:44.003Z</time>
      </trkpt>
      <trkpt lat="45.38194" lon="4.59202">
        <ele>1321.7</ele>
        <time>2026-08-18T08:42:45.031Z</time>
      </trkpt>
      <trkpt lat="45.38194" lon="4.59203">
        <ele>1320.9</ele>
        <time>2026-08-18T08:42:46.971Z</time>
      </trkpt>
      <trkpt lat="45.38193" lon="4.59204">
        <ele>1319.4</ele>
        <time>2026-08-18T08:42:48.003Z</time>
      </trkpt>
      <trkpt lat="45.38192" lon="4.59205">
        <ele>1319.5</ele>
        <time>2026-08-18T08:42:50.002Z</time>
      </trkpt>
      <trkpt lat="45.38191" lon="4.59207">
        <ele>1321.7</ele>
        <time>2026-08-18T08:42:52.002Z</time>
      </trkpt>
      <trkpt lat="45.3819" lon="4.59208">
        <ele>1321.3</ele>
        <time>2026-08-18T08:42:53.003Z</time>
      </trkpt>
      <trkpt lat="45.38189" lon="4.59208">
        <ele>1321.6</ele>
        <time>2026-08-18T08:42:54.003Z</time>
      </trkpt>
      <trkpt lat="45.38188" lon="4.5921">
        <ele>1318.2</ele>
        <time>2026-08-18T08:42:56.003Z</time>
      </trkpt>
      <trkpt lat="45.38188" lon="4.5921">
        <ele>1318.6</ele>
        <time>2026-08-18T08:42:57.003Z</time>
      </trkpt>
      <trkpt lat="45.38186" lon="4.59211">
        <ele>1317.3</ele>
        <time>2026-08-18T08:42:59.002Z</time>
      </trkpt>
      <trkpt lat="45.38185" lon="4.59211">
        <ele>1319.2</ele>
        <time>2026-08-18T08:43:01.002Z</time>
      </trkpt>
      <trkpt lat="45.38184" lon="4.59212">
        <ele>1319.2</ele>
        <time>2026-08-18T08:43:02.012Z</time>
      </trkpt>
      <trkpt lat="45.38183" lon="4.59213">
        <ele>1319.6</ele>
        <time>2026-08-18T08:43:04.016Z</time>
      </trkpt>
      <trkpt lat="45.38181" lon="4.59213">
        <ele>1321.4</ele>
        <time>2026-08-18T08:43:06.003Z</time>
      </trkpt>
      <trkpt lat="45.38181" lon="4.59212">
        <ele>1321.4</ele>
        <time>2026-08-18T08:43:07.031Z</time>
      </trkpt>
      <trkpt lat="45.3818" lon="4.59214">
        <ele>1320.9</ele>
        <time>2026-08-18T08:43:09.002Z</time>
      </trkpt>
      <trkpt lat="45.38179" lon="4.59216">
        <ele>1320.3</ele>
        <time>2026-08-18T08:43:10.003Z</time>
      </trkpt>
      <trkpt lat="45.38179" lon="4.59217">
        <ele>1320.3</ele>
        <time>2026-08-18T08:43:11.034Z</time>
      </trkpt>
      <trkpt lat="45.38179" lon="4.5922">
        <ele>1320.2</ele>
        <time>2026-08-18T08:43:13.002Z</time>
      </trkpt>
      <trkpt lat="45.38178" lon="4.59222">
        <ele>1320.4</ele>
        <time>2026-08-18T08:43:15.002Z</time>
      </trkpt>
      <trkpt lat="45.38178" lon="4.59223">
        <ele>1317.9</ele>
        <time>2026-08-18T08:43:16.002Z</time>
      </trkpt>
      <trkpt lat="45.38177" lon="4.59224">
        <ele>1317.6</ele>
        <time>2026-08-18T08:43:18.002Z</time>
      </trkpt>
      <trkpt lat="45.38178" lon="4.59224">
        <ele>1313.5</ele>
        <time>2026-08-18T08:43:19.003Z</time>
      </trkpt>
      <trkpt lat="45.38179" lon="4.59222">
        <ele>1313.5</ele>
        <time>2026-08-18T08:43:21.002Z</time>
      </trkpt>
      <trkpt lat="45.38179" lon="4.59221">
        <ele>1313.5</ele>
        <time>2026-08-18T08:43:22.002Z</time>
      </trkpt>
      <trkpt lat="45.38179" lon="4.5922">
        <ele>1313.5</ele>
        <time>2026-08-18T08:43:23.003Z</time>
      </trkpt>
      <trkpt lat="45.3818" lon="4.5922">
        <ele>1313.5</ele>
        <time>2026-08-18T08:43:24.003Z</time>
      </trkpt>
      <trkpt lat="45.3818" lon="4.59219">
        <ele>1313.5</ele>
        <time>2026-08-18T08:43:26.003Z</time>
      </trkpt>
      <trkpt lat="45.3818" lon="4.59219">
        <ele>1313.5</ele>
        <time>2026-08-18T08:43:27.003Z</time>
      </trkpt>
      <trkpt lat="45.3818" lon="4.59218">
        <ele>1313.5</ele>
        <time>2026-08-18T08:43:29.002Z</time>
      </trkpt>
      <trkpt lat="45.38181" lon="4.59218">
        <ele>1313.5</ele>
        <time>2026-08-18T08:43:30.003Z</time>
      </trkpt>
      <trkpt lat="45.38181" lon="4.59218">
        <ele>1313.5</ele>
        <time>2026-08-18T08:43:31.003Z</time>
      </trkpt>
      <trkpt lat="45.38181" lon="4.59218">
        <ele>1313.5</ele>
        <time>2026-08-18T08:43:32.003Z</time>
      </trkpt>
      <trkpt lat="45.38181" lon="4.59217">
        <ele>1313.5</ele>
        <time>2026-08-18T08:43:34.002Z</time>
      </trkpt>
      <trkpt lat="45.38181" lon="4.59217">
        <ele>1313.5</ele>
        <time>2026-08-18T08:43:35.002Z</time>
      </trkpt>
      <trkpt lat="45.38181" lon="4.59217">
        <ele>1312.6</ele>
        <time>2026-08-18T08:43:36.003Z</time>
      </trkpt>
      <trkpt lat="45.38181" lon="4.59217">
        <ele>1312.7</ele>
        <time>2026-08-18T08:43:37.003Z</time>
      </trkpt>
      <trkpt lat="45.38181" lon="4.59217">
        <ele>1312.6</ele>
        <time>2026-08-18T08:43:38.003Z</time>
      </trkpt>
      <trkpt lat="45.38181" lon="4.59217">
        <ele>1314.9</ele>
        <time>2026-08-18T08:43:40.002Z</time>
      </trkpt>
      <trkpt lat="45.3818" lon="4.59217">
        <ele>1312.8</ele>
        <time>2026-08-18T08:43:41.003Z</time>
      </trkpt>
      <trkpt lat="45.3818" lon="4.59219">
        <ele>1312.6</ele>
        <time>2026-08-18T08:43:42.003Z</time>
      </trkpt>
      <trkpt lat="45.3818" lon="4.59221">
        <ele>1312.5</ele>
        <time>2026-08-18T08:43:43.003Z</time>
      </trkpt>
      <trkpt lat="45.38178" lon="4.59224">
        <ele>1312.6</ele>
        <time>2026-08-18T08:43:45.003Z</time>
      </trkpt>
      <trkpt lat="45.38178" lon="4.59226">
        <ele>1313.6</ele>
        <time>2026-08-18T08:43:46.003Z</time>
      </trkpt>
      <trkpt lat="45.38177" lon="4.59229">
        <ele>1314.6</ele>
        <time>2026-08-18T08:43:48.002Z</time>
      </trkpt>
      <trkpt lat="45.38177" lon="4.59231">
        <ele>1313.9</ele>
        <time>2026-08-18T08:43:49.003Z</time>
      </trkpt>
      <trkpt lat="45.38177" lon="4.59232">
        <ele>1314</ele>
        <time>2026-08-18T08:43:50.003Z</time>
      </trkpt>
      <trkpt lat="45.38178" lon="4.59236">
        <ele>1312.2</ele>
        <time>2026-08-18T08:43:52.003Z</time>
      </trkpt>
      <trkpt lat="45.38179" lon="4.59239">
        <ele>1312.1</ele>
        <time>2026-08-18T08:43:54.002Z</time>
      </trkpt>
      <trkpt lat="45.38178" lon="4.5924">
        <ele>1311.1</ele>
        <time>2026-08-18T08:43:55.003Z</time>
      </trkpt>
      <trkpt lat="45.38178" lon="4.59242">
        <ele>1311.8</ele>
        <time>2026-08-18T08:43:56.003Z</time>
      </trkpt>
      <trkpt lat="45.38178" lon="4.59244">
        <ele>1312.2</ele>
        <time>2026-08-18T08:43:57.003Z</time>
      </trkpt>
      <trkpt lat="45.38179" lon="4.59247">
        <ele>1313.9</ele>
        <time>2026-08-18T08:43:59.003Z</time>
      </trkpt>
      <trkpt lat="45.38178" lon="4.5925">
        <ele>1314.1</ele>
        <time>2026-08-18T08:44:01.002Z</time>
      </trkpt>
      <trkpt lat="45.38178" lon="4.59251">
        <ele>1314</ele>
        <time>2026-08-18T08:44:02.003Z</time>
      </trkpt>
      <trkpt lat="45.38177" lon="4.59252">
        <ele>1313</ele>
        <time>2026-08-18T08:44:03.004Z</time>
      </trkpt>
      <trkpt lat="45.38177" lon="4.59255">
        <ele>1312.7</ele>
        <time>2026-08-18T08:44:05.002Z</time>
      </trkpt>
      <trkpt lat="45.38177" lon="4.59258">
        <ele>1311.3</ele>
        <time>2026-08-18T08:44:07.002Z</time>
      </trkpt>
      <trkpt lat="45.38176" lon="4.59259">
        <ele>1311.6</ele>
        <time>2026-08-18T08:44:08.002Z</time>
      </trkpt>
      <trkpt lat="45.38176" lon="4.59261">
        <ele>1311.6</ele>
        <time>2026-08-18T08:44:09.003Z</time>
      </trkpt>
      <trkpt lat="45.38176" lon="4.59262">
        <ele>1312.2</ele>
        <time>2026-08-18T08:44:10.003Z</time>
      </trkpt>
      <trkpt lat="45.38175" lon="4.59264">
        <ele>1309.5</ele>
        <time>2026-08-18T08:44:12.002Z</time>
      </trkpt>
      <trkpt lat="45.38174" lon="4.59265">
        <ele>1307.9</ele>
        <time>2026-08-18T08:44:13.003Z</time>
      </trkpt>
      <trkpt lat="45.38174" lon="4.59266">
        <ele>1308.3</ele>
        <time>2026-08-18T08:44:14.003Z</time>
      </trkpt>
      <trkpt lat="45.38173" lon="4.59268">
        <ele>1308.8</ele>
        <time>2026-08-18T08:44:16.003Z</time>
      </trkpt>
      <trkpt lat="45.38173" lon="4.59271">
        <ele>1309.3</ele>
        <time>2026-08-18T08:44:18.003Z</time>
      </trkpt>
      <trkpt lat="45.38174" lon="4.59274">
        <ele>1308.5</ele>
        <time>2026-08-18T08:44:20.004Z</time>
      </trkpt>
      <trkpt lat="45.38173" lon="4.59276">
        <ele>1307.5</ele>
        <time>2026-08-18T08:44:22.002Z</time>
      </trkpt>
      <trkpt lat="45.38173" lon="4.59279">
        <ele>1307.1</ele>
        <time>2026-08-18T08:44:24.003Z</time>
      </trkpt>
      <trkpt lat="45.38172" lon="4.59282">
        <ele>1308.1</ele>
        <time>2026-08-18T08:44:26.003Z</time>
      </trkpt>
      <trkpt lat="45.38172" lon="4.59283">
        <ele>1307.3</ele>
        <time>2026-08-18T08:44:27.003Z</time>
      </trkpt>
      <trkpt lat="45.38172" lon="4.59285">
        <ele>1307.3</ele>
        <time>2026-08-18T08:44:28.031Z</time>
      </trkpt>
      <trkpt lat="45.38172" lon="4.59288">
        <ele>1305.7</ele>
        <time>2026-08-18T08:44:30.001Z</time>
      </trkpt>
      <trkpt lat="45.38172" lon="4.59289">
        <ele>1306.4</ele>
        <time>2026-08-18T08:44:31.001Z</time>
      </trkpt>
      <trkpt lat="45.38172" lon="4.59292">
        <ele>1306.3</ele>
        <time>2026-08-18T08:44:33.011Z</time>
      </trkpt>
      <trkpt lat="45.3817" lon="4.59294">
        <ele>1305</ele>
        <time>2026-08-18T08:44:35.001Z</time>
      </trkpt>
      <trkpt lat="45.3817" lon="4.59295">
        <ele>1304.7</ele>
        <time>2026-08-18T08:44:36.001Z</time>
      </trkpt>
      <trkpt lat="45.38169" lon="4.59296">
        <ele>1304.4</ele>
        <time>2026-08-18T08:44:37.005Z</time>
      </trkpt>
      <trkpt lat="45.38168" lon="4.59298">
        <ele>1302.7</ele>
        <time>2026-08-18T08:44:38.937Z</time>
      </trkpt>
      <trkpt lat="45.38168" lon="4.59298">
        <ele>1301.1</ele>
        <time>2026-08-18T08:44:40.001Z</time>
      </trkpt>
      <trkpt lat="45.38168" lon="4.593">
        <ele>1299.8</ele>
        <time>2026-08-18T08:44:41.002Z</time>
      </trkpt>
      <trkpt lat="45.38167" lon="4.59302">
        <ele>1300.4</ele>
        <time>2026-08-18T08:44:43.001Z</time>
      </trkpt>
      <trkpt lat="45.38166" lon="4.59303">
        <ele>1298.5</ele>
        <time>2026-08-18T08:44:44.002Z</time>
      </trkpt>
      <trkpt lat="45.38165" lon="4.59305">
        <ele>1298.5</ele>
        <time>2026-08-18T08:44:45.013Z</time>
      </trkpt>
      <trkpt lat="45.38164" lon="4.59305">
        <ele>1299.6</ele>
        <time>2026-08-18T08:44:46.074Z</time>
      </trkpt>
      <trkpt lat="45.38163" lon="4.59307">
        <ele>1298.2</ele>
        <time>2026-08-18T08:44:48.002Z</time>
      </trkpt>
      <trkpt lat="45.38162" lon="4.59308">
        <ele>1297.9</ele>
        <time>2026-08-18T08:44:49.002Z</time>
      </trkpt>
      <trkpt lat="45.38162" lon="4.59309">
        <ele>1298.6</ele>
        <time>2026-08-18T08:44:50.002Z</time>
      </trkpt>
      <trkpt lat="45.3816" lon="4.59312">
        <ele>1298.3</ele>
        <time>2026-08-18T08:44:52.008Z</time>
      </trkpt>
      <trkpt lat="45.3816" lon="4.59314">
        <ele>1298.3</ele>
        <time>2026-08-18T08:44:54.001Z</time>
      </trkpt>
      <trkpt lat="45.38159" lon="4.59315">
        <ele>1297.9</ele>
        <time>2026-08-18T08:44:55.002Z</time>
      </trkpt>
      <trkpt lat="45.38159" lon="4.59318">
        <ele>1298.6</ele>
        <time>2026-08-18T08:44:57.002Z</time>
      </trkpt>
      <trkpt lat="45.38159" lon="4.59321">
        <ele>1298.7</ele>
        <time>2026-08-18T08:44:59.002Z</time>
      </trkpt>
      <trkpt lat="45.3816" lon="4.59324">
        <ele>1298.1</ele>
        <time>2026-08-18T08:45:01.001Z</time>
      </trkpt>
      <trkpt lat="45.38159" lon="4.59326">
        <ele>1297.8</ele>
        <time>2026-08-18T08:45:02.088Z</time>
      </trkpt>
      <trkpt lat="45.38159" lon="4.59328">
        <ele>1297.1</ele>
        <time>2026-08-18T08:45:04.008Z</time>
      </trkpt>
      <trkpt lat="45.38159" lon="4.5933">
        <ele>1296.2</ele>
        <time>2026-08-18T08:45:06.002Z</time>
      </trkpt>
      <trkpt lat="45.38159" lon="4.59331">
        <ele>1296.6</ele>
        <time>2026-08-18T08:45:07.002Z</time>
      </trkpt>
      <trkpt lat="45.38159" lon="4.59332">
        <ele>1296.2</ele>
        <time>2026-08-18T08:45:08.002Z</time>
      </trkpt>
      <trkpt lat="45.38159" lon="4.59334">
        <ele>1295.7</ele>
        <time>2026-08-18T08:45:10.001Z</time>
      </trkpt>
      <trkpt lat="45.38159" lon="4.59335">
        <ele>1295.7</ele>
        <time>2026-08-18T08:45:11.002Z</time>
      </trkpt>
      <trkpt lat="45.38159" lon="4.59337">
        <ele>1295.7</ele>
        <time>2026-08-18T08:45:12.073Z</time>
      </trkpt>
      <trkpt lat="45.38159" lon="4.59339">
        <ele>1296.8</ele>
        <time>2026-08-18T08:45:14.009Z</time>
      </trkpt>
      <trkpt lat="45.38159" lon="4.59341">
        <ele>1295.8</ele>
        <time>2026-08-18T08:45:16.002Z</time>
      </trkpt>
      <trkpt lat="45.38159" lon="4.59344">
        <ele>1297.1</ele>
        <time>2026-08-18T08:45:18.003Z</time>
      </trkpt>
      <trkpt lat="45.38159" lon="4.59347">
        <ele>1297</ele>
        <time>2026-08-18T08:45:20.002Z</time>
      </trkpt>
      <trkpt lat="45.38159" lon="4.59348">
        <ele>1297.1</ele>
        <time>2026-08-18T08:45:21.002Z</time>
      </trkpt>
      <trkpt lat="45.38159" lon="4.5935">
        <ele>1297</ele>
        <time>2026-08-18T08:45:22.002Z</time>
      </trkpt>
      <trkpt lat="45.38158" lon="4.59353">
        <ele>1298.1</ele>
        <time>2026-08-18T08:45:23.995Z</time>
      </trkpt>
      <trkpt lat="45.38158" lon="4.59355">
        <ele>1297.4</ele>
        <time>2026-08-18T08:45:25.000Z</time>
      </trkpt>
      <trkpt lat="45.38158" lon="4.59356">
        <ele>1296.9</ele>
        <time>2026-08-18T08:45:26.002Z</time>
      </trkpt>
      <trkpt lat="45.38157" lon="4.59359">
        <ele>1295.9</ele>
        <time>2026-08-18T08:45:27.017Z</time>
      </trkpt>
      <trkpt lat="45.38157" lon="4.59362">
        <ele>1296.1</ele>
        <time>2026-08-18T08:45:28.996Z</time>
      </trkpt>
      <trkpt lat="45.38157" lon="4.59364">
        <ele>1295.9</ele>
        <time>2026-08-18T08:45:30.001Z</time>
      </trkpt>
      <trkpt lat="45.38156" lon="4.59365">
        <ele>1295.4</ele>
        <time>2026-08-18T08:45:31.009Z</time>
      </trkpt>
      <trkpt lat="45.38155" lon="4.59369">
        <ele>1293.8</ele>
        <time>2026-08-18T08:45:33.002Z</time>
      </trkpt>
      <trkpt lat="45.38155" lon="4.59372">
        <ele>1291.9</ele>
        <time>2026-08-18T08:45:35.004Z</time>
      </trkpt>
      <trkpt lat="45.38154" lon="4.59374">
        <ele>1291.9</ele>
        <time>2026-08-18T08:45:36.071Z</time>
      </trkpt>
      <trkpt lat="45.38154" lon="4.59378">
        <ele>1294.3</ele>
        <time>2026-08-18T08:45:38.001Z</time>
      </trkpt>
      <trkpt lat="45.38153" lon="4.59381">
        <ele>1295.9</ele>
        <time>2026-08-18T08:45:40.002Z</time>
      </trkpt>
      <trkpt lat="45.38152" lon="4.59383">
        <ele>1295.6</ele>
        <time>2026-08-18T08:45:41.002Z</time>
      </trkpt>
      <trkpt lat="45.38152" lon="4.59384">
        <ele>1295.5</ele>
        <time>2026-08-18T08:45:42.002Z</time>
      </trkpt>
      <trkpt lat="45.38151" lon="4.59386">
        <ele>1295.1</ele>
        <time>2026-08-18T08:45:43.002Z</time>
      </trkpt>
      <trkpt lat="45.38151" lon="4.59389">
        <ele>1296</ele>
        <time>2026-08-18T08:45:45.001Z</time>
      </trkpt>
      <trkpt lat="45.3815" lon="4.5939">
        <ele>1295.8</ele>
        <time>2026-08-18T08:45:46.002Z</time>
      </trkpt>
      <trkpt lat="45.3815" lon="4.59391">
        <ele>1294.6</ele>
        <time>2026-08-18T08:45:47.002Z</time>
      </trkpt>
      <trkpt lat="45.38149" lon="4.59392">
        <ele>1294.2</ele>
        <time>2026-08-18T08:45:48.002Z</time>
      </trkpt>
      <trkpt lat="45.38149" lon="4.59394">
        <ele>1294.9</ele>
        <time>2026-08-18T08:45:49.002Z</time>
      </trkpt>
      <trkpt lat="45.38149" lon="4.59396">
        <ele>1294.4</ele>
        <time>2026-08-18T08:45:50.989Z</time>
      </trkpt>
      <trkpt lat="45.38148" lon="4.59397">
        <ele>1293.8</ele>
        <time>2026-08-18T08:45:52.004Z</time>
      </trkpt>
      <trkpt lat="45.38147" lon="4.59399">
        <ele>1293.8</ele>
        <time>2026-08-18T08:45:53.973Z</time>
      </trkpt>
      <trkpt lat="45.38146" lon="4.594">
        <ele>1291.8</ele>
        <time>2026-08-18T08:45:55.002Z</time>
      </trkpt>
      <trkpt lat="45.38144" lon="4.59402">
        <ele>1292.2</ele>
        <time>2026-08-18T08:45:57.001Z</time>
      </trkpt>
      <trkpt lat="45.38143" lon="4.59403">
        <ele>1292</ele>
        <time>2026-08-18T08:45:58.002Z</time>
      </trkpt>
      <trkpt lat="45.38142" lon="4.59404">
        <ele>1291.8</ele>
        <time>2026-08-18T08:45:59.002Z</time>
      </trkpt>
      <trkpt lat="45.38141" lon="4.59406">
        <ele>1291.4</ele>
        <time>2026-08-18T08:46:00.002Z</time>
      </trkpt>
      <trkpt lat="45.38141" lon="4.59407">
        <ele>1291.4</ele>
        <time>2026-08-18T08:46:01.028Z</time>
      </trkpt>
      <trkpt lat="45.3814" lon="4.59408">
        <ele>1291</ele>
        <time>2026-08-18T08:46:02.100Z</time>
      </trkpt>
      <trkpt lat="45.38139" lon="4.5941">
        <ele>1290.5</ele>
        <time>2026-08-18T08:46:04.002Z</time>
      </trkpt>
      <trkpt lat="45.38138" lon="4.59411">
        <ele>1292.2</ele>
        <time>2026-08-18T08:46:05.010Z</time>
      </trkpt>
      <trkpt lat="45.38137" lon="4.59412">
        <ele>1290.8</ele>
        <time>2026-08-18T08:46:07.001Z</time>
      </trkpt>
      <trkpt lat="45.38136" lon="4.59413">
        <ele>1291.6</ele>
        <time>2026-08-18T08:46:08.002Z</time>
      </trkpt>
      <trkpt lat="45.38135" lon="4.59414">
        <ele>1291.5</ele>
        <time>2026-08-18T08:46:09.002Z</time>
      </trkpt>
      <trkpt lat="45.38134" lon="4.59415">
        <ele>1291.7</ele>
        <time>2026-08-18T08:46:10.002Z</time>
      </trkpt>
      <trkpt lat="45.38133" lon="4.59416">
        <ele>1290.8</ele>
        <time>2026-08-18T08:46:11.002Z</time>
      </trkpt>
      <trkpt lat="45.38132" lon="4.59418">
        <ele>1291.4</ele>
        <time>2026-08-18T08:46:13.002Z</time>
      </trkpt>
      <trkpt lat="45.38131" lon="4.5942">
        <ele>1289.7</ele>
        <time>2026-08-18T08:46:15.001Z</time>
      </trkpt>
      <trkpt lat="45.3813" lon="4.5942">
        <ele>1289.1</ele>
        <time>2026-08-18T08:46:16.002Z</time>
      </trkpt>
      <trkpt lat="45.3813" lon="4.59422">
        <ele>1289.2</ele>
        <time>2026-08-18T08:46:17.002Z</time>
      </trkpt>
      <trkpt lat="45.38129" lon="4.59423">
        <ele>1288.5</ele>
        <time>2026-08-18T08:46:18.002Z</time>
      </trkpt>
      <trkpt lat="45.38129" lon="4.59424">
        <ele>1287.5</ele>
        <time>2026-08-18T08:46:19.002Z</time>
      </trkpt>
      <trkpt lat="45.38128" lon="4.59426">
        <ele>1285.8</ele>
        <time>2026-08-18T08:46:21.001Z</time>
      </trkpt>
      <trkpt lat="45.38128" lon="4.59426">
        <ele>1286.2</ele>
        <time>2026-08-18T08:46:22.002Z</time>
      </trkpt>
      <trkpt lat="45.38127" lon="4.59428">
        <ele>1285.4</ele>
        <time>2026-08-18T08:46:24.002Z</time>
      </trkpt>
      <trkpt lat="45.38126" lon="4.59429">
        <ele>1284.9</ele>
        <time>2026-08-18T08:46:25.002Z</time>
      </trkpt>
      <trkpt lat="45.38126" lon="4.59431">
        <ele>1285.2</ele>
        <time>2026-08-18T08:46:26.005Z</time>
      </trkpt>
      <trkpt lat="45.38125" lon="4.59432">
        <ele>1284</ele>
        <time>2026-08-18T08:46:28.001Z</time>
      </trkpt>
      <trkpt lat="45.38124" lon="4.59433">
        <ele>1283.4</ele>
        <time>2026-08-18T08:46:29.002Z</time>
      </trkpt>
      <trkpt lat="45.38124" lon="4.59434">
        <ele>1284.2</ele>
        <time>2026-08-18T08:46:30.002Z</time>
      </trkpt>
      <trkpt lat="45.38124" lon="4.59437">
        <ele>1284</ele>
        <time>2026-08-18T08:46:32.002Z</time>
      </trkpt>
      <trkpt lat="45.38123" lon="4.59439">
        <ele>1283.4</ele>
        <time>2026-08-18T08:46:34.002Z</time>
      </trkpt>
      <trkpt lat="45.38123" lon="4.59441">
        <ele>1281.7</ele>
        <time>2026-08-18T08:46:36.001Z</time>
      </trkpt>
      <trkpt lat="45.38123" lon="4.59442">
        <ele>1281.8</ele>
        <time>2026-08-18T08:46:37.001Z</time>
      </trkpt>
      <trkpt lat="45.38123" lon="4.59443">
        <ele>1282.4</ele>
        <time>2026-08-18T08:46:38.002Z</time>
      </trkpt>
      <trkpt lat="45.38123" lon="4.59445">
        <ele>1281.1</ele>
        <time>2026-08-18T08:46:40.002Z</time>
      </trkpt>
      <trkpt lat="45.38123" lon="4.59446">
        <ele>1281.1</ele>
        <time>2026-08-18T08:46:41.029Z</time>
      </trkpt>
      <trkpt lat="45.38123" lon="4.59448">
        <ele>1282.1</ele>
        <time>2026-08-18T08:46:43.005Z</time>
      </trkpt>
      <trkpt lat="45.38123" lon="4.59449">
        <ele>1281.5</ele>
        <time>2026-08-18T08:46:45.001Z</time>
      </trkpt>
      <trkpt lat="45.38123" lon="4.59451">
        <ele>1281.2</ele>
        <time>2026-08-18T08:46:46.002Z</time>
      </trkpt>
      <trkpt lat="45.38123" lon="4.59453">
        <ele>1280.4</ele>
        <time>2026-08-18T08:46:47.911Z</time>
      </trkpt>
      <trkpt lat="45.38123" lon="4.59455">
        <ele>1279.2</ele>
        <time>2026-08-18T08:46:49.051Z</time>
      </trkpt>
      <trkpt lat="45.38123" lon="4.59456">
        <ele>1280.4</ele>
        <time>2026-08-18T08:46:50.078Z</time>
      </trkpt>
      <trkpt lat="45.38123" lon="4.59458">
        <ele>1279.4</ele>
        <time>2026-08-18T08:46:52.002Z</time>
      </trkpt>
      <trkpt lat="45.38123" lon="4.5946">
        <ele>1279.6</ele>
        <time>2026-08-18T08:46:54.001Z</time>
      </trkpt>
      <trkpt lat="45.38122" lon="4.59462">
        <ele>1279.5</ele>
        <time>2026-08-18T08:46:56.014Z</time>
      </trkpt>
      <trkpt lat="45.38121" lon="4.59464">
        <ele>1279.6</ele>
        <time>2026-08-18T08:46:57.916Z</time>
      </trkpt>
      <trkpt lat="45.3812" lon="4.59465">
        <ele>1279.9</ele>
        <time>2026-08-18T08:46:59.001Z</time>
      </trkpt>
      <trkpt lat="45.38119" lon="4.59466">
        <ele>1278.5</ele>
        <time>2026-08-18T08:47:00.004Z</time>
      </trkpt>
      <trkpt lat="45.38118" lon="4.59468">
        <ele>1278.3</ele>
        <time>2026-08-18T08:47:02.002Z</time>
      </trkpt>
      <trkpt lat="45.38117" lon="4.59469">
        <ele>1278.9</ele>
        <time>2026-08-18T08:47:03.002Z</time>
      </trkpt>
      <trkpt lat="45.38115" lon="4.5947">
        <ele>1279.4</ele>
        <time>2026-08-18T08:47:05.002Z</time>
      </trkpt>
      <trkpt lat="45.38115" lon="4.59471">
        <ele>1278.8</ele>
        <time>2026-08-18T08:47:06.002Z</time>
      </trkpt>
      <trkpt lat="45.38114" lon="4.59473">
        <ele>1278.3</ele>
        <time>2026-08-18T08:47:07.060Z</time>
      </trkpt>
      <trkpt lat="45.38114" lon="4.59474">
        <ele>1278.3</ele>
        <time>2026-08-18T08:47:08.118Z</time>
      </trkpt>
      <trkpt lat="45.38113" lon="4.59476">
        <ele>1276.6</ele>
        <time>2026-08-18T08:47:09.497Z</time>
      </trkpt>
      <trkpt lat="45.38113" lon="4.59478">
        <ele>1275.9</ele>
        <time>2026-08-18T08:47:10.676Z</time>
      </trkpt>
      <trkpt lat="45.38113" lon="4.5948">
        <ele>1275.5</ele>
        <time>2026-08-18T08:47:11.911Z</time>
      </trkpt>
      <trkpt lat="45.38113" lon="4.59482">
        <ele>1275.6</ele>
        <time>2026-08-18T08:47:13.002Z</time>
      </trkpt>
      <trkpt lat="45.38112" lon="4.59486">
        <ele>1274.9</ele>
        <time>2026-08-18T08:47:15.065Z</time>
      </trkpt>
      <trkpt lat="45.38111" lon="4.59489">
        <ele>1274.7</ele>
        <time>2026-08-18T08:47:17.006Z</time>
      </trkpt>
      <trkpt lat="45.38109" lon="4.59491">
        <ele>1274.4</ele>
        <time>2026-08-18T08:47:19.002Z</time>
      </trkpt>
      <trkpt lat="45.38107" lon="4.59494">
        <ele>1273.5</ele>
        <time>2026-08-18T08:47:21.001Z</time>
      </trkpt>
      <trkpt lat="45.38107" lon="4.59496">
        <ele>1273</ele>
        <time>2026-08-18T08:47:22.025Z</time>
      </trkpt>
      <trkpt lat="45.38106" lon="4.59499">
        <ele>1272.7</ele>
        <time>2026-08-18T08:47:24.087Z</time>
      </trkpt>
      <trkpt lat="45.38105" lon="4.59502">
        <ele>1272.5</ele>
        <time>2026-08-18T08:47:26.002Z</time>
      </trkpt>
      <trkpt lat="45.38104" lon="4.59505">
        <ele>1273.4</ele>
        <time>2026-08-18T08:47:27.875Z</time>
      </trkpt>
      <trkpt lat="45.38103" lon="4.59507">
        <ele>1273.1</ele>
        <time>2026-08-18T08:47:29.001Z</time>
      </trkpt>
      <trkpt lat="45.38103" lon="4.59509">
        <ele>1273.5</ele>
        <time>2026-08-18T08:47:30.002Z</time>
      </trkpt>
      <trkpt lat="45.38102" lon="4.5951">
        <ele>1272.9</ele>
        <time>2026-08-18T08:47:31.002Z</time>
      </trkpt>
      <trkpt lat="45.38102" lon="4.59511">
        <ele>1272.8</ele>
        <time>2026-08-18T08:47:32.002Z</time>
      </trkpt>
      <trkpt lat="45.38102" lon="4.59513">
        <ele>1272.3</ele>
        <time>2026-08-18T08:47:33.002Z</time>
      </trkpt>
      <trkpt lat="45.38101" lon="4.59515">
        <ele>1273.6</ele>
        <time>2026-08-18T08:47:35.002Z</time>
      </trkpt>
      <trkpt lat="45.381" lon="4.59518">
        <ele>1272.8</ele>
        <time>2026-08-18T08:47:36.936Z</time>
      </trkpt>
      <trkpt lat="45.381" lon="4.59519">
        <ele>1274.6</ele>
        <time>2026-08-18T08:47:38.002Z</time>
      </trkpt>
      <trkpt lat="45.38098" lon="4.59521">
        <ele>1274.3</ele>
        <time>2026-08-18T08:47:40.001Z</time>
      </trkpt>
      <trkpt lat="45.38098" lon="4.59524">
        <ele>1274.7</ele>
        <time>2026-08-18T08:47:42.002Z</time>
      </trkpt>
      <trkpt lat="45.38097" lon="4.59525">
        <ele>1275.1</ele>
        <time>2026-08-18T08:47:43.020Z</time>
      </trkpt>
      <trkpt lat="45.38097" lon="4.59528">
        <ele>1276.1</ele>
        <time>2026-08-18T08:47:45.001Z</time>
      </trkpt>
      <trkpt lat="45.38097" lon="4.59529">
        <ele>1277</ele>
        <time>2026-08-18T08:47:46.001Z</time>
      </trkpt>
      <trkpt lat="45.38096" lon="4.59531">
        <ele>1275.4</ele>
        <time>2026-08-18T08:47:47.002Z</time>
      </trkpt>
      <trkpt lat="45.38096" lon="4.59534">
        <ele>1275.9</ele>
        <time>2026-08-18T08:47:49.002Z</time>
      </trkpt>
      <trkpt lat="45.38095" lon="4.59534">
        <ele>1275.9</ele>
        <time>2026-08-18T08:47:50.002Z</time>
      </trkpt>
      <trkpt lat="45.38094" lon="4.59533">
        <ele>1277.2</ele>
        <time>2026-08-18T08:47:52.000Z</time>
      </trkpt>
      <trkpt lat="45.38094" lon="4.59534">
        <ele>1277.2</ele>
        <time>2026-08-18T08:47:54.002Z</time>
      </trkpt>
      <trkpt lat="45.38094" lon="4.59535">
        <ele>1274.8</ele>
        <time>2026-08-18T08:47:56.002Z</time>
      </trkpt>
      <trkpt lat="45.38092" lon="4.5954">
        <ele>1273.8</ele>
        <time>2026-08-18T08:47:58.001Z</time>
      </trkpt>
      <trkpt lat="45.38092" lon="4.59542">
        <ele>1273.6</ele>
        <time>2026-08-18T08:47:59.002Z</time>
      </trkpt>
      <trkpt lat="45.38092" lon="4.59543">
        <ele>1273.4</ele>
        <time>2026-08-18T08:48:00.002Z</time>
      </trkpt>
      <trkpt lat="45.38091" lon="4.59545">
        <ele>1273.4</ele>
        <time>2026-08-18T08:48:01.002Z</time>
      </trkpt>
      <trkpt lat="45.3809" lon="4.59548">
        <ele>1273.5</ele>
        <time>2026-08-18T08:48:03.001Z</time>
      </trkpt>
      <trkpt lat="45.3809" lon="4.5955">
        <ele>1272.5</ele>
        <time>2026-08-18T08:48:04.014Z</time>
      </trkpt>
      <trkpt lat="45.38089" lon="4.59553">
        <ele>1271.5</ele>
        <time>2026-08-18T08:48:06.001Z</time>
      </trkpt>
      <trkpt lat="45.38088" lon="4.59554">
        <ele>1271.4</ele>
        <time>2026-08-18T08:48:07.001Z</time>
      </trkpt>
      <trkpt lat="45.38088" lon="4.59556">
        <ele>1270.8</ele>
        <time>2026-08-18T08:48:08.007Z</time>
      </trkpt>
      <trkpt lat="45.38088" lon="4.59559">
        <ele>1269.7</ele>
        <time>2026-08-18T08:48:10.000Z</time>
      </trkpt>
      <trkpt lat="45.38088" lon="4.59561">
        <ele>1269.7</ele>
        <time>2026-08-18T08:48:11.014Z</time>
      </trkpt>
      <trkpt lat="45.38087" lon="4.59563">
        <ele>1269.1</ele>
        <time>2026-08-18T08:48:13.002Z</time>
      </trkpt>
      <trkpt lat="45.38086" lon="4.59565">
        <ele>1268.3</ele>
        <time>2026-08-18T08:48:15.002Z</time>
      </trkpt>
      <trkpt lat="45.38084" lon="4.59568">
        <ele>1268.6</ele>
        <time>2026-08-18T08:48:17.021Z</time>
      </trkpt>
      <trkpt lat="45.38083" lon="4.5957">
        <ele>1269.5</ele>
        <time>2026-08-18T08:48:19.002Z</time>
      </trkpt>
      <trkpt lat="45.38082" lon="4.59573">
        <ele>1268.7</ele>
        <time>2026-08-18T08:48:21.016Z</time>
      </trkpt>
      <trkpt lat="45.38082" lon="4.59575">
        <ele>1268.6</ele>
        <time>2026-08-18T08:48:22.918Z</time>
      </trkpt>
      <trkpt lat="45.38082" lon="4.59576">
        <ele>1269.8</ele>
        <time>2026-08-18T08:48:24.002Z</time>
      </trkpt>
      <trkpt lat="45.38082" lon="4.59578">
        <ele>1270.1</ele>
        <time>2026-08-18T08:48:25.007Z</time>
      </trkpt>
      <trkpt lat="45.38082" lon="4.5958">
        <ele>1271.3</ele>
        <time>2026-08-18T08:48:27.000Z</time>
      </trkpt>
      <trkpt lat="45.38081" lon="4.59583">
        <ele>1271.3</ele>
        <time>2026-08-18T08:48:29.002Z</time>
      </trkpt>
      <trkpt lat="45.3808" lon="4.59585">
        <ele>1269.8</ele>
        <time>2026-08-18T08:48:31.002Z</time>
      </trkpt>
      <trkpt lat="45.38079" lon="4.59588">
        <ele>1269.6</ele>
        <time>2026-08-18T08:48:33.001Z</time>
      </trkpt>
      <trkpt lat="45.38078" lon="4.5959">
        <ele>1268.8</ele>
        <time>2026-08-18T08:48:34.002Z</time>
      </trkpt>
      <trkpt lat="45.38078" lon="4.59593">
        <ele>1268.7</ele>
        <time>2026-08-18T08:48:36.001Z</time>
      </trkpt>
      <trkpt lat="45.38077" lon="4.59595">
        <ele>1266.2</ele>
        <time>2026-08-18T08:48:37.002Z</time>
      </trkpt>
      <trkpt lat="45.38076" lon="4.59598">
        <ele>1266.4</ele>
        <time>2026-08-18T08:48:39.002Z</time>
      </trkpt>
      <trkpt lat="45.38076" lon="4.59601">
        <ele>1267.2</ele>
        <time>2026-08-18T08:48:41.002Z</time>
      </trkpt>
      <trkpt lat="45.38075" lon="4.59603">
        <ele>1267.4</ele>
        <time>2026-08-18T08:48:42.008Z</time>
      </trkpt>
      <trkpt lat="45.38074" lon="4.59606">
        <ele>1266.4</ele>
        <time>2026-08-18T08:48:44.001Z</time>
      </trkpt>
      <trkpt lat="45.38074" lon="4.59608">
        <ele>1266.3</ele>
        <time>2026-08-18T08:48:45.001Z</time>
      </trkpt>
      <trkpt lat="45.38074" lon="4.5961">
        <ele>1266.2</ele>
        <time>2026-08-18T08:48:46.001Z</time>
      </trkpt>
      <trkpt lat="45.38073" lon="4.59611">
        <ele>1265.7</ele>
        <time>2026-08-18T08:48:47.001Z</time>
      </trkpt>
      <trkpt lat="45.38073" lon="4.59613">
        <ele>1265.7</ele>
        <time>2026-08-18T08:48:48.001Z</time>
      </trkpt>
      <trkpt lat="45.38074" lon="4.59614">
        <ele>1266.4</ele>
        <time>2026-08-18T08:48:49.002Z</time>
      </trkpt>
      <trkpt lat="45.38074" lon="4.59617">
        <ele>1266.9</ele>
        <time>2026-08-18T08:48:51.001Z</time>
      </trkpt>
      <trkpt lat="45.38074" lon="4.59618">
        <ele>1266.9</ele>
        <time>2026-08-18T08:48:52.013Z</time>
      </trkpt>
      <trkpt lat="45.38073" lon="4.59621">
        <ele>1265.7</ele>
        <time>2026-08-18T08:48:54.114Z</time>
      </trkpt>
      <trkpt lat="45.38073" lon="4.59623">
        <ele>1265.9</ele>
        <time>2026-08-18T08:48:55.977Z</time>
      </trkpt>
      <trkpt lat="45.38072" lon="4.59625">
        <ele>1265.6</ele>
        <time>2026-08-18T08:48:57.000Z</time>
      </trkpt>
      <trkpt lat="45.38072" lon="4.59626">
        <ele>1264.1</ele>
        <time>2026-08-18T08:48:58.002Z</time>
      </trkpt>
      <trkpt lat="45.38072" lon="4.59628">
        <ele>1263.7</ele>
        <time>2026-08-18T08:48:59.008Z</time>
      </trkpt>
      <trkpt lat="45.38073" lon="4.59631">
        <ele>1263.3</ele>
        <time>2026-08-18T08:49:01.016Z</time>
      </trkpt>
      <trkpt lat="45.38073" lon="4.59634">
        <ele>1262.8</ele>
        <time>2026-08-18T08:49:03.001Z</time>
      </trkpt>
      <trkpt lat="45.38073" lon="4.59635">
        <ele>1261.2</ele>
        <time>2026-08-18T08:49:04.001Z</time>
      </trkpt>
      <trkpt lat="45.38072" lon="4.59638">
        <ele>1259.8</ele>
        <time>2026-08-18T08:49:06.002Z</time>
      </trkpt>
      <trkpt lat="45.38073" lon="4.5964">
        <ele>1260</ele>
        <time>2026-08-18T08:49:07.002Z</time>
      </trkpt>
      <trkpt lat="45.38073" lon="4.59642">
        <ele>1260.4</ele>
        <time>2026-08-18T08:49:08.002Z</time>
      </trkpt>
      <trkpt lat="45.38073" lon="4.59646">
        <ele>1260.3</ele>
        <time>2026-08-18T08:49:10.040Z</time>
      </trkpt>
      <trkpt lat="45.38072" lon="4.59648">
        <ele>1257.6</ele>
        <time>2026-08-18T08:49:12.001Z</time>
      </trkpt>
      <trkpt lat="45.38071" lon="4.5965">
        <ele>1257.8</ele>
        <time>2026-08-18T08:49:13.001Z</time>
      </trkpt>
      <trkpt lat="45.3807" lon="4.59651">
        <ele>1257.9</ele>
        <time>2026-08-18T08:49:14.002Z</time>
      </trkpt>
      <trkpt lat="45.3807" lon="4.59654">
        <ele>1258.4</ele>
        <time>2026-08-18T08:49:15.925Z</time>
      </trkpt>
      <trkpt lat="45.38069" lon="4.59655">
        <ele>1257.1</ele>
        <time>2026-08-18T08:49:17.002Z</time>
      </trkpt>
      <trkpt lat="45.38069" lon="4.59656">
        <ele>1256.2</ele>
        <time>2026-08-18T08:49:18.002Z</time>
      </trkpt>
      <trkpt lat="45.38068" lon="4.59658">
        <ele>1255.1</ele>
        <time>2026-08-18T08:49:19.002Z</time>
      </trkpt>
      <trkpt lat="45.38067" lon="4.59659">
        <ele>1254.8</ele>
        <time>2026-08-18T08:49:20.002Z</time>
      </trkpt>
      <trkpt lat="45.38065" lon="4.5966">
        <ele>1254.4</ele>
        <time>2026-08-18T08:49:22.001Z</time>
      </trkpt>
      <trkpt lat="45.38062" lon="4.59661">
        <ele>1253.8</ele>
        <time>2026-08-18T08:49:24.002Z</time>
      </trkpt>
      <trkpt lat="45.38061" lon="4.59661">
        <ele>1255.1</ele>
        <time>2026-08-18T08:49:25.002Z</time>
      </trkpt>
      <trkpt lat="45.38061" lon="4.5966">
        <ele>1253.9</ele>
        <time>2026-08-18T08:49:26.002Z</time>
      </trkpt>
      <trkpt lat="45.38061" lon="4.59659">
        <ele>1254.1</ele>
        <time>2026-08-18T08:49:27.002Z</time>
      </trkpt>
      <trkpt lat="45.38062" lon="4.59659">
        <ele>1254.1</ele>
        <time>2026-08-18T08:49:28.002Z</time>
      </trkpt>
      <trkpt lat="45.38062" lon="4.59659">
        <ele>1254.1</ele>
        <time>2026-08-18T08:49:29.002Z</time>
      </trkpt>
      <trkpt lat="45.38062" lon="4.59659">
        <ele>1254.1</ele>
        <time>2026-08-18T08:49:30.002Z</time>
      </trkpt>
      <trkpt lat="45.38062" lon="4.59658">
        <ele>1254.1</ele>
        <time>2026-08-18T08:49:32.001Z</time>
      </trkpt>
      <trkpt lat="45.38062" lon="4.59658">
        <ele>1254.1</ele>
        <time>2026-08-18T08:49:33.002Z</time>
      </trkpt>
      <trkpt lat="45.38062" lon="4.59658">
        <ele>1254.1</ele>
        <time>2026-08-18T08:49:34.002Z</time>
      </trkpt>
      <trkpt lat="45.38062" lon="4.59658">
        <ele>1254.1</ele>
        <time>2026-08-18T08:49:35.002Z</time>
      </trkpt>
      <trkpt lat="45.38062" lon="4.59658">
        <ele>1253.8</ele>
        <time>2026-08-18T08:49:37.002Z</time>
      </trkpt>
      <trkpt lat="45.38062" lon="4.59658">
        <ele>1252.8</ele>
        <time>2026-08-18T08:49:39.002Z</time>
      </trkpt>
      <trkpt lat="45.38062" lon="4.59658">
        <ele>1253</ele>
        <time>2026-08-18T08:49:41.001Z</time>
      </trkpt>
      <trkpt lat="45.38062" lon="4.59658">
        <ele>1252.6</ele>
        <time>2026-08-18T08:49:43.001Z</time>
      </trkpt>
      <trkpt lat="45.38062" lon="4.59658">
        <ele>1252.5</ele>
        <time>2026-08-18T08:49:44.001Z</time>
      </trkpt>
      <trkpt lat="45.38061" lon="4.59658">
        <ele>1252.2</ele>
        <time>2026-08-18T08:49:45.001Z</time>
      </trkpt>
      <trkpt lat="45.38061" lon="4.59658">
        <ele>1252.3</ele>
        <time>2026-08-18T08:49:46.002Z</time>
      </trkpt>
      <trkpt lat="45.38061" lon="4.59657">
        <ele>1252.3</ele>
        <time>2026-08-18T08:49:48.001Z</time>
      </trkpt>
      <trkpt lat="45.38061" lon="4.59657">
        <ele>1252.3</ele>
        <time>2026-08-18T08:49:49.002Z</time>
      </trkpt>
      <trkpt lat="45.3806" lon="4.59657">
        <ele>1252.2</ele>
        <time>2026-08-18T08:49:51.002Z</time>
      </trkpt>
      <trkpt lat="45.3806" lon="4.59657">
        <ele>1252.4</ele>
        <time>2026-08-18T08:49:53.001Z</time>
      </trkpt>
      <trkpt lat="45.3806" lon="4.59657">
        <ele>1252.5</ele>
        <time>2026-08-18T08:49:54.003Z</time>
      </trkpt>
      <trkpt lat="45.3806" lon="4.59657">
        <ele>1252.5</ele>
        <time>2026-08-18T08:49:56.002Z</time>
      </trkpt>
      <trkpt lat="45.38059" lon="4.59657">
        <ele>1252.5</ele>
        <time>2026-08-18T08:49:58.002Z</time>
      </trkpt>
      <trkpt lat="45.38059" lon="4.59657">
        <ele>1252.5</ele>
        <time>2026-08-18T08:49:59.002Z</time>
      </trkpt>
      <trkpt lat="45.38059" lon="4.59657">
        <ele>1252.5</ele>
        <time>2026-08-18T08:50:00.002Z</time>
      </trkpt>
      <trkpt lat="45.38059" lon="4.59656">
        <ele>1252.5</ele>
        <time>2026-08-18T08:50:01.002Z</time>
      </trkpt>
      <trkpt lat="45.38059" lon="4.59656">
        <ele>1252.5</ele>
        <time>2026-08-18T08:50:02.067Z</time>
      </trkpt>
      <trkpt lat="45.38059" lon="4.59656">
        <ele>1252.5</ele>
        <time>2026-08-18T08:50:04.005Z</time>
      </trkpt>
      <trkpt lat="45.38059" lon="4.59656">
        <ele>1252.5</ele>
        <time>2026-08-18T08:50:06.001Z</time>
      </trkpt>
      <trkpt lat="45.38059" lon="4.59656">
        <ele>1252.5</ele>
        <time>2026-08-18T08:50:07.001Z</time>
      </trkpt>
      <trkpt lat="45.38059" lon="4.59656">
        <ele>1252.5</ele>
        <time>2026-08-18T08:50:08.002Z</time>
      </trkpt>
      <trkpt lat="45.38059" lon="4.59656">
        <ele>1252.5</ele>
        <time>2026-08-18T08:50:10.073Z</time>
      </trkpt>
      <trkpt lat="45.38059" lon="4.59656">
        <ele>1252.5</ele>
        <time>2026-08-18T08:50:11.081Z</time>
      </trkpt>
      <trkpt lat="45.38059" lon="4.59656">
        <ele>1252.5</ele>
        <time>2026-08-18T08:50:13.001Z</time>
      </trkpt>
      <trkpt lat="45.38059" lon="4.59656">
        <ele>1252.5</ele>
        <time>2026-08-18T08:50:14.001Z</time>
      </trkpt>
      <trkpt lat="45.38059" lon="4.59656">
        <ele>1252.4</ele>
        <time>2026-08-18T08:50:16.002Z</time>
      </trkpt>
      <trkpt lat="45.38059" lon="4.59656">
        <ele>1252.4</ele>
        <time>2026-08-18T08:50:18.002Z</time>
      </trkpt>
      <trkpt lat="45.38059" lon="4.59656">
        <ele>1252.4</ele>
        <time>2026-08-18T08:50:20.075Z</time>
      </trkpt>
      <trkpt lat="45.38059" lon="4.59656">
        <ele>1252.4</ele>
        <time>2026-08-18T08:50:22.015Z</time>
      </trkpt>
      <trkpt lat="45.38059" lon="4.59656">
        <ele>1252.4</ele>
        <time>2026-08-18T08:50:24.000Z</time>
      </trkpt>
      <trkpt lat="45.38059" lon="4.59656">
        <ele>1252.4</ele>
        <time>2026-08-18T08:50:25.001Z</time>
      </trkpt>
      <trkpt lat="45.38059" lon="4.59656">
        <ele>1252.4</ele>
        <time>2026-08-18T08:50:26.002Z</time>
      </trkpt>
      <trkpt lat="45.38059" lon="4.59656">
        <ele>1252.4</ele>
        <time>2026-08-18T08:50:27.073Z</time>
      </trkpt>
      <trkpt lat="45.38059" lon="4.59656">
        <ele>1252.4</ele>
        <time>2026-08-18T08:50:29.002Z</time>
      </trkpt>
      <trkpt lat="45.38059" lon="4.59656">
        <ele>1252.4</ele>
        <time>2026-08-18T08:50:30.002Z</time>
      </trkpt>
      <trkpt lat="45.38059" lon="4.59656">
        <ele>1252.4</ele>
        <time>2026-08-18T08:50:31.002Z</time>
      </trkpt>
      <trkpt lat="45.38059" lon="4.59656">
        <ele>1252.5</ele>
        <time>2026-08-18T08:50:33.005Z</time>
      </trkpt>
      <trkpt lat="45.38059" lon="4.59656">
        <ele>1252.5</ele>
        <time>2026-08-18T08:50:35.001Z</time>
      </trkpt>
      <trkpt lat="45.38059" lon="4.59656">
        <ele>1252.5</ele>
        <time>2026-08-18T08:50:36.066Z</time>
      </trkpt>
      <trkpt lat="45.38059" lon="4.59656">
        <ele>1252.5</ele>
        <time>2026-08-18T08:50:37.075Z</time>
      </trkpt>
      <trkpt lat="45.38059" lon="4.59656">
        <ele>1252.4</ele>
        <time>2026-08-18T08:50:39.002Z</time>
      </trkpt>
      <trkpt lat="45.38059" lon="4.59656">
        <ele>1252.5</ele>
        <time>2026-08-18T08:50:40.002Z</time>
      </trkpt>
      <trkpt lat="45.38059" lon="4.59656">
        <ele>1252.5</ele>
        <time>2026-08-18T08:50:42.001Z</time>
      </trkpt>
      <trkpt lat="45.38059" lon="4.59656">
        <ele>1252.5</ele>
        <time>2026-08-18T08:50:43.001Z</time>
      </trkpt>
      <trkpt lat="45.38059" lon="4.59656">
        <ele>1252.5</ele>
        <time>2026-08-18T08:50:44.001Z</time>
      </trkpt>
      <trkpt lat="45.38059" lon="4.59656">
        <ele>1252.5</ele>
        <time>2026-08-18T08:50:45.002Z</time>
      </trkpt>
      <trkpt lat="45.38059" lon="4.59656">
        <ele>1252.5</ele>
        <time>2026-08-18T08:50:46.002Z</time>
      </trkpt>
      <trkpt lat="45.38059" lon="4.59656">
        <ele>1252.4</ele>
        <time>2026-08-18T08:50:47.002Z</time>
      </trkpt>
      <trkpt lat="45.38059" lon="4.59656">
        <ele>1252.5</ele>
        <time>2026-08-18T08:50:48.002Z</time>
      </trkpt>
      <trkpt lat="45.38059" lon="4.59656">
        <ele>1252.4</ele>
        <time>2026-08-18T08:50:50.001Z</time>
      </trkpt>
      <trkpt lat="45.38059" lon="4.59656">
        <ele>1252.4</ele>
        <time>2026-08-18T08:50:51.002Z</time>
      </trkpt>
      <trkpt lat="45.38059" lon="4.59656">
        <ele>1252.4</ele>
        <time>2026-08-18T08:50:53.001Z</time>
      </trkpt>
      <trkpt lat="45.38059" lon="4.59656">
        <ele>1252.4</ele>
        <time>2026-08-18T08:50:54.002Z</time>
      </trkpt>
      <trkpt lat="45.38059" lon="4.59656">
        <ele>1252.4</ele>
        <time>2026-08-18T08:50:56.001Z</time>
      </trkpt>
      <trkpt lat="45.38058" lon="4.59656">
        <ele>1252.4</ele>
        <time>2026-08-18T08:50:57.002Z</time>
      </trkpt>
      <trkpt lat="45.38058" lon="4.59656">
        <ele>1252.4</ele>
        <time>2026-08-18T08:50:59.001Z</time>
      </trkpt>
      <trkpt lat="45.38058" lon="4.59656">
        <ele>1252.4</ele>
        <time>2026-08-18T08:51:00.007Z</time>
      </trkpt>
      <trkpt lat="45.38058" lon="4.59656">
        <ele>1252.4</ele>
        <time>2026-08-18T08:51:02.002Z</time>
      </trkpt>
      <trkpt lat="45.38058" lon="4.59656">
        <ele>1252.4</ele>
        <time>2026-08-18T08:51:04.002Z</time>
      </trkpt>
      <trkpt lat="45.38058" lon="4.59656">
        <ele>1252.1</ele>
        <time>2026-08-18T08:51:06.002Z</time>
      </trkpt>
      <trkpt lat="45.38059" lon="4.59656">
        <ele>1251.5</ele>
        <time>2026-08-18T08:51:08.002Z</time>
      </trkpt>
      <trkpt lat="45.38059" lon="4.59658">
        <ele>1249.3</ele>
        <time>2026-08-18T08:51:10.001Z</time>
      </trkpt>
      <trkpt lat="45.38059" lon="4.5966">
        <ele>1249.8</ele>
        <time>2026-08-18T08:51:11.002Z</time>
      </trkpt>
      <trkpt lat="45.38059" lon="4.59664">
        <ele>1251</ele>
        <time>2026-08-18T08:51:13.015Z</time>
      </trkpt>
      <trkpt lat="45.38058" lon="4.59668">
        <ele>1252.1</ele>
        <time>2026-08-18T08:51:15.003Z</time>
      </trkpt>
      <trkpt lat="45.38057" lon="4.59672">
        <ele>1252.2</ele>
        <time>2026-08-18T08:51:17.008Z</time>
      </trkpt>
      <trkpt lat="45.38057" lon="4.59675">
        <ele>1251.9</ele>
        <time>2026-08-18T08:51:18.941Z</time>
      </trkpt>
      <trkpt lat="45.38057" lon="4.59677">
        <ele>1253.2</ele>
        <time>2026-08-18T08:51:20.002Z</time>
      </trkpt>
      <trkpt lat="45.38056" lon="4.59679">
        <ele>1253.1</ele>
        <time>2026-08-18T08:51:21.002Z</time>
      </trkpt>
      <trkpt lat="45.38055" lon="4.59682">
        <ele>1252.3</ele>
        <time>2026-08-18T08:51:23.002Z</time>
      </trkpt>
      <trkpt lat="45.38055" lon="4.59685">
        <ele>1252.3</ele>
        <time>2026-08-18T08:51:25.002Z</time>
      </trkpt>
      <trkpt lat="45.38054" lon="4.59687">
        <ele>1252.2</ele>
        <time>2026-08-18T08:51:26.022Z</time>
      </trkpt>
      <trkpt lat="45.38053" lon="4.5969">
        <ele>1250.6</ele>
        <time>2026-08-18T08:51:28.001Z</time>
      </trkpt>
      <trkpt lat="45.38053" lon="4.59692">
        <ele>1250.7</ele>
        <time>2026-08-18T08:51:29.001Z</time>
      </trkpt>
      <trkpt lat="45.38053" lon="4.59694">
        <ele>1250.4</ele>
        <time>2026-08-18T08:51:30.015Z</time>
      </trkpt>
      <trkpt lat="45.38052" lon="4.59698">
        <ele>1249.7</ele>
        <time>2026-08-18T08:51:32.001Z</time>
      </trkpt>
      <trkpt lat="45.38051" lon="4.59699">
        <ele>1249.3</ele>
        <time>2026-08-18T08:51:33.001Z</time>
      </trkpt>
      <trkpt lat="45.38051" lon="4.59701">
        <ele>1249.1</ele>
        <time>2026-08-18T08:51:34.007Z</time>
      </trkpt>
      <trkpt lat="45.38049" lon="4.59704">
        <ele>1248.5</ele>
        <time>2026-08-18T08:51:36.002Z</time>
      </trkpt>
      <trkpt lat="45.38048" lon="4.59706">
        <ele>1246.8</ele>
        <time>2026-08-18T08:51:37.002Z</time>
      </trkpt>
      <trkpt lat="45.38048" lon="4.59708">
        <ele>1246.8</ele>
        <time>2026-08-18T08:51:38.002Z</time>
      </trkpt>
      <trkpt lat="45.38047" lon="4.5971">
        <ele>1246.7</ele>
        <time>2026-08-18T08:51:39.002Z</time>
      </trkpt>
      <trkpt lat="45.38046" lon="4.59712">
        <ele>1244.2</ele>
        <time>2026-08-18T08:51:41.002Z</time>
      </trkpt>
      <trkpt lat="45.38045" lon="4.59714">
        <ele>1243.5</ele>
        <time>2026-08-18T08:51:43.002Z</time>
      </trkpt>
      <trkpt lat="45.38044" lon="4.59717">
        <ele>1243.2</ele>
        <time>2026-08-18T08:51:45.002Z</time>
      </trkpt>
      <trkpt lat="45.38044" lon="4.59718">
        <ele>1242.5</ele>
        <time>2026-08-18T08:51:46.002Z</time>
      </trkpt>
      <trkpt lat="45.38043" lon="4.5972">
        <ele>1242.4</ele>
        <time>2026-08-18T08:51:48.001Z</time>
      </trkpt>
      <trkpt lat="45.38043" lon="4.59721">
        <ele>1242.7</ele>
        <time>2026-08-18T08:51:49.001Z</time>
      </trkpt>
      <trkpt lat="45.38043" lon="4.59722">
        <ele>1243.2</ele>
        <time>2026-08-18T08:51:50.002Z</time>
      </trkpt>
      <trkpt lat="45.38042" lon="4.59725">
        <ele>1244.3</ele>
        <time>2026-08-18T08:51:52.002Z</time>
      </trkpt>
      <trkpt lat="45.38042" lon="4.59726">
        <ele>1244</ele>
        <time>2026-08-18T08:51:53.002Z</time>
      </trkpt>
      <trkpt lat="45.38041" lon="4.59727">
        <ele>1243.6</ele>
        <time>2026-08-18T08:51:54.002Z</time>
      </trkpt>
      <trkpt lat="45.38041" lon="4.5973">
        <ele>1243.4</ele>
        <time>2026-08-18T08:51:56.002Z</time>
      </trkpt>
      <trkpt lat="45.38041" lon="4.59731">
        <ele>1243.2</ele>
        <time>2026-08-18T08:51:57.002Z</time>
      </trkpt>
      <trkpt lat="45.3804" lon="4.59732">
        <ele>1243.8</ele>
        <time>2026-08-18T08:51:58.002Z</time>
      </trkpt>
      <trkpt lat="45.3804" lon="4.59735">
        <ele>1243.7</ele>
        <time>2026-08-18T08:52:00.025Z</time>
      </trkpt>
      <trkpt lat="45.3804" lon="4.59738">
        <ele>1243</ele>
        <time>2026-08-18T08:52:02.002Z</time>
      </trkpt>
      <trkpt lat="45.3804" lon="4.59739">
        <ele>1244.6</ele>
        <time>2026-08-18T08:52:03.002Z</time>
      </trkpt>
      <trkpt lat="45.38041" lon="4.59742">
        <ele>1244.3</ele>
        <time>2026-08-18T08:52:05.002Z</time>
      </trkpt>
      <trkpt lat="45.38042" lon="4.59745">
        <ele>1244.6</ele>
        <time>2026-08-18T08:52:07.002Z</time>
      </trkpt>
      <trkpt lat="45.38044" lon="4.59747">
        <ele>1245.1</ele>
        <time>2026-08-18T08:52:08.962Z</time>
      </trkpt>
      <trkpt lat="45.38044" lon="4.59748">
        <ele>1245.1</ele>
        <time>2026-08-18T08:52:10.001Z</time>
      </trkpt>
      <trkpt lat="45.38044" lon="4.59749">
        <ele>1244.5</ele>
        <time>2026-08-18T08:52:11.001Z</time>
      </trkpt>
      <trkpt lat="45.38044" lon="4.5975">
        <ele>1244.6</ele>
        <time>2026-08-18T08:52:12.001Z</time>
      </trkpt>
      <trkpt lat="45.38045" lon="4.59752">
        <ele>1243.2</ele>
        <time>2026-08-18T08:52:13.067Z</time>
      </trkpt>
      <trkpt lat="45.38045" lon="4.59754">
        <ele>1242.5</ele>
        <time>2026-08-18T08:52:15.001Z</time>
      </trkpt>
      <trkpt lat="45.38046" lon="4.59756">
        <ele>1242.7</ele>
        <time>2026-08-18T08:52:17.000Z</time>
      </trkpt>
      <trkpt lat="45.38047" lon="4.59757">
        <ele>1242.7</ele>
        <time>2026-08-18T08:52:18.001Z</time>
      </trkpt>
      <trkpt lat="45.38047" lon="4.59758">
        <ele>1242.6</ele>
        <time>2026-08-18T08:52:19.001Z</time>
      </trkpt>
      <trkpt lat="45.38048" lon="4.59759">
        <ele>1242.2</ele>
        <time>2026-08-18T08:52:20.001Z</time>
      </trkpt>
      <trkpt lat="45.3805" lon="4.59759">
        <ele>1241.6</ele>
        <time>2026-08-18T08:52:21.001Z</time>
      </trkpt>
      <trkpt lat="45.38052" lon="4.59759">
        <ele>1241.6</ele>
        <time>2026-08-18T08:52:22.958Z</time>
      </trkpt>
      <trkpt lat="45.38053" lon="4.59759">
        <ele>1241</ele>
        <time>2026-08-18T08:52:24.000Z</time>
      </trkpt>
      <trkpt lat="45.38054" lon="4.5976">
        <ele>1240.5</ele>
        <time>2026-08-18T08:52:25.000Z</time>
      </trkpt>
      <trkpt lat="45.38055" lon="4.59761">
        <ele>1240.4</ele>
        <time>2026-08-18T08:52:26.000Z</time>
      </trkpt>
      <trkpt lat="45.38056" lon="4.59762">
        <ele>1240.2</ele>
        <time>2026-08-18T08:52:27.001Z</time>
      </trkpt>
      <trkpt lat="45.38057" lon="4.59764">
        <ele>1239.1</ele>
        <time>2026-08-18T08:52:28.975Z</time>
      </trkpt>
      <trkpt lat="45.38058" lon="4.59765">
        <ele>1237.8</ele>
        <time>2026-08-18T08:52:30.001Z</time>
      </trkpt>
      <trkpt lat="45.38058" lon="4.59766">
        <ele>1237.6</ele>
        <time>2026-08-18T08:52:31.001Z</time>
      </trkpt>
      <trkpt lat="45.38059" lon="4.59769">
        <ele>1238</ele>
        <time>2026-08-18T08:52:33.000Z</time>
      </trkpt>
      <trkpt lat="45.3806" lon="4.5977">
        <ele>1237.4</ele>
        <time>2026-08-18T08:52:34.000Z</time>
      </trkpt>
      <trkpt lat="45.3806" lon="4.59771">
        <ele>1236.5</ele>
        <time>2026-08-18T08:52:35.001Z</time>
      </trkpt>
      <trkpt lat="45.38061" lon="4.59773">
        <ele>1237.3</ele>
        <time>2026-08-18T08:52:37.001Z</time>
      </trkpt>
      <trkpt lat="45.38062" lon="4.59775">
        <ele>1237.3</ele>
        <time>2026-08-18T08:52:39.000Z</time>
      </trkpt>
      <trkpt lat="45.38063" lon="4.59775">
        <ele>1238.3</ele>
        <time>2026-08-18T08:52:40.000Z</time>
      </trkpt>
      <trkpt lat="45.38064" lon="4.59776">
        <ele>1238.3</ele>
        <time>2026-08-18T08:52:41.001Z</time>
      </trkpt>
      <trkpt lat="45.38065" lon="4.59777">
        <ele>1239</ele>
        <time>2026-08-18T08:52:42.001Z</time>
      </trkpt>
      <trkpt lat="45.38067" lon="4.59778">
        <ele>1239.9</ele>
        <time>2026-08-18T08:52:44.000Z</time>
      </trkpt>
      <trkpt lat="45.38068" lon="4.59779">
        <ele>1239.8</ele>
        <time>2026-08-18T08:52:46.000Z</time>
      </trkpt>
      <trkpt lat="45.38068" lon="4.59782">
        <ele>1239.2</ele>
        <time>2026-08-18T08:52:48.001Z</time>
      </trkpt>
      <trkpt lat="45.38069" lon="4.59783">
        <ele>1237.5</ele>
        <time>2026-08-18T08:52:49.007Z</time>
      </trkpt>
      <trkpt lat="45.3807" lon="4.59786">
        <ele>1238.5</ele>
        <time>2026-08-18T08:52:51.000Z</time>
      </trkpt>
      <trkpt lat="45.38071" lon="4.59788">
        <ele>1237.6</ele>
        <time>2026-08-18T08:52:53.001Z</time>
      </trkpt>
      <trkpt lat="45.38072" lon="4.59788">
        <ele>1237.1</ele>
        <time>2026-08-18T08:52:54.001Z</time>
      </trkpt>
      <trkpt lat="45.38073" lon="4.59789">
        <ele>1237.1</ele>
        <time>2026-08-18T08:52:55.019Z</time>
      </trkpt>
      <trkpt lat="45.38074" lon="4.59791">
        <ele>1236.9</ele>
        <time>2026-08-18T08:52:56.957Z</time>
      </trkpt>
      <trkpt lat="45.38074" lon="4.59791">
        <ele>1236</ele>
        <time>2026-08-18T08:52:58.000Z</time>
      </trkpt>
      <trkpt lat="45.38074" lon="4.59791">
        <ele>1235.3</ele>
        <time>2026-08-18T08:52:59.000Z</time>
      </trkpt>
      <trkpt lat="45.38074" lon="4.59792">
        <ele>1235.3</ele>
        <time>2026-08-18T08:53:00.001Z</time>
      </trkpt>
      <trkpt lat="45.38075" lon="4.59794">
        <ele>1235.2</ele>
        <time>2026-08-18T08:53:01.941Z</time>
      </trkpt>
      <trkpt lat="45.38075" lon="4.59795">
        <ele>1234.9</ele>
        <time>2026-08-18T08:53:03.001Z</time>
      </trkpt>
      <trkpt lat="45.38077" lon="4.59797">
        <ele>1232.9</ele>
        <time>2026-08-18T08:53:05.001Z</time>
      </trkpt>
      <trkpt lat="45.38077" lon="4.59798">
        <ele>1233.1</ele>
        <time>2026-08-18T08:53:06.008Z</time>
      </trkpt>
      <trkpt lat="45.38079" lon="4.598">
        <ele>1235.1</ele>
        <time>2026-08-18T08:53:08.000Z</time>
      </trkpt>
      <trkpt lat="45.3808" lon="4.59801">
        <ele>1235.7</ele>
        <time>2026-08-18T08:53:09.001Z</time>
      </trkpt>
      <trkpt lat="45.38081" lon="4.59802">
        <ele>1236.1</ele>
        <time>2026-08-18T08:53:10.001Z</time>
      </trkpt>
      <trkpt lat="45.38082" lon="4.59802">
        <ele>1236.1</ele>
        <time>2026-08-18T08:53:11.021Z</time>
      </trkpt>
      <trkpt lat="45.38084" lon="4.59803">
        <ele>1236.2</ele>
        <time>2026-08-18T08:53:13.001Z</time>
      </trkpt>
      <trkpt lat="45.38086" lon="4.59805">
        <ele>1234.6</ele>
        <time>2026-08-18T08:53:15.001Z</time>
      </trkpt>
      <trkpt lat="45.38089" lon="4.59807">
        <ele>1234.3</ele>
        <time>2026-08-18T08:53:17.020Z</time>
      </trkpt>
      <trkpt lat="45.38091" lon="4.59809">
        <ele>1233.5</ele>
        <time>2026-08-18T08:53:19.014Z</time>
      </trkpt>
      <trkpt lat="45.38094" lon="4.5981">
        <ele>1234.7</ele>
        <time>2026-08-18T08:53:21.001Z</time>
      </trkpt>
      <trkpt lat="45.38095" lon="4.59811">
        <ele>1234.7</ele>
        <time>2026-08-18T08:53:22.001Z</time>
      </trkpt>
      <trkpt lat="45.38096" lon="4.59812">
        <ele>1235.5</ele>
        <time>2026-08-18T08:53:23.008Z</time>
      </trkpt>
      <trkpt lat="45.38098" lon="4.59814">
        <ele>1235.6</ele>
        <time>2026-08-18T08:53:25.001Z</time>
      </trkpt>
      <trkpt lat="45.381" lon="4.59817">
        <ele>1235.7</ele>
        <time>2026-08-18T08:53:26.880Z</time>
      </trkpt>
      <trkpt lat="45.38101" lon="4.59819">
        <ele>1236.7</ele>
        <time>2026-08-18T08:53:28.000Z</time>
      </trkpt>
      <trkpt lat="45.38102" lon="4.5982">
        <ele>1237.3</ele>
        <time>2026-08-18T08:53:29.087Z</time>
      </trkpt>
      <trkpt lat="45.38104" lon="4.59823">
        <ele>1238.3</ele>
        <time>2026-08-18T08:53:31.014Z</time>
      </trkpt>
      <trkpt lat="45.38105" lon="4.59824">
        <ele>1238.9</ele>
        <time>2026-08-18T08:53:32.058Z</time>
      </trkpt>
      <trkpt lat="45.38106" lon="4.59826">
        <ele>1238.8</ele>
        <time>2026-08-18T08:53:34.001Z</time>
      </trkpt>
      <trkpt lat="45.38108" lon="4.59828">
        <ele>1238.6</ele>
        <time>2026-08-18T08:53:36.001Z</time>
      </trkpt>
      <trkpt lat="45.38109" lon="4.59829">
        <ele>1238.3</ele>
        <time>2026-08-18T08:53:37.060Z</time>
      </trkpt>
      <trkpt lat="45.38109" lon="4.5983">
        <ele>1239.1</ele>
        <time>2026-08-18T08:53:38.087Z</time>
      </trkpt>
      <trkpt lat="45.3811" lon="4.59833">
        <ele>1239.4</ele>
        <time>2026-08-18T08:53:40.001Z</time>
      </trkpt>
      <trkpt lat="45.38112" lon="4.59835">
        <ele>1239.1</ele>
        <time>2026-08-18T08:53:42.000Z</time>
      </trkpt>
      <trkpt lat="45.38113" lon="4.59836">
        <ele>1240.8</ele>
        <time>2026-08-18T08:53:43.000Z</time>
      </trkpt>
      <trkpt lat="45.38114" lon="4.59839">
        <ele>1241.1</ele>
        <time>2026-08-18T08:53:45.000Z</time>
      </trkpt>
      <trkpt lat="45.38115" lon="4.5984">
        <ele>1241.1</ele>
        <time>2026-08-18T08:53:46.000Z</time>
      </trkpt>
      <trkpt lat="45.38115" lon="4.59842">
        <ele>1241.1</ele>
        <time>2026-08-18T08:53:47.001Z</time>
      </trkpt>
      <trkpt lat="45.38116" lon="4.59843">
        <ele>1241.1</ele>
        <time>2026-08-18T08:53:48.013Z</time>
      </trkpt>
      <trkpt lat="45.38117" lon="4.59846">
        <ele>1241.4</ele>
        <time>2026-08-18T08:53:50.001Z</time>
      </trkpt>
      <trkpt lat="45.38118" lon="4.59847">
        <ele>1241.7</ele>
        <time>2026-08-18T08:53:51.001Z</time>
      </trkpt>
      <trkpt lat="45.38118" lon="4.59848">
        <ele>1241.1</ele>
        <time>2026-08-18T08:53:52.001Z</time>
      </trkpt>
      <trkpt lat="45.38119" lon="4.5985">
        <ele>1239.6</ele>
        <time>2026-08-18T08:53:53.001Z</time>
      </trkpt>
      <trkpt lat="45.3812" lon="4.59852">
        <ele>1239.6</ele>
        <time>2026-08-18T08:53:54.060Z</time>
      </trkpt>
      <trkpt lat="45.38121" lon="4.59855">
        <ele>1239.2</ele>
        <time>2026-08-18T08:53:55.983Z</time>
      </trkpt>
      <trkpt lat="45.38122" lon="4.59857">
        <ele>1241.2</ele>
        <time>2026-08-18T08:53:57.008Z</time>
      </trkpt>
      <trkpt lat="45.38122" lon="4.5986">
        <ele>1240.9</ele>
        <time>2026-08-18T08:53:58.903Z</time>
      </trkpt>
      <trkpt lat="45.38122" lon="4.59861">
        <ele>1241.5</ele>
        <time>2026-08-18T08:54:00.000Z</time>
      </trkpt>
      <trkpt lat="45.38122" lon="4.59863">
        <ele>1240.7</ele>
        <time>2026-08-18T08:54:01.002Z</time>
      </trkpt>
      <trkpt lat="45.38123" lon="4.59867">
        <ele>1240.7</ele>
        <time>2026-08-18T08:54:03.092Z</time>
      </trkpt>
      <trkpt lat="45.38124" lon="4.5987">
        <ele>1239</ele>
        <time>2026-08-18T08:54:05.000Z</time>
      </trkpt>
      <trkpt lat="45.38125" lon="4.59872">
        <ele>1238.5</ele>
        <time>2026-08-18T08:54:06.003Z</time>
      </trkpt>
      <trkpt lat="45.38125" lon="4.59874">
        <ele>1238.7</ele>
        <time>2026-08-18T08:54:08.001Z</time>
      </trkpt>
      <trkpt lat="45.38124" lon="4.59877">
        <ele>1238.9</ele>
        <time>2026-08-18T08:54:10.001Z</time>
      </trkpt>
      <trkpt lat="45.38123" lon="4.59881">
        <ele>1238.4</ele>
        <time>2026-08-18T08:54:11.919Z</time>
      </trkpt>
      <trkpt lat="45.38122" lon="4.59882">
        <ele>1236.9</ele>
        <time>2026-08-18T08:54:13.002Z</time>
      </trkpt>
      <trkpt lat="45.38123" lon="4.59885">
        <ele>1234.3</ele>
        <time>2026-08-18T08:54:15.000Z</time>
      </trkpt>
      <trkpt lat="45.38122" lon="4.59886">
        <ele>1233.3</ele>
        <time>2026-08-18T08:54:16.001Z</time>
      </trkpt>
      <trkpt lat="45.38121" lon="4.59889">
        <ele>1231.3</ele>
        <time>2026-08-18T08:54:18.000Z</time>
      </trkpt>
      <trkpt lat="45.3812" lon="4.59891">
        <ele>1230.9</ele>
        <time>2026-08-18T08:54:19.010Z</time>
      </trkpt>
      <trkpt lat="45.38119" lon="4.59894">
        <ele>1230.3</ele>
        <time>2026-08-18T08:54:21.018Z</time>
      </trkpt>
      <trkpt lat="45.38117" lon="4.59897">
        <ele>1229.6</ele>
        <time>2026-08-18T08:54:23.000Z</time>
      </trkpt>
      <trkpt lat="45.38116" lon="4.59898">
        <ele>1229.9</ele>
        <time>2026-08-18T08:54:24.000Z</time>
      </trkpt>
      <trkpt lat="45.38116" lon="4.599">
        <ele>1229.7</ele>
        <time>2026-08-18T08:54:25.000Z</time>
      </trkpt>
      <trkpt lat="45.38114" lon="4.59903">
        <ele>1228.9</ele>
        <time>2026-08-18T08:54:27.001Z</time>
      </trkpt>
      <trkpt lat="45.38113" lon="4.59904">
        <ele>1228.4</ele>
        <time>2026-08-18T08:54:28.001Z</time>
      </trkpt>
      <trkpt lat="45.38113" lon="4.59908">
        <ele>1228.4</ele>
        <time>2026-08-18T08:54:30.001Z</time>
      </trkpt>
      <trkpt lat="45.38112" lon="4.5991">
        <ele>1228.2</ele>
        <time>2026-08-18T08:54:31.001Z</time>
      </trkpt>
      <trkpt lat="45.38112" lon="4.59912">
        <ele>1228.2</ele>
        <time>2026-08-18T08:54:32.001Z</time>
      </trkpt>
      <trkpt lat="45.38112" lon="4.59916">
        <ele>1228.3</ele>
        <time>2026-08-18T08:54:34.000Z</time>
      </trkpt>
      <trkpt lat="45.38111" lon="4.59917">
        <ele>1228.4</ele>
        <time>2026-08-18T08:54:35.000Z</time>
      </trkpt>
      <trkpt lat="45.38111" lon="4.59919">
        <ele>1228.3</ele>
        <time>2026-08-18T08:54:36.010Z</time>
      </trkpt>
      <trkpt lat="45.38111" lon="4.59923">
        <ele>1230</ele>
        <time>2026-08-18T08:54:38.000Z</time>
      </trkpt>
      <trkpt lat="45.3811" lon="4.59925">
        <ele>1229.6</ele>
        <time>2026-08-18T08:54:39.000Z</time>
      </trkpt>
      <trkpt lat="45.38109" lon="4.59929">
        <ele>1229.5</ele>
        <time>2026-08-18T08:54:41.000Z</time>
      </trkpt>
      <trkpt lat="45.38109" lon="4.59931">
        <ele>1229</ele>
        <time>2026-08-18T08:54:42.001Z</time>
      </trkpt>
      <trkpt lat="45.38108" lon="4.59935">
        <ele>1230.5</ele>
        <time>2026-08-18T08:54:44.000Z</time>
      </trkpt>
      <trkpt lat="45.38107" lon="4.59937">
        <ele>1229.9</ele>
        <time>2026-08-18T08:54:45.001Z</time>
      </trkpt>
      <trkpt lat="45.38107" lon="4.59938">
        <ele>1229.6</ele>
        <time>2026-08-18T08:54:46.001Z</time>
      </trkpt>
      <trkpt lat="45.38107" lon="4.5994">
        <ele>1229.4</ele>
        <time>2026-08-18T08:54:47.001Z</time>
      </trkpt>
      <trkpt lat="45.38106" lon="4.59942">
        <ele>1229.2</ele>
        <time>2026-08-18T08:54:48.001Z</time>
      </trkpt>
      <trkpt lat="45.38106" lon="4.59943">
        <ele>1229.2</ele>
        <time>2026-08-18T08:54:49.001Z</time>
      </trkpt>
      <trkpt lat="45.38104" lon="4.59946">
        <ele>1229.4</ele>
        <time>2026-08-18T08:54:50.999Z</time>
      </trkpt>
      <trkpt lat="45.38104" lon="4.59949">
        <ele>1228.4</ele>
        <time>2026-08-18T08:54:53.144Z</time>
      </trkpt>
      <trkpt lat="45.38103" lon="4.59951">
        <ele>1229</ele>
        <time>2026-08-18T08:54:54.381Z</time>
      </trkpt>
      <trkpt lat="45.38103" lon="4.59952">
        <ele>1229</ele>
        <time>2026-08-18T08:54:55.740Z</time>
      </trkpt>
      <trkpt lat="45.38102" lon="4.59953">
        <ele>1228.3</ele>
        <time>2026-08-18T08:54:57.001Z</time>
      </trkpt>
      <trkpt lat="45.38102" lon="4.59954">
        <ele>1228</ele>
        <time>2026-08-18T08:54:58.001Z</time>
      </trkpt>
      <trkpt lat="45.38101" lon="4.59955">
        <ele>1227.9</ele>
        <time>2026-08-18T08:55:00.001Z</time>
      </trkpt>
      <trkpt lat="45.38101" lon="4.59956">
        <ele>1228</ele>
        <time>2026-08-18T08:55:01.001Z</time>
      </trkpt>
      <trkpt lat="45.38101" lon="4.59956">
        <ele>1228.5</ele>
        <time>2026-08-18T08:55:02.001Z</time>
      </trkpt>
      <trkpt lat="45.381" lon="4.59957">
        <ele>1228.4</ele>
        <time>2026-08-18T08:55:03.001Z</time>
      </trkpt>
      <trkpt lat="45.38099" lon="4.59958">
        <ele>1229.4</ele>
        <time>2026-08-18T08:55:05.000Z</time>
      </trkpt>
      <trkpt lat="45.38099" lon="4.59959">
        <ele>1229.5</ele>
        <time>2026-08-18T08:55:06.001Z</time>
      </trkpt>
      <trkpt lat="45.38098" lon="4.59959">
        <ele>1228.4</ele>
        <time>2026-08-18T08:55:07.001Z</time>
      </trkpt>
      <trkpt lat="45.38097" lon="4.5996">
        <ele>1226.9</ele>
        <time>2026-08-18T08:55:09.000Z</time>
      </trkpt>
      <trkpt lat="45.38096" lon="4.5996">
        <ele>1225.8</ele>
        <time>2026-08-18T08:55:10.001Z</time>
      </trkpt>
      <trkpt lat="45.38096" lon="4.5996">
        <ele>1225.4</ele>
        <time>2026-08-18T08:55:11.001Z</time>
      </trkpt>
      <trkpt lat="45.38095" lon="4.59961">
        <ele>1224.5</ele>
        <time>2026-08-18T08:55:12.922Z</time>
      </trkpt>
      <trkpt lat="45.38094" lon="4.59962">
        <ele>1222.9</ele>
        <time>2026-08-18T08:55:14.001Z</time>
      </trkpt>
      <trkpt lat="45.38094" lon="4.59964">
        <ele>1222.9</ele>
        <time>2026-08-18T08:55:15.004Z</time>
      </trkpt>
      <trkpt lat="45.38091" lon="4.59965">
        <ele>1222.9</ele>
        <time>2026-08-18T08:55:17.000Z</time>
      </trkpt>
      <trkpt lat="45.3809" lon="4.59966">
        <ele>1222.7</ele>
        <time>2026-08-18T08:55:18.001Z</time>
      </trkpt>
      <trkpt lat="45.38087" lon="4.59966">
        <ele>1223.4</ele>
        <time>2026-08-18T08:55:20.000Z</time>
      </trkpt>
      <trkpt lat="45.38086" lon="4.59966">
        <ele>1223.9</ele>
        <time>2026-08-18T08:55:21.001Z</time>
      </trkpt>
      <trkpt lat="45.38086" lon="4.59968">
        <ele>1223.2</ele>
        <time>2026-08-18T08:55:22.001Z</time>
      </trkpt>
      <trkpt lat="45.38086" lon="4.5997">
        <ele>1222.5</ele>
        <time>2026-08-18T08:55:23.001Z</time>
      </trkpt>
      <trkpt lat="45.38085" lon="4.59974">
        <ele>1222.5</ele>
        <time>2026-08-18T08:55:24.998Z</time>
      </trkpt>
      <trkpt lat="45.38085" lon="4.59975">
        <ele>1223.4</ele>
        <time>2026-08-18T08:55:26.000Z</time>
      </trkpt>
      <trkpt lat="45.38084" lon="4.59976">
        <ele>1221.9</ele>
        <time>2026-08-18T08:55:27.011Z</time>
      </trkpt>
      <trkpt lat="45.38084" lon="4.59979">
        <ele>1221.8</ele>
        <time>2026-08-18T08:55:29.000Z</time>
      </trkpt>
      <trkpt lat="45.38084" lon="4.59982">
        <ele>1222.3</ele>
        <time>2026-08-18T08:55:31.004Z</time>
      </trkpt>
      <trkpt lat="45.38083" lon="4.59985">
        <ele>1220.8</ele>
        <time>2026-08-18T08:55:33.001Z</time>
      </trkpt>
      <trkpt lat="45.38082" lon="4.59986">
        <ele>1220.8</ele>
        <time>2026-08-18T08:55:34.001Z</time>
      </trkpt>
      <trkpt lat="45.3808" lon="4.59988">
        <ele>1220.1</ele>
        <time>2026-08-18T08:55:36.000Z</time>
      </trkpt>
      <trkpt lat="45.38079" lon="4.5999">
        <ele>1219.2</ele>
        <time>2026-08-18T08:55:37.000Z</time>
      </trkpt>
      <trkpt lat="45.38078" lon="4.59991">
        <ele>1219.1</ele>
        <time>2026-08-18T08:55:38.001Z</time>
      </trkpt>
      <trkpt lat="45.38077" lon="4.59993">
        <ele>1218.5</ele>
        <time>2026-08-18T08:55:39.001Z</time>
      </trkpt>
      <trkpt lat="45.38077" lon="4.59994">
        <ele>1217.3</ele>
        <time>2026-08-18T08:55:40.001Z</time>
      </trkpt>
      <trkpt lat="45.38075" lon="4.59998">
        <ele>1218.1</ele>
        <time>2026-08-18T08:55:42.000Z</time>
      </trkpt>
      <trkpt lat="45.38075" lon="4.59999">
        <ele>1218.1</ele>
        <time>2026-08-18T08:55:43.026Z</time>
      </trkpt>
      <trkpt lat="45.38074" lon="4.60001">
        <ele>1218.8</ele>
        <time>2026-08-18T08:55:45.000Z</time>
      </trkpt>
      <trkpt lat="45.38073" lon="4.60002">
        <ele>1218.8</ele>
        <time>2026-08-18T08:55:46.058Z</time>
      </trkpt>
      <trkpt lat="45.38072" lon="4.60004">
        <ele>1216.2</ele>
        <time>2026-08-18T08:55:48.005Z</time>
      </trkpt>
      <trkpt lat="45.3807" lon="4.60006">
        <ele>1214.9</ele>
        <time>2026-08-18T08:55:50.000Z</time>
      </trkpt>
      <trkpt lat="45.38069" lon="4.60007">
        <ele>1214.7</ele>
        <time>2026-08-18T08:55:51.000Z</time>
      </trkpt>
      <trkpt lat="45.38068" lon="4.60007">
        <ele>1214.9</ele>
        <time>2026-08-18T08:55:52.000Z</time>
      </trkpt>
      <trkpt lat="45.38067" lon="4.60008">
        <ele>1214.8</ele>
        <time>2026-08-18T08:55:53.000Z</time>
      </trkpt>
      <trkpt lat="45.38066" lon="4.60009">
        <ele>1215.4</ele>
        <time>2026-08-18T08:55:54.001Z</time>
      </trkpt>
      <trkpt lat="45.38065" lon="4.6001">
        <ele>1215.9</ele>
        <time>2026-08-18T08:55:55.001Z</time>
      </trkpt>
      <trkpt lat="45.38063" lon="4.60011">
        <ele>1215.3</ele>
        <time>2026-08-18T08:55:57.000Z</time>
      </trkpt>
      <trkpt lat="45.38062" lon="4.60012">
        <ele>1214.9</ele>
        <time>2026-08-18T08:55:58.001Z</time>
      </trkpt>
      <trkpt lat="45.3806" lon="4.60013">
        <ele>1214.7</ele>
        <time>2026-08-18T08:56:00.062Z</time>
      </trkpt>
      <trkpt lat="45.38058" lon="4.60014">
        <ele>1213.6</ele>
        <time>2026-08-18T08:56:02.001Z</time>
      </trkpt>
      <trkpt lat="45.38057" lon="4.60015">
        <ele>1214.3</ele>
        <time>2026-08-18T08:56:03.001Z</time>
      </trkpt>
      <trkpt lat="45.38056" lon="4.60017">
        <ele>1214.3</ele>
        <time>2026-08-18T08:56:04.001Z</time>
      </trkpt>
      <trkpt lat="45.38054" lon="4.60019">
        <ele>1215.5</ele>
        <time>2026-08-18T08:56:06.000Z</time>
      </trkpt>
      <trkpt lat="45.38053" lon="4.60019">
        <ele>1214.5</ele>
        <time>2026-08-18T08:56:07.000Z</time>
      </trkpt>
      <trkpt lat="45.38051" lon="4.6002">
        <ele>1214.5</ele>
        <time>2026-08-18T08:56:08.222Z</time>
      </trkpt>
      <trkpt lat="45.3805" lon="4.60021">
        <ele>1214.2</ele>
        <time>2026-08-18T08:56:09.505Z</time>
      </trkpt>
      <trkpt lat="45.38049" lon="4.60021">
        <ele>1212.3</ele>
        <time>2026-08-18T08:56:11.000Z</time>
      </trkpt>
      <trkpt lat="45.38049" lon="4.60022">
        <ele>1212.8</ele>
        <time>2026-08-18T08:56:12.000Z</time>
      </trkpt>
      <trkpt lat="45.38048" lon="4.60023">
        <ele>1211.6</ele>
        <time>2026-08-18T08:56:13.001Z</time>
      </trkpt>
      <trkpt lat="45.38047" lon="4.60025">
        <ele>1211.7</ele>
        <time>2026-08-18T08:56:14.001Z</time>
      </trkpt>
      <trkpt lat="45.38047" lon="4.60026">
        <ele>1211.1</ele>
        <time>2026-08-18T08:56:15.001Z</time>
      </trkpt>
      <trkpt lat="45.38047" lon="4.60028">
        <ele>1211.7</ele>
        <time>2026-08-18T08:56:16.001Z</time>
      </trkpt>
      <trkpt lat="45.38046" lon="4.6003">
        <ele>1211.7</ele>
        <time>2026-08-18T08:56:17.016Z</time>
      </trkpt>
      <trkpt lat="45.38046" lon="4.60033">
        <ele>1211.9</ele>
        <time>2026-08-18T08:56:19.001Z</time>
      </trkpt>
      <trkpt lat="45.38045" lon="4.60034">
        <ele>1211.9</ele>
        <time>2026-08-18T08:56:20.040Z</time>
      </trkpt>
      <trkpt lat="45.38043" lon="4.60036">
        <ele>1212.3</ele>
        <time>2026-08-18T08:56:22.037Z</time>
      </trkpt>
      <trkpt lat="45.38041" lon="4.60039">
        <ele>1212.4</ele>
        <time>2026-08-18T08:56:24.001Z</time>
      </trkpt>
      <trkpt lat="45.3804" lon="4.6004">
        <ele>1214.7</ele>
        <time>2026-08-18T08:56:26.001Z</time>
      </trkpt>
      <trkpt lat="45.38038" lon="4.60042">
        <ele>1214.2</ele>
        <time>2026-08-18T08:56:28.001Z</time>
      </trkpt>
      <trkpt lat="45.38037" lon="4.60043">
        <ele>1214</ele>
        <time>2026-08-18T08:56:29.001Z</time>
      </trkpt>
      <trkpt lat="45.38036" lon="4.60044">
        <ele>1214</ele>
        <time>2026-08-18T08:56:30.024Z</time>
      </trkpt>
      <trkpt lat="45.38035" lon="4.60046">
        <ele>1215.1</ele>
        <time>2026-08-18T08:56:32.019Z</time>
      </trkpt>
      <trkpt lat="45.38033" lon="4.60048">
        <ele>1212.9</ele>
        <time>2026-08-18T08:56:34.100Z</time>
      </trkpt>
      <trkpt lat="45.38032" lon="4.6005">
        <ele>1212.4</ele>
        <time>2026-08-18T08:56:35.985Z</time>
      </trkpt>
      <trkpt lat="45.38032" lon="4.60051">
        <ele>1212.3</ele>
        <time>2026-08-18T08:56:37.001Z</time>
      </trkpt>
      <trkpt lat="45.38031" lon="4.60053">
        <ele>1211.4</ele>
        <time>2026-08-18T08:56:39.001Z</time>
      </trkpt>
      <trkpt lat="45.3803" lon="4.60055">
        <ele>1210.1</ele>
        <time>2026-08-18T08:56:41.001Z</time>
      </trkpt>
      <trkpt lat="45.38029" lon="4.60058">
        <ele>1210.2</ele>
        <time>2026-08-18T08:56:43.087Z</time>
      </trkpt>
      <trkpt lat="45.38028" lon="4.6006">
        <ele>1208.6</ele>
        <time>2026-08-18T08:56:45.000Z</time>
      </trkpt>
      <trkpt lat="45.38027" lon="4.60061">
        <ele>1208</ele>
        <time>2026-08-18T08:56:46.001Z</time>
      </trkpt>
      <trkpt lat="45.38026" lon="4.60063">
        <ele>1208</ele>
        <time>2026-08-18T08:56:48.000Z</time>
      </trkpt>
      <trkpt lat="45.38025" lon="4.60064">
        <ele>1207</ele>
        <time>2026-08-18T08:56:49.000Z</time>
      </trkpt>
      <trkpt lat="45.38025" lon="4.60065">
        <ele>1206.3</ele>
        <time>2026-08-18T08:56:50.001Z</time>
      </trkpt>
      <trkpt lat="45.38023" lon="4.60068">
        <ele>1205.4</ele>
        <time>2026-08-18T08:56:52.001Z</time>
      </trkpt>
      <trkpt lat="45.38023" lon="4.60069">
        <ele>1204.9</ele>
        <time>2026-08-18T08:56:53.002Z</time>
      </trkpt>
      <trkpt lat="45.38022" lon="4.60071">
        <ele>1203</ele>
        <time>2026-08-18T08:56:55.001Z</time>
      </trkpt>
      <trkpt lat="45.3802" lon="4.60073">
        <ele>1202.9</ele>
        <time>2026-08-18T08:56:57.001Z</time>
      </trkpt>
      <trkpt lat="45.38019" lon="4.60075">
        <ele>1200.5</ele>
        <time>2026-08-18T08:56:59.001Z</time>
      </trkpt>
      <trkpt lat="45.38019" lon="4.60077">
        <ele>1200.3</ele>
        <time>2026-08-18T08:57:00.088Z</time>
      </trkpt>
      <trkpt lat="45.38017" lon="4.60079">
        <ele>1200</ele>
        <time>2026-08-18T08:57:02.001Z</time>
      </trkpt>
      <trkpt lat="45.38016" lon="4.60082">
        <ele>1198.5</ele>
        <time>2026-08-18T08:57:04.001Z</time>
      </trkpt>
      <trkpt lat="45.38015" lon="4.60083">
        <ele>1198.4</ele>
        <time>2026-08-18T08:57:05.001Z</time>
      </trkpt>
      <trkpt lat="45.38014" lon="4.60086">
        <ele>1198.8</ele>
        <time>2026-08-18T08:57:07.015Z</time>
      </trkpt>
      <trkpt lat="45.38013" lon="4.60088">
        <ele>1198.1</ele>
        <time>2026-08-18T08:57:09.001Z</time>
      </trkpt>
      <trkpt lat="45.38011" lon="4.60091">
        <ele>1198.2</ele>
        <time>2026-08-18T08:57:11.010Z</time>
      </trkpt>
      <trkpt lat="45.38009" lon="4.60092">
        <ele>1197.8</ele>
        <time>2026-08-18T08:57:12.922Z</time>
      </trkpt>
      <trkpt lat="45.38008" lon="4.60093">
        <ele>1197.6</ele>
        <time>2026-08-18T08:57:14.001Z</time>
      </trkpt>
      <trkpt lat="45.38006" lon="4.60094">
        <ele>1198.2</ele>
        <time>2026-08-18T08:57:16.001Z</time>
      </trkpt>
      <trkpt lat="45.38005" lon="4.60095">
        <ele>1198.3</ele>
        <time>2026-08-18T08:57:17.001Z</time>
      </trkpt>
      <trkpt lat="45.38004" lon="4.60096">
        <ele>1198.2</ele>
        <time>2026-08-18T08:57:18.001Z</time>
      </trkpt>
      <trkpt lat="45.38004" lon="4.60097">
        <ele>1198</ele>
        <time>2026-08-18T08:57:19.001Z</time>
      </trkpt>
      <trkpt lat="45.38002" lon="4.60099">
        <ele>1198.1</ele>
        <time>2026-08-18T08:57:21.001Z</time>
      </trkpt>
      <trkpt lat="45.38002" lon="4.601">
        <ele>1196.6</ele>
        <time>2026-08-18T08:57:22.001Z</time>
      </trkpt>
      <trkpt lat="45.38" lon="4.60102">
        <ele>1196.2</ele>
        <time>2026-08-18T08:57:24.000Z</time>
      </trkpt>
      <trkpt lat="45.38" lon="4.60103">
        <ele>1195.9</ele>
        <time>2026-08-18T08:57:25.000Z</time>
      </trkpt>
      <trkpt lat="45.37998" lon="4.60105">
        <ele>1195.8</ele>
        <time>2026-08-18T08:57:27.000Z</time>
      </trkpt>
      <trkpt lat="45.37996" lon="4.60106">
        <ele>1193.7</ele>
        <time>2026-08-18T08:57:28.999Z</time>
      </trkpt>
      <trkpt lat="45.37995" lon="4.60108">
        <ele>1195.2</ele>
        <time>2026-08-18T08:57:30.000Z</time>
      </trkpt>
      <trkpt lat="45.37994" lon="4.60109">
        <ele>1195.6</ele>
        <time>2026-08-18T08:57:31.001Z</time>
      </trkpt>
      <trkpt lat="45.37993" lon="4.6011">
        <ele>1195.4</ele>
        <time>2026-08-18T08:57:32.003Z</time>
      </trkpt>
      <trkpt lat="45.37991" lon="4.60112">
        <ele>1196.2</ele>
        <time>2026-08-18T08:57:34.001Z</time>
      </trkpt>
      <trkpt lat="45.3799" lon="4.60113">
        <ele>1196.3</ele>
        <time>2026-08-18T08:57:35.001Z</time>
      </trkpt>
      <trkpt lat="45.37989" lon="4.60114">
        <ele>1197</ele>
        <time>2026-08-18T08:57:36.001Z</time>
      </trkpt>
      <trkpt lat="45.37987" lon="4.60115">
        <ele>1195.5</ele>
        <time>2026-08-18T08:57:38.001Z</time>
      </trkpt>
      <trkpt lat="45.37986" lon="4.60116">
        <ele>1194.7</ele>
        <time>2026-08-18T08:57:39.001Z</time>
      </trkpt>
      <trkpt lat="45.37986" lon="4.60117">
        <ele>1194.4</ele>
        <time>2026-08-18T08:57:40.001Z</time>
      </trkpt>
      <trkpt lat="45.37985" lon="4.60118">
        <ele>1194.1</ele>
        <time>2026-08-18T08:57:41.001Z</time>
      </trkpt>
      <trkpt lat="45.37984" lon="4.60119">
        <ele>1194.6</ele>
        <time>2026-08-18T08:57:42.001Z</time>
      </trkpt>
      <trkpt lat="45.37984" lon="4.6012">
        <ele>1194.4</ele>
        <time>2026-08-18T08:57:43.012Z</time>
      </trkpt>
      <trkpt lat="45.37982" lon="4.60121">
        <ele>1194.4</ele>
        <time>2026-08-18T08:57:45.003Z</time>
      </trkpt>
      <trkpt lat="45.3798" lon="4.60122">
        <ele>1193.3</ele>
        <time>2026-08-18T08:57:47.001Z</time>
      </trkpt>
      <trkpt lat="45.37978" lon="4.60122">
        <ele>1193.9</ele>
        <time>2026-08-18T08:57:49.000Z</time>
      </trkpt>
      <trkpt lat="45.37977" lon="4.60122">
        <ele>1193.4</ele>
        <time>2026-08-18T08:57:50.001Z</time>
      </trkpt>
      <trkpt lat="45.37976" lon="4.60122">
        <ele>1193</ele>
        <time>2026-08-18T08:57:51.001Z</time>
      </trkpt>
      <trkpt lat="45.37975" lon="4.60123">
        <ele>1192.9</ele>
        <time>2026-08-18T08:57:52.001Z</time>
      </trkpt>
      <trkpt lat="45.37973" lon="4.60123">
        <ele>1192.9</ele>
        <time>2026-08-18T08:57:54.001Z</time>
      </trkpt>
      <trkpt lat="45.37972" lon="4.60124">
        <ele>1192.6</ele>
        <time>2026-08-18T08:57:55.001Z</time>
      </trkpt>
      <trkpt lat="45.37972" lon="4.60125">
        <ele>1192.6</ele>
        <time>2026-08-18T08:57:56.001Z</time>
      </trkpt>
      <trkpt lat="45.37971" lon="4.60126">
        <ele>1193</ele>
        <time>2026-08-18T08:57:57.001Z</time>
      </trkpt>
      <trkpt lat="45.3797" lon="4.60127">
        <ele>1192.6</ele>
        <time>2026-08-18T08:57:59.001Z</time>
      </trkpt>
      <trkpt lat="45.37969" lon="4.60128">
        <ele>1192.8</ele>
        <time>2026-08-18T08:58:00.001Z</time>
      </trkpt>
      <trkpt lat="45.37968" lon="4.60129">
        <ele>1192.8</ele>
        <time>2026-08-18T08:58:01.005Z</time>
      </trkpt>
      <trkpt lat="45.37967" lon="4.60131">
        <ele>1191.3</ele>
        <time>2026-08-18T08:58:03.000Z</time>
      </trkpt>
      <trkpt lat="45.37966" lon="4.60133">
        <ele>1191.2</ele>
        <time>2026-08-18T08:58:04.006Z</time>
      </trkpt>
      <trkpt lat="45.37965" lon="4.60136">
        <ele>1190.6</ele>
        <time>2026-08-18T08:58:06.000Z</time>
      </trkpt>
      <trkpt lat="45.37965" lon="4.60137">
        <ele>1189.4</ele>
        <time>2026-08-18T08:58:07.001Z</time>
      </trkpt>
      <trkpt lat="45.37963" lon="4.6014">
        <ele>1189.2</ele>
        <time>2026-08-18T08:58:09.000Z</time>
      </trkpt>
      <trkpt lat="45.37962" lon="4.60141">
        <ele>1189.2</ele>
        <time>2026-08-18T08:58:11.000Z</time>
      </trkpt>
      <trkpt lat="45.37961" lon="4.60143">
        <ele>1189.2</ele>
        <time>2026-08-18T08:58:12.024Z</time>
      </trkpt>
      <trkpt lat="45.3796" lon="4.60145">
        <ele>1188.7</ele>
        <time>2026-08-18T08:58:14.001Z</time>
      </trkpt>
      <trkpt lat="45.3796" lon="4.60146">
        <ele>1188.4</ele>
        <time>2026-08-18T08:58:15.001Z</time>
      </trkpt>
      <trkpt lat="45.3796" lon="4.60148">
        <ele>1188.3</ele>
        <time>2026-08-18T08:58:16.001Z</time>
      </trkpt>
      <trkpt lat="45.3796" lon="4.60149">
        <ele>1188.3</ele>
        <time>2026-08-18T08:58:17.001Z</time>
      </trkpt>
      <trkpt lat="45.37959" lon="4.60152">
        <ele>1187.8</ele>
        <time>2026-08-18T08:58:19.000Z</time>
      </trkpt>
      <trkpt lat="45.37958" lon="4.60154">
        <ele>1188.7</ele>
        <time>2026-08-18T08:58:20.000Z</time>
      </trkpt>
      <trkpt lat="45.37958" lon="4.60155">
        <ele>1187.8</ele>
        <time>2026-08-18T08:58:21.006Z</time>
      </trkpt>
      <trkpt lat="45.37957" lon="4.60159">
        <ele>1187.3</ele>
        <time>2026-08-18T08:58:23.001Z</time>
      </trkpt>
      <trkpt lat="45.37957" lon="4.60162">
        <ele>1186</ele>
        <time>2026-08-18T08:58:25.001Z</time>
      </trkpt>
      <trkpt lat="45.37957" lon="4.60165">
        <ele>1187.1</ele>
        <time>2026-08-18T08:58:27.001Z</time>
      </trkpt>
      <trkpt lat="45.37956" lon="4.60167">
        <ele>1187</ele>
        <time>2026-08-18T08:58:28.001Z</time>
      </trkpt>
      <trkpt lat="45.37956" lon="4.60168">
        <ele>1188</ele>
        <time>2026-08-18T08:58:29.001Z</time>
      </trkpt>
      <trkpt lat="45.37957" lon="4.60169">
        <ele>1188.1</ele>
        <time>2026-08-18T08:58:30.001Z</time>
      </trkpt>
      <trkpt lat="45.37956" lon="4.60173">
        <ele>1188.4</ele>
        <time>2026-08-18T08:58:31.960Z</time>
      </trkpt>
      <trkpt lat="45.37956" lon="4.60174">
        <ele>1189</ele>
        <time>2026-08-18T08:58:33.001Z</time>
      </trkpt>
      <trkpt lat="45.37956" lon="4.60176">
        <ele>1188.9</ele>
        <time>2026-08-18T08:58:34.013Z</time>
      </trkpt>
      <trkpt lat="45.37956" lon="4.60179">
        <ele>1188</ele>
        <time>2026-08-18T08:58:36.001Z</time>
      </trkpt>
      <trkpt lat="45.37956" lon="4.60182">
        <ele>1186.6</ele>
        <time>2026-08-18T08:58:38.006Z</time>
      </trkpt>
      <trkpt lat="45.37957" lon="4.60185">
        <ele>1187.2</ele>
        <time>2026-08-18T08:58:40.000Z</time>
      </trkpt>
      <trkpt lat="45.37957" lon="4.60188">
        <ele>1187.7</ele>
        <time>2026-08-18T08:58:41.000Z</time>
      </trkpt>
      <trkpt lat="45.37958" lon="4.60191">
        <ele>1188.1</ele>
        <time>2026-08-18T08:58:43.001Z</time>
      </trkpt>
      <trkpt lat="45.37959" lon="4.60192">
        <ele>1188.1</ele>
        <time>2026-08-18T08:58:44.018Z</time>
      </trkpt>
      <trkpt lat="45.37959" lon="4.60196">
        <ele>1188.3</ele>
        <time>2026-08-18T08:58:46.001Z</time>
      </trkpt>
      <trkpt lat="45.37959" lon="4.60199">
        <ele>1188.1</ele>
        <time>2026-08-18T08:58:48.000Z</time>
      </trkpt>
      <trkpt lat="45.37959" lon="4.60202">
        <ele>1188.7</ele>
        <time>2026-08-18T08:58:50.001Z</time>
      </trkpt>
      <trkpt lat="45.3796" lon="4.60203">
        <ele>1188.6</ele>
        <time>2026-08-18T08:58:51.013Z</time>
      </trkpt>
      <trkpt lat="45.3796" lon="4.60206">
        <ele>1188.8</ele>
        <time>2026-08-18T08:58:53.000Z</time>
      </trkpt>
      <trkpt lat="45.3796" lon="4.60208">
        <ele>1188.6</ele>
        <time>2026-08-18T08:58:54.000Z</time>
      </trkpt>
      <trkpt lat="45.3796" lon="4.60209">
        <ele>1188.7</ele>
        <time>2026-08-18T08:58:55.000Z</time>
      </trkpt>
      <trkpt lat="45.3796" lon="4.60211">
        <ele>1188.4</ele>
        <time>2026-08-18T08:58:56.000Z</time>
      </trkpt>
      <trkpt lat="45.37961" lon="4.60214">
        <ele>1188.9</ele>
        <time>2026-08-18T08:58:58.001Z</time>
      </trkpt>
      <trkpt lat="45.37961" lon="4.60215">
        <ele>1188.5</ele>
        <time>2026-08-18T08:58:59.001Z</time>
      </trkpt>
      <trkpt lat="45.37962" lon="4.60217">
        <ele>1188.5</ele>
        <time>2026-08-18T08:59:00.001Z</time>
      </trkpt>
      <trkpt lat="45.37962" lon="4.60219">
        <ele>1188.8</ele>
        <time>2026-08-18T08:59:01.001Z</time>
      </trkpt>
      <trkpt lat="45.37962" lon="4.6022">
        <ele>1188.9</ele>
        <time>2026-08-18T08:59:02.001Z</time>
      </trkpt>
      <trkpt lat="45.37963" lon="4.60224">
        <ele>1188.6</ele>
        <time>2026-08-18T08:59:04.000Z</time>
      </trkpt>
      <trkpt lat="45.37963" lon="4.60225">
        <ele>1188.7</ele>
        <time>2026-08-18T08:59:05.000Z</time>
      </trkpt>
      <trkpt lat="45.37963" lon="4.60229">
        <ele>1189.6</ele>
        <time>2026-08-18T08:59:07.001Z</time>
      </trkpt>
      <trkpt lat="45.37964" lon="4.6023">
        <ele>1190.1</ele>
        <time>2026-08-18T08:59:08.013Z</time>
      </trkpt>
      <trkpt lat="45.37964" lon="4.60232">
        <ele>1190.1</ele>
        <time>2026-08-18T08:59:09.042Z</time>
      </trkpt>
      <trkpt lat="45.37964" lon="4.60235">
        <ele>1190.3</ele>
        <time>2026-08-18T08:59:11.001Z</time>
      </trkpt>
      <trkpt lat="45.37965" lon="4.60237">
        <ele>1190.7</ele>
        <time>2026-08-18T08:59:12.007Z</time>
      </trkpt>
      <trkpt lat="45.37965" lon="4.6024">
        <ele>1190.8</ele>
        <time>2026-08-18T08:59:13.920Z</time>
      </trkpt>
      <trkpt lat="45.37966" lon="4.60242">
        <ele>1190.5</ele>
        <time>2026-08-18T08:59:15.001Z</time>
      </trkpt>
      <trkpt lat="45.37966" lon="4.60243">
        <ele>1190.7</ele>
        <time>2026-08-18T08:59:16.001Z</time>
      </trkpt>
      <trkpt lat="45.37966" lon="4.60245">
        <ele>1190.8</ele>
        <time>2026-08-18T08:59:17.001Z</time>
      </trkpt>
      <trkpt lat="45.37966" lon="4.60247">
        <ele>1190.6</ele>
        <time>2026-08-18T08:59:18.001Z</time>
      </trkpt>
      <trkpt lat="45.37967" lon="4.60248">
        <ele>1190.7</ele>
        <time>2026-08-18T08:59:19.001Z</time>
      </trkpt>
      <trkpt lat="45.37968" lon="4.6025">
        <ele>1190.7</ele>
        <time>2026-08-18T08:59:20.005Z</time>
      </trkpt>
      <trkpt lat="45.37969" lon="4.60253">
        <ele>1190.6</ele>
        <time>2026-08-18T08:59:22.001Z</time>
      </trkpt>
      <trkpt lat="45.3797" lon="4.60254">
        <ele>1190.9</ele>
        <time>2026-08-18T08:59:23.001Z</time>
      </trkpt>
      <trkpt lat="45.3797" lon="4.60256">
        <ele>1191</ele>
        <time>2026-08-18T08:59:24.001Z</time>
      </trkpt>
      <trkpt lat="45.37971" lon="4.60259">
        <ele>1190.4</ele>
        <time>2026-08-18T08:59:26.000Z</time>
      </trkpt>
      <trkpt lat="45.37972" lon="4.6026">
        <ele>1190.3</ele>
        <time>2026-08-18T08:59:27.000Z</time>
      </trkpt>
      <trkpt lat="45.37972" lon="4.60262">
        <ele>1190.6</ele>
        <time>2026-08-18T08:59:28.001Z</time>
      </trkpt>
      <trkpt lat="45.37974" lon="4.60264">
        <ele>1190.7</ele>
        <time>2026-08-18T08:59:29.979Z</time>
      </trkpt>
      <trkpt lat="45.37975" lon="4.60266">
        <ele>1190.7</ele>
        <time>2026-08-18T08:59:31.001Z</time>
      </trkpt>
      <trkpt lat="45.37976" lon="4.60269">
        <ele>1189.8</ele>
        <time>2026-08-18T08:59:33.001Z</time>
      </trkpt>
      <trkpt lat="45.37977" lon="4.60271">
        <ele>1190</ele>
        <time>2026-08-18T08:59:34.001Z</time>
      </trkpt>
      <trkpt lat="45.37978" lon="4.60272">
        <ele>1190.2</ele>
        <time>2026-08-18T08:59:35.001Z</time>
      </trkpt>
      <trkpt lat="45.37979" lon="4.60274">
        <ele>1190.2</ele>
        <time>2026-08-18T08:59:36.017Z</time>
      </trkpt>
      <trkpt lat="45.3798" lon="4.60277">
        <ele>1189.2</ele>
        <time>2026-08-18T08:59:38.001Z</time>
      </trkpt>
      <trkpt lat="45.37981" lon="4.6028">
        <ele>1189.1</ele>
        <time>2026-08-18T08:59:40.001Z</time>
      </trkpt>
      <trkpt lat="45.37982" lon="4.60281">
        <ele>1189.1</ele>
        <time>2026-08-18T08:59:41.018Z</time>
      </trkpt>
      <trkpt lat="45.37983" lon="4.60284">
        <ele>1188.7</ele>
        <time>2026-08-18T08:59:43.001Z</time>
      </trkpt>
      <trkpt lat="45.37984" lon="4.60286">
        <ele>1188.5</ele>
        <time>2026-08-18T08:59:44.001Z</time>
      </trkpt>
      <trkpt lat="45.37985" lon="4.60289">
        <ele>1188.5</ele>
        <time>2026-08-18T08:59:46.000Z</time>
      </trkpt>
      <trkpt lat="45.37986" lon="4.60291">
        <ele>1188.7</ele>
        <time>2026-08-18T08:59:47.978Z</time>
      </trkpt>
      <trkpt lat="45.37987" lon="4.60292">
        <ele>1188.9</ele>
        <time>2026-08-18T08:59:49.000Z</time>
      </trkpt>
      <trkpt lat="45.37988" lon="4.60293">
        <ele>1187.9</ele>
        <time>2026-08-18T08:59:50.001Z</time>
      </trkpt>
      <trkpt lat="45.37989" lon="4.60295">
        <ele>1188.1</ele>
        <time>2026-08-18T08:59:51.027Z</time>
      </trkpt>
      <trkpt lat="45.3799" lon="4.60297">
        <ele>1187.9</ele>
        <time>2026-08-18T08:59:53.001Z</time>
      </trkpt>
      <trkpt lat="45.37991" lon="4.60298">
        <ele>1188.1</ele>
        <time>2026-08-18T08:59:54.001Z</time>
      </trkpt>
      <trkpt lat="45.37991" lon="4.60299">
        <ele>1188.5</ele>
        <time>2026-08-18T08:59:55.001Z</time>
      </trkpt>
      <trkpt lat="45.37993" lon="4.60301">
        <ele>1188.9</ele>
        <time>2026-08-18T08:59:57.000Z</time>
      </trkpt>
      <trkpt lat="45.37994" lon="4.60301">
        <ele>1188.9</ele>
        <time>2026-08-18T08:59:58.000Z</time>
      </trkpt>
      <trkpt lat="45.37996" lon="4.60302">
        <ele>1189.6</ele>
        <time>2026-08-18T08:59:59.001Z</time>
      </trkpt>
      <trkpt lat="45.37996" lon="4.60303">
        <ele>1189.1</ele>
        <time>2026-08-18T09:00:00.001Z</time>
      </trkpt>
      <trkpt lat="45.37998" lon="4.60306">
        <ele>1188.7</ele>
        <time>2026-08-18T09:00:02.001Z</time>
      </trkpt>
      <trkpt lat="45.37999" lon="4.60307">
        <ele>1188.5</ele>
        <time>2026-08-18T09:00:03.007Z</time>
      </trkpt>
      <trkpt lat="45.38001" lon="4.60309">
        <ele>1189</ele>
        <time>2026-08-18T09:00:05.000Z</time>
      </trkpt>
      <trkpt lat="45.38002" lon="4.6031">
        <ele>1189.5</ele>
        <time>2026-08-18T09:00:06.001Z</time>
      </trkpt>
      <trkpt lat="45.38004" lon="4.60313">
        <ele>1190</ele>
        <time>2026-08-18T09:00:08.001Z</time>
      </trkpt>
      <trkpt lat="45.38006" lon="4.60314">
        <ele>1189.2</ele>
        <time>2026-08-18T09:00:10.001Z</time>
      </trkpt>
      <trkpt lat="45.38007" lon="4.60315">
        <ele>1189.2</ele>
        <time>2026-08-18T09:00:11.005Z</time>
      </trkpt>
      <trkpt lat="45.38009" lon="4.60318">
        <ele>1189.4</ele>
        <time>2026-08-18T09:00:12.999Z</time>
      </trkpt>
      <trkpt lat="45.3801" lon="4.60318">
        <ele>1189.1</ele>
        <time>2026-08-18T09:00:14.000Z</time>
      </trkpt>
      <trkpt lat="45.38011" lon="4.60319">
        <ele>1188.8</ele>
        <time>2026-08-18T09:00:15.000Z</time>
      </trkpt>
      <trkpt lat="45.38012" lon="4.60321">
        <ele>1188.4</ele>
        <time>2026-08-18T09:00:16.013Z</time>
      </trkpt>
      <trkpt lat="45.38014" lon="4.60323">
        <ele>1188.1</ele>
        <time>2026-08-18T09:00:17.999Z</time>
      </trkpt>
      <trkpt lat="45.38015" lon="4.60324">
        <ele>1187.8</ele>
        <time>2026-08-18T09:00:19.000Z</time>
      </trkpt>
      <trkpt lat="45.38015" lon="4.60325">
        <ele>1187.6</ele>
        <time>2026-08-18T09:00:20.007Z</time>
      </trkpt>
      <trkpt lat="45.38017" lon="4.60328">
        <ele>1187.7</ele>
        <time>2026-08-18T09:00:21.902Z</time>
      </trkpt>
      <trkpt lat="45.38018" lon="4.60329">
        <ele>1187.5</ele>
        <time>2026-08-18T09:00:23.000Z</time>
      </trkpt>
      <trkpt lat="45.38019" lon="4.6033">
        <ele>1187.5</ele>
        <time>2026-08-18T09:00:24.000Z</time>
      </trkpt>
      <trkpt lat="45.3802" lon="4.60331">
        <ele>1187</ele>
        <time>2026-08-18T09:00:25.000Z</time>
      </trkpt>
      <trkpt lat="45.3802" lon="4.60332">
        <ele>1187.1</ele>
        <time>2026-08-18T09:00:26.000Z</time>
      </trkpt>
      <trkpt lat="45.38021" lon="4.60334">
        <ele>1187.2</ele>
        <time>2026-08-18T09:00:27.000Z</time>
      </trkpt>
      <trkpt lat="45.38023" lon="4.60336">
        <ele>1185.8</ele>
        <time>2026-08-18T09:00:29.000Z</time>
      </trkpt>
      <trkpt lat="45.38025" lon="4.60338">
        <ele>1186.9</ele>
        <time>2026-08-18T09:00:31.000Z</time>
      </trkpt>
      <trkpt lat="45.38026" lon="4.60341">
        <ele>1186</ele>
        <time>2026-08-18T09:00:33.000Z</time>
      </trkpt>
      <trkpt lat="45.38028" lon="4.60343">
        <ele>1186.2</ele>
        <time>2026-08-18T09:00:35.000Z</time>
      </trkpt>
      <trkpt lat="45.3803" lon="4.60345">
        <ele>1185.8</ele>
        <time>2026-08-18T09:00:36.980Z</time>
      </trkpt>
      <trkpt lat="45.38031" lon="4.60346">
        <ele>1185.6</ele>
        <time>2026-08-18T09:00:38.000Z</time>
      </trkpt>
      <trkpt lat="45.38032" lon="4.60348">
        <ele>1185.3</ele>
        <time>2026-08-18T09:00:39.919Z</time>
      </trkpt>
      <trkpt lat="45.38034" lon="4.60349">
        <ele>1185.4</ele>
        <time>2026-08-18T09:00:41.001Z</time>
      </trkpt>
      <trkpt lat="45.38035" lon="4.60351">
        <ele>1185</ele>
        <time>2026-08-18T09:00:42.999Z</time>
      </trkpt>
      <trkpt lat="45.38036" lon="4.60353">
        <ele>1184.9</ele>
        <time>2026-08-18T09:00:44.000Z</time>
      </trkpt>
      <trkpt lat="45.38038" lon="4.60355">
        <ele>1185</ele>
        <time>2026-08-18T09:00:46.000Z</time>
      </trkpt>
      <trkpt lat="45.3804" lon="4.60357">
        <ele>1185.6</ele>
        <time>2026-08-18T09:00:48.000Z</time>
      </trkpt>
      <trkpt lat="45.38041" lon="4.60358">
        <ele>1185.8</ele>
        <time>2026-08-18T09:00:49.000Z</time>
      </trkpt>
      <trkpt lat="45.38043" lon="4.6036">
        <ele>1185.7</ele>
        <time>2026-08-18T09:00:50.013Z</time>
      </trkpt>
      <trkpt lat="45.38044" lon="4.60362">
        <ele>1184.8</ele>
        <time>2026-08-18T09:00:52.000Z</time>
      </trkpt>
      <trkpt lat="45.38045" lon="4.60364">
        <ele>1185</ele>
        <time>2026-08-18T09:00:53.000Z</time>
      </trkpt>
      <trkpt lat="45.38046" lon="4.60365">
        <ele>1185</ele>
        <time>2026-08-18T09:00:54.007Z</time>
      </trkpt>
      <trkpt lat="45.38049" lon="4.60367">
        <ele>1185</ele>
        <time>2026-08-18T09:00:55.999Z</time>
      </trkpt>
      <trkpt lat="45.3805" lon="4.60368">
        <ele>1184.7</ele>
        <time>2026-08-18T09:00:57.000Z</time>
      </trkpt>
      <trkpt lat="45.38051" lon="4.60369">
        <ele>1183.9</ele>
        <time>2026-08-18T09:00:58.001Z</time>
      </trkpt>
      <trkpt lat="45.38054" lon="4.6037">
        <ele>1183.4</ele>
        <time>2026-08-18T09:01:00.000Z</time>
      </trkpt>
      <trkpt lat="45.38055" lon="4.60371">
        <ele>1182.8</ele>
        <time>2026-08-18T09:01:01.000Z</time>
      </trkpt>
      <trkpt lat="45.38055" lon="4.60372">
        <ele>1182.6</ele>
        <time>2026-08-18T09:01:02.000Z</time>
      </trkpt>
      <trkpt lat="45.38055" lon="4.60372">
        <ele>1182.9</ele>
        <time>2026-08-18T09:01:04.000Z</time>
      </trkpt>
      <trkpt lat="45.38055" lon="4.60372">
        <ele>1182.9</ele>
        <time>2026-08-18T09:01:05.000Z</time>
      </trkpt>
      <trkpt lat="45.38055" lon="4.60372">
        <ele>1182.9</ele>
        <time>2026-08-18T09:01:06.000Z</time>
      </trkpt>
      <trkpt lat="45.38055" lon="4.60372">
        <ele>1182.9</ele>
        <time>2026-08-18T09:01:07.000Z</time>
      </trkpt>
      <trkpt lat="45.38055" lon="4.60372">
        <ele>1182.9</ele>
        <time>2026-08-18T09:01:08.000Z</time>
      </trkpt>
      <trkpt lat="45.38055" lon="4.60372">
        <ele>1182.9</ele>
        <time>2026-08-18T09:01:10.000Z</time>
      </trkpt>
      <trkpt lat="45.38055" lon="4.60373">
        <ele>1182.9</ele>
        <time>2026-08-18T09:01:12.000Z</time>
      </trkpt>
      <trkpt lat="45.38055" lon="4.60373">
        <ele>1182.7</ele>
        <time>2026-08-18T09:01:13.000Z</time>
      </trkpt>
      <trkpt lat="45.38055" lon="4.60373">
        <ele>1182.7</ele>
        <time>2026-08-18T09:01:15.001Z</time>
      </trkpt>
      <trkpt lat="45.38057" lon="4.60375">
        <ele>1182.7</ele>
        <time>2026-08-18T09:01:16.999Z</time>
      </trkpt>
      <trkpt lat="45.38058" lon="4.60376">
        <ele>1182.5</ele>
        <time>2026-08-18T09:01:18.000Z</time>
      </trkpt>
      <trkpt lat="45.38059" lon="4.60377">
        <ele>1182.6</ele>
        <time>2026-08-18T09:01:19.000Z</time>
      </trkpt>
      <trkpt lat="45.3806" lon="4.60378">
        <ele>1182.6</ele>
        <time>2026-08-18T09:01:20.000Z</time>
      </trkpt>
      <trkpt lat="45.38062" lon="4.6038">
        <ele>1182.9</ele>
        <time>2026-08-18T09:01:22.000Z</time>
      </trkpt>
      <trkpt lat="45.38063" lon="4.60381">
        <ele>1183.4</ele>
        <time>2026-08-18T09:01:23.000Z</time>
      </trkpt>
      <trkpt lat="45.38064" lon="4.60381">
        <ele>1183.5</ele>
        <time>2026-08-18T09:01:24.014Z</time>
      </trkpt>
      <trkpt lat="45.38066" lon="4.60383">
        <ele>1183.7</ele>
        <time>2026-08-18T09:01:25.936Z</time>
      </trkpt>
      <trkpt lat="45.38067" lon="4.60384">
        <ele>1183.3</ele>
        <time>2026-08-18T09:01:27.000Z</time>
      </trkpt>
      <trkpt lat="45.38069" lon="4.60385">
        <ele>1183.9</ele>
        <time>2026-08-18T09:01:28.999Z</time>
      </trkpt>
      <trkpt lat="45.3807" lon="4.60386">
        <ele>1183.7</ele>
        <time>2026-08-18T09:01:30.000Z</time>
      </trkpt>
      <trkpt lat="45.38071" lon="4.60387">
        <ele>1183.1</ele>
        <time>2026-08-18T09:01:31.000Z</time>
      </trkpt>
      <trkpt lat="45.38072" lon="4.60388">
        <ele>1182.7</ele>
        <time>2026-08-18T09:01:32.001Z</time>
      </trkpt>
      <trkpt lat="45.38074" lon="4.60389">
        <ele>1182.4</ele>
        <time>2026-08-18T09:01:34.000Z</time>
      </trkpt>
      <trkpt lat="45.38075" lon="4.6039">
        <ele>1182.3</ele>
        <time>2026-08-18T09:01:35.000Z</time>
      </trkpt>
      <trkpt lat="45.38076" lon="4.6039">
        <ele>1182.3</ele>
        <time>2026-08-18T09:01:36.000Z</time>
      </trkpt>
      <trkpt lat="45.38077" lon="4.6039">
        <ele>1182.7</ele>
        <time>2026-08-18T09:01:37.000Z</time>
      </trkpt>
      <trkpt lat="45.38079" lon="4.60391">
        <ele>1182.8</ele>
        <time>2026-08-18T09:01:39.000Z</time>
      </trkpt>
      <trkpt lat="45.38082" lon="4.60392">
        <ele>1183</ele>
        <time>2026-08-18T09:01:40.998Z</time>
      </trkpt>
      <trkpt lat="45.38083" lon="4.60392">
        <ele>1183</ele>
        <time>2026-08-18T09:01:42.000Z</time>
      </trkpt>
      <trkpt lat="45.38084" lon="4.60392">
        <ele>1183</ele>
        <time>2026-08-18T09:01:43.000Z</time>
      </trkpt>
      <trkpt lat="45.38085" lon="4.60392">
        <ele>1183</ele>
        <time>2026-08-18T09:01:44.000Z</time>
      </trkpt>
      <trkpt lat="45.38087" lon="4.60393">
        <ele>1183</ele>
        <time>2026-08-18T09:01:46.000Z</time>
      </trkpt>
      <trkpt lat="45.38089" lon="4.60394">
        <ele>1183</ele>
        <time>2026-08-18T09:01:48.000Z</time>
      </trkpt>
      <trkpt lat="45.3809" lon="4.60395">
        <ele>1183</ele>
        <time>2026-08-18T09:01:49.000Z</time>
      </trkpt>
      <trkpt lat="45.38092" lon="4.60395">
        <ele>1183</ele>
        <time>2026-08-18T09:01:50.000Z</time>
      </trkpt>
      <trkpt lat="45.38093" lon="4.60395">
        <ele>1183</ele>
        <time>2026-08-18T09:01:51.000Z</time>
      </trkpt>
      <trkpt lat="45.38095" lon="4.60394">
        <ele>1183</ele>
        <time>2026-08-18T09:01:53.000Z</time>
      </trkpt>
      <trkpt lat="45.38097" lon="4.60394">
        <ele>1183</ele>
        <time>2026-08-18T09:01:54.005Z</time>
      </trkpt>
      <trkpt lat="45.38099" lon="4.60395">
        <ele>1183</ele>
        <time>2026-08-18T09:01:56.000Z</time>
      </trkpt>
      <trkpt lat="45.38101" lon="4.60395">
        <ele>1183</ele>
        <time>2026-08-18T09:01:58.000Z</time>
      </trkpt>
      <trkpt lat="45.38101" lon="4.60395">
        <ele>1183</ele>
        <time>2026-08-18T09:01:59.999Z</time>
      </trkpt>
      <trkpt lat="45.38101" lon="4.60394">
        <ele>1183</ele>
        <time>2026-08-18T09:02:01.000Z</time>
      </trkpt>
      <trkpt lat="45.381" lon="4.60395">
        <ele>1183</ele>
        <time>2026-08-18T09:02:02.000Z</time>
      </trkpt>
      <trkpt lat="45.38101" lon="4.60395">
        <ele>1183</ele>
        <time>2026-08-18T09:02:04.000Z</time>
      </trkpt>
      <trkpt lat="45.38101" lon="4.60396">
        <ele>1183</ele>
        <time>2026-08-18T09:02:05.000Z</time>
      </trkpt>
      <trkpt lat="45.38102" lon="4.60396">
        <ele>1183</ele>
        <time>2026-08-18T09:02:06.000Z</time>
      </trkpt>
      <trkpt lat="45.38103" lon="4.60397">
        <ele>1183</ele>
        <time>2026-08-18T09:02:07.000Z</time>
      </trkpt>
      <trkpt lat="45.38106" lon="4.60397">
        <ele>1183</ele>
        <time>2026-08-18T09:02:08.999Z</time>
      </trkpt>
      <trkpt lat="45.38107" lon="4.60397">
        <ele>1183</ele>
        <time>2026-08-18T09:02:09.999Z</time>
      </trkpt>
      <trkpt lat="45.38109" lon="4.60397">
        <ele>1183</ele>
        <time>2026-08-18T09:02:11.000Z</time>
      </trkpt>
      <trkpt lat="45.38111" lon="4.60398">
        <ele>1183</ele>
        <time>2026-08-18T09:02:12.999Z</time>
      </trkpt>
      <trkpt lat="45.38112" lon="4.60398">
        <ele>1183</ele>
        <time>2026-08-18T09:02:14.000Z</time>
      </trkpt>
      <trkpt lat="45.38111" lon="4.60398">
        <ele>1183</ele>
        <time>2026-08-18T09:02:16.000Z</time>
      </trkpt>
      <trkpt lat="45.38111" lon="4.60397">
        <ele>1183</ele>
        <time>2026-08-18T09:02:18.000Z</time>
      </trkpt>
      <trkpt lat="45.38111" lon="4.60397">
        <ele>1183</ele>
        <time>2026-08-18T09:02:19.000Z</time>
      </trkpt>
      <trkpt lat="45.38111" lon="4.60397">
        <ele>1183</ele>
        <time>2026-08-18T09:02:20.999Z</time>
      </trkpt>
      <trkpt lat="45.38112" lon="4.60397">
        <ele>1183</ele>
        <time>2026-08-18T09:02:21.999Z</time>
      </trkpt>
      <trkpt lat="45.38112" lon="4.60397">
        <ele>1183</ele>
        <time>2026-08-18T09:02:23.001Z</time>
      </trkpt>
      <trkpt lat="45.38114" lon="4.60398">
        <ele>1183</ele>
        <time>2026-08-18T09:02:24.999Z</time>
      </trkpt>
      <trkpt lat="45.38115" lon="4.60399">
        <ele>1183</ele>
        <time>2026-08-18T09:02:26.000Z</time>
      </trkpt>
      <trkpt lat="45.38116" lon="4.60399">
        <ele>1183</ele>
        <time>2026-08-18T09:02:27.000Z</time>
      </trkpt>
      <trkpt lat="45.38117" lon="4.60399">
        <ele>1183</ele>
        <time>2026-08-18T09:02:29.000Z</time>
      </trkpt>
      <trkpt lat="45.38117" lon="4.60399">
        <ele>1183</ele>
        <time>2026-08-18T09:02:30.000Z</time>
      </trkpt>
      <trkpt lat="45.38117" lon="4.60399">
        <ele>1183</ele>
        <time>2026-08-18T09:02:31.000Z</time>
      </trkpt>
      <trkpt lat="45.38117" lon="4.60399">
        <ele>1183</ele>
        <time>2026-08-18T09:02:32.000Z</time>
      </trkpt>
      <trkpt lat="45.38117" lon="4.60399">
        <ele>1183</ele>
        <time>2026-08-18T09:02:33.000Z</time>
      </trkpt>
      <trkpt lat="45.38117" lon="4.60399">
        <ele>1183</ele>
        <time>2026-08-18T09:02:34.999Z</time>
      </trkpt>
      <trkpt lat="45.38116" lon="4.60399">
        <ele>1183</ele>
        <time>2026-08-18T09:02:35.999Z</time>
      </trkpt>
      <trkpt lat="45.38116" lon="4.60399">
        <ele>1183</ele>
        <time>2026-08-18T09:02:38.000Z</time>
      </trkpt>
      <trkpt lat="45.38116" lon="4.60399">
        <ele>1183</ele>
        <time>2026-08-18T09:02:39.000Z</time>
      </trkpt>
      <trkpt lat="45.38116" lon="4.60399">
        <ele>1183</ele>
        <time>2026-08-18T09:02:40.003Z</time>
      </trkpt>
      <trkpt lat="45.38116" lon="4.60399">
        <ele>1183</ele>
        <time>2026-08-18T09:02:41.999Z</time>
      </trkpt>
      <trkpt lat="45.38116" lon="4.60399">
        <ele>1183</ele>
        <time>2026-08-18T09:02:43.001Z</time>
      </trkpt>
      <trkpt lat="45.38117" lon="4.604">
        <ele>1183</ele>
        <time>2026-08-18T09:02:44.999Z</time>
      </trkpt>
      <trkpt lat="45.38118" lon="4.604">
        <ele>1183</ele>
        <time>2026-08-18T09:02:46.000Z</time>
      </trkpt>
      <trkpt lat="45.3812" lon="4.60399">
        <ele>1183</ele>
        <time>2026-08-18T09:02:48.000Z</time>
      </trkpt>
      <trkpt lat="45.38121" lon="4.60399">
        <ele>1183</ele>
        <time>2026-08-18T09:02:49.000Z</time>
      </trkpt>
      <trkpt lat="45.38123" lon="4.60399">
        <ele>1183</ele>
        <time>2026-08-18T09:02:50.019Z</time>
      </trkpt>
      <trkpt lat="45.38125" lon="4.604">
        <ele>1183</ele>
        <time>2026-08-18T09:02:51.999Z</time>
      </trkpt>
      <trkpt lat="45.38128" lon="4.604">
        <ele>1183</ele>
        <time>2026-08-18T09:02:53.999Z</time>
      </trkpt>
      <trkpt lat="45.38129" lon="4.60401">
        <ele>1183</ele>
        <time>2026-08-18T09:02:55.000Z</time>
      </trkpt>
      <trkpt lat="45.3813" lon="4.60401">
        <ele>1183</ele>
        <time>2026-08-18T09:02:56.000Z</time>
      </trkpt>
      <trkpt lat="45.38131" lon="4.60401">
        <ele>1183</ele>
        <time>2026-08-18T09:02:57.000Z</time>
      </trkpt>
      <trkpt lat="45.38132" lon="4.60401">
        <ele>1183</ele>
        <time>2026-08-18T09:02:58.000Z</time>
      </trkpt>
      <trkpt lat="45.38135" lon="4.60402">
        <ele>1183</ele>
        <time>2026-08-18T09:03:00.000Z</time>
      </trkpt>
      <trkpt lat="45.38136" lon="4.60402">
        <ele>1183</ele>
        <time>2026-08-18T09:03:01.000Z</time>
      </trkpt>
      <trkpt lat="45.38137" lon="4.60402">
        <ele>1183</ele>
        <time>2026-08-18T09:03:02.000Z</time>
      </trkpt>
      <trkpt lat="45.38138" lon="4.60402">
        <ele>1183</ele>
        <time>2026-08-18T09:03:03.000Z</time>
      </trkpt>
      <trkpt lat="45.3814" lon="4.60402">
        <ele>1183</ele>
        <time>2026-08-18T09:03:04.999Z</time>
      </trkpt>
      <trkpt lat="45.38142" lon="4.60401">
        <ele>1183</ele>
        <time>2026-08-18T09:03:05.999Z</time>
      </trkpt>
      <trkpt lat="45.38143" lon="4.60401">
        <ele>1183</ele>
        <time>2026-08-18T09:03:07.000Z</time>
      </trkpt>
      <trkpt lat="45.38145" lon="4.60401">
        <ele>1183</ele>
        <time>2026-08-18T09:03:09.017Z</time>
      </trkpt>
      <trkpt lat="45.38148" lon="4.60401">
        <ele>1183</ele>
        <time>2026-08-18T09:03:11.000Z</time>
      </trkpt>
      <trkpt lat="45.3815" lon="4.60402">
        <ele>1183</ele>
        <time>2026-08-18T09:03:12.998Z</time>
      </trkpt>
      <trkpt lat="45.38151" lon="4.60403">
        <ele>1183</ele>
        <time>2026-08-18T09:03:14.000Z</time>
      </trkpt>
      <trkpt lat="45.38152" lon="4.60403">
        <ele>1183</ele>
        <time>2026-08-18T09:03:15.000Z</time>
      </trkpt>
      <trkpt lat="45.38155" lon="4.60404">
        <ele>1183</ele>
        <time>2026-08-18T09:03:17.000Z</time>
      </trkpt>
      <trkpt lat="45.38156" lon="4.60404">
        <ele>1183</ele>
        <time>2026-08-18T09:03:18.001Z</time>
      </trkpt>
      <trkpt lat="45.38159" lon="4.60404">
        <ele>1183</ele>
        <time>2026-08-18T09:03:19.999Z</time>
      </trkpt>
      <trkpt lat="45.3816" lon="4.60404">
        <ele>1183</ele>
        <time>2026-08-18T09:03:20.999Z</time>
      </trkpt>
      <trkpt lat="45.38162" lon="4.60404">
        <ele>1183</ele>
        <time>2026-08-18T09:03:22.000Z</time>
      </trkpt>
      <trkpt lat="45.38164" lon="4.60403">
        <ele>1183</ele>
        <time>2026-08-18T09:03:23.000Z</time>
      </trkpt>
      <trkpt lat="45.38166" lon="4.60404">
        <ele>1180.9</ele>
        <time>2026-08-18T09:03:24.926Z</time>
      </trkpt>
      <trkpt lat="45.38168" lon="4.60404">
        <ele>1181.1</ele>
        <time>2026-08-18T09:03:25.999Z</time>
      </trkpt>
      <trkpt lat="45.38169" lon="4.60404">
        <ele>1181.2</ele>
        <time>2026-08-18T09:03:27.000Z</time>
      </trkpt>
      <trkpt lat="45.3817" lon="4.60405">
        <ele>1181.8</ele>
        <time>2026-08-18T09:03:28.000Z</time>
      </trkpt>
      <trkpt lat="45.38172" lon="4.60405">
        <ele>1182</ele>
        <time>2026-08-18T09:03:29.999Z</time>
      </trkpt>
      <trkpt lat="45.38173" lon="4.60405">
        <ele>1182.2</ele>
        <time>2026-08-18T09:03:31.009Z</time>
      </trkpt>
      <trkpt lat="45.38174" lon="4.60405">
        <ele>1182.2</ele>
        <time>2026-08-18T09:03:32.019Z</time>
      </trkpt>
      <trkpt lat="45.38176" lon="4.60406">
        <ele>1181.1</ele>
        <time>2026-08-18T09:03:34.024Z</time>
      </trkpt>
      <trkpt lat="45.38178" lon="4.60406">
        <ele>1180.5</ele>
        <time>2026-08-18T09:03:36.000Z</time>
      </trkpt>
      <trkpt lat="45.38179" lon="4.60407">
        <ele>1180.5</ele>
        <time>2026-08-18T09:03:37.000Z</time>
      </trkpt>
      <trkpt lat="45.38182" lon="4.60408">
        <ele>1180.9</ele>
        <time>2026-08-18T09:03:39.000Z</time>
      </trkpt>
      <trkpt lat="45.38182" lon="4.60408">
        <ele>1180.7</ele>
        <time>2026-08-18T09:03:40.000Z</time>
      </trkpt>
      <trkpt lat="45.38184" lon="4.60408">
        <ele>1180.6</ele>
        <time>2026-08-18T09:03:41.000Z</time>
      </trkpt>
      <trkpt lat="45.38185" lon="4.60408">
        <ele>1181.2</ele>
        <time>2026-08-18T09:03:42.000Z</time>
      </trkpt>
      <trkpt lat="45.38187" lon="4.60408">
        <ele>1180.8</ele>
        <time>2026-08-18T09:03:43.905Z</time>
      </trkpt>
      <trkpt lat="45.38188" lon="4.60409">
        <ele>1180.6</ele>
        <time>2026-08-18T09:03:44.999Z</time>
      </trkpt>
      <trkpt lat="45.3819" lon="4.60409">
        <ele>1180.6</ele>
        <time>2026-08-18T09:03:46.000Z</time>
      </trkpt>
      <trkpt lat="45.38191" lon="4.6041">
        <ele>1180.6</ele>
        <time>2026-08-18T09:03:47.000Z</time>
      </trkpt>
      <trkpt lat="45.38192" lon="4.6041">
        <ele>1180</ele>
        <time>2026-08-18T09:03:48.010Z</time>
      </trkpt>
      <trkpt lat="45.38194" lon="4.60411">
        <ele>1179.6</ele>
        <time>2026-08-18T09:03:50.000Z</time>
      </trkpt>
      <trkpt lat="45.38196" lon="4.60411">
        <ele>1179.7</ele>
        <time>2026-08-18T09:03:51.000Z</time>
      </trkpt>
      <trkpt lat="45.38197" lon="4.60412">
        <ele>1179.5</ele>
        <time>2026-08-18T09:03:52.003Z</time>
      </trkpt>
      <trkpt lat="45.38199" lon="4.60413">
        <ele>1179.1</ele>
        <time>2026-08-18T09:03:53.998Z</time>
      </trkpt>
      <trkpt lat="45.382" lon="4.60413">
        <ele>1179.3</ele>
        <time>2026-08-18T09:03:55.000Z</time>
      </trkpt>
      <trkpt lat="45.38202" lon="4.60415">
        <ele>1178.9</ele>
        <time>2026-08-18T09:03:56.960Z</time>
      </trkpt>
      <trkpt lat="45.38203" lon="4.60416">
        <ele>1178.7</ele>
        <time>2026-08-18T09:03:58.000Z</time>
      </trkpt>
      <trkpt lat="45.38205" lon="4.60417">
        <ele>1178.5</ele>
        <time>2026-08-18T09:04:00.000Z</time>
      </trkpt>
      <trkpt lat="45.38206" lon="4.60419">
        <ele>1178.8</ele>
        <time>2026-08-18T09:04:01.000Z</time>
      </trkpt>
      <trkpt lat="45.38208" lon="4.6042">
        <ele>1179.2</ele>
        <time>2026-08-18T09:04:02.000Z</time>
      </trkpt>
      <trkpt lat="45.38209" lon="4.60421">
        <ele>1179.2</ele>
        <time>2026-08-18T09:04:03.000Z</time>
      </trkpt>
      <trkpt lat="45.3821" lon="4.60423">
        <ele>1179.6</ele>
        <time>2026-08-18T09:04:05.011Z</time>
      </trkpt>
      <trkpt lat="45.38212" lon="4.60426">
        <ele>1179.6</ele>
        <time>2026-08-18T09:04:06.999Z</time>
      </trkpt>
      <trkpt lat="45.38213" lon="4.60427">
        <ele>1179.3</ele>
        <time>2026-08-18T09:04:08.000Z</time>
      </trkpt>
      <trkpt lat="45.38213" lon="4.60431">
        <ele>1179</ele>
        <time>2026-08-18T09:04:10.000Z</time>
      </trkpt>
      <trkpt lat="45.38214" lon="4.60432">
        <ele>1178.9</ele>
        <time>2026-08-18T09:04:11.000Z</time>
      </trkpt>
      <trkpt lat="45.38214" lon="4.60434">
        <ele>1179.2</ele>
        <time>2026-08-18T09:04:12.000Z</time>
      </trkpt>
      <trkpt lat="45.38214" lon="4.60438">
        <ele>1179.3</ele>
        <time>2026-08-18T09:04:14.000Z</time>
      </trkpt>
      <trkpt lat="45.38215" lon="4.6044">
        <ele>1179.4</ele>
        <time>2026-08-18T09:04:15.000Z</time>
      </trkpt>
      <trkpt lat="45.38215" lon="4.60443">
        <ele>1179.3</ele>
        <time>2026-08-18T09:04:16.999Z</time>
      </trkpt>
      <trkpt lat="45.38215" lon="4.60445">
        <ele>1179.5</ele>
        <time>2026-08-18T09:04:17.999Z</time>
      </trkpt>
      <trkpt lat="45.38214" lon="4.60449">
        <ele>1179.2</ele>
        <time>2026-08-18T09:04:19.999Z</time>
      </trkpt>
      <trkpt lat="45.38214" lon="4.60451">
        <ele>1179.2</ele>
        <time>2026-08-18T09:04:21.000Z</time>
      </trkpt>
      <trkpt lat="45.38214" lon="4.60452">
        <ele>1179.2</ele>
        <time>2026-08-18T09:04:22.005Z</time>
      </trkpt>
      <trkpt lat="45.38214" lon="4.60456">
        <ele>1179.4</ele>
        <time>2026-08-18T09:04:24.000Z</time>
      </trkpt>
      <trkpt lat="45.38214" lon="4.60457">
        <ele>1179.4</ele>
        <time>2026-08-18T09:04:25.000Z</time>
      </trkpt>
      <trkpt lat="45.38214" lon="4.60459">
        <ele>1179.6</ele>
        <time>2026-08-18T09:04:26.005Z</time>
      </trkpt>
      <trkpt lat="45.38213" lon="4.60463">
        <ele>1180.2</ele>
        <time>2026-08-18T09:04:28.000Z</time>
      </trkpt>
      <trkpt lat="45.38213" lon="4.60467">
        <ele>1179.9</ele>
        <time>2026-08-18T09:04:30.021Z</time>
      </trkpt>
      <trkpt lat="45.38214" lon="4.60472">
        <ele>1178.7</ele>
        <time>2026-08-18T09:04:31.978Z</time>
      </trkpt>
      <trkpt lat="45.38215" lon="4.60474">
        <ele>1179.4</ele>
        <time>2026-08-18T09:04:33.000Z</time>
      </trkpt>
      <trkpt lat="45.38215" lon="4.60476">
        <ele>1179.4</ele>
        <time>2026-08-18T09:04:34.000Z</time>
      </trkpt>
      <trkpt lat="45.38215" lon="4.60478">
        <ele>1179.1</ele>
        <time>2026-08-18T09:04:35.000Z</time>
      </trkpt>
      <trkpt lat="45.38215" lon="4.6048">
        <ele>1178.8</ele>
        <time>2026-08-18T09:04:36.000Z</time>
      </trkpt>
      <trkpt lat="45.38215" lon="4.60481">
        <ele>1178.8</ele>
        <time>2026-08-18T09:04:37.019Z</time>
      </trkpt>
      <trkpt lat="45.38214" lon="4.60484">
        <ele>1178.7</ele>
        <time>2026-08-18T09:04:39.000Z</time>
      </trkpt>
      <trkpt lat="45.38214" lon="4.60487">
        <ele>1178.4</ele>
        <time>2026-08-18T09:04:40.999Z</time>
      </trkpt>
      <trkpt lat="45.38214" lon="4.60489">
        <ele>1178.1</ele>
        <time>2026-08-18T09:04:41.999Z</time>
      </trkpt>
      <trkpt lat="45.38214" lon="4.60491">
        <ele>1178.1</ele>
        <time>2026-08-18T09:04:43.006Z</time>
      </trkpt>
      <trkpt lat="45.38213" lon="4.60494">
        <ele>1178.5</ele>
        <time>2026-08-18T09:04:45.000Z</time>
      </trkpt>
      <trkpt lat="45.38213" lon="4.60497">
        <ele>1178.5</ele>
        <time>2026-08-18T09:04:47.000Z</time>
      </trkpt>
      <trkpt lat="45.38213" lon="4.60501">
        <ele>1178.1</ele>
        <time>2026-08-18T09:04:48.999Z</time>
      </trkpt>
      <trkpt lat="45.38212" lon="4.60502">
        <ele>1178.2</ele>
        <time>2026-08-18T09:04:49.999Z</time>
      </trkpt>
      <trkpt lat="45.38212" lon="4.60505">
        <ele>1178.9</ele>
        <time>2026-08-18T09:04:51.999Z</time>
      </trkpt>
      <trkpt lat="45.38212" lon="4.60507">
        <ele>1178.6</ele>
        <time>2026-08-18T09:04:53.000Z</time>
      </trkpt>
      <trkpt lat="45.38213" lon="4.6051">
        <ele>1178.3</ele>
        <time>2026-08-18T09:04:55.000Z</time>
      </trkpt>
      <trkpt lat="45.38213" lon="4.60513">
        <ele>1178.6</ele>
        <time>2026-08-18T09:04:57.000Z</time>
      </trkpt>
      <trkpt lat="45.38212" lon="4.60515">
        <ele>1179</ele>
        <time>2026-08-18T09:04:58.000Z</time>
      </trkpt>
      <trkpt lat="45.38212" lon="4.60517">
        <ele>1178.9</ele>
        <time>2026-08-18T09:04:59.000Z</time>
      </trkpt>
      <trkpt lat="45.38212" lon="4.60518">
        <ele>1179.6</ele>
        <time>2026-08-18T09:05:00.000Z</time>
      </trkpt>
      <trkpt lat="45.38212" lon="4.60519">
        <ele>1179.7</ele>
        <time>2026-08-18T09:05:01.000Z</time>
      </trkpt>
      <trkpt lat="45.38211" lon="4.60523">
        <ele>1180.5</ele>
        <time>2026-08-18T09:05:03.000Z</time>
      </trkpt>
      <trkpt lat="45.38211" lon="4.60524">
        <ele>1180.5</ele>
        <time>2026-08-18T09:05:04.022Z</time>
      </trkpt>
      <trkpt lat="45.38212" lon="4.60526">
        <ele>1178.2</ele>
        <time>2026-08-18T09:05:06.000Z</time>
      </trkpt>
      <trkpt lat="45.38213" lon="4.60526">
        <ele>1177.7</ele>
        <time>2026-08-18T09:05:07.000Z</time>
      </trkpt>
      <trkpt lat="45.38213" lon="4.60526">
        <ele>1178</ele>
        <time>2026-08-18T09:05:08.000Z</time>
      </trkpt>
      <trkpt lat="45.38213" lon="4.60526">
        <ele>1178</ele>
        <time>2026-08-18T09:05:09.000Z</time>
      </trkpt>
      <trkpt lat="45.38213" lon="4.60527">
        <ele>1183</ele>
        <time>2026-08-18T09:05:10.000Z</time>
      </trkpt>
      <trkpt lat="45.38213" lon="4.60528">
        <ele>1183</ele>
        <time>2026-08-18T09:05:11.999Z</time>
      </trkpt>
      <trkpt lat="45.38213" lon="4.60529">
        <ele>1183</ele>
        <time>2026-08-18T09:05:13.014Z</time>
      </trkpt>
      <trkpt lat="45.38212" lon="4.60532">
        <ele>1183</ele>
        <time>2026-08-18T09:05:14.999Z</time>
      </trkpt>
      <trkpt lat="45.38212" lon="4.60534">
        <ele>1183</ele>
        <time>2026-08-18T09:05:16.000Z</time>
      </trkpt>
      <trkpt lat="45.38212" lon="4.60535">
        <ele>1183</ele>
        <time>2026-08-18T09:05:17.008Z</time>
      </trkpt>
      <trkpt lat="45.38212" lon="4.60538">
        <ele>1183</ele>
        <time>2026-08-18T09:05:18.999Z</time>
      </trkpt>
      <trkpt lat="45.38212" lon="4.60537">
        <ele>1183</ele>
        <time>2026-08-18T09:05:19.999Z</time>
      </trkpt>
      <trkpt lat="45.38212" lon="4.60537">
        <ele>1183</ele>
        <time>2026-08-18T09:05:21.001Z</time>
      </trkpt>
      <trkpt lat="45.38212" lon="4.60537">
        <ele>1183</ele>
        <time>2026-08-18T09:05:22.999Z</time>
      </trkpt>
      <trkpt lat="45.38212" lon="4.60537">
        <ele>1183</ele>
        <time>2026-08-18T09:05:24.000Z</time>
      </trkpt>
      <trkpt lat="45.38212" lon="4.60538">
        <ele>1183</ele>
        <time>2026-08-18T09:05:25.999Z</time>
      </trkpt>
      <trkpt lat="45.38212" lon="4.6054">
        <ele>1183</ele>
        <time>2026-08-18T09:05:28.000Z</time>
      </trkpt>
      <trkpt lat="45.38212" lon="4.60543">
        <ele>1183</ele>
        <time>2026-08-18T09:05:30.000Z</time>
      </trkpt>
      <trkpt lat="45.38213" lon="4.60545">
        <ele>1183</ele>
        <time>2026-08-18T09:05:31.000Z</time>
      </trkpt>
      <trkpt lat="45.38212" lon="4.60548">
        <ele>1183</ele>
        <time>2026-08-18T09:05:32.999Z</time>
      </trkpt>
      <trkpt lat="45.38212" lon="4.60549">
        <ele>1183</ele>
        <time>2026-08-18T09:05:34.008Z</time>
      </trkpt>
      <trkpt lat="45.38212" lon="4.60551">
        <ele>1183</ele>
        <time>2026-08-18T09:05:36.000Z</time>
      </trkpt>
      <trkpt lat="45.38212" lon="4.6055">
        <ele>1183</ele>
        <time>2026-08-18T09:05:37.000Z</time>
      </trkpt>
      <trkpt lat="45.38213" lon="4.6055">
        <ele>1183</ele>
        <time>2026-08-18T09:05:38.003Z</time>
      </trkpt>
      <trkpt lat="45.38212" lon="4.6055">
        <ele>1183</ele>
        <time>2026-08-18T09:05:39.999Z</time>
      </trkpt>
      <trkpt lat="45.38212" lon="4.60552">
        <ele>1183</ele>
        <time>2026-08-18T09:05:41.000Z</time>
      </trkpt>
      <trkpt lat="45.38212" lon="4.60555">
        <ele>1183</ele>
        <time>2026-08-18T09:05:42.999Z</time>
      </trkpt>
      <trkpt lat="45.38212" lon="4.60557">
        <ele>1183</ele>
        <time>2026-08-18T09:05:43.999Z</time>
      </trkpt>
      <trkpt lat="45.38213" lon="4.60559">
        <ele>1183</ele>
        <time>2026-08-18T09:05:45.000Z</time>
      </trkpt>
      <trkpt lat="45.38213" lon="4.60561">
        <ele>1183</ele>
        <time>2026-08-18T09:05:46.000Z</time>
      </trkpt>
      <trkpt lat="45.38214" lon="4.60565">
        <ele>1183</ele>
        <time>2026-08-18T09:05:48.000Z</time>
      </trkpt>
      <trkpt lat="45.38215" lon="4.60569">
        <ele>1183</ele>
        <time>2026-08-18T09:05:50.000Z</time>
      </trkpt>
      <trkpt lat="45.38216" lon="4.6057">
        <ele>1183</ele>
        <time>2026-08-18T09:05:51.011Z</time>
      </trkpt>
      <trkpt lat="45.38217" lon="4.60573">
        <ele>1183</ele>
        <time>2026-08-18T09:05:52.999Z</time>
      </trkpt>
      <trkpt lat="45.38217" lon="4.60573">
        <ele>1183</ele>
        <time>2026-08-18T09:05:54.000Z</time>
      </trkpt>
      <trkpt lat="45.38217" lon="4.60573">
        <ele>1183</ele>
        <time>2026-08-18T09:05:55.004Z</time>
      </trkpt>
      <trkpt lat="45.38216" lon="4.60573">
        <ele>1183</ele>
        <time>2026-08-18T09:05:57.000Z</time>
      </trkpt>
      <trkpt lat="45.38216" lon="4.60573">
        <ele>1183</ele>
        <time>2026-08-18T09:05:58.000Z</time>
      </trkpt>
      <trkpt lat="45.38215" lon="4.60573">
        <ele>1183</ele>
        <time>2026-08-18T09:06:00.000Z</time>
      </trkpt>
      <trkpt lat="45.38215" lon="4.60573">
        <ele>1183</ele>
        <time>2026-08-18T09:06:01.999Z</time>
      </trkpt>
      <trkpt lat="45.38215" lon="4.60573">
        <ele>1183</ele>
        <time>2026-08-18T09:06:02.999Z</time>
      </trkpt>
      <trkpt lat="45.38215" lon="4.60573">
        <ele>1183</ele>
        <time>2026-08-18T09:06:04.000Z</time>
      </trkpt>
      <trkpt lat="45.38215" lon="4.60573">
        <ele>1183</ele>
        <time>2026-08-18T09:06:05.000Z</time>
      </trkpt>
      <trkpt lat="45.38215" lon="4.60573">
        <ele>1183</ele>
        <time>2026-08-18T09:06:06.000Z</time>
      </trkpt>
      <trkpt lat="45.38215" lon="4.60573">
        <ele>1183</ele>
        <time>2026-08-18T09:06:07.000Z</time>
      </trkpt>
      <trkpt lat="45.38215" lon="4.60573">
        <ele>1183</ele>
        <time>2026-08-18T09:06:08.011Z</time>
      </trkpt>
      <trkpt lat="45.38215" lon="4.60572">
        <ele>1183</ele>
        <time>2026-08-18T09:06:10.000Z</time>
      </trkpt>
      <trkpt lat="45.38215" lon="4.60572">
        <ele>1183</ele>
        <time>2026-08-18T09:06:12.005Z</time>
      </trkpt>
      <trkpt lat="45.38215" lon="4.60572">
        <ele>1183</ele>
        <time>2026-08-18T09:06:13.945Z</time>
      </trkpt>
      <trkpt lat="45.38214" lon="4.60572">
        <ele>1183</ele>
        <time>2026-08-18T09:06:16.000Z</time>
      </trkpt>
      <trkpt lat="45.38214" lon="4.60574">
        <ele>1183</ele>
        <time>2026-08-18T09:06:17.000Z</time>
      </trkpt>
      <trkpt lat="45.38214" lon="4.60576">
        <ele>1183</ele>
        <time>2026-08-18T09:06:18.000Z</time>
      </trkpt>
      <trkpt lat="45.38213" lon="4.60578">
        <ele>1183</ele>
        <time>2026-08-18T09:06:19.000Z</time>
      </trkpt>
      <trkpt lat="45.38213" lon="4.6058">
        <ele>1183</ele>
        <time>2026-08-18T09:06:20.000Z</time>
      </trkpt>
      <trkpt lat="45.38213" lon="4.60585">
        <ele>1183</ele>
        <time>2026-08-18T09:06:21.999Z</time>
      </trkpt>
      <trkpt lat="45.38214" lon="4.60587">
        <ele>1183</ele>
        <time>2026-08-18T09:06:23.000Z</time>
      </trkpt>
      <trkpt lat="45.38214" lon="4.60589">
        <ele>1183</ele>
        <time>2026-08-18T09:06:24.000Z</time>
      </trkpt>
      <trkpt lat="45.38214" lon="4.60592">
        <ele>1183</ele>
        <time>2026-08-18T09:06:25.999Z</time>
      </trkpt>
      <trkpt lat="45.38213" lon="4.60593">
        <ele>1183</ele>
        <time>2026-08-18T09:06:26.999Z</time>
      </trkpt>
      <trkpt lat="45.38213" lon="4.60594">
        <ele>1183</ele>
        <time>2026-08-18T09:06:27.999Z</time>
      </trkpt>
      <trkpt lat="45.38212" lon="4.60595">
        <ele>1183</ele>
        <time>2026-08-18T09:06:29.000Z</time>
      </trkpt>
      <trkpt lat="45.38211" lon="4.60598">
        <ele>1183</ele>
        <time>2026-08-18T09:06:30.939Z</time>
      </trkpt>
      <trkpt lat="45.3821" lon="4.60598">
        <ele>1183</ele>
        <time>2026-08-18T09:06:32.000Z</time>
      </trkpt>
      <trkpt lat="45.3821" lon="4.60598">
        <ele>1183</ele>
        <time>2026-08-18T09:06:33.000Z</time>
      </trkpt>
      <trkpt lat="45.38209" lon="4.60598">
        <ele>1183</ele>
        <time>2026-08-18T09:06:34.019Z</time>
      </trkpt>
      <trkpt lat="45.38208" lon="4.60598">
        <ele>1183</ele>
        <time>2026-08-18T09:06:35.903Z</time>
      </trkpt>
      <trkpt lat="45.38208" lon="4.60599">
        <ele>1183</ele>
        <time>2026-08-18T09:06:36.998Z</time>
      </trkpt>
      <trkpt lat="45.38208" lon="4.606">
        <ele>1183</ele>
        <time>2026-08-18T09:06:38.021Z</time>
      </trkpt>
      <trkpt lat="45.38208" lon="4.60599">
        <ele>1183</ele>
        <time>2026-08-18T09:06:40.000Z</time>
      </trkpt>
      <trkpt lat="45.38207" lon="4.60601">
        <ele>1183</ele>
        <time>2026-08-18T09:06:42.014Z</time>
      </trkpt>
      <trkpt lat="45.38207" lon="4.60604">
        <ele>1183</ele>
        <time>2026-08-18T09:06:43.999Z</time>
      </trkpt>
      <trkpt lat="45.38207" lon="4.60606">
        <ele>1183</ele>
        <time>2026-08-18T09:06:45.000Z</time>
      </trkpt>
      <trkpt lat="45.38207" lon="4.60607">
        <ele>1183</ele>
        <time>2026-08-18T09:06:46.008Z</time>
      </trkpt>
      <trkpt lat="45.38208" lon="4.6061">
        <ele>1183</ele>
        <time>2026-08-18T09:06:48.000Z</time>
      </trkpt>
      <trkpt lat="45.38208" lon="4.60611">
        <ele>1183</ele>
        <time>2026-08-18T09:06:49.000Z</time>
      </trkpt>
      <trkpt lat="45.38208" lon="4.60613">
        <ele>1183</ele>
        <time>2026-08-18T09:06:50.999Z</time>
      </trkpt>
      <trkpt lat="45.38208" lon="4.60614">
        <ele>1183</ele>
        <time>2026-08-18T09:06:52.000Z</time>
      </trkpt>
      <trkpt lat="45.38208" lon="4.60614">
        <ele>1183</ele>
        <time>2026-08-18T09:06:53.000Z</time>
      </trkpt>
      <trkpt lat="45.38208" lon="4.60615">
        <ele>1183</ele>
        <time>2026-08-18T09:06:54.017Z</time>
      </trkpt>
      <trkpt lat="45.38208" lon="4.60616">
        <ele>1183</ele>
        <time>2026-08-18T09:06:56.000Z</time>
      </trkpt>
      <trkpt lat="45.38208" lon="4.60617">
        <ele>1183</ele>
        <time>2026-08-18T09:06:57.000Z</time>
      </trkpt>
      <trkpt lat="45.38208" lon="4.60617">
        <ele>1183</ele>
        <time>2026-08-18T09:06:58.000Z</time>
      </trkpt>
      <trkpt lat="45.38208" lon="4.60619">
        <ele>1183</ele>
        <time>2026-08-18T09:06:59.903Z</time>
      </trkpt>
      <trkpt lat="45.38208" lon="4.60619">
        <ele>1183</ele>
        <time>2026-08-18T09:07:01.000Z</time>
      </trkpt>
      <trkpt lat="45.38208" lon="4.6062">
        <ele>1183</ele>
        <time>2026-08-18T09:07:03.010Z</time>
      </trkpt>
      <trkpt lat="45.38208" lon="4.60619">
        <ele>1183</ele>
        <time>2026-08-18T09:07:04.999Z</time>
      </trkpt>
      <trkpt lat="45.38208" lon="4.60619">
        <ele>1183</ele>
        <time>2026-08-18T09:07:05.999Z</time>
      </trkpt>
      <trkpt lat="45.38208" lon="4.60619">
        <ele>1183</ele>
        <time>2026-08-18T09:07:07.002Z</time>
      </trkpt>
      <trkpt lat="45.38208" lon="4.60619">
        <ele>1183</ele>
        <time>2026-08-18T09:07:08.999Z</time>
      </trkpt>
      <trkpt lat="45.38208" lon="4.60619">
        <ele>1183</ele>
        <time>2026-08-18T09:07:09.999Z</time>
      </trkpt>
      <trkpt lat="45.38208" lon="4.60619">
        <ele>1183</ele>
        <time>2026-08-18T09:07:10.999Z</time>
      </trkpt>
      <trkpt lat="45.38208" lon="4.60619">
        <ele>1183</ele>
        <time>2026-08-18T09:07:12.017Z</time>
      </trkpt>
      <trkpt lat="45.38208" lon="4.60621">
        <ele>1183</ele>
        <time>2026-08-18T09:07:13.999Z</time>
      </trkpt>
      <trkpt lat="45.38208" lon="4.60625">
        <ele>1183</ele>
        <time>2026-08-18T09:07:16.016Z</time>
      </trkpt>
      <trkpt lat="45.38209" lon="4.60627">
        <ele>1183</ele>
        <time>2026-08-18T09:07:17.999Z</time>
      </trkpt>
      <trkpt lat="45.38209" lon="4.60628">
        <ele>1183</ele>
        <time>2026-08-18T09:07:18.999Z</time>
      </trkpt>
      <trkpt lat="45.38209" lon="4.6063">
        <ele>1183</ele>
        <time>2026-08-18T09:07:20.010Z</time>
      </trkpt>
      <trkpt lat="45.3821" lon="4.60632">
        <ele>1183</ele>
        <time>2026-08-18T09:07:21.906Z</time>
      </trkpt>
      <trkpt lat="45.3821" lon="4.60633">
        <ele>1183</ele>
        <time>2026-08-18T09:07:22.999Z</time>
      </trkpt>
      <trkpt lat="45.38211" lon="4.60635">
        <ele>1183</ele>
        <time>2026-08-18T09:07:23.999Z</time>
      </trkpt>
      <trkpt lat="45.38211" lon="4.60637">
        <ele>1183</ele>
        <time>2026-08-18T09:07:26.171Z</time>
      </trkpt>
      <trkpt lat="45.38211" lon="4.60638">
        <ele>1183</ele>
        <time>2026-08-18T09:07:27.259Z</time>
      </trkpt>
      <trkpt lat="45.38212" lon="4.6064">
        <ele>1183</ele>
        <time>2026-08-18T09:07:28.656Z</time>
      </trkpt>
      <trkpt lat="45.38212" lon="4.60641">
        <ele>1183</ele>
        <time>2026-08-18T09:07:29.999Z</time>
      </trkpt>
      <trkpt lat="45.38213" lon="4.60644">
        <ele>1183</ele>
        <time>2026-08-18T09:07:31.999Z</time>
      </trkpt>
      <trkpt lat="45.38213" lon="4.60645">
        <ele>1183</ele>
        <time>2026-08-18T09:07:33.021Z</time>
      </trkpt>
      <trkpt lat="45.38214" lon="4.60646">
        <ele>1183</ele>
        <time>2026-08-18T09:07:34.998Z</time>
      </trkpt>
      <trkpt lat="45.38214" lon="4.60647">
        <ele>1183</ele>
        <time>2026-08-18T09:07:35.998Z</time>
      </trkpt>
      <trkpt lat="45.38214" lon="4.60648">
        <ele>1183</ele>
        <time>2026-08-18T09:07:36.999Z</time>
      </trkpt>
      <trkpt lat="45.38215" lon="4.60651">
        <ele>1183</ele>
        <time>2026-08-18T09:07:38.998Z</time>
      </trkpt>
      <trkpt lat="45.38215" lon="4.60654">
        <ele>1189.1</ele>
        <time>2026-08-18T09:07:40.999Z</time>
      </trkpt>
      <trkpt lat="45.38215" lon="4.60656">
        <ele>1189.1</ele>
        <time>2026-08-18T09:07:41.999Z</time>
      </trkpt>
      <trkpt lat="45.38215" lon="4.60658">
        <ele>1189.5</ele>
        <time>2026-08-18T09:07:43.999Z</time>
      </trkpt>
      <trkpt lat="45.38215" lon="4.60659">
        <ele>1189.3</ele>
        <time>2026-08-18T09:07:44.999Z</time>
      </trkpt>
      <trkpt lat="45.38215" lon="4.60659">
        <ele>1189.3</ele>
        <time>2026-08-18T09:07:45.999Z</time>
      </trkpt>
      <trkpt lat="45.38215" lon="4.60659">
        <ele>1189.4</ele>
        <time>2026-08-18T09:07:46.999Z</time>
      </trkpt>
      <trkpt lat="45.38215" lon="4.6066">
        <ele>1189.6</ele>
        <time>2026-08-18T09:07:48.900Z</time>
      </trkpt>
      <trkpt lat="45.38215" lon="4.60661">
        <ele>1189.1</ele>
        <time>2026-08-18T09:07:49.999Z</time>
      </trkpt>
      <trkpt lat="45.38215" lon="4.60662">
        <ele>1188.5</ele>
        <time>2026-08-18T09:07:50.999Z</time>
      </trkpt>
      <trkpt lat="45.38215" lon="4.60663">
        <ele>1188.3</ele>
        <time>2026-08-18T09:07:51.999Z</time>
      </trkpt>
      <trkpt lat="45.38216" lon="4.60665">
        <ele>1188.6</ele>
        <time>2026-08-18T09:07:53.998Z</time>
      </trkpt>
      <trkpt lat="45.38217" lon="4.60666">
        <ele>1188.1</ele>
        <time>2026-08-18T09:07:54.999Z</time>
      </trkpt>
      <trkpt lat="45.38217" lon="4.60667">
        <ele>1188.1</ele>
        <time>2026-08-18T09:07:56.003Z</time>
      </trkpt>
      <trkpt lat="45.38218" lon="4.60669">
        <ele>1187.8</ele>
        <time>2026-08-18T09:07:57.999Z</time>
      </trkpt>
      <trkpt lat="45.38218" lon="4.6067">
        <ele>1188.1</ele>
        <time>2026-08-18T09:07:58.999Z</time>
      </trkpt>
      <trkpt lat="45.38219" lon="4.60672">
        <ele>1188.4</ele>
        <time>2026-08-18T09:08:00.919Z</time>
      </trkpt>
      <trkpt lat="45.38219" lon="4.60674">
        <ele>1188.6</ele>
        <time>2026-08-18T09:08:01.998Z</time>
      </trkpt>
      <trkpt lat="45.3822" lon="4.60677">
        <ele>1187.3</ele>
        <time>2026-08-18T09:08:03.999Z</time>
      </trkpt>
      <trkpt lat="45.3822" lon="4.60678">
        <ele>1187.5</ele>
        <time>2026-08-18T09:08:04.999Z</time>
      </trkpt>
      <trkpt lat="45.38221" lon="4.60681">
        <ele>1188.2</ele>
        <time>2026-08-18T09:08:06.999Z</time>
      </trkpt>
      <trkpt lat="45.38223" lon="4.60685">
        <ele>1188.8</ele>
        <time>2026-08-18T09:08:08.998Z</time>
      </trkpt>
      <trkpt lat="45.38224" lon="4.60687">
        <ele>1189.3</ele>
        <time>2026-08-18T09:08:09.999Z</time>
      </trkpt>
      <trkpt lat="45.38226" lon="4.6069">
        <ele>1189.7</ele>
        <time>2026-08-18T09:08:11.929Z</time>
      </trkpt>
      <trkpt lat="45.38226" lon="4.60691">
        <ele>1190.1</ele>
        <time>2026-08-18T09:08:12.999Z</time>
      </trkpt>
      <trkpt lat="45.38227" lon="4.60693">
        <ele>1190.3</ele>
        <time>2026-08-18T09:08:13.999Z</time>
      </trkpt>
      <trkpt lat="45.38228" lon="4.60694">
        <ele>1190.4</ele>
        <time>2026-08-18T09:08:15.010Z</time>
      </trkpt>
      <trkpt lat="45.38228" lon="4.60696">
        <ele>1190.4</ele>
        <time>2026-08-18T09:08:16.999Z</time>
      </trkpt>
      <trkpt lat="45.38229" lon="4.60698">
        <ele>1190.7</ele>
        <time>2026-08-18T09:08:17.999Z</time>
      </trkpt>
      <trkpt lat="45.38229" lon="4.60699">
        <ele>1190.5</ele>
        <time>2026-08-18T09:08:19.004Z</time>
      </trkpt>
      <trkpt lat="45.3823" lon="4.60702">
        <ele>1190.9</ele>
        <time>2026-08-18T09:08:20.998Z</time>
      </trkpt>
      <trkpt lat="45.3823" lon="4.60703">
        <ele>1190.7</ele>
        <time>2026-08-18T09:08:21.998Z</time>
      </trkpt>
      <trkpt lat="45.38231" lon="4.60704">
        <ele>1190.5</ele>
        <time>2026-08-18T09:08:22.998Z</time>
      </trkpt>
      <trkpt lat="45.38231" lon="4.60706">
        <ele>1190.8</ele>
        <time>2026-08-18T09:08:23.998Z</time>
      </trkpt>
      <trkpt lat="45.38231" lon="4.60708">
        <ele>1191.3</ele>
        <time>2026-08-18T09:08:25.999Z</time>
      </trkpt>
      <trkpt lat="45.38231" lon="4.6071">
        <ele>1191.8</ele>
        <time>2026-08-18T09:08:27.998Z</time>
      </trkpt>
      <trkpt lat="45.38232" lon="4.60712">
        <ele>1191.8</ele>
        <time>2026-08-18T09:08:29.018Z</time>
      </trkpt>
      <trkpt lat="45.38232" lon="4.60714">
        <ele>1191.7</ele>
        <time>2026-08-18T09:08:30.902Z</time>
      </trkpt>
      <trkpt lat="45.38232" lon="4.60716">
        <ele>1191.8</ele>
        <time>2026-08-18T09:08:31.998Z</time>
      </trkpt>
      <trkpt lat="45.38233" lon="4.60719">
        <ele>1193.2</ele>
        <time>2026-08-18T09:08:33.998Z</time>
      </trkpt>
      <trkpt lat="45.38233" lon="4.6072">
        <ele>1193.2</ele>
        <time>2026-08-18T09:08:35.019Z</time>
      </trkpt>
      <trkpt lat="45.38234" lon="4.60722">
        <ele>1194</ele>
        <time>2026-08-18T09:08:36.999Z</time>
      </trkpt>
      <trkpt lat="45.38235" lon="4.60725">
        <ele>1194.3</ele>
        <time>2026-08-18T09:08:38.964Z</time>
      </trkpt>
      <trkpt lat="45.38235" lon="4.60726">
        <ele>1194</ele>
        <time>2026-08-18T09:08:39.999Z</time>
      </trkpt>
      <trkpt lat="45.38235" lon="4.60728">
        <ele>1194.5</ele>
        <time>2026-08-18T09:08:40.999Z</time>
      </trkpt>
      <trkpt lat="45.38235" lon="4.60729">
        <ele>1194</ele>
        <time>2026-08-18T09:08:41.999Z</time>
      </trkpt>
      <trkpt lat="45.38236" lon="4.60731">
        <ele>1194.1</ele>
        <time>2026-08-18T09:08:42.999Z</time>
      </trkpt>
      <trkpt lat="45.38236" lon="4.60734">
        <ele>1194.5</ele>
        <time>2026-08-18T09:08:44.999Z</time>
      </trkpt>
      <trkpt lat="45.38235" lon="4.60735">
        <ele>1194.8</ele>
        <time>2026-08-18T09:08:45.999Z</time>
      </trkpt>
      <trkpt lat="45.38235" lon="4.60737">
        <ele>1194.8</ele>
        <time>2026-08-18T09:08:46.999Z</time>
      </trkpt>
      <trkpt lat="45.38235" lon="4.60738">
        <ele>1194.9</ele>
        <time>2026-08-18T09:08:47.999Z</time>
      </trkpt>
      <trkpt lat="45.38236" lon="4.6074">
        <ele>1195.1</ele>
        <time>2026-08-18T09:08:49.014Z</time>
      </trkpt>
      <trkpt lat="45.38236" lon="4.60744">
        <ele>1194.6</ele>
        <time>2026-08-18T09:08:50.999Z</time>
      </trkpt>
      <trkpt lat="45.38236" lon="4.60745">
        <ele>1194.7</ele>
        <time>2026-08-18T09:08:51.999Z</time>
      </trkpt>
      <trkpt lat="45.38236" lon="4.60747">
        <ele>1195</ele>
        <time>2026-08-18T09:08:53.007Z</time>
      </trkpt>
      <trkpt lat="45.38236" lon="4.60751">
        <ele>1195.1</ele>
        <time>2026-08-18T09:08:54.999Z</time>
      </trkpt>
      <trkpt lat="45.38236" lon="4.60753">
        <ele>1195.7</ele>
        <time>2026-08-18T09:08:55.999Z</time>
      </trkpt>
      <trkpt lat="45.38236" lon="4.60754">
        <ele>1195.5</ele>
        <time>2026-08-18T09:08:57.000Z</time>
      </trkpt>
      <trkpt lat="45.38236" lon="4.60758">
        <ele>1193.7</ele>
        <time>2026-08-18T09:08:58.998Z</time>
      </trkpt>
      <trkpt lat="45.38236" lon="4.60759">
        <ele>1193.9</ele>
        <time>2026-08-18T09:08:59.998Z</time>
      </trkpt>
      <trkpt lat="45.38235" lon="4.60761">
        <ele>1193.4</ele>
        <time>2026-08-18T09:09:00.999Z</time>
      </trkpt>
      <trkpt lat="45.38235" lon="4.60762">
        <ele>1193.5</ele>
        <time>2026-08-18T09:09:01.999Z</time>
      </trkpt>
      <trkpt lat="45.38234" lon="4.60766">
        <ele>1192.6</ele>
        <time>2026-08-18T09:09:03.983Z</time>
      </trkpt>
      <trkpt lat="45.38233" lon="4.60768">
        <ele>1192</ele>
        <time>2026-08-18T09:09:04.998Z</time>
      </trkpt>
      <trkpt lat="45.38232" lon="4.6077">
        <ele>1191.5</ele>
        <time>2026-08-18T09:09:05.999Z</time>
      </trkpt>
      <trkpt lat="45.38231" lon="4.60771">
        <ele>1191.3</ele>
        <time>2026-08-18T09:09:06.999Z</time>
      </trkpt>
      <trkpt lat="45.3823" lon="4.60775">
        <ele>1191</ele>
        <time>2026-08-18T09:09:08.999Z</time>
      </trkpt>
      <trkpt lat="45.38228" lon="4.60778">
        <ele>1191.6</ele>
        <time>2026-08-18T09:09:10.998Z</time>
      </trkpt>
      <trkpt lat="45.38228" lon="4.6078">
        <ele>1191.6</ele>
        <time>2026-08-18T09:09:11.998Z</time>
      </trkpt>
      <trkpt lat="45.38227" lon="4.60782">
        <ele>1191.6</ele>
        <time>2026-08-18T09:09:12.998Z</time>
      </trkpt>
      <trkpt lat="45.38226" lon="4.60783">
        <ele>1192.1</ele>
        <time>2026-08-18T09:09:14.002Z</time>
      </trkpt>
      <trkpt lat="45.38225" lon="4.60785">
        <ele>1191.9</ele>
        <time>2026-08-18T09:09:15.925Z</time>
      </trkpt>
      <trkpt lat="45.38224" lon="4.60787">
        <ele>1191.9</ele>
        <time>2026-08-18T09:09:16.999Z</time>
      </trkpt>
      <trkpt lat="45.38224" lon="4.60788">
        <ele>1191.6</ele>
        <time>2026-08-18T09:09:17.999Z</time>
      </trkpt>
      <trkpt lat="45.38223" lon="4.6079">
        <ele>1191.6</ele>
        <time>2026-08-18T09:09:18.999Z</time>
      </trkpt>
      <trkpt lat="45.38223" lon="4.60791">
        <ele>1191.1</ele>
        <time>2026-08-18T09:09:19.999Z</time>
      </trkpt>
      <trkpt lat="45.38222" lon="4.60793">
        <ele>1191.8</ele>
        <time>2026-08-18T09:09:20.999Z</time>
      </trkpt>
      <trkpt lat="45.38221" lon="4.60794">
        <ele>1191.7</ele>
        <time>2026-08-18T09:09:21.999Z</time>
      </trkpt>
      <trkpt lat="45.3822" lon="4.60795">
        <ele>1191.9</ele>
        <time>2026-08-18T09:09:22.999Z</time>
      </trkpt>
      <trkpt lat="45.38218" lon="4.60798">
        <ele>1192.1</ele>
        <time>2026-08-18T09:09:24.999Z</time>
      </trkpt>
      <trkpt lat="45.38218" lon="4.60799">
        <ele>1192.3</ele>
        <time>2026-08-18T09:09:25.999Z</time>
      </trkpt>
      <trkpt lat="45.38217" lon="4.60801">
        <ele>1192</ele>
        <time>2026-08-18T09:09:26.999Z</time>
      </trkpt>
      <trkpt lat="45.38216" lon="4.60802">
        <ele>1192</ele>
        <time>2026-08-18T09:09:28.001Z</time>
      </trkpt>
      <trkpt lat="45.38215" lon="4.60806">
        <ele>1192.8</ele>
        <time>2026-08-18T09:09:29.998Z</time>
      </trkpt>
      <trkpt lat="45.38215" lon="4.60808">
        <ele>1192.2</ele>
        <time>2026-08-18T09:09:31.004Z</time>
      </trkpt>
      <trkpt lat="45.38216" lon="4.60808">
        <ele>1193.2</ele>
        <time>2026-08-18T09:09:32.999Z</time>
      </trkpt>
      <trkpt lat="45.38216" lon="4.60809">
        <ele>1193.1</ele>
        <time>2026-08-18T09:09:34.998Z</time>
      </trkpt>
      <trkpt lat="45.38215" lon="4.60811">
        <ele>1192.9</ele>
        <time>2026-08-18T09:09:36.999Z</time>
      </trkpt>
      <trkpt lat="45.38215" lon="4.60813">
        <ele>1192.9</ele>
        <time>2026-08-18T09:09:38.003Z</time>
      </trkpt>
      <trkpt lat="45.38216" lon="4.60816">
        <ele>1192.6</ele>
        <time>2026-08-18T09:09:39.999Z</time>
      </trkpt>
      <trkpt lat="45.38216" lon="4.60819">
        <ele>1192.9</ele>
        <time>2026-08-18T09:09:41.998Z</time>
      </trkpt>
      <trkpt lat="45.38216" lon="4.6082">
        <ele>1192.7</ele>
        <time>2026-08-18T09:09:42.999Z</time>
      </trkpt>
      <trkpt lat="45.38217" lon="4.60822">
        <ele>1192.4</ele>
        <time>2026-08-18T09:09:43.999Z</time>
      </trkpt>
      <trkpt lat="45.38218" lon="4.60824">
        <ele>1193</ele>
        <time>2026-08-18T09:09:45.998Z</time>
      </trkpt>
      <trkpt lat="45.38219" lon="4.60826">
        <ele>1193</ele>
        <time>2026-08-18T09:09:46.999Z</time>
      </trkpt>
      <trkpt lat="45.38219" lon="4.60827">
        <ele>1193.3</ele>
        <time>2026-08-18T09:09:47.999Z</time>
      </trkpt>
      <trkpt lat="45.3822" lon="4.60829">
        <ele>1193.2</ele>
        <time>2026-08-18T09:09:49.998Z</time>
      </trkpt>
      <trkpt lat="45.38221" lon="4.6083">
        <ele>1193.2</ele>
        <time>2026-08-18T09:09:50.999Z</time>
      </trkpt>
      <trkpt lat="45.38222" lon="4.60832">
        <ele>1192.8</ele>
        <time>2026-08-18T09:09:51.999Z</time>
      </trkpt>
      <trkpt lat="45.38222" lon="4.60833">
        <ele>1192.5</ele>
        <time>2026-08-18T09:09:52.999Z</time>
      </trkpt>
      <trkpt lat="45.38223" lon="4.60834">
        <ele>1193</ele>
        <time>2026-08-18T09:09:53.999Z</time>
      </trkpt>
      <trkpt lat="45.38223" lon="4.60835">
        <ele>1192.8</ele>
        <time>2026-08-18T09:09:55.003Z</time>
      </trkpt>
      <trkpt lat="45.38224" lon="4.60837">
        <ele>1192.3</ele>
        <time>2026-08-18T09:09:56.943Z</time>
      </trkpt>
      <trkpt lat="45.38225" lon="4.60838">
        <ele>1193</ele>
        <time>2026-08-18T09:09:57.998Z</time>
      </trkpt>
      <trkpt lat="45.38226" lon="4.60839">
        <ele>1192.5</ele>
        <time>2026-08-18T09:09:58.998Z</time>
      </trkpt>
      <trkpt lat="45.38226" lon="4.60841">
        <ele>1192.3</ele>
        <time>2026-08-18T09:10:00.062Z</time>
      </trkpt>
      <trkpt lat="45.38227" lon="4.60843">
        <ele>1191.9</ele>
        <time>2026-08-18T09:10:02.001Z</time>
      </trkpt>
      <trkpt lat="45.38228" lon="4.60846">
        <ele>1191</ele>
        <time>2026-08-18T09:10:03.998Z</time>
      </trkpt>
      <trkpt lat="45.38229" lon="4.60847">
        <ele>1190.8</ele>
        <time>2026-08-18T09:10:04.999Z</time>
      </trkpt>
      <trkpt lat="45.38229" lon="4.60848">
        <ele>1190.5</ele>
        <time>2026-08-18T09:10:05.999Z</time>
      </trkpt>
      <trkpt lat="45.3823" lon="4.60849">
        <ele>1190.6</ele>
        <time>2026-08-18T09:10:06.999Z</time>
      </trkpt>
      <trkpt lat="45.38231" lon="4.60849">
        <ele>1190.7</ele>
        <time>2026-08-18T09:10:07.999Z</time>
      </trkpt>
      <trkpt lat="45.38231" lon="4.60851">
        <ele>1190.7</ele>
        <time>2026-08-18T09:10:08.999Z</time>
      </trkpt>
      <trkpt lat="45.38232" lon="4.60853">
        <ele>1190.5</ele>
        <time>2026-08-18T09:10:09.999Z</time>
      </trkpt>
      <trkpt lat="45.38233" lon="4.60856">
        <ele>1190.3</ele>
        <time>2026-08-18T09:10:11.977Z</time>
      </trkpt>
      <trkpt lat="45.38234" lon="4.60856">
        <ele>1189.5</ele>
        <time>2026-08-18T09:10:12.998Z</time>
      </trkpt>
      <trkpt lat="45.38235" lon="4.60857">
        <ele>1189.5</ele>
        <time>2026-08-18T09:10:13.998Z</time>
      </trkpt>
      <trkpt lat="45.38236" lon="4.60857">
        <ele>1189.5</ele>
        <time>2026-08-18T09:10:15.009Z</time>
      </trkpt>
      <trkpt lat="45.38235" lon="4.60856">
        <ele>1189.8</ele>
        <time>2026-08-18T09:10:16.999Z</time>
      </trkpt>
      <trkpt lat="45.38234" lon="4.60856">
        <ele>1189.8</ele>
        <time>2026-08-18T09:10:19.001Z</time>
      </trkpt>
      <trkpt lat="45.38234" lon="4.60855">
        <ele>1189.6</ele>
        <time>2026-08-18T09:10:20.998Z</time>
      </trkpt>
      <trkpt lat="45.38234" lon="4.60855">
        <ele>1189.6</ele>
        <time>2026-08-18T09:10:21.999Z</time>
      </trkpt>
      <trkpt lat="45.38234" lon="4.60855">
        <ele>1189.6</ele>
        <time>2026-08-18T09:10:23.998Z</time>
      </trkpt>
      <trkpt lat="45.38234" lon="4.60855">
        <ele>1189.5</ele>
        <time>2026-08-18T09:10:24.998Z</time>
      </trkpt>
      <trkpt lat="45.38234" lon="4.60855">
        <ele>1189.5</ele>
        <time>2026-08-18T09:10:25.998Z</time>
      </trkpt>
      <trkpt lat="45.38234" lon="4.60855">
        <ele>1189.5</ele>
        <time>2026-08-18T09:10:26.998Z</time>
      </trkpt>
      <trkpt lat="45.38234" lon="4.60855">
        <ele>1189.7</ele>
        <time>2026-08-18T09:10:27.999Z</time>
      </trkpt>
      <trkpt lat="45.38233" lon="4.60855">
        <ele>1189.4</ele>
        <time>2026-08-18T09:10:29.999Z</time>
      </trkpt>
      <trkpt lat="45.38232" lon="4.60854">
        <ele>1190.1</ele>
        <time>2026-08-18T09:10:31.999Z</time>
      </trkpt>
      <trkpt lat="45.38232" lon="4.60854">
        <ele>1190.1</ele>
        <time>2026-08-18T09:10:32.999Z</time>
      </trkpt>
      <trkpt lat="45.38232" lon="4.60854">
        <ele>1190</ele>
        <time>2026-08-18T09:10:34.999Z</time>
      </trkpt>
      <trkpt lat="45.38232" lon="4.60854">
        <ele>1190.1</ele>
        <time>2026-08-18T09:10:35.999Z</time>
      </trkpt>
      <trkpt lat="45.38232" lon="4.60854">
        <ele>1190.1</ele>
        <time>2026-08-18T09:10:37.004Z</time>
      </trkpt>
      <trkpt lat="45.38232" lon="4.60854">
        <ele>1190.1</ele>
        <time>2026-08-18T09:10:39.020Z</time>
      </trkpt>
      <trkpt lat="45.38232" lon="4.60854">
        <ele>1190.6</ele>
        <time>2026-08-18T09:10:41.005Z</time>
      </trkpt>
      <trkpt lat="45.38233" lon="4.60855">
        <ele>1190.3</ele>
        <time>2026-08-18T09:10:43.023Z</time>
      </trkpt>
      <trkpt lat="45.38234" lon="4.60858">
        <ele>1190.6</ele>
        <time>2026-08-18T09:10:44.998Z</time>
      </trkpt>
      <trkpt lat="45.38236" lon="4.60859">
        <ele>1190.6</ele>
        <time>2026-08-18T09:10:46.999Z</time>
      </trkpt>
      <trkpt lat="45.38236" lon="4.60859">
        <ele>1190.2</ele>
        <time>2026-08-18T09:10:47.999Z</time>
      </trkpt>
      <trkpt lat="45.38236" lon="4.60859">
        <ele>1190.1</ele>
        <time>2026-08-18T09:10:48.999Z</time>
      </trkpt>
      <trkpt lat="45.38236" lon="4.60859">
        <ele>1190.1</ele>
        <time>2026-08-18T09:10:49.999Z</time>
      </trkpt>
      <trkpt lat="45.38236" lon="4.60859">
        <ele>1190.1</ele>
        <time>2026-08-18T09:10:50.999Z</time>
      </trkpt>
      <trkpt lat="45.38236" lon="4.60859">
        <ele>1190.1</ele>
        <time>2026-08-18T09:10:51.999Z</time>
      </trkpt>
      <trkpt lat="45.38236" lon="4.60859">
        <ele>1190.2</ele>
        <time>2026-08-18T09:10:52.999Z</time>
      </trkpt>
      <trkpt lat="45.38236" lon="4.60859">
        <ele>1190.1</ele>
        <time>2026-08-18T09:10:54.999Z</time>
      </trkpt>
      <trkpt lat="45.38236" lon="4.60859">
        <ele>1190.2</ele>
        <time>2026-08-18T09:10:56.998Z</time>
      </trkpt>
      <trkpt lat="45.38236" lon="4.60859">
        <ele>1190.2</ele>
        <time>2026-08-18T09:10:57.999Z</time>
      </trkpt>
      <trkpt lat="45.38236" lon="4.60859">
        <ele>1190.2</ele>
        <time>2026-08-18T09:10:59.998Z</time>
      </trkpt>
      <trkpt lat="45.38236" lon="4.60859">
        <ele>1190.1</ele>
        <time>2026-08-18T09:11:00.999Z</time>
      </trkpt>
      <trkpt lat="45.38236" lon="4.60859">
        <ele>1190.1</ele>
        <time>2026-08-18T09:11:01.999Z</time>
      </trkpt>
      <trkpt lat="45.38236" lon="4.6086">
        <ele>1189.8</ele>
        <time>2026-08-18T09:11:04.052Z</time>
      </trkpt>
      <trkpt lat="45.38238" lon="4.60862">
        <ele>1189.6</ele>
        <time>2026-08-18T09:11:05.998Z</time>
      </trkpt>
      <trkpt lat="45.38238" lon="4.60863">
        <ele>1189.4</ele>
        <time>2026-08-18T09:11:06.999Z</time>
      </trkpt>
      <trkpt lat="45.38239" lon="4.60866">
        <ele>1188.9</ele>
        <time>2026-08-18T09:11:08.999Z</time>
      </trkpt>
      <trkpt lat="45.3824" lon="4.60867">
        <ele>1188.9</ele>
        <time>2026-08-18T09:11:09.999Z</time>
      </trkpt>
      <trkpt lat="45.3824" lon="4.60867">
        <ele>1188.9</ele>
        <time>2026-08-18T09:11:11.012Z</time>
      </trkpt>
      <trkpt lat="45.3824" lon="4.60866">
        <ele>1189.1</ele>
        <time>2026-08-18T09:11:12.999Z</time>
      </trkpt>
      <trkpt lat="45.3824" lon="4.60867">
        <ele>1189.7</ele>
        <time>2026-08-18T09:11:13.999Z</time>
      </trkpt>
      <trkpt lat="45.3824" lon="4.60867">
        <ele>1189.4</ele>
        <time>2026-08-18T09:11:15.007Z</time>
      </trkpt>
      <trkpt lat="45.38242" lon="4.60871">
        <ele>1189.5</ele>
        <time>2026-08-18T09:11:16.998Z</time>
      </trkpt>
      <trkpt lat="45.38242" lon="4.60873">
        <ele>1189.4</ele>
        <time>2026-08-18T09:11:17.998Z</time>
      </trkpt>
      <trkpt lat="45.38243" lon="4.60875">
        <ele>1189.2</ele>
        <time>2026-08-18T09:11:19.000Z</time>
      </trkpt>
      <trkpt lat="45.38245" lon="4.60879">
        <ele>1189.6</ele>
        <time>2026-08-18T09:11:20.999Z</time>
      </trkpt>
      <trkpt lat="45.38245" lon="4.60881">
        <ele>1189.6</ele>
        <time>2026-08-18T09:11:21.999Z</time>
      </trkpt>
      <trkpt lat="45.38247" lon="4.60884">
        <ele>1189.3</ele>
        <time>2026-08-18T09:11:23.999Z</time>
      </trkpt>
      <trkpt lat="45.38249" lon="4.60887">
        <ele>1189</ele>
        <time>2026-08-18T09:11:25.998Z</time>
      </trkpt>
      <trkpt lat="45.38249" lon="4.60889">
        <ele>1188.7</ele>
        <time>2026-08-18T09:11:26.999Z</time>
      </trkpt>
      <trkpt lat="45.3825" lon="4.60893">
        <ele>1188.4</ele>
        <time>2026-08-18T09:11:29.060Z</time>
      </trkpt>
      <trkpt lat="45.38252" lon="4.60895">
        <ele>1187.8</ele>
        <time>2026-08-18T09:11:30.999Z</time>
      </trkpt>
      <trkpt lat="45.38252" lon="4.60898">
        <ele>1187.9</ele>
        <time>2026-08-18T09:11:32.999Z</time>
      </trkpt>
      <trkpt lat="45.38254" lon="4.60901">
        <ele>1188.2</ele>
        <time>2026-08-18T09:11:34.999Z</time>
      </trkpt>
      <trkpt lat="45.38254" lon="4.60903">
        <ele>1188</ele>
        <time>2026-08-18T09:11:36.021Z</time>
      </trkpt>
      <trkpt lat="45.38255" lon="4.60904">
        <ele>1187.8</ele>
        <time>2026-08-18T09:11:38.074Z</time>
      </trkpt>
      <trkpt lat="45.38257" lon="4.60907">
        <ele>1187.3</ele>
        <time>2026-08-18T09:11:39.999Z</time>
      </trkpt>
      <trkpt lat="45.38259" lon="4.6091">
        <ele>1187.3</ele>
        <time>2026-08-18T09:11:42.023Z</time>
      </trkpt>
      <trkpt lat="45.3826" lon="4.60913">
        <ele>1187.5</ele>
        <time>2026-08-18T09:11:44.007Z</time>
      </trkpt>
      <trkpt lat="45.38261" lon="4.60914">
        <ele>1188.6</ele>
        <time>2026-08-18T09:11:45.053Z</time>
      </trkpt>
      <trkpt lat="45.38261" lon="4.60916">
        <ele>1188.7</ele>
        <time>2026-08-18T09:11:46.999Z</time>
      </trkpt>
      <trkpt lat="45.38261" lon="4.60916">
        <ele>1188.7</ele>
        <time>2026-08-18T09:11:47.999Z</time>
      </trkpt>
      <trkpt lat="45.38261" lon="4.60915">
        <ele>1188.7</ele>
        <time>2026-08-18T09:11:48.999Z</time>
      </trkpt>
      <trkpt lat="45.38261" lon="4.60915">
        <ele>1188.7</ele>
        <time>2026-08-18T09:11:49.999Z</time>
      </trkpt>
      <trkpt lat="45.38261" lon="4.60915">
        <ele>1188.2</ele>
        <time>2026-08-18T09:11:50.999Z</time>
      </trkpt>
      <trkpt lat="45.38261" lon="4.60915">
        <ele>1188.9</ele>
        <time>2026-08-18T09:11:51.999Z</time>
      </trkpt>
      <trkpt lat="45.38261" lon="4.60915">
        <ele>1189.2</ele>
        <time>2026-08-18T09:11:54.067Z</time>
      </trkpt>
      <trkpt lat="45.38261" lon="4.60916">
        <ele>1189.2</ele>
        <time>2026-08-18T09:11:56.007Z</time>
      </trkpt>
      <trkpt lat="45.38262" lon="4.60916">
        <ele>1189.2</ele>
        <time>2026-08-18T09:11:57.999Z</time>
      </trkpt>
      <trkpt lat="45.38262" lon="4.60916">
        <ele>1189.2</ele>
        <time>2026-08-18T09:12:00.001Z</time>
      </trkpt>
      <trkpt lat="45.38262" lon="4.60916">
        <ele>1189.2</ele>
        <time>2026-08-18T09:12:02.074Z</time>
      </trkpt>
      <trkpt lat="45.38262" lon="4.60916">
        <ele>1189.2</ele>
        <time>2026-08-18T09:12:03.999Z</time>
      </trkpt>
      <trkpt lat="45.38262" lon="4.60916">
        <ele>1189.2</ele>
        <time>2026-08-18T09:12:04.999Z</time>
      </trkpt>
      <trkpt lat="45.38262" lon="4.60916">
        <ele>1189.2</ele>
        <time>2026-08-18T09:12:05.999Z</time>
      </trkpt>
      <trkpt lat="45.38262" lon="4.60916">
        <ele>1189.2</ele>
        <time>2026-08-18T09:12:07.999Z</time>
      </trkpt>
      <trkpt lat="45.38262" lon="4.60916">
        <ele>1189.2</ele>
        <time>2026-08-18T09:12:08.999Z</time>
      </trkpt>
      <trkpt lat="45.38262" lon="4.60916">
        <ele>1189.2</ele>
        <time>2026-08-18T09:12:09.999Z</time>
      </trkpt>
      <trkpt lat="45.38262" lon="4.60916">
        <ele>1189</ele>
        <time>2026-08-18T09:12:11.998Z</time>
      </trkpt>
      <trkpt lat="45.38262" lon="4.60916">
        <ele>1189</ele>
        <time>2026-08-18T09:12:13.039Z</time>
      </trkpt>
      <trkpt lat="45.38263" lon="4.60918">
        <ele>1190.2</ele>
        <time>2026-08-18T09:12:14.999Z</time>
      </trkpt>
      <trkpt lat="45.38263" lon="4.60919">
        <ele>1190.7</ele>
        <time>2026-08-18T09:12:15.999Z</time>
      </trkpt>
      <trkpt lat="45.38263" lon="4.6092">
        <ele>1190.7</ele>
        <time>2026-08-18T09:12:17.004Z</time>
      </trkpt>
      <trkpt lat="45.38265" lon="4.60922">
        <ele>1190.2</ele>
        <time>2026-08-18T09:12:19.056Z</time>
      </trkpt>
      <trkpt lat="45.38266" lon="4.60926">
        <ele>1189.5</ele>
        <time>2026-08-18T09:12:20.999Z</time>
      </trkpt>
      <trkpt lat="45.38266" lon="4.60927">
        <ele>1189.6</ele>
        <time>2026-08-18T09:12:21.999Z</time>
      </trkpt>
      <trkpt lat="45.38266" lon="4.60928">
        <ele>1189</ele>
        <time>2026-08-18T09:12:22.999Z</time>
      </trkpt>
      <trkpt lat="45.38266" lon="4.60929">
        <ele>1189.8</ele>
        <time>2026-08-18T09:12:24.998Z</time>
      </trkpt>
      <trkpt lat="45.38266" lon="4.6093">
        <ele>1190</ele>
        <time>2026-08-18T09:12:26.016Z</time>
      </trkpt>
      <trkpt lat="45.38268" lon="4.60933">
        <ele>1189</ele>
        <time>2026-08-18T09:12:27.999Z</time>
      </trkpt>
      <trkpt lat="45.38269" lon="4.60934">
        <ele>1188.8</ele>
        <time>2026-08-18T09:12:28.999Z</time>
      </trkpt>
      <trkpt lat="45.3827" lon="4.60935">
        <ele>1188.2</ele>
        <time>2026-08-18T09:12:30.008Z</time>
      </trkpt>
      <trkpt lat="45.38272" lon="4.60937">
        <ele>1187.2</ele>
        <time>2026-08-18T09:12:31.999Z</time>
      </trkpt>
      <trkpt lat="45.38273" lon="4.60937">
        <ele>1186.7</ele>
        <time>2026-08-18T09:12:32.999Z</time>
      </trkpt>
      <trkpt lat="45.38274" lon="4.60938">
        <ele>1186.9</ele>
        <time>2026-08-18T09:12:34.003Z</time>
      </trkpt>
      <trkpt lat="45.38276" lon="4.60941">
        <ele>1186.9</ele>
        <time>2026-08-18T09:12:36.002Z</time>
      </trkpt>
      <trkpt lat="45.38278" lon="4.60944">
        <ele>1187.4</ele>
        <time>2026-08-18T09:12:37.998Z</time>
      </trkpt>
      <trkpt lat="45.38279" lon="4.60945">
        <ele>1187.4</ele>
        <time>2026-08-18T09:12:38.999Z</time>
      </trkpt>
      <trkpt lat="45.3828" lon="4.60948">
        <ele>1186.9</ele>
        <time>2026-08-18T09:12:40.999Z</time>
      </trkpt>
      <trkpt lat="45.38282" lon="4.60951">
        <ele>1187.2</ele>
        <time>2026-08-18T09:12:42.999Z</time>
      </trkpt>
      <trkpt lat="45.38283" lon="4.60952">
        <ele>1186.5</ele>
        <time>2026-08-18T09:12:43.999Z</time>
      </trkpt>
      <trkpt lat="45.38285" lon="4.60955">
        <ele>1185.5</ele>
        <time>2026-08-18T09:12:45.999Z</time>
      </trkpt>
      <trkpt lat="45.38285" lon="4.60956">
        <ele>1186</ele>
        <time>2026-08-18T09:12:46.999Z</time>
      </trkpt>
      <trkpt lat="45.38286" lon="4.60958">
        <ele>1186</ele>
        <time>2026-08-18T09:12:47.999Z</time>
      </trkpt>
      <trkpt lat="45.38287" lon="4.60961">
        <ele>1186.2</ele>
        <time>2026-08-18T09:12:49.998Z</time>
      </trkpt>
      <trkpt lat="45.38288" lon="4.60963">
        <ele>1186.4</ele>
        <time>2026-08-18T09:12:50.999Z</time>
      </trkpt>
      <trkpt lat="45.3829" lon="4.60966">
        <ele>1186.9</ele>
        <time>2026-08-18T09:12:52.936Z</time>
      </trkpt>
      <trkpt lat="45.38291" lon="4.60967">
        <ele>1187</ele>
        <time>2026-08-18T09:12:53.998Z</time>
      </trkpt>
      <trkpt lat="45.38291" lon="4.60968">
        <ele>1187.5</ele>
        <time>2026-08-18T09:12:54.999Z</time>
      </trkpt>
      <trkpt lat="45.38293" lon="4.60971">
        <ele>1187.8</ele>
        <time>2026-08-18T09:12:56.998Z</time>
      </trkpt>
      <trkpt lat="45.38293" lon="4.60973">
        <ele>1187.9</ele>
        <time>2026-08-18T09:12:57.999Z</time>
      </trkpt>
      <trkpt lat="45.38294" lon="4.60974">
        <ele>1188</ele>
        <time>2026-08-18T09:12:58.999Z</time>
      </trkpt>
      <trkpt lat="45.38296" lon="4.60976">
        <ele>1187.9</ele>
        <time>2026-08-18T09:13:00.998Z</time>
      </trkpt>
      <trkpt lat="45.38297" lon="4.60979">
        <ele>1187.8</ele>
        <time>2026-08-18T09:13:02.998Z</time>
      </trkpt>
      <trkpt lat="45.38297" lon="4.60981">
        <ele>1187.5</ele>
        <time>2026-08-18T09:13:04.010Z</time>
      </trkpt>
      <trkpt lat="45.38299" lon="4.60984">
        <ele>1187.4</ele>
        <time>2026-08-18T09:13:05.963Z</time>
      </trkpt>
      <trkpt lat="45.38299" lon="4.60985">
        <ele>1187.9</ele>
        <time>2026-08-18T09:13:06.999Z</time>
      </trkpt>
      <trkpt lat="45.383" lon="4.60986">
        <ele>1187.8</ele>
        <time>2026-08-18T09:13:08.004Z</time>
      </trkpt>
      <trkpt lat="45.38302" lon="4.6099">
        <ele>1187.6</ele>
        <time>2026-08-18T09:13:09.999Z</time>
      </trkpt>
      <trkpt lat="45.38303" lon="4.60993">
        <ele>1187.8</ele>
        <time>2026-08-18T09:13:11.998Z</time>
      </trkpt>
      <trkpt lat="45.38303" lon="4.60994">
        <ele>1187.4</ele>
        <time>2026-08-18T09:13:12.999Z</time>
      </trkpt>
      <trkpt lat="45.38304" lon="4.60998">
        <ele>1187.4</ele>
        <time>2026-08-18T09:13:14.998Z</time>
      </trkpt>
      <trkpt lat="45.38304" lon="4.60999">
        <ele>1187.5</ele>
        <time>2026-08-18T09:13:15.999Z</time>
      </trkpt>
      <trkpt lat="45.38304" lon="4.61001">
        <ele>1187.5</ele>
        <time>2026-08-18T09:13:16.999Z</time>
      </trkpt>
      <trkpt lat="45.38305" lon="4.61003">
        <ele>1187.6</ele>
        <time>2026-08-18T09:13:17.999Z</time>
      </trkpt>
      <trkpt lat="45.38305" lon="4.61004">
        <ele>1188.3</ele>
        <time>2026-08-18T09:13:18.999Z</time>
      </trkpt>
      <trkpt lat="45.38306" lon="4.61008">
        <ele>1188</ele>
        <time>2026-08-18T09:13:20.957Z</time>
      </trkpt>
      <trkpt lat="45.38306" lon="4.61009">
        <ele>1188.5</ele>
        <time>2026-08-18T09:13:21.999Z</time>
      </trkpt>
      <trkpt lat="45.38307" lon="4.61012">
        <ele>1188.8</ele>
        <time>2026-08-18T09:13:23.943Z</time>
      </trkpt>
      <trkpt lat="45.38308" lon="4.61014">
        <ele>1190</ele>
        <time>2026-08-18T09:13:24.997Z</time>
      </trkpt>
      <trkpt lat="45.38309" lon="4.61015">
        <ele>1189.5</ele>
        <time>2026-08-18T09:13:26.998Z</time>
      </trkpt>
      <trkpt lat="45.38311" lon="4.61015">
        <ele>1188.8</ele>
        <time>2026-08-18T09:13:28.924Z</time>
      </trkpt>
      <trkpt lat="45.38312" lon="4.61015">
        <ele>1188.8</ele>
        <time>2026-08-18T09:13:29.998Z</time>
      </trkpt>
      <trkpt lat="45.38312" lon="4.61015">
        <ele>1188.5</ele>
        <time>2026-08-18T09:13:30.998Z</time>
      </trkpt>
      <trkpt lat="45.38311" lon="4.61015">
        <ele>1188.5</ele>
        <time>2026-08-18T09:13:32.997Z</time>
      </trkpt>
      <trkpt lat="45.38311" lon="4.61015">
        <ele>1188.5</ele>
        <time>2026-08-18T09:13:33.998Z</time>
      </trkpt>
      <trkpt lat="45.38311" lon="4.61014">
        <ele>1188.5</ele>
        <time>2026-08-18T09:13:34.998Z</time>
      </trkpt>
      <trkpt lat="45.3831" lon="4.61014">
        <ele>1188.5</ele>
        <time>2026-08-18T09:13:36.997Z</time>
      </trkpt>
      <trkpt lat="45.3831" lon="4.61014">
        <ele>1188.5</ele>
        <time>2026-08-18T09:13:38.013Z</time>
      </trkpt>
      <trkpt lat="45.3831" lon="4.61014">
        <ele>1188.1</ele>
        <time>2026-08-18T09:13:39.998Z</time>
      </trkpt>
      <trkpt lat="45.3831" lon="4.61014">
        <ele>1188.3</ele>
        <time>2026-08-18T09:13:40.998Z</time>
      </trkpt>
      <trkpt lat="45.3831" lon="4.61014">
        <ele>1188.3</ele>
        <time>2026-08-18T09:13:42.006Z</time>
      </trkpt>
      <trkpt lat="45.3831" lon="4.61013">
        <ele>1188.3</ele>
        <time>2026-08-18T09:13:43.998Z</time>
      </trkpt>
      <trkpt lat="45.3831" lon="4.61013">
        <ele>1188.7</ele>
        <time>2026-08-18T09:13:44.998Z</time>
      </trkpt>
      <trkpt lat="45.3831" lon="4.61013">
        <ele>1188.4</ele>
        <time>2026-08-18T09:13:45.999Z</time>
      </trkpt>
      <trkpt lat="45.3831" lon="4.61014">
        <ele>1188.1</ele>
        <time>2026-08-18T09:13:47.997Z</time>
      </trkpt>
      <trkpt lat="45.3831" lon="4.61014">
        <ele>1188.1</ele>
        <time>2026-08-18T09:13:48.998Z</time>
      </trkpt>
      <trkpt lat="45.3831" lon="4.61014">
        <ele>1187.8</ele>
        <time>2026-08-18T09:13:49.998Z</time>
      </trkpt>
      <trkpt lat="45.3831" lon="4.61014">
        <ele>1187.8</ele>
        <time>2026-08-18T09:13:51.023Z</time>
      </trkpt>
      <trkpt lat="45.3831" lon="4.61016">
        <ele>1188.6</ele>
        <time>2026-08-18T09:13:52.998Z</time>
      </trkpt>
      <trkpt lat="45.38311" lon="4.61016">
        <ele>1188.6</ele>
        <time>2026-08-18T09:13:54.997Z</time>
      </trkpt>
      <trkpt lat="45.38311" lon="4.61016">
        <ele>1188.6</ele>
        <time>2026-08-18T09:13:55.998Z</time>
      </trkpt>
      <trkpt lat="45.38311" lon="4.61017">
        <ele>1188.9</ele>
        <time>2026-08-18T09:13:57.997Z</time>
      </trkpt>
      <trkpt lat="45.38311" lon="4.61017">
        <ele>1188.3</ele>
        <time>2026-08-18T09:13:58.998Z</time>
      </trkpt>
      <trkpt lat="45.38311" lon="4.61016">
        <ele>1188.3</ele>
        <time>2026-08-18T09:14:00.998Z</time>
      </trkpt>
      <trkpt lat="45.38311" lon="4.61016">
        <ele>1188.3</ele>
        <time>2026-08-18T09:14:02.997Z</time>
      </trkpt>
      <trkpt lat="45.38311" lon="4.61016">
        <ele>1188.3</ele>
        <time>2026-08-18T09:14:03.997Z</time>
      </trkpt>
      <trkpt lat="45.38311" lon="4.61016">
        <ele>1188.3</ele>
        <time>2026-08-18T09:14:04.997Z</time>
      </trkpt>
      <trkpt lat="45.38311" lon="4.61016">
        <ele>1188.3</ele>
        <time>2026-08-18T09:14:05.997Z</time>
      </trkpt>
      <trkpt lat="45.38311" lon="4.61016">
        <ele>1188.3</ele>
        <time>2026-08-18T09:14:06.998Z</time>
      </trkpt>
      <trkpt lat="45.38311" lon="4.61016">
        <ele>1188.3</ele>
        <time>2026-08-18T09:14:08.998Z</time>
      </trkpt>
      <trkpt lat="45.38311" lon="4.61016">
        <ele>1188.4</ele>
        <time>2026-08-18T09:14:10.997Z</time>
      </trkpt>
      <trkpt lat="45.3831" lon="4.61016">
        <ele>1188.5</ele>
        <time>2026-08-18T09:14:11.997Z</time>
      </trkpt>
      <trkpt lat="45.3831" lon="4.61016">
        <ele>1188.5</ele>
        <time>2026-08-18T09:14:12.998Z</time>
      </trkpt>
      <trkpt lat="45.3831" lon="4.61016">
        <ele>1188.9</ele>
        <time>2026-08-18T09:14:14.998Z</time>
      </trkpt>
      <trkpt lat="45.3831" lon="4.61016">
        <ele>1188.9</ele>
        <time>2026-08-18T09:14:15.998Z</time>
      </trkpt>
      <trkpt lat="45.3831" lon="4.61016">
        <ele>1189.2</ele>
        <time>2026-08-18T09:14:17.998Z</time>
      </trkpt>
      <trkpt lat="45.3831" lon="4.61017">
        <ele>1189.2</ele>
        <time>2026-08-18T09:14:19.998Z</time>
      </trkpt>
      <trkpt lat="45.3831" lon="4.61017">
        <ele>1189.2</ele>
        <time>2026-08-18T09:14:21.998Z</time>
      </trkpt>
      <trkpt lat="45.3831" lon="4.61017">
        <ele>1189.2</ele>
        <time>2026-08-18T09:14:22.998Z</time>
      </trkpt>
      <trkpt lat="45.3831" lon="4.61017">
        <ele>1189.2</ele>
        <time>2026-08-18T09:14:23.998Z</time>
      </trkpt>
      <trkpt lat="45.3831" lon="4.61017">
        <ele>1189.2</ele>
        <time>2026-08-18T09:14:24.998Z</time>
      </trkpt>
      <trkpt lat="45.3831" lon="4.61017">
        <ele>1189.2</ele>
        <time>2026-08-18T09:14:26.998Z</time>
      </trkpt>
      <trkpt lat="45.3831" lon="4.61017">
        <ele>1189.2</ele>
        <time>2026-08-18T09:14:28.998Z</time>
      </trkpt>
      <trkpt lat="45.3831" lon="4.61017">
        <ele>1189.2</ele>
        <time>2026-08-18T09:14:29.998Z</time>
      </trkpt>
      <trkpt lat="45.3831" lon="4.61017">
        <ele>1189.2</ele>
        <time>2026-08-18T09:14:30.998Z</time>
      </trkpt>
      <trkpt lat="45.3831" lon="4.61017">
        <ele>1189.2</ele>
        <time>2026-08-18T09:14:32.997Z</time>
      </trkpt>
      <trkpt lat="45.3831" lon="4.61017">
        <ele>1189.2</ele>
        <time>2026-08-18T09:14:33.998Z</time>
      </trkpt>
      <trkpt lat="45.3831" lon="4.61017">
        <ele>1189.3</ele>
        <time>2026-08-18T09:14:34.998Z</time>
      </trkpt>
      <trkpt lat="45.3831" lon="4.61017">
        <ele>1189.3</ele>
        <time>2026-08-18T09:14:35.998Z</time>
      </trkpt>
      <trkpt lat="45.3831" lon="4.61017">
        <ele>1189.3</ele>
        <time>2026-08-18T09:14:37.998Z</time>
      </trkpt>
      <trkpt lat="45.3831" lon="4.61017">
        <ele>1189.2</ele>
        <time>2026-08-18T09:14:38.998Z</time>
      </trkpt>
      <trkpt lat="45.3831" lon="4.61017">
        <ele>1189.2</ele>
        <time>2026-08-18T09:14:39.998Z</time>
      </trkpt>
      <trkpt lat="45.3831" lon="4.61017">
        <ele>1189.2</ele>
        <time>2026-08-18T09:14:40.998Z</time>
      </trkpt>
      <trkpt lat="45.3831" lon="4.61017">
        <ele>1189.2</ele>
        <time>2026-08-18T09:14:41.998Z</time>
      </trkpt>
      <trkpt lat="45.3831" lon="4.61017">
        <ele>1189.2</ele>
        <time>2026-08-18T09:14:43.998Z</time>
      </trkpt>
      <trkpt lat="45.3831" lon="4.61017">
        <ele>1189.2</ele>
        <time>2026-08-18T09:14:45.998Z</time>
      </trkpt>
      <trkpt lat="45.3831" lon="4.61017">
        <ele>1189.2</ele>
        <time>2026-08-18T09:14:47.997Z</time>
      </trkpt>
      <trkpt lat="45.3831" lon="4.61017">
        <ele>1189.2</ele>
        <time>2026-08-18T09:14:48.997Z</time>
      </trkpt>
      <trkpt lat="45.3831" lon="4.61017">
        <ele>1189.2</ele>
        <time>2026-08-18T09:14:49.998Z</time>
      </trkpt>
      <trkpt lat="45.3831" lon="4.61017">
        <ele>1189.2</ele>
        <time>2026-08-18T09:14:50.998Z</time>
      </trkpt>
      <trkpt lat="45.3831" lon="4.61017">
        <ele>1189.2</ele>
        <time>2026-08-18T09:14:51.998Z</time>
      </trkpt>
      <trkpt lat="45.3831" lon="4.61017">
        <ele>1189.2</ele>
        <time>2026-08-18T09:14:52.998Z</time>
      </trkpt>
      <trkpt lat="45.3831" lon="4.61017">
        <ele>1189.2</ele>
        <time>2026-08-18T09:14:54.997Z</time>
      </trkpt>
      <trkpt lat="45.3831" lon="4.61017">
        <ele>1189.2</ele>
        <time>2026-08-18T09:14:55.997Z</time>
      </trkpt>
      <trkpt lat="45.3831" lon="4.61017">
        <ele>1189.2</ele>
        <time>2026-08-18T09:14:56.998Z</time>
      </trkpt>
      <trkpt lat="45.3831" lon="4.61017">
        <ele>1189.2</ele>
        <time>2026-08-18T09:14:58.997Z</time>
      </trkpt>
      <trkpt lat="45.3831" lon="4.61017">
        <ele>1189.2</ele>
        <time>2026-08-18T09:14:59.997Z</time>
      </trkpt>
      <trkpt lat="45.3831" lon="4.61016">
        <ele>1189.2</ele>
        <time>2026-08-18T09:15:00.998Z</time>
      </trkpt>
      <trkpt lat="45.3831" lon="4.61016">
        <ele>1189.2</ele>
        <time>2026-08-18T09:15:02.998Z</time>
      </trkpt>
      <trkpt lat="45.3831" lon="4.61016">
        <ele>1189.2</ele>
        <time>2026-08-18T09:15:03.998Z</time>
      </trkpt>
      <trkpt lat="45.3831" lon="4.61016">
        <ele>1189.3</ele>
        <time>2026-08-18T09:15:05.996Z</time>
      </trkpt>
      <trkpt lat="45.3831" lon="4.61016">
        <ele>1189.3</ele>
        <time>2026-08-18T09:15:06.998Z</time>
      </trkpt>
      <trkpt lat="45.3831" lon="4.61016">
        <ele>1189.3</ele>
        <time>2026-08-18T09:15:07.998Z</time>
      </trkpt>
      <trkpt lat="45.3831" lon="4.61016">
        <ele>1189.3</ele>
        <time>2026-08-18T09:15:09.998Z</time>
      </trkpt>
      <trkpt lat="45.3831" lon="4.61016">
        <ele>1189.3</ele>
        <time>2026-08-18T09:15:10.998Z</time>
      </trkpt>
      <trkpt lat="45.3831" lon="4.61017">
        <ele>1189.3</ele>
        <time>2026-08-18T09:15:11.998Z</time>
      </trkpt>
      <trkpt lat="45.3831" lon="4.61017">
        <ele>1189.3</ele>
        <time>2026-08-18T09:15:12.998Z</time>
      </trkpt>
      <trkpt lat="45.3831" lon="4.61017">
        <ele>1189.3</ele>
        <time>2026-08-18T09:15:14.997Z</time>
      </trkpt>
      <trkpt lat="45.3831" lon="4.61017">
        <ele>1189.3</ele>
        <time>2026-08-18T09:15:15.997Z</time>
      </trkpt>
      <trkpt lat="45.3831" lon="4.61017">
        <ele>1189.3</ele>
        <time>2026-08-18T09:15:16.997Z</time>
      </trkpt>
      <trkpt lat="45.3831" lon="4.61017">
        <ele>1189.3</ele>
        <time>2026-08-18T09:15:17.997Z</time>
      </trkpt>
      <trkpt lat="45.3831" lon="4.61017">
        <ele>1189.3</ele>
        <time>2026-08-18T09:15:18.997Z</time>
      </trkpt>
      <trkpt lat="45.38311" lon="4.61017">
        <ele>1189.3</ele>
        <time>2026-08-18T09:15:19.997Z</time>
      </trkpt>
      <trkpt lat="45.38311" lon="4.61017">
        <ele>1189.3</ele>
        <time>2026-08-18T09:15:20.998Z</time>
      </trkpt>
      <trkpt lat="45.38311" lon="4.61017">
        <ele>1189.3</ele>
        <time>2026-08-18T09:15:22.998Z</time>
      </trkpt>
      <trkpt lat="45.38311" lon="4.61017">
        <ele>1189.3</ele>
        <time>2026-08-18T09:15:23.998Z</time>
      </trkpt>
      <trkpt lat="45.38311" lon="4.61016">
        <ele>1189.3</ele>
        <time>2026-08-18T09:15:24.998Z</time>
      </trkpt>
      <trkpt lat="45.38311" lon="4.61016">
        <ele>1189.3</ele>
        <time>2026-08-18T09:15:25.998Z</time>
      </trkpt>
      <trkpt lat="45.38311" lon="4.61016">
        <ele>1189.3</ele>
        <time>2026-08-18T09:15:26.998Z</time>
      </trkpt>
      <trkpt lat="45.38311" lon="4.61016">
        <ele>1189.3</ele>
        <time>2026-08-18T09:15:27.998Z</time>
      </trkpt>
      <trkpt lat="45.38311" lon="4.61016">
        <ele>1189.2</ele>
        <time>2026-08-18T09:15:28.998Z</time>
      </trkpt>
      <trkpt lat="45.38311" lon="4.61016">
        <ele>1189.1</ele>
        <time>2026-08-18T09:15:29.998Z</time>
      </trkpt>
      <trkpt lat="45.38311" lon="4.61017">
        <ele>1189.1</ele>
        <time>2026-08-18T09:15:31.998Z</time>
      </trkpt>
      <trkpt lat="45.38311" lon="4.61017">
        <ele>1189.1</ele>
        <time>2026-08-18T09:15:32.998Z</time>
      </trkpt>
      <trkpt lat="45.38311" lon="4.61017">
        <ele>1189.1</ele>
        <time>2026-08-18T09:15:33.998Z</time>
      </trkpt>
      <trkpt lat="45.38311" lon="4.61017">
        <ele>1189.1</ele>
        <time>2026-08-18T09:15:34.998Z</time>
      </trkpt>
      <trkpt lat="45.38311" lon="4.61017">
        <ele>1189.2</ele>
        <time>2026-08-18T09:15:35.998Z</time>
      </trkpt>
      <trkpt lat="45.38311" lon="4.61017">
        <ele>1189.1</ele>
        <time>2026-08-18T09:15:36.998Z</time>
      </trkpt>
      <trkpt lat="45.38311" lon="4.61018">
        <ele>1189.1</ele>
        <time>2026-08-18T09:15:37.998Z</time>
      </trkpt>
      <trkpt lat="45.38311" lon="4.6102">
        <ele>1189.2</ele>
        <time>2026-08-18T09:15:39.998Z</time>
      </trkpt>
      <trkpt lat="45.38313" lon="4.61022">
        <ele>1189.6</ele>
        <time>2026-08-18T09:15:41.922Z</time>
      </trkpt>
      <trkpt lat="45.38314" lon="4.61024">
        <ele>1189.9</ele>
        <time>2026-08-18T09:15:42.998Z</time>
      </trkpt>
      <trkpt lat="45.38315" lon="4.61026">
        <ele>1189.9</ele>
        <time>2026-08-18T09:15:44.998Z</time>
      </trkpt>
      <trkpt lat="45.38317" lon="4.61027">
        <ele>1190.1</ele>
        <time>2026-08-18T09:15:46.998Z</time>
      </trkpt>
      <trkpt lat="45.38317" lon="4.61027">
        <ele>1190.1</ele>
        <time>2026-08-18T09:15:48.997Z</time>
      </trkpt>
      <trkpt lat="45.38317" lon="4.61026">
        <ele>1190.1</ele>
        <time>2026-08-18T09:15:49.998Z</time>
      </trkpt>
      <trkpt lat="45.38318" lon="4.61028">
        <ele>1190.3</ele>
        <time>2026-08-18T09:15:51.998Z</time>
      </trkpt>
      <trkpt lat="45.38319" lon="4.61029">
        <ele>1189.7</ele>
        <time>2026-08-18T09:15:53.998Z</time>
      </trkpt>
      <trkpt lat="45.38321" lon="4.61031">
        <ele>1189.5</ele>
        <time>2026-08-18T09:15:55.998Z</time>
      </trkpt>
      <trkpt lat="45.38323" lon="4.61034">
        <ele>1189.5</ele>
        <time>2026-08-18T09:15:57.997Z</time>
      </trkpt>
      <trkpt lat="45.38324" lon="4.61035">
        <ele>1190.1</ele>
        <time>2026-08-18T09:15:58.998Z</time>
      </trkpt>
      <trkpt lat="45.38325" lon="4.61036">
        <ele>1189.9</ele>
        <time>2026-08-18T09:15:59.998Z</time>
      </trkpt>
      <trkpt lat="45.38326" lon="4.61037">
        <ele>1189.9</ele>
        <time>2026-08-18T09:16:01.015Z</time>
      </trkpt>
      <trkpt lat="45.38328" lon="4.6104">
        <ele>1189.9</ele>
        <time>2026-08-18T09:16:02.998Z</time>
      </trkpt>
      <trkpt lat="45.38329" lon="4.61041">
        <ele>1189.9</ele>
        <time>2026-08-18T09:16:04.001Z</time>
      </trkpt>
      <trkpt lat="45.38331" lon="4.61043">
        <ele>1189.8</ele>
        <time>2026-08-18T09:16:05.997Z</time>
      </trkpt>
      <trkpt lat="45.38332" lon="4.61044">
        <ele>1190.2</ele>
        <time>2026-08-18T09:16:06.997Z</time>
      </trkpt>
      <trkpt lat="45.38334" lon="4.61047">
        <ele>1189.8</ele>
        <time>2026-08-18T09:16:08.998Z</time>
      </trkpt>
      <trkpt lat="45.38335" lon="4.61048">
        <ele>1190.1</ele>
        <time>2026-08-18T09:16:10.000Z</time>
      </trkpt>
      <trkpt lat="45.38337" lon="4.61051">
        <ele>1191.2</ele>
        <time>2026-08-18T09:16:11.997Z</time>
      </trkpt>
      <trkpt lat="45.38338" lon="4.61052">
        <ele>1190.8</ele>
        <time>2026-08-18T09:16:12.997Z</time>
      </trkpt>
      <trkpt lat="45.38339" lon="4.61053">
        <ele>1190.5</ele>
        <time>2026-08-18T09:16:13.998Z</time>
      </trkpt>
      <trkpt lat="45.3834" lon="4.61055">
        <ele>1191</ele>
        <time>2026-08-18T09:16:14.998Z</time>
      </trkpt>
      <trkpt lat="45.3834" lon="4.61056">
        <ele>1191</ele>
        <time>2026-08-18T09:16:15.998Z</time>
      </trkpt>
      <trkpt lat="45.38342" lon="4.61057">
        <ele>1190.9</ele>
        <time>2026-08-18T09:16:17.997Z</time>
      </trkpt>
      <trkpt lat="45.38343" lon="4.61057">
        <ele>1191.1</ele>
        <time>2026-08-18T09:16:18.998Z</time>
      </trkpt>
      <trkpt lat="45.38345" lon="4.61058">
        <ele>1190.8</ele>
        <time>2026-08-18T09:16:20.997Z</time>
      </trkpt>
      <trkpt lat="45.38346" lon="4.61059">
        <ele>1191</ele>
        <time>2026-08-18T09:16:21.997Z</time>
      </trkpt>
      <trkpt lat="45.38347" lon="4.61059">
        <ele>1191.5</ele>
        <time>2026-08-18T09:16:23.008Z</time>
      </trkpt>
      <trkpt lat="45.38349" lon="4.6106">
        <ele>1191.8</ele>
        <time>2026-08-18T09:16:24.997Z</time>
      </trkpt>
      <trkpt lat="45.38349" lon="4.61061">
        <ele>1192.3</ele>
        <time>2026-08-18T09:16:25.998Z</time>
      </trkpt>
      <trkpt lat="45.38351" lon="4.61061">
        <ele>1192.2</ele>
        <time>2026-08-18T09:16:27.002Z</time>
      </trkpt>
      <trkpt lat="45.38352" lon="4.61062">
        <ele>1192.2</ele>
        <time>2026-08-18T09:16:28.998Z</time>
      </trkpt>
      <trkpt lat="45.38354" lon="4.61064">
        <ele>1192.9</ele>
        <time>2026-08-18T09:16:30.998Z</time>
      </trkpt>
      <trkpt lat="45.38356" lon="4.61065">
        <ele>1192.6</ele>
        <time>2026-08-18T09:16:32.998Z</time>
      </trkpt>
      <trkpt lat="45.38357" lon="4.61066">
        <ele>1192.5</ele>
        <time>2026-08-18T09:16:33.998Z</time>
      </trkpt>
      <trkpt lat="45.38358" lon="4.61068">
        <ele>1192.9</ele>
        <time>2026-08-18T09:16:34.998Z</time>
      </trkpt>
      <trkpt lat="45.38358" lon="4.61069">
        <ele>1192.5</ele>
        <time>2026-08-18T09:16:35.998Z</time>
      </trkpt>
      <trkpt lat="45.38359" lon="4.61072">
        <ele>1193.3</ele>
        <time>2026-08-18T09:16:38.015Z</time>
      </trkpt>
      <trkpt lat="45.3836" lon="4.61075">
        <ele>1193</ele>
        <time>2026-08-18T09:16:40.041Z</time>
      </trkpt>
      <trkpt lat="45.38362" lon="4.61079">
        <ele>1197.5</ele>
        <time>2026-08-18T09:16:41.997Z</time>
      </trkpt>
      <trkpt lat="45.38364" lon="4.61081">
        <ele>1198.5</ele>
        <time>2026-08-18T09:16:42.998Z</time>
      </trkpt>
      <trkpt lat="45.38366" lon="4.61083">
        <ele>1198.5</ele>
        <time>2026-08-18T09:16:44.004Z</time>
      </trkpt>
      <trkpt lat="45.38369" lon="4.61086">
        <ele>1198.2</ele>
        <time>2026-08-18T09:16:45.998Z</time>
      </trkpt>
      <trkpt lat="45.3837" lon="4.61087">
        <ele>1198.7</ele>
        <time>2026-08-18T09:16:46.998Z</time>
      </trkpt>
      <trkpt lat="45.38371" lon="4.61089">
        <ele>1199.6</ele>
        <time>2026-08-18T09:16:48.998Z</time>
      </trkpt>
      <trkpt lat="45.38372" lon="4.6109">
        <ele>1199.2</ele>
        <time>2026-08-18T09:16:50.997Z</time>
      </trkpt>
      <trkpt lat="45.38372" lon="4.61091">
        <ele>1199.3</ele>
        <time>2026-08-18T09:16:51.997Z</time>
      </trkpt>
      <trkpt lat="45.38372" lon="4.61093">
        <ele>1199.3</ele>
        <time>2026-08-18T09:16:52.998Z</time>
      </trkpt>
      <trkpt lat="45.38373" lon="4.61094">
        <ele>1199.2</ele>
        <time>2026-08-18T09:16:53.998Z</time>
      </trkpt>
      <trkpt lat="45.38373" lon="4.61095">
        <ele>1199.3</ele>
        <time>2026-08-18T09:16:54.998Z</time>
      </trkpt>
      <trkpt lat="45.38372" lon="4.61098">
        <ele>1199.8</ele>
        <time>2026-08-18T09:16:57.012Z</time>
      </trkpt>
      <trkpt lat="45.38372" lon="4.61101">
        <ele>1200.3</ele>
        <time>2026-08-18T09:16:58.997Z</time>
      </trkpt>
      <trkpt lat="45.38372" lon="4.61103">
        <ele>1199.7</ele>
        <time>2026-08-18T09:16:59.998Z</time>
      </trkpt>
      <trkpt lat="45.38371" lon="4.61108">
        <ele>1200.7</ele>
        <time>2026-08-18T09:17:01.998Z</time>
      </trkpt>
      <trkpt lat="45.38371" lon="4.61109">
        <ele>1200.6</ele>
        <time>2026-08-18T09:17:02.998Z</time>
      </trkpt>
      <trkpt lat="45.38371" lon="4.61111">
        <ele>1201.3</ele>
        <time>2026-08-18T09:17:03.998Z</time>
      </trkpt>
      <trkpt lat="45.3837" lon="4.61113">
        <ele>1202.4</ele>
        <time>2026-08-18T09:17:04.999Z</time>
      </trkpt>
      <trkpt lat="45.3837" lon="4.61115">
        <ele>1204.4</ele>
        <time>2026-08-18T09:17:06.998Z</time>
      </trkpt>
      <trkpt lat="45.3837" lon="4.61116">
        <ele>1205.1</ele>
        <time>2026-08-18T09:17:07.998Z</time>
      </trkpt>
      <trkpt lat="45.3837" lon="4.6112">
        <ele>1204.5</ele>
        <time>2026-08-18T09:17:10.020Z</time>
      </trkpt>
      <trkpt lat="45.3837" lon="4.61122">
        <ele>1205</ele>
        <time>2026-08-18T09:17:11.998Z</time>
      </trkpt>
      <trkpt lat="45.3837" lon="4.61124">
        <ele>1205.2</ele>
        <time>2026-08-18T09:17:12.998Z</time>
      </trkpt>
      <trkpt lat="45.3837" lon="4.61126">
        <ele>1205.6</ele>
        <time>2026-08-18T09:17:14.938Z</time>
      </trkpt>
      <trkpt lat="45.38371" lon="4.61127">
        <ele>1204.5</ele>
        <time>2026-08-18T09:17:16.997Z</time>
      </trkpt>
      <trkpt lat="45.38371" lon="4.61128">
        <ele>1205.4</ele>
        <time>2026-08-18T09:17:18.008Z</time>
      </trkpt>
      <trkpt lat="45.38372" lon="4.61129">
        <ele>1205.9</ele>
        <time>2026-08-18T09:17:19.998Z</time>
      </trkpt>
      <trkpt lat="45.38371" lon="4.61131">
        <ele>1204.9</ele>
        <time>2026-08-18T09:17:22.001Z</time>
      </trkpt>
      <trkpt lat="45.38371" lon="4.61133">
        <ele>1205.5</ele>
        <time>2026-08-18T09:17:23.925Z</time>
      </trkpt>
      <trkpt lat="45.3837" lon="4.61134">
        <ele>1203.6</ele>
        <time>2026-08-18T09:17:24.998Z</time>
      </trkpt>
      <trkpt lat="45.3837" lon="4.61135">
        <ele>1203.2</ele>
        <time>2026-08-18T09:17:25.998Z</time>
      </trkpt>
      <trkpt lat="45.38369" lon="4.61138">
        <ele>1204</ele>
        <time>2026-08-18T09:17:27.996Z</time>
      </trkpt>
      <trkpt lat="45.38369" lon="4.61139">
        <ele>1203.7</ele>
        <time>2026-08-18T09:17:28.998Z</time>
      </trkpt>
      <trkpt lat="45.38369" lon="4.61141">
        <ele>1203.3</ele>
        <time>2026-08-18T09:17:30.998Z</time>
      </trkpt>
      <trkpt lat="45.38369" lon="4.61142">
        <ele>1203.8</ele>
        <time>2026-08-18T09:17:32.998Z</time>
      </trkpt>
      <trkpt lat="45.38369" lon="4.61143">
        <ele>1203.6</ele>
        <time>2026-08-18T09:17:35.008Z</time>
      </trkpt>
      <trkpt lat="45.38369" lon="4.61142">
        <ele>1203.6</ele>
        <time>2026-08-18T09:17:36.998Z</time>
      </trkpt>
      <trkpt lat="45.38369" lon="4.61142">
        <ele>1203.2</ele>
        <time>2026-08-18T09:17:39.002Z</time>
      </trkpt>
      <trkpt lat="45.38369" lon="4.61144">
        <ele>1203.7</ele>
        <time>2026-08-18T09:17:40.998Z</time>
      </trkpt>
      <trkpt lat="45.38369" lon="4.61145">
        <ele>1203.7</ele>
        <time>2026-08-18T09:17:41.998Z</time>
      </trkpt>
      <trkpt lat="45.38369" lon="4.61147">
        <ele>1202.9</ele>
        <time>2026-08-18T09:17:43.998Z</time>
      </trkpt>
      <trkpt lat="45.3837" lon="4.61148">
        <ele>1203.4</ele>
        <time>2026-08-18T09:17:44.998Z</time>
      </trkpt>
      <trkpt lat="45.38369" lon="4.6115">
        <ele>1203.4</ele>
        <time>2026-08-18T09:17:46.003Z</time>
      </trkpt>
      <trkpt lat="45.3837" lon="4.61152">
        <ele>1203.5</ele>
        <time>2026-08-18T09:17:47.998Z</time>
      </trkpt>
      <trkpt lat="45.3837" lon="4.61153">
        <ele>1203.6</ele>
        <time>2026-08-18T09:17:48.998Z</time>
      </trkpt>
      <trkpt lat="45.3837" lon="4.61156">
        <ele>1203.6</ele>
        <time>2026-08-18T09:17:50.997Z</time>
      </trkpt>
      <trkpt lat="45.3837" lon="4.61157">
        <ele>1203.5</ele>
        <time>2026-08-18T09:17:51.998Z</time>
      </trkpt>
      <trkpt lat="45.3837" lon="4.6116">
        <ele>1203.5</ele>
        <time>2026-08-18T09:17:53.997Z</time>
      </trkpt>
      <trkpt lat="45.3837" lon="4.61161">
        <ele>1203.3</ele>
        <time>2026-08-18T09:17:54.997Z</time>
      </trkpt>
      <trkpt lat="45.3837" lon="4.61163">
        <ele>1203.6</ele>
        <time>2026-08-18T09:17:56.997Z</time>
      </trkpt>
      <trkpt lat="45.3837" lon="4.61164">
        <ele>1205.1</ele>
        <time>2026-08-18T09:17:57.997Z</time>
      </trkpt>
      <trkpt lat="45.3837" lon="4.61166">
        <ele>1206.3</ele>
        <time>2026-08-18T09:17:59.998Z</time>
      </trkpt>
      <trkpt lat="45.3837" lon="4.61167">
        <ele>1206</ele>
        <time>2026-08-18T09:18:00.998Z</time>
      </trkpt>
      <trkpt lat="45.3837" lon="4.61168">
        <ele>1206.9</ele>
        <time>2026-08-18T09:18:01.998Z</time>
      </trkpt>
      <trkpt lat="45.3837" lon="4.6117">
        <ele>1208.5</ele>
        <time>2026-08-18T09:18:03.998Z</time>
      </trkpt>
      <trkpt lat="45.3837" lon="4.61172">
        <ele>1208.7</ele>
        <time>2026-08-18T09:18:04.998Z</time>
      </trkpt>
      <trkpt lat="45.38371" lon="4.61174">
        <ele>1209.7</ele>
        <time>2026-08-18T09:18:06.997Z</time>
      </trkpt>
      <trkpt lat="45.38371" lon="4.61175">
        <ele>1210.1</ele>
        <time>2026-08-18T09:18:07.997Z</time>
      </trkpt>
      <trkpt lat="45.38371" lon="4.61176">
        <ele>1209.3</ele>
        <time>2026-08-18T09:18:08.997Z</time>
      </trkpt>
      <trkpt lat="45.38371" lon="4.61179">
        <ele>1209.7</ele>
        <time>2026-08-18T09:18:10.801Z</time>
      </trkpt>
      <trkpt lat="45.38371" lon="4.6118">
        <ele>1209.3</ele>
        <time>2026-08-18T09:18:11.997Z</time>
      </trkpt>
      <trkpt lat="45.38372" lon="4.61182">
        <ele>1209.4</ele>
        <time>2026-08-18T09:18:12.997Z</time>
      </trkpt>
      <trkpt lat="45.38372" lon="4.61183">
        <ele>1209.4</ele>
        <time>2026-08-18T09:18:14.025Z</time>
      </trkpt>
      <trkpt lat="45.38372" lon="4.61185">
        <ele>1209.8</ele>
        <time>2026-08-18T09:18:15.997Z</time>
      </trkpt>
      <trkpt lat="45.38372" lon="4.61187">
        <ele>1209.5</ele>
        <time>2026-08-18T09:18:16.998Z</time>
      </trkpt>
      <trkpt lat="45.38372" lon="4.61188">
        <ele>1210</ele>
        <time>2026-08-18T09:18:18.903Z</time>
      </trkpt>
      <trkpt lat="45.38373" lon="4.61188">
        <ele>1210.5</ele>
        <time>2026-08-18T09:18:19.997Z</time>
      </trkpt>
      <trkpt lat="45.38373" lon="4.61189">
        <ele>1209.5</ele>
        <time>2026-08-18T09:18:20.998Z</time>
      </trkpt>
      <trkpt lat="45.38373" lon="4.61191">
        <ele>1211.3</ele>
        <time>2026-08-18T09:18:22.998Z</time>
      </trkpt>
      <trkpt lat="45.38373" lon="4.61192">
        <ele>1211.4</ele>
        <time>2026-08-18T09:18:23.998Z</time>
      </trkpt>
      <trkpt lat="45.38373" lon="4.61194">
        <ele>1212</ele>
        <time>2026-08-18T09:18:25.998Z</time>
      </trkpt>
      <trkpt lat="45.38373" lon="4.61194">
        <ele>1211.8</ele>
        <time>2026-08-18T09:18:26.998Z</time>
      </trkpt>
      <trkpt lat="45.38373" lon="4.61196">
        <ele>1212.2</ele>
        <time>2026-08-18T09:18:28.997Z</time>
      </trkpt>
      <trkpt lat="45.38374" lon="4.61197">
        <ele>1212</ele>
        <time>2026-08-18T09:18:30.007Z</time>
      </trkpt>
      <trkpt lat="45.38374" lon="4.61199">
        <ele>1212.4</ele>
        <time>2026-08-18T09:18:31.997Z</time>
      </trkpt>
      <trkpt lat="45.38374" lon="4.612">
        <ele>1212.3</ele>
        <time>2026-08-18T09:18:32.998Z</time>
      </trkpt>
      <trkpt lat="45.38374" lon="4.61201">
        <ele>1211.6</ele>
        <time>2026-08-18T09:18:33.999Z</time>
      </trkpt>
      <trkpt lat="45.38374" lon="4.61203">
        <ele>1211.1</ele>
        <time>2026-08-18T09:18:35.942Z</time>
      </trkpt>
      <trkpt lat="45.38374" lon="4.61205">
        <ele>1210.4</ele>
        <time>2026-08-18T09:18:37.998Z</time>
      </trkpt>
      <trkpt lat="45.38375" lon="4.61208">
        <ele>1209.6</ele>
        <time>2026-08-18T09:18:39.997Z</time>
      </trkpt>
      <trkpt lat="45.38374" lon="4.61209">
        <ele>1210.2</ele>
        <time>2026-08-18T09:18:40.997Z</time>
      </trkpt>
      <trkpt lat="45.38375" lon="4.61211">
        <ele>1211.5</ele>
        <time>2026-08-18T09:18:43.013Z</time>
      </trkpt>
      <trkpt lat="45.38375" lon="4.61213">
        <ele>1211.6</ele>
        <time>2026-08-18T09:18:44.955Z</time>
      </trkpt>
      <trkpt lat="45.38375" lon="4.61214">
        <ele>1211.8</ele>
        <time>2026-08-18T09:18:45.998Z</time>
      </trkpt>
      <trkpt lat="45.38376" lon="4.61217">
        <ele>1211.5</ele>
        <time>2026-08-18T09:18:47.904Z</time>
      </trkpt>
      <trkpt lat="45.38376" lon="4.61219">
        <ele>1210.8</ele>
        <time>2026-08-18T09:18:48.997Z</time>
      </trkpt>
      <trkpt lat="45.38376" lon="4.6122">
        <ele>1210.7</ele>
        <time>2026-08-18T09:18:49.997Z</time>
      </trkpt>
      <trkpt lat="45.38377" lon="4.61223">
        <ele>1211</ele>
        <time>2026-08-18T09:18:51.997Z</time>
      </trkpt>
      <trkpt lat="45.38377" lon="4.61224">
        <ele>1210.5</ele>
        <time>2026-08-18T09:18:52.998Z</time>
      </trkpt>
      <trkpt lat="45.38377" lon="4.61226">
        <ele>1210.5</ele>
        <time>2026-08-18T09:18:54.017Z</time>
      </trkpt>
      <trkpt lat="45.38378" lon="4.61229">
        <ele>1211</ele>
        <time>2026-08-18T09:18:55.998Z</time>
      </trkpt>
      <trkpt lat="45.38378" lon="4.6123">
        <ele>1210.8</ele>
        <time>2026-08-18T09:18:56.998Z</time>
      </trkpt>
      <trkpt lat="45.38379" lon="4.61232">
        <ele>1210.9</ele>
        <time>2026-08-18T09:18:58.998Z</time>
      </trkpt>
      <trkpt lat="45.38379" lon="4.61234">
        <ele>1211</ele>
        <time>2026-08-18T09:19:00.940Z</time>
      </trkpt>
      <trkpt lat="45.38379" lon="4.61235">
        <ele>1212</ele>
        <time>2026-08-18T09:19:01.998Z</time>
      </trkpt>
      <trkpt lat="45.3838" lon="4.61237">
        <ele>1211.9</ele>
        <time>2026-08-18T09:19:03.925Z</time>
      </trkpt>
      <trkpt lat="45.3838" lon="4.61238">
        <ele>1212.2</ele>
        <time>2026-08-18T09:19:04.998Z</time>
      </trkpt>
      <trkpt lat="45.3838" lon="4.61239">
        <ele>1213.5</ele>
        <time>2026-08-18T09:19:05.998Z</time>
      </trkpt>
      <trkpt lat="45.38381" lon="4.61242">
        <ele>1212.8</ele>
        <time>2026-08-18T09:19:08.002Z</time>
      </trkpt>
      <trkpt lat="45.38382" lon="4.61244">
        <ele>1212.3</ele>
        <time>2026-08-18T09:19:09.998Z</time>
      </trkpt>
      <trkpt lat="45.38383" lon="4.61246">
        <ele>1212</ele>
        <time>2026-08-18T09:19:11.998Z</time>
      </trkpt>
      <trkpt lat="45.38383" lon="4.61247">
        <ele>1212.4</ele>
        <time>2026-08-18T09:19:12.998Z</time>
      </trkpt>
      <trkpt lat="45.38383" lon="4.61248">
        <ele>1212.4</ele>
        <time>2026-08-18T09:19:13.998Z</time>
      </trkpt>
      <trkpt lat="45.38384" lon="4.6125">
        <ele>1213.6</ele>
        <time>2026-08-18T09:19:15.998Z</time>
      </trkpt>
      <trkpt lat="45.38385" lon="4.61252">
        <ele>1214.1</ele>
        <time>2026-08-18T09:19:17.922Z</time>
      </trkpt>
      <trkpt lat="45.38385" lon="4.61252">
        <ele>1214.4</ele>
        <time>2026-08-18T09:19:18.996Z</time>
      </trkpt>
      <trkpt lat="45.38385" lon="4.61253">
        <ele>1214.6</ele>
        <time>2026-08-18T09:19:19.996Z</time>
      </trkpt>
      <trkpt lat="45.38386" lon="4.61255">
        <ele>1215</ele>
        <time>2026-08-18T09:19:22.001Z</time>
      </trkpt>
      <trkpt lat="45.38386" lon="4.61258">
        <ele>1214.3</ele>
        <time>2026-08-18T09:19:23.996Z</time>
      </trkpt>
      <trkpt lat="45.38386" lon="4.6126">
        <ele>1214.6</ele>
        <time>2026-08-18T09:19:25.003Z</time>
      </trkpt>
      <trkpt lat="45.38386" lon="4.61262">
        <ele>1215.5</ele>
        <time>2026-08-18T09:19:26.997Z</time>
      </trkpt>
      <trkpt lat="45.38387" lon="4.61264">
        <ele>1215.7</ele>
        <time>2026-08-18T09:19:28.996Z</time>
      </trkpt>
      <trkpt lat="45.38387" lon="4.61266">
        <ele>1216.1</ele>
        <time>2026-08-18T09:19:30.996Z</time>
      </trkpt>
      <trkpt lat="45.38387" lon="4.61267">
        <ele>1216.7</ele>
        <time>2026-08-18T09:19:31.997Z</time>
      </trkpt>
      <trkpt lat="45.38388" lon="4.61269">
        <ele>1216.6</ele>
        <time>2026-08-18T09:19:33.997Z</time>
      </trkpt>
      <trkpt lat="45.38388" lon="4.61271">
        <ele>1216.6</ele>
        <time>2026-08-18T09:19:34.997Z</time>
      </trkpt>
      <trkpt lat="45.38388" lon="4.61272">
        <ele>1216.9</ele>
        <time>2026-08-18T09:19:35.997Z</time>
      </trkpt>
      <trkpt lat="45.38388" lon="4.61273">
        <ele>1216.5</ele>
        <time>2026-08-18T09:19:36.997Z</time>
      </trkpt>
      <trkpt lat="45.38389" lon="4.61274">
        <ele>1217.5</ele>
        <time>2026-08-18T09:19:37.997Z</time>
      </trkpt>
      <trkpt lat="45.38389" lon="4.61276">
        <ele>1217.5</ele>
        <time>2026-08-18T09:19:39.997Z</time>
      </trkpt>
      <trkpt lat="45.3839" lon="4.61278">
        <ele>1218.4</ele>
        <time>2026-08-18T09:19:40.997Z</time>
      </trkpt>
      <trkpt lat="45.38391" lon="4.6128">
        <ele>1219.2</ele>
        <time>2026-08-18T09:19:42.997Z</time>
      </trkpt>
      <trkpt lat="45.38392" lon="4.61282">
        <ele>1220.5</ele>
        <time>2026-08-18T09:19:44.997Z</time>
      </trkpt>
      <trkpt lat="45.38392" lon="4.61283">
        <ele>1221</ele>
        <time>2026-08-18T09:19:45.997Z</time>
      </trkpt>
      <trkpt lat="45.38393" lon="4.61285">
        <ele>1221.8</ele>
        <time>2026-08-18T09:19:47.997Z</time>
      </trkpt>
      <trkpt lat="45.38393" lon="4.61286">
        <ele>1221.5</ele>
        <time>2026-08-18T09:19:48.997Z</time>
      </trkpt>
      <trkpt lat="45.38393" lon="4.61288">
        <ele>1222</ele>
        <time>2026-08-18T09:19:50.996Z</time>
      </trkpt>
      <trkpt lat="45.38394" lon="4.61289">
        <ele>1221.8</ele>
        <time>2026-08-18T09:19:51.997Z</time>
      </trkpt>
      <trkpt lat="45.38394" lon="4.61291">
        <ele>1222.1</ele>
        <time>2026-08-18T09:19:53.997Z</time>
      </trkpt>
      <trkpt lat="45.38395" lon="4.61293">
        <ele>1222.3</ele>
        <time>2026-08-18T09:19:55.997Z</time>
      </trkpt>
      <trkpt lat="45.38397" lon="4.61296">
        <ele>1222</ele>
        <time>2026-08-18T09:19:57.971Z</time>
      </trkpt>
      <trkpt lat="45.38397" lon="4.61297">
        <ele>1221.9</ele>
        <time>2026-08-18T09:19:58.996Z</time>
      </trkpt>
      <trkpt lat="45.38398" lon="4.61298">
        <ele>1223.1</ele>
        <time>2026-08-18T09:20:00.051Z</time>
      </trkpt>
      <trkpt lat="45.38399" lon="4.61302">
        <ele>1221.8</ele>
        <time>2026-08-18T09:20:01.997Z</time>
      </trkpt>
      <trkpt lat="45.384" lon="4.61304">
        <ele>1221.5</ele>
        <time>2026-08-18T09:20:02.997Z</time>
      </trkpt>
      <trkpt lat="45.38402" lon="4.61308">
        <ele>1220.5</ele>
        <time>2026-08-18T09:20:04.997Z</time>
      </trkpt>
      <trkpt lat="45.38402" lon="4.6131">
        <ele>1220.9</ele>
        <time>2026-08-18T09:20:06.003Z</time>
      </trkpt>
      <trkpt lat="45.38403" lon="4.61313">
        <ele>1220.9</ele>
        <time>2026-08-18T09:20:07.012Z</time>
      </trkpt>
      <trkpt lat="45.38404" lon="4.61316">
        <ele>1218.9</ele>
        <time>2026-08-18T09:20:08.995Z</time>
      </trkpt>
      <trkpt lat="45.38404" lon="4.61318">
        <ele>1218.2</ele>
        <time>2026-08-18T09:20:09.997Z</time>
      </trkpt>
      <trkpt lat="45.38405" lon="4.6132">
        <ele>1218.1</ele>
        <time>2026-08-18T09:20:10.997Z</time>
      </trkpt>
      <trkpt lat="45.38407" lon="4.61323">
        <ele>1217.4</ele>
        <time>2026-08-18T09:20:13.001Z</time>
      </trkpt>
      <trkpt lat="45.38409" lon="4.61327">
        <ele>1216.3</ele>
        <time>2026-08-18T09:20:14.915Z</time>
      </trkpt>
      <trkpt lat="45.38409" lon="4.61329">
        <ele>1215.8</ele>
        <time>2026-08-18T09:20:15.997Z</time>
      </trkpt>
      <trkpt lat="45.3841" lon="4.61331">
        <ele>1215.8</ele>
        <time>2026-08-18T09:20:16.997Z</time>
      </trkpt>
      <trkpt lat="45.38411" lon="4.61333">
        <ele>1215.8</ele>
        <time>2026-08-18T09:20:17.997Z</time>
      </trkpt>
      <trkpt lat="45.38411" lon="4.61334">
        <ele>1216.1</ele>
        <time>2026-08-18T09:20:18.997Z</time>
      </trkpt>
      <trkpt lat="45.38413" lon="4.61337">
        <ele>1215.5</ele>
        <time>2026-08-18T09:20:20.996Z</time>
      </trkpt>
      <trkpt lat="45.38414" lon="4.61338">
        <ele>1215.6</ele>
        <time>2026-08-18T09:20:21.996Z</time>
      </trkpt>
      <trkpt lat="45.38415" lon="4.6134">
        <ele>1215.3</ele>
        <time>2026-08-18T09:20:23.156Z</time>
      </trkpt>
      <trkpt lat="45.38416" lon="4.61342">
        <ele>1215.2</ele>
        <time>2026-08-18T09:20:24.289Z</time>
      </trkpt>
      <trkpt lat="45.38416" lon="4.61344">
        <ele>1217.4</ele>
        <time>2026-08-18T09:20:25.669Z</time>
      </trkpt>
      <trkpt lat="45.38418" lon="4.61345">
        <ele>1215</ele>
        <time>2026-08-18T09:20:26.996Z</time>
      </trkpt>
      <trkpt lat="45.38419" lon="4.61346">
        <ele>1214.1</ele>
        <time>2026-08-18T09:20:27.997Z</time>
      </trkpt>
      <trkpt lat="45.38421" lon="4.61346">
        <ele>1214.2</ele>
        <time>2026-08-18T09:20:28.997Z</time>
      </trkpt>
      <trkpt lat="45.38422" lon="4.61347">
        <ele>1214.6</ele>
        <time>2026-08-18T09:20:30.002Z</time>
      </trkpt>
      <trkpt lat="45.38423" lon="4.61348">
        <ele>1214.7</ele>
        <time>2026-08-18T09:20:31.067Z</time>
      </trkpt>
      <trkpt lat="45.38425" lon="4.61349">
        <ele>1214.9</ele>
        <time>2026-08-18T09:20:32.971Z</time>
      </trkpt>
      <trkpt lat="45.38426" lon="4.61349">
        <ele>1215</ele>
        <time>2026-08-18T09:20:33.996Z</time>
      </trkpt>
      <trkpt lat="45.38428" lon="4.6135">
        <ele>1215.6</ele>
        <time>2026-08-18T09:20:34.996Z</time>
      </trkpt>
      <trkpt lat="45.38428" lon="4.61351">
        <ele>1215.4</ele>
        <time>2026-08-18T09:20:36.049Z</time>
      </trkpt>
      <trkpt lat="45.3843" lon="4.61353">
        <ele>1215.2</ele>
        <time>2026-08-18T09:20:37.996Z</time>
      </trkpt>
      <trkpt lat="45.38431" lon="4.61354">
        <ele>1215.2</ele>
        <time>2026-08-18T09:20:38.997Z</time>
      </trkpt>
      <trkpt lat="45.38432" lon="4.61355">
        <ele>1215.4</ele>
        <time>2026-08-18T09:20:39.997Z</time>
      </trkpt>
      <trkpt lat="45.38433" lon="4.61356">
        <ele>1215.4</ele>
        <time>2026-08-18T09:20:40.997Z</time>
      </trkpt>
      <trkpt lat="45.38434" lon="4.61359">
        <ele>1216</ele>
        <time>2026-08-18T09:20:43.011Z</time>
      </trkpt>
      <trkpt lat="45.38435" lon="4.61361">
        <ele>1216.1</ele>
        <time>2026-08-18T09:20:45.075Z</time>
      </trkpt>
      <trkpt lat="45.38436" lon="4.61362">
        <ele>1216.1</ele>
        <time>2026-08-18T09:20:46.996Z</time>
      </trkpt>
      <trkpt lat="45.38436" lon="4.61363">
        <ele>1217.2</ele>
        <time>2026-08-18T09:20:47.997Z</time>
      </trkpt>
      <trkpt lat="45.38436" lon="4.61365">
        <ele>1217.5</ele>
        <time>2026-08-18T09:20:49.996Z</time>
      </trkpt>
      <trkpt lat="45.38437" lon="4.61366">
        <ele>1217.8</ele>
        <time>2026-08-18T09:20:50.996Z</time>
      </trkpt>
      <trkpt lat="45.38437" lon="4.61367">
        <ele>1217.9</ele>
        <time>2026-08-18T09:20:51.996Z</time>
      </trkpt>
      <trkpt lat="45.38437" lon="4.61368">
        <ele>1218.4</ele>
        <time>2026-08-18T09:20:52.997Z</time>
      </trkpt>
      <trkpt lat="45.38437" lon="4.61369">
        <ele>1218.7</ele>
        <time>2026-08-18T09:20:53.997Z</time>
      </trkpt>
      <trkpt lat="45.38438" lon="4.6137">
        <ele>1218.7</ele>
        <time>2026-08-18T09:20:55.237Z</time>
      </trkpt>
      <trkpt lat="45.38438" lon="4.61372">
        <ele>1219.8</ele>
        <time>2026-08-18T09:20:56.646Z</time>
      </trkpt>
      <trkpt lat="45.38438" lon="4.61373">
        <ele>1219.6</ele>
        <time>2026-08-18T09:20:57.996Z</time>
      </trkpt>
      <trkpt lat="45.38439" lon="4.61374">
        <ele>1220.5</ele>
        <time>2026-08-18T09:20:59.996Z</time>
      </trkpt>
      <trkpt lat="45.38439" lon="4.61375">
        <ele>1221</ele>
        <time>2026-08-18T09:21:00.996Z</time>
      </trkpt>
      <trkpt lat="45.3844" lon="4.61376">
        <ele>1221.5</ele>
        <time>2026-08-18T09:21:01.997Z</time>
      </trkpt>
      <trkpt lat="45.3844" lon="4.61376">
        <ele>1221.7</ele>
        <time>2026-08-18T09:21:02.997Z</time>
      </trkpt>
      <trkpt lat="45.38441" lon="4.61377">
        <ele>1221.4</ele>
        <time>2026-08-18T09:21:04.022Z</time>
      </trkpt>
      <trkpt lat="45.38441" lon="4.61378">
        <ele>1220.7</ele>
        <time>2026-08-18T09:21:05.997Z</time>
      </trkpt>
      <trkpt lat="45.38442" lon="4.6138">
        <ele>1221.1</ele>
        <time>2026-08-18T09:21:07.996Z</time>
      </trkpt>
      <trkpt lat="45.38442" lon="4.61381">
        <ele>1221.3</ele>
        <time>2026-08-18T09:21:08.996Z</time>
      </trkpt>
      <trkpt lat="45.38443" lon="4.61382">
        <ele>1222.5</ele>
        <time>2026-08-18T09:21:09.997Z</time>
      </trkpt>
      <trkpt lat="45.38443" lon="4.61383">
        <ele>1222.5</ele>
        <time>2026-08-18T09:21:11.052Z</time>
      </trkpt>
      <trkpt lat="45.38445" lon="4.61384">
        <ele>1223.9</ele>
        <time>2026-08-18T09:21:12.996Z</time>
      </trkpt>
      <trkpt lat="45.38446" lon="4.61385">
        <ele>1225.7</ele>
        <time>2026-08-18T09:21:14.996Z</time>
      </trkpt>
      <trkpt lat="45.38447" lon="4.61386">
        <ele>1224.9</ele>
        <time>2026-08-18T09:21:16.003Z</time>
      </trkpt>
      <trkpt lat="45.38449" lon="4.61388">
        <ele>1224.4</ele>
        <time>2026-08-18T09:21:17.973Z</time>
      </trkpt>
      <trkpt lat="45.38449" lon="4.61388">
        <ele>1225.1</ele>
        <time>2026-08-18T09:21:19.101Z</time>
      </trkpt>
      <trkpt lat="45.3845" lon="4.61389">
        <ele>1226.6</ele>
        <time>2026-08-18T09:21:20.996Z</time>
      </trkpt>
      <trkpt lat="45.38451" lon="4.6139">
        <ele>1229.2</ele>
        <time>2026-08-18T09:21:21.997Z</time>
      </trkpt>
      <trkpt lat="45.38452" lon="4.61391">
        <ele>1229.4</ele>
        <time>2026-08-18T09:21:24.010Z</time>
      </trkpt>
      <trkpt lat="45.38453" lon="4.61392">
        <ele>1230.2</ele>
        <time>2026-08-18T09:21:25.996Z</time>
      </trkpt>
      <trkpt lat="45.38453" lon="4.61393">
        <ele>1230.8</ele>
        <time>2026-08-18T09:21:27.013Z</time>
      </trkpt>
      <trkpt lat="45.38454" lon="4.61393">
        <ele>1230.8</ele>
        <time>2026-08-18T09:21:28.013Z</time>
      </trkpt>
      <trkpt lat="45.38456" lon="4.61395">
        <ele>1230</ele>
        <time>2026-08-18T09:21:29.997Z</time>
      </trkpt>
      <trkpt lat="45.38458" lon="4.61397">
        <ele>1230.5</ele>
        <time>2026-08-18T09:21:31.997Z</time>
      </trkpt>
      <trkpt lat="45.38459" lon="4.61398">
        <ele>1230.4</ele>
        <time>2026-08-18T09:21:32.997Z</time>
      </trkpt>
      <trkpt lat="45.3846" lon="4.614">
        <ele>1229.9</ele>
        <time>2026-08-18T09:21:34.954Z</time>
      </trkpt>
      <trkpt lat="45.3846" lon="4.614">
        <ele>1230.4</ele>
        <time>2026-08-18T09:21:36.087Z</time>
      </trkpt>
      <trkpt lat="45.38461" lon="4.614">
        <ele>1230.6</ele>
        <time>2026-08-18T09:21:37.110Z</time>
      </trkpt>
      <trkpt lat="45.38461" lon="4.61398">
        <ele>1231.9</ele>
        <time>2026-08-18T09:21:38.729Z</time>
      </trkpt>
      <trkpt lat="45.38461" lon="4.61398">
        <ele>1233.6</ele>
        <time>2026-08-18T09:21:39.997Z</time>
      </trkpt>
      <trkpt lat="45.38461" lon="4.614">
        <ele>1235.8</ele>
        <time>2026-08-18T09:21:41.997Z</time>
      </trkpt>
      <trkpt lat="45.38462" lon="4.61401">
        <ele>1235.8</ele>
        <time>2026-08-18T09:21:43.912Z</time>
      </trkpt>
      <trkpt lat="45.38463" lon="4.61402">
        <ele>1236</ele>
        <time>2026-08-18T09:21:45.088Z</time>
      </trkpt>
      <trkpt lat="45.38464" lon="4.61404">
        <ele>1235.6</ele>
        <time>2026-08-18T09:21:46.997Z</time>
      </trkpt>
      <trkpt lat="45.38464" lon="4.61406">
        <ele>1235.8</ele>
        <time>2026-08-18T09:21:49.008Z</time>
      </trkpt>
      <trkpt lat="45.38465" lon="4.61407">
        <ele>1237.5</ele>
        <time>2026-08-18T09:21:50.997Z</time>
      </trkpt>
      <trkpt lat="45.38466" lon="4.61409">
        <ele>1239.6</ele>
        <time>2026-08-18T09:21:52.001Z</time>
      </trkpt>
      <trkpt lat="45.38466" lon="4.6141">
        <ele>1241.3</ele>
        <time>2026-08-18T09:21:53.997Z</time>
      </trkpt>
      <trkpt lat="45.38467" lon="4.61412">
        <ele>1242.9</ele>
        <time>2026-08-18T09:21:55.996Z</time>
      </trkpt>
      <trkpt lat="45.38467" lon="4.61413">
        <ele>1243.8</ele>
        <time>2026-08-18T09:21:56.996Z</time>
      </trkpt>
      <trkpt lat="45.38468" lon="4.61415">
        <ele>1245.2</ele>
        <time>2026-08-18T09:21:58.996Z</time>
      </trkpt>
      <trkpt lat="45.38469" lon="4.61416">
        <ele>1244.7</ele>
        <time>2026-08-18T09:21:59.997Z</time>
      </trkpt>
      <trkpt lat="45.38469" lon="4.61418">
        <ele>1245.7</ele>
        <time>2026-08-18T09:22:01.997Z</time>
      </trkpt>
      <trkpt lat="45.3847" lon="4.6142">
        <ele>1248.2</ele>
        <time>2026-08-18T09:22:03.997Z</time>
      </trkpt>
      <trkpt lat="45.38471" lon="4.61422">
        <ele>1248.6</ele>
        <time>2026-08-18T09:22:05.007Z</time>
      </trkpt>
      <trkpt lat="45.38472" lon="4.61424">
        <ele>1248.6</ele>
        <time>2026-08-18T09:22:06.997Z</time>
      </trkpt>
      <trkpt lat="45.38472" lon="4.61425">
        <ele>1248.8</ele>
        <time>2026-08-18T09:22:07.997Z</time>
      </trkpt>
      <trkpt lat="45.38473" lon="4.61427">
        <ele>1248.3</ele>
        <time>2026-08-18T09:22:09.000Z</time>
      </trkpt>
      <trkpt lat="45.38473" lon="4.61428">
        <ele>1248.3</ele>
        <time>2026-08-18T09:22:10.065Z</time>
      </trkpt>
      <trkpt lat="45.38474" lon="4.61429">
        <ele>1249.8</ele>
        <time>2026-08-18T09:22:11.997Z</time>
      </trkpt>
      <trkpt lat="45.38475" lon="4.61431">
        <ele>1248.9</ele>
        <time>2026-08-18T09:22:13.997Z</time>
      </trkpt>
      <trkpt lat="45.38476" lon="4.61432">
        <ele>1247.4</ele>
        <time>2026-08-18T09:22:15.995Z</time>
      </trkpt>
      <trkpt lat="45.38477" lon="4.61433">
        <ele>1247</ele>
        <time>2026-08-18T09:22:16.997Z</time>
      </trkpt>
      <trkpt lat="45.38478" lon="4.61434">
        <ele>1246.6</ele>
        <time>2026-08-18T09:22:18.996Z</time>
      </trkpt>
      <trkpt lat="45.38478" lon="4.61435">
        <ele>1247.6</ele>
        <time>2026-08-18T09:22:19.997Z</time>
      </trkpt>
      <trkpt lat="45.38479" lon="4.61436">
        <ele>1247.1</ele>
        <time>2026-08-18T09:22:20.999Z</time>
      </trkpt>
      <trkpt lat="45.3848" lon="4.61439">
        <ele>1247.2</ele>
        <time>2026-08-18T09:22:22.914Z</time>
      </trkpt>
      <trkpt lat="45.3848" lon="4.6144">
        <ele>1248.3</ele>
        <time>2026-08-18T09:22:23.996Z</time>
      </trkpt>
      <trkpt lat="45.3848" lon="4.61441">
        <ele>1248</ele>
        <time>2026-08-18T09:22:24.997Z</time>
      </trkpt>
      <trkpt lat="45.38481" lon="4.61443">
        <ele>1248.5</ele>
        <time>2026-08-18T09:22:25.997Z</time>
      </trkpt>
      <trkpt lat="45.38481" lon="4.61444">
        <ele>1249</ele>
        <time>2026-08-18T09:22:26.997Z</time>
      </trkpt>
      <trkpt lat="45.38481" lon="4.61445">
        <ele>1248.7</ele>
        <time>2026-08-18T09:22:27.997Z</time>
      </trkpt>
      <trkpt lat="45.38482" lon="4.61447">
        <ele>1250.4</ele>
        <time>2026-08-18T09:22:29.997Z</time>
      </trkpt>
      <trkpt lat="45.38483" lon="4.61448">
        <ele>1250.4</ele>
        <time>2026-08-18T09:22:30.997Z</time>
      </trkpt>
      <trkpt lat="45.38484" lon="4.61449">
        <ele>1251.5</ele>
        <time>2026-08-18T09:22:32.996Z</time>
      </trkpt>
      <trkpt lat="45.38485" lon="4.6145">
        <ele>1251.3</ele>
        <time>2026-08-18T09:22:33.997Z</time>
      </trkpt>
      <trkpt lat="45.38486" lon="4.61452">
        <ele>1251.6</ele>
        <time>2026-08-18T09:22:35.996Z</time>
      </trkpt>
      <trkpt lat="45.38487" lon="4.61453">
        <ele>1251.4</ele>
        <time>2026-08-18T09:22:36.996Z</time>
      </trkpt>
      <trkpt lat="45.38487" lon="4.61454">
        <ele>1251.4</ele>
        <time>2026-08-18T09:22:38.001Z</time>
      </trkpt>
      <trkpt lat="45.38488" lon="4.61457">
        <ele>1251.9</ele>
        <time>2026-08-18T09:22:39.997Z</time>
      </trkpt>
      <trkpt lat="45.38488" lon="4.61459">
        <ele>1252.2</ele>
        <time>2026-08-18T09:22:40.997Z</time>
      </trkpt>
      <trkpt lat="45.38489" lon="4.61462">
        <ele>1252.2</ele>
        <time>2026-08-18T09:22:42.997Z</time>
      </trkpt>
      <trkpt lat="45.38489" lon="4.61465">
        <ele>1252.8</ele>
        <time>2026-08-18T09:22:44.997Z</time>
      </trkpt>
      <trkpt lat="45.3849" lon="4.61468">
        <ele>1252.8</ele>
        <time>2026-08-18T09:22:46.931Z</time>
      </trkpt>
      <trkpt lat="45.38491" lon="4.61469">
        <ele>1253.4</ele>
        <time>2026-08-18T09:22:47.996Z</time>
      </trkpt>
      <trkpt lat="45.38492" lon="4.61471">
        <ele>1253.3</ele>
        <time>2026-08-18T09:22:48.996Z</time>
      </trkpt>
      <trkpt lat="45.38492" lon="4.61473">
        <ele>1253.1</ele>
        <time>2026-08-18T09:22:49.996Z</time>
      </trkpt>
      <trkpt lat="45.38493" lon="4.61474">
        <ele>1253.2</ele>
        <time>2026-08-18T09:22:51.008Z</time>
      </trkpt>
      <trkpt lat="45.38494" lon="4.61478">
        <ele>1252.9</ele>
        <time>2026-08-18T09:22:52.996Z</time>
      </trkpt>
      <trkpt lat="45.38494" lon="4.61482">
        <ele>1252.3</ele>
        <time>2026-08-18T09:22:54.995Z</time>
      </trkpt>
      <trkpt lat="45.38495" lon="4.61484">
        <ele>1252.8</ele>
        <time>2026-08-18T09:22:55.997Z</time>
      </trkpt>
      <trkpt lat="45.38495" lon="4.61486">
        <ele>1252.7</ele>
        <time>2026-08-18T09:22:56.997Z</time>
      </trkpt>
      <trkpt lat="45.38495" lon="4.6149">
        <ele>1255.6</ele>
        <time>2026-08-18T09:22:58.997Z</time>
      </trkpt>
      <trkpt lat="45.38495" lon="4.61493">
        <ele>1255.8</ele>
        <time>2026-08-18T09:23:00.870Z</time>
      </trkpt>
      <trkpt lat="45.38495" lon="4.61495">
        <ele>1255.7</ele>
        <time>2026-08-18T09:23:01.996Z</time>
      </trkpt>
      <trkpt lat="45.38496" lon="4.61498">
        <ele>1254.7</ele>
        <time>2026-08-18T09:23:02.996Z</time>
      </trkpt>
      <trkpt lat="45.38496" lon="4.61501">
        <ele>1254.4</ele>
        <time>2026-08-18T09:23:03.996Z</time>
      </trkpt>
      <trkpt lat="45.38496" lon="4.61502">
        <ele>1254.4</ele>
        <time>2026-08-18T09:23:05.092Z</time>
      </trkpt>
      <trkpt lat="45.38494" lon="4.61506">
        <ele>1252.4</ele>
        <time>2026-08-18T09:23:06.999Z</time>
      </trkpt>
      <trkpt lat="45.38493" lon="4.61509">
        <ele>1250.7</ele>
        <time>2026-08-18T09:23:08.997Z</time>
      </trkpt>
      <trkpt lat="45.38493" lon="4.61511">
        <ele>1249.7</ele>
        <time>2026-08-18T09:23:09.997Z</time>
      </trkpt>
      <trkpt lat="45.38493" lon="4.61514">
        <ele>1247</ele>
        <time>2026-08-18T09:23:12.088Z</time>
      </trkpt>
      <trkpt lat="45.38494" lon="4.61516">
        <ele>1248.7</ele>
        <time>2026-08-18T09:23:13.997Z</time>
      </trkpt>
      <trkpt lat="45.38494" lon="4.61517">
        <ele>1248.7</ele>
        <time>2026-08-18T09:23:15.043Z</time>
      </trkpt>
      <trkpt lat="45.38493" lon="4.61514">
        <ele>1248.5</ele>
        <time>2026-08-18T09:23:16.997Z</time>
      </trkpt>
      <trkpt lat="45.38493" lon="4.61513">
        <ele>1248.3</ele>
        <time>2026-08-18T09:23:18.996Z</time>
      </trkpt>
      <trkpt lat="45.38493" lon="4.61512">
        <ele>1247.6</ele>
        <time>2026-08-18T09:23:19.996Z</time>
      </trkpt>
      <trkpt lat="45.38494" lon="4.61512">
        <ele>1248.3</ele>
        <time>2026-08-18T09:23:20.996Z</time>
      </trkpt>
      <trkpt lat="45.38495" lon="4.61513">
        <ele>1248.5</ele>
        <time>2026-08-18T09:23:22.929Z</time>
      </trkpt>
      <trkpt lat="45.38497" lon="4.61513">
        <ele>1249.2</ele>
        <time>2026-08-18T09:23:23.997Z</time>
      </trkpt>
      <trkpt lat="45.38497" lon="4.61512">
        <ele>1249.8</ele>
        <time>2026-08-18T09:23:24.997Z</time>
      </trkpt>
      <trkpt lat="45.38497" lon="4.61512">
        <ele>1249.8</ele>
        <time>2026-08-18T09:23:26.996Z</time>
      </trkpt>
      <trkpt lat="45.38497" lon="4.61512">
        <ele>1249.8</ele>
        <time>2026-08-18T09:23:27.997Z</time>
      </trkpt>
      <trkpt lat="45.38497" lon="4.61511">
        <ele>1249.8</ele>
        <time>2026-08-18T09:23:29.996Z</time>
      </trkpt>
      <trkpt lat="45.38497" lon="4.61511">
        <ele>1249.8</ele>
        <time>2026-08-18T09:23:30.996Z</time>
      </trkpt>
      <trkpt lat="45.38497" lon="4.61511">
        <ele>1249.8</ele>
        <time>2026-08-18T09:23:31.997Z</time>
      </trkpt>
      <trkpt lat="45.38497" lon="4.61511">
        <ele>1249.8</ele>
        <time>2026-08-18T09:23:33.995Z</time>
      </trkpt>
      <trkpt lat="45.38497" lon="4.61511">
        <ele>1249.8</ele>
        <time>2026-08-18T09:23:34.997Z</time>
      </trkpt>
      <trkpt lat="45.38497" lon="4.6151">
        <ele>1250.1</ele>
        <time>2026-08-18T09:23:36.996Z</time>
      </trkpt>
      <trkpt lat="45.38497" lon="4.6151">
        <ele>1250.1</ele>
        <time>2026-08-18T09:23:37.997Z</time>
      </trkpt>
      <trkpt lat="45.38497" lon="4.6151">
        <ele>1250.3</ele>
        <time>2026-08-18T09:23:39.997Z</time>
      </trkpt>
      <trkpt lat="45.38497" lon="4.6151">
        <ele>1250.3</ele>
        <time>2026-08-18T09:23:40.997Z</time>
      </trkpt>
      <trkpt lat="45.38497" lon="4.6151">
        <ele>1250.3</ele>
        <time>2026-08-18T09:23:42.997Z</time>
      </trkpt>
      <trkpt lat="45.38497" lon="4.6151">
        <ele>1250.3</ele>
        <time>2026-08-18T09:23:43.997Z</time>
      </trkpt>
      <trkpt lat="45.38497" lon="4.6151">
        <ele>1250.3</ele>
        <time>2026-08-18T09:23:45.997Z</time>
      </trkpt>
      <trkpt lat="45.38497" lon="4.6151">
        <ele>1250.3</ele>
        <time>2026-08-18T09:23:46.997Z</time>
      </trkpt>
      <trkpt lat="45.38497" lon="4.6151">
        <ele>1250.3</ele>
        <time>2026-08-18T09:23:47.997Z</time>
      </trkpt>
      <trkpt lat="45.38497" lon="4.6151">
        <ele>1250.3</ele>
        <time>2026-08-18T09:23:49.997Z</time>
      </trkpt>
      <trkpt lat="45.38497" lon="4.6151">
        <ele>1250.3</ele>
        <time>2026-08-18T09:23:50.997Z</time>
      </trkpt>
      <trkpt lat="45.38497" lon="4.6151">
        <ele>1250.3</ele>
        <time>2026-08-18T09:23:52.996Z</time>
      </trkpt>
      <trkpt lat="45.38497" lon="4.6151">
        <ele>1250.3</ele>
        <time>2026-08-18T09:23:53.997Z</time>
      </trkpt>
      <trkpt lat="45.38497" lon="4.6151">
        <ele>1250.3</ele>
        <time>2026-08-18T09:23:54.997Z</time>
      </trkpt>
      <trkpt lat="45.38497" lon="4.6151">
        <ele>1250.3</ele>
        <time>2026-08-18T09:23:55.997Z</time>
      </trkpt>
      <trkpt lat="45.38497" lon="4.6151">
        <ele>1250.3</ele>
        <time>2026-08-18T09:23:56.997Z</time>
      </trkpt>
      <trkpt lat="45.38497" lon="4.6151">
        <ele>1250.3</ele>
        <time>2026-08-18T09:23:57.997Z</time>
      </trkpt>
      <trkpt lat="45.38497" lon="4.6151">
        <ele>1250.3</ele>
        <time>2026-08-18T09:23:58.997Z</time>
      </trkpt>
      <trkpt lat="45.38497" lon="4.6151">
        <ele>1251</ele>
        <time>2026-08-18T09:24:00.996Z</time>
      </trkpt>
      <trkpt lat="45.38497" lon="4.61511">
        <ele>1250.9</ele>
        <time>2026-08-18T09:24:01.997Z</time>
      </trkpt>
      <trkpt lat="45.38495" lon="4.6151">
        <ele>1251.1</ele>
        <time>2026-08-18T09:24:03.997Z</time>
      </trkpt>
      <trkpt lat="45.38492" lon="4.61508">
        <ele>1251.4</ele>
        <time>2026-08-18T09:24:05.996Z</time>
      </trkpt>
      <trkpt lat="45.38491" lon="4.61507">
        <ele>1251.6</ele>
        <time>2026-08-18T09:24:06.997Z</time>
      </trkpt>
      <trkpt lat="45.38489" lon="4.61507">
        <ele>1253.2</ele>
        <time>2026-08-18T09:24:08.996Z</time>
      </trkpt>
      <trkpt lat="45.38488" lon="4.61507">
        <ele>1253.8</ele>
        <time>2026-08-18T09:24:09.996Z</time>
      </trkpt>
      <trkpt lat="45.38487" lon="4.61508">
        <ele>1253.7</ele>
        <time>2026-08-18T09:24:10.996Z</time>
      </trkpt>
      <trkpt lat="45.38486" lon="4.61509">
        <ele>1253.1</ele>
        <time>2026-08-18T09:24:12.997Z</time>
      </trkpt>
      <trkpt lat="45.38485" lon="4.6151">
        <ele>1253.1</ele>
        <time>2026-08-18T09:24:14.009Z</time>
      </trkpt>
      <trkpt lat="45.38485" lon="4.61513">
        <ele>1253.8</ele>
        <time>2026-08-18T09:24:15.996Z</time>
      </trkpt>
      <trkpt lat="45.38485" lon="4.61515">
        <ele>1254.7</ele>
        <time>2026-08-18T09:24:17.001Z</time>
      </trkpt>
      <trkpt lat="45.38487" lon="4.61518">
        <ele>1255</ele>
        <time>2026-08-18T09:24:18.997Z</time>
      </trkpt>
      <trkpt lat="45.38488" lon="4.61519">
        <ele>1255.2</ele>
        <time>2026-08-18T09:24:19.997Z</time>
      </trkpt>
      <trkpt lat="45.38488" lon="4.6152">
        <ele>1255.3</ele>
        <time>2026-08-18T09:24:20.997Z</time>
      </trkpt>
      <trkpt lat="45.38489" lon="4.61522">
        <ele>1256.3</ele>
        <time>2026-08-18T09:24:22.996Z</time>
      </trkpt>
      <trkpt lat="45.38489" lon="4.61523">
        <ele>1257</ele>
        <time>2026-08-18T09:24:23.997Z</time>
      </trkpt>
      <trkpt lat="45.38489" lon="4.61523">
        <ele>1257.1</ele>
        <time>2026-08-18T09:24:24.997Z</time>
      </trkpt>
      <trkpt lat="45.38489" lon="4.61523">
        <ele>1257.1</ele>
        <time>2026-08-18T09:24:26.997Z</time>
      </trkpt>
      <trkpt lat="45.38489" lon="4.61522">
        <ele>1257.1</ele>
        <time>2026-08-18T09:24:27.997Z</time>
      </trkpt>
      <trkpt lat="45.38489" lon="4.61522">
        <ele>1257.4</ele>
        <time>2026-08-18T09:24:30.009Z</time>
      </trkpt>
      <trkpt lat="45.38489" lon="4.61521">
        <ele>1258.2</ele>
        <time>2026-08-18T09:24:31.996Z</time>
      </trkpt>
      <trkpt lat="45.38489" lon="4.61521">
        <ele>1258.7</ele>
        <time>2026-08-18T09:24:32.997Z</time>
      </trkpt>
      <trkpt lat="45.38489" lon="4.61521">
        <ele>1258.6</ele>
        <time>2026-08-18T09:24:34.997Z</time>
      </trkpt>
      <trkpt lat="45.3849" lon="4.61522">
        <ele>1258.7</ele>
        <time>2026-08-18T09:24:35.997Z</time>
      </trkpt>
      <trkpt lat="45.38492" lon="4.61524">
        <ele>1258.9</ele>
        <time>2026-08-18T09:24:37.997Z</time>
      </trkpt>
      <trkpt lat="45.38492" lon="4.61524">
        <ele>1259.4</ele>
        <time>2026-08-18T09:24:38.997Z</time>
      </trkpt>
      <trkpt lat="45.38493" lon="4.61523">
        <ele>1259.4</ele>
        <time>2026-08-18T09:24:39.997Z</time>
      </trkpt>
      <trkpt lat="45.38493" lon="4.61523">
        <ele>1259.4</ele>
        <time>2026-08-18T09:24:40.997Z</time>
      </trkpt>
      <trkpt lat="45.38493" lon="4.61522">
        <ele>1259.4</ele>
        <time>2026-08-18T09:24:41.997Z</time>
      </trkpt>
      <trkpt lat="45.38492" lon="4.61522">
        <ele>1258.9</ele>
        <time>2026-08-18T09:24:42.997Z</time>
      </trkpt>
      <trkpt lat="45.38492" lon="4.61522">
        <ele>1258.9</ele>
        <time>2026-08-18T09:24:44.997Z</time>
      </trkpt>
      <trkpt lat="45.38492" lon="4.61522">
        <ele>1258.9</ele>
        <time>2026-08-18T09:24:45.997Z</time>
      </trkpt>
      <trkpt lat="45.38492" lon="4.61522">
        <ele>1259.3</ele>
        <time>2026-08-18T09:24:47.996Z</time>
      </trkpt>
      <trkpt lat="45.38493" lon="4.61522">
        <ele>1259.2</ele>
        <time>2026-08-18T09:24:48.996Z</time>
      </trkpt>
      <trkpt lat="45.38493" lon="4.61522">
        <ele>1258.9</ele>
        <time>2026-08-18T09:24:49.997Z</time>
      </trkpt>
      <trkpt lat="45.38493" lon="4.61522">
        <ele>1258.7</ele>
        <time>2026-08-18T09:24:50.997Z</time>
      </trkpt>
      <trkpt lat="45.38494" lon="4.61522">
        <ele>1258.3</ele>
        <time>2026-08-18T09:24:53.013Z</time>
      </trkpt>
      <trkpt lat="45.38497" lon="4.61522">
        <ele>1257.9</ele>
        <time>2026-08-18T09:24:54.952Z</time>
      </trkpt>
      <trkpt lat="45.38499" lon="4.61523">
        <ele>1260</ele>
        <time>2026-08-18T09:24:55.997Z</time>
      </trkpt>
      <trkpt lat="45.385" lon="4.61523">
        <ele>1260</ele>
        <time>2026-08-18T09:24:57.005Z</time>
      </trkpt>
      <trkpt lat="45.38502" lon="4.61525">
        <ele>1260.3</ele>
        <time>2026-08-18T09:24:58.997Z</time>
      </trkpt>
      <trkpt lat="45.38503" lon="4.61527">
        <ele>1260.3</ele>
        <time>2026-08-18T09:24:59.997Z</time>
      </trkpt>
      <trkpt lat="45.38503" lon="4.61533">
        <ele>1261</ele>
        <time>2026-08-18T09:25:01.997Z</time>
      </trkpt>
      <trkpt lat="45.38503" lon="4.61536">
        <ele>1261.3</ele>
        <time>2026-08-18T09:25:03.967Z</time>
      </trkpt>
      <trkpt lat="45.38503" lon="4.61538">
        <ele>1261.8</ele>
        <time>2026-08-18T09:25:04.997Z</time>
      </trkpt>
      <trkpt lat="45.38502" lon="4.6154">
        <ele>1261.8</ele>
        <time>2026-08-18T09:25:06.011Z</time>
      </trkpt>
      <trkpt lat="45.38501" lon="4.61544">
        <ele>1261</ele>
        <time>2026-08-18T09:25:07.996Z</time>
      </trkpt>
      <trkpt lat="45.38501" lon="4.61547">
        <ele>1260.1</ele>
        <time>2026-08-18T09:25:09.996Z</time>
      </trkpt>
      <trkpt lat="45.385" lon="4.61549">
        <ele>1260</ele>
        <time>2026-08-18T09:25:10.997Z</time>
      </trkpt>
      <trkpt lat="45.385" lon="4.61551">
        <ele>1260.3</ele>
        <time>2026-08-18T09:25:12.996Z</time>
      </trkpt>
      <trkpt lat="45.38498" lon="4.61554">
        <ele>1260.5</ele>
        <time>2026-08-18T09:25:14.997Z</time>
      </trkpt>
      <trkpt lat="45.38497" lon="4.61556">
        <ele>1261.2</ele>
        <time>2026-08-18T09:25:16.997Z</time>
      </trkpt>
      <trkpt lat="45.38497" lon="4.61559">
        <ele>1260.7</ele>
        <time>2026-08-18T09:25:18.996Z</time>
      </trkpt>
      <trkpt lat="45.38497" lon="4.6156">
        <ele>1260.7</ele>
        <time>2026-08-18T09:25:20.026Z</time>
      </trkpt>
      <trkpt lat="45.38497" lon="4.61562">
        <ele>1260.6</ele>
        <time>2026-08-18T09:25:21.997Z</time>
      </trkpt>
      <trkpt lat="45.38496" lon="4.61562">
        <ele>1259.8</ele>
        <time>2026-08-18T09:25:23.996Z</time>
      </trkpt>
      <trkpt lat="45.38495" lon="4.61563">
        <ele>1260.4</ele>
        <time>2026-08-18T09:25:25.997Z</time>
      </trkpt>
      <trkpt lat="45.38495" lon="4.61563">
        <ele>1259.7</ele>
        <time>2026-08-18T09:25:26.997Z</time>
      </trkpt>
      <trkpt lat="45.38495" lon="4.61563">
        <ele>1259.7</ele>
        <time>2026-08-18T09:25:27.997Z</time>
      </trkpt>
      <trkpt lat="45.38495" lon="4.61563">
        <ele>1259.7</ele>
        <time>2026-08-18T09:25:28.999Z</time>
      </trkpt>
      <trkpt lat="45.38495" lon="4.61563">
        <ele>1259.3</ele>
        <time>2026-08-18T09:25:30.996Z</time>
      </trkpt>
      <trkpt lat="45.38495" lon="4.61563">
        <ele>1259.3</ele>
        <time>2026-08-18T09:25:31.997Z</time>
      </trkpt>
      <trkpt lat="45.38496" lon="4.61563">
        <ele>1259.3</ele>
        <time>2026-08-18T09:25:32.997Z</time>
      </trkpt>
      <trkpt lat="45.38496" lon="4.61563">
        <ele>1259.3</ele>
        <time>2026-08-18T09:25:34.997Z</time>
      </trkpt>
      <trkpt lat="45.38496" lon="4.61563">
        <ele>1259.3</ele>
        <time>2026-08-18T09:25:36.997Z</time>
      </trkpt>
      <trkpt lat="45.38496" lon="4.61563">
        <ele>1259.3</ele>
        <time>2026-08-18T09:25:37.997Z</time>
      </trkpt>
      <trkpt lat="45.38496" lon="4.61563">
        <ele>1259.6</ele>
        <time>2026-08-18T09:25:39.996Z</time>
      </trkpt>
      <trkpt lat="45.38496" lon="4.61563">
        <ele>1259.6</ele>
        <time>2026-08-18T09:25:40.996Z</time>
      </trkpt>
      <trkpt lat="45.38496" lon="4.61563">
        <ele>1259.6</ele>
        <time>2026-08-18T09:25:41.996Z</time>
      </trkpt>
      <trkpt lat="45.38496" lon="4.61563">
        <ele>1259.6</ele>
        <time>2026-08-18T09:25:42.997Z</time>
      </trkpt>
      <trkpt lat="45.38496" lon="4.61563">
        <ele>1259.6</ele>
        <time>2026-08-18T09:25:44.997Z</time>
      </trkpt>
      <trkpt lat="45.38496" lon="4.61563">
        <ele>1259.6</ele>
        <time>2026-08-18T09:25:46.996Z</time>
      </trkpt>
      <trkpt lat="45.38496" lon="4.61563">
        <ele>1259.6</ele>
        <time>2026-08-18T09:25:47.997Z</time>
      </trkpt>
      <trkpt lat="45.38496" lon="4.61563">
        <ele>1259.6</ele>
        <time>2026-08-18T09:25:49.995Z</time>
      </trkpt>
      <trkpt lat="45.38496" lon="4.61563">
        <ele>1259.6</ele>
        <time>2026-08-18T09:25:50.997Z</time>
      </trkpt>
      <trkpt lat="45.38496" lon="4.61563">
        <ele>1259.6</ele>
        <time>2026-08-18T09:25:51.997Z</time>
      </trkpt>
      <trkpt lat="45.38496" lon="4.61563">
        <ele>1259.6</ele>
        <time>2026-08-18T09:25:53.997Z</time>
      </trkpt>
      <trkpt lat="45.38496" lon="4.61563">
        <ele>1259.6</ele>
        <time>2026-08-18T09:25:54.997Z</time>
      </trkpt>
      <trkpt lat="45.38496" lon="4.61563">
        <ele>1259.6</ele>
        <time>2026-08-18T09:25:55.997Z</time>
      </trkpt>
      <trkpt lat="45.38496" lon="4.61563">
        <ele>1259.6</ele>
        <time>2026-08-18T09:25:56.997Z</time>
      </trkpt>
      <trkpt lat="45.38496" lon="4.61563">
        <ele>1259.6</ele>
        <time>2026-08-18T09:25:58.999Z</time>
      </trkpt>
      <trkpt lat="45.38496" lon="4.61563">
        <ele>1259.6</ele>
        <time>2026-08-18T09:26:00.995Z</time>
      </trkpt>
      <trkpt lat="45.38496" lon="4.61563">
        <ele>1259.6</ele>
        <time>2026-08-18T09:26:01.995Z</time>
      </trkpt>
      <trkpt lat="45.38496" lon="4.61563">
        <ele>1259.6</ele>
        <time>2026-08-18T09:26:02.995Z</time>
      </trkpt>
      <trkpt lat="45.38496" lon="4.61563">
        <ele>1259.6</ele>
        <time>2026-08-18T09:26:03.995Z</time>
      </trkpt>
      <trkpt lat="45.38496" lon="4.61563">
        <ele>1259.6</ele>
        <time>2026-08-18T09:26:04.995Z</time>
      </trkpt>
      <trkpt lat="45.38496" lon="4.61563">
        <ele>1259.6</ele>
        <time>2026-08-18T09:26:05.996Z</time>
      </trkpt>
      <trkpt lat="45.38496" lon="4.61563">
        <ele>1259.6</ele>
        <time>2026-08-18T09:26:07.995Z</time>
      </trkpt>
      <trkpt lat="45.38496" lon="4.61563">
        <ele>1259.6</ele>
        <time>2026-08-18T09:26:08.996Z</time>
      </trkpt>
      <trkpt lat="45.38496" lon="4.61563">
        <ele>1259.6</ele>
        <time>2026-08-18T09:26:10.996Z</time>
      </trkpt>
      <trkpt lat="45.38496" lon="4.61563">
        <ele>1259.6</ele>
        <time>2026-08-18T09:26:11.996Z</time>
      </trkpt>
      <trkpt lat="45.38496" lon="4.61563">
        <ele>1259.6</ele>
        <time>2026-08-18T09:26:12.996Z</time>
      </trkpt>
      <trkpt lat="45.38496" lon="4.61563">
        <ele>1259.6</ele>
        <time>2026-08-18T09:26:13.996Z</time>
      </trkpt>
      <trkpt lat="45.38496" lon="4.61563">
        <ele>1259.6</ele>
        <time>2026-08-18T09:26:14.996Z</time>
      </trkpt>
      <trkpt lat="45.38496" lon="4.61563">
        <ele>1259.6</ele>
        <time>2026-08-18T09:26:16.000Z</time>
      </trkpt>
      <trkpt lat="45.38496" lon="4.61563">
        <ele>1259.6</ele>
        <time>2026-08-18T09:26:17.995Z</time>
      </trkpt>
      <trkpt lat="45.38496" lon="4.61563">
        <ele>1259.6</ele>
        <time>2026-08-18T09:26:18.996Z</time>
      </trkpt>
      <trkpt lat="45.38496" lon="4.61563">
        <ele>1259.6</ele>
        <time>2026-08-18T09:26:20.996Z</time>
      </trkpt>
      <trkpt lat="45.38496" lon="4.61563">
        <ele>1259.6</ele>
        <time>2026-08-18T09:26:22.996Z</time>
      </trkpt>
      <trkpt lat="45.38496" lon="4.61563">
        <ele>1259.6</ele>
        <time>2026-08-18T09:26:23.996Z</time>
      </trkpt>
      <trkpt lat="45.38496" lon="4.61563">
        <ele>1259.6</ele>
        <time>2026-08-18T09:26:24.996Z</time>
      </trkpt>
      <trkpt lat="45.38496" lon="4.61563">
        <ele>1259.6</ele>
        <time>2026-08-18T09:26:26.995Z</time>
      </trkpt>
      <trkpt lat="45.38496" lon="4.61563">
        <ele>1259.7</ele>
        <time>2026-08-18T09:26:28.995Z</time>
      </trkpt>
      <trkpt lat="45.38496" lon="4.61563">
        <ele>1259.7</ele>
        <time>2026-08-18T09:26:29.995Z</time>
      </trkpt>
      <trkpt lat="45.38496" lon="4.61563">
        <ele>1259.7</ele>
        <time>2026-08-18T09:26:30.996Z</time>
      </trkpt>
      <trkpt lat="45.38496" lon="4.61563">
        <ele>1259.7</ele>
        <time>2026-08-18T09:26:33.002Z</time>
      </trkpt>
      <trkpt lat="45.38496" lon="4.61563">
        <ele>1259.7</ele>
        <time>2026-08-18T09:26:34.996Z</time>
      </trkpt>
      <trkpt lat="45.38496" lon="4.61563">
        <ele>1259.7</ele>
        <time>2026-08-18T09:26:36.996Z</time>
      </trkpt>
      <trkpt lat="45.38496" lon="4.61563">
        <ele>1259.7</ele>
        <time>2026-08-18T09:26:38.996Z</time>
      </trkpt>
      <trkpt lat="45.38496" lon="4.61563">
        <ele>1259.6</ele>
        <time>2026-08-18T09:26:39.996Z</time>
      </trkpt>
      <trkpt lat="45.38496" lon="4.61563">
        <ele>1259.5</ele>
        <time>2026-08-18T09:26:41.996Z</time>
      </trkpt>
      <trkpt lat="45.38496" lon="4.61563">
        <ele>1259.4</ele>
        <time>2026-08-18T09:26:42.996Z</time>
      </trkpt>
      <trkpt lat="45.38496" lon="4.61563">
        <ele>1259.4</ele>
        <time>2026-08-18T09:26:43.996Z</time>
      </trkpt>
      <trkpt lat="45.38496" lon="4.61562">
        <ele>1259.4</ele>
        <time>2026-08-18T09:26:45.995Z</time>
      </trkpt>
      <trkpt lat="45.38496" lon="4.61562">
        <ele>1259.4</ele>
        <time>2026-08-18T09:26:46.995Z</time>
      </trkpt>
      <trkpt lat="45.38496" lon="4.61562">
        <ele>1259.4</ele>
        <time>2026-08-18T09:26:47.996Z</time>
      </trkpt>
      <trkpt lat="45.38496" lon="4.61562">
        <ele>1259.4</ele>
        <time>2026-08-18T09:26:48.996Z</time>
      </trkpt>
      <trkpt lat="45.38496" lon="4.61562">
        <ele>1259.4</ele>
        <time>2026-08-18T09:26:50.995Z</time>
      </trkpt>
      <trkpt lat="45.38496" lon="4.61562">
        <ele>1259.4</ele>
        <time>2026-08-18T09:26:51.996Z</time>
      </trkpt>
      <trkpt lat="45.38496" lon="4.61562">
        <ele>1259.1</ele>
        <time>2026-08-18T09:26:52.996Z</time>
      </trkpt>
      <trkpt lat="45.38496" lon="4.61562">
        <ele>1259.6</ele>
        <time>2026-08-18T09:26:55.005Z</time>
      </trkpt>
      <trkpt lat="45.38497" lon="4.61564">
        <ele>1260</ele>
        <time>2026-08-18T09:26:56.995Z</time>
      </trkpt>
      <trkpt lat="45.38498" lon="4.61566">
        <ele>1259.7</ele>
        <time>2026-08-18T09:26:58.995Z</time>
      </trkpt>
      <trkpt lat="45.38498" lon="4.61566">
        <ele>1259.5</ele>
        <time>2026-08-18T09:26:59.996Z</time>
      </trkpt>
      <trkpt lat="45.38499" lon="4.61569">
        <ele>1259.3</ele>
        <time>2026-08-18T09:27:01.996Z</time>
      </trkpt>
      <trkpt lat="45.385" lon="4.61571">
        <ele>1259.6</ele>
        <time>2026-08-18T09:27:04.009Z</time>
      </trkpt>
      <trkpt lat="45.38501" lon="4.61573">
        <ele>1259.1</ele>
        <time>2026-08-18T09:27:05.996Z</time>
      </trkpt>
      <trkpt lat="45.38503" lon="4.61575">
        <ele>1259.6</ele>
        <time>2026-08-18T09:27:07.996Z</time>
      </trkpt>
      <trkpt lat="45.38505" lon="4.61578">
        <ele>1259.3</ele>
        <time>2026-08-18T09:27:09.907Z</time>
      </trkpt>
      <trkpt lat="45.38505" lon="4.6158">
        <ele>1258.8</ele>
        <time>2026-08-18T09:27:10.995Z</time>
      </trkpt>
      <trkpt lat="45.38506" lon="4.61582">
        <ele>1259.2</ele>
        <time>2026-08-18T09:27:11.996Z</time>
      </trkpt>
      <trkpt lat="45.38508" lon="4.61585">
        <ele>1259.5</ele>
        <time>2026-08-18T09:27:13.996Z</time>
      </trkpt>
      <trkpt lat="45.38508" lon="4.61585">
        <ele>1260.2</ele>
        <time>2026-08-18T09:27:14.996Z</time>
      </trkpt>
      <trkpt lat="45.38509" lon="4.61586">
        <ele>1260.6</ele>
        <time>2026-08-18T09:27:15.996Z</time>
      </trkpt>
      <trkpt lat="45.38509" lon="4.61588">
        <ele>1261.1</ele>
        <time>2026-08-18T09:27:16.996Z</time>
      </trkpt>
      <trkpt lat="45.3851" lon="4.61589">
        <ele>1260.7</ele>
        <time>2026-08-18T09:27:17.996Z</time>
      </trkpt>
      <trkpt lat="45.3851" lon="4.6159">
        <ele>1260.4</ele>
        <time>2026-08-18T09:27:18.996Z</time>
      </trkpt>
      <trkpt lat="45.38511" lon="4.61593">
        <ele>1260.7</ele>
        <time>2026-08-18T09:27:20.975Z</time>
      </trkpt>
      <trkpt lat="45.38512" lon="4.61595">
        <ele>1260.2</ele>
        <time>2026-08-18T09:27:21.996Z</time>
      </trkpt>
      <trkpt lat="45.38512" lon="4.61595">
        <ele>1259.8</ele>
        <time>2026-08-18T09:27:22.996Z</time>
      </trkpt>
      <trkpt lat="45.38513" lon="4.61596">
        <ele>1259.8</ele>
        <time>2026-08-18T09:27:23.996Z</time>
      </trkpt>
      <trkpt lat="45.38515" lon="4.61598">
        <ele>1259.6</ele>
        <time>2026-08-18T09:27:25.995Z</time>
      </trkpt>
      <trkpt lat="45.38516" lon="4.61598">
        <ele>1259.2</ele>
        <time>2026-08-18T09:27:26.996Z</time>
      </trkpt>
      <trkpt lat="45.38516" lon="4.61599">
        <ele>1259.4</ele>
        <time>2026-08-18T09:27:28.972Z</time>
      </trkpt>
      <trkpt lat="45.38517" lon="4.616">
        <ele>1259.1</ele>
        <time>2026-08-18T09:27:29.995Z</time>
      </trkpt>
      <trkpt lat="45.38518" lon="4.616">
        <ele>1259.3</ele>
        <time>2026-08-18T09:27:30.996Z</time>
      </trkpt>
      <trkpt lat="45.38518" lon="4.616">
        <ele>1259.4</ele>
        <time>2026-08-18T09:27:31.996Z</time>
      </trkpt>
      <trkpt lat="45.38518" lon="4.616">
        <ele>1259.4</ele>
        <time>2026-08-18T09:27:32.996Z</time>
      </trkpt>
      <trkpt lat="45.38517" lon="4.616">
        <ele>1259.4</ele>
        <time>2026-08-18T09:27:33.996Z</time>
      </trkpt>
      <trkpt lat="45.38517" lon="4.616">
        <ele>1259.4</ele>
        <time>2026-08-18T09:27:34.996Z</time>
      </trkpt>
      <trkpt lat="45.38517" lon="4.61599">
        <ele>1259.4</ele>
        <time>2026-08-18T09:27:35.996Z</time>
      </trkpt>
      <trkpt lat="45.38517" lon="4.61599">
        <ele>1259.4</ele>
        <time>2026-08-18T09:27:36.996Z</time>
      </trkpt>
      <trkpt lat="45.38517" lon="4.61599">
        <ele>1259.4</ele>
        <time>2026-08-18T09:27:38.996Z</time>
      </trkpt>
      <trkpt lat="45.38517" lon="4.61599">
        <ele>1259.4</ele>
        <time>2026-08-18T09:27:39.996Z</time>
      </trkpt>
      <trkpt lat="45.38517" lon="4.61599">
        <ele>1259.4</ele>
        <time>2026-08-18T09:27:41.995Z</time>
      </trkpt>
      <trkpt lat="45.38517" lon="4.61599">
        <ele>1259.4</ele>
        <time>2026-08-18T09:27:42.995Z</time>
      </trkpt>
      <trkpt lat="45.38517" lon="4.61599">
        <ele>1259.4</ele>
        <time>2026-08-18T09:27:43.996Z</time>
      </trkpt>
      <trkpt lat="45.38517" lon="4.61599">
        <ele>1259.4</ele>
        <time>2026-08-18T09:27:45.995Z</time>
      </trkpt>
      <trkpt lat="45.38517" lon="4.61599">
        <ele>1259.4</ele>
        <time>2026-08-18T09:27:46.996Z</time>
      </trkpt>
      <trkpt lat="45.38517" lon="4.61599">
        <ele>1259.4</ele>
        <time>2026-08-18T09:27:48.995Z</time>
      </trkpt>
      <trkpt lat="45.38517" lon="4.61599">
        <ele>1259.4</ele>
        <time>2026-08-18T09:27:49.996Z</time>
      </trkpt>
      <trkpt lat="45.38517" lon="4.61599">
        <ele>1259.4</ele>
        <time>2026-08-18T09:27:50.996Z</time>
      </trkpt>
      <trkpt lat="45.38517" lon="4.61599">
        <ele>1259.4</ele>
        <time>2026-08-18T09:27:52.996Z</time>
      </trkpt>
      <trkpt lat="45.38517" lon="4.61599">
        <ele>1259.4</ele>
        <time>2026-08-18T09:27:54.996Z</time>
      </trkpt>
      <trkpt lat="45.38517" lon="4.61599">
        <ele>1259.4</ele>
        <time>2026-08-18T09:27:56.996Z</time>
      </trkpt>
      <trkpt lat="45.38517" lon="4.61599">
        <ele>1259.4</ele>
        <time>2026-08-18T09:27:57.996Z</time>
      </trkpt>
      <trkpt lat="45.38517" lon="4.61599">
        <ele>1259.4</ele>
        <time>2026-08-18T09:27:59.996Z</time>
      </trkpt>
      <trkpt lat="45.38517" lon="4.61599">
        <ele>1259.4</ele>
        <time>2026-08-18T09:28:01.995Z</time>
      </trkpt>
      <trkpt lat="45.38517" lon="4.61599">
        <ele>1259.4</ele>
        <time>2026-08-18T09:28:02.996Z</time>
      </trkpt>
      <trkpt lat="45.38517" lon="4.61599">
        <ele>1259.4</ele>
        <time>2026-08-18T09:28:03.996Z</time>
      </trkpt>
      <trkpt lat="45.38517" lon="4.61599">
        <ele>1259.4</ele>
        <time>2026-08-18T09:28:04.996Z</time>
      </trkpt>
      <trkpt lat="45.38517" lon="4.61599">
        <ele>1259.4</ele>
        <time>2026-08-18T09:28:05.996Z</time>
      </trkpt>
      <trkpt lat="45.38517" lon="4.61599">
        <ele>1259.4</ele>
        <time>2026-08-18T09:28:06.996Z</time>
      </trkpt>
      <trkpt lat="45.38517" lon="4.61599">
        <ele>1259.4</ele>
        <time>2026-08-18T09:28:08.995Z</time>
      </trkpt>
      <trkpt lat="45.38517" lon="4.61599">
        <ele>1259.4</ele>
        <time>2026-08-18T09:28:09.995Z</time>
      </trkpt>
      <trkpt lat="45.38517" lon="4.61599">
        <ele>1259.4</ele>
        <time>2026-08-18T09:28:10.996Z</time>
      </trkpt>
      <trkpt lat="45.38517" lon="4.61599">
        <ele>1259.4</ele>
        <time>2026-08-18T09:28:11.996Z</time>
      </trkpt>
      <trkpt lat="45.38517" lon="4.61599">
        <ele>1259.4</ele>
        <time>2026-08-18T09:28:12.996Z</time>
      </trkpt>
      <trkpt lat="45.38517" lon="4.61599">
        <ele>1259.4</ele>
        <time>2026-08-18T09:28:13.996Z</time>
      </trkpt>
      <trkpt lat="45.38517" lon="4.61599">
        <ele>1259.4</ele>
        <time>2026-08-18T09:28:15.996Z</time>
      </trkpt>
      <trkpt lat="45.38517" lon="4.61599">
        <ele>1259.4</ele>
        <time>2026-08-18T09:28:16.996Z</time>
      </trkpt>
      <trkpt lat="45.38517" lon="4.61599">
        <ele>1259.4</ele>
        <time>2026-08-18T09:28:17.996Z</time>
      </trkpt>
      <trkpt lat="45.38517" lon="4.61599">
        <ele>1259.4</ele>
        <time>2026-08-18T09:28:18.996Z</time>
      </trkpt>
      <trkpt lat="45.38517" lon="4.61599">
        <ele>1259.4</ele>
        <time>2026-08-18T09:28:20.996Z</time>
      </trkpt>
      <trkpt lat="45.38517" lon="4.61599">
        <ele>1259.4</ele>
        <time>2026-08-18T09:28:21.996Z</time>
      </trkpt>
      <trkpt lat="45.38517" lon="4.61599">
        <ele>1259.4</ele>
        <time>2026-08-18T09:28:22.996Z</time>
      </trkpt>
      <trkpt lat="45.38517" lon="4.61599">
        <ele>1259.4</ele>
        <time>2026-08-18T09:28:24.996Z</time>
      </trkpt>
      <trkpt lat="45.38517" lon="4.61599">
        <ele>1259.4</ele>
        <time>2026-08-18T09:28:25.996Z</time>
      </trkpt>
      <trkpt lat="45.38517" lon="4.61599">
        <ele>1259.4</ele>
        <time>2026-08-18T09:28:26.996Z</time>
      </trkpt>
      <trkpt lat="45.38517" lon="4.61599">
        <ele>1259.4</ele>
        <time>2026-08-18T09:28:27.996Z</time>
      </trkpt>
      <trkpt lat="45.38517" lon="4.61599">
        <ele>1259.4</ele>
        <time>2026-08-18T09:28:28.996Z</time>
      </trkpt>
      <trkpt lat="45.38517" lon="4.61599">
        <ele>1259.4</ele>
        <time>2026-08-18T09:28:29.996Z</time>
      </trkpt>
      <trkpt lat="45.38517" lon="4.61599">
        <ele>1259.4</ele>
        <time>2026-08-18T09:28:31.995Z</time>
      </trkpt>
      <trkpt lat="45.38517" lon="4.61599">
        <ele>1259.4</ele>
        <time>2026-08-18T09:28:32.996Z</time>
      </trkpt>
      <trkpt lat="45.38517" lon="4.61599">
        <ele>1259.4</ele>
        <time>2026-08-18T09:28:33.996Z</time>
      </trkpt>
      <trkpt lat="45.38517" lon="4.61599">
        <ele>1258.9</ele>
        <time>2026-08-18T09:28:34.996Z</time>
      </trkpt>
      <trkpt lat="45.38517" lon="4.61599">
        <ele>1258.9</ele>
        <time>2026-08-18T09:28:35.996Z</time>
      </trkpt>
      <trkpt lat="45.38517" lon="4.61599">
        <ele>1259.5</ele>
        <time>2026-08-18T09:28:36.996Z</time>
      </trkpt>
      <trkpt lat="45.38517" lon="4.61599">
        <ele>1259.5</ele>
        <time>2026-08-18T09:28:38.995Z</time>
      </trkpt>
      <trkpt lat="45.38517" lon="4.61599">
        <ele>1259.5</ele>
        <time>2026-08-18T09:28:39.996Z</time>
      </trkpt>
      <trkpt lat="45.38517" lon="4.61599">
        <ele>1259.5</ele>
        <time>2026-08-18T09:28:41.996Z</time>
      </trkpt>
      <trkpt lat="45.38517" lon="4.616">
        <ele>1259.5</ele>
        <time>2026-08-18T09:28:42.996Z</time>
      </trkpt>
      <trkpt lat="45.38517" lon="4.616">
        <ele>1259.8</ele>
        <time>2026-08-18T09:28:43.996Z</time>
      </trkpt>
      <trkpt lat="45.38517" lon="4.616">
        <ele>1259.8</ele>
        <time>2026-08-18T09:28:44.996Z</time>
      </trkpt>
      <trkpt lat="45.38517" lon="4.616">
        <ele>1259.8</ele>
        <time>2026-08-18T09:28:45.996Z</time>
      </trkpt>
      <trkpt lat="45.38517" lon="4.616">
        <ele>1259.8</ele>
        <time>2026-08-18T09:28:46.996Z</time>
      </trkpt>
      <trkpt lat="45.38517" lon="4.616">
        <ele>1259.8</ele>
        <time>2026-08-18T09:28:48.995Z</time>
      </trkpt>
      <trkpt lat="45.38517" lon="4.616">
        <ele>1259.8</ele>
        <time>2026-08-18T09:28:49.996Z</time>
      </trkpt>
      <trkpt lat="45.38517" lon="4.616">
        <ele>1259.8</ele>
        <time>2026-08-18T09:28:51.995Z</time>
      </trkpt>
      <trkpt lat="45.38517" lon="4.616">
        <ele>1259.8</ele>
        <time>2026-08-18T09:28:52.996Z</time>
      </trkpt>
      <trkpt lat="45.38517" lon="4.616">
        <ele>1259.8</ele>
        <time>2026-08-18T09:28:53.996Z</time>
      </trkpt>
      <trkpt lat="45.38517" lon="4.616">
        <ele>1259.8</ele>
        <time>2026-08-18T09:28:55.996Z</time>
      </trkpt>
      <trkpt lat="45.38517" lon="4.616">
        <ele>1259.8</ele>
        <time>2026-08-18T09:28:56.996Z</time>
      </trkpt>
      <trkpt lat="45.38517" lon="4.616">
        <ele>1259.8</ele>
        <time>2026-08-18T09:28:57.996Z</time>
      </trkpt>
      <trkpt lat="45.38517" lon="4.616">
        <ele>1259.8</ele>
        <time>2026-08-18T09:28:58.996Z</time>
      </trkpt>
      <trkpt lat="45.38517" lon="4.616">
        <ele>1259.8</ele>
        <time>2026-08-18T09:28:59.996Z</time>
      </trkpt>
      <trkpt lat="45.38517" lon="4.616">
        <ele>1259.8</ele>
        <time>2026-08-18T09:29:00.996Z</time>
      </trkpt>
      <trkpt lat="45.38517" lon="4.616">
        <ele>1259.8</ele>
        <time>2026-08-18T09:29:01.996Z</time>
      </trkpt>
      <trkpt lat="45.38517" lon="4.616">
        <ele>1259.8</ele>
        <time>2026-08-18T09:29:03.995Z</time>
      </trkpt>
      <trkpt lat="45.38517" lon="4.616">
        <ele>1259.8</ele>
        <time>2026-08-18T09:29:04.995Z</time>
      </trkpt>
      <trkpt lat="45.38517" lon="4.616">
        <ele>1259.8</ele>
        <time>2026-08-18T09:29:05.995Z</time>
      </trkpt>
      <trkpt lat="45.38517" lon="4.616">
        <ele>1259.8</ele>
        <time>2026-08-18T09:29:06.995Z</time>
      </trkpt>
      <trkpt lat="45.38517" lon="4.616">
        <ele>1259.8</ele>
        <time>2026-08-18T09:29:08.996Z</time>
      </trkpt>
      <trkpt lat="45.38517" lon="4.616">
        <ele>1259.8</ele>
        <time>2026-08-18T09:29:10.996Z</time>
      </trkpt>
      <trkpt lat="45.38517" lon="4.616">
        <ele>1259.8</ele>
        <time>2026-08-18T09:29:12.995Z</time>
      </trkpt>
      <trkpt lat="45.38517" lon="4.616">
        <ele>1259.8</ele>
        <time>2026-08-18T09:29:14.996Z</time>
      </trkpt>
      <trkpt lat="45.38517" lon="4.616">
        <ele>1259.6</ele>
        <time>2026-08-18T09:29:16.996Z</time>
      </trkpt>
      <trkpt lat="45.38517" lon="4.616">
        <ele>1259.6</ele>
        <time>2026-08-18T09:29:17.996Z</time>
      </trkpt>
      <trkpt lat="45.38517" lon="4.616">
        <ele>1259.5</ele>
        <time>2026-08-18T09:29:18.996Z</time>
      </trkpt>
      <trkpt lat="45.38517" lon="4.616">
        <ele>1259.8</ele>
        <time>2026-08-18T09:29:19.996Z</time>
      </trkpt>
      <trkpt lat="45.38517" lon="4.616">
        <ele>1259.6</ele>
        <time>2026-08-18T09:29:20.996Z</time>
      </trkpt>
      <trkpt lat="45.38517" lon="4.61599">
        <ele>1259.6</ele>
        <time>2026-08-18T09:29:21.996Z</time>
      </trkpt>
      <trkpt lat="45.38517" lon="4.61599">
        <ele>1259.6</ele>
        <time>2026-08-18T09:29:22.996Z</time>
      </trkpt>
      <trkpt lat="45.38517" lon="4.61599">
        <ele>1259.6</ele>
        <time>2026-08-18T09:29:23.996Z</time>
      </trkpt>
      <trkpt lat="45.38517" lon="4.61599">
        <ele>1259.6</ele>
        <time>2026-08-18T09:29:24.996Z</time>
      </trkpt>
      <trkpt lat="45.38517" lon="4.61599">
        <ele>1259.6</ele>
        <time>2026-08-18T09:29:26.996Z</time>
      </trkpt>
      <trkpt lat="45.38517" lon="4.61598">
        <ele>1259.7</ele>
        <time>2026-08-18T09:29:27.996Z</time>
      </trkpt>
      <trkpt lat="45.38517" lon="4.61598">
        <ele>1259.7</ele>
        <time>2026-08-18T09:29:28.996Z</time>
      </trkpt>
      <trkpt lat="45.38517" lon="4.61598">
        <ele>1259.7</ele>
        <time>2026-08-18T09:29:29.996Z</time>
      </trkpt>
      <trkpt lat="45.38517" lon="4.61598">
        <ele>1259.7</ele>
        <time>2026-08-18T09:29:30.996Z</time>
      </trkpt>
      <trkpt lat="45.38517" lon="4.61598">
        <ele>1259.7</ele>
        <time>2026-08-18T09:29:31.996Z</time>
      </trkpt>
      <trkpt lat="45.38517" lon="4.61598">
        <ele>1259.7</ele>
        <time>2026-08-18T09:29:32.996Z</time>
      </trkpt>
      <trkpt lat="45.38516" lon="4.61597">
        <ele>1259.6</ele>
        <time>2026-08-18T09:29:34.996Z</time>
      </trkpt>
      <trkpt lat="45.38515" lon="4.61596">
        <ele>1260.1</ele>
        <time>2026-08-18T09:29:36.996Z</time>
      </trkpt>
      <trkpt lat="45.38514" lon="4.61594">
        <ele>1259.8</ele>
        <time>2026-08-18T09:29:37.996Z</time>
      </trkpt>
      <trkpt lat="45.38515" lon="4.61593">
        <ele>1259.7</ele>
        <time>2026-08-18T09:29:38.996Z</time>
      </trkpt>
      <trkpt lat="45.38515" lon="4.61592">
        <ele>1259.7</ele>
        <time>2026-08-18T09:29:40.996Z</time>
      </trkpt>
      <trkpt lat="45.38515" lon="4.61592">
        <ele>1259.7</ele>
        <time>2026-08-18T09:29:41.996Z</time>
      </trkpt>
      <trkpt lat="45.38515" lon="4.61593">
        <ele>1259.7</ele>
        <time>2026-08-18T09:29:43.995Z</time>
      </trkpt>
      <trkpt lat="45.38515" lon="4.61593">
        <ele>1259.7</ele>
        <time>2026-08-18T09:29:44.995Z</time>
      </trkpt>
      <trkpt lat="45.38515" lon="4.61593">
        <ele>1259.7</ele>
        <time>2026-08-18T09:29:45.996Z</time>
      </trkpt>
      <trkpt lat="45.38515" lon="4.61593">
        <ele>1259.7</ele>
        <time>2026-08-18T09:29:46.996Z</time>
      </trkpt>
      <trkpt lat="45.38516" lon="4.61593">
        <ele>1259.7</ele>
        <time>2026-08-18T09:29:47.996Z</time>
      </trkpt>
      <trkpt lat="45.38515" lon="4.61593">
        <ele>1259.7</ele>
        <time>2026-08-18T09:29:49.996Z</time>
      </trkpt>
      <trkpt lat="45.38516" lon="4.61593">
        <ele>1259.7</ele>
        <time>2026-08-18T09:29:50.996Z</time>
      </trkpt>
      <trkpt lat="45.38515" lon="4.61593">
        <ele>1259.7</ele>
        <time>2026-08-18T09:29:52.987Z</time>
      </trkpt>
      <trkpt lat="45.38515" lon="4.61593">
        <ele>1259.7</ele>
        <time>2026-08-18T09:29:53.994Z</time>
      </trkpt>
      <trkpt lat="45.38515" lon="4.61593">
        <ele>1259.7</ele>
        <time>2026-08-18T09:29:54.996Z</time>
      </trkpt>
      <trkpt lat="45.38516" lon="4.61593">
        <ele>1259.7</ele>
        <time>2026-08-18T09:29:56.994Z</time>
      </trkpt>
      <trkpt lat="45.38516" lon="4.61593">
        <ele>1259.7</ele>
        <time>2026-08-18T09:29:57.996Z</time>
      </trkpt>
      <trkpt lat="45.38516" lon="4.61593">
        <ele>1259.7</ele>
        <time>2026-08-18T09:29:58.996Z</time>
      </trkpt>
      <trkpt lat="45.38516" lon="4.61593">
        <ele>1259.7</ele>
        <time>2026-08-18T09:29:59.996Z</time>
      </trkpt>
      <trkpt lat="45.38516" lon="4.61593">
        <ele>1259.7</ele>
        <time>2026-08-18T09:30:01.996Z</time>
      </trkpt>
      <trkpt lat="45.38516" lon="4.61593">
        <ele>1259.7</ele>
        <time>2026-08-18T09:30:02.996Z</time>
      </trkpt>
      <trkpt lat="45.38516" lon="4.61593">
        <ele>1259.7</ele>
        <time>2026-08-18T09:30:03.996Z</time>
      </trkpt>
      <trkpt lat="45.38516" lon="4.61593">
        <ele>1259.7</ele>
        <time>2026-08-18T09:30:05.996Z</time>
      </trkpt>
      <trkpt lat="45.38516" lon="4.61593">
        <ele>1259.8</ele>
        <time>2026-08-18T09:30:07.995Z</time>
      </trkpt>
      <trkpt lat="45.38516" lon="4.61593">
        <ele>1259.8</ele>
        <time>2026-08-18T09:30:08.996Z</time>
      </trkpt>
      <trkpt lat="45.38516" lon="4.61593">
        <ele>1259.7</ele>
        <time>2026-08-18T09:30:10.996Z</time>
      </trkpt>
      <trkpt lat="45.38517" lon="4.61594">
        <ele>1259.7</ele>
        <time>2026-08-18T09:30:12.947Z</time>
      </trkpt>
      <trkpt lat="45.38517" lon="4.61595">
        <ele>1259.8</ele>
        <time>2026-08-18T09:30:13.995Z</time>
      </trkpt>
      <trkpt lat="45.38517" lon="4.61596">
        <ele>1259.8</ele>
        <time>2026-08-18T09:30:14.996Z</time>
      </trkpt>
      <trkpt lat="45.38517" lon="4.61596">
        <ele>1259.8</ele>
        <time>2026-08-18T09:30:16.995Z</time>
      </trkpt>
      <trkpt lat="45.38517" lon="4.61596">
        <ele>1259.8</ele>
        <time>2026-08-18T09:30:17.996Z</time>
      </trkpt>
      <trkpt lat="45.38517" lon="4.61596">
        <ele>1259.8</ele>
        <time>2026-08-18T09:30:19.011Z</time>
      </trkpt>
      <trkpt lat="45.38517" lon="4.61596">
        <ele>1259.8</ele>
        <time>2026-08-18T09:30:20.996Z</time>
      </trkpt>
      <trkpt lat="45.38517" lon="4.61596">
        <ele>1259.8</ele>
        <time>2026-08-18T09:30:21.996Z</time>
      </trkpt>
      <trkpt lat="45.38517" lon="4.61596">
        <ele>1259.8</ele>
        <time>2026-08-18T09:30:22.996Z</time>
      </trkpt>
      <trkpt lat="45.38517" lon="4.61597">
        <ele>1259.8</ele>
        <time>2026-08-18T09:30:24.996Z</time>
      </trkpt>
      <trkpt lat="45.38517" lon="4.61597">
        <ele>1259.8</ele>
        <time>2026-08-18T09:30:26.995Z</time>
      </trkpt>
      <trkpt lat="45.38517" lon="4.61597">
        <ele>1259.4</ele>
        <time>2026-08-18T09:30:27.996Z</time>
      </trkpt>
      <trkpt lat="45.38517" lon="4.61598">
        <ele>1259.2</ele>
        <time>2026-08-18T09:30:29.996Z</time>
      </trkpt>
      <trkpt lat="45.38517" lon="4.61599">
        <ele>1258.4</ele>
        <time>2026-08-18T09:30:31.995Z</time>
      </trkpt>
      <trkpt lat="45.38517" lon="4.61599">
        <ele>1258.4</ele>
        <time>2026-08-18T09:30:32.996Z</time>
      </trkpt>
      <trkpt lat="45.38518" lon="4.61602">
        <ele>1257.6</ele>
        <time>2026-08-18T09:30:34.995Z</time>
      </trkpt>
      <trkpt lat="45.38518" lon="4.61604">
        <ele>1257</ele>
        <time>2026-08-18T09:30:35.995Z</time>
      </trkpt>
      <trkpt lat="45.38519" lon="4.61605">
        <ele>1256.9</ele>
        <time>2026-08-18T09:30:36.996Z</time>
      </trkpt>
      <trkpt lat="45.38519" lon="4.61606">
        <ele>1256</ele>
        <time>2026-08-18T09:30:37.996Z</time>
      </trkpt>
      <trkpt lat="45.38519" lon="4.61607">
        <ele>1256.2</ele>
        <time>2026-08-18T09:30:38.996Z</time>
      </trkpt>
      <trkpt lat="45.38519" lon="4.61607">
        <ele>1255.7</ele>
        <time>2026-08-18T09:30:39.996Z</time>
      </trkpt>
      <trkpt lat="45.3852" lon="4.61608">
        <ele>1256.7</ele>
        <time>2026-08-18T09:30:40.996Z</time>
      </trkpt>
      <trkpt lat="45.3852" lon="4.61608">
        <ele>1256.7</ele>
        <time>2026-08-18T09:30:41.996Z</time>
      </trkpt>
      <trkpt lat="45.3852" lon="4.61607">
        <ele>1256.7</ele>
        <time>2026-08-18T09:30:43.996Z</time>
      </trkpt>
      <trkpt lat="45.3852" lon="4.61607">
        <ele>1256.7</ele>
        <time>2026-08-18T09:30:44.996Z</time>
      </trkpt>
      <trkpt lat="45.3852" lon="4.61606">
        <ele>1256.6</ele>
        <time>2026-08-18T09:30:46.995Z</time>
      </trkpt>
      <trkpt lat="45.38519" lon="4.61606">
        <ele>1256.5</ele>
        <time>2026-08-18T09:30:48.996Z</time>
      </trkpt>
      <trkpt lat="45.38519" lon="4.61606">
        <ele>1256.4</ele>
        <time>2026-08-18T09:30:50.996Z</time>
      </trkpt>
      <trkpt lat="45.38519" lon="4.61607">
        <ele>1254.8</ele>
        <time>2026-08-18T09:30:51.996Z</time>
      </trkpt>
      <trkpt lat="45.3852" lon="4.6161">
        <ele>1254.3</ele>
        <time>2026-08-18T09:30:53.995Z</time>
      </trkpt>
      <trkpt lat="45.3852" lon="4.61613">
        <ele>1251.6</ele>
        <time>2026-08-18T09:30:55.996Z</time>
      </trkpt>
      <trkpt lat="45.38521" lon="4.61614">
        <ele>1253.2</ele>
        <time>2026-08-18T09:30:56.996Z</time>
      </trkpt>
      <trkpt lat="45.38522" lon="4.61617">
        <ele>1253.7</ele>
        <time>2026-08-18T09:30:58.996Z</time>
      </trkpt>
      <trkpt lat="45.38522" lon="4.61619">
        <ele>1253.5</ele>
        <time>2026-08-18T09:31:00.996Z</time>
      </trkpt>
      <trkpt lat="45.38523" lon="4.6162">
        <ele>1253.6</ele>
        <time>2026-08-18T09:31:01.996Z</time>
      </trkpt>
      <trkpt lat="45.38523" lon="4.61623">
        <ele>1253.9</ele>
        <time>2026-08-18T09:31:03.995Z</time>
      </trkpt>
      <trkpt lat="45.38523" lon="4.61625">
        <ele>1254.3</ele>
        <time>2026-08-18T09:31:04.996Z</time>
      </trkpt>
      <trkpt lat="45.38523" lon="4.61626">
        <ele>1253.8</ele>
        <time>2026-08-18T09:31:05.996Z</time>
      </trkpt>
      <trkpt lat="45.38523" lon="4.61628">
        <ele>1254.3</ele>
        <time>2026-08-18T09:31:07.996Z</time>
      </trkpt>
      <trkpt lat="45.38523" lon="4.61629">
        <ele>1254.8</ele>
        <time>2026-08-18T09:31:08.996Z</time>
      </trkpt>
      <trkpt lat="45.38523" lon="4.61631">
        <ele>1253.6</ele>
        <time>2026-08-18T09:31:10.995Z</time>
      </trkpt>
      <trkpt lat="45.38523" lon="4.61633">
        <ele>1254.1</ele>
        <time>2026-08-18T09:31:11.995Z</time>
      </trkpt>
      <trkpt lat="45.38523" lon="4.61635">
        <ele>1252.5</ele>
        <time>2026-08-18T09:31:13.995Z</time>
      </trkpt>
      <trkpt lat="45.38523" lon="4.61637">
        <ele>1252.8</ele>
        <time>2026-08-18T09:31:14.996Z</time>
      </trkpt>
      <trkpt lat="45.38525" lon="4.61639">
        <ele>1252.1</ele>
        <time>2026-08-18T09:31:16.995Z</time>
      </trkpt>
      <trkpt lat="45.38527" lon="4.6164">
        <ele>1252.8</ele>
        <time>2026-08-18T09:31:18.996Z</time>
      </trkpt>
      <trkpt lat="45.38528" lon="4.61643">
        <ele>1253.1</ele>
        <time>2026-08-18T09:31:20.927Z</time>
      </trkpt>
      <trkpt lat="45.38528" lon="4.61644">
        <ele>1252</ele>
        <time>2026-08-18T09:31:21.999Z</time>
      </trkpt>
      <trkpt lat="45.38529" lon="4.61647">
        <ele>1252.8</ele>
        <time>2026-08-18T09:31:23.995Z</time>
      </trkpt>
      <trkpt lat="45.3853" lon="4.61648">
        <ele>1252.7</ele>
        <time>2026-08-18T09:31:24.996Z</time>
      </trkpt>
      <trkpt lat="45.38531" lon="4.61651">
        <ele>1253.2</ele>
        <time>2026-08-18T09:31:26.995Z</time>
      </trkpt>
      <trkpt lat="45.38531" lon="4.61651">
        <ele>1253.4</ele>
        <time>2026-08-18T09:31:27.996Z</time>
      </trkpt>
      <trkpt lat="45.38531" lon="4.61652">
        <ele>1253.8</ele>
        <time>2026-08-18T09:31:29.995Z</time>
      </trkpt>
      <trkpt lat="45.38531" lon="4.61652">
        <ele>1254.2</ele>
        <time>2026-08-18T09:31:30.995Z</time>
      </trkpt>
      <trkpt lat="45.38532" lon="4.61653">
        <ele>1253.3</ele>
        <time>2026-08-18T09:31:32.994Z</time>
      </trkpt>
      <trkpt lat="45.38532" lon="4.61654">
        <ele>1254.2</ele>
        <time>2026-08-18T09:31:33.995Z</time>
      </trkpt>
      <trkpt lat="45.38532" lon="4.61656">
        <ele>1254.3</ele>
        <time>2026-08-18T09:31:34.995Z</time>
      </trkpt>
      <trkpt lat="45.38534" lon="4.61659">
        <ele>1253.7</ele>
        <time>2026-08-18T09:31:36.995Z</time>
      </trkpt>
      <trkpt lat="45.38536" lon="4.61661">
        <ele>1254.1</ele>
        <time>2026-08-18T09:31:39.000Z</time>
      </trkpt>
      <trkpt lat="45.38537" lon="4.61664">
        <ele>1254.8</ele>
        <time>2026-08-18T09:31:40.994Z</time>
      </trkpt>
      <trkpt lat="45.38537" lon="4.61666">
        <ele>1253.7</ele>
        <time>2026-08-18T09:31:42.995Z</time>
      </trkpt>
      <trkpt lat="45.38537" lon="4.61668">
        <ele>1253.8</ele>
        <time>2026-08-18T09:31:44.994Z</time>
      </trkpt>
      <trkpt lat="45.38537" lon="4.61671">
        <ele>1254.3</ele>
        <time>2026-08-18T09:31:46.995Z</time>
      </trkpt>
      <trkpt lat="45.38537" lon="4.61673">
        <ele>1254.6</ele>
        <time>2026-08-18T09:31:47.995Z</time>
      </trkpt>
      <trkpt lat="45.38538" lon="4.61676">
        <ele>1253.7</ele>
        <time>2026-08-18T09:31:49.995Z</time>
      </trkpt>
      <trkpt lat="45.38538" lon="4.61677">
        <ele>1253.5</ele>
        <time>2026-08-18T09:31:51.096Z</time>
      </trkpt>
      <trkpt lat="45.38538" lon="4.61681">
        <ele>1253.7</ele>
        <time>2026-08-18T09:31:52.994Z</time>
      </trkpt>
      <trkpt lat="45.38539" lon="4.61684">
        <ele>1253.8</ele>
        <time>2026-08-18T09:31:54.994Z</time>
      </trkpt>
      <trkpt lat="45.38539" lon="4.61685">
        <ele>1254</ele>
        <time>2026-08-18T09:31:55.995Z</time>
      </trkpt>
      <trkpt lat="45.3854" lon="4.61686">
        <ele>1254.2</ele>
        <time>2026-08-18T09:31:56.995Z</time>
      </trkpt>
      <trkpt lat="45.38541" lon="4.61687">
        <ele>1254</ele>
        <time>2026-08-18T09:31:57.995Z</time>
      </trkpt>
      <trkpt lat="45.38542" lon="4.61689">
        <ele>1253.6</ele>
        <time>2026-08-18T09:31:59.996Z</time>
      </trkpt>
      <trkpt lat="45.38543" lon="4.61692">
        <ele>1254.4</ele>
        <time>2026-08-18T09:32:01.994Z</time>
      </trkpt>
      <trkpt lat="45.38542" lon="4.61693">
        <ele>1254</ele>
        <time>2026-08-18T09:32:02.994Z</time>
      </trkpt>
      <trkpt lat="45.38542" lon="4.61695">
        <ele>1254</ele>
        <time>2026-08-18T09:32:04.011Z</time>
      </trkpt>
      <trkpt lat="45.38543" lon="4.61698">
        <ele>1253.3</ele>
        <time>2026-08-18T09:32:05.995Z</time>
      </trkpt>
      <trkpt lat="45.38543" lon="4.61699">
        <ele>1253.3</ele>
        <time>2026-08-18T09:32:06.995Z</time>
      </trkpt>
      <trkpt lat="45.38543" lon="4.617">
        <ele>1253.5</ele>
        <time>2026-08-18T09:32:07.995Z</time>
      </trkpt>
      <trkpt lat="45.38542" lon="4.61703">
        <ele>1254.5</ele>
        <time>2026-08-18T09:32:09.992Z</time>
      </trkpt>
      <trkpt lat="45.38542" lon="4.61704">
        <ele>1253.9</ele>
        <time>2026-08-18T09:32:10.995Z</time>
      </trkpt>
      <trkpt lat="45.38542" lon="4.61706">
        <ele>1253.6</ele>
        <time>2026-08-18T09:32:13.004Z</time>
      </trkpt>
      <trkpt lat="45.38542" lon="4.61708">
        <ele>1252.9</ele>
        <time>2026-08-18T09:32:14.994Z</time>
      </trkpt>
      <trkpt lat="45.38542" lon="4.61709">
        <ele>1252.9</ele>
        <time>2026-08-18T09:32:16.011Z</time>
      </trkpt>
      <trkpt lat="45.38542" lon="4.61712">
        <ele>1252.4</ele>
        <time>2026-08-18T09:32:17.995Z</time>
      </trkpt>
      <trkpt lat="45.38541" lon="4.61713">
        <ele>1252.5</ele>
        <time>2026-08-18T09:32:18.995Z</time>
      </trkpt>
      <trkpt lat="45.38541" lon="4.61714">
        <ele>1252.4</ele>
        <time>2026-08-18T09:32:19.995Z</time>
      </trkpt>
      <trkpt lat="45.38542" lon="4.61717">
        <ele>1252.1</ele>
        <time>2026-08-18T09:32:21.995Z</time>
      </trkpt>
      <trkpt lat="45.38542" lon="4.61719">
        <ele>1252.2</ele>
        <time>2026-08-18T09:32:22.995Z</time>
      </trkpt>
      <trkpt lat="45.38541" lon="4.6172">
        <ele>1252.3</ele>
        <time>2026-08-18T09:32:23.995Z</time>
      </trkpt>
      <trkpt lat="45.38542" lon="4.61723">
        <ele>1251.7</ele>
        <time>2026-08-18T09:32:25.994Z</time>
      </trkpt>
      <trkpt lat="45.38543" lon="4.61725">
        <ele>1250</ele>
        <time>2026-08-18T09:32:26.994Z</time>
      </trkpt>
      <trkpt lat="45.38543" lon="4.61726">
        <ele>1249.7</ele>
        <time>2026-08-18T09:32:27.994Z</time>
      </trkpt>
      <trkpt lat="45.38544" lon="4.61727">
        <ele>1248.7</ele>
        <time>2026-08-18T09:32:28.995Z</time>
      </trkpt>
      <trkpt lat="45.38544" lon="4.61728">
        <ele>1249.7</ele>
        <time>2026-08-18T09:32:30.004Z</time>
      </trkpt>
      <trkpt lat="45.38545" lon="4.61728">
        <ele>1249.6</ele>
        <time>2026-08-18T09:32:31.907Z</time>
      </trkpt>
      <trkpt lat="45.38545" lon="4.61728">
        <ele>1249.3</ele>
        <time>2026-08-18T09:32:32.995Z</time>
      </trkpt>
      <trkpt lat="45.38546" lon="4.61728">
        <ele>1250</ele>
        <time>2026-08-18T09:32:33.998Z</time>
      </trkpt>
      <trkpt lat="45.38546" lon="4.61729">
        <ele>1250.2</ele>
        <time>2026-08-18T09:32:35.995Z</time>
      </trkpt>
      <trkpt lat="45.38546" lon="4.6173">
        <ele>1249.8</ele>
        <time>2026-08-18T09:32:36.995Z</time>
      </trkpt>
      <trkpt lat="45.38545" lon="4.61732">
        <ele>1249.4</ele>
        <time>2026-08-18T09:32:38.994Z</time>
      </trkpt>
      <trkpt lat="45.38544" lon="4.61733">
        <ele>1249</ele>
        <time>2026-08-18T09:32:39.994Z</time>
      </trkpt>
      <trkpt lat="45.38543" lon="4.61734">
        <ele>1249</ele>
        <time>2026-08-18T09:32:40.995Z</time>
      </trkpt>
      <trkpt lat="45.38543" lon="4.61735">
        <ele>1249</ele>
        <time>2026-08-18T09:32:41.995Z</time>
      </trkpt>
      <trkpt lat="45.38543" lon="4.61737">
        <ele>1248.8</ele>
        <time>2026-08-18T09:32:42.995Z</time>
      </trkpt>
      <trkpt lat="45.38543" lon="4.6174">
        <ele>1249.2</ele>
        <time>2026-08-18T09:32:44.994Z</time>
      </trkpt>
      <trkpt lat="45.38544" lon="4.61741">
        <ele>1250.1</ele>
        <time>2026-08-18T09:32:45.995Z</time>
      </trkpt>
      <trkpt lat="45.38544" lon="4.61742">
        <ele>1250.7</ele>
        <time>2026-08-18T09:32:46.995Z</time>
      </trkpt>
      <trkpt lat="45.38544" lon="4.61743">
        <ele>1252.6</ele>
        <time>2026-08-18T09:32:47.995Z</time>
      </trkpt>
      <trkpt lat="45.38545" lon="4.61744">
        <ele>1252.7</ele>
        <time>2026-08-18T09:32:48.995Z</time>
      </trkpt>
      <trkpt lat="45.38545" lon="4.61745">
        <ele>1252.5</ele>
        <time>2026-08-18T09:32:49.995Z</time>
      </trkpt>
      <trkpt lat="45.38545" lon="4.61746">
        <ele>1252.5</ele>
        <time>2026-08-18T09:32:50.998Z</time>
      </trkpt>
      <trkpt lat="45.38546" lon="4.61748">
        <ele>1251.4</ele>
        <time>2026-08-18T09:32:52.994Z</time>
      </trkpt>
      <trkpt lat="45.38546" lon="4.6175">
        <ele>1251</ele>
        <time>2026-08-18T09:32:54.994Z</time>
      </trkpt>
      <trkpt lat="45.38546" lon="4.61752">
        <ele>1251.1</ele>
        <time>2026-08-18T09:32:56.995Z</time>
      </trkpt>
      <trkpt lat="45.38547" lon="4.61754">
        <ele>1250.9</ele>
        <time>2026-08-18T09:32:58.995Z</time>
      </trkpt>
      <trkpt lat="45.38547" lon="4.61755">
        <ele>1251.2</ele>
        <time>2026-08-18T09:32:59.995Z</time>
      </trkpt>
      <trkpt lat="45.38547" lon="4.61757">
        <ele>1252</ele>
        <time>2026-08-18T09:33:01.995Z</time>
      </trkpt>
      <trkpt lat="45.38547" lon="4.61757">
        <ele>1251.8</ele>
        <time>2026-08-18T09:33:03.995Z</time>
      </trkpt>
      <trkpt lat="45.38547" lon="4.61756">
        <ele>1251.8</ele>
        <time>2026-08-18T09:33:05.995Z</time>
      </trkpt>
      <trkpt lat="45.38547" lon="4.61757">
        <ele>1251.9</ele>
        <time>2026-08-18T09:33:07.972Z</time>
      </trkpt>
      <trkpt lat="45.38547" lon="4.61757">
        <ele>1252.2</ele>
        <time>2026-08-18T09:33:08.994Z</time>
      </trkpt>
      <trkpt lat="45.38548" lon="4.61758">
        <ele>1252.2</ele>
        <time>2026-08-18T09:33:10.036Z</time>
      </trkpt>
      <trkpt lat="45.38549" lon="4.61761">
        <ele>1251.3</ele>
        <time>2026-08-18T09:33:11.995Z</time>
      </trkpt>
      <trkpt lat="45.38549" lon="4.61761">
        <ele>1251.4</ele>
        <time>2026-08-18T09:33:12.995Z</time>
      </trkpt>
      <trkpt lat="45.3855" lon="4.61763">
        <ele>1251.3</ele>
        <time>2026-08-18T09:33:14.932Z</time>
      </trkpt>
      <trkpt lat="45.3855" lon="4.61764">
        <ele>1251</ele>
        <time>2026-08-18T09:33:15.995Z</time>
      </trkpt>
      <trkpt lat="45.3855" lon="4.61765">
        <ele>1250.9</ele>
        <time>2026-08-18T09:33:17.011Z</time>
      </trkpt>
      <trkpt lat="45.38551" lon="4.61766">
        <ele>1249.6</ele>
        <time>2026-08-18T09:33:18.995Z</time>
      </trkpt>
      <trkpt lat="45.38552" lon="4.61768">
        <ele>1248.7</ele>
        <time>2026-08-18T09:33:20.994Z</time>
      </trkpt>
      <trkpt lat="45.38552" lon="4.61769">
        <ele>1248.6</ele>
        <time>2026-08-18T09:33:21.994Z</time>
      </trkpt>
      <trkpt lat="45.38553" lon="4.61771">
        <ele>1249.3</ele>
        <time>2026-08-18T09:33:23.995Z</time>
      </trkpt>
      <trkpt lat="45.38554" lon="4.61773">
        <ele>1251.1</ele>
        <time>2026-08-18T09:33:24.999Z</time>
      </trkpt>
      <trkpt lat="45.38555" lon="4.61775">
        <ele>1250.1</ele>
        <time>2026-08-18T09:33:26.994Z</time>
      </trkpt>
      <trkpt lat="45.38555" lon="4.61778">
        <ele>1249.3</ele>
        <time>2026-08-18T09:33:28.908Z</time>
      </trkpt>
      <trkpt lat="45.38556" lon="4.61779">
        <ele>1248.7</ele>
        <time>2026-08-18T09:33:29.995Z</time>
      </trkpt>
      <trkpt lat="45.38556" lon="4.6178">
        <ele>1248.8</ele>
        <time>2026-08-18T09:33:30.995Z</time>
      </trkpt>
      <trkpt lat="45.38556" lon="4.6178">
        <ele>1248.7</ele>
        <time>2026-08-18T09:33:31.995Z</time>
      </trkpt>
      <trkpt lat="45.38556" lon="4.61781">
        <ele>1247.7</ele>
        <time>2026-08-18T09:33:34.011Z</time>
      </trkpt>
      <trkpt lat="45.38557" lon="4.61781">
        <ele>1247.4</ele>
        <time>2026-08-18T09:33:35.995Z</time>
      </trkpt>
      <trkpt lat="45.38557" lon="4.61782">
        <ele>1247.1</ele>
        <time>2026-08-18T09:33:36.995Z</time>
      </trkpt>
      <trkpt lat="45.38558" lon="4.61782">
        <ele>1246.8</ele>
        <time>2026-08-18T09:33:38.005Z</time>
      </trkpt>
      <trkpt lat="45.38559" lon="4.61784">
        <ele>1245.8</ele>
        <time>2026-08-18T09:33:39.995Z</time>
      </trkpt>
      <trkpt lat="45.3856" lon="4.61785">
        <ele>1245.6</ele>
        <time>2026-08-18T09:33:41.998Z</time>
      </trkpt>
      <trkpt lat="45.3856" lon="4.61785">
        <ele>1246.3</ele>
        <time>2026-08-18T09:33:43.995Z</time>
      </trkpt>
      <trkpt lat="45.3856" lon="4.61786">
        <ele>1246.4</ele>
        <time>2026-08-18T09:33:44.995Z</time>
      </trkpt>
      <trkpt lat="45.38561" lon="4.61786">
        <ele>1246.3</ele>
        <time>2026-08-18T09:33:46.974Z</time>
      </trkpt>
      <trkpt lat="45.38561" lon="4.61787">
        <ele>1245.8</ele>
        <time>2026-08-18T09:33:47.995Z</time>
      </trkpt>
      <trkpt lat="45.38563" lon="4.61789">
        <ele>1244.8</ele>
        <time>2026-08-18T09:33:49.994Z</time>
      </trkpt>
      <trkpt lat="45.38564" lon="4.61791">
        <ele>1244.9</ele>
        <time>2026-08-18T09:33:51.012Z</time>
      </trkpt>
      <trkpt lat="45.38565" lon="4.61793">
        <ele>1244.5</ele>
        <time>2026-08-18T09:33:53.031Z</time>
      </trkpt>
      <trkpt lat="45.38565" lon="4.61796">
        <ele>1243.8</ele>
        <time>2026-08-18T09:33:55.007Z</time>
      </trkpt>
      <trkpt lat="45.38566" lon="4.61798">
        <ele>1243.6</ele>
        <time>2026-08-18T09:33:56.994Z</time>
      </trkpt>
      <trkpt lat="45.38567" lon="4.61799">
        <ele>1243.6</ele>
        <time>2026-08-18T09:33:58.032Z</time>
      </trkpt>
      <trkpt lat="45.38568" lon="4.618">
        <ele>1243</ele>
        <time>2026-08-18T09:33:59.995Z</time>
      </trkpt>
      <trkpt lat="45.38569" lon="4.61801">
        <ele>1242.8</ele>
        <time>2026-08-18T09:34:00.995Z</time>
      </trkpt>
      <trkpt lat="45.38569" lon="4.61802">
        <ele>1242.7</ele>
        <time>2026-08-18T09:34:01.995Z</time>
      </trkpt>
      <trkpt lat="45.3857" lon="4.61803">
        <ele>1243.4</ele>
        <time>2026-08-18T09:34:02.995Z</time>
      </trkpt>
      <trkpt lat="45.38571" lon="4.61804">
        <ele>1243.2</ele>
        <time>2026-08-18T09:34:04.995Z</time>
      </trkpt>
      <trkpt lat="45.38572" lon="4.61805">
        <ele>1243.7</ele>
        <time>2026-08-18T09:34:06.994Z</time>
      </trkpt>
      <trkpt lat="45.38573" lon="4.61806">
        <ele>1243.7</ele>
        <time>2026-08-18T09:34:07.995Z</time>
      </trkpt>
      <trkpt lat="45.38574" lon="4.61808">
        <ele>1243.4</ele>
        <time>2026-08-18T09:34:09.994Z</time>
      </trkpt>
      <trkpt lat="45.38575" lon="4.61809">
        <ele>1243.1</ele>
        <time>2026-08-18T09:34:12.005Z</time>
      </trkpt>
      <trkpt lat="45.38577" lon="4.61811">
        <ele>1242.7</ele>
        <time>2026-08-18T09:34:13.995Z</time>
      </trkpt>
      <trkpt lat="45.38577" lon="4.61811">
        <ele>1242.5</ele>
        <time>2026-08-18T09:34:14.995Z</time>
      </trkpt>
      <trkpt lat="45.38578" lon="4.61811">
        <ele>1243</ele>
        <time>2026-08-18T09:34:15.999Z</time>
      </trkpt>
      <trkpt lat="45.38579" lon="4.61811">
        <ele>1243.8</ele>
        <time>2026-08-18T09:34:17.995Z</time>
      </trkpt>
      <trkpt lat="45.38581" lon="4.61812">
        <ele>1244.3</ele>
        <time>2026-08-18T09:34:19.995Z</time>
      </trkpt>
      <trkpt lat="45.38582" lon="4.61813">
        <ele>1244.6</ele>
        <time>2026-08-18T09:34:21.995Z</time>
      </trkpt>
      <trkpt lat="45.38582" lon="4.61814">
        <ele>1244.4</ele>
        <time>2026-08-18T09:34:23.994Z</time>
      </trkpt>
      <trkpt lat="45.38583" lon="4.61814">
        <ele>1243.5</ele>
        <time>2026-08-18T09:34:25.995Z</time>
      </trkpt>
      <trkpt lat="45.38585" lon="4.61816">
        <ele>1243.1</ele>
        <time>2026-08-18T09:34:27.952Z</time>
      </trkpt>
      <trkpt lat="45.38585" lon="4.61817">
        <ele>1242.7</ele>
        <time>2026-08-18T09:34:28.995Z</time>
      </trkpt>
      <trkpt lat="45.38587" lon="4.61819">
        <ele>1242.6</ele>
        <time>2026-08-18T09:34:30.995Z</time>
      </trkpt>
      <trkpt lat="45.38588" lon="4.61821">
        <ele>1243.2</ele>
        <time>2026-08-18T09:34:32.953Z</time>
      </trkpt>
      <trkpt lat="45.38589" lon="4.61821">
        <ele>1244</ele>
        <time>2026-08-18T09:34:33.994Z</time>
      </trkpt>
      <trkpt lat="45.38589" lon="4.61822">
        <ele>1245.6</ele>
        <time>2026-08-18T09:34:34.995Z</time>
      </trkpt>
      <trkpt lat="45.3859" lon="4.61823">
        <ele>1246.3</ele>
        <time>2026-08-18T09:34:35.995Z</time>
      </trkpt>
      <trkpt lat="45.38591" lon="4.61824">
        <ele>1247.7</ele>
        <time>2026-08-18T09:34:37.994Z</time>
      </trkpt>
      <trkpt lat="45.38592" lon="4.61825">
        <ele>1249.5</ele>
        <time>2026-08-18T09:34:39.995Z</time>
      </trkpt>
      <trkpt lat="45.38593" lon="4.61825">
        <ele>1249.9</ele>
        <time>2026-08-18T09:34:40.995Z</time>
      </trkpt>
      <trkpt lat="45.38594" lon="4.61825">
        <ele>1249</ele>
        <time>2026-08-18T09:34:42.012Z</time>
      </trkpt>
      <trkpt lat="45.38596" lon="4.61826">
        <ele>1247.6</ele>
        <time>2026-08-18T09:34:43.994Z</time>
      </trkpt>
      <trkpt lat="45.38596" lon="4.61828">
        <ele>1247.3</ele>
        <time>2026-08-18T09:34:44.994Z</time>
      </trkpt>
      <trkpt lat="45.38597" lon="4.61829">
        <ele>1246.8</ele>
        <time>2026-08-18T09:34:46.005Z</time>
      </trkpt>
      <trkpt lat="45.38598" lon="4.61832">
        <ele>1246.9</ele>
        <time>2026-08-18T09:34:47.994Z</time>
      </trkpt>
      <trkpt lat="45.38599" lon="4.61832">
        <ele>1247.7</ele>
        <time>2026-08-18T09:34:48.995Z</time>
      </trkpt>
      <trkpt lat="45.386" lon="4.61833">
        <ele>1248.2</ele>
        <time>2026-08-18T09:34:49.998Z</time>
      </trkpt>
      <trkpt lat="45.38601" lon="4.61834">
        <ele>1247.9</ele>
        <time>2026-08-18T09:34:51.995Z</time>
      </trkpt>
      <trkpt lat="45.38603" lon="4.61834">
        <ele>1248.3</ele>
        <time>2026-08-18T09:34:53.946Z</time>
      </trkpt>
      <trkpt lat="45.38604" lon="4.61834">
        <ele>1247.7</ele>
        <time>2026-08-18T09:34:54.995Z</time>
      </trkpt>
      <trkpt lat="45.38604" lon="4.61834">
        <ele>1248.2</ele>
        <time>2026-08-18T09:34:55.995Z</time>
      </trkpt>
      <trkpt lat="45.38605" lon="4.61835">
        <ele>1247.8</ele>
        <time>2026-08-18T09:34:57.994Z</time>
      </trkpt>
      <trkpt lat="45.38606" lon="4.61836">
        <ele>1248.1</ele>
        <time>2026-08-18T09:34:59.011Z</time>
      </trkpt>
      <trkpt lat="45.38607" lon="4.61837">
        <ele>1247.4</ele>
        <time>2026-08-18T09:35:00.995Z</time>
      </trkpt>
      <trkpt lat="45.38609" lon="4.61838">
        <ele>1246.4</ele>
        <time>2026-08-18T09:35:03.005Z</time>
      </trkpt>
      <trkpt lat="45.3861" lon="4.61838">
        <ele>1245.7</ele>
        <time>2026-08-18T09:35:04.995Z</time>
      </trkpt>
      <trkpt lat="45.38611" lon="4.61839">
        <ele>1244.9</ele>
        <time>2026-08-18T09:35:05.995Z</time>
      </trkpt>
      <trkpt lat="45.38611" lon="4.61839">
        <ele>1244.7</ele>
        <time>2026-08-18T09:35:06.998Z</time>
      </trkpt>
      <trkpt lat="45.38612" lon="4.61841">
        <ele>1245.6</ele>
        <time>2026-08-18T09:35:08.994Z</time>
      </trkpt>
      <trkpt lat="45.38613" lon="4.61841">
        <ele>1245.6</ele>
        <time>2026-08-18T09:35:09.995Z</time>
      </trkpt>
      <trkpt lat="45.38614" lon="4.61841">
        <ele>1245.6</ele>
        <time>2026-08-18T09:35:10.995Z</time>
      </trkpt>
      <trkpt lat="45.38615" lon="4.61841">
        <ele>1245.6</ele>
        <time>2026-08-18T09:35:12.012Z</time>
      </trkpt>
      <trkpt lat="45.38617" lon="4.61843">
        <ele>1245.7</ele>
        <time>2026-08-18T09:35:13.995Z</time>
      </trkpt>
      <trkpt lat="45.38617" lon="4.61844">
        <ele>1245.7</ele>
        <time>2026-08-18T09:35:14.995Z</time>
      </trkpt>
      <trkpt lat="45.38619" lon="4.61845">
        <ele>1245.3</ele>
        <time>2026-08-18T09:35:16.995Z</time>
      </trkpt>
      <trkpt lat="45.38619" lon="4.61846">
        <ele>1245.2</ele>
        <time>2026-08-18T09:35:17.995Z</time>
      </trkpt>
      <trkpt lat="45.3862" lon="4.61846">
        <ele>1246</ele>
        <time>2026-08-18T09:35:18.995Z</time>
      </trkpt>
      <trkpt lat="45.38621" lon="4.61846">
        <ele>1245.8</ele>
        <time>2026-08-18T09:35:19.995Z</time>
      </trkpt>
      <trkpt lat="45.38622" lon="4.61848">
        <ele>1246</ele>
        <time>2026-08-18T09:35:21.995Z</time>
      </trkpt>
      <trkpt lat="45.38623" lon="4.61849">
        <ele>1246.2</ele>
        <time>2026-08-18T09:35:22.995Z</time>
      </trkpt>
      <trkpt lat="45.38624" lon="4.61849">
        <ele>1246.7</ele>
        <time>2026-08-18T09:35:23.997Z</time>
      </trkpt>
      <trkpt lat="45.38626" lon="4.61847">
        <ele>1245.7</ele>
        <time>2026-08-18T09:35:25.995Z</time>
      </trkpt>
      <trkpt lat="45.38627" lon="4.61848">
        <ele>1245.9</ele>
        <time>2026-08-18T09:35:26.995Z</time>
      </trkpt>
      <trkpt lat="45.38629" lon="4.61849">
        <ele>1246.3</ele>
        <time>2026-08-18T09:35:28.995Z</time>
      </trkpt>
      <trkpt lat="45.3863" lon="4.6185">
        <ele>1245.9</ele>
        <time>2026-08-18T09:35:29.995Z</time>
      </trkpt>
      <trkpt lat="45.38631" lon="4.6185">
        <ele>1246.7</ele>
        <time>2026-08-18T09:35:30.995Z</time>
      </trkpt>
      <trkpt lat="45.38632" lon="4.61849">
        <ele>1246.8</ele>
        <time>2026-08-18T09:35:31.995Z</time>
      </trkpt>
      <trkpt lat="45.38633" lon="4.61849">
        <ele>1247.3</ele>
        <time>2026-08-18T09:35:33.011Z</time>
      </trkpt>
      <trkpt lat="45.38634" lon="4.6185">
        <ele>1247.3</ele>
        <time>2026-08-18T09:35:34.994Z</time>
      </trkpt>
      <trkpt lat="45.38635" lon="4.6185">
        <ele>1247.7</ele>
        <time>2026-08-18T09:35:35.995Z</time>
      </trkpt>
      <trkpt lat="45.38636" lon="4.61851">
        <ele>1247.2</ele>
        <time>2026-08-18T09:35:37.995Z</time>
      </trkpt>
      <trkpt lat="45.38637" lon="4.61852">
        <ele>1247.2</ele>
        <time>2026-08-18T09:35:39.013Z</time>
      </trkpt>
      <trkpt lat="45.38638" lon="4.61854">
        <ele>1244.7</ele>
        <time>2026-08-18T09:35:40.998Z</time>
      </trkpt>
      <trkpt lat="45.38639" lon="4.61856">
        <ele>1246.2</ele>
        <time>2026-08-18T09:35:42.994Z</time>
      </trkpt>
      <trkpt lat="45.3864" lon="4.61857">
        <ele>1246.2</ele>
        <time>2026-08-18T09:35:43.995Z</time>
      </trkpt>
      <trkpt lat="45.3864" lon="4.61858">
        <ele>1247.3</ele>
        <time>2026-08-18T09:35:44.995Z</time>
      </trkpt>
      <trkpt lat="45.38642" lon="4.61859">
        <ele>1246.6</ele>
        <time>2026-08-18T09:35:46.995Z</time>
      </trkpt>
      <trkpt lat="45.38645" lon="4.61859">
        <ele>1246.9</ele>
        <time>2026-08-18T09:35:48.994Z</time>
      </trkpt>
      <trkpt lat="45.38646" lon="4.61861">
        <ele>1244.3</ele>
        <time>2026-08-18T09:35:50.994Z</time>
      </trkpt>
      <trkpt lat="45.38647" lon="4.61862">
        <ele>1245.1</ele>
        <time>2026-08-18T09:35:51.995Z</time>
      </trkpt>
      <trkpt lat="45.3865" lon="4.61863">
        <ele>1245.1</ele>
        <time>2026-08-18T09:35:54.004Z</time>
      </trkpt>
      <trkpt lat="45.38652" lon="4.61865">
        <ele>1245.4</ele>
        <time>2026-08-18T09:35:55.994Z</time>
      </trkpt>
      <trkpt lat="45.38653" lon="4.61866">
        <ele>1245.9</ele>
        <time>2026-08-18T09:35:56.995Z</time>
      </trkpt>
      <trkpt lat="45.38654" lon="4.61867">
        <ele>1245.2</ele>
        <time>2026-08-18T09:35:57.998Z</time>
      </trkpt>
      <trkpt lat="45.38657" lon="4.61868">
        <ele>1245.2</ele>
        <time>2026-08-18T09:35:59.995Z</time>
      </trkpt>
      <trkpt lat="45.38658" lon="4.61868">
        <ele>1245.2</ele>
        <time>2026-08-18T09:36:01.033Z</time>
      </trkpt>
      <trkpt lat="45.3866" lon="4.61869">
        <ele>1245.3</ele>
        <time>2026-08-18T09:36:02.994Z</time>
      </trkpt>
      <trkpt lat="45.38662" lon="4.6187">
        <ele>1246</ele>
        <time>2026-08-18T09:36:04.995Z</time>
      </trkpt>
      <trkpt lat="45.38663" lon="4.61871">
        <ele>1246.2</ele>
        <time>2026-08-18T09:36:05.995Z</time>
      </trkpt>
      <trkpt lat="45.38664" lon="4.61872">
        <ele>1246.4</ele>
        <time>2026-08-18T09:36:07.011Z</time>
      </trkpt>
      <trkpt lat="45.38666" lon="4.61873">
        <ele>1247</ele>
        <time>2026-08-18T09:36:08.995Z</time>
      </trkpt>
      <trkpt lat="45.38668" lon="4.61874">
        <ele>1246.9</ele>
        <time>2026-08-18T09:36:11.004Z</time>
      </trkpt>
      <trkpt lat="45.3867" lon="4.61875">
        <ele>1246.3</ele>
        <time>2026-08-18T09:36:12.993Z</time>
      </trkpt>
      <trkpt lat="45.38671" lon="4.61875">
        <ele>1245.7</ele>
        <time>2026-08-18T09:36:13.994Z</time>
      </trkpt>
      <trkpt lat="45.38672" lon="4.61876">
        <ele>1245.3</ele>
        <time>2026-08-18T09:36:14.997Z</time>
      </trkpt>
      <trkpt lat="45.38673" lon="4.61876">
        <ele>1245</ele>
        <time>2026-08-18T09:36:16.994Z</time>
      </trkpt>
      <trkpt lat="45.38674" lon="4.61877">
        <ele>1246.2</ele>
        <time>2026-08-18T09:36:17.995Z</time>
      </trkpt>
      <trkpt lat="45.38674" lon="4.61878">
        <ele>1246.3</ele>
        <time>2026-08-18T09:36:18.995Z</time>
      </trkpt>
      <trkpt lat="45.38675" lon="4.61878">
        <ele>1246.4</ele>
        <time>2026-08-18T09:36:19.995Z</time>
      </trkpt>
      <trkpt lat="45.38676" lon="4.61878">
        <ele>1246.3</ele>
        <time>2026-08-18T09:36:20.995Z</time>
      </trkpt>
      <trkpt lat="45.38676" lon="4.61878">
        <ele>1246</ele>
        <time>2026-08-18T09:36:21.995Z</time>
      </trkpt>
      <trkpt lat="45.38678" lon="4.6188">
        <ele>1244.9</ele>
        <time>2026-08-18T09:36:24.009Z</time>
      </trkpt>
      <trkpt lat="45.38679" lon="4.61882">
        <ele>1246.6</ele>
        <time>2026-08-18T09:36:25.995Z</time>
      </trkpt>
      <trkpt lat="45.38681" lon="4.61883">
        <ele>1247.5</ele>
        <time>2026-08-18T09:36:28.004Z</time>
      </trkpt>
      <trkpt lat="45.38683" lon="4.61883">
        <ele>1246.5</ele>
        <time>2026-08-18T09:36:29.994Z</time>
      </trkpt>
      <trkpt lat="45.38684" lon="4.61884">
        <ele>1247.3</ele>
        <time>2026-08-18T09:36:30.995Z</time>
      </trkpt>
      <trkpt lat="45.38685" lon="4.61885">
        <ele>1247.7</ele>
        <time>2026-08-18T09:36:31.997Z</time>
      </trkpt>
      <trkpt lat="45.38686" lon="4.61885">
        <ele>1247.1</ele>
        <time>2026-08-18T09:36:33.024Z</time>
      </trkpt>
      <trkpt lat="45.38687" lon="4.61887">
        <ele>1248</ele>
        <time>2026-08-18T09:36:34.995Z</time>
      </trkpt>
      <trkpt lat="45.38688" lon="4.61887">
        <ele>1248</ele>
        <time>2026-08-18T09:36:36.030Z</time>
      </trkpt>
      <trkpt lat="45.3869" lon="4.61887">
        <ele>1247.1</ele>
        <time>2026-08-18T09:36:37.994Z</time>
      </trkpt>
      <trkpt lat="45.38691" lon="4.61888">
        <ele>1247.1</ele>
        <time>2026-08-18T09:36:38.995Z</time>
      </trkpt>
      <trkpt lat="45.38693" lon="4.61888">
        <ele>1246.7</ele>
        <time>2026-08-18T09:36:39.995Z</time>
      </trkpt>
      <trkpt lat="45.38694" lon="4.61888">
        <ele>1246.1</ele>
        <time>2026-08-18T09:36:41.010Z</time>
      </trkpt>
      <trkpt lat="45.38696" lon="4.61889">
        <ele>1247.4</ele>
        <time>2026-08-18T09:36:43.008Z</time>
      </trkpt>
      <trkpt lat="45.38699" lon="4.61889">
        <ele>1246.6</ele>
        <time>2026-08-18T09:36:45.003Z</time>
      </trkpt>
      <trkpt lat="45.38701" lon="4.61888">
        <ele>1245.9</ele>
        <time>2026-08-18T09:36:46.995Z</time>
      </trkpt>
      <trkpt lat="45.38702" lon="4.61888">
        <ele>1245.9</ele>
        <time>2026-08-18T09:36:47.995Z</time>
      </trkpt>
      <trkpt lat="45.38703" lon="4.61888">
        <ele>1246.6</ele>
        <time>2026-08-18T09:36:48.995Z</time>
      </trkpt>
      <trkpt lat="45.38704" lon="4.61888">
        <ele>1246.2</ele>
        <time>2026-08-18T09:36:49.995Z</time>
      </trkpt>
      <trkpt lat="45.38707" lon="4.6189">
        <ele>1245.9</ele>
        <time>2026-08-18T09:36:51.995Z</time>
      </trkpt>
      <trkpt lat="45.38709" lon="4.61893">
        <ele>1246.8</ele>
        <time>2026-08-18T09:36:53.995Z</time>
      </trkpt>
      <trkpt lat="45.38711" lon="4.61895">
        <ele>1246</ele>
        <time>2026-08-18T09:36:55.995Z</time>
      </trkpt>
      <trkpt lat="45.38714" lon="4.61897">
        <ele>1244.2</ele>
        <time>2026-08-18T09:36:58.009Z</time>
      </trkpt>
      <trkpt lat="45.38716" lon="4.619">
        <ele>1244.9</ele>
        <time>2026-08-18T09:36:59.994Z</time>
      </trkpt>
      <trkpt lat="45.38717" lon="4.61901">
        <ele>1245.7</ele>
        <time>2026-08-18T09:37:00.995Z</time>
      </trkpt>
      <trkpt lat="45.38718" lon="4.61902">
        <ele>1245.1</ele>
        <time>2026-08-18T09:37:02.003Z</time>
      </trkpt>
      <trkpt lat="45.38719" lon="4.61903">
        <ele>1245.3</ele>
        <time>2026-08-18T09:37:03.995Z</time>
      </trkpt>
      <trkpt lat="45.38721" lon="4.61904">
        <ele>1246.7</ele>
        <time>2026-08-18T09:37:05.995Z</time>
      </trkpt>
      <trkpt lat="45.38723" lon="4.61905">
        <ele>1246.8</ele>
        <time>2026-08-18T09:37:07.927Z</time>
      </trkpt>
      <trkpt lat="45.38724" lon="4.61905">
        <ele>1247.2</ele>
        <time>2026-08-18T09:37:09.011Z</time>
      </trkpt>
      <trkpt lat="45.38725" lon="4.61907">
        <ele>1247.9</ele>
        <time>2026-08-18T09:37:11.016Z</time>
      </trkpt>
      <trkpt lat="45.38726" lon="4.6191">
        <ele>1248.4</ele>
        <time>2026-08-18T09:37:12.909Z</time>
      </trkpt>
      <trkpt lat="45.38726" lon="4.61911">
        <ele>1248.2</ele>
        <time>2026-08-18T09:37:13.995Z</time>
      </trkpt>
      <trkpt lat="45.38728" lon="4.61913">
        <ele>1249.4</ele>
        <time>2026-08-18T09:37:15.995Z</time>
      </trkpt>
      <trkpt lat="45.38728" lon="4.61914">
        <ele>1250.9</ele>
        <time>2026-08-18T09:37:16.995Z</time>
      </trkpt>
      <trkpt lat="45.38729" lon="4.61915">
        <ele>1251.1</ele>
        <time>2026-08-18T09:37:17.995Z</time>
      </trkpt>
      <trkpt lat="45.38731" lon="4.61915">
        <ele>1249.3</ele>
        <time>2026-08-18T09:37:19.993Z</time>
      </trkpt>
      <trkpt lat="45.38732" lon="4.61915">
        <ele>1248.9</ele>
        <time>2026-08-18T09:37:20.995Z</time>
      </trkpt>
      <trkpt lat="45.38733" lon="4.61916">
        <ele>1249.2</ele>
        <time>2026-08-18T09:37:21.995Z</time>
      </trkpt>
      <trkpt lat="45.38735" lon="4.61917">
        <ele>1247.8</ele>
        <time>2026-08-18T09:37:24.021Z</time>
      </trkpt>
      <trkpt lat="45.38736" lon="4.61917">
        <ele>1247.4</ele>
        <time>2026-08-18T09:37:25.995Z</time>
      </trkpt>
      <trkpt lat="45.38736" lon="4.61917">
        <ele>1246.7</ele>
        <time>2026-08-18T09:37:28.014Z</time>
      </trkpt>
      <trkpt lat="45.38736" lon="4.61917">
        <ele>1248</ele>
        <time>2026-08-18T09:37:29.995Z</time>
      </trkpt>
      <trkpt lat="45.38736" lon="4.61917">
        <ele>1247.9</ele>
        <time>2026-08-18T09:37:30.995Z</time>
      </trkpt>
      <trkpt lat="45.38736" lon="4.61918">
        <ele>1247.1</ele>
        <time>2026-08-18T09:37:32.007Z</time>
      </trkpt>
      <trkpt lat="45.38736" lon="4.6192">
        <ele>1248</ele>
        <time>2026-08-18T09:37:33.988Z</time>
      </trkpt>
      <trkpt lat="45.38736" lon="4.61922">
        <ele>1249.5</ele>
        <time>2026-08-18T09:37:34.995Z</time>
      </trkpt>
      <trkpt lat="45.38736" lon="4.61924">
        <ele>1249.3</ele>
        <time>2026-08-18T09:37:36.001Z</time>
      </trkpt>
      <trkpt lat="45.38736" lon="4.61927">
        <ele>1249.7</ele>
        <time>2026-08-18T09:37:37.915Z</time>
      </trkpt>
      <trkpt lat="45.38736" lon="4.61929">
        <ele>1249.5</ele>
        <time>2026-08-18T09:37:38.995Z</time>
      </trkpt>
      <trkpt lat="45.38735" lon="4.6193">
        <ele>1249.5</ele>
        <time>2026-08-18T09:37:40.006Z</time>
      </trkpt>
      <trkpt lat="45.38735" lon="4.61933">
        <ele>1250</ele>
        <time>2026-08-18T09:37:41.908Z</time>
      </trkpt>
      <trkpt lat="45.38735" lon="4.61934">
        <ele>1249</ele>
        <time>2026-08-18T09:37:42.995Z</time>
      </trkpt>
      <trkpt lat="45.38735" lon="4.61933">
        <ele>1248.4</ele>
        <time>2026-08-18T09:37:44.995Z</time>
      </trkpt>
      <trkpt lat="45.38734" lon="4.61932">
        <ele>1248.4</ele>
        <time>2026-08-18T09:37:46.995Z</time>
      </trkpt>
      <trkpt lat="45.38734" lon="4.61931">
        <ele>1248.4</ele>
        <time>2026-08-18T09:37:47.995Z</time>
      </trkpt>
      <trkpt lat="45.38734" lon="4.61931">
        <ele>1248.4</ele>
        <time>2026-08-18T09:37:48.995Z</time>
      </trkpt>
      <trkpt lat="45.38734" lon="4.61931">
        <ele>1248.4</ele>
        <time>2026-08-18T09:37:50.994Z</time>
      </trkpt>
      <trkpt lat="45.38734" lon="4.61931">
        <ele>1248.4</ele>
        <time>2026-08-18T09:37:51.994Z</time>
      </trkpt>
      <trkpt lat="45.38734" lon="4.61931">
        <ele>1248.4</ele>
        <time>2026-08-18T09:37:52.995Z</time>
      </trkpt>
      <trkpt lat="45.38734" lon="4.61931">
        <ele>1248</ele>
        <time>2026-08-18T09:37:54.995Z</time>
      </trkpt>
      <trkpt lat="45.38733" lon="4.61931">
        <ele>1248</ele>
        <time>2026-08-18T09:37:55.995Z</time>
      </trkpt>
      <trkpt lat="45.38733" lon="4.61931">
        <ele>1247.9</ele>
        <time>2026-08-18T09:37:57.994Z</time>
      </trkpt>
      <trkpt lat="45.38733" lon="4.61931">
        <ele>1247.6</ele>
        <time>2026-08-18T09:37:58.995Z</time>
      </trkpt>
      <trkpt lat="45.38733" lon="4.61931">
        <ele>1247.7</ele>
        <time>2026-08-18T09:37:59.995Z</time>
      </trkpt>
      <trkpt lat="45.38733" lon="4.61931">
        <ele>1248</ele>
        <time>2026-08-18T09:38:00.995Z</time>
      </trkpt>
      <trkpt lat="45.38733" lon="4.61932">
        <ele>1247.1</ele>
        <time>2026-08-18T09:38:01.995Z</time>
      </trkpt>
      <trkpt lat="45.38734" lon="4.61933">
        <ele>1246.9</ele>
        <time>2026-08-18T09:38:03.994Z</time>
      </trkpt>
      <trkpt lat="45.38734" lon="4.61934">
        <ele>1245.6</ele>
        <time>2026-08-18T09:38:04.995Z</time>
      </trkpt>
      <trkpt lat="45.38735" lon="4.61935">
        <ele>1245.6</ele>
        <time>2026-08-18T09:38:06.994Z</time>
      </trkpt>
      <trkpt lat="45.38736" lon="4.61935">
        <ele>1245.5</ele>
        <time>2026-08-18T09:38:07.995Z</time>
      </trkpt>
      <trkpt lat="45.38736" lon="4.61935">
        <ele>1245.8</ele>
        <time>2026-08-18T09:38:08.995Z</time>
      </trkpt>
      <trkpt lat="45.38736" lon="4.61936">
        <ele>1246.5</ele>
        <time>2026-08-18T09:38:09.995Z</time>
      </trkpt>
      <trkpt lat="45.38737" lon="4.61935">
        <ele>1247.4</ele>
        <time>2026-08-18T09:38:11.995Z</time>
      </trkpt>
      <trkpt lat="45.38736" lon="4.61935">
        <ele>1248.2</ele>
        <time>2026-08-18T09:38:13.995Z</time>
      </trkpt>
      <trkpt lat="45.38736" lon="4.61935">
        <ele>1247.8</ele>
        <time>2026-08-18T09:38:15.890Z</time>
      </trkpt>
      <trkpt lat="45.38736" lon="4.61935">
        <ele>1246.9</ele>
        <time>2026-08-18T09:38:16.995Z</time>
      </trkpt>
      <trkpt lat="45.38737" lon="4.61935">
        <ele>1247.9</ele>
        <time>2026-08-18T09:38:18.994Z</time>
      </trkpt>
      <trkpt lat="45.38737" lon="4.61936">
        <ele>1247.9</ele>
        <time>2026-08-18T09:38:19.995Z</time>
      </trkpt>
      <trkpt lat="45.38738" lon="4.61936">
        <ele>1247.4</ele>
        <time>2026-08-18T09:38:20.995Z</time>
      </trkpt>
      <trkpt lat="45.38738" lon="4.61937">
        <ele>1247.4</ele>
        <time>2026-08-18T09:38:21.995Z</time>
      </trkpt>
      <trkpt lat="45.38739" lon="4.61937">
        <ele>1246.5</ele>
        <time>2026-08-18T09:38:22.995Z</time>
      </trkpt>
      <trkpt lat="45.3874" lon="4.61938">
        <ele>1246.4</ele>
        <time>2026-08-18T09:38:24.995Z</time>
      </trkpt>
      <trkpt lat="45.38741" lon="4.61939">
        <ele>1246.5</ele>
        <time>2026-08-18T09:38:25.995Z</time>
      </trkpt>
      <trkpt lat="45.38741" lon="4.61939">
        <ele>1246</ele>
        <time>2026-08-18T09:38:26.995Z</time>
      </trkpt>
      <trkpt lat="45.38742" lon="4.6194">
        <ele>1247.1</ele>
        <time>2026-08-18T09:38:27.995Z</time>
      </trkpt>
      <trkpt lat="45.38742" lon="4.6194">
        <ele>1246.7</ele>
        <time>2026-08-18T09:38:28.995Z</time>
      </trkpt>
      <trkpt lat="45.38743" lon="4.61941">
        <ele>1246.7</ele>
        <time>2026-08-18T09:38:30.951Z</time>
      </trkpt>
      <trkpt lat="45.38744" lon="4.61941">
        <ele>1247.4</ele>
        <time>2026-08-18T09:38:31.995Z</time>
      </trkpt>
      <trkpt lat="45.38747" lon="4.61943">
        <ele>1246.9</ele>
        <time>2026-08-18T09:38:33.995Z</time>
      </trkpt>
      <trkpt lat="45.38749" lon="4.61944">
        <ele>1244.6</ele>
        <time>2026-08-18T09:38:35.995Z</time>
      </trkpt>
      <trkpt lat="45.3875" lon="4.61945">
        <ele>1245.2</ele>
        <time>2026-08-18T09:38:36.995Z</time>
      </trkpt>
      <trkpt lat="45.38751" lon="4.61946">
        <ele>1245.4</ele>
        <time>2026-08-18T09:38:37.995Z</time>
      </trkpt>
      <trkpt lat="45.38751" lon="4.61947">
        <ele>1245.9</ele>
        <time>2026-08-18T09:38:38.995Z</time>
      </trkpt>
      <trkpt lat="45.38753" lon="4.6195">
        <ele>1244.8</ele>
        <time>2026-08-18T09:38:40.995Z</time>
      </trkpt>
      <trkpt lat="45.38754" lon="4.61952">
        <ele>1244.1</ele>
        <time>2026-08-18T09:38:42.994Z</time>
      </trkpt>
      <trkpt lat="45.38755" lon="4.61953">
        <ele>1243.9</ele>
        <time>2026-08-18T09:38:43.994Z</time>
      </trkpt>
      <trkpt lat="45.38755" lon="4.61955">
        <ele>1243.4</ele>
        <time>2026-08-18T09:38:44.994Z</time>
      </trkpt>
      <trkpt lat="45.38756" lon="4.61956">
        <ele>1243.8</ele>
        <time>2026-08-18T09:38:45.995Z</time>
      </trkpt>
      <trkpt lat="45.38757" lon="4.61956">
        <ele>1243.6</ele>
        <time>2026-08-18T09:38:46.995Z</time>
      </trkpt>
      <trkpt lat="45.38759" lon="4.61957">
        <ele>1242.5</ele>
        <time>2026-08-18T09:38:48.995Z</time>
      </trkpt>
      <trkpt lat="45.38761" lon="4.61958">
        <ele>1242.6</ele>
        <time>2026-08-18T09:38:50.994Z</time>
      </trkpt>
      <trkpt lat="45.38762" lon="4.61959">
        <ele>1241.7</ele>
        <time>2026-08-18T09:38:51.995Z</time>
      </trkpt>
      <trkpt lat="45.38763" lon="4.61959">
        <ele>1241.8</ele>
        <time>2026-08-18T09:38:53.995Z</time>
      </trkpt>
      <trkpt lat="45.38764" lon="4.6196">
        <ele>1242.5</ele>
        <time>2026-08-18T09:38:54.995Z</time>
      </trkpt>
      <trkpt lat="45.38765" lon="4.61962">
        <ele>1242.4</ele>
        <time>2026-08-18T09:38:56.995Z</time>
      </trkpt>
      <trkpt lat="45.38765" lon="4.61962">
        <ele>1242.7</ele>
        <time>2026-08-18T09:38:57.995Z</time>
      </trkpt>
      <trkpt lat="45.38767" lon="4.61964">
        <ele>1242.5</ele>
        <time>2026-08-18T09:38:59.995Z</time>
      </trkpt>
      <trkpt lat="45.38768" lon="4.61965">
        <ele>1241.2</ele>
        <time>2026-08-18T09:39:01.995Z</time>
      </trkpt>
      <trkpt lat="45.38769" lon="4.61966">
        <ele>1241.7</ele>
        <time>2026-08-18T09:39:02.995Z</time>
      </trkpt>
      <trkpt lat="45.3877" lon="4.61968">
        <ele>1241.4</ele>
        <time>2026-08-18T09:39:04.990Z</time>
      </trkpt>
      <trkpt lat="45.38771" lon="4.61969">
        <ele>1241.9</ele>
        <time>2026-08-18T09:39:05.994Z</time>
      </trkpt>
      <trkpt lat="45.38771" lon="4.6197">
        <ele>1242.2</ele>
        <time>2026-08-18T09:39:06.994Z</time>
      </trkpt>
      <trkpt lat="45.38772" lon="4.61971">
        <ele>1242.1</ele>
        <time>2026-08-18T09:39:08.993Z</time>
      </trkpt>
      <trkpt lat="45.38773" lon="4.61971">
        <ele>1242.3</ele>
        <time>2026-08-18T09:39:09.994Z</time>
      </trkpt>
      <trkpt lat="45.38774" lon="4.61971">
        <ele>1242.7</ele>
        <time>2026-08-18T09:39:10.994Z</time>
      </trkpt>
      <trkpt lat="45.38775" lon="4.61972">
        <ele>1241.8</ele>
        <time>2026-08-18T09:39:12.994Z</time>
      </trkpt>
      <trkpt lat="45.38776" lon="4.61973">
        <ele>1241.1</ele>
        <time>2026-08-18T09:39:13.994Z</time>
      </trkpt>
      <trkpt lat="45.38777" lon="4.61973">
        <ele>1241.7</ele>
        <time>2026-08-18T09:39:14.994Z</time>
      </trkpt>
      <trkpt lat="45.38777" lon="4.61972">
        <ele>1241.9</ele>
        <time>2026-08-18T09:39:15.994Z</time>
      </trkpt>
      <trkpt lat="45.38778" lon="4.61973">
        <ele>1240.4</ele>
        <time>2026-08-18T09:39:16.994Z</time>
      </trkpt>
      <trkpt lat="45.38779" lon="4.61973">
        <ele>1240.8</ele>
        <time>2026-08-18T09:39:17.994Z</time>
      </trkpt>
      <trkpt lat="45.38781" lon="4.61975">
        <ele>1239.5</ele>
        <time>2026-08-18T09:39:19.993Z</time>
      </trkpt>
      <trkpt lat="45.38782" lon="4.61976">
        <ele>1241.1</ele>
        <time>2026-08-18T09:39:20.994Z</time>
      </trkpt>
      <trkpt lat="45.38783" lon="4.61979">
        <ele>1239.8</ele>
        <time>2026-08-18T09:39:22.994Z</time>
      </trkpt>
      <trkpt lat="45.38784" lon="4.6198">
        <ele>1240</ele>
        <time>2026-08-18T09:39:23.994Z</time>
      </trkpt>
      <trkpt lat="45.38786" lon="4.61982">
        <ele>1239.6</ele>
        <time>2026-08-18T09:39:25.994Z</time>
      </trkpt>
      <trkpt lat="45.38788" lon="4.61984">
        <ele>1239.6</ele>
        <time>2026-08-18T09:39:27.993Z</time>
      </trkpt>
      <trkpt lat="45.38788" lon="4.61986">
        <ele>1239.1</ele>
        <time>2026-08-18T09:39:28.993Z</time>
      </trkpt>
      <trkpt lat="45.38789" lon="4.61987">
        <ele>1239.2</ele>
        <time>2026-08-18T09:39:29.993Z</time>
      </trkpt>
      <trkpt lat="45.3879" lon="4.61989">
        <ele>1239.2</ele>
        <time>2026-08-18T09:39:30.994Z</time>
      </trkpt>
      <trkpt lat="45.3879" lon="4.6199">
        <ele>1238.4</ele>
        <time>2026-08-18T09:39:31.994Z</time>
      </trkpt>
      <trkpt lat="45.38792" lon="4.61994">
        <ele>1238.3</ele>
        <time>2026-08-18T09:39:33.994Z</time>
      </trkpt>
      <trkpt lat="45.38793" lon="4.61996">
        <ele>1237.4</ele>
        <time>2026-08-18T09:39:35.993Z</time>
      </trkpt>
      <trkpt lat="45.38795" lon="4.61999">
        <ele>1237.1</ele>
        <time>2026-08-18T09:39:37.993Z</time>
      </trkpt>
      <trkpt lat="45.38796" lon="4.62">
        <ele>1237.3</ele>
        <time>2026-08-18T09:39:38.994Z</time>
      </trkpt>
      <trkpt lat="45.38796" lon="4.62001">
        <ele>1237.7</ele>
        <time>2026-08-18T09:39:39.994Z</time>
      </trkpt>
      <trkpt lat="45.38798" lon="4.62003">
        <ele>1237.1</ele>
        <time>2026-08-18T09:39:41.993Z</time>
      </trkpt>
      <trkpt lat="45.38799" lon="4.62004">
        <ele>1237.1</ele>
        <time>2026-08-18T09:39:42.994Z</time>
      </trkpt>
      <trkpt lat="45.388" lon="4.62005">
        <ele>1237.7</ele>
        <time>2026-08-18T09:39:43.994Z</time>
      </trkpt>
      <trkpt lat="45.38801" lon="4.62007">
        <ele>1237.2</ele>
        <time>2026-08-18T09:39:45.994Z</time>
      </trkpt>
      <trkpt lat="45.38802" lon="4.62007">
        <ele>1236.9</ele>
        <time>2026-08-18T09:39:46.994Z</time>
      </trkpt>
      <trkpt lat="45.38802" lon="4.62008">
        <ele>1237.2</ele>
        <time>2026-08-18T09:39:47.994Z</time>
      </trkpt>
      <trkpt lat="45.38802" lon="4.6201">
        <ele>1237</ele>
        <time>2026-08-18T09:39:49.994Z</time>
      </trkpt>
      <trkpt lat="45.38802" lon="4.6201">
        <ele>1237.2</ele>
        <time>2026-08-18T09:39:50.994Z</time>
      </trkpt>
      <trkpt lat="45.38802" lon="4.62011">
        <ele>1236.8</ele>
        <time>2026-08-18T09:39:51.994Z</time>
      </trkpt>
      <trkpt lat="45.38802" lon="4.62011">
        <ele>1236</ele>
        <time>2026-08-18T09:39:52.994Z</time>
      </trkpt>
      <trkpt lat="45.38803" lon="4.62012">
        <ele>1236</ele>
        <time>2026-08-18T09:39:54.993Z</time>
      </trkpt>
      <trkpt lat="45.38803" lon="4.62013">
        <ele>1236.3</ele>
        <time>2026-08-18T09:39:55.994Z</time>
      </trkpt>
      <trkpt lat="45.38804" lon="4.62014">
        <ele>1236.7</ele>
        <time>2026-08-18T09:39:57.994Z</time>
      </trkpt>
      <trkpt lat="45.38804" lon="4.62015">
        <ele>1236</ele>
        <time>2026-08-18T09:39:58.994Z</time>
      </trkpt>
      <trkpt lat="45.38804" lon="4.62016">
        <ele>1235.4</ele>
        <time>2026-08-18T09:39:59.994Z</time>
      </trkpt>
      <trkpt lat="45.38804" lon="4.62018">
        <ele>1235.3</ele>
        <time>2026-08-18T09:40:01.993Z</time>
      </trkpt>
      <trkpt lat="45.38804" lon="4.62019">
        <ele>1236</ele>
        <time>2026-08-18T09:40:02.993Z</time>
      </trkpt>
      <trkpt lat="45.38805" lon="4.62021">
        <ele>1236.7</ele>
        <time>2026-08-18T09:40:04.993Z</time>
      </trkpt>
      <trkpt lat="45.38805" lon="4.62024">
        <ele>1237.3</ele>
        <time>2026-08-18T09:40:05.993Z</time>
      </trkpt>
      <trkpt lat="45.38805" lon="4.62026">
        <ele>1237.3</ele>
        <time>2026-08-18T09:40:07.035Z</time>
      </trkpt>
      <trkpt lat="45.38805" lon="4.62029">
        <ele>1237</ele>
        <time>2026-08-18T09:40:09.010Z</time>
      </trkpt>
      <trkpt lat="45.38806" lon="4.62032">
        <ele>1236.8</ele>
        <time>2026-08-18T09:40:10.993Z</time>
      </trkpt>
      <trkpt lat="45.38807" lon="4.62033">
        <ele>1236.1</ele>
        <time>2026-08-18T09:40:11.994Z</time>
      </trkpt>
      <trkpt lat="45.38807" lon="4.62034">
        <ele>1236.1</ele>
        <time>2026-08-18T09:40:13.002Z</time>
      </trkpt>
      <trkpt lat="45.38809" lon="4.62037">
        <ele>1235.8</ele>
        <time>2026-08-18T09:40:14.994Z</time>
      </trkpt>
      <trkpt lat="45.3881" lon="4.62039">
        <ele>1236.1</ele>
        <time>2026-08-18T09:40:16.994Z</time>
      </trkpt>
      <trkpt lat="45.3881" lon="4.6204">
        <ele>1235.4</ele>
        <time>2026-08-18T09:40:18.023Z</time>
      </trkpt>
      <trkpt lat="45.38811" lon="4.62039">
        <ele>1234.9</ele>
        <time>2026-08-18T09:40:19.994Z</time>
      </trkpt>
      <trkpt lat="45.38812" lon="4.62039">
        <ele>1234.8</ele>
        <time>2026-08-18T09:40:21.993Z</time>
      </trkpt>
      <trkpt lat="45.38813" lon="4.62039">
        <ele>1234.8</ele>
        <time>2026-08-18T09:40:23.994Z</time>
      </trkpt>
      <trkpt lat="45.38815" lon="4.6204">
        <ele>1235</ele>
        <time>2026-08-18T09:40:25.994Z</time>
      </trkpt>
      <trkpt lat="45.38816" lon="4.6204">
        <ele>1234.7</ele>
        <time>2026-08-18T09:40:26.994Z</time>
      </trkpt>
      <trkpt lat="45.38817" lon="4.62041">
        <ele>1234.7</ele>
        <time>2026-08-18T09:40:28.994Z</time>
      </trkpt>
      <trkpt lat="45.38817" lon="4.62042">
        <ele>1235.7</ele>
        <time>2026-08-18T09:40:30.005Z</time>
      </trkpt>
      <trkpt lat="45.38817" lon="4.62044">
        <ele>1235.2</ele>
        <time>2026-08-18T09:40:31.947Z</time>
      </trkpt>
      <trkpt lat="45.38817" lon="4.62044">
        <ele>1234.8</ele>
        <time>2026-08-18T09:40:32.993Z</time>
      </trkpt>
      <trkpt lat="45.38818" lon="4.62045">
        <ele>1234.8</ele>
        <time>2026-08-18T09:40:33.998Z</time>
      </trkpt>
      <trkpt lat="45.38819" lon="4.62046">
        <ele>1235.1</ele>
        <time>2026-08-18T09:40:35.987Z</time>
      </trkpt>
      <trkpt lat="45.3882" lon="4.62047">
        <ele>1235.1</ele>
        <time>2026-08-18T09:40:36.994Z</time>
      </trkpt>
      <trkpt lat="45.3882" lon="4.62048">
        <ele>1235.2</ele>
        <time>2026-08-18T09:40:37.994Z</time>
      </trkpt>
      <trkpt lat="45.3882" lon="4.62049">
        <ele>1235.2</ele>
        <time>2026-08-18T09:40:38.994Z</time>
      </trkpt>
      <trkpt lat="45.3882" lon="4.62048">
        <ele>1235.2</ele>
        <time>2026-08-18T09:40:39.994Z</time>
      </trkpt>
      <trkpt lat="45.3882" lon="4.62048">
        <ele>1235.2</ele>
        <time>2026-08-18T09:40:41.994Z</time>
      </trkpt>
      <trkpt lat="45.3882" lon="4.62048">
        <ele>1235.2</ele>
        <time>2026-08-18T09:40:43.012Z</time>
      </trkpt>
      <trkpt lat="45.3882" lon="4.62047">
        <ele>1235.2</ele>
        <time>2026-08-18T09:40:44.993Z</time>
      </trkpt>
      <trkpt lat="45.3882" lon="4.62047">
        <ele>1235.2</ele>
        <time>2026-08-18T09:40:45.993Z</time>
      </trkpt>
      <trkpt lat="45.3882" lon="4.62048">
        <ele>1235.2</ele>
        <time>2026-08-18T09:40:47.004Z</time>
      </trkpt>
      <trkpt lat="45.3882" lon="4.62048">
        <ele>1235.2</ele>
        <time>2026-08-18T09:40:48.994Z</time>
      </trkpt>
      <trkpt lat="45.3882" lon="4.62048">
        <ele>1235.2</ele>
        <time>2026-08-18T09:40:50.998Z</time>
      </trkpt>
      <trkpt lat="45.3882" lon="4.62048">
        <ele>1235.2</ele>
        <time>2026-08-18T09:40:52.993Z</time>
      </trkpt>
      <trkpt lat="45.3882" lon="4.62048">
        <ele>1235.2</ele>
        <time>2026-08-18T09:40:53.994Z</time>
      </trkpt>
      <trkpt lat="45.3882" lon="4.62048">
        <ele>1235.6</ele>
        <time>2026-08-18T09:40:54.994Z</time>
      </trkpt>
      <trkpt lat="45.3882" lon="4.62048">
        <ele>1235.5</ele>
        <time>2026-08-18T09:40:56.018Z</time>
      </trkpt>
      <trkpt lat="45.38821" lon="4.62048">
        <ele>1235.3</ele>
        <time>2026-08-18T09:40:57.994Z</time>
      </trkpt>
      <trkpt lat="45.38822" lon="4.62049">
        <ele>1235.7</ele>
        <time>2026-08-18T09:41:00.011Z</time>
      </trkpt>
      <trkpt lat="45.38824" lon="4.6205">
        <ele>1236.6</ele>
        <time>2026-08-18T09:41:01.993Z</time>
      </trkpt>
      <trkpt lat="45.38824" lon="4.62051">
        <ele>1236.7</ele>
        <time>2026-08-18T09:41:02.994Z</time>
      </trkpt>
      <trkpt lat="45.38825" lon="4.62051">
        <ele>1236.7</ele>
        <time>2026-08-18T09:41:03.994Z</time>
      </trkpt>
      <trkpt lat="45.38826" lon="4.62052">
        <ele>1236.8</ele>
        <time>2026-08-18T09:41:04.994Z</time>
      </trkpt>
      <trkpt lat="45.38828" lon="4.62053">
        <ele>1236.6</ele>
        <time>2026-08-18T09:41:06.994Z</time>
      </trkpt>
      <trkpt lat="45.38828" lon="4.62054">
        <ele>1236.2</ele>
        <time>2026-08-18T09:41:07.999Z</time>
      </trkpt>
      <trkpt lat="45.38829" lon="4.62055">
        <ele>1236.3</ele>
        <time>2026-08-18T09:41:09.993Z</time>
      </trkpt>
      <trkpt lat="45.3883" lon="4.62056">
        <ele>1236.4</ele>
        <time>2026-08-18T09:41:10.994Z</time>
      </trkpt>
      <trkpt lat="45.3883" lon="4.62057">
        <ele>1236.6</ele>
        <time>2026-08-18T09:41:11.994Z</time>
      </trkpt>
      <trkpt lat="45.38831" lon="4.62059">
        <ele>1236.7</ele>
        <time>2026-08-18T09:41:13.993Z</time>
      </trkpt>
      <trkpt lat="45.38831" lon="4.62059">
        <ele>1236.7</ele>
        <time>2026-08-18T09:41:14.994Z</time>
      </trkpt>
      <trkpt lat="45.38832" lon="4.62058">
        <ele>1236.5</ele>
        <time>2026-08-18T09:41:16.993Z</time>
      </trkpt>
      <trkpt lat="45.38833" lon="4.62058">
        <ele>1236.2</ele>
        <time>2026-08-18T09:41:17.994Z</time>
      </trkpt>
      <trkpt lat="45.38834" lon="4.62059">
        <ele>1236</ele>
        <time>2026-08-18T09:41:19.994Z</time>
      </trkpt>
      <trkpt lat="45.38834" lon="4.62059">
        <ele>1235.8</ele>
        <time>2026-08-18T09:41:21.004Z</time>
      </trkpt>
      <trkpt lat="45.38835" lon="4.62059">
        <ele>1235.1</ele>
        <time>2026-08-18T09:41:22.993Z</time>
      </trkpt>
      <trkpt lat="45.38836" lon="4.62059">
        <ele>1235.1</ele>
        <time>2026-08-18T09:41:23.994Z</time>
      </trkpt>
      <trkpt lat="45.38836" lon="4.6206">
        <ele>1234.6</ele>
        <time>2026-08-18T09:41:24.999Z</time>
      </trkpt>
      <trkpt lat="45.38837" lon="4.62061">
        <ele>1234.3</ele>
        <time>2026-08-18T09:41:26.994Z</time>
      </trkpt>
      <trkpt lat="45.38837" lon="4.62062">
        <ele>1234.3</ele>
        <time>2026-08-18T09:41:27.994Z</time>
      </trkpt>
      <trkpt lat="45.38837" lon="4.62062">
        <ele>1233.9</ele>
        <time>2026-08-18T09:41:28.994Z</time>
      </trkpt>
      <trkpt lat="45.38838" lon="4.62061">
        <ele>1234.1</ele>
        <time>2026-08-18T09:41:29.994Z</time>
      </trkpt>
      <trkpt lat="45.38838" lon="4.62061">
        <ele>1233.9</ele>
        <time>2026-08-18T09:41:30.994Z</time>
      </trkpt>
      <trkpt lat="45.38839" lon="4.62062">
        <ele>1233.7</ele>
        <time>2026-08-18T09:41:32.931Z</time>
      </trkpt>
      <trkpt lat="45.38839" lon="4.62063">
        <ele>1233.8</ele>
        <time>2026-08-18T09:41:34.012Z</time>
      </trkpt>
      <trkpt lat="45.3884" lon="4.62063">
        <ele>1233.7</ele>
        <time>2026-08-18T09:41:35.993Z</time>
      </trkpt>
      <trkpt lat="45.38841" lon="4.62064">
        <ele>1233.7</ele>
        <time>2026-08-18T09:41:37.029Z</time>
      </trkpt>
      <trkpt lat="45.38841" lon="4.62064">
        <ele>1232.9</ele>
        <time>2026-08-18T09:41:38.993Z</time>
      </trkpt>
      <trkpt lat="45.38841" lon="4.62064">
        <ele>1232.4</ele>
        <time>2026-08-18T09:41:39.993Z</time>
      </trkpt>
      <trkpt lat="45.38842" lon="4.62064">
        <ele>1232.4</ele>
        <time>2026-08-18T09:41:40.993Z</time>
      </trkpt>
      <trkpt lat="45.38843" lon="4.62065">
        <ele>1232.7</ele>
        <time>2026-08-18T09:41:41.999Z</time>
      </trkpt>
      <trkpt lat="45.38844" lon="4.62065">
        <ele>1232.7</ele>
        <time>2026-08-18T09:41:43.008Z</time>
      </trkpt>
      <trkpt lat="45.38845" lon="4.62066">
        <ele>1230.4</ele>
        <time>2026-08-18T09:41:44.994Z</time>
      </trkpt>
      <trkpt lat="45.38845" lon="4.62064">
        <ele>1230.9</ele>
        <time>2026-08-18T09:41:47.019Z</time>
      </trkpt>
      <trkpt lat="45.38846" lon="4.62066">
        <ele>1230.9</ele>
        <time>2026-08-18T09:41:48.994Z</time>
      </trkpt>
      <trkpt lat="45.38846" lon="4.62066">
        <ele>1230.8</ele>
        <time>2026-08-18T09:41:49.994Z</time>
      </trkpt>
      <trkpt lat="45.38847" lon="4.62067">
        <ele>1231.3</ele>
        <time>2026-08-18T09:41:51.011Z</time>
      </trkpt>
      <trkpt lat="45.38847" lon="4.62067">
        <ele>1231.3</ele>
        <time>2026-08-18T09:41:52.032Z</time>
      </trkpt>
      <trkpt lat="45.38849" lon="4.62069">
        <ele>1230.5</ele>
        <time>2026-08-18T09:41:53.993Z</time>
      </trkpt>
      <trkpt lat="45.38849" lon="4.62069">
        <ele>1230.5</ele>
        <time>2026-08-18T09:41:55.026Z</time>
      </trkpt>
      <trkpt lat="45.3885" lon="4.62071">
        <ele>1230.3</ele>
        <time>2026-08-18T09:41:57.993Z</time>
      </trkpt>
      <trkpt lat="45.38851" lon="4.62072">
        <ele>1229.9</ele>
        <time>2026-08-18T09:41:58.997Z</time>
      </trkpt>
      <trkpt lat="45.38851" lon="4.62073">
        <ele>1229.5</ele>
        <time>2026-08-18T09:42:00.950Z</time>
      </trkpt>
      <trkpt lat="45.38851" lon="4.62074">
        <ele>1229.1</ele>
        <time>2026-08-18T09:42:01.993Z</time>
      </trkpt>
      <trkpt lat="45.38852" lon="4.62075">
        <ele>1229.1</ele>
        <time>2026-08-18T09:42:02.994Z</time>
      </trkpt>
      <trkpt lat="45.38853" lon="4.62075">
        <ele>1229.4</ele>
        <time>2026-08-18T09:42:03.994Z</time>
      </trkpt>
      <trkpt lat="45.38853" lon="4.62075">
        <ele>1229.6</ele>
        <time>2026-08-18T09:42:04.994Z</time>
      </trkpt>
      <trkpt lat="45.38854" lon="4.62074">
        <ele>1229.1</ele>
        <time>2026-08-18T09:42:05.994Z</time>
      </trkpt>
      <trkpt lat="45.38855" lon="4.62074">
        <ele>1230.1</ele>
        <time>2026-08-18T09:42:06.994Z</time>
      </trkpt>
      <trkpt lat="45.38855" lon="4.62075">
        <ele>1230.7</ele>
        <time>2026-08-18T09:42:08.993Z</time>
      </trkpt>
      <trkpt lat="45.38856" lon="4.62075">
        <ele>1230.5</ele>
        <time>2026-08-18T09:42:09.994Z</time>
      </trkpt>
      <trkpt lat="45.38857" lon="4.62076">
        <ele>1230.2</ele>
        <time>2026-08-18T09:42:10.994Z</time>
      </trkpt>
      <trkpt lat="45.38857" lon="4.62076">
        <ele>1230.2</ele>
        <time>2026-08-18T09:42:12.004Z</time>
      </trkpt>
      <trkpt lat="45.38858" lon="4.62078">
        <ele>1230</ele>
        <time>2026-08-18T09:42:13.994Z</time>
      </trkpt>
      <trkpt lat="45.38859" lon="4.62079">
        <ele>1230.2</ele>
        <time>2026-08-18T09:42:15.998Z</time>
      </trkpt>
      <trkpt lat="45.3886" lon="4.6208">
        <ele>1229.9</ele>
        <time>2026-08-18T09:42:17.994Z</time>
      </trkpt>
      <trkpt lat="45.38861" lon="4.6208">
        <ele>1230.2</ele>
        <time>2026-08-18T09:42:19.994Z</time>
      </trkpt>
      <trkpt lat="45.38861" lon="4.6208">
        <ele>1230.2</ele>
        <time>2026-08-18T09:42:20.994Z</time>
      </trkpt>
      <trkpt lat="45.38862" lon="4.6208">
        <ele>1229.6</ele>
        <time>2026-08-18T09:42:21.994Z</time>
      </trkpt>
      <trkpt lat="45.38862" lon="4.6208">
        <ele>1229.5</ele>
        <time>2026-08-18T09:42:22.994Z</time>
      </trkpt>
      <trkpt lat="45.38863" lon="4.62081">
        <ele>1229.2</ele>
        <time>2026-08-18T09:42:23.994Z</time>
      </trkpt>
      <trkpt lat="45.38864" lon="4.62081">
        <ele>1229.5</ele>
        <time>2026-08-18T09:42:25.011Z</time>
      </trkpt>
      <trkpt lat="45.38865" lon="4.62082">
        <ele>1229.7</ele>
        <time>2026-08-18T09:42:26.994Z</time>
      </trkpt>
      <trkpt lat="45.38865" lon="4.62082">
        <ele>1229.2</ele>
        <time>2026-08-18T09:42:27.994Z</time>
      </trkpt>
      <trkpt lat="45.38866" lon="4.62083">
        <ele>1229.5</ele>
        <time>2026-08-18T09:42:29.994Z</time>
      </trkpt>
      <trkpt lat="45.38866" lon="4.62084">
        <ele>1229.5</ele>
        <time>2026-08-18T09:42:31.993Z</time>
      </trkpt>
      <trkpt lat="45.38867" lon="4.62085">
        <ele>1229.7</ele>
        <time>2026-08-18T09:42:32.998Z</time>
      </trkpt>
      <trkpt lat="45.38866" lon="4.62085">
        <ele>1229.7</ele>
        <time>2026-08-18T09:42:34.994Z</time>
      </trkpt>
      <trkpt lat="45.38866" lon="4.62085">
        <ele>1229.7</ele>
        <time>2026-08-18T09:42:35.994Z</time>
      </trkpt>
      <trkpt lat="45.38866" lon="4.62085">
        <ele>1230.1</ele>
        <time>2026-08-18T09:42:36.994Z</time>
      </trkpt>
      <trkpt lat="45.38866" lon="4.62085">
        <ele>1229.8</ele>
        <time>2026-08-18T09:42:38.018Z</time>
      </trkpt>
      <trkpt lat="45.38866" lon="4.62085">
        <ele>1229.7</ele>
        <time>2026-08-18T09:42:39.994Z</time>
      </trkpt>
      <trkpt lat="45.38866" lon="4.62085">
        <ele>1229.7</ele>
        <time>2026-08-18T09:42:40.994Z</time>
      </trkpt>
      <trkpt lat="45.38866" lon="4.62085">
        <ele>1229.4</ele>
        <time>2026-08-18T09:42:42.011Z</time>
      </trkpt>
      <trkpt lat="45.38867" lon="4.62086">
        <ele>1230.1</ele>
        <time>2026-08-18T09:42:43.994Z</time>
      </trkpt>
      <trkpt lat="45.38867" lon="4.62086">
        <ele>1230.6</ele>
        <time>2026-08-18T09:42:44.994Z</time>
      </trkpt>
      <trkpt lat="45.38868" lon="4.62087">
        <ele>1230.6</ele>
        <time>2026-08-18T09:42:46.003Z</time>
      </trkpt>
      <trkpt lat="45.38869" lon="4.62089">
        <ele>1229.8</ele>
        <time>2026-08-18T09:42:47.926Z</time>
      </trkpt>
      <trkpt lat="45.38869" lon="4.6209">
        <ele>1229.9</ele>
        <time>2026-08-18T09:42:48.993Z</time>
      </trkpt>
      <trkpt lat="45.3887" lon="4.62091">
        <ele>1230.5</ele>
        <time>2026-08-18T09:42:49.997Z</time>
      </trkpt>
      <trkpt lat="45.38871" lon="4.62092">
        <ele>1230.3</ele>
        <time>2026-08-18T09:42:51.994Z</time>
      </trkpt>
      <trkpt lat="45.38871" lon="4.62093">
        <ele>1230.4</ele>
        <time>2026-08-18T09:42:53.993Z</time>
      </trkpt>
      <trkpt lat="45.38872" lon="4.62094">
        <ele>1230.7</ele>
        <time>2026-08-18T09:42:55.990Z</time>
      </trkpt>
      <trkpt lat="45.38873" lon="4.62096">
        <ele>1230.5</ele>
        <time>2026-08-18T09:42:57.891Z</time>
      </trkpt>
      <trkpt lat="45.38874" lon="4.62096">
        <ele>1230.4</ele>
        <time>2026-08-18T09:42:59.993Z</time>
      </trkpt>
      <trkpt lat="45.38874" lon="4.62097">
        <ele>1230.3</ele>
        <time>2026-08-18T09:43:00.994Z</time>
      </trkpt>
      <trkpt lat="45.38875" lon="4.62098">
        <ele>1230.3</ele>
        <time>2026-08-18T09:43:03.004Z</time>
      </trkpt>
      <trkpt lat="45.38875" lon="4.621">
        <ele>1229.7</ele>
        <time>2026-08-18T09:43:04.993Z</time>
      </trkpt>
      <trkpt lat="45.38876" lon="4.62101">
        <ele>1229.9</ele>
        <time>2026-08-18T09:43:05.993Z</time>
      </trkpt>
      <trkpt lat="45.38877" lon="4.62101">
        <ele>1229.6</ele>
        <time>2026-08-18T09:43:06.997Z</time>
      </trkpt>
      <trkpt lat="45.38879" lon="4.62102">
        <ele>1229.6</ele>
        <time>2026-08-18T09:43:08.994Z</time>
      </trkpt>
      <trkpt lat="45.38879" lon="4.62102">
        <ele>1229.4</ele>
        <time>2026-08-18T09:43:09.994Z</time>
      </trkpt>
      <trkpt lat="45.3888" lon="4.62103">
        <ele>1229.5</ele>
        <time>2026-08-18T09:43:10.994Z</time>
      </trkpt>
      <trkpt lat="45.38881" lon="4.62104">
        <ele>1229.9</ele>
        <time>2026-08-18T09:43:12.017Z</time>
      </trkpt>
      <trkpt lat="45.38882" lon="4.62106">
        <ele>1229.9</ele>
        <time>2026-08-18T09:43:13.994Z</time>
      </trkpt>
      <trkpt lat="45.38884" lon="4.62107">
        <ele>1230.5</ele>
        <time>2026-08-18T09:43:16.010Z</time>
      </trkpt>
      <trkpt lat="45.38886" lon="4.62108">
        <ele>1230.4</ele>
        <time>2026-08-18T09:43:17.952Z</time>
      </trkpt>
      <trkpt lat="45.38887" lon="4.62108">
        <ele>1231.4</ele>
        <time>2026-08-18T09:43:18.994Z</time>
      </trkpt>
      <trkpt lat="45.38888" lon="4.62109">
        <ele>1231.5</ele>
        <time>2026-08-18T09:43:20.003Z</time>
      </trkpt>
      <trkpt lat="45.38889" lon="4.62111">
        <ele>1232.1</ele>
        <time>2026-08-18T09:43:21.993Z</time>
      </trkpt>
      <trkpt lat="45.38889" lon="4.62111">
        <ele>1231.9</ele>
        <time>2026-08-18T09:43:22.993Z</time>
      </trkpt>
      <trkpt lat="45.3889" lon="4.62111">
        <ele>1231.2</ele>
        <time>2026-08-18T09:43:23.996Z</time>
      </trkpt>
      <trkpt lat="45.38891" lon="4.62112">
        <ele>1230.7</ele>
        <time>2026-08-18T09:43:25.994Z</time>
      </trkpt>
      <trkpt lat="45.38892" lon="4.62114">
        <ele>1231</ele>
        <time>2026-08-18T09:43:27.994Z</time>
      </trkpt>
      <trkpt lat="45.38893" lon="4.62115">
        <ele>1230.8</ele>
        <time>2026-08-18T09:43:29.016Z</time>
      </trkpt>
      <trkpt lat="45.38895" lon="4.62116">
        <ele>1230.8</ele>
        <time>2026-08-18T09:43:30.911Z</time>
      </trkpt>
      <trkpt lat="45.38896" lon="4.62116">
        <ele>1231</ele>
        <time>2026-08-18T09:43:33.009Z</time>
      </trkpt>
      <trkpt lat="45.38897" lon="4.62118">
        <ele>1231</ele>
        <time>2026-08-18T09:43:34.992Z</time>
      </trkpt>
      <trkpt lat="45.38898" lon="4.62119">
        <ele>1231</ele>
        <time>2026-08-18T09:43:35.993Z</time>
      </trkpt>
      <trkpt lat="45.38898" lon="4.6212">
        <ele>1230.8</ele>
        <time>2026-08-18T09:43:37.003Z</time>
      </trkpt>
      <trkpt lat="45.38898" lon="4.62119">
        <ele>1230.9</ele>
        <time>2026-08-18T09:43:38.994Z</time>
      </trkpt>
      <trkpt lat="45.38898" lon="4.62119">
        <ele>1230.9</ele>
        <time>2026-08-18T09:43:39.994Z</time>
      </trkpt>
      <trkpt lat="45.38898" lon="4.62119">
        <ele>1230.6</ele>
        <time>2026-08-18T09:43:40.996Z</time>
      </trkpt>
      <trkpt lat="45.38898" lon="4.62119">
        <ele>1230.7</ele>
        <time>2026-08-18T09:43:42.993Z</time>
      </trkpt>
      <trkpt lat="45.38898" lon="4.62119">
        <ele>1230.7</ele>
        <time>2026-08-18T09:43:43.993Z</time>
      </trkpt>
      <trkpt lat="45.38898" lon="4.62118">
        <ele>1230.7</ele>
        <time>2026-08-18T09:43:44.994Z</time>
      </trkpt>
      <trkpt lat="45.38899" lon="4.62118">
        <ele>1230.4</ele>
        <time>2026-08-18T09:43:46.016Z</time>
      </trkpt>
      <trkpt lat="45.38899" lon="4.62118">
        <ele>1230.5</ele>
        <time>2026-08-18T09:43:47.994Z</time>
      </trkpt>
      <trkpt lat="45.38899" lon="4.62118">
        <ele>1230.5</ele>
        <time>2026-08-18T09:43:48.994Z</time>
      </trkpt>
      <trkpt lat="45.38899" lon="4.62118">
        <ele>1230.5</ele>
        <time>2026-08-18T09:43:50.009Z</time>
      </trkpt>
      <trkpt lat="45.38899" lon="4.62118">
        <ele>1230.5</ele>
        <time>2026-08-18T09:43:51.994Z</time>
      </trkpt>
      <trkpt lat="45.38899" lon="4.62118">
        <ele>1230.5</ele>
        <time>2026-08-18T09:43:52.994Z</time>
      </trkpt>
      <trkpt lat="45.38899" lon="4.62118">
        <ele>1230.5</ele>
        <time>2026-08-18T09:43:54.001Z</time>
      </trkpt>
      <trkpt lat="45.38899" lon="4.62119">
        <ele>1230.7</ele>
        <time>2026-08-18T09:43:55.994Z</time>
      </trkpt>
      <trkpt lat="45.38899" lon="4.62119">
        <ele>1230.7</ele>
        <time>2026-08-18T09:43:56.994Z</time>
      </trkpt>
      <trkpt lat="45.38899" lon="4.62119">
        <ele>1230.7</ele>
        <time>2026-08-18T09:43:57.994Z</time>
      </trkpt>
      <trkpt lat="45.38899" lon="4.62119">
        <ele>1230.7</ele>
        <time>2026-08-18T09:43:58.994Z</time>
      </trkpt>
      <trkpt lat="45.389" lon="4.62119">
        <ele>1230.7</ele>
        <time>2026-08-18T09:43:59.994Z</time>
      </trkpt>
      <trkpt lat="45.389" lon="4.62119">
        <ele>1230.7</ele>
        <time>2026-08-18T09:44:00.994Z</time>
      </trkpt>
      <trkpt lat="45.38899" lon="4.62119">
        <ele>1230.7</ele>
        <time>2026-08-18T09:44:02.993Z</time>
      </trkpt>
      <trkpt lat="45.38899" lon="4.62119">
        <ele>1230.7</ele>
        <time>2026-08-18T09:44:03.993Z</time>
      </trkpt>
      <trkpt lat="45.38899" lon="4.62119">
        <ele>1230.5</ele>
        <time>2026-08-18T09:44:04.993Z</time>
      </trkpt>
      <trkpt lat="45.38899" lon="4.62119">
        <ele>1230.2</ele>
        <time>2026-08-18T09:44:05.994Z</time>
      </trkpt>
      <trkpt lat="45.38899" lon="4.62119">
        <ele>1230.6</ele>
        <time>2026-08-18T09:44:07.008Z</time>
      </trkpt>
      <trkpt lat="45.38899" lon="4.62119">
        <ele>1230.9</ele>
        <time>2026-08-18T09:44:08.994Z</time>
      </trkpt>
      <trkpt lat="45.38898" lon="4.62118">
        <ele>1231.3</ele>
        <time>2026-08-18T09:44:10.994Z</time>
      </trkpt>
      <trkpt lat="45.38899" lon="4.62118">
        <ele>1231.3</ele>
        <time>2026-08-18T09:44:11.994Z</time>
      </trkpt>
      <trkpt lat="45.38899" lon="4.62118">
        <ele>1231.4</ele>
        <time>2026-08-18T09:44:12.994Z</time>
      </trkpt>
      <trkpt lat="45.38899" lon="4.62118">
        <ele>1231.4</ele>
        <time>2026-08-18T09:44:13.994Z</time>
      </trkpt>
      <trkpt lat="45.38899" lon="4.62118">
        <ele>1231.4</ele>
        <time>2026-08-18T09:44:14.994Z</time>
      </trkpt>
      <trkpt lat="45.38899" lon="4.62118">
        <ele>1231.4</ele>
        <time>2026-08-18T09:44:15.994Z</time>
      </trkpt>
      <trkpt lat="45.38899" lon="4.62118">
        <ele>1231.4</ele>
        <time>2026-08-18T09:44:16.994Z</time>
      </trkpt>
      <trkpt lat="45.38899" lon="4.62118">
        <ele>1231.4</ele>
        <time>2026-08-18T09:44:17.994Z</time>
      </trkpt>
      <trkpt lat="45.38899" lon="4.62118">
        <ele>1231.4</ele>
        <time>2026-08-18T09:44:18.994Z</time>
      </trkpt>
      <trkpt lat="45.38899" lon="4.62118">
        <ele>1231.4</ele>
        <time>2026-08-18T09:44:19.994Z</time>
      </trkpt>
      <trkpt lat="45.38899" lon="4.62118">
        <ele>1231.4</ele>
        <time>2026-08-18T09:44:21.994Z</time>
      </trkpt>
      <trkpt lat="45.38899" lon="4.62118">
        <ele>1231.4</ele>
        <time>2026-08-18T09:44:24.007Z</time>
      </trkpt>
      <trkpt lat="45.38899" lon="4.62118">
        <ele>1231.4</ele>
        <time>2026-08-18T09:44:25.993Z</time>
      </trkpt>
      <trkpt lat="45.38899" lon="4.62118">
        <ele>1231.4</ele>
        <time>2026-08-18T09:44:28.000Z</time>
      </trkpt>
      <trkpt lat="45.38899" lon="4.62118">
        <ele>1231.4</ele>
        <time>2026-08-18T09:44:29.993Z</time>
      </trkpt>
      <trkpt lat="45.38899" lon="4.62118">
        <ele>1231.4</ele>
        <time>2026-08-18T09:44:30.994Z</time>
      </trkpt>
      <trkpt lat="45.38899" lon="4.62118">
        <ele>1231.4</ele>
        <time>2026-08-18T09:44:31.994Z</time>
      </trkpt>
      <trkpt lat="45.38899" lon="4.62118">
        <ele>1231.4</ele>
        <time>2026-08-18T09:44:33.994Z</time>
      </trkpt>
      <trkpt lat="45.38899" lon="4.62118">
        <ele>1231.4</ele>
        <time>2026-08-18T09:44:35.994Z</time>
      </trkpt>
      <trkpt lat="45.38899" lon="4.62118">
        <ele>1231.4</ele>
        <time>2026-08-18T09:44:37.994Z</time>
      </trkpt>
      <trkpt lat="45.38899" lon="4.62118">
        <ele>1231.4</ele>
        <time>2026-08-18T09:44:39.994Z</time>
      </trkpt>
      <trkpt lat="45.38899" lon="4.62118">
        <ele>1231.4</ele>
        <time>2026-08-18T09:44:41.007Z</time>
      </trkpt>
      <trkpt lat="45.38899" lon="4.62118">
        <ele>1231.4</ele>
        <time>2026-08-18T09:44:42.993Z</time>
      </trkpt>
      <trkpt lat="45.38899" lon="4.62118">
        <ele>1231.4</ele>
        <time>2026-08-18T09:44:45.000Z</time>
      </trkpt>
      <trkpt lat="45.38899" lon="4.62118">
        <ele>1231.4</ele>
        <time>2026-08-18T09:44:46.994Z</time>
      </trkpt>
      <trkpt lat="45.38899" lon="4.62118">
        <ele>1231.4</ele>
        <time>2026-08-18T09:44:47.994Z</time>
      </trkpt>
      <trkpt lat="45.38899" lon="4.62118">
        <ele>1231.4</ele>
        <time>2026-08-18T09:44:48.994Z</time>
      </trkpt>
      <trkpt lat="45.38899" lon="4.62118">
        <ele>1231.4</ele>
        <time>2026-08-18T09:44:50.994Z</time>
      </trkpt>
      <trkpt lat="45.38899" lon="4.62118">
        <ele>1231.4</ele>
        <time>2026-08-18T09:44:51.994Z</time>
      </trkpt>
      <trkpt lat="45.38899" lon="4.62118">
        <ele>1231.4</ele>
        <time>2026-08-18T09:44:52.994Z</time>
      </trkpt>
      <trkpt lat="45.38899" lon="4.62118">
        <ele>1231.3</ele>
        <time>2026-08-18T09:44:54.992Z</time>
      </trkpt>
      <trkpt lat="45.38899" lon="4.62119">
        <ele>1231.4</ele>
        <time>2026-08-18T09:44:55.994Z</time>
      </trkpt>
      <trkpt lat="45.38899" lon="4.62118">
        <ele>1231.4</ele>
        <time>2026-08-18T09:44:56.994Z</time>
      </trkpt>
      <trkpt lat="45.38899" lon="4.62119">
        <ele>1231.4</ele>
        <time>2026-08-18T09:44:58.006Z</time>
      </trkpt>
      <trkpt lat="45.38899" lon="4.62119">
        <ele>1231.4</ele>
        <time>2026-08-18T09:44:59.994Z</time>
      </trkpt>
      <trkpt lat="45.38899" lon="4.62119">
        <ele>1231.4</ele>
        <time>2026-08-18T09:45:01.998Z</time>
      </trkpt>
      <trkpt lat="45.38899" lon="4.62119">
        <ele>1231.4</ele>
        <time>2026-08-18T09:45:03.994Z</time>
      </trkpt>
      <trkpt lat="45.38899" lon="4.62119">
        <ele>1231.4</ele>
        <time>2026-08-18T09:45:04.994Z</time>
      </trkpt>
      <trkpt lat="45.38899" lon="4.62119">
        <ele>1231.4</ele>
        <time>2026-08-18T09:45:05.994Z</time>
      </trkpt>
      <trkpt lat="45.38899" lon="4.62119">
        <ele>1231.4</ele>
        <time>2026-08-18T09:45:07.994Z</time>
      </trkpt>
      <trkpt lat="45.38899" lon="4.62119">
        <ele>1231.4</ele>
        <time>2026-08-18T09:45:08.994Z</time>
      </trkpt>
      <trkpt lat="45.38899" lon="4.62119">
        <ele>1231.4</ele>
        <time>2026-08-18T09:45:09.994Z</time>
      </trkpt>
      <trkpt lat="45.38899" lon="4.62119">
        <ele>1231.4</ele>
        <time>2026-08-18T09:45:10.994Z</time>
      </trkpt>
      <trkpt lat="45.38899" lon="4.62119">
        <ele>1231.4</ele>
        <time>2026-08-18T09:45:12.994Z</time>
      </trkpt>
      <trkpt lat="45.38899" lon="4.62119">
        <ele>1231.4</ele>
        <time>2026-08-18T09:45:15.005Z</time>
      </trkpt>
      <trkpt lat="45.38899" lon="4.62119">
        <ele>1231.4</ele>
        <time>2026-08-18T09:45:16.993Z</time>
      </trkpt>
      <trkpt lat="45.38899" lon="4.62119">
        <ele>1231.4</ele>
        <time>2026-08-18T09:45:17.994Z</time>
      </trkpt>
      <trkpt lat="45.38899" lon="4.62119">
        <ele>1231.4</ele>
        <time>2026-08-18T09:45:18.998Z</time>
      </trkpt>
      <trkpt lat="45.38899" lon="4.62119">
        <ele>1231.4</ele>
        <time>2026-08-18T09:45:20.994Z</time>
      </trkpt>
      <trkpt lat="45.38899" lon="4.62119">
        <ele>1231.4</ele>
        <time>2026-08-18T09:45:21.994Z</time>
      </trkpt>
      <trkpt lat="45.38899" lon="4.62119">
        <ele>1231.4</ele>
        <time>2026-08-18T09:45:22.994Z</time>
      </trkpt>
      <trkpt lat="45.38899" lon="4.62119">
        <ele>1231.4</ele>
        <time>2026-08-18T09:45:24.994Z</time>
      </trkpt>
      <trkpt lat="45.38899" lon="4.62119">
        <ele>1231.4</ele>
        <time>2026-08-18T09:45:25.994Z</time>
      </trkpt>
      <trkpt lat="45.38899" lon="4.62119">
        <ele>1231.4</ele>
        <time>2026-08-18T09:45:26.994Z</time>
      </trkpt>
      <trkpt lat="45.38899" lon="4.62119">
        <ele>1231.4</ele>
        <time>2026-08-18T09:45:28.012Z</time>
      </trkpt>
      <trkpt lat="45.38899" lon="4.62119">
        <ele>1231.4</ele>
        <time>2026-08-18T09:45:29.993Z</time>
      </trkpt>
      <trkpt lat="45.38899" lon="4.62119">
        <ele>1231.4</ele>
        <time>2026-08-18T09:45:30.993Z</time>
      </trkpt>
      <trkpt lat="45.38899" lon="4.62119">
        <ele>1231.4</ele>
        <time>2026-08-18T09:45:32.005Z</time>
      </trkpt>
      <trkpt lat="45.38899" lon="4.62119">
        <ele>1231.4</ele>
        <time>2026-08-18T09:45:33.994Z</time>
      </trkpt>
      <trkpt lat="45.38899" lon="4.62119">
        <ele>1231.4</ele>
        <time>2026-08-18T09:45:35.998Z</time>
      </trkpt>
      <trkpt lat="45.38899" lon="4.62119">
        <ele>1231.4</ele>
        <time>2026-08-18T09:45:37.994Z</time>
      </trkpt>
      <trkpt lat="45.38899" lon="4.62119">
        <ele>1231.4</ele>
        <time>2026-08-18T09:45:38.994Z</time>
      </trkpt>
      <trkpt lat="45.38899" lon="4.62119">
        <ele>1231.4</ele>
        <time>2026-08-18T09:45:40.994Z</time>
      </trkpt>
      <trkpt lat="45.38899" lon="4.62119">
        <ele>1231.4</ele>
        <time>2026-08-18T09:45:42.994Z</time>
      </trkpt>
      <trkpt lat="45.38899" lon="4.62119">
        <ele>1231.4</ele>
        <time>2026-08-18T09:45:44.994Z</time>
      </trkpt>
      <trkpt lat="45.38899" lon="4.62119">
        <ele>1231.4</ele>
        <time>2026-08-18T09:45:46.994Z</time>
      </trkpt>
      <trkpt lat="45.38899" lon="4.62119">
        <ele>1231.4</ele>
        <time>2026-08-18T09:45:49.004Z</time>
      </trkpt>
      <trkpt lat="45.38899" lon="4.62119">
        <ele>1231.4</ele>
        <time>2026-08-18T09:45:50.993Z</time>
      </trkpt>
      <trkpt lat="45.38899" lon="4.62119">
        <ele>1231.4</ele>
        <time>2026-08-18T09:45:51.993Z</time>
      </trkpt>
      <trkpt lat="45.38899" lon="4.62119">
        <ele>1231.4</ele>
        <time>2026-08-18T09:45:52.997Z</time>
      </trkpt>
      <trkpt lat="45.38899" lon="4.62119">
        <ele>1231.4</ele>
        <time>2026-08-18T09:45:54.993Z</time>
      </trkpt>
      <trkpt lat="45.38899" lon="4.62119">
        <ele>1231.4</ele>
        <time>2026-08-18T09:45:55.994Z</time>
      </trkpt>
      <trkpt lat="45.38899" lon="4.62119">
        <ele>1231.4</ele>
        <time>2026-08-18T09:45:56.994Z</time>
      </trkpt>
      <trkpt lat="45.38899" lon="4.62119">
        <ele>1231.4</ele>
        <time>2026-08-18T09:45:58.016Z</time>
      </trkpt>
      <trkpt lat="45.38899" lon="4.62119">
        <ele>1231.4</ele>
        <time>2026-08-18T09:45:59.993Z</time>
      </trkpt>
      <trkpt lat="45.38899" lon="4.62119">
        <ele>1231.4</ele>
        <time>2026-08-18T09:46:00.994Z</time>
      </trkpt>
      <trkpt lat="45.38899" lon="4.62119">
        <ele>1231.4</ele>
        <time>2026-08-18T09:46:02.010Z</time>
      </trkpt>
      <trkpt lat="45.38899" lon="4.62118">
        <ele>1231.4</ele>
        <time>2026-08-18T09:46:03.994Z</time>
      </trkpt>
      <trkpt lat="45.38899" lon="4.62118">
        <ele>1231.4</ele>
        <time>2026-08-18T09:46:04.994Z</time>
      </trkpt>
      <trkpt lat="45.38899" lon="4.62118">
        <ele>1231.4</ele>
        <time>2026-08-18T09:46:06.003Z</time>
      </trkpt>
      <trkpt lat="45.38899" lon="4.62118">
        <ele>1231.4</ele>
        <time>2026-08-18T09:46:07.994Z</time>
      </trkpt>
      <trkpt lat="45.38899" lon="4.62118">
        <ele>1231.4</ele>
        <time>2026-08-18T09:46:08.994Z</time>
      </trkpt>
      <trkpt lat="45.38899" lon="4.62118">
        <ele>1231.4</ele>
        <time>2026-08-18T09:46:09.995Z</time>
      </trkpt>
      <trkpt lat="45.38899" lon="4.62118">
        <ele>1231.4</ele>
        <time>2026-08-18T09:46:11.994Z</time>
      </trkpt>
      <trkpt lat="45.38899" lon="4.62118">
        <ele>1231.4</ele>
        <time>2026-08-18T09:46:13.993Z</time>
      </trkpt>
      <trkpt lat="45.38899" lon="4.62118">
        <ele>1231.4</ele>
        <time>2026-08-18T09:46:14.994Z</time>
      </trkpt>
      <trkpt lat="45.38899" lon="4.62118">
        <ele>1231.4</ele>
        <time>2026-08-18T09:46:15.994Z</time>
      </trkpt>
      <trkpt lat="45.38899" lon="4.62118">
        <ele>1231.4</ele>
        <time>2026-08-18T09:46:16.994Z</time>
      </trkpt>
      <trkpt lat="45.38899" lon="4.62118">
        <ele>1231.4</ele>
        <time>2026-08-18T09:46:17.994Z</time>
      </trkpt>
      <trkpt lat="45.38899" lon="4.62118">
        <ele>1231.4</ele>
        <time>2026-08-18T09:46:18.994Z</time>
      </trkpt>
      <trkpt lat="45.38899" lon="4.62118">
        <ele>1231.4</ele>
        <time>2026-08-18T09:46:19.994Z</time>
      </trkpt>
      <trkpt lat="45.38899" lon="4.62118">
        <ele>1231.3</ele>
        <time>2026-08-18T09:46:21.994Z</time>
      </trkpt>
      <trkpt lat="45.38899" lon="4.62118">
        <ele>1231.3</ele>
        <time>2026-08-18T09:46:23.994Z</time>
      </trkpt>
      <trkpt lat="45.38899" lon="4.62119">
        <ele>1231</ele>
        <time>2026-08-18T09:46:25.993Z</time>
      </trkpt>
      <trkpt lat="45.38899" lon="4.62119">
        <ele>1231</ele>
        <time>2026-08-18T09:46:26.994Z</time>
      </trkpt>
      <trkpt lat="45.38899" lon="4.62119">
        <ele>1231</ele>
        <time>2026-08-18T09:46:28.994Z</time>
      </trkpt>
      <trkpt lat="45.38899" lon="4.62119">
        <ele>1231</ele>
        <time>2026-08-18T09:46:29.994Z</time>
      </trkpt>
      <trkpt lat="45.38899" lon="4.62119">
        <ele>1231</ele>
        <time>2026-08-18T09:46:30.994Z</time>
      </trkpt>
      <trkpt lat="45.38899" lon="4.62119">
        <ele>1231</ele>
        <time>2026-08-18T09:46:31.994Z</time>
      </trkpt>
      <trkpt lat="45.38899" lon="4.62119">
        <ele>1231</ele>
        <time>2026-08-18T09:46:32.994Z</time>
      </trkpt>
      <trkpt lat="45.38899" lon="4.62119">
        <ele>1231</ele>
        <time>2026-08-18T09:46:34.993Z</time>
      </trkpt>
      <trkpt lat="45.38899" lon="4.62119">
        <ele>1231</ele>
        <time>2026-08-18T09:46:36.008Z</time>
      </trkpt>
      <trkpt lat="45.38899" lon="4.6212">
        <ele>1231.2</ele>
        <time>2026-08-18T09:46:37.994Z</time>
      </trkpt>
      <trkpt lat="45.38899" lon="4.62122">
        <ele>1230.9</ele>
        <time>2026-08-18T09:46:40.001Z</time>
      </trkpt>
      <trkpt lat="45.389" lon="4.62121">
        <ele>1230.7</ele>
        <time>2026-08-18T09:46:41.993Z</time>
      </trkpt>
      <trkpt lat="45.389" lon="4.62121">
        <ele>1230.7</ele>
        <time>2026-08-18T09:46:42.993Z</time>
      </trkpt>
      <trkpt lat="45.389" lon="4.62121">
        <ele>1230.7</ele>
        <time>2026-08-18T09:46:43.994Z</time>
      </trkpt>
      <trkpt lat="45.38901" lon="4.62121">
        <ele>1230.7</ele>
        <time>2026-08-18T09:46:44.994Z</time>
      </trkpt>
      <trkpt lat="45.38901" lon="4.62121">
        <ele>1230.7</ele>
        <time>2026-08-18T09:46:45.994Z</time>
      </trkpt>
      <trkpt lat="45.38901" lon="4.62121">
        <ele>1230.9</ele>
        <time>2026-08-18T09:46:47.993Z</time>
      </trkpt>
      <trkpt lat="45.38901" lon="4.62122">
        <ele>1230.9</ele>
        <time>2026-08-18T09:46:48.993Z</time>
      </trkpt>
      <trkpt lat="45.38902" lon="4.62123">
        <ele>1230.7</ele>
        <time>2026-08-18T09:46:50.993Z</time>
      </trkpt>
      <trkpt lat="45.38902" lon="4.62124">
        <ele>1230.7</ele>
        <time>2026-08-18T09:46:51.993Z</time>
      </trkpt>
      <trkpt lat="45.38903" lon="4.62124">
        <ele>1230.4</ele>
        <time>2026-08-18T09:46:53.007Z</time>
      </trkpt>
      <trkpt lat="45.38905" lon="4.62126">
        <ele>1230.2</ele>
        <time>2026-08-18T09:46:54.993Z</time>
      </trkpt>
      <trkpt lat="45.38906" lon="4.62127">
        <ele>1230.1</ele>
        <time>2026-08-18T09:46:55.994Z</time>
      </trkpt>
      <trkpt lat="45.38907" lon="4.62127">
        <ele>1230.2</ele>
        <time>2026-08-18T09:46:57.000Z</time>
      </trkpt>
      <trkpt lat="45.38907" lon="4.62127">
        <ele>1230.2</ele>
        <time>2026-08-18T09:46:58.030Z</time>
      </trkpt>
      <trkpt lat="45.38908" lon="4.62129">
        <ele>1229.6</ele>
        <time>2026-08-18T09:46:59.994Z</time>
      </trkpt>
      <trkpt lat="45.38909" lon="4.6213">
        <ele>1229.3</ele>
        <time>2026-08-18T09:47:00.994Z</time>
      </trkpt>
      <trkpt lat="45.38909" lon="4.62133">
        <ele>1229</ele>
        <time>2026-08-18T09:47:03.012Z</time>
      </trkpt>
      <trkpt lat="45.38909" lon="4.62135">
        <ele>1230.2</ele>
        <time>2026-08-18T09:47:04.993Z</time>
      </trkpt>
      <trkpt lat="45.3891" lon="4.62136">
        <ele>1229.3</ele>
        <time>2026-08-18T09:47:05.993Z</time>
      </trkpt>
      <trkpt lat="45.3891" lon="4.62137">
        <ele>1229.1</ele>
        <time>2026-08-18T09:47:06.993Z</time>
      </trkpt>
      <trkpt lat="45.3891" lon="4.62139">
        <ele>1229.3</ele>
        <time>2026-08-18T09:47:07.994Z</time>
      </trkpt>
      <trkpt lat="45.3891" lon="4.62141">
        <ele>1227.8</ele>
        <time>2026-08-18T09:47:10.006Z</time>
      </trkpt>
      <trkpt lat="45.38911" lon="4.62143">
        <ele>1227.4</ele>
        <time>2026-08-18T09:47:11.994Z</time>
      </trkpt>
      <trkpt lat="45.38911" lon="4.62145">
        <ele>1227</ele>
        <time>2026-08-18T09:47:13.998Z</time>
      </trkpt>
      <trkpt lat="45.38912" lon="4.62144">
        <ele>1226.7</ele>
        <time>2026-08-18T09:47:15.932Z</time>
      </trkpt>
      <trkpt lat="45.38912" lon="4.62145">
        <ele>1225.9</ele>
        <time>2026-08-18T09:47:16.993Z</time>
      </trkpt>
      <trkpt lat="45.38913" lon="4.62146">
        <ele>1225.6</ele>
        <time>2026-08-18T09:47:17.994Z</time>
      </trkpt>
      <trkpt lat="45.38913" lon="4.62147">
        <ele>1226.8</ele>
        <time>2026-08-18T09:47:18.994Z</time>
      </trkpt>
      <trkpt lat="45.38914" lon="4.62148">
        <ele>1227.6</ele>
        <time>2026-08-18T09:47:20.993Z</time>
      </trkpt>
      <trkpt lat="45.38914" lon="4.62149">
        <ele>1227.2</ele>
        <time>2026-08-18T09:47:21.993Z</time>
      </trkpt>
      <trkpt lat="45.38914" lon="4.6215">
        <ele>1227.6</ele>
        <time>2026-08-18T09:47:23.012Z</time>
      </trkpt>
      <trkpt lat="45.38914" lon="4.6215">
        <ele>1227.9</ele>
        <time>2026-08-18T09:47:24.993Z</time>
      </trkpt>
      <trkpt lat="45.38914" lon="4.6215">
        <ele>1227.8</ele>
        <time>2026-08-18T09:47:25.994Z</time>
      </trkpt>
      <trkpt lat="45.38914" lon="4.6215">
        <ele>1227.7</ele>
        <time>2026-08-18T09:47:27.005Z</time>
      </trkpt>
      <trkpt lat="45.38915" lon="4.62152">
        <ele>1225.8</ele>
        <time>2026-08-18T09:47:28.994Z</time>
      </trkpt>
      <trkpt lat="45.38915" lon="4.62153">
        <ele>1226.1</ele>
        <time>2026-08-18T09:47:29.994Z</time>
      </trkpt>
      <trkpt lat="45.38915" lon="4.62156">
        <ele>1227.4</ele>
        <time>2026-08-18T09:47:31.993Z</time>
      </trkpt>
      <trkpt lat="45.38915" lon="4.62157">
        <ele>1227.4</ele>
        <time>2026-08-18T09:47:33.007Z</time>
      </trkpt>
      <trkpt lat="45.38916" lon="4.62157">
        <ele>1226.9</ele>
        <time>2026-08-18T09:47:34.993Z</time>
      </trkpt>
      <trkpt lat="45.38917" lon="4.62157">
        <ele>1226.5</ele>
        <time>2026-08-18T09:47:36.017Z</time>
      </trkpt>
      <trkpt lat="45.38918" lon="4.62157">
        <ele>1226.3</ele>
        <time>2026-08-18T09:47:37.991Z</time>
      </trkpt>
      <trkpt lat="45.38919" lon="4.62159">
        <ele>1225.9</ele>
        <time>2026-08-18T09:47:40.011Z</time>
      </trkpt>
      <trkpt lat="45.38918" lon="4.6216">
        <ele>1226.2</ele>
        <time>2026-08-18T09:47:41.993Z</time>
      </trkpt>
      <trkpt lat="45.38918" lon="4.62161">
        <ele>1226.2</ele>
        <time>2026-08-18T09:47:42.993Z</time>
      </trkpt>
      <trkpt lat="45.38918" lon="4.62163">
        <ele>1225.8</ele>
        <time>2026-08-18T09:47:44.993Z</time>
      </trkpt>
      <trkpt lat="45.38918" lon="4.62163">
        <ele>1225.2</ele>
        <time>2026-08-18T09:47:45.993Z</time>
      </trkpt>
      <trkpt lat="45.38919" lon="4.62165">
        <ele>1223.8</ele>
        <time>2026-08-18T09:47:47.997Z</time>
      </trkpt>
      <trkpt lat="45.3892" lon="4.62167">
        <ele>1224.2</ele>
        <time>2026-08-18T09:47:49.948Z</time>
      </trkpt>
      <trkpt lat="45.3892" lon="4.62168">
        <ele>1223.3</ele>
        <time>2026-08-18T09:47:50.992Z</time>
      </trkpt>
      <trkpt lat="45.3892" lon="4.62169">
        <ele>1222.7</ele>
        <time>2026-08-18T09:47:51.993Z</time>
      </trkpt>
      <trkpt lat="45.3892" lon="4.62171">
        <ele>1223.3</ele>
        <time>2026-08-18T09:47:53.992Z</time>
      </trkpt>
      <trkpt lat="45.38919" lon="4.62173">
        <ele>1223.2</ele>
        <time>2026-08-18T09:47:55.993Z</time>
      </trkpt>
      <trkpt lat="45.38918" lon="4.62173">
        <ele>1223.1</ele>
        <time>2026-08-18T09:47:57.992Z</time>
      </trkpt>
      <trkpt lat="45.38918" lon="4.62175">
        <ele>1221.3</ele>
        <time>2026-08-18T09:47:59.993Z</time>
      </trkpt>
      <trkpt lat="45.38917" lon="4.62176">
        <ele>1220.7</ele>
        <time>2026-08-18T09:48:01.002Z</time>
      </trkpt>
      <trkpt lat="45.38917" lon="4.62177">
        <ele>1221.6</ele>
        <time>2026-08-18T09:48:03.012Z</time>
      </trkpt>
      <trkpt lat="45.38917" lon="4.62179">
        <ele>1221.6</ele>
        <time>2026-08-18T09:48:04.996Z</time>
      </trkpt>
      <trkpt lat="45.38918" lon="4.6218">
        <ele>1221.4</ele>
        <time>2026-08-18T09:48:06.991Z</time>
      </trkpt>
      <trkpt lat="45.38918" lon="4.6218">
        <ele>1221</ele>
        <time>2026-08-18T09:48:07.991Z</time>
      </trkpt>
      <trkpt lat="45.38919" lon="4.62181">
        <ele>1220.7</ele>
        <time>2026-08-18T09:48:08.992Z</time>
      </trkpt>
      <trkpt lat="45.3892" lon="4.62181">
        <ele>1220.5</ele>
        <time>2026-08-18T09:48:09.993Z</time>
      </trkpt>
      <trkpt lat="45.38921" lon="4.62181">
        <ele>1220.2</ele>
        <time>2026-08-18T09:48:10.993Z</time>
      </trkpt>
      <trkpt lat="45.38921" lon="4.62182">
        <ele>1220.3</ele>
        <time>2026-08-18T09:48:11.993Z</time>
      </trkpt>
      <trkpt lat="45.38921" lon="4.62184">
        <ele>1219.7</ele>
        <time>2026-08-18T09:48:13.993Z</time>
      </trkpt>
      <trkpt lat="45.38921" lon="4.62185">
        <ele>1219.9</ele>
        <time>2026-08-18T09:48:14.993Z</time>
      </trkpt>
      <trkpt lat="45.38919" lon="4.62187">
        <ele>1219.7</ele>
        <time>2026-08-18T09:48:16.993Z</time>
      </trkpt>
      <trkpt lat="45.38918" lon="4.62189">
        <ele>1219.9</ele>
        <time>2026-08-18T09:48:18.993Z</time>
      </trkpt>
      <trkpt lat="45.38918" lon="4.62189">
        <ele>1219.6</ele>
        <time>2026-08-18T09:48:19.993Z</time>
      </trkpt>
      <trkpt lat="45.38919" lon="4.62191">
        <ele>1219.7</ele>
        <time>2026-08-18T09:48:21.995Z</time>
      </trkpt>
      <trkpt lat="45.3892" lon="4.62192">
        <ele>1219.3</ele>
        <time>2026-08-18T09:48:23.993Z</time>
      </trkpt>
      <trkpt lat="45.38921" lon="4.62194">
        <ele>1219</ele>
        <time>2026-08-18T09:48:25.991Z</time>
      </trkpt>
      <trkpt lat="45.38921" lon="4.62195">
        <ele>1219.2</ele>
        <time>2026-08-18T09:48:26.991Z</time>
      </trkpt>
      <trkpt lat="45.38921" lon="4.62196">
        <ele>1219.1</ele>
        <time>2026-08-18T09:48:27.991Z</time>
      </trkpt>
      <trkpt lat="45.38921" lon="4.62197">
        <ele>1218.9</ele>
        <time>2026-08-18T09:48:28.993Z</time>
      </trkpt>
      <trkpt lat="45.38922" lon="4.62199">
        <ele>1218.4</ele>
        <time>2026-08-18T09:48:30.992Z</time>
      </trkpt>
      <trkpt lat="45.38922" lon="4.622">
        <ele>1218.1</ele>
        <time>2026-08-18T09:48:31.993Z</time>
      </trkpt>
      <trkpt lat="45.38923" lon="4.62201">
        <ele>1217.8</ele>
        <time>2026-08-18T09:48:32.993Z</time>
      </trkpt>
      <trkpt lat="45.38923" lon="4.62204">
        <ele>1218</ele>
        <time>2026-08-18T09:48:35.000Z</time>
      </trkpt>
      <trkpt lat="45.38921" lon="4.62206">
        <ele>1217.8</ele>
        <time>2026-08-18T09:48:36.992Z</time>
      </trkpt>
      <trkpt lat="45.3892" lon="4.62207">
        <ele>1217.7</ele>
        <time>2026-08-18T09:48:38.993Z</time>
      </trkpt>
      <trkpt lat="45.38918" lon="4.62209">
        <ele>1217.2</ele>
        <time>2026-08-18T09:48:40.975Z</time>
      </trkpt>
      <trkpt lat="45.38918" lon="4.6221">
        <ele>1216.8</ele>
        <time>2026-08-18T09:48:41.993Z</time>
      </trkpt>
      <trkpt lat="45.38917" lon="4.62212">
        <ele>1217</ele>
        <time>2026-08-18T09:48:42.993Z</time>
      </trkpt>
      <trkpt lat="45.38916" lon="4.62213">
        <ele>1217</ele>
        <time>2026-08-18T09:48:44.006Z</time>
      </trkpt>
      <trkpt lat="45.38916" lon="4.62215">
        <ele>1216</ele>
        <time>2026-08-18T09:48:45.992Z</time>
      </trkpt>
      <trkpt lat="45.38916" lon="4.62217">
        <ele>1216.3</ele>
        <time>2026-08-18T09:48:46.993Z</time>
      </trkpt>
      <trkpt lat="45.38915" lon="4.62218">
        <ele>1216.1</ele>
        <time>2026-08-18T09:48:48.006Z</time>
      </trkpt>
      <trkpt lat="45.38916" lon="4.62222">
        <ele>1215.7</ele>
        <time>2026-08-18T09:48:49.993Z</time>
      </trkpt>
      <trkpt lat="45.38916" lon="4.62224">
        <ele>1215.5</ele>
        <time>2026-08-18T09:48:51.999Z</time>
      </trkpt>
      <trkpt lat="45.38917" lon="4.62225">
        <ele>1215.5</ele>
        <time>2026-08-18T09:48:53.010Z</time>
      </trkpt>
      <trkpt lat="45.38918" lon="4.62227">
        <ele>1216.2</ele>
        <time>2026-08-18T09:48:54.992Z</time>
      </trkpt>
      <trkpt lat="45.38917" lon="4.62229">
        <ele>1215.2</ele>
        <time>2026-08-18T09:48:56.992Z</time>
      </trkpt>
      <trkpt lat="45.38916" lon="4.6223">
        <ele>1215.2</ele>
        <time>2026-08-18T09:48:58.030Z</time>
      </trkpt>
      <trkpt lat="45.38916" lon="4.62233">
        <ele>1214.4</ele>
        <time>2026-08-18T09:48:59.992Z</time>
      </trkpt>
      <trkpt lat="45.38916" lon="4.62234">
        <ele>1214.4</ele>
        <time>2026-08-18T09:49:01.015Z</time>
      </trkpt>
      <trkpt lat="45.38917" lon="4.62237">
        <ele>1214.8</ele>
        <time>2026-08-18T09:49:02.993Z</time>
      </trkpt>
      <trkpt lat="45.38917" lon="4.6224">
        <ele>1214.9</ele>
        <time>2026-08-18T09:49:04.914Z</time>
      </trkpt>
      <trkpt lat="45.38918" lon="4.62241">
        <ele>1215</ele>
        <time>2026-08-18T09:49:05.993Z</time>
      </trkpt>
      <trkpt lat="45.38918" lon="4.62242">
        <ele>1214.9</ele>
        <time>2026-08-18T09:49:06.993Z</time>
      </trkpt>
      <trkpt lat="45.38919" lon="4.62243">
        <ele>1215.5</ele>
        <time>2026-08-18T09:49:07.993Z</time>
      </trkpt>
      <trkpt lat="45.3892" lon="4.62244">
        <ele>1215.7</ele>
        <time>2026-08-18T09:49:08.998Z</time>
      </trkpt>
      <trkpt lat="45.3892" lon="4.62246">
        <ele>1215.9</ele>
        <time>2026-08-18T09:49:10.993Z</time>
      </trkpt>
      <trkpt lat="45.38921" lon="4.62247">
        <ele>1216.1</ele>
        <time>2026-08-18T09:49:12.993Z</time>
      </trkpt>
      <trkpt lat="45.38921" lon="4.62247">
        <ele>1216.1</ele>
        <time>2026-08-18T09:49:14.993Z</time>
      </trkpt>
      <trkpt lat="45.38921" lon="4.62247">
        <ele>1215.7</ele>
        <time>2026-08-18T09:49:15.993Z</time>
      </trkpt>
      <trkpt lat="45.38922" lon="4.62247">
        <ele>1216.4</ele>
        <time>2026-08-18T09:49:16.993Z</time>
      </trkpt>
      <trkpt lat="45.38922" lon="4.62248">
        <ele>1216.4</ele>
        <time>2026-08-18T09:49:18.012Z</time>
      </trkpt>
      <trkpt lat="45.38923" lon="4.62252">
        <ele>1216.4</ele>
        <time>2026-08-18T09:49:19.993Z</time>
      </trkpt>
      <trkpt lat="45.38923" lon="4.62256">
        <ele>1216.4</ele>
        <time>2026-08-18T09:49:22.027Z</time>
      </trkpt>
      <trkpt lat="45.38924" lon="4.62259">
        <ele>1216.1</ele>
        <time>2026-08-18T09:49:23.993Z</time>
      </trkpt>
      <trkpt lat="45.38925" lon="4.6226">
        <ele>1215.8</ele>
        <time>2026-08-18T09:49:24.993Z</time>
      </trkpt>
      <trkpt lat="45.38926" lon="4.62263">
        <ele>1216.2</ele>
        <time>2026-08-18T09:49:26.992Z</time>
      </trkpt>
      <trkpt lat="45.38926" lon="4.62265">
        <ele>1216.2</ele>
        <time>2026-08-18T09:49:27.992Z</time>
      </trkpt>
      <trkpt lat="45.38926" lon="4.62266">
        <ele>1216.4</ele>
        <time>2026-08-18T09:49:28.993Z</time>
      </trkpt>
      <trkpt lat="45.38927" lon="4.62267">
        <ele>1216.4</ele>
        <time>2026-08-18T09:49:29.993Z</time>
      </trkpt>
      <trkpt lat="45.38926" lon="4.6227">
        <ele>1217.5</ele>
        <time>2026-08-18T09:49:31.989Z</time>
      </trkpt>
      <trkpt lat="45.38927" lon="4.62271">
        <ele>1217.6</ele>
        <time>2026-08-18T09:49:32.993Z</time>
      </trkpt>
      <trkpt lat="45.38927" lon="4.62272">
        <ele>1217.8</ele>
        <time>2026-08-18T09:49:33.993Z</time>
      </trkpt>
      <trkpt lat="45.38928" lon="4.62273">
        <ele>1218</ele>
        <time>2026-08-18T09:49:35.010Z</time>
      </trkpt>
      <trkpt lat="45.38927" lon="4.62275">
        <ele>1217.8</ele>
        <time>2026-08-18T09:49:36.992Z</time>
      </trkpt>
      <trkpt lat="45.38927" lon="4.62276">
        <ele>1217.6</ele>
        <time>2026-08-18T09:49:37.992Z</time>
      </trkpt>
      <trkpt lat="45.38927" lon="4.62277">
        <ele>1217.2</ele>
        <time>2026-08-18T09:49:39.004Z</time>
      </trkpt>
      <trkpt lat="45.38927" lon="4.62277">
        <ele>1217.2</ele>
        <time>2026-08-18T09:49:40.993Z</time>
      </trkpt>
      <trkpt lat="45.38927" lon="4.62277">
        <ele>1217.2</ele>
        <time>2026-08-18T09:49:41.993Z</time>
      </trkpt>
      <trkpt lat="45.38927" lon="4.62277">
        <ele>1217.2</ele>
        <time>2026-08-18T09:49:42.997Z</time>
      </trkpt>
      <trkpt lat="45.38927" lon="4.62276">
        <ele>1217.1</ele>
        <time>2026-08-18T09:49:44.993Z</time>
      </trkpt>
      <trkpt lat="45.38927" lon="4.62277">
        <ele>1217.4</ele>
        <time>2026-08-18T09:49:45.993Z</time>
      </trkpt>
      <trkpt lat="45.38927" lon="4.62277">
        <ele>1217.2</ele>
        <time>2026-08-18T09:49:48.017Z</time>
      </trkpt>
      <trkpt lat="45.38928" lon="4.62281">
        <ele>1217.3</ele>
        <time>2026-08-18T09:49:49.992Z</time>
      </trkpt>
      <trkpt lat="45.38928" lon="4.62282">
        <ele>1216.9</ele>
        <time>2026-08-18T09:49:50.993Z</time>
      </trkpt>
      <trkpt lat="45.38929" lon="4.62284">
        <ele>1217</ele>
        <time>2026-08-18T09:49:52.010Z</time>
      </trkpt>
      <trkpt lat="45.38929" lon="4.62287">
        <ele>1217.3</ele>
        <time>2026-08-18T09:49:53.990Z</time>
      </trkpt>
      <trkpt lat="45.3893" lon="4.62289">
        <ele>1218.5</ele>
        <time>2026-08-18T09:49:54.992Z</time>
      </trkpt>
      <trkpt lat="45.3893" lon="4.6229">
        <ele>1219.4</ele>
        <time>2026-08-18T09:49:56.002Z</time>
      </trkpt>
      <trkpt lat="45.3893" lon="4.62292">
        <ele>1219.5</ele>
        <time>2026-08-18T09:49:57.993Z</time>
      </trkpt>
      <trkpt lat="45.38931" lon="4.62295">
        <ele>1219.7</ele>
        <time>2026-08-18T09:49:59.996Z</time>
      </trkpt>
      <trkpt lat="45.38932" lon="4.62297">
        <ele>1219.5</ele>
        <time>2026-08-18T09:50:01.967Z</time>
      </trkpt>
      <trkpt lat="45.38932" lon="4.62297">
        <ele>1220.2</ele>
        <time>2026-08-18T09:50:02.992Z</time>
      </trkpt>
      <trkpt lat="45.38932" lon="4.62298">
        <ele>1219.6</ele>
        <time>2026-08-18T09:50:03.993Z</time>
      </trkpt>
      <trkpt lat="45.38932" lon="4.62301">
        <ele>1219.6</ele>
        <time>2026-08-18T09:50:05.993Z</time>
      </trkpt>
      <trkpt lat="45.38932" lon="4.62302">
        <ele>1219.6</ele>
        <time>2026-08-18T09:50:07.034Z</time>
      </trkpt>
      <trkpt lat="45.38931" lon="4.62304">
        <ele>1219.7</ele>
        <time>2026-08-18T09:50:09.008Z</time>
      </trkpt>
      <trkpt lat="45.38929" lon="4.62306">
        <ele>1220.9</ele>
        <time>2026-08-18T09:50:10.992Z</time>
      </trkpt>
      <trkpt lat="45.38929" lon="4.62307">
        <ele>1221.3</ele>
        <time>2026-08-18T09:50:11.993Z</time>
      </trkpt>
      <trkpt lat="45.38928" lon="4.62308">
        <ele>1221.5</ele>
        <time>2026-08-18T09:50:13.001Z</time>
      </trkpt>
      <trkpt lat="45.38929" lon="4.6231">
        <ele>1221.4</ele>
        <time>2026-08-18T09:50:14.992Z</time>
      </trkpt>
      <trkpt lat="45.38929" lon="4.62311">
        <ele>1221.3</ele>
        <time>2026-08-18T09:50:15.993Z</time>
      </trkpt>
      <trkpt lat="45.38929" lon="4.62313">
        <ele>1221.6</ele>
        <time>2026-08-18T09:50:16.995Z</time>
      </trkpt>
      <trkpt lat="45.3893" lon="4.62314">
        <ele>1222</ele>
        <time>2026-08-18T09:50:18.021Z</time>
      </trkpt>
      <trkpt lat="45.38931" lon="4.62316">
        <ele>1222.2</ele>
        <time>2026-08-18T09:50:19.992Z</time>
      </trkpt>
      <trkpt lat="45.38931" lon="4.62317">
        <ele>1222.4</ele>
        <time>2026-08-18T09:50:20.993Z</time>
      </trkpt>
      <trkpt lat="45.38931" lon="4.62319">
        <ele>1222.9</ele>
        <time>2026-08-18T09:50:21.993Z</time>
      </trkpt>
      <trkpt lat="45.38931" lon="4.62321">
        <ele>1223.1</ele>
        <time>2026-08-18T09:50:23.909Z</time>
      </trkpt>
      <trkpt lat="45.38931" lon="4.62322">
        <ele>1222.5</ele>
        <time>2026-08-18T09:50:24.992Z</time>
      </trkpt>
      <trkpt lat="45.38931" lon="4.62324">
        <ele>1222.7</ele>
        <time>2026-08-18T09:50:26.007Z</time>
      </trkpt>
      <trkpt lat="45.38933" lon="4.62326">
        <ele>1223.2</ele>
        <time>2026-08-18T09:50:27.912Z</time>
      </trkpt>
      <trkpt lat="45.38933" lon="4.62328">
        <ele>1224.8</ele>
        <time>2026-08-18T09:50:28.991Z</time>
      </trkpt>
      <trkpt lat="45.38934" lon="4.6233">
        <ele>1225.1</ele>
        <time>2026-08-18T09:50:30.001Z</time>
      </trkpt>
      <trkpt lat="45.38936" lon="4.62333">
        <ele>1225.3</ele>
        <time>2026-08-18T09:50:31.913Z</time>
      </trkpt>
      <trkpt lat="45.38936" lon="4.62336">
        <ele>1225.7</ele>
        <time>2026-08-18T09:50:32.993Z</time>
      </trkpt>
      <trkpt lat="45.38935" lon="4.62338">
        <ele>1225.6</ele>
        <time>2026-08-18T09:50:33.994Z</time>
      </trkpt>
      <trkpt lat="45.38934" lon="4.62341">
        <ele>1225.4</ele>
        <time>2026-08-18T09:50:35.992Z</time>
      </trkpt>
      <trkpt lat="45.38934" lon="4.62342">
        <ele>1225.9</ele>
        <time>2026-08-18T09:50:36.993Z</time>
      </trkpt>
      <trkpt lat="45.38933" lon="4.62343">
        <ele>1225.7</ele>
        <time>2026-08-18T09:50:37.993Z</time>
      </trkpt>
      <trkpt lat="45.38933" lon="4.62344">
        <ele>1225</ele>
        <time>2026-08-18T09:50:39.928Z</time>
      </trkpt>
      <trkpt lat="45.38932" lon="4.62344">
        <ele>1224.9</ele>
        <time>2026-08-18T09:50:40.992Z</time>
      </trkpt>
      <trkpt lat="45.38932" lon="4.62345">
        <ele>1224.8</ele>
        <time>2026-08-18T09:50:41.993Z</time>
      </trkpt>
      <trkpt lat="45.38932" lon="4.62346">
        <ele>1225.1</ele>
        <time>2026-08-18T09:50:43.007Z</time>
      </trkpt>
      <trkpt lat="45.38933" lon="4.62347">
        <ele>1224.9</ele>
        <time>2026-08-18T09:50:44.992Z</time>
      </trkpt>
      <trkpt lat="45.38934" lon="4.62349">
        <ele>1224.9</ele>
        <time>2026-08-18T09:50:45.994Z</time>
      </trkpt>
      <trkpt lat="45.38935" lon="4.62351">
        <ele>1223.5</ele>
        <time>2026-08-18T09:50:47.000Z</time>
      </trkpt>
      <trkpt lat="45.38936" lon="4.62353">
        <ele>1223.3</ele>
        <time>2026-08-18T09:50:48.027Z</time>
      </trkpt>
      <trkpt lat="45.38936" lon="4.62358">
        <ele>1224.6</ele>
        <time>2026-08-18T09:50:49.992Z</time>
      </trkpt>
      <trkpt lat="45.38935" lon="4.62359">
        <ele>1225.3</ele>
        <time>2026-08-18T09:50:50.993Z</time>
      </trkpt>
      <trkpt lat="45.38935" lon="4.62361">
        <ele>1225</ele>
        <time>2026-08-18T09:50:51.993Z</time>
      </trkpt>
      <trkpt lat="45.38936" lon="4.62363">
        <ele>1225</ele>
        <time>2026-08-18T09:50:52.993Z</time>
      </trkpt>
      <trkpt lat="45.38936" lon="4.62364">
        <ele>1225.4</ele>
        <time>2026-08-18T09:50:53.993Z</time>
      </trkpt>
      <trkpt lat="45.38937" lon="4.62365">
        <ele>1224.6</ele>
        <time>2026-08-18T09:50:54.993Z</time>
      </trkpt>
      <trkpt lat="45.38937" lon="4.62366">
        <ele>1224.7</ele>
        <time>2026-08-18T09:50:56.013Z</time>
      </trkpt>
      <trkpt lat="45.38939" lon="4.62368">
        <ele>1226.3</ele>
        <time>2026-08-18T09:50:57.992Z</time>
      </trkpt>
      <trkpt lat="45.38939" lon="4.62369">
        <ele>1227.7</ele>
        <time>2026-08-18T09:50:58.992Z</time>
      </trkpt>
      <trkpt lat="45.38938" lon="4.62371">
        <ele>1228.4</ele>
        <time>2026-08-18T09:51:00.993Z</time>
      </trkpt>
      <trkpt lat="45.38937" lon="4.62371">
        <ele>1228.9</ele>
        <time>2026-08-18T09:51:01.993Z</time>
      </trkpt>
      <trkpt lat="45.38935" lon="4.62371">
        <ele>1229.7</ele>
        <time>2026-08-18T09:51:03.999Z</time>
      </trkpt>
      <trkpt lat="45.38935" lon="4.62369">
        <ele>1230.1</ele>
        <time>2026-08-18T09:51:05.992Z</time>
      </trkpt>
      <trkpt lat="45.38935" lon="4.62369">
        <ele>1230.1</ele>
        <time>2026-08-18T09:51:06.993Z</time>
      </trkpt>
      <trkpt lat="45.38935" lon="4.62368">
        <ele>1228.9</ele>
        <time>2026-08-18T09:51:09.018Z</time>
      </trkpt>
      <trkpt lat="45.38934" lon="4.62369">
        <ele>1228.9</ele>
        <time>2026-08-18T09:51:10.993Z</time>
      </trkpt>
      <trkpt lat="45.38932" lon="4.6237">
        <ele>1228.2</ele>
        <time>2026-08-18T09:51:12.992Z</time>
      </trkpt>
      <trkpt lat="45.38932" lon="4.6237">
        <ele>1228.3</ele>
        <time>2026-08-18T09:51:13.993Z</time>
      </trkpt>
      <trkpt lat="45.38931" lon="4.6237">
        <ele>1228.1</ele>
        <time>2026-08-18T09:51:15.933Z</time>
      </trkpt>
      <trkpt lat="45.3893" lon="4.6237">
        <ele>1228.3</ele>
        <time>2026-08-18T09:51:17.005Z</time>
      </trkpt>
      <trkpt lat="45.38927" lon="4.62369">
        <ele>1228.8</ele>
        <time>2026-08-18T09:51:18.993Z</time>
      </trkpt>
      <trkpt lat="45.38926" lon="4.62369">
        <ele>1229.1</ele>
        <time>2026-08-18T09:51:19.993Z</time>
      </trkpt>
      <trkpt lat="45.38926" lon="4.62369">
        <ele>1229.3</ele>
        <time>2026-08-18T09:51:20.998Z</time>
      </trkpt>
      <trkpt lat="45.38925" lon="4.6237">
        <ele>1230.3</ele>
        <time>2026-08-18T09:51:22.993Z</time>
      </trkpt>
      <trkpt lat="45.38924" lon="4.6237">
        <ele>1230.1</ele>
        <time>2026-08-18T09:51:24.993Z</time>
      </trkpt>
      <trkpt lat="45.38923" lon="4.62371">
        <ele>1230.2</ele>
        <time>2026-08-18T09:51:26.992Z</time>
      </trkpt>
      <trkpt lat="45.38922" lon="4.6237">
        <ele>1229.6</ele>
        <time>2026-08-18T09:51:28.993Z</time>
      </trkpt>
      <trkpt lat="45.38922" lon="4.6237">
        <ele>1229.4</ele>
        <time>2026-08-18T09:51:30.010Z</time>
      </trkpt>
      <trkpt lat="45.38922" lon="4.62369">
        <ele>1229.4</ele>
        <time>2026-08-18T09:51:31.993Z</time>
      </trkpt>
      <trkpt lat="45.38923" lon="4.62369">
        <ele>1229.4</ele>
        <time>2026-08-18T09:51:32.993Z</time>
      </trkpt>
      <trkpt lat="45.38923" lon="4.62369">
        <ele>1229.1</ele>
        <time>2026-08-18T09:51:34.993Z</time>
      </trkpt>
      <trkpt lat="45.38923" lon="4.62369">
        <ele>1228.9</ele>
        <time>2026-08-18T09:51:36.993Z</time>
      </trkpt>
      <trkpt lat="45.38922" lon="4.62369">
        <ele>1227.8</ele>
        <time>2026-08-18T09:51:37.996Z</time>
      </trkpt>
      <trkpt lat="45.38922" lon="4.62369">
        <ele>1226.8</ele>
        <time>2026-08-18T09:51:39.022Z</time>
      </trkpt>
      <trkpt lat="45.38922" lon="4.62369">
        <ele>1225.8</ele>
        <time>2026-08-18T09:51:40.993Z</time>
      </trkpt>
      <trkpt lat="45.3892" lon="4.62369">
        <ele>1225.7</ele>
        <time>2026-08-18T09:51:43.015Z</time>
      </trkpt>
      <trkpt lat="45.3892" lon="4.62369">
        <ele>1225.4</ele>
        <time>2026-08-18T09:51:44.993Z</time>
      </trkpt>
      <trkpt lat="45.38919" lon="4.6237">
        <ele>1225.2</ele>
        <time>2026-08-18T09:51:45.993Z</time>
      </trkpt>
      <trkpt lat="45.38919" lon="4.62371">
        <ele>1225</ele>
        <time>2026-08-18T09:51:47.009Z</time>
      </trkpt>
      <trkpt lat="45.38918" lon="4.62371">
        <ele>1224.8</ele>
        <time>2026-08-18T09:51:48.993Z</time>
      </trkpt>
      <trkpt lat="45.38916" lon="4.62372">
        <ele>1225.5</ele>
        <time>2026-08-18T09:51:51.001Z</time>
      </trkpt>
      <trkpt lat="45.38916" lon="4.62373">
        <ele>1224.7</ele>
        <time>2026-08-18T09:51:52.992Z</time>
      </trkpt>
      <trkpt lat="45.38915" lon="4.62375">
        <ele>1224.5</ele>
        <time>2026-08-18T09:51:54.995Z</time>
      </trkpt>
      <trkpt lat="45.38914" lon="4.62376">
        <ele>1225</ele>
        <time>2026-08-18T09:51:56.992Z</time>
      </trkpt>
      <trkpt lat="45.38915" lon="4.62377">
        <ele>1224.8</ele>
        <time>2026-08-18T09:51:57.993Z</time>
      </trkpt>
      <trkpt lat="45.38915" lon="4.62377">
        <ele>1224.8</ele>
        <time>2026-08-18T09:51:58.993Z</time>
      </trkpt>
      <trkpt lat="45.38915" lon="4.62376">
        <ele>1224.8</ele>
        <time>2026-08-18T09:52:00.015Z</time>
      </trkpt>
      <trkpt lat="45.38914" lon="4.62377">
        <ele>1224.8</ele>
        <time>2026-08-18T09:52:01.993Z</time>
      </trkpt>
      <trkpt lat="45.38914" lon="4.62377">
        <ele>1224.8</ele>
        <time>2026-08-18T09:52:02.993Z</time>
      </trkpt>
      <trkpt lat="45.38914" lon="4.62377">
        <ele>1224.8</ele>
        <time>2026-08-18T09:52:03.993Z</time>
      </trkpt>
      <trkpt lat="45.38914" lon="4.62378">
        <ele>1224.8</ele>
        <time>2026-08-18T09:52:04.993Z</time>
      </trkpt>
      <trkpt lat="45.38914" lon="4.62378">
        <ele>1224.8</ele>
        <time>2026-08-18T09:52:05.993Z</time>
      </trkpt>
      <trkpt lat="45.38914" lon="4.62378">
        <ele>1224.8</ele>
        <time>2026-08-18T09:52:06.993Z</time>
      </trkpt>
      <trkpt lat="45.38914" lon="4.62378">
        <ele>1224.8</ele>
        <time>2026-08-18T09:52:07.993Z</time>
      </trkpt>
      <trkpt lat="45.38914" lon="4.62378">
        <ele>1224.8</ele>
        <time>2026-08-18T09:52:08.993Z</time>
      </trkpt>
      <trkpt lat="45.38914" lon="4.62378">
        <ele>1224.8</ele>
        <time>2026-08-18T09:52:09.993Z</time>
      </trkpt>
      <trkpt lat="45.38914" lon="4.62378">
        <ele>1224.8</ele>
        <time>2026-08-18T09:52:10.993Z</time>
      </trkpt>
      <trkpt lat="45.38914" lon="4.62378">
        <ele>1224.7</ele>
        <time>2026-08-18T09:52:11.993Z</time>
      </trkpt>
      <trkpt lat="45.38914" lon="4.62378">
        <ele>1224.7</ele>
        <time>2026-08-18T09:52:12.993Z</time>
      </trkpt>
      <trkpt lat="45.38914" lon="4.62378">
        <ele>1224.7</ele>
        <time>2026-08-18T09:52:13.993Z</time>
      </trkpt>
      <trkpt lat="45.38914" lon="4.62378">
        <ele>1224.7</ele>
        <time>2026-08-18T09:52:14.993Z</time>
      </trkpt>
      <trkpt lat="45.38914" lon="4.62378">
        <ele>1224.7</ele>
        <time>2026-08-18T09:52:16.993Z</time>
      </trkpt>
      <trkpt lat="45.38914" lon="4.62378">
        <ele>1224.7</ele>
        <time>2026-08-18T09:52:17.993Z</time>
      </trkpt>
      <trkpt lat="45.38914" lon="4.62378">
        <ele>1224.7</ele>
        <time>2026-08-18T09:52:18.993Z</time>
      </trkpt>
      <trkpt lat="45.38914" lon="4.62378">
        <ele>1224.7</ele>
        <time>2026-08-18T09:52:19.993Z</time>
      </trkpt>
      <trkpt lat="45.38914" lon="4.62378">
        <ele>1224.7</ele>
        <time>2026-08-18T09:52:20.993Z</time>
      </trkpt>
      <trkpt lat="45.38914" lon="4.62378">
        <ele>1225.1</ele>
        <time>2026-08-18T09:52:22.993Z</time>
      </trkpt>
      <trkpt lat="45.38914" lon="4.62378">
        <ele>1225.4</ele>
        <time>2026-08-18T09:52:23.993Z</time>
      </trkpt>
      <trkpt lat="45.38914" lon="4.62378">
        <ele>1225.1</ele>
        <time>2026-08-18T09:52:24.993Z</time>
      </trkpt>
      <trkpt lat="45.38915" lon="4.62378">
        <ele>1225.1</ele>
        <time>2026-08-18T09:52:25.993Z</time>
      </trkpt>
      <trkpt lat="45.38915" lon="4.62377">
        <ele>1225.1</ele>
        <time>2026-08-18T09:52:27.992Z</time>
      </trkpt>
      <trkpt lat="45.38915" lon="4.62377">
        <ele>1225.1</ele>
        <time>2026-08-18T09:52:35.993Z</time>
      </trkpt>
      <trkpt lat="45.38915" lon="4.62377">
        <ele>1225.1</ele>
        <time>2026-08-18T09:52:36.993Z</time>
      </trkpt>
      <trkpt lat="45.38915" lon="4.62377">
        <ele>1225.1</ele>
        <time>2026-08-18T09:52:37.993Z</time>
      </trkpt>
      <trkpt lat="45.38915" lon="4.62377">
        <ele>1225.1</ele>
        <time>2026-08-18T09:52:38.993Z</time>
      </trkpt>
      <trkpt lat="45.38915" lon="4.62377">
        <ele>1225.1</ele>
        <time>2026-08-18T09:52:39.993Z</time>
      </trkpt>
      <trkpt lat="45.38915" lon="4.62377">
        <ele>1225.1</ele>
        <time>2026-08-18T09:52:41.992Z</time>
      </trkpt>
      <trkpt lat="45.38915" lon="4.62377">
        <ele>1225.1</ele>
        <time>2026-08-18T09:52:42.992Z</time>
      </trkpt>
      <trkpt lat="45.38915" lon="4.62377">
        <ele>1225.1</ele>
        <time>2026-08-18T09:52:43.992Z</time>
      </trkpt>
      <trkpt lat="45.38915" lon="4.62377">
        <ele>1225.1</ele>
        <time>2026-08-18T09:52:44.993Z</time>
      </trkpt>
      <trkpt lat="45.38915" lon="4.62377">
        <ele>1225.1</ele>
        <time>2026-08-18T09:52:45.993Z</time>
      </trkpt>
      <trkpt lat="45.38915" lon="4.62377">
        <ele>1225.1</ele>
        <time>2026-08-18T09:52:47.993Z</time>
      </trkpt>
      <trkpt lat="45.38915" lon="4.62377">
        <ele>1225.1</ele>
        <time>2026-08-18T09:52:49.991Z</time>
      </trkpt>
      <trkpt lat="45.38915" lon="4.62377">
        <ele>1225.1</ele>
        <time>2026-08-18T09:52:50.993Z</time>
      </trkpt>
      <trkpt lat="45.38915" lon="4.62377">
        <ele>1225.1</ele>
        <time>2026-08-18T09:52:51.993Z</time>
      </trkpt>
      <trkpt lat="45.38915" lon="4.62377">
        <ele>1225.1</ele>
        <time>2026-08-18T09:52:52.993Z</time>
      </trkpt>
      <trkpt lat="45.38915" lon="4.62377">
        <ele>1225.1</ele>
        <time>2026-08-18T09:52:54.993Z</time>
      </trkpt>
      <trkpt lat="45.38915" lon="4.62377">
        <ele>1225.1</ele>
        <time>2026-08-18T09:52:55.993Z</time>
      </trkpt>
      <trkpt lat="45.38915" lon="4.62377">
        <ele>1225.1</ele>
        <time>2026-08-18T09:52:57.992Z</time>
      </trkpt>
      <trkpt lat="45.38915" lon="4.62377">
        <ele>1225.1</ele>
        <time>2026-08-18T09:52:58.993Z</time>
      </trkpt>
      <trkpt lat="45.38915" lon="4.62377">
        <ele>1225.1</ele>
        <time>2026-08-18T09:53:00.993Z</time>
      </trkpt>
      <trkpt lat="45.38915" lon="4.62376">
        <ele>1225.6</ele>
        <time>2026-08-18T09:53:02.993Z</time>
      </trkpt>
      <trkpt lat="45.38916" lon="4.62375">
        <ele>1225.7</ele>
        <time>2026-08-18T09:53:03.993Z</time>
      </trkpt>
      <trkpt lat="45.38916" lon="4.62375">
        <ele>1225.7</ele>
        <time>2026-08-18T09:53:04.993Z</time>
      </trkpt>
      <trkpt lat="45.38917" lon="4.62375">
        <ele>1225.7</ele>
        <time>2026-08-18T09:53:05.993Z</time>
      </trkpt>
      <trkpt lat="45.38917" lon="4.62375">
        <ele>1225.7</ele>
        <time>2026-08-18T09:53:06.993Z</time>
      </trkpt>
      <trkpt lat="45.38917" lon="4.62375">
        <ele>1226.2</ele>
        <time>2026-08-18T09:53:07.993Z</time>
      </trkpt>
      <trkpt lat="45.38918" lon="4.62373">
        <ele>1225.8</ele>
        <time>2026-08-18T09:53:09.993Z</time>
      </trkpt>
      <trkpt lat="45.3892" lon="4.62371">
        <ele>1226.1</ele>
        <time>2026-08-18T09:53:11.993Z</time>
      </trkpt>
      <trkpt lat="45.38922" lon="4.62369">
        <ele>1225.6</ele>
        <time>2026-08-18T09:53:13.993Z</time>
      </trkpt>
      <trkpt lat="45.38922" lon="4.62369">
        <ele>1225.8</ele>
        <time>2026-08-18T09:53:14.993Z</time>
      </trkpt>
      <trkpt lat="45.38923" lon="4.62369">
        <ele>1226.2</ele>
        <time>2026-08-18T09:53:16.002Z</time>
      </trkpt>
      <trkpt lat="45.38924" lon="4.62367">
        <ele>1225.8</ele>
        <time>2026-08-18T09:53:17.992Z</time>
      </trkpt>
      <trkpt lat="45.38925" lon="4.62366">
        <ele>1225.7</ele>
        <time>2026-08-18T09:53:19.996Z</time>
      </trkpt>
      <trkpt lat="45.38924" lon="4.62366">
        <ele>1225.7</ele>
        <time>2026-08-18T09:53:21.992Z</time>
      </trkpt>
      <trkpt lat="45.38924" lon="4.62366">
        <ele>1225.7</ele>
        <time>2026-08-18T09:53:22.993Z</time>
      </trkpt>
      <trkpt lat="45.38924" lon="4.62366">
        <ele>1225.7</ele>
        <time>2026-08-18T09:53:24.993Z</time>
      </trkpt>
      <trkpt lat="45.38924" lon="4.62366">
        <ele>1225.7</ele>
        <time>2026-08-18T09:53:26.991Z</time>
      </trkpt>
      <trkpt lat="45.38924" lon="4.62366">
        <ele>1225.7</ele>
        <time>2026-08-18T09:53:27.993Z</time>
      </trkpt>
      <trkpt lat="45.38924" lon="4.62366">
        <ele>1225.6</ele>
        <time>2026-08-18T09:53:28.993Z</time>
      </trkpt>
      <trkpt lat="45.38924" lon="4.62366">
        <ele>1225.6</ele>
        <time>2026-08-18T09:53:29.993Z</time>
      </trkpt>
      <trkpt lat="45.38924" lon="4.62366">
        <ele>1225.9</ele>
        <time>2026-08-18T09:53:30.993Z</time>
      </trkpt>
      <trkpt lat="45.38926" lon="4.62365">
        <ele>1225.1</ele>
        <time>2026-08-18T09:53:32.992Z</time>
      </trkpt>
      <trkpt lat="45.38927" lon="4.62364">
        <ele>1225.1</ele>
        <time>2026-08-18T09:53:33.993Z</time>
      </trkpt>
      <trkpt lat="45.38928" lon="4.62364">
        <ele>1225.7</ele>
        <time>2026-08-18T09:53:34.993Z</time>
      </trkpt>
      <trkpt lat="45.3893" lon="4.62363">
        <ele>1225.5</ele>
        <time>2026-08-18T09:53:36.996Z</time>
      </trkpt>
      <trkpt lat="45.3893" lon="4.62363">
        <ele>1225.5</ele>
        <time>2026-08-18T09:53:38.993Z</time>
      </trkpt>
      <trkpt lat="45.38929" lon="4.62363">
        <ele>1225.5</ele>
        <time>2026-08-18T09:53:40.992Z</time>
      </trkpt>
      <trkpt lat="45.38929" lon="4.62363">
        <ele>1225.5</ele>
        <time>2026-08-18T09:53:41.992Z</time>
      </trkpt>
      <trkpt lat="45.38929" lon="4.62363">
        <ele>1225.5</ele>
        <time>2026-08-18T09:53:42.993Z</time>
      </trkpt>
      <trkpt lat="45.38929" lon="4.62363">
        <ele>1225.5</ele>
        <time>2026-08-18T09:53:43.993Z</time>
      </trkpt>
      <trkpt lat="45.38929" lon="4.62363">
        <ele>1225.5</ele>
        <time>2026-08-18T09:53:44.993Z</time>
      </trkpt>
      <trkpt lat="45.38929" lon="4.62363">
        <ele>1225.5</ele>
        <time>2026-08-18T09:53:45.993Z</time>
      </trkpt>
      <trkpt lat="45.38929" lon="4.62364">
        <ele>1225.8</ele>
        <time>2026-08-18T09:53:47.992Z</time>
      </trkpt>
      <trkpt lat="45.38929" lon="4.62364">
        <ele>1225.9</ele>
        <time>2026-08-18T09:53:48.992Z</time>
      </trkpt>
      <trkpt lat="45.38929" lon="4.62364">
        <ele>1226</ele>
        <time>2026-08-18T09:53:50.003Z</time>
      </trkpt>
      <trkpt lat="45.38929" lon="4.62364">
        <ele>1226</ele>
        <time>2026-08-18T09:53:51.992Z</time>
      </trkpt>
      <trkpt lat="45.38928" lon="4.62364">
        <ele>1226</ele>
        <time>2026-08-18T09:53:52.993Z</time>
      </trkpt>
      <trkpt lat="45.38928" lon="4.62364">
        <ele>1226</ele>
        <time>2026-08-18T09:53:53.993Z</time>
      </trkpt>
      <trkpt lat="45.38928" lon="4.62364">
        <ele>1226</ele>
        <time>2026-08-18T09:53:54.993Z</time>
      </trkpt>
      <trkpt lat="45.38928" lon="4.62364">
        <ele>1226</ele>
        <time>2026-08-18T09:53:55.993Z</time>
      </trkpt>
      <trkpt lat="45.38928" lon="4.62364">
        <ele>1226</ele>
        <time>2026-08-18T09:53:56.993Z</time>
      </trkpt>
      <trkpt lat="45.38928" lon="4.62364">
        <ele>1226</ele>
        <time>2026-08-18T09:53:58.993Z</time>
      </trkpt>
      <trkpt lat="45.38928" lon="4.62364">
        <ele>1226</ele>
        <time>2026-08-18T09:53:59.993Z</time>
      </trkpt>
      <trkpt lat="45.38928" lon="4.62365">
        <ele>1226.9</ele>
        <time>2026-08-18T09:54:01.993Z</time>
      </trkpt>
      <trkpt lat="45.38928" lon="4.62365">
        <ele>1226.9</ele>
        <time>2026-08-18T09:54:03.993Z</time>
      </trkpt>
      <trkpt lat="45.38928" lon="4.62365">
        <ele>1226.8</ele>
        <time>2026-08-18T09:54:04.993Z</time>
      </trkpt>
      <trkpt lat="45.38928" lon="4.62365">
        <ele>1226.6</ele>
        <time>2026-08-18T09:54:06.992Z</time>
      </trkpt>
      <trkpt lat="45.38928" lon="4.62365">
        <ele>1226.6</ele>
        <time>2026-08-18T09:54:07.992Z</time>
      </trkpt>
      <trkpt lat="45.38928" lon="4.62365">
        <ele>1226.3</ele>
        <time>2026-08-18T09:54:09.993Z</time>
      </trkpt>
      <trkpt lat="45.38927" lon="4.62365">
        <ele>1225.9</ele>
        <time>2026-08-18T09:54:11.992Z</time>
      </trkpt>
      <trkpt lat="45.38926" lon="4.62366">
        <ele>1225.8</ele>
        <time>2026-08-18T09:54:12.992Z</time>
      </trkpt>
      <trkpt lat="45.38925" lon="4.62366">
        <ele>1225.5</ele>
        <time>2026-08-18T09:54:13.993Z</time>
      </trkpt>
      <trkpt lat="45.38924" lon="4.62368">
        <ele>1225.5</ele>
        <time>2026-08-18T09:54:15.992Z</time>
      </trkpt>
      <trkpt lat="45.38922" lon="4.6237">
        <ele>1226</ele>
        <time>2026-08-18T09:54:17.993Z</time>
      </trkpt>
      <trkpt lat="45.3892" lon="4.62372">
        <ele>1225.9</ele>
        <time>2026-08-18T09:54:19.993Z</time>
      </trkpt>
      <trkpt lat="45.38918" lon="4.62374">
        <ele>1226.4</ele>
        <time>2026-08-18T09:54:21.992Z</time>
      </trkpt>
      <trkpt lat="45.38917" lon="4.62374">
        <ele>1226.5</ele>
        <time>2026-08-18T09:54:22.992Z</time>
      </trkpt>
      <trkpt lat="45.38915" lon="4.62375">
        <ele>1227.1</ele>
        <time>2026-08-18T09:54:23.992Z</time>
      </trkpt>
      <trkpt lat="45.38914" lon="4.62377">
        <ele>1226.5</ele>
        <time>2026-08-18T09:54:25.993Z</time>
      </trkpt>
      <trkpt lat="45.38914" lon="4.62378">
        <ele>1227</ele>
        <time>2026-08-18T09:54:27.993Z</time>
      </trkpt>
      <trkpt lat="45.38914" lon="4.62377">
        <ele>1227</ele>
        <time>2026-08-18T09:54:29.993Z</time>
      </trkpt>
      <trkpt lat="45.38915" lon="4.62377">
        <ele>1227.1</ele>
        <time>2026-08-18T09:54:31.927Z</time>
      </trkpt>
      <trkpt lat="45.38915" lon="4.62378">
        <ele>1227.5</ele>
        <time>2026-08-18T09:54:32.992Z</time>
      </trkpt>
      <trkpt lat="45.38915" lon="4.62379">
        <ele>1226.9</ele>
        <time>2026-08-18T09:54:33.992Z</time>
      </trkpt>
      <trkpt lat="45.38914" lon="4.62382">
        <ele>1226.6</ele>
        <time>2026-08-18T09:54:35.992Z</time>
      </trkpt>
      <trkpt lat="45.38914" lon="4.62383">
        <ele>1226.9</ele>
        <time>2026-08-18T09:54:36.993Z</time>
      </trkpt>
      <trkpt lat="45.38912" lon="4.62386">
        <ele>1227.3</ele>
        <time>2026-08-18T09:54:38.992Z</time>
      </trkpt>
      <trkpt lat="45.38911" lon="4.62389">
        <ele>1227.6</ele>
        <time>2026-08-18T09:54:40.992Z</time>
      </trkpt>
      <trkpt lat="45.38911" lon="4.6239">
        <ele>1228.1</ele>
        <time>2026-08-18T09:54:41.992Z</time>
      </trkpt>
      <trkpt lat="45.38911" lon="4.62391">
        <ele>1228.1</ele>
        <time>2026-08-18T09:54:43.004Z</time>
      </trkpt>
      <trkpt lat="45.3891" lon="4.62394">
        <ele>1227.8</ele>
        <time>2026-08-18T09:54:45.000Z</time>
      </trkpt>
      <trkpt lat="45.38909" lon="4.62397">
        <ele>1228.2</ele>
        <time>2026-08-18T09:54:46.993Z</time>
      </trkpt>
      <trkpt lat="45.38909" lon="4.62398">
        <ele>1228.2</ele>
        <time>2026-08-18T09:54:48.024Z</time>
      </trkpt>
      <trkpt lat="45.38908" lon="4.62401">
        <ele>1228.4</ele>
        <time>2026-08-18T09:54:49.993Z</time>
      </trkpt>
      <trkpt lat="45.38907" lon="4.62404">
        <ele>1228.2</ele>
        <time>2026-08-18T09:54:51.993Z</time>
      </trkpt>
      <trkpt lat="45.38907" lon="4.62405">
        <ele>1227.7</ele>
        <time>2026-08-18T09:54:52.993Z</time>
      </trkpt>
      <trkpt lat="45.38907" lon="4.62407">
        <ele>1227.7</ele>
        <time>2026-08-18T09:54:53.993Z</time>
      </trkpt>
      <trkpt lat="45.38906" lon="4.6241">
        <ele>1227.5</ele>
        <time>2026-08-18T09:54:55.993Z</time>
      </trkpt>
      <trkpt lat="45.38906" lon="4.62411">
        <ele>1227.5</ele>
        <time>2026-08-18T09:54:56.993Z</time>
      </trkpt>
      <trkpt lat="45.38906" lon="4.62412">
        <ele>1227.4</ele>
        <time>2026-08-18T09:54:57.993Z</time>
      </trkpt>
      <trkpt lat="45.38906" lon="4.62414">
        <ele>1226.6</ele>
        <time>2026-08-18T09:54:58.993Z</time>
      </trkpt>
      <trkpt lat="45.38907" lon="4.62416">
        <ele>1226.3</ele>
        <time>2026-08-18T09:55:00.946Z</time>
      </trkpt>
      <trkpt lat="45.38908" lon="4.62418">
        <ele>1226.8</ele>
        <time>2026-08-18T09:55:01.993Z</time>
      </trkpt>
      <trkpt lat="45.38908" lon="4.6242">
        <ele>1227.4</ele>
        <time>2026-08-18T09:55:03.993Z</time>
      </trkpt>
      <trkpt lat="45.38908" lon="4.62423">
        <ele>1227.7</ele>
        <time>2026-08-18T09:55:05.992Z</time>
      </trkpt>
      <trkpt lat="45.38908" lon="4.62424">
        <ele>1227.6</ele>
        <time>2026-08-18T09:55:06.993Z</time>
      </trkpt>
      <trkpt lat="45.38908" lon="4.62425">
        <ele>1227.5</ele>
        <time>2026-08-18T09:55:07.993Z</time>
      </trkpt>
      <trkpt lat="45.38907" lon="4.62428">
        <ele>1227.5</ele>
        <time>2026-08-18T09:55:09.993Z</time>
      </trkpt>
      <trkpt lat="45.38907" lon="4.62431">
        <ele>1227.4</ele>
        <time>2026-08-18T09:55:11.993Z</time>
      </trkpt>
      <trkpt lat="45.38907" lon="4.62432">
        <ele>1227.8</ele>
        <time>2026-08-18T09:55:12.993Z</time>
      </trkpt>
      <trkpt lat="45.38906" lon="4.62435">
        <ele>1228.1</ele>
        <time>2026-08-18T09:55:15.000Z</time>
      </trkpt>
      <trkpt lat="45.38907" lon="4.62438">
        <ele>1226.2</ele>
        <time>2026-08-18T09:55:16.993Z</time>
      </trkpt>
      <trkpt lat="45.38907" lon="4.62439">
        <ele>1225.8</ele>
        <time>2026-08-18T09:55:17.993Z</time>
      </trkpt>
      <trkpt lat="45.38907" lon="4.6244">
        <ele>1225.9</ele>
        <time>2026-08-18T09:55:19.000Z</time>
      </trkpt>
      <trkpt lat="45.38907" lon="4.62442">
        <ele>1225.7</ele>
        <time>2026-08-18T09:55:20.991Z</time>
      </trkpt>
      <trkpt lat="45.38908" lon="4.62442">
        <ele>1226.6</ele>
        <time>2026-08-18T09:55:21.993Z</time>
      </trkpt>
      <trkpt lat="45.38908" lon="4.62443">
        <ele>1226.6</ele>
        <time>2026-08-18T09:55:22.994Z</time>
      </trkpt>
      <trkpt lat="45.38908" lon="4.62443">
        <ele>1229.1</ele>
        <time>2026-08-18T09:55:24.993Z</time>
      </trkpt>
      <trkpt lat="45.38908" lon="4.62443">
        <ele>1230.1</ele>
        <time>2026-08-18T09:55:26.992Z</time>
      </trkpt>
      <trkpt lat="45.38907" lon="4.62443">
        <ele>1230.1</ele>
        <time>2026-08-18T09:55:28.992Z</time>
      </trkpt>
      <trkpt lat="45.38907" lon="4.62443">
        <ele>1230.1</ele>
        <time>2026-08-18T09:55:29.993Z</time>
      </trkpt>
      <trkpt lat="45.38907" lon="4.62443">
        <ele>1229.8</ele>
        <time>2026-08-18T09:55:30.993Z</time>
      </trkpt>
      <trkpt lat="45.38907" lon="4.62443">
        <ele>1229.8</ele>
        <time>2026-08-18T09:55:32.007Z</time>
      </trkpt>
      <trkpt lat="45.38907" lon="4.62443">
        <ele>1229.8</ele>
        <time>2026-08-18T09:55:33.991Z</time>
      </trkpt>
      <trkpt lat="45.38907" lon="4.62443">
        <ele>1229.8</ele>
        <time>2026-08-18T09:55:35.043Z</time>
      </trkpt>
      <trkpt lat="45.38907" lon="4.62443">
        <ele>1229.6</ele>
        <time>2026-08-18T09:55:36.993Z</time>
      </trkpt>
      <trkpt lat="45.38906" lon="4.62444">
        <ele>1229.3</ele>
        <time>2026-08-18T09:55:37.993Z</time>
      </trkpt>
      <trkpt lat="45.38906" lon="4.62447">
        <ele>1229.7</ele>
        <time>2026-08-18T09:55:39.994Z</time>
      </trkpt>
      <trkpt lat="45.38907" lon="4.62451">
        <ele>1229.2</ele>
        <time>2026-08-18T09:55:41.992Z</time>
      </trkpt>
      <trkpt lat="45.38907" lon="4.62452">
        <ele>1228.7</ele>
        <time>2026-08-18T09:55:42.993Z</time>
      </trkpt>
      <trkpt lat="45.38906" lon="4.62454">
        <ele>1229</ele>
        <time>2026-08-18T09:55:43.993Z</time>
      </trkpt>
      <trkpt lat="45.38906" lon="4.62455">
        <ele>1230</ele>
        <time>2026-08-18T09:55:44.993Z</time>
      </trkpt>
      <trkpt lat="45.38905" lon="4.62458">
        <ele>1228.9</ele>
        <time>2026-08-18T09:55:46.992Z</time>
      </trkpt>
      <trkpt lat="45.38904" lon="4.62458">
        <ele>1229</ele>
        <time>2026-08-18T09:55:47.993Z</time>
      </trkpt>
      <trkpt lat="45.38904" lon="4.62459">
        <ele>1228.7</ele>
        <time>2026-08-18T09:55:48.993Z</time>
      </trkpt>
      <trkpt lat="45.38904" lon="4.62458">
        <ele>1228.5</ele>
        <time>2026-08-18T09:55:50.993Z</time>
      </trkpt>
      <trkpt lat="45.38903" lon="4.62458">
        <ele>1227.1</ele>
        <time>2026-08-18T09:55:52.993Z</time>
      </trkpt>
      <trkpt lat="45.38903" lon="4.62457">
        <ele>1226.8</ele>
        <time>2026-08-18T09:55:53.993Z</time>
      </trkpt>
      <trkpt lat="45.38903" lon="4.62456">
        <ele>1227.3</ele>
        <time>2026-08-18T09:55:54.993Z</time>
      </trkpt>
      <trkpt lat="45.38902" lon="4.62456">
        <ele>1230.1</ele>
        <time>2026-08-18T09:55:55.993Z</time>
      </trkpt>
      <trkpt lat="45.38902" lon="4.62456">
        <ele>1230</ele>
        <time>2026-08-18T09:55:56.996Z</time>
      </trkpt>
      <trkpt lat="45.38902" lon="4.62457">
        <ele>1228.8</ele>
        <time>2026-08-18T09:55:58.992Z</time>
      </trkpt>
      <trkpt lat="45.38902" lon="4.62458">
        <ele>1229.9</ele>
        <time>2026-08-18T09:55:59.993Z</time>
      </trkpt>
      <trkpt lat="45.38903" lon="4.6246">
        <ele>1229.5</ele>
        <time>2026-08-18T09:56:01.992Z</time>
      </trkpt>
      <trkpt lat="45.38903" lon="4.62461">
        <ele>1229</ele>
        <time>2026-08-18T09:56:02.992Z</time>
      </trkpt>
      <trkpt lat="45.38903" lon="4.62462">
        <ele>1228.9</ele>
        <time>2026-08-18T09:56:03.993Z</time>
      </trkpt>
      <trkpt lat="45.38904" lon="4.62463">
        <ele>1228.3</ele>
        <time>2026-08-18T09:56:04.993Z</time>
      </trkpt>
      <trkpt lat="45.38904" lon="4.62464">
        <ele>1228.1</ele>
        <time>2026-08-18T09:56:06.010Z</time>
      </trkpt>
      <trkpt lat="45.38905" lon="4.62467">
        <ele>1228.3</ele>
        <time>2026-08-18T09:56:07.992Z</time>
      </trkpt>
      <trkpt lat="45.38905" lon="4.62469">
        <ele>1227.9</ele>
        <time>2026-08-18T09:56:08.993Z</time>
      </trkpt>
      <trkpt lat="45.38905" lon="4.6247">
        <ele>1226.9</ele>
        <time>2026-08-18T09:56:10.004Z</time>
      </trkpt>
      <trkpt lat="45.38905" lon="4.62473">
        <ele>1227.4</ele>
        <time>2026-08-18T09:56:11.993Z</time>
      </trkpt>
      <trkpt lat="45.38904" lon="4.62476">
        <ele>1227.3</ele>
        <time>2026-08-18T09:56:13.997Z</time>
      </trkpt>
      <trkpt lat="45.38903" lon="4.62478">
        <ele>1227</ele>
        <time>2026-08-18T09:56:15.992Z</time>
      </trkpt>
      <trkpt lat="45.38903" lon="4.62479">
        <ele>1227.5</ele>
        <time>2026-08-18T09:56:16.992Z</time>
      </trkpt>
      <trkpt lat="45.38902" lon="4.6248">
        <ele>1227.6</ele>
        <time>2026-08-18T09:56:17.993Z</time>
      </trkpt>
      <trkpt lat="45.38902" lon="4.62481">
        <ele>1227.6</ele>
        <time>2026-08-18T09:56:19.992Z</time>
      </trkpt>
      <trkpt lat="45.38902" lon="4.62482">
        <ele>1227.7</ele>
        <time>2026-08-18T09:56:20.992Z</time>
      </trkpt>
      <trkpt lat="45.38902" lon="4.62482">
        <ele>1227.4</ele>
        <time>2026-08-18T09:56:22.991Z</time>
      </trkpt>
      <trkpt lat="45.38902" lon="4.62482">
        <ele>1227.4</ele>
        <time>2026-08-18T09:56:24.021Z</time>
      </trkpt>
      <trkpt lat="45.38901" lon="4.62484">
        <ele>1225.9</ele>
        <time>2026-08-18T09:56:25.991Z</time>
      </trkpt>
      <trkpt lat="45.38901" lon="4.62485">
        <ele>1226.1</ele>
        <time>2026-08-18T09:56:27.005Z</time>
      </trkpt>
      <trkpt lat="45.38901" lon="4.62488">
        <ele>1225.2</ele>
        <time>2026-08-18T09:56:28.992Z</time>
      </trkpt>
      <trkpt lat="45.38901" lon="4.62489">
        <ele>1225.3</ele>
        <time>2026-08-18T09:56:29.992Z</time>
      </trkpt>
      <trkpt lat="45.38902" lon="4.6249">
        <ele>1225.5</ele>
        <time>2026-08-18T09:56:30.998Z</time>
      </trkpt>
      <trkpt lat="45.38902" lon="4.62491">
        <ele>1225.6</ele>
        <time>2026-08-18T09:56:32.992Z</time>
      </trkpt>
      <trkpt lat="45.38902" lon="4.62491">
        <ele>1225.6</ele>
        <time>2026-08-18T09:56:33.992Z</time>
      </trkpt>
      <trkpt lat="45.38902" lon="4.62491">
        <ele>1225.6</ele>
        <time>2026-08-18T09:56:36.002Z</time>
      </trkpt>
      <trkpt lat="45.38901" lon="4.62491">
        <ele>1226.7</ele>
        <time>2026-08-18T09:56:37.992Z</time>
      </trkpt>
      <trkpt lat="45.38901" lon="4.62491">
        <ele>1226.7</ele>
        <time>2026-08-18T09:56:38.992Z</time>
      </trkpt>
      <trkpt lat="45.38901" lon="4.62491">
        <ele>1226.7</ele>
        <time>2026-08-18T09:56:40.012Z</time>
      </trkpt>
      <trkpt lat="45.38901" lon="4.62491">
        <ele>1226.7</ele>
        <time>2026-08-18T09:56:41.991Z</time>
      </trkpt>
      <trkpt lat="45.38901" lon="4.62491">
        <ele>1226.7</ele>
        <time>2026-08-18T09:56:42.992Z</time>
      </trkpt>
      <trkpt lat="45.38901" lon="4.62491">
        <ele>1226.6</ele>
        <time>2026-08-18T09:56:44.005Z</time>
      </trkpt>
      <trkpt lat="45.38901" lon="4.62491">
        <ele>1226.6</ele>
        <time>2026-08-18T09:56:45.992Z</time>
      </trkpt>
      <trkpt lat="45.38901" lon="4.62491">
        <ele>1226.6</ele>
        <time>2026-08-18T09:56:46.992Z</time>
      </trkpt>
      <trkpt lat="45.38901" lon="4.62491">
        <ele>1226.7</ele>
        <time>2026-08-18T09:56:47.998Z</time>
      </trkpt>
      <trkpt lat="45.38901" lon="4.62491">
        <ele>1226.7</ele>
        <time>2026-08-18T09:56:49.991Z</time>
      </trkpt>
      <trkpt lat="45.38901" lon="4.62491">
        <ele>1226.7</ele>
        <time>2026-08-18T09:56:50.992Z</time>
      </trkpt>
      <trkpt lat="45.38901" lon="4.62491">
        <ele>1226.6</ele>
        <time>2026-08-18T09:56:51.992Z</time>
      </trkpt>
      <trkpt lat="45.38901" lon="4.62491">
        <ele>1226.6</ele>
        <time>2026-08-18T09:56:52.992Z</time>
      </trkpt>
      <trkpt lat="45.38901" lon="4.62491">
        <ele>1226.4</ele>
        <time>2026-08-18T09:56:54.991Z</time>
      </trkpt>
      <trkpt lat="45.38901" lon="4.62491">
        <ele>1226.6</ele>
        <time>2026-08-18T09:56:55.992Z</time>
      </trkpt>
      <trkpt lat="45.38901" lon="4.62491">
        <ele>1226.5</ele>
        <time>2026-08-18T09:56:56.992Z</time>
      </trkpt>
      <trkpt lat="45.38901" lon="4.62491">
        <ele>1226.5</ele>
        <time>2026-08-18T09:56:57.992Z</time>
      </trkpt>
      <trkpt lat="45.38901" lon="4.62491">
        <ele>1226.5</ele>
        <time>2026-08-18T09:56:58.992Z</time>
      </trkpt>
      <trkpt lat="45.38901" lon="4.62491">
        <ele>1226.5</ele>
        <time>2026-08-18T09:56:59.992Z</time>
      </trkpt>
      <trkpt lat="45.38901" lon="4.62491">
        <ele>1226.5</ele>
        <time>2026-08-18T09:57:01.007Z</time>
      </trkpt>
      <trkpt lat="45.38901" lon="4.62491">
        <ele>1226.5</ele>
        <time>2026-08-18T09:57:02.992Z</time>
      </trkpt>
      <trkpt lat="45.38901" lon="4.62491">
        <ele>1226.5</ele>
        <time>2026-08-18T09:57:05.000Z</time>
      </trkpt>
      <trkpt lat="45.38901" lon="4.62491">
        <ele>1226.5</ele>
        <time>2026-08-18T09:57:06.992Z</time>
      </trkpt>
      <trkpt lat="45.38901" lon="4.62491">
        <ele>1226.5</ele>
        <time>2026-08-18T09:57:07.992Z</time>
      </trkpt>
      <trkpt lat="45.38901" lon="4.62491">
        <ele>1226.5</ele>
        <time>2026-08-18T09:57:08.993Z</time>
      </trkpt>
      <trkpt lat="45.38901" lon="4.62491">
        <ele>1226.5</ele>
        <time>2026-08-18T09:57:10.992Z</time>
      </trkpt>
      <trkpt lat="45.38901" lon="4.62491">
        <ele>1226.5</ele>
        <time>2026-08-18T09:57:12.992Z</time>
      </trkpt>
      <trkpt lat="45.38901" lon="4.62491">
        <ele>1226.5</ele>
        <time>2026-08-18T09:57:14.992Z</time>
      </trkpt>
      <trkpt lat="45.38901" lon="4.62491">
        <ele>1226.5</ele>
        <time>2026-08-18T09:57:16.991Z</time>
      </trkpt>
      <trkpt lat="45.38901" lon="4.62491">
        <ele>1226.5</ele>
        <time>2026-08-18T09:57:17.991Z</time>
      </trkpt>
      <trkpt lat="45.38901" lon="4.62491">
        <ele>1226.5</ele>
        <time>2026-08-18T09:57:18.992Z</time>
      </trkpt>
      <trkpt lat="45.38901" lon="4.62491">
        <ele>1226.5</ele>
        <time>2026-08-18T09:57:20.991Z</time>
      </trkpt>
      <trkpt lat="45.38901" lon="4.62491">
        <ele>1226.5</ele>
        <time>2026-08-18T09:57:22.000Z</time>
      </trkpt>
      <trkpt lat="45.38901" lon="4.62491">
        <ele>1226.5</ele>
        <time>2026-08-18T09:57:23.992Z</time>
      </trkpt>
      <trkpt lat="45.38901" lon="4.62491">
        <ele>1226.5</ele>
        <time>2026-08-18T09:57:25.994Z</time>
      </trkpt>
      <trkpt lat="45.38901" lon="4.62491">
        <ele>1226.5</ele>
        <time>2026-08-18T09:57:27.991Z</time>
      </trkpt>
      <trkpt lat="45.38901" lon="4.62491">
        <ele>1226.5</ele>
        <time>2026-08-18T09:57:28.992Z</time>
      </trkpt>
      <trkpt lat="45.38901" lon="4.62491">
        <ele>1226.5</ele>
        <time>2026-08-18T09:57:29.992Z</time>
      </trkpt>
      <trkpt lat="45.38901" lon="4.62491">
        <ele>1226.5</ele>
        <time>2026-08-18T09:57:30.992Z</time>
      </trkpt>
      <trkpt lat="45.38901" lon="4.62491">
        <ele>1226.5</ele>
        <time>2026-08-18T09:57:31.992Z</time>
      </trkpt>
      <trkpt lat="45.38901" lon="4.62491">
        <ele>1226.5</ele>
        <time>2026-08-18T09:57:32.992Z</time>
      </trkpt>
      <trkpt lat="45.38901" lon="4.62491">
        <ele>1226.6</ele>
        <time>2026-08-18T09:57:35.007Z</time>
      </trkpt>
      <trkpt lat="45.38901" lon="4.62491">
        <ele>1226.6</ele>
        <time>2026-08-18T09:57:36.992Z</time>
      </trkpt>
      <trkpt lat="45.38901" lon="4.62491">
        <ele>1226.6</ele>
        <time>2026-08-18T09:57:37.992Z</time>
      </trkpt>
      <trkpt lat="45.38901" lon="4.62491">
        <ele>1226.5</ele>
        <time>2026-08-18T09:57:38.992Z</time>
      </trkpt>
      <trkpt lat="45.38901" lon="4.62491">
        <ele>1226.5</ele>
        <time>2026-08-18T09:57:39.992Z</time>
      </trkpt>
      <trkpt lat="45.38901" lon="4.62491">
        <ele>1226.5</ele>
        <time>2026-08-18T09:57:40.992Z</time>
      </trkpt>
      <trkpt lat="45.38901" lon="4.62491">
        <ele>1226.5</ele>
        <time>2026-08-18T09:57:42.993Z</time>
      </trkpt>
      <trkpt lat="45.38901" lon="4.62491">
        <ele>1226.6</ele>
        <time>2026-08-18T09:57:44.992Z</time>
      </trkpt>
      <trkpt lat="45.38901" lon="4.62491">
        <ele>1226.6</ele>
        <time>2026-08-18T09:57:45.992Z</time>
      </trkpt>
      <trkpt lat="45.38901" lon="4.62491">
        <ele>1226.6</ele>
        <time>2026-08-18T09:57:47.992Z</time>
      </trkpt>
      <trkpt lat="45.38901" lon="4.62491">
        <ele>1226.6</ele>
        <time>2026-08-18T09:57:49.991Z</time>
      </trkpt>
      <trkpt lat="45.38901" lon="4.62491">
        <ele>1226.6</ele>
        <time>2026-08-18T09:57:50.992Z</time>
      </trkpt>
      <trkpt lat="45.38901" lon="4.62491">
        <ele>1226.6</ele>
        <time>2026-08-18T09:57:52.992Z</time>
      </trkpt>
      <trkpt lat="45.38901" lon="4.62491">
        <ele>1226.6</ele>
        <time>2026-08-18T09:57:53.992Z</time>
      </trkpt>
      <trkpt lat="45.38901" lon="4.62491">
        <ele>1226.6</ele>
        <time>2026-08-18T09:57:56.000Z</time>
      </trkpt>
      <trkpt lat="45.38901" lon="4.62491">
        <ele>1226.6</ele>
        <time>2026-08-18T09:57:57.991Z</time>
      </trkpt>
      <trkpt lat="45.38901" lon="4.62491">
        <ele>1226.6</ele>
        <time>2026-08-18T09:57:58.992Z</time>
      </trkpt>
      <trkpt lat="45.38901" lon="4.62491">
        <ele>1226.6</ele>
        <time>2026-08-18T09:57:59.994Z</time>
      </trkpt>
      <trkpt lat="45.38901" lon="4.62491">
        <ele>1226.6</ele>
        <time>2026-08-18T09:58:01.991Z</time>
      </trkpt>
      <trkpt lat="45.38901" lon="4.62491">
        <ele>1226.6</ele>
        <time>2026-08-18T09:58:02.992Z</time>
      </trkpt>
      <trkpt lat="45.38901" lon="4.62491">
        <ele>1226.6</ele>
        <time>2026-08-18T09:58:03.992Z</time>
      </trkpt>
      <trkpt lat="45.38901" lon="4.62491">
        <ele>1226.6</ele>
        <time>2026-08-18T09:58:05.015Z</time>
      </trkpt>
      <trkpt lat="45.38901" lon="4.62491">
        <ele>1226.6</ele>
        <time>2026-08-18T09:58:06.991Z</time>
      </trkpt>
      <trkpt lat="45.38901" lon="4.62491">
        <ele>1226.6</ele>
        <time>2026-08-18T09:58:07.991Z</time>
      </trkpt>
      <trkpt lat="45.38901" lon="4.62491">
        <ele>1226.6</ele>
        <time>2026-08-18T09:58:08.992Z</time>
      </trkpt>
      <trkpt lat="45.38901" lon="4.62492">
        <ele>1226.6</ele>
        <time>2026-08-18T09:58:09.992Z</time>
      </trkpt>
      <trkpt lat="45.38901" lon="4.62492">
        <ele>1226.6</ele>
        <time>2026-08-18T09:58:10.992Z</time>
      </trkpt>
      <trkpt lat="45.38901" lon="4.62492">
        <ele>1226.6</ele>
        <time>2026-08-18T09:58:13.001Z</time>
      </trkpt>
      <trkpt lat="45.38901" lon="4.62492">
        <ele>1226.4</ele>
        <time>2026-08-18T09:58:14.992Z</time>
      </trkpt>
      <trkpt lat="45.38901" lon="4.62492">
        <ele>1226.4</ele>
        <time>2026-08-18T09:58:16.994Z</time>
      </trkpt>
      <trkpt lat="45.38901" lon="4.62492">
        <ele>1226.4</ele>
        <time>2026-08-18T09:58:18.991Z</time>
      </trkpt>
      <trkpt lat="45.38901" lon="4.62492">
        <ele>1226.4</ele>
        <time>2026-08-18T09:58:19.992Z</time>
      </trkpt>
      <trkpt lat="45.38901" lon="4.62492">
        <ele>1226.4</ele>
        <time>2026-08-18T09:58:21.992Z</time>
      </trkpt>
      <trkpt lat="45.38901" lon="4.62492">
        <ele>1226.4</ele>
        <time>2026-08-18T09:58:23.992Z</time>
      </trkpt>
      <trkpt lat="45.38901" lon="4.62492">
        <ele>1226.4</ele>
        <time>2026-08-18T09:58:25.991Z</time>
      </trkpt>
      <trkpt lat="45.38901" lon="4.62492">
        <ele>1226.4</ele>
        <time>2026-08-18T09:58:26.992Z</time>
      </trkpt>
      <trkpt lat="45.38901" lon="4.62492">
        <ele>1226.4</ele>
        <time>2026-08-18T09:58:27.992Z</time>
      </trkpt>
      <trkpt lat="45.38901" lon="4.62492">
        <ele>1226.4</ele>
        <time>2026-08-18T09:58:28.992Z</time>
      </trkpt>
      <trkpt lat="45.38901" lon="4.62492">
        <ele>1226.4</ele>
        <time>2026-08-18T09:58:29.992Z</time>
      </trkpt>
      <trkpt lat="45.38901" lon="4.62492">
        <ele>1226.4</ele>
        <time>2026-08-18T09:58:31.991Z</time>
      </trkpt>
      <trkpt lat="45.38901" lon="4.62492">
        <ele>1226.4</ele>
        <time>2026-08-18T09:58:32.992Z</time>
      </trkpt>
      <trkpt lat="45.38901" lon="4.62492">
        <ele>1226.4</ele>
        <time>2026-08-18T09:58:33.995Z</time>
      </trkpt>
      <trkpt lat="45.38901" lon="4.62492">
        <ele>1226.4</ele>
        <time>2026-08-18T09:58:35.992Z</time>
      </trkpt>
      <trkpt lat="45.38901" lon="4.62492">
        <ele>1226.4</ele>
        <time>2026-08-18T09:58:36.992Z</time>
      </trkpt>
      <trkpt lat="45.38901" lon="4.62492">
        <ele>1226.4</ele>
        <time>2026-08-18T09:58:37.992Z</time>
      </trkpt>
      <trkpt lat="45.38901" lon="4.62492">
        <ele>1226.4</ele>
        <time>2026-08-18T09:58:39.992Z</time>
      </trkpt>
      <trkpt lat="45.38901" lon="4.62492">
        <ele>1226.4</ele>
        <time>2026-08-18T09:58:40.992Z</time>
      </trkpt>
      <trkpt lat="45.38901" lon="4.62492">
        <ele>1226.2</ele>
        <time>2026-08-18T09:58:42.943Z</time>
      </trkpt>
      <trkpt lat="45.389" lon="4.62492">
        <ele>1226.7</ele>
        <time>2026-08-18T09:58:43.992Z</time>
      </trkpt>
      <trkpt lat="45.38899" lon="4.62491">
        <ele>1226.7</ele>
        <time>2026-08-18T09:58:45.991Z</time>
      </trkpt>
      <trkpt lat="45.38899" lon="4.62491">
        <ele>1226.7</ele>
        <time>2026-08-18T09:58:47.000Z</time>
      </trkpt>
      <trkpt lat="45.38897" lon="4.62489">
        <ele>1225.9</ele>
        <time>2026-08-18T09:58:48.992Z</time>
      </trkpt>
      <trkpt lat="45.38897" lon="4.62489">
        <ele>1225.9</ele>
        <time>2026-08-18T09:58:50.992Z</time>
      </trkpt>
      <trkpt lat="45.38897" lon="4.62489">
        <ele>1225.9</ele>
        <time>2026-08-18T09:58:52.992Z</time>
      </trkpt>
      <trkpt lat="45.38897" lon="4.62489">
        <ele>1225.9</ele>
        <time>2026-08-18T09:58:53.992Z</time>
      </trkpt>
      <trkpt lat="45.38897" lon="4.62489">
        <ele>1225.9</ele>
        <time>2026-08-18T09:58:55.992Z</time>
      </trkpt>
      <trkpt lat="45.38897" lon="4.62489">
        <ele>1225.9</ele>
        <time>2026-08-18T09:58:56.992Z</time>
      </trkpt>
      <trkpt lat="45.38897" lon="4.62489">
        <ele>1225.9</ele>
        <time>2026-08-18T09:58:57.992Z</time>
      </trkpt>
      <trkpt lat="45.38897" lon="4.62488">
        <ele>1225.9</ele>
        <time>2026-08-18T09:58:58.992Z</time>
      </trkpt>
      <trkpt lat="45.38897" lon="4.62488">
        <ele>1225.9</ele>
        <time>2026-08-18T09:59:00.007Z</time>
      </trkpt>
      <trkpt lat="45.38897" lon="4.62488">
        <ele>1225.9</ele>
        <time>2026-08-18T09:59:01.992Z</time>
      </trkpt>
      <trkpt lat="45.38897" lon="4.62488">
        <ele>1225.9</ele>
        <time>2026-08-18T09:59:02.992Z</time>
      </trkpt>
      <trkpt lat="45.38897" lon="4.62489">
        <ele>1225.9</ele>
        <time>2026-08-18T09:59:04.001Z</time>
      </trkpt>
      <trkpt lat="45.38897" lon="4.62489">
        <ele>1225.9</ele>
        <time>2026-08-18T09:59:05.991Z</time>
      </trkpt>
      <trkpt lat="45.38897" lon="4.62489">
        <ele>1225.9</ele>
        <time>2026-08-18T09:59:06.991Z</time>
      </trkpt>
      <trkpt lat="45.38897" lon="4.62489">
        <ele>1225.9</ele>
        <time>2026-08-18T09:59:07.995Z</time>
      </trkpt>
      <trkpt lat="45.38897" lon="4.62489">
        <ele>1225.9</ele>
        <time>2026-08-18T09:59:09.992Z</time>
      </trkpt>
      <trkpt lat="45.38897" lon="4.62489">
        <ele>1225.9</ele>
        <time>2026-08-18T09:59:11.991Z</time>
      </trkpt>
      <trkpt lat="45.38897" lon="4.62489">
        <ele>1225.9</ele>
        <time>2026-08-18T09:59:13.015Z</time>
      </trkpt>
      <trkpt lat="45.38897" lon="4.62489">
        <ele>1225.9</ele>
        <time>2026-08-18T09:59:14.992Z</time>
      </trkpt>
      <trkpt lat="45.38897" lon="4.62489">
        <ele>1225.9</ele>
        <time>2026-08-18T09:59:15.992Z</time>
      </trkpt>
      <trkpt lat="45.38897" lon="4.62489">
        <ele>1225.9</ele>
        <time>2026-08-18T09:59:17.992Z</time>
      </trkpt>
      <trkpt lat="45.38897" lon="4.62489">
        <ele>1225.9</ele>
        <time>2026-08-18T09:59:18.992Z</time>
      </trkpt>
      <trkpt lat="45.38896" lon="4.62489">
        <ele>1225.9</ele>
        <time>2026-08-18T09:59:21.002Z</time>
      </trkpt>
      <trkpt lat="45.38896" lon="4.62489">
        <ele>1225.9</ele>
        <time>2026-08-18T09:59:22.992Z</time>
      </trkpt>
      <trkpt lat="45.38896" lon="4.62489">
        <ele>1225.9</ele>
        <time>2026-08-18T09:59:23.992Z</time>
      </trkpt>
      <trkpt lat="45.38896" lon="4.62489">
        <ele>1225.9</ele>
        <time>2026-08-18T09:59:24.995Z</time>
      </trkpt>
      <trkpt lat="45.38896" lon="4.62489">
        <ele>1225.9</ele>
        <time>2026-08-18T09:59:26.992Z</time>
      </trkpt>
      <trkpt lat="45.38896" lon="4.62489">
        <ele>1225.9</ele>
        <time>2026-08-18T09:59:28.991Z</time>
      </trkpt>
      <trkpt lat="45.38896" lon="4.62489">
        <ele>1225.9</ele>
        <time>2026-08-18T09:59:30.014Z</time>
      </trkpt>
      <trkpt lat="45.38896" lon="4.62489">
        <ele>1225.9</ele>
        <time>2026-08-18T09:59:31.991Z</time>
      </trkpt>
      <trkpt lat="45.38896" lon="4.62489">
        <ele>1225.9</ele>
        <time>2026-08-18T09:59:32.991Z</time>
      </trkpt>
      <trkpt lat="45.38896" lon="4.62489">
        <ele>1225.9</ele>
        <time>2026-08-18T09:59:34.008Z</time>
      </trkpt>
      <trkpt lat="45.38896" lon="4.62489">
        <ele>1226</ele>
        <time>2026-08-18T09:59:35.992Z</time>
      </trkpt>
      <trkpt lat="45.38896" lon="4.62489">
        <ele>1226</ele>
        <time>2026-08-18T09:59:36.992Z</time>
      </trkpt>
      <trkpt lat="45.38896" lon="4.62489">
        <ele>1226</ele>
        <time>2026-08-18T09:59:38.001Z</time>
      </trkpt>
      <trkpt lat="45.38896" lon="4.62489">
        <ele>1226</ele>
        <time>2026-08-18T09:59:39.991Z</time>
      </trkpt>
      <trkpt lat="45.38896" lon="4.62489">
        <ele>1226</ele>
        <time>2026-08-18T09:59:40.992Z</time>
      </trkpt>
      <trkpt lat="45.38896" lon="4.62489">
        <ele>1226</ele>
        <time>2026-08-18T09:59:41.995Z</time>
      </trkpt>
      <trkpt lat="45.38896" lon="4.62489">
        <ele>1226</ele>
        <time>2026-08-18T09:59:43.991Z</time>
      </trkpt>
      <trkpt lat="45.38896" lon="4.62489">
        <ele>1225.9</ele>
        <time>2026-08-18T09:59:44.991Z</time>
      </trkpt>
      <trkpt lat="45.38897" lon="4.62489">
        <ele>1225.7</ele>
        <time>2026-08-18T09:59:45.991Z</time>
      </trkpt>
      <trkpt lat="45.38897" lon="4.6249">
        <ele>1225.6</ele>
        <time>2026-08-18T09:59:46.991Z</time>
      </trkpt>
      <trkpt lat="45.38897" lon="4.6249">
        <ele>1225.5</ele>
        <time>2026-08-18T09:59:47.992Z</time>
      </trkpt>
      <trkpt lat="45.38899" lon="4.62491">
        <ele>1225.5</ele>
        <time>2026-08-18T09:59:48.992Z</time>
      </trkpt>
      <trkpt lat="45.38899" lon="4.62491">
        <ele>1225.5</ele>
        <time>2026-08-18T09:59:50.991Z</time>
      </trkpt>
      <trkpt lat="45.38899" lon="4.62491">
        <ele>1225.5</ele>
        <time>2026-08-18T09:59:51.992Z</time>
      </trkpt>
      <trkpt lat="45.38899" lon="4.62491">
        <ele>1225.5</ele>
        <time>2026-08-18T09:59:53.991Z</time>
      </trkpt>
      <trkpt lat="45.38899" lon="4.62491">
        <ele>1225.5</ele>
        <time>2026-08-18T09:59:54.992Z</time>
      </trkpt>
      <trkpt lat="45.38899" lon="4.62491">
        <ele>1225.6</ele>
        <time>2026-08-18T09:59:56.991Z</time>
      </trkpt>
      <trkpt lat="45.38899" lon="4.62492">
        <ele>1225.7</ele>
        <time>2026-08-18T09:59:57.991Z</time>
      </trkpt>
      <trkpt lat="45.38899" lon="4.62492">
        <ele>1225.7</ele>
        <time>2026-08-18T09:59:58.992Z</time>
      </trkpt>
      <trkpt lat="45.38899" lon="4.62492">
        <ele>1225.7</ele>
        <time>2026-08-18T09:59:59.992Z</time>
      </trkpt>
      <trkpt lat="45.38899" lon="4.62492">
        <ele>1225.7</ele>
        <time>2026-08-18T10:00:00.992Z</time>
      </trkpt>
      <trkpt lat="45.38899" lon="4.62492">
        <ele>1225.7</ele>
        <time>2026-08-18T10:00:02.992Z</time>
      </trkpt>
      <trkpt lat="45.38899" lon="4.62492">
        <ele>1225.7</ele>
        <time>2026-08-18T10:00:03.992Z</time>
      </trkpt>
      <trkpt lat="45.38899" lon="4.62492">
        <ele>1225.7</ele>
        <time>2026-08-18T10:00:05.992Z</time>
      </trkpt>
      <trkpt lat="45.38899" lon="4.62492">
        <ele>1225.7</ele>
        <time>2026-08-18T10:00:06.992Z</time>
      </trkpt>
      <trkpt lat="45.38899" lon="4.62493">
        <ele>1225.5</ele>
        <time>2026-08-18T10:00:07.992Z</time>
      </trkpt>
      <trkpt lat="45.38899" lon="4.62492">
        <ele>1225.4</ele>
        <time>2026-08-18T10:00:08.992Z</time>
      </trkpt>
      <trkpt lat="45.38899" lon="4.62491">
        <ele>1224.8</ele>
        <time>2026-08-18T10:00:09.992Z</time>
      </trkpt>
      <trkpt lat="45.38898" lon="4.6249">
        <ele>1224.3</ele>
        <time>2026-08-18T10:00:10.992Z</time>
      </trkpt>
      <trkpt lat="45.38898" lon="4.6249">
        <ele>1224.2</ele>
        <time>2026-08-18T10:00:12.992Z</time>
      </trkpt>
      <trkpt lat="45.38899" lon="4.6249">
        <ele>1224.2</ele>
        <time>2026-08-18T10:00:13.992Z</time>
      </trkpt>
      <trkpt lat="45.38901" lon="4.6249">
        <ele>1223.5</ele>
        <time>2026-08-18T10:00:14.992Z</time>
      </trkpt>
      <trkpt lat="45.38903" lon="4.62488">
        <ele>1222.9</ele>
        <time>2026-08-18T10:00:16.991Z</time>
      </trkpt>
      <trkpt lat="45.38903" lon="4.62487">
        <ele>1222.3</ele>
        <time>2026-08-18T10:00:17.991Z</time>
      </trkpt>
      <trkpt lat="45.38903" lon="4.62486">
        <ele>1222.1</ele>
        <time>2026-08-18T10:00:18.991Z</time>
      </trkpt>
      <trkpt lat="45.38904" lon="4.62486">
        <ele>1222.2</ele>
        <time>2026-08-18T10:00:19.992Z</time>
      </trkpt>
      <trkpt lat="45.38903" lon="4.62483">
        <ele>1221.1</ele>
        <time>2026-08-18T10:00:21.991Z</time>
      </trkpt>
      <trkpt lat="45.38903" lon="4.62481">
        <ele>1221.4</ele>
        <time>2026-08-18T10:00:22.991Z</time>
      </trkpt>
      <trkpt lat="45.38903" lon="4.6248">
        <ele>1221.6</ele>
        <time>2026-08-18T10:00:23.991Z</time>
      </trkpt>
      <trkpt lat="45.38903" lon="4.62479">
        <ele>1221.8</ele>
        <time>2026-08-18T10:00:24.991Z</time>
      </trkpt>
      <trkpt lat="45.38903" lon="4.62478">
        <ele>1222.3</ele>
        <time>2026-08-18T10:00:25.992Z</time>
      </trkpt>
      <trkpt lat="45.38903" lon="4.62477">
        <ele>1222.2</ele>
        <time>2026-08-18T10:00:26.992Z</time>
      </trkpt>
      <trkpt lat="45.38904" lon="4.62475">
        <ele>1222.4</ele>
        <time>2026-08-18T10:00:28.992Z</time>
      </trkpt>
      <trkpt lat="45.38904" lon="4.62474">
        <ele>1222.5</ele>
        <time>2026-08-18T10:00:29.992Z</time>
      </trkpt>
      <trkpt lat="45.38905" lon="4.62473">
        <ele>1222.4</ele>
        <time>2026-08-18T10:00:30.992Z</time>
      </trkpt>
      <trkpt lat="45.38905" lon="4.62471">
        <ele>1222.5</ele>
        <time>2026-08-18T10:00:32.992Z</time>
      </trkpt>
      <trkpt lat="45.38905" lon="4.62471">
        <ele>1222.3</ele>
        <time>2026-08-18T10:00:33.992Z</time>
      </trkpt>
      <trkpt lat="45.38904" lon="4.62469">
        <ele>1222.1</ele>
        <time>2026-08-18T10:00:34.992Z</time>
      </trkpt>
      <trkpt lat="45.38904" lon="4.62468">
        <ele>1222.3</ele>
        <time>2026-08-18T10:00:36.992Z</time>
      </trkpt>
      <trkpt lat="45.38903" lon="4.62468">
        <ele>1222.5</ele>
        <time>2026-08-18T10:00:37.992Z</time>
      </trkpt>
      <trkpt lat="45.38903" lon="4.62466">
        <ele>1222.5</ele>
        <time>2026-08-18T10:00:39.992Z</time>
      </trkpt>
      <trkpt lat="45.38903" lon="4.62465">
        <ele>1222.5</ele>
        <time>2026-08-18T10:00:40.992Z</time>
      </trkpt>
      <trkpt lat="45.38903" lon="4.62463">
        <ele>1222.2</ele>
        <time>2026-08-18T10:00:42.991Z</time>
      </trkpt>
      <trkpt lat="45.38904" lon="4.62462">
        <ele>1222.4</ele>
        <time>2026-08-18T10:00:43.991Z</time>
      </trkpt>
      <trkpt lat="45.38904" lon="4.62461">
        <ele>1222.3</ele>
        <time>2026-08-18T10:00:44.991Z</time>
      </trkpt>
      <trkpt lat="45.38905" lon="4.6246">
        <ele>1222.9</ele>
        <time>2026-08-18T10:00:46.002Z</time>
      </trkpt>
      <trkpt lat="45.38906" lon="4.62459">
        <ele>1222.9</ele>
        <time>2026-08-18T10:00:47.992Z</time>
      </trkpt>
      <trkpt lat="45.38906" lon="4.62457">
        <ele>1222.7</ele>
        <time>2026-08-18T10:00:49.996Z</time>
      </trkpt>
      <trkpt lat="45.38907" lon="4.62455">
        <ele>1223.1</ele>
        <time>2026-08-18T10:00:51.991Z</time>
      </trkpt>
      <trkpt lat="45.38907" lon="4.62454">
        <ele>1223.2</ele>
        <time>2026-08-18T10:00:52.992Z</time>
      </trkpt>
      <trkpt lat="45.38908" lon="4.62452">
        <ele>1223</ele>
        <time>2026-08-18T10:00:55.016Z</time>
      </trkpt>
      <trkpt lat="45.38908" lon="4.6245">
        <ele>1223.1</ele>
        <time>2026-08-18T10:00:56.992Z</time>
      </trkpt>
      <trkpt lat="45.38908" lon="4.6245">
        <ele>1223.1</ele>
        <time>2026-08-18T10:00:57.992Z</time>
      </trkpt>
      <trkpt lat="45.38908" lon="4.62449">
        <ele>1223.2</ele>
        <time>2026-08-18T10:00:59.991Z</time>
      </trkpt>
      <trkpt lat="45.38908" lon="4.62448">
        <ele>1223.1</ele>
        <time>2026-08-18T10:01:01.883Z</time>
      </trkpt>
      <trkpt lat="45.38908" lon="4.62446">
        <ele>1223</ele>
        <time>2026-08-18T10:01:03.002Z</time>
      </trkpt>
      <trkpt lat="45.38908" lon="4.62444">
        <ele>1223.1</ele>
        <time>2026-08-18T10:01:04.991Z</time>
      </trkpt>
      <trkpt lat="45.38909" lon="4.62444">
        <ele>1222.7</ele>
        <time>2026-08-18T10:01:06.996Z</time>
      </trkpt>
      <trkpt lat="45.38909" lon="4.62443">
        <ele>1222.8</ele>
        <time>2026-08-18T10:01:08.992Z</time>
      </trkpt>
      <trkpt lat="45.38909" lon="4.62443">
        <ele>1223.2</ele>
        <time>2026-08-18T10:01:10.992Z</time>
      </trkpt>
      <trkpt lat="45.38909" lon="4.62443">
        <ele>1223.2</ele>
        <time>2026-08-18T10:01:11.992Z</time>
      </trkpt>
      <trkpt lat="45.38909" lon="4.62443">
        <ele>1223</ele>
        <time>2026-08-18T10:01:12.992Z</time>
      </trkpt>
      <trkpt lat="45.38909" lon="4.62442">
        <ele>1222.8</ele>
        <time>2026-08-18T10:01:13.992Z</time>
      </trkpt>
      <trkpt lat="45.38909" lon="4.62441">
        <ele>1222.4</ele>
        <time>2026-08-18T10:01:14.992Z</time>
      </trkpt>
      <trkpt lat="45.38908" lon="4.6244">
        <ele>1222.4</ele>
        <time>2026-08-18T10:01:16.992Z</time>
      </trkpt>
      <trkpt lat="45.38908" lon="4.62437">
        <ele>1222.5</ele>
        <time>2026-08-18T10:01:18.991Z</time>
      </trkpt>
      <trkpt lat="45.38908" lon="4.62436">
        <ele>1222.5</ele>
        <time>2026-08-18T10:01:20.002Z</time>
      </trkpt>
      <trkpt lat="45.38908" lon="4.62434">
        <ele>1222.4</ele>
        <time>2026-08-18T10:01:21.991Z</time>
      </trkpt>
      <trkpt lat="45.38908" lon="4.62432">
        <ele>1222.1</ele>
        <time>2026-08-18T10:01:23.866Z</time>
      </trkpt>
      <trkpt lat="45.38908" lon="4.62431">
        <ele>1221.9</ele>
        <time>2026-08-18T10:01:24.991Z</time>
      </trkpt>
      <trkpt lat="45.38908" lon="4.62429">
        <ele>1221.7</ele>
        <time>2026-08-18T10:01:25.992Z</time>
      </trkpt>
      <trkpt lat="45.38908" lon="4.62427">
        <ele>1221.8</ele>
        <time>2026-08-18T10:01:27.992Z</time>
      </trkpt>
      <trkpt lat="45.38908" lon="4.62426">
        <ele>1222.1</ele>
        <time>2026-08-18T10:01:28.992Z</time>
      </trkpt>
      <trkpt lat="45.38908" lon="4.62424">
        <ele>1222.3</ele>
        <time>2026-08-18T10:01:30.991Z</time>
      </trkpt>
      <trkpt lat="45.38908" lon="4.62422">
        <ele>1222.3</ele>
        <time>2026-08-18T10:01:31.991Z</time>
      </trkpt>
      <trkpt lat="45.38908" lon="4.62421">
        <ele>1222.3</ele>
        <time>2026-08-18T10:01:32.992Z</time>
      </trkpt>
      <trkpt lat="45.38908" lon="4.62418">
        <ele>1222.4</ele>
        <time>2026-08-18T10:01:34.990Z</time>
      </trkpt>
      <trkpt lat="45.38908" lon="4.62417">
        <ele>1222.4</ele>
        <time>2026-08-18T10:01:36.007Z</time>
      </trkpt>
      <trkpt lat="45.38907" lon="4.62415">
        <ele>1221.5</ele>
        <time>2026-08-18T10:01:37.992Z</time>
      </trkpt>
      <trkpt lat="45.38907" lon="4.62412">
        <ele>1221.6</ele>
        <time>2026-08-18T10:01:39.992Z</time>
      </trkpt>
      <trkpt lat="45.38907" lon="4.6241">
        <ele>1222</ele>
        <time>2026-08-18T10:01:41.992Z</time>
      </trkpt>
      <trkpt lat="45.38908" lon="4.62407">
        <ele>1222.2</ele>
        <time>2026-08-18T10:01:43.966Z</time>
      </trkpt>
      <trkpt lat="45.38908" lon="4.62406">
        <ele>1222.2</ele>
        <time>2026-08-18T10:01:44.992Z</time>
      </trkpt>
      <trkpt lat="45.38909" lon="4.62405">
        <ele>1222.2</ele>
        <time>2026-08-18T10:01:46.001Z</time>
      </trkpt>
      <trkpt lat="45.3891" lon="4.62403">
        <ele>1222.7</ele>
        <time>2026-08-18T10:01:47.992Z</time>
      </trkpt>
      <trkpt lat="45.38911" lon="4.62401">
        <ele>1223.1</ele>
        <time>2026-08-18T10:01:49.991Z</time>
      </trkpt>
      <trkpt lat="45.38911" lon="4.62399">
        <ele>1223.1</ele>
        <time>2026-08-18T10:01:51.021Z</time>
      </trkpt>
      <trkpt lat="45.38911" lon="4.62397">
        <ele>1222.9</ele>
        <time>2026-08-18T10:01:52.992Z</time>
      </trkpt>
      <trkpt lat="45.38911" lon="4.62395">
        <ele>1222.7</ele>
        <time>2026-08-18T10:01:53.992Z</time>
      </trkpt>
      <trkpt lat="45.38911" lon="4.62394">
        <ele>1222.4</ele>
        <time>2026-08-18T10:01:54.992Z</time>
      </trkpt>
      <trkpt lat="45.38912" lon="4.62391">
        <ele>1222.3</ele>
        <time>2026-08-18T10:01:56.992Z</time>
      </trkpt>
      <trkpt lat="45.38912" lon="4.6239">
        <ele>1222.4</ele>
        <time>2026-08-18T10:01:57.997Z</time>
      </trkpt>
      <trkpt lat="45.38913" lon="4.62388">
        <ele>1222.7</ele>
        <time>2026-08-18T10:02:00.006Z</time>
      </trkpt>
      <trkpt lat="45.38914" lon="4.62385">
        <ele>1222.6</ele>
        <time>2026-08-18T10:02:01.992Z</time>
      </trkpt>
      <trkpt lat="45.38914" lon="4.62381">
        <ele>1222.6</ele>
        <time>2026-08-18T10:02:03.991Z</time>
      </trkpt>
      <trkpt lat="45.38915" lon="4.6238">
        <ele>1222.5</ele>
        <time>2026-08-18T10:02:04.992Z</time>
      </trkpt>
      <trkpt lat="45.38915" lon="4.62377">
        <ele>1222.5</ele>
        <time>2026-08-18T10:02:06.900Z</time>
      </trkpt>
      <trkpt lat="45.38916" lon="4.62375">
        <ele>1223.1</ele>
        <time>2026-08-18T10:02:07.992Z</time>
      </trkpt>
      <trkpt lat="45.38918" lon="4.62373">
        <ele>1222.4</ele>
        <time>2026-08-18T10:02:09.991Z</time>
      </trkpt>
      <trkpt lat="45.38919" lon="4.6237">
        <ele>1222.6</ele>
        <time>2026-08-18T10:02:11.992Z</time>
      </trkpt>
      <trkpt lat="45.38921" lon="4.62369">
        <ele>1222.1</ele>
        <time>2026-08-18T10:02:14.001Z</time>
      </trkpt>
      <trkpt lat="45.38923" lon="4.62367">
        <ele>1221.2</ele>
        <time>2026-08-18T10:02:15.992Z</time>
      </trkpt>
      <trkpt lat="45.38924" lon="4.62367">
        <ele>1220.9</ele>
        <time>2026-08-18T10:02:16.992Z</time>
      </trkpt>
      <trkpt lat="45.38926" lon="4.62366">
        <ele>1221.3</ele>
        <time>2026-08-18T10:02:18.992Z</time>
      </trkpt>
      <trkpt lat="45.38926" lon="4.62366">
        <ele>1221.2</ele>
        <time>2026-08-18T10:02:19.992Z</time>
      </trkpt>
      <trkpt lat="45.38928" lon="4.62365">
        <ele>1221.4</ele>
        <time>2026-08-18T10:02:21.991Z</time>
      </trkpt>
      <trkpt lat="45.38928" lon="4.62364">
        <ele>1221.4</ele>
        <time>2026-08-18T10:02:22.992Z</time>
      </trkpt>
      <trkpt lat="45.38929" lon="4.62363">
        <ele>1220.9</ele>
        <time>2026-08-18T10:02:24.012Z</time>
      </trkpt>
      <trkpt lat="45.3893" lon="4.62362">
        <ele>1221.4</ele>
        <time>2026-08-18T10:02:25.991Z</time>
      </trkpt>
      <trkpt lat="45.38931" lon="4.62362">
        <ele>1222</ele>
        <time>2026-08-18T10:02:26.991Z</time>
      </trkpt>
      <trkpt lat="45.38932" lon="4.62362">
        <ele>1222.5</ele>
        <time>2026-08-18T10:02:28.005Z</time>
      </trkpt>
      <trkpt lat="45.38933" lon="4.62362">
        <ele>1223</ele>
        <time>2026-08-18T10:02:29.991Z</time>
      </trkpt>
      <trkpt lat="45.38933" lon="4.62361">
        <ele>1223.2</ele>
        <time>2026-08-18T10:02:30.991Z</time>
      </trkpt>
      <trkpt lat="45.38934" lon="4.62361">
        <ele>1223.7</ele>
        <time>2026-08-18T10:02:31.998Z</time>
      </trkpt>
      <trkpt lat="45.38934" lon="4.6236">
        <ele>1224.1</ele>
        <time>2026-08-18T10:02:33.992Z</time>
      </trkpt>
      <trkpt lat="45.38935" lon="4.62359">
        <ele>1224.2</ele>
        <time>2026-08-18T10:02:34.992Z</time>
      </trkpt>
      <trkpt lat="45.38936" lon="4.62359">
        <ele>1224.2</ele>
        <time>2026-08-18T10:02:35.992Z</time>
      </trkpt>
      <trkpt lat="45.38936" lon="4.62358">
        <ele>1224.4</ele>
        <time>2026-08-18T10:02:36.992Z</time>
      </trkpt>
      <trkpt lat="45.38936" lon="4.62358">
        <ele>1224.4</ele>
        <time>2026-08-18T10:02:37.992Z</time>
      </trkpt>
      <trkpt lat="45.38936" lon="4.62358">
        <ele>1224.4</ele>
        <time>2026-08-18T10:02:38.992Z</time>
      </trkpt>
      <trkpt lat="45.38936" lon="4.62358">
        <ele>1224.6</ele>
        <time>2026-08-18T10:02:41.011Z</time>
      </trkpt>
      <trkpt lat="45.38936" lon="4.62357">
        <ele>1224.6</ele>
        <time>2026-08-18T10:02:42.992Z</time>
      </trkpt>
      <trkpt lat="45.38936" lon="4.62357">
        <ele>1224.8</ele>
        <time>2026-08-18T10:02:43.992Z</time>
      </trkpt>
      <trkpt lat="45.38936" lon="4.62357">
        <ele>1224.4</ele>
        <time>2026-08-18T10:02:45.006Z</time>
      </trkpt>
      <trkpt lat="45.38936" lon="4.62357">
        <ele>1224.3</ele>
        <time>2026-08-18T10:02:46.992Z</time>
      </trkpt>
      <trkpt lat="45.38936" lon="4.62357">
        <ele>1224.3</ele>
        <time>2026-08-18T10:02:47.992Z</time>
      </trkpt>
      <trkpt lat="45.38936" lon="4.62357">
        <ele>1224.3</ele>
        <time>2026-08-18T10:02:48.999Z</time>
      </trkpt>
      <trkpt lat="45.38936" lon="4.62357">
        <ele>1224.9</ele>
        <time>2026-08-18T10:02:50.991Z</time>
      </trkpt>
      <trkpt lat="45.38936" lon="4.62357">
        <ele>1224.9</ele>
        <time>2026-08-18T10:02:51.992Z</time>
      </trkpt>
      <trkpt lat="45.38936" lon="4.62357">
        <ele>1225</ele>
        <time>2026-08-18T10:02:52.993Z</time>
      </trkpt>
      <trkpt lat="45.38936" lon="4.62358">
        <ele>1225.4</ele>
        <time>2026-08-18T10:02:54.992Z</time>
      </trkpt>
      <trkpt lat="45.38936" lon="4.62358">
        <ele>1225.6</ele>
        <time>2026-08-18T10:02:55.992Z</time>
      </trkpt>
      <trkpt lat="45.38936" lon="4.62359">
        <ele>1225.6</ele>
        <time>2026-08-18T10:02:57.992Z</time>
      </trkpt>
      <trkpt lat="45.38936" lon="4.6236">
        <ele>1225.6</ele>
        <time>2026-08-18T10:02:59.992Z</time>
      </trkpt>
      <trkpt lat="45.38937" lon="4.6236">
        <ele>1225.6</ele>
        <time>2026-08-18T10:03:02.006Z</time>
      </trkpt>
      <trkpt lat="45.38937" lon="4.6236">
        <ele>1226</ele>
        <time>2026-08-18T10:03:03.992Z</time>
      </trkpt>
      <trkpt lat="45.38937" lon="4.6236">
        <ele>1225.5</ele>
        <time>2026-08-18T10:03:04.992Z</time>
      </trkpt>
      <trkpt lat="45.38937" lon="4.6236">
        <ele>1225.5</ele>
        <time>2026-08-18T10:03:05.999Z</time>
      </trkpt>
      <trkpt lat="45.38937" lon="4.62358">
        <ele>1225.3</ele>
        <time>2026-08-18T10:03:07.991Z</time>
      </trkpt>
      <trkpt lat="45.38937" lon="4.62358">
        <ele>1224.6</ele>
        <time>2026-08-18T10:03:08.991Z</time>
      </trkpt>
      <trkpt lat="45.38937" lon="4.62357">
        <ele>1224.8</ele>
        <time>2026-08-18T10:03:09.993Z</time>
      </trkpt>
      <trkpt lat="45.38936" lon="4.6236">
        <ele>1224.4</ele>
        <time>2026-08-18T10:03:11.992Z</time>
      </trkpt>
      <trkpt lat="45.38936" lon="4.62361">
        <ele>1224.4</ele>
        <time>2026-08-18T10:03:12.992Z</time>
      </trkpt>
      <trkpt lat="45.38936" lon="4.62361">
        <ele>1224.4</ele>
        <time>2026-08-18T10:03:13.992Z</time>
      </trkpt>
      <trkpt lat="45.38936" lon="4.62361">
        <ele>1224.4</ele>
        <time>2026-08-18T10:03:14.992Z</time>
      </trkpt>
      <trkpt lat="45.38936" lon="4.62361">
        <ele>1224.4</ele>
        <time>2026-08-18T10:03:15.992Z</time>
      </trkpt>
      <trkpt lat="45.38935" lon="4.62361">
        <ele>1224.2</ele>
        <time>2026-08-18T10:03:17.992Z</time>
      </trkpt>
      <trkpt lat="45.38936" lon="4.62361">
        <ele>1224.2</ele>
        <time>2026-08-18T10:03:19.007Z</time>
      </trkpt>
      <trkpt lat="45.38935" lon="4.62361">
        <ele>1224.2</ele>
        <time>2026-08-18T10:03:20.992Z</time>
      </trkpt>
      <trkpt lat="45.38935" lon="4.62361">
        <ele>1224.2</ele>
        <time>2026-08-18T10:03:21.992Z</time>
      </trkpt>
      <trkpt lat="45.38935" lon="4.62361">
        <ele>1224.3</ele>
        <time>2026-08-18T10:03:22.999Z</time>
      </trkpt>
      <trkpt lat="45.38935" lon="4.62361">
        <ele>1224.7</ele>
        <time>2026-08-18T10:03:24.992Z</time>
      </trkpt>
      <trkpt lat="45.38935" lon="4.62361">
        <ele>1225.1</ele>
        <time>2026-08-18T10:03:25.992Z</time>
      </trkpt>
      <trkpt lat="45.38935" lon="4.62361">
        <ele>1225.2</ele>
        <time>2026-08-18T10:03:26.993Z</time>
      </trkpt>
      <trkpt lat="45.38935" lon="4.62361">
        <ele>1225.2</ele>
        <time>2026-08-18T10:03:28.019Z</time>
      </trkpt>
      <trkpt lat="45.38935" lon="4.62361">
        <ele>1225.2</ele>
        <time>2026-08-18T10:03:29.992Z</time>
      </trkpt>
      <trkpt lat="45.38935" lon="4.6236">
        <ele>1225.2</ele>
        <time>2026-08-18T10:03:31.991Z</time>
      </trkpt>
      <trkpt lat="45.38934" lon="4.6236">
        <ele>1225.2</ele>
        <time>2026-08-18T10:03:32.991Z</time>
      </trkpt>
      <trkpt lat="45.38934" lon="4.6236">
        <ele>1225.2</ele>
        <time>2026-08-18T10:03:33.991Z</time>
      </trkpt>
      <trkpt lat="45.38934" lon="4.6236">
        <ele>1225.2</ele>
        <time>2026-08-18T10:03:34.992Z</time>
      </trkpt>
      <trkpt lat="45.38934" lon="4.6236">
        <ele>1225.2</ele>
        <time>2026-08-18T10:03:36.006Z</time>
      </trkpt>
      <trkpt lat="45.38934" lon="4.6236">
        <ele>1225.2</ele>
        <time>2026-08-18T10:03:37.991Z</time>
      </trkpt>
      <trkpt lat="45.38934" lon="4.6236">
        <ele>1225.2</ele>
        <time>2026-08-18T10:03:40.000Z</time>
      </trkpt>
      <trkpt lat="45.38934" lon="4.6236">
        <ele>1225.2</ele>
        <time>2026-08-18T10:03:41.991Z</time>
      </trkpt>
      <trkpt lat="45.38934" lon="4.6236">
        <ele>1225.2</ele>
        <time>2026-08-18T10:03:43.900Z</time>
      </trkpt>
      <trkpt lat="45.38934" lon="4.6236">
        <ele>1225.2</ele>
        <time>2026-08-18T10:03:44.991Z</time>
      </trkpt>
      <trkpt lat="45.38934" lon="4.6236">
        <ele>1225.2</ele>
        <time>2026-08-18T10:03:45.991Z</time>
      </trkpt>
      <trkpt lat="45.38934" lon="4.6236">
        <ele>1225.2</ele>
        <time>2026-08-18T10:03:46.991Z</time>
      </trkpt>
      <trkpt lat="45.38934" lon="4.6236">
        <ele>1225.2</ele>
        <time>2026-08-18T10:03:49.014Z</time>
      </trkpt>
      <trkpt lat="45.38934" lon="4.6236">
        <ele>1225.2</ele>
        <time>2026-08-18T10:03:50.991Z</time>
      </trkpt>
      <trkpt lat="45.38934" lon="4.6236">
        <ele>1225.3</ele>
        <time>2026-08-18T10:03:53.007Z</time>
      </trkpt>
      <trkpt lat="45.38934" lon="4.6236">
        <ele>1224.8</ele>
        <time>2026-08-18T10:03:54.991Z</time>
      </trkpt>
      <trkpt lat="45.38934" lon="4.6236">
        <ele>1224.8</ele>
        <time>2026-08-18T10:03:55.991Z</time>
      </trkpt>
      <trkpt lat="45.38934" lon="4.6236">
        <ele>1224.8</ele>
        <time>2026-08-18T10:03:56.999Z</time>
      </trkpt>
      <trkpt lat="45.38934" lon="4.6236">
        <ele>1224.8</ele>
        <time>2026-08-18T10:03:58.991Z</time>
      </trkpt>
      <trkpt lat="45.38934" lon="4.6236">
        <ele>1224.8</ele>
        <time>2026-08-18T10:04:00.994Z</time>
      </trkpt>
      <trkpt lat="45.38934" lon="4.6236">
        <ele>1224.8</ele>
        <time>2026-08-18T10:04:02.991Z</time>
      </trkpt>
      <trkpt lat="45.38934" lon="4.6236">
        <ele>1224.8</ele>
        <time>2026-08-18T10:04:04.990Z</time>
      </trkpt>
      <trkpt lat="45.38934" lon="4.6236">
        <ele>1224.8</ele>
        <time>2026-08-18T10:04:05.990Z</time>
      </trkpt>
      <trkpt lat="45.38934" lon="4.6236">
        <ele>1225</ele>
        <time>2026-08-18T10:04:06.990Z</time>
      </trkpt>
      <trkpt lat="45.38934" lon="4.6236">
        <ele>1225.4</ele>
        <time>2026-08-18T10:04:07.991Z</time>
      </trkpt>
      <trkpt lat="45.38934" lon="4.6236">
        <ele>1224.9</ele>
        <time>2026-08-18T10:04:08.991Z</time>
      </trkpt>
      <trkpt lat="45.38934" lon="4.6236">
        <ele>1224.9</ele>
        <time>2026-08-18T10:04:10.006Z</time>
      </trkpt>
      <trkpt lat="45.38934" lon="4.6236">
        <ele>1224.9</ele>
        <time>2026-08-18T10:04:11.990Z</time>
      </trkpt>
      <trkpt lat="45.38934" lon="4.6236">
        <ele>1224.9</ele>
        <time>2026-08-18T10:04:12.990Z</time>
      </trkpt>
      <trkpt lat="45.38934" lon="4.6236">
        <ele>1224.8</ele>
        <time>2026-08-18T10:04:14.000Z</time>
      </trkpt>
      <trkpt lat="45.38934" lon="4.6236">
        <ele>1224.8</ele>
        <time>2026-08-18T10:04:15.990Z</time>
      </trkpt>
      <trkpt lat="45.38933" lon="4.62361">
        <ele>1224.8</ele>
        <time>2026-08-18T10:04:16.991Z</time>
      </trkpt>
      <trkpt lat="45.38934" lon="4.62361">
        <ele>1224.8</ele>
        <time>2026-08-18T10:04:18.024Z</time>
      </trkpt>
      <trkpt lat="45.38933" lon="4.6236">
        <ele>1224.8</ele>
        <time>2026-08-18T10:04:19.990Z</time>
      </trkpt>
      <trkpt lat="45.38933" lon="4.6236">
        <ele>1224.8</ele>
        <time>2026-08-18T10:04:20.990Z</time>
      </trkpt>
      <trkpt lat="45.38933" lon="4.6236">
        <ele>1224.8</ele>
        <time>2026-08-18T10:04:21.991Z</time>
      </trkpt>
      <trkpt lat="45.38933" lon="4.6236">
        <ele>1224.8</ele>
        <time>2026-08-18T10:04:22.991Z</time>
      </trkpt>
      <trkpt lat="45.38933" lon="4.6236">
        <ele>1224.8</ele>
        <time>2026-08-18T10:04:23.991Z</time>
      </trkpt>
      <trkpt lat="45.38933" lon="4.6236">
        <ele>1224.8</ele>
        <time>2026-08-18T10:04:24.991Z</time>
      </trkpt>
      <trkpt lat="45.38933" lon="4.6236">
        <ele>1224.8</ele>
        <time>2026-08-18T10:04:26.991Z</time>
      </trkpt>
      <trkpt lat="45.38933" lon="4.6236">
        <ele>1224.8</ele>
        <time>2026-08-18T10:04:28.990Z</time>
      </trkpt>
      <trkpt lat="45.38933" lon="4.6236">
        <ele>1224.8</ele>
        <time>2026-08-18T10:04:29.991Z</time>
      </trkpt>
      <trkpt lat="45.38933" lon="4.6236">
        <ele>1224.8</ele>
        <time>2026-08-18T10:04:31.990Z</time>
      </trkpt>
      <trkpt lat="45.38933" lon="4.6236">
        <ele>1224.8</ele>
        <time>2026-08-18T10:04:32.990Z</time>
      </trkpt>
      <trkpt lat="45.38933" lon="4.6236">
        <ele>1224.8</ele>
        <time>2026-08-18T10:04:33.990Z</time>
      </trkpt>
      <trkpt lat="45.38933" lon="4.6236">
        <ele>1224.8</ele>
        <time>2026-08-18T10:04:34.991Z</time>
      </trkpt>
      <trkpt lat="45.38933" lon="4.6236">
        <ele>1224.8</ele>
        <time>2026-08-18T10:04:36.991Z</time>
      </trkpt>
      <trkpt lat="45.38933" lon="4.62359">
        <ele>1226.2</ele>
        <time>2026-08-18T11:00:22.990Z</time>
      </trkpt>
      <trkpt lat="45.38933" lon="4.62359">
        <ele>1226.2</ele>
        <time>2026-08-18T11:00:23.991Z</time>
      </trkpt>
      <trkpt lat="45.38933" lon="4.62359">
        <ele>1226.2</ele>
        <time>2026-08-18T11:00:25.991Z</time>
      </trkpt>
      <trkpt lat="45.38933" lon="4.62359">
        <ele>1226.2</ele>
        <time>2026-08-18T11:00:26.991Z</time>
      </trkpt>
      <trkpt lat="45.38933" lon="4.62359">
        <ele>1226.2</ele>
        <time>2026-08-18T11:00:28.990Z</time>
      </trkpt>
      <trkpt lat="45.38933" lon="4.62359">
        <ele>1226.3</ele>
        <time>2026-08-18T11:00:29.990Z</time>
      </trkpt>
      <trkpt lat="45.38933" lon="4.62359">
        <ele>1226.3</ele>
        <time>2026-08-18T11:00:30.991Z</time>
      </trkpt>
      <trkpt lat="45.38933" lon="4.62359">
        <ele>1226.3</ele>
        <time>2026-08-18T11:00:32.990Z</time>
      </trkpt>
      <trkpt lat="45.38933" lon="4.62359">
        <ele>1226.3</ele>
        <time>2026-08-18T11:00:33.991Z</time>
      </trkpt>
      <trkpt lat="45.38933" lon="4.62359">
        <ele>1226.3</ele>
        <time>2026-08-18T11:00:35.990Z</time>
      </trkpt>
      <trkpt lat="45.38933" lon="4.62359">
        <ele>1226.3</ele>
        <time>2026-08-18T11:00:36.991Z</time>
      </trkpt>
      <trkpt lat="45.38933" lon="4.62359">
        <ele>1226.3</ele>
        <time>2026-08-18T11:00:37.991Z</time>
      </trkpt>
      <trkpt lat="45.38933" lon="4.62359">
        <ele>1226.3</ele>
        <time>2026-08-18T11:00:38.991Z</time>
      </trkpt>
      <trkpt lat="45.38933" lon="4.62359">
        <ele>1226.3</ele>
        <time>2026-08-18T11:00:40.991Z</time>
      </trkpt>
      <trkpt lat="45.38933" lon="4.62359">
        <ele>1226.3</ele>
        <time>2026-08-18T11:00:41.991Z</time>
      </trkpt>
      <trkpt lat="45.38933" lon="4.62359">
        <ele>1226.3</ele>
        <time>2026-08-18T11:00:42.991Z</time>
      </trkpt>
      <trkpt lat="45.38933" lon="4.62359">
        <ele>1226.3</ele>
        <time>2026-08-18T11:00:44.991Z</time>
      </trkpt>
      <trkpt lat="45.38933" lon="4.62359">
        <ele>1226.3</ele>
        <time>2026-08-18T11:00:45.991Z</time>
      </trkpt>
      <trkpt lat="45.38933" lon="4.62359">
        <ele>1226.3</ele>
        <time>2026-08-18T11:00:46.991Z</time>
      </trkpt>
      <trkpt lat="45.38933" lon="4.62359">
        <ele>1226.3</ele>
        <time>2026-08-18T11:00:47.991Z</time>
      </trkpt>
      <trkpt lat="45.38933" lon="4.62359">
        <ele>1226.3</ele>
        <time>2026-08-18T11:00:48.991Z</time>
      </trkpt>
      <trkpt lat="45.38933" lon="4.62359">
        <ele>1226.3</ele>
        <time>2026-08-18T11:00:50.990Z</time>
      </trkpt>
      <trkpt lat="45.38933" lon="4.62359">
        <ele>1226.3</ele>
        <time>2026-08-18T11:00:51.990Z</time>
      </trkpt>
      <trkpt lat="45.38933" lon="4.62359">
        <ele>1226.3</ele>
        <time>2026-08-18T11:00:52.990Z</time>
      </trkpt>
      <trkpt lat="45.38933" lon="4.62359">
        <ele>1226.3</ele>
        <time>2026-08-18T11:00:53.991Z</time>
      </trkpt>
      <trkpt lat="45.38933" lon="4.62359">
        <ele>1226.3</ele>
        <time>2026-08-18T11:00:55.990Z</time>
      </trkpt>
      <trkpt lat="45.38933" lon="4.62359">
        <ele>1226.3</ele>
        <time>2026-08-18T11:00:56.991Z</time>
      </trkpt>
      <trkpt lat="45.38933" lon="4.62359">
        <ele>1226.3</ele>
        <time>2026-08-18T11:00:57.991Z</time>
      </trkpt>
      <trkpt lat="45.38933" lon="4.62359">
        <ele>1226.3</ele>
        <time>2026-08-18T11:00:59.991Z</time>
      </trkpt>
      <trkpt lat="45.38933" lon="4.62359">
        <ele>1226.3</ele>
        <time>2026-08-18T11:01:00.991Z</time>
      </trkpt>
      <trkpt lat="45.38933" lon="4.62359">
        <ele>1226.3</ele>
        <time>2026-08-18T11:01:01.991Z</time>
      </trkpt>
      <trkpt lat="45.38933" lon="4.62359">
        <ele>1226.3</ele>
        <time>2026-08-18T11:01:02.991Z</time>
      </trkpt>
      <trkpt lat="45.38933" lon="4.62359">
        <ele>1226.3</ele>
        <time>2026-08-18T11:01:03.991Z</time>
      </trkpt>
      <trkpt lat="45.38933" lon="4.62359">
        <ele>1226.3</ele>
        <time>2026-08-18T11:01:04.991Z</time>
      </trkpt>
      <trkpt lat="45.38933" lon="4.62359">
        <ele>1226.3</ele>
        <time>2026-08-18T11:01:05.991Z</time>
      </trkpt>
      <trkpt lat="45.38933" lon="4.62359">
        <ele>1226.3</ele>
        <time>2026-08-18T11:01:07.990Z</time>
      </trkpt>
      <trkpt lat="45.38933" lon="4.62359">
        <ele>1226.3</ele>
        <time>2026-08-18T11:01:08.990Z</time>
      </trkpt>
      <trkpt lat="45.38933" lon="4.62359">
        <ele>1226.3</ele>
        <time>2026-08-18T11:01:09.990Z</time>
      </trkpt>
      <trkpt lat="45.38933" lon="4.62359">
        <ele>1226.3</ele>
        <time>2026-08-18T11:01:10.990Z</time>
      </trkpt>
      <trkpt lat="45.38933" lon="4.62359">
        <ele>1226.3</ele>
        <time>2026-08-18T11:01:11.990Z</time>
      </trkpt>
      <trkpt lat="45.38933" lon="4.62359">
        <ele>1226.3</ele>
        <time>2026-08-18T11:01:12.991Z</time>
      </trkpt>
      <trkpt lat="45.38933" lon="4.62359">
        <ele>1226.3</ele>
        <time>2026-08-18T11:01:13.991Z</time>
      </trkpt>
      <trkpt lat="45.38933" lon="4.62359">
        <ele>1226.3</ele>
        <time>2026-08-18T11:01:15.991Z</time>
      </trkpt>
      <trkpt lat="45.38933" lon="4.62359">
        <ele>1226.3</ele>
        <time>2026-08-18T11:01:17.991Z</time>
      </trkpt>
      <trkpt lat="45.38933" lon="4.62359">
        <ele>1226.3</ele>
        <time>2026-08-18T11:01:18.991Z</time>
      </trkpt>
      <trkpt lat="45.38933" lon="4.62359">
        <ele>1226.3</ele>
        <time>2026-08-18T11:01:19.991Z</time>
      </trkpt>
      <trkpt lat="45.38933" lon="4.62359">
        <ele>1226.3</ele>
        <time>2026-08-18T11:01:20.991Z</time>
      </trkpt>
      <trkpt lat="45.38933" lon="4.62359">
        <ele>1226.3</ele>
        <time>2026-08-18T11:01:22.991Z</time>
      </trkpt>
      <trkpt lat="45.38933" lon="4.62359">
        <ele>1226.3</ele>
        <time>2026-08-18T11:01:23.991Z</time>
      </trkpt>
      <trkpt lat="45.38933" lon="4.62359">
        <ele>1226.3</ele>
        <time>2026-08-18T11:01:24.991Z</time>
      </trkpt>
      <trkpt lat="45.38933" lon="4.62359">
        <ele>1226.3</ele>
        <time>2026-08-18T11:01:26.991Z</time>
      </trkpt>
      <trkpt lat="45.38933" lon="4.62359">
        <ele>1226.3</ele>
        <time>2026-08-18T11:01:27.991Z</time>
      </trkpt>
      <trkpt lat="45.38933" lon="4.62359">
        <ele>1226.3</ele>
        <time>2026-08-18T11:01:29.990Z</time>
      </trkpt>
      <trkpt lat="45.38933" lon="4.62359">
        <ele>1226.3</ele>
        <time>2026-08-18T11:01:30.991Z</time>
      </trkpt>
      <trkpt lat="45.38933" lon="4.62359">
        <ele>1226.3</ele>
        <time>2026-08-18T11:01:31.991Z</time>
      </trkpt>
      <trkpt lat="45.38933" lon="4.62359">
        <ele>1226.3</ele>
        <time>2026-08-18T11:01:33.990Z</time>
      </trkpt>
      <trkpt lat="45.38933" lon="4.62359">
        <ele>1226.3</ele>
        <time>2026-08-18T11:01:34.990Z</time>
      </trkpt>
      <trkpt lat="45.38933" lon="4.62359">
        <ele>1226.3</ele>
        <time>2026-08-18T11:01:35.991Z</time>
      </trkpt>
      <trkpt lat="45.38933" lon="4.62359">
        <ele>1226.3</ele>
        <time>2026-08-18T11:01:37.991Z</time>
      </trkpt>
      <trkpt lat="45.38933" lon="4.62359">
        <ele>1226.3</ele>
        <time>2026-08-18T11:01:38.991Z</time>
      </trkpt>
      <trkpt lat="45.38933" lon="4.62359">
        <ele>1226.3</ele>
        <time>2026-08-18T11:01:39.991Z</time>
      </trkpt>
      <trkpt lat="45.38933" lon="4.62359">
        <ele>1226.4</ele>
        <time>2026-08-18T11:01:41.109Z</time>
      </trkpt>
      <trkpt lat="45.38933" lon="4.62359">
        <ele>1226.4</ele>
        <time>2026-08-18T11:01:42.164Z</time>
      </trkpt>
      <trkpt lat="45.38933" lon="4.62359">
        <ele>1226.4</ele>
        <time>2026-08-18T11:01:43.356Z</time>
      </trkpt>
      <trkpt lat="45.38933" lon="4.62359">
        <ele>1226.4</ele>
        <time>2026-08-18T11:01:44.991Z</time>
      </trkpt>
      <trkpt lat="45.38933" lon="4.62359">
        <ele>1226.4</ele>
        <time>2026-08-18T11:01:45.991Z</time>
      </trkpt>
      <trkpt lat="45.38933" lon="4.62358">
        <ele>1226.4</ele>
        <time>2026-08-18T11:01:47.990Z</time>
      </trkpt>
      <trkpt lat="45.38933" lon="4.62358">
        <ele>1226.4</ele>
        <time>2026-08-18T11:01:48.990Z</time>
      </trkpt>
      <trkpt lat="45.38933" lon="4.62358">
        <ele>1226.4</ele>
        <time>2026-08-18T11:01:49.991Z</time>
      </trkpt>
      <trkpt lat="45.38933" lon="4.62358">
        <ele>1226.4</ele>
        <time>2026-08-18T11:01:51.990Z</time>
      </trkpt>
      <trkpt lat="45.38933" lon="4.62358">
        <ele>1226.4</ele>
        <time>2026-08-18T11:01:52.991Z</time>
      </trkpt>
      <trkpt lat="45.38933" lon="4.62358">
        <ele>1226.4</ele>
        <time>2026-08-18T11:01:54.000Z</time>
      </trkpt>
      <trkpt lat="45.38933" lon="4.62358">
        <ele>1226.4</ele>
        <time>2026-08-18T11:01:55.991Z</time>
      </trkpt>
      <trkpt lat="45.38933" lon="4.62359">
        <ele>1226.4</ele>
        <time>2026-08-18T11:01:56.991Z</time>
      </trkpt>
      <trkpt lat="45.38933" lon="4.62359">
        <ele>1226.4</ele>
        <time>2026-08-18T11:01:57.993Z</time>
      </trkpt>
      <trkpt lat="45.38933" lon="4.62358">
        <ele>1226.4</ele>
        <time>2026-08-18T11:01:59.991Z</time>
      </trkpt>
      <trkpt lat="45.38933" lon="4.62359">
        <ele>1226.5</ele>
        <time>2026-08-18T11:02:00.991Z</time>
      </trkpt>
      <trkpt lat="45.38933" lon="4.62359">
        <ele>1226.5</ele>
        <time>2026-08-18T11:02:01.991Z</time>
      </trkpt>
      <trkpt lat="45.38933" lon="4.62359">
        <ele>1226.5</ele>
        <time>2026-08-18T11:02:02.991Z</time>
      </trkpt>
      <trkpt lat="45.38933" lon="4.62359">
        <ele>1226.6</ele>
        <time>2026-08-18T11:02:04.991Z</time>
      </trkpt>
      <trkpt lat="45.38933" lon="4.62358">
        <ele>1226.7</ele>
        <time>2026-08-18T11:02:06.990Z</time>
      </trkpt>
      <trkpt lat="45.38934" lon="4.62358">
        <ele>1226.9</ele>
        <time>2026-08-18T11:02:07.991Z</time>
      </trkpt>
      <trkpt lat="45.38934" lon="4.62358">
        <ele>1226.9</ele>
        <time>2026-08-18T11:02:09.990Z</time>
      </trkpt>
      <trkpt lat="45.38934" lon="4.62358">
        <ele>1226.9</ele>
        <time>2026-08-18T11:02:10.991Z</time>
      </trkpt>
      <trkpt lat="45.38934" lon="4.62358">
        <ele>1226.8</ele>
        <time>2026-08-18T11:02:12.995Z</time>
      </trkpt>
      <trkpt lat="45.38934" lon="4.62357">
        <ele>1227.2</ele>
        <time>2026-08-18T11:02:14.991Z</time>
      </trkpt>
      <trkpt lat="45.38935" lon="4.62357">
        <ele>1227.2</ele>
        <time>2026-08-18T11:02:16.990Z</time>
      </trkpt>
      <trkpt lat="45.38935" lon="4.62357">
        <ele>1227.2</ele>
        <time>2026-08-18T11:02:17.991Z</time>
      </trkpt>
      <trkpt lat="45.38935" lon="4.62357">
        <ele>1227.2</ele>
        <time>2026-08-18T11:02:19.991Z</time>
      </trkpt>
      <trkpt lat="45.38935" lon="4.62357">
        <ele>1227.2</ele>
        <time>2026-08-18T11:02:20.991Z</time>
      </trkpt>
      <trkpt lat="45.38935" lon="4.62357">
        <ele>1227.2</ele>
        <time>2026-08-18T11:02:22.007Z</time>
      </trkpt>
      <trkpt lat="45.38935" lon="4.62356">
        <ele>1227.2</ele>
        <time>2026-08-18T11:02:23.991Z</time>
      </trkpt>
      <trkpt lat="45.38935" lon="4.62356">
        <ele>1227.2</ele>
        <time>2026-08-18T11:02:26.000Z</time>
      </trkpt>
      <trkpt lat="45.38935" lon="4.62356">
        <ele>1227.2</ele>
        <time>2026-08-18T11:02:27.991Z</time>
      </trkpt>
      <trkpt lat="45.38935" lon="4.62356">
        <ele>1227.2</ele>
        <time>2026-08-18T11:02:28.991Z</time>
      </trkpt>
      <trkpt lat="45.38935" lon="4.62356">
        <ele>1227.2</ele>
        <time>2026-08-18T11:02:29.993Z</time>
      </trkpt>
      <trkpt lat="45.38935" lon="4.62356">
        <ele>1227.2</ele>
        <time>2026-08-18T11:02:31.991Z</time>
      </trkpt>
      <trkpt lat="45.38935" lon="4.62356">
        <ele>1227.2</ele>
        <time>2026-08-18T11:02:32.991Z</time>
      </trkpt>
      <trkpt lat="45.38935" lon="4.62356">
        <ele>1227.2</ele>
        <time>2026-08-18T11:02:34.990Z</time>
      </trkpt>
      <trkpt lat="45.38935" lon="4.62356">
        <ele>1227.2</ele>
        <time>2026-08-18T11:02:35.990Z</time>
      </trkpt>
      <trkpt lat="45.38935" lon="4.62356">
        <ele>1227.2</ele>
        <time>2026-08-18T11:02:36.991Z</time>
      </trkpt>
      <trkpt lat="45.38935" lon="4.62356">
        <ele>1227.2</ele>
        <time>2026-08-18T11:02:37.991Z</time>
      </trkpt>
      <trkpt lat="45.38935" lon="4.62356">
        <ele>1227.2</ele>
        <time>2026-08-18T11:02:39.006Z</time>
      </trkpt>
      <trkpt lat="45.38935" lon="4.62356">
        <ele>1227.2</ele>
        <time>2026-08-18T11:02:40.991Z</time>
      </trkpt>
      <trkpt lat="45.38935" lon="4.62357">
        <ele>1227.2</ele>
        <time>2026-08-18T11:02:42.998Z</time>
      </trkpt>
      <trkpt lat="45.38935" lon="4.62357">
        <ele>1227.2</ele>
        <time>2026-08-18T11:02:44.991Z</time>
      </trkpt>
      <trkpt lat="45.38935" lon="4.62357">
        <ele>1227.2</ele>
        <time>2026-08-18T11:02:45.991Z</time>
      </trkpt>
      <trkpt lat="45.38935" lon="4.62357">
        <ele>1227.4</ele>
        <time>2026-08-18T11:02:46.991Z</time>
      </trkpt>
      <trkpt lat="45.38935" lon="4.62356">
        <ele>1227.3</ele>
        <time>2026-08-18T11:02:47.991Z</time>
      </trkpt>
      <trkpt lat="45.38935" lon="4.62356">
        <ele>1227.5</ele>
        <time>2026-08-18T11:02:49.990Z</time>
      </trkpt>
      <trkpt lat="45.38935" lon="4.62356">
        <ele>1227.5</ele>
        <time>2026-08-18T11:02:50.990Z</time>
      </trkpt>
      <trkpt lat="45.38935" lon="4.62356">
        <ele>1227.5</ele>
        <time>2026-08-18T11:02:52.010Z</time>
      </trkpt>
      <trkpt lat="45.38935" lon="4.62354">
        <ele>1226.7</ele>
        <time>2026-08-18T11:02:53.991Z</time>
      </trkpt>
      <trkpt lat="45.38934" lon="4.62353">
        <ele>1226.5</ele>
        <time>2026-08-18T11:02:55.990Z</time>
      </trkpt>
      <trkpt lat="45.38933" lon="4.62352">
        <ele>1226.4</ele>
        <time>2026-08-18T11:02:56.990Z</time>
      </trkpt>
      <trkpt lat="45.38933" lon="4.62351">
        <ele>1226.3</ele>
        <time>2026-08-18T11:02:57.991Z</time>
      </trkpt>
      <trkpt lat="45.38932" lon="4.6235">
        <ele>1226</ele>
        <time>2026-08-18T11:02:58.991Z</time>
      </trkpt>
      <trkpt lat="45.38932" lon="4.62349">
        <ele>1226.5</ele>
        <time>2026-08-18T11:02:59.991Z</time>
      </trkpt>
      <trkpt lat="45.38931" lon="4.62349">
        <ele>1226.4</ele>
        <time>2026-08-18T11:03:00.991Z</time>
      </trkpt>
      <trkpt lat="45.38931" lon="4.62347">
        <ele>1225.9</ele>
        <time>2026-08-18T11:03:02.991Z</time>
      </trkpt>
      <trkpt lat="45.38931" lon="4.62346">
        <ele>1225.8</ele>
        <time>2026-08-18T11:03:03.991Z</time>
      </trkpt>
      <trkpt lat="45.38931" lon="4.62346">
        <ele>1225.6</ele>
        <time>2026-08-18T11:03:04.991Z</time>
      </trkpt>
      <trkpt lat="45.38931" lon="4.62344">
        <ele>1225.7</ele>
        <time>2026-08-18T11:03:05.991Z</time>
      </trkpt>
      <trkpt lat="45.3893" lon="4.62343">
        <ele>1225.4</ele>
        <time>2026-08-18T11:03:07.991Z</time>
      </trkpt>
      <trkpt lat="45.38929" lon="4.62343">
        <ele>1225.4</ele>
        <time>2026-08-18T11:03:09.020Z</time>
      </trkpt>
      <trkpt lat="45.38929" lon="4.62342">
        <ele>1225.3</ele>
        <time>2026-08-18T11:03:10.991Z</time>
      </trkpt>
      <trkpt lat="45.38928" lon="4.6234">
        <ele>1225.5</ele>
        <time>2026-08-18T11:03:13.002Z</time>
      </trkpt>
      <trkpt lat="45.38928" lon="4.62339">
        <ele>1224.9</ele>
        <time>2026-08-18T11:03:14.991Z</time>
      </trkpt>
      <trkpt lat="45.38928" lon="4.62338">
        <ele>1224.7</ele>
        <time>2026-08-18T11:03:16.993Z</time>
      </trkpt>
      <trkpt lat="45.38929" lon="4.62338">
        <ele>1224.7</ele>
        <time>2026-08-18T11:03:17.995Z</time>
      </trkpt>
      <trkpt lat="45.38929" lon="4.62336">
        <ele>1224.9</ele>
        <time>2026-08-18T11:03:19.991Z</time>
      </trkpt>
      <trkpt lat="45.3893" lon="4.62334">
        <ele>1224.3</ele>
        <time>2026-08-18T11:03:21.991Z</time>
      </trkpt>
      <trkpt lat="45.3893" lon="4.62333">
        <ele>1224.3</ele>
        <time>2026-08-18T11:03:23.015Z</time>
      </trkpt>
      <trkpt lat="45.3893" lon="4.62331">
        <ele>1223.7</ele>
        <time>2026-08-18T11:03:24.989Z</time>
      </trkpt>
      <trkpt lat="45.3893" lon="4.6233">
        <ele>1223.9</ele>
        <time>2026-08-18T11:03:25.989Z</time>
      </trkpt>
      <trkpt lat="45.38931" lon="4.62329">
        <ele>1223.9</ele>
        <time>2026-08-18T11:03:26.990Z</time>
      </trkpt>
      <trkpt lat="45.38931" lon="4.62328">
        <ele>1224.4</ele>
        <time>2026-08-18T11:03:28.991Z</time>
      </trkpt>
      <trkpt lat="45.38931" lon="4.62326">
        <ele>1224.1</ele>
        <time>2026-08-18T11:03:31.017Z</time>
      </trkpt>
      <trkpt lat="45.3893" lon="4.62325">
        <ele>1223.8</ele>
        <time>2026-08-18T11:03:32.991Z</time>
      </trkpt>
      <trkpt lat="45.38929" lon="4.62323">
        <ele>1223.8</ele>
        <time>2026-08-18T11:03:35.009Z</time>
      </trkpt>
      <trkpt lat="45.38929" lon="4.62321">
        <ele>1223.4</ele>
        <time>2026-08-18T11:03:36.990Z</time>
      </trkpt>
      <trkpt lat="45.38929" lon="4.62319">
        <ele>1222.6</ele>
        <time>2026-08-18T11:03:37.990Z</time>
      </trkpt>
      <trkpt lat="45.38929" lon="4.62316">
        <ele>1222.1</ele>
        <time>2026-08-18T11:03:39.899Z</time>
      </trkpt>
      <trkpt lat="45.38929" lon="4.62315">
        <ele>1221.9</ele>
        <time>2026-08-18T11:03:40.991Z</time>
      </trkpt>
      <trkpt lat="45.38928" lon="4.62313">
        <ele>1221.3</ele>
        <time>2026-08-18T11:03:42.996Z</time>
      </trkpt>
      <trkpt lat="45.38927" lon="4.6231">
        <ele>1221.3</ele>
        <time>2026-08-18T11:03:44.990Z</time>
      </trkpt>
      <trkpt lat="45.38927" lon="4.62309">
        <ele>1221</ele>
        <time>2026-08-18T11:03:45.990Z</time>
      </trkpt>
      <trkpt lat="45.38927" lon="4.62307">
        <ele>1220.5</ele>
        <time>2026-08-18T11:03:48.015Z</time>
      </trkpt>
      <trkpt lat="45.38927" lon="4.62305">
        <ele>1221.3</ele>
        <time>2026-08-18T11:03:49.990Z</time>
      </trkpt>
      <trkpt lat="45.38927" lon="4.62304">
        <ele>1221.5</ele>
        <time>2026-08-18T11:03:50.991Z</time>
      </trkpt>
      <trkpt lat="45.38928" lon="4.62303">
        <ele>1221.4</ele>
        <time>2026-08-18T11:03:52.008Z</time>
      </trkpt>
      <trkpt lat="45.38929" lon="4.62302">
        <ele>1221.6</ele>
        <time>2026-08-18T11:03:53.998Z</time>
      </trkpt>
      <trkpt lat="45.3893" lon="4.62301">
        <ele>1221.6</ele>
        <time>2026-08-18T11:03:56.001Z</time>
      </trkpt>
      <trkpt lat="45.3893" lon="4.62298">
        <ele>1221.4</ele>
        <time>2026-08-18T11:03:57.991Z</time>
      </trkpt>
      <trkpt lat="45.3893" lon="4.62297">
        <ele>1221.1</ele>
        <time>2026-08-18T11:03:58.991Z</time>
      </trkpt>
      <trkpt lat="45.38929" lon="4.62295">
        <ele>1221.3</ele>
        <time>2026-08-18T11:04:00.991Z</time>
      </trkpt>
      <trkpt lat="45.38928" lon="4.62293">
        <ele>1220.7</ele>
        <time>2026-08-18T11:04:02.991Z</time>
      </trkpt>
      <trkpt lat="45.38928" lon="4.62291">
        <ele>1220.3</ele>
        <time>2026-08-18T11:04:04.990Z</time>
      </trkpt>
      <trkpt lat="45.38928" lon="4.6229">
        <ele>1219.9</ele>
        <time>2026-08-18T11:04:05.990Z</time>
      </trkpt>
      <trkpt lat="45.38928" lon="4.62289">
        <ele>1220.1</ele>
        <time>2026-08-18T11:04:06.991Z</time>
      </trkpt>
      <trkpt lat="45.38928" lon="4.62288">
        <ele>1220.1</ele>
        <time>2026-08-18T11:04:08.001Z</time>
      </trkpt>
      <trkpt lat="45.38927" lon="4.62286">
        <ele>1219.4</ele>
        <time>2026-08-18T11:04:09.991Z</time>
      </trkpt>
      <trkpt lat="45.38927" lon="4.62284">
        <ele>1219.3</ele>
        <time>2026-08-18T11:04:11.990Z</time>
      </trkpt>
      <trkpt lat="45.38927" lon="4.62283">
        <ele>1219.7</ele>
        <time>2026-08-18T11:04:13.000Z</time>
      </trkpt>
      <trkpt lat="45.38926" lon="4.62281">
        <ele>1220</ele>
        <time>2026-08-18T11:04:14.990Z</time>
      </trkpt>
      <trkpt lat="45.38926" lon="4.6228">
        <ele>1219.4</ele>
        <time>2026-08-18T11:04:15.991Z</time>
      </trkpt>
      <trkpt lat="45.38925" lon="4.6228">
        <ele>1219.1</ele>
        <time>2026-08-18T11:04:16.993Z</time>
      </trkpt>
      <trkpt lat="45.38925" lon="4.62279">
        <ele>1219.1</ele>
        <time>2026-08-18T11:04:18.003Z</time>
      </trkpt>
      <trkpt lat="45.38925" lon="4.62278">
        <ele>1218.8</ele>
        <time>2026-08-18T11:04:19.991Z</time>
      </trkpt>
      <trkpt lat="45.38925" lon="4.62276">
        <ele>1219.1</ele>
        <time>2026-08-18T11:04:21.901Z</time>
      </trkpt>
      <trkpt lat="45.38926" lon="4.62276">
        <ele>1219.5</ele>
        <time>2026-08-18T11:04:22.991Z</time>
      </trkpt>
      <trkpt lat="45.38927" lon="4.62274">
        <ele>1219</ele>
        <time>2026-08-18T11:04:24.991Z</time>
      </trkpt>
      <trkpt lat="45.38926" lon="4.62273">
        <ele>1218.9</ele>
        <time>2026-08-18T11:04:26.005Z</time>
      </trkpt>
      <trkpt lat="45.38925" lon="4.6227">
        <ele>1218.8</ele>
        <time>2026-08-18T11:04:27.991Z</time>
      </trkpt>
      <trkpt lat="45.38925" lon="4.62267">
        <ele>1218.6</ele>
        <time>2026-08-18T11:04:29.997Z</time>
      </trkpt>
      <trkpt lat="45.38924" lon="4.62265">
        <ele>1219</ele>
        <time>2026-08-18T11:04:31.921Z</time>
      </trkpt>
      <trkpt lat="45.38924" lon="4.62264">
        <ele>1218.8</ele>
        <time>2026-08-18T11:04:32.991Z</time>
      </trkpt>
      <trkpt lat="45.38924" lon="4.62263">
        <ele>1219.3</ele>
        <time>2026-08-18T11:04:33.991Z</time>
      </trkpt>
      <trkpt lat="45.38923" lon="4.62262">
        <ele>1218.7</ele>
        <time>2026-08-18T11:04:35.018Z</time>
      </trkpt>
      <trkpt lat="45.38923" lon="4.6226">
        <ele>1218.4</ele>
        <time>2026-08-18T11:04:36.045Z</time>
      </trkpt>
      <trkpt lat="45.38922" lon="4.62259">
        <ele>1218.4</ele>
        <time>2026-08-18T11:04:37.989Z</time>
      </trkpt>
      <trkpt lat="45.38921" lon="4.62257">
        <ele>1218.3</ele>
        <time>2026-08-18T11:04:39.010Z</time>
      </trkpt>
      <trkpt lat="45.38921" lon="4.62254">
        <ele>1218.5</ele>
        <time>2026-08-18T11:04:40.990Z</time>
      </trkpt>
      <trkpt lat="45.38921" lon="4.62253">
        <ele>1218.5</ele>
        <time>2026-08-18T11:04:41.991Z</time>
      </trkpt>
      <trkpt lat="45.3892" lon="4.6225">
        <ele>1218.7</ele>
        <time>2026-08-18T11:04:43.990Z</time>
      </trkpt>
      <trkpt lat="45.3892" lon="4.62249">
        <ele>1218.4</ele>
        <time>2026-08-18T11:04:44.991Z</time>
      </trkpt>
      <trkpt lat="45.3892" lon="4.62248">
        <ele>1218.1</ele>
        <time>2026-08-18T11:04:45.991Z</time>
      </trkpt>
      <trkpt lat="45.3892" lon="4.62247">
        <ele>1218.2</ele>
        <time>2026-08-18T11:04:46.996Z</time>
      </trkpt>
      <trkpt lat="45.38919" lon="4.62245">
        <ele>1218.4</ele>
        <time>2026-08-18T11:04:48.989Z</time>
      </trkpt>
      <trkpt lat="45.38918" lon="4.62244">
        <ele>1218.4</ele>
        <time>2026-08-18T11:04:50.023Z</time>
      </trkpt>
      <trkpt lat="45.38916" lon="4.62242">
        <ele>1218</ele>
        <time>2026-08-18T11:04:51.991Z</time>
      </trkpt>
      <trkpt lat="45.38915" lon="4.62239">
        <ele>1217.6</ele>
        <time>2026-08-18T11:04:53.990Z</time>
      </trkpt>
      <trkpt lat="45.38915" lon="4.62238">
        <ele>1217.7</ele>
        <time>2026-08-18T11:04:54.990Z</time>
      </trkpt>
      <trkpt lat="45.38915" lon="4.62237">
        <ele>1217.4</ele>
        <time>2026-08-18T11:04:56.009Z</time>
      </trkpt>
      <trkpt lat="45.38915" lon="4.62234">
        <ele>1217.2</ele>
        <time>2026-08-18T11:04:57.991Z</time>
      </trkpt>
      <trkpt lat="45.38915" lon="4.62232">
        <ele>1217.3</ele>
        <time>2026-08-18T11:05:00.002Z</time>
      </trkpt>
      <trkpt lat="45.38916" lon="4.62231">
        <ele>1217</ele>
        <time>2026-08-18T11:05:02.021Z</time>
      </trkpt>
      <trkpt lat="45.38918" lon="4.6223">
        <ele>1217.6</ele>
        <time>2026-08-18T11:05:03.996Z</time>
      </trkpt>
      <trkpt lat="45.38918" lon="4.62229">
        <ele>1217.8</ele>
        <time>2026-08-18T11:05:05.022Z</time>
      </trkpt>
      <trkpt lat="45.38918" lon="4.62227">
        <ele>1217.4</ele>
        <time>2026-08-18T11:05:06.991Z</time>
      </trkpt>
      <trkpt lat="45.38917" lon="4.62224">
        <ele>1217.7</ele>
        <time>2026-08-18T11:05:09.016Z</time>
      </trkpt>
      <trkpt lat="45.38916" lon="4.62221">
        <ele>1217.8</ele>
        <time>2026-08-18T11:05:10.991Z</time>
      </trkpt>
      <trkpt lat="45.38916" lon="4.62218">
        <ele>1217.7</ele>
        <time>2026-08-18T11:05:13.009Z</time>
      </trkpt>
      <trkpt lat="45.38916" lon="4.62216">
        <ele>1217.7</ele>
        <time>2026-08-18T11:05:14.037Z</time>
      </trkpt>
      <trkpt lat="45.38916" lon="4.62213">
        <ele>1217.2</ele>
        <time>2026-08-18T11:05:15.991Z</time>
      </trkpt>
      <trkpt lat="45.38917" lon="4.62212">
        <ele>1217.2</ele>
        <time>2026-08-18T11:05:17.023Z</time>
      </trkpt>
      <trkpt lat="45.38918" lon="4.62209">
        <ele>1217.4</ele>
        <time>2026-08-18T11:05:18.991Z</time>
      </trkpt>
      <trkpt lat="45.38919" lon="4.62206">
        <ele>1217.8</ele>
        <time>2026-08-18T11:05:20.994Z</time>
      </trkpt>
      <trkpt lat="45.3892" lon="4.62204">
        <ele>1217.2</ele>
        <time>2026-08-18T11:05:22.990Z</time>
      </trkpt>
      <trkpt lat="45.38921" lon="4.62203">
        <ele>1217.2</ele>
        <time>2026-08-18T11:05:24.002Z</time>
      </trkpt>
      <trkpt lat="45.38921" lon="4.622">
        <ele>1218.1</ele>
        <time>2026-08-18T11:05:26.014Z</time>
      </trkpt>
      <trkpt lat="45.38921" lon="4.62199">
        <ele>1218.1</ele>
        <time>2026-08-18T11:05:27.015Z</time>
      </trkpt>
      <trkpt lat="45.3892" lon="4.62197">
        <ele>1217.7</ele>
        <time>2026-08-18T11:05:28.991Z</time>
      </trkpt>
      <trkpt lat="45.38919" lon="4.62196">
        <ele>1217.4</ele>
        <time>2026-08-18T11:05:30.007Z</time>
      </trkpt>
      <trkpt lat="45.38918" lon="4.62194">
        <ele>1216.9</ele>
        <time>2026-08-18T11:05:31.991Z</time>
      </trkpt>
      <trkpt lat="45.38918" lon="4.62193">
        <ele>1216.9</ele>
        <time>2026-08-18T11:05:33.015Z</time>
      </trkpt>
      <trkpt lat="45.38918" lon="4.62191">
        <ele>1216.6</ele>
        <time>2026-08-18T11:05:35.027Z</time>
      </trkpt>
      <trkpt lat="45.38917" lon="4.62189">
        <ele>1217</ele>
        <time>2026-08-18T11:05:36.991Z</time>
      </trkpt>
      <trkpt lat="45.38916" lon="4.62188">
        <ele>1219</ele>
        <time>2026-08-18T11:05:37.994Z</time>
      </trkpt>
      <trkpt lat="45.38916" lon="4.62186">
        <ele>1220.8</ele>
        <time>2026-08-18T11:05:39.990Z</time>
      </trkpt>
      <trkpt lat="45.38916" lon="4.62185">
        <ele>1220.9</ele>
        <time>2026-08-18T11:05:40.991Z</time>
      </trkpt>
      <trkpt lat="45.38917" lon="4.62183">
        <ele>1221</ele>
        <time>2026-08-18T11:05:42.991Z</time>
      </trkpt>
      <trkpt lat="45.38918" lon="4.62181">
        <ele>1221.5</ele>
        <time>2026-08-18T11:05:44.990Z</time>
      </trkpt>
      <trkpt lat="45.38918" lon="4.62179">
        <ele>1221.9</ele>
        <time>2026-08-18T11:05:45.990Z</time>
      </trkpt>
      <trkpt lat="45.38918" lon="4.62178">
        <ele>1221.9</ele>
        <time>2026-08-18T11:05:47.019Z</time>
      </trkpt>
      <trkpt lat="45.38916" lon="4.62176">
        <ele>1222.3</ele>
        <time>2026-08-18T11:05:48.991Z</time>
      </trkpt>
      <trkpt lat="45.38916" lon="4.62175">
        <ele>1222.4</ele>
        <time>2026-08-18T11:05:50.897Z</time>
      </trkpt>
      <trkpt lat="45.38915" lon="4.62175">
        <ele>1222.4</ele>
        <time>2026-08-18T11:05:51.990Z</time>
      </trkpt>
      <trkpt lat="45.38915" lon="4.62175">
        <ele>1222.4</ele>
        <time>2026-08-18T11:05:52.991Z</time>
      </trkpt>
      <trkpt lat="45.38914" lon="4.62175">
        <ele>1223</ele>
        <time>2026-08-18T11:05:54.993Z</time>
      </trkpt>
      <trkpt lat="45.38915" lon="4.62175">
        <ele>1223</ele>
        <time>2026-08-18T11:05:56.990Z</time>
      </trkpt>
      <trkpt lat="45.38915" lon="4.62175">
        <ele>1223</ele>
        <time>2026-08-18T11:05:57.990Z</time>
      </trkpt>
      <trkpt lat="45.38915" lon="4.62175">
        <ele>1223.4</ele>
        <time>2026-08-18T11:05:58.991Z</time>
      </trkpt>
      <trkpt lat="45.38914" lon="4.62175">
        <ele>1222.9</ele>
        <time>2026-08-18T11:05:59.991Z</time>
      </trkpt>
      <trkpt lat="45.38913" lon="4.62174">
        <ele>1222.9</ele>
        <time>2026-08-18T11:06:01.991Z</time>
      </trkpt>
      <trkpt lat="45.38912" lon="4.62173">
        <ele>1222.1</ele>
        <time>2026-08-18T11:06:03.922Z</time>
      </trkpt>
      <trkpt lat="45.3891" lon="4.62173">
        <ele>1221.7</ele>
        <time>2026-08-18T11:06:04.991Z</time>
      </trkpt>
      <trkpt lat="45.38907" lon="4.62171">
        <ele>1220.8</ele>
        <time>2026-08-18T11:06:06.990Z</time>
      </trkpt>
      <trkpt lat="45.38906" lon="4.6217">
        <ele>1221</ele>
        <time>2026-08-18T11:06:07.999Z</time>
      </trkpt>
      <trkpt lat="45.38906" lon="4.62168">
        <ele>1220.2</ele>
        <time>2026-08-18T11:06:09.026Z</time>
      </trkpt>
      <trkpt lat="45.38906" lon="4.62163">
        <ele>1220.6</ele>
        <time>2026-08-18T11:06:10.976Z</time>
      </trkpt>
      <trkpt lat="45.38906" lon="4.62161">
        <ele>1221.1</ele>
        <time>2026-08-18T11:06:11.992Z</time>
      </trkpt>
      <trkpt lat="45.38907" lon="4.62159">
        <ele>1221.4</ele>
        <time>2026-08-18T11:06:13.990Z</time>
      </trkpt>
      <trkpt lat="45.38907" lon="4.62158">
        <ele>1221.6</ele>
        <time>2026-08-18T11:06:15.991Z</time>
      </trkpt>
      <trkpt lat="45.38907" lon="4.62157">
        <ele>1221.1</ele>
        <time>2026-08-18T11:06:17.011Z</time>
      </trkpt>
      <trkpt lat="45.38907" lon="4.62157">
        <ele>1222.1</ele>
        <time>2026-08-18T11:06:18.991Z</time>
      </trkpt>
      <trkpt lat="45.38908" lon="4.62157">
        <ele>1222.3</ele>
        <time>2026-08-18T11:06:21.005Z</time>
      </trkpt>
      <trkpt lat="45.3891" lon="4.62156">
        <ele>1222.4</ele>
        <time>2026-08-18T11:06:22.991Z</time>
      </trkpt>
      <trkpt lat="45.3891" lon="4.62155">
        <ele>1223.3</ele>
        <time>2026-08-18T11:06:24.998Z</time>
      </trkpt>
      <trkpt lat="45.38911" lon="4.62154">
        <ele>1223.4</ele>
        <time>2026-08-18T11:06:26.025Z</time>
      </trkpt>
      <trkpt lat="45.38911" lon="4.62153">
        <ele>1222.4</ele>
        <time>2026-08-18T11:06:27.938Z</time>
      </trkpt>
      <trkpt lat="45.38911" lon="4.62152">
        <ele>1222.4</ele>
        <time>2026-08-18T11:06:28.990Z</time>
      </trkpt>
      <trkpt lat="45.38911" lon="4.62152">
        <ele>1223.1</ele>
        <time>2026-08-18T11:06:30.017Z</time>
      </trkpt>
      <trkpt lat="45.38913" lon="4.62153">
        <ele>1223.9</ele>
        <time>2026-08-18T11:06:31.991Z</time>
      </trkpt>
      <trkpt lat="45.38913" lon="4.62154">
        <ele>1224.2</ele>
        <time>2026-08-18T11:06:32.991Z</time>
      </trkpt>
      <trkpt lat="45.38913" lon="4.62154">
        <ele>1224.2</ele>
        <time>2026-08-18T11:06:34.011Z</time>
      </trkpt>
      <trkpt lat="45.38913" lon="4.62155">
        <ele>1224.2</ele>
        <time>2026-08-18T11:06:35.991Z</time>
      </trkpt>
      <trkpt lat="45.38913" lon="4.62155">
        <ele>1224.2</ele>
        <time>2026-08-18T11:06:36.991Z</time>
      </trkpt>
      <trkpt lat="45.38913" lon="4.62155">
        <ele>1224.2</ele>
        <time>2026-08-18T11:06:38.003Z</time>
      </trkpt>
      <trkpt lat="45.38913" lon="4.62155">
        <ele>1223.9</ele>
        <time>2026-08-18T11:06:39.990Z</time>
      </trkpt>
      <trkpt lat="45.38913" lon="4.62155">
        <ele>1223.9</ele>
        <time>2026-08-18T11:06:40.990Z</time>
      </trkpt>
      <trkpt lat="45.38913" lon="4.62155">
        <ele>1224.1</ele>
        <time>2026-08-18T11:06:41.997Z</time>
      </trkpt>
      <trkpt lat="45.38914" lon="4.62153">
        <ele>1224.8</ele>
        <time>2026-08-18T11:06:43.990Z</time>
      </trkpt>
      <trkpt lat="45.38914" lon="4.62152">
        <ele>1224.9</ele>
        <time>2026-08-18T11:06:44.990Z</time>
      </trkpt>
      <trkpt lat="45.38914" lon="4.62151">
        <ele>1224.6</ele>
        <time>2026-08-18T11:06:45.991Z</time>
      </trkpt>
      <trkpt lat="45.38914" lon="4.6215">
        <ele>1224.6</ele>
        <time>2026-08-18T11:06:47.017Z</time>
      </trkpt>
      <trkpt lat="45.38913" lon="4.62149">
        <ele>1224.1</ele>
        <time>2026-08-18T11:06:48.991Z</time>
      </trkpt>
      <trkpt lat="45.38913" lon="4.62149">
        <ele>1224</ele>
        <time>2026-08-18T11:06:49.991Z</time>
      </trkpt>
      <trkpt lat="45.38912" lon="4.62148">
        <ele>1223.6</ele>
        <time>2026-08-18T11:06:51.009Z</time>
      </trkpt>
      <trkpt lat="45.38912" lon="4.62147">
        <ele>1224.5</ele>
        <time>2026-08-18T11:06:52.895Z</time>
      </trkpt>
      <trkpt lat="45.38912" lon="4.62146">
        <ele>1224.8</ele>
        <time>2026-08-18T11:06:54.739Z</time>
      </trkpt>
      <trkpt lat="45.38911" lon="4.62146">
        <ele>1224.7</ele>
        <time>2026-08-18T11:06:55.991Z</time>
      </trkpt>
      <trkpt lat="45.38911" lon="4.62146">
        <ele>1224.9</ele>
        <time>2026-08-18T11:06:56.991Z</time>
      </trkpt>
      <trkpt lat="45.38911" lon="4.62145">
        <ele>1225.1</ele>
        <time>2026-08-18T11:06:57.991Z</time>
      </trkpt>
      <trkpt lat="45.38912" lon="4.62144">
        <ele>1224.8</ele>
        <time>2026-08-18T11:06:58.997Z</time>
      </trkpt>
      <trkpt lat="45.38911" lon="4.62144">
        <ele>1225</ele>
        <time>2026-08-18T11:07:00.023Z</time>
      </trkpt>
      <trkpt lat="45.3891" lon="4.62143">
        <ele>1225.2</ele>
        <time>2026-08-18T11:07:01.991Z</time>
      </trkpt>
      <trkpt lat="45.3891" lon="4.62142">
        <ele>1224.9</ele>
        <time>2026-08-18T11:07:02.991Z</time>
      </trkpt>
      <trkpt lat="45.38909" lon="4.62142">
        <ele>1225.1</ele>
        <time>2026-08-18T11:07:04.017Z</time>
      </trkpt>
      <trkpt lat="45.38908" lon="4.62142">
        <ele>1225.6</ele>
        <time>2026-08-18T11:07:05.993Z</time>
      </trkpt>
      <trkpt lat="45.38907" lon="4.62142">
        <ele>1225.6</ele>
        <time>2026-08-18T11:07:08.009Z</time>
      </trkpt>
      <trkpt lat="45.38906" lon="4.62141">
        <ele>1226.2</ele>
        <time>2026-08-18T11:07:09.990Z</time>
      </trkpt>
      <trkpt lat="45.38905" lon="4.6214">
        <ele>1226.6</ele>
        <time>2026-08-18T11:07:10.990Z</time>
      </trkpt>
      <trkpt lat="45.38905" lon="4.62139">
        <ele>1226.1</ele>
        <time>2026-08-18T11:07:12.003Z</time>
      </trkpt>
      <trkpt lat="45.38904" lon="4.62139">
        <ele>1226.5</ele>
        <time>2026-08-18T11:07:13.030Z</time>
      </trkpt>
      <trkpt lat="45.38903" lon="4.62138">
        <ele>1226.6</ele>
        <time>2026-08-18T11:07:14.991Z</time>
      </trkpt>
      <trkpt lat="45.38903" lon="4.62137">
        <ele>1227.2</ele>
        <time>2026-08-18T11:07:15.995Z</time>
      </trkpt>
      <trkpt lat="45.38902" lon="4.62136">
        <ele>1227.2</ele>
        <time>2026-08-18T11:07:17.034Z</time>
      </trkpt>
      <trkpt lat="45.38902" lon="4.62135">
        <ele>1228.4</ele>
        <time>2026-08-18T11:07:18.991Z</time>
      </trkpt>
      <trkpt lat="45.38901" lon="4.62134">
        <ele>1228.7</ele>
        <time>2026-08-18T11:07:19.991Z</time>
      </trkpt>
      <trkpt lat="45.38901" lon="4.62133">
        <ele>1228.7</ele>
        <time>2026-08-18T11:07:21.015Z</time>
      </trkpt>
      <trkpt lat="45.38899" lon="4.62132">
        <ele>1228.2</ele>
        <time>2026-08-18T11:07:22.990Z</time>
      </trkpt>
      <trkpt lat="45.38899" lon="4.62131">
        <ele>1228.6</ele>
        <time>2026-08-18T11:07:23.990Z</time>
      </trkpt>
      <trkpt lat="45.38899" lon="4.6213">
        <ele>1228.6</ele>
        <time>2026-08-18T11:07:25.009Z</time>
      </trkpt>
      <trkpt lat="45.38898" lon="4.62128">
        <ele>1228.3</ele>
        <time>2026-08-18T11:07:26.991Z</time>
      </trkpt>
      <trkpt lat="45.38898" lon="4.62127">
        <ele>1228.5</ele>
        <time>2026-08-18T11:07:28.900Z</time>
      </trkpt>
      <trkpt lat="45.38898" lon="4.62126">
        <ele>1229.1</ele>
        <time>2026-08-18T11:07:29.991Z</time>
      </trkpt>
      <trkpt lat="45.38898" lon="4.62126">
        <ele>1228.7</ele>
        <time>2026-08-18T11:07:30.991Z</time>
      </trkpt>
      <trkpt lat="45.38898" lon="4.62125">
        <ele>1228.7</ele>
        <time>2026-08-18T11:07:32.018Z</time>
      </trkpt>
      <trkpt lat="45.38898" lon="4.62124">
        <ele>1228.4</ele>
        <time>2026-08-18T11:07:34.022Z</time>
      </trkpt>
      <trkpt lat="45.38898" lon="4.62121">
        <ele>1228.7</ele>
        <time>2026-08-18T11:07:35.990Z</time>
      </trkpt>
      <trkpt lat="45.38899" lon="4.6212">
        <ele>1228.8</ele>
        <time>2026-08-18T11:07:38.014Z</time>
      </trkpt>
      <trkpt lat="45.38899" lon="4.6212">
        <ele>1228.8</ele>
        <time>2026-08-18T11:07:39.989Z</time>
      </trkpt>
      <trkpt lat="45.38898" lon="4.6212">
        <ele>1228.8</ele>
        <time>2026-08-18T11:07:40.989Z</time>
      </trkpt>
      <trkpt lat="45.38898" lon="4.6212">
        <ele>1228.8</ele>
        <time>2026-08-18T11:07:42.007Z</time>
      </trkpt>
      <trkpt lat="45.38899" lon="4.6212">
        <ele>1228.8</ele>
        <time>2026-08-18T11:07:43.018Z</time>
      </trkpt>
      <trkpt lat="45.38899" lon="4.6212">
        <ele>1229</ele>
        <time>2026-08-18T11:07:44.989Z</time>
      </trkpt>
      <trkpt lat="45.38899" lon="4.6212">
        <ele>1229</ele>
        <time>2026-08-18T11:07:45.990Z</time>
      </trkpt>
      <trkpt lat="45.38899" lon="4.6212">
        <ele>1229</ele>
        <time>2026-08-18T11:07:47.989Z</time>
      </trkpt>
      <trkpt lat="45.38898" lon="4.6212">
        <ele>1229</ele>
        <time>2026-08-18T11:07:48.990Z</time>
      </trkpt>
      <trkpt lat="45.38899" lon="4.6212">
        <ele>1229</ele>
        <time>2026-08-18T11:07:49.993Z</time>
      </trkpt>
      <trkpt lat="45.38898" lon="4.6212">
        <ele>1229</ele>
        <time>2026-08-18T11:07:51.990Z</time>
      </trkpt>
      <trkpt lat="45.38898" lon="4.6212">
        <ele>1229</ele>
        <time>2026-08-18T11:07:52.990Z</time>
      </trkpt>
      <trkpt lat="45.38898" lon="4.6212">
        <ele>1229</ele>
        <time>2026-08-18T11:07:53.990Z</time>
      </trkpt>
      <trkpt lat="45.38898" lon="4.6212">
        <ele>1229</ele>
        <time>2026-08-18T11:07:54.990Z</time>
      </trkpt>
      <trkpt lat="45.38898" lon="4.6212">
        <ele>1229</ele>
        <time>2026-08-18T11:07:55.990Z</time>
      </trkpt>
      <trkpt lat="45.38899" lon="4.6212">
        <ele>1229</ele>
        <time>2026-08-18T11:07:57.990Z</time>
      </trkpt>
      <trkpt lat="45.38899" lon="4.6212">
        <ele>1229</ele>
        <time>2026-08-18T11:07:58.990Z</time>
      </trkpt>
      <trkpt lat="45.38899" lon="4.6212">
        <ele>1229</ele>
        <time>2026-08-18T11:07:59.990Z</time>
      </trkpt>
      <trkpt lat="45.38899" lon="4.6212">
        <ele>1229</ele>
        <time>2026-08-18T11:08:00.990Z</time>
      </trkpt>
      <trkpt lat="45.38899" lon="4.6212">
        <ele>1229</ele>
        <time>2026-08-18T11:08:02.989Z</time>
      </trkpt>
      <trkpt lat="45.38899" lon="4.6212">
        <ele>1229</ele>
        <time>2026-08-18T11:08:03.990Z</time>
      </trkpt>
      <trkpt lat="45.38898" lon="4.6212">
        <ele>1229</ele>
        <time>2026-08-18T11:08:05.989Z</time>
      </trkpt>
      <trkpt lat="45.38898" lon="4.6212">
        <ele>1229</ele>
        <time>2026-08-18T11:08:06.994Z</time>
      </trkpt>
      <trkpt lat="45.38898" lon="4.6212">
        <ele>1229</ele>
        <time>2026-08-18T11:08:08.990Z</time>
      </trkpt>
      <trkpt lat="45.38898" lon="4.6212">
        <ele>1229.3</ele>
        <time>2026-08-18T11:08:10.989Z</time>
      </trkpt>
      <trkpt lat="45.38898" lon="4.62119">
        <ele>1229.9</ele>
        <time>2026-08-18T11:08:11.990Z</time>
      </trkpt>
      <trkpt lat="45.38898" lon="4.62118">
        <ele>1229.8</ele>
        <time>2026-08-18T11:08:12.990Z</time>
      </trkpt>
      <trkpt lat="45.38898" lon="4.62116">
        <ele>1231.2</ele>
        <time>2026-08-18T11:08:14.990Z</time>
      </trkpt>
      <trkpt lat="45.38898" lon="4.62114">
        <ele>1231.2</ele>
        <time>2026-08-18T11:08:15.990Z</time>
      </trkpt>
      <trkpt lat="45.38899" lon="4.62113">
        <ele>1231.1</ele>
        <time>2026-08-18T11:08:16.990Z</time>
      </trkpt>
      <trkpt lat="45.38898" lon="4.62111">
        <ele>1231.7</ele>
        <time>2026-08-18T11:08:18.988Z</time>
      </trkpt>
      <trkpt lat="45.38898" lon="4.6211">
        <ele>1231.5</ele>
        <time>2026-08-18T11:08:19.990Z</time>
      </trkpt>
      <trkpt lat="45.38898" lon="4.62109">
        <ele>1231.9</ele>
        <time>2026-08-18T11:08:20.990Z</time>
      </trkpt>
      <trkpt lat="45.38898" lon="4.62108">
        <ele>1231.1</ele>
        <time>2026-08-18T11:08:21.990Z</time>
      </trkpt>
      <trkpt lat="45.38898" lon="4.62107">
        <ele>1233.4</ele>
        <time>2026-08-18T11:08:23.990Z</time>
      </trkpt>
      <trkpt lat="45.38898" lon="4.62107">
        <ele>1232.8</ele>
        <time>2026-08-18T11:08:25.990Z</time>
      </trkpt>
      <trkpt lat="45.38898" lon="4.62107">
        <ele>1233.5</ele>
        <time>2026-08-18T11:08:26.990Z</time>
      </trkpt>
      <trkpt lat="45.38898" lon="4.62106">
        <ele>1233.3</ele>
        <time>2026-08-18T11:08:27.990Z</time>
      </trkpt>
      <trkpt lat="45.38898" lon="4.62106">
        <ele>1233</ele>
        <time>2026-08-18T11:08:28.990Z</time>
      </trkpt>
      <trkpt lat="45.38899" lon="4.62105">
        <ele>1233.3</ele>
        <time>2026-08-18T11:08:29.990Z</time>
      </trkpt>
      <trkpt lat="45.38899" lon="4.62104">
        <ele>1232.5</ele>
        <time>2026-08-18T11:08:31.989Z</time>
      </trkpt>
      <trkpt lat="45.38899" lon="4.62102">
        <ele>1232.7</ele>
        <time>2026-08-18T11:08:33.990Z</time>
      </trkpt>
      <trkpt lat="45.38899" lon="4.62101">
        <ele>1232.1</ele>
        <time>2026-08-18T11:08:34.990Z</time>
      </trkpt>
      <trkpt lat="45.38899" lon="4.621">
        <ele>1233.2</ele>
        <time>2026-08-18T11:08:36.990Z</time>
      </trkpt>
      <trkpt lat="45.38899" lon="4.62097">
        <ele>1232.9</ele>
        <time>2026-08-18T11:08:38.989Z</time>
      </trkpt>
      <trkpt lat="45.38899" lon="4.62096">
        <ele>1233.2</ele>
        <time>2026-08-18T11:08:39.989Z</time>
      </trkpt>
      <trkpt lat="45.38898" lon="4.62094">
        <ele>1232.6</ele>
        <time>2026-08-18T11:08:41.989Z</time>
      </trkpt>
      <trkpt lat="45.38897" lon="4.62093">
        <ele>1232.7</ele>
        <time>2026-08-18T11:08:42.990Z</time>
      </trkpt>
      <trkpt lat="45.38896" lon="4.62091">
        <ele>1234.7</ele>
        <time>2026-08-18T11:08:44.989Z</time>
      </trkpt>
      <trkpt lat="45.38896" lon="4.6209">
        <ele>1234.3</ele>
        <time>2026-08-18T11:08:45.990Z</time>
      </trkpt>
      <trkpt lat="45.38897" lon="4.62089">
        <ele>1234.9</ele>
        <time>2026-08-18T11:08:47.990Z</time>
      </trkpt>
      <trkpt lat="45.38897" lon="4.62088">
        <ele>1235.1</ele>
        <time>2026-08-18T11:08:49.990Z</time>
      </trkpt>
      <trkpt lat="45.38898" lon="4.62086">
        <ele>1234.9</ele>
        <time>2026-08-18T11:08:51.990Z</time>
      </trkpt>
      <trkpt lat="45.38898" lon="4.62085">
        <ele>1235.2</ele>
        <time>2026-08-18T11:08:52.990Z</time>
      </trkpt>
      <trkpt lat="45.38898" lon="4.62084">
        <ele>1236.1</ele>
        <time>2026-08-18T11:08:53.990Z</time>
      </trkpt>
      <trkpt lat="45.38898" lon="4.62083">
        <ele>1236.3</ele>
        <time>2026-08-18T11:08:54.990Z</time>
      </trkpt>
      <trkpt lat="45.38898" lon="4.62082">
        <ele>1236.8</ele>
        <time>2026-08-18T11:08:55.990Z</time>
      </trkpt>
      <trkpt lat="45.38896" lon="4.62079">
        <ele>1236.9</ele>
        <time>2026-08-18T11:08:57.990Z</time>
      </trkpt>
      <trkpt lat="45.38895" lon="4.62079">
        <ele>1236.8</ele>
        <time>2026-08-18T11:08:59.989Z</time>
      </trkpt>
      <trkpt lat="45.38894" lon="4.62078">
        <ele>1237.2</ele>
        <time>2026-08-18T11:09:00.989Z</time>
      </trkpt>
      <trkpt lat="45.38894" lon="4.62076">
        <ele>1237.3</ele>
        <time>2026-08-18T11:09:01.989Z</time>
      </trkpt>
      <trkpt lat="45.38894" lon="4.62075">
        <ele>1237.7</ele>
        <time>2026-08-18T11:09:02.990Z</time>
      </trkpt>
      <trkpt lat="45.38895" lon="4.62074">
        <ele>1237.7</ele>
        <time>2026-08-18T11:09:03.997Z</time>
      </trkpt>
      <trkpt lat="45.38895" lon="4.62072">
        <ele>1237.6</ele>
        <time>2026-08-18T11:09:05.898Z</time>
      </trkpt>
      <trkpt lat="45.38896" lon="4.6207">
        <ele>1238.1</ele>
        <time>2026-08-18T11:09:07.989Z</time>
      </trkpt>
      <trkpt lat="45.38896" lon="4.62069">
        <ele>1238.2</ele>
        <time>2026-08-18T11:09:08.990Z</time>
      </trkpt>
      <trkpt lat="45.38897" lon="4.62067">
        <ele>1237.5</ele>
        <time>2026-08-18T11:09:10.957Z</time>
      </trkpt>
      <trkpt lat="45.38898" lon="4.62065">
        <ele>1239</ele>
        <time>2026-08-18T11:09:12.782Z</time>
      </trkpt>
      <trkpt lat="45.38898" lon="4.62064">
        <ele>1239.4</ele>
        <time>2026-08-18T11:09:13.838Z</time>
      </trkpt>
      <trkpt lat="45.38898" lon="4.62064">
        <ele>1239.7</ele>
        <time>2026-08-18T11:09:14.990Z</time>
      </trkpt>
      <trkpt lat="45.38897" lon="4.62062">
        <ele>1239.6</ele>
        <time>2026-08-18T11:09:16.989Z</time>
      </trkpt>
      <trkpt lat="45.38898" lon="4.62061">
        <ele>1239.2</ele>
        <time>2026-08-18T11:09:17.989Z</time>
      </trkpt>
      <trkpt lat="45.38898" lon="4.6206">
        <ele>1239.1</ele>
        <time>2026-08-18T11:09:18.990Z</time>
      </trkpt>
      <trkpt lat="45.38899" lon="4.6206">
        <ele>1239.1</ele>
        <time>2026-08-18T11:09:19.990Z</time>
      </trkpt>
      <trkpt lat="45.38899" lon="4.62061">
        <ele>1239.1</ele>
        <time>2026-08-18T11:09:20.990Z</time>
      </trkpt>
      <trkpt lat="45.38899" lon="4.62061">
        <ele>1239.3</ele>
        <time>2026-08-18T11:09:22.990Z</time>
      </trkpt>
      <trkpt lat="45.38899" lon="4.62061">
        <ele>1239.4</ele>
        <time>2026-08-18T11:09:24.990Z</time>
      </trkpt>
      <trkpt lat="45.38899" lon="4.62061">
        <ele>1239.9</ele>
        <time>2026-08-18T11:09:25.990Z</time>
      </trkpt>
      <trkpt lat="45.38899" lon="4.6206">
        <ele>1239.9</ele>
        <time>2026-08-18T11:09:26.990Z</time>
      </trkpt>
      <trkpt lat="45.38899" lon="4.6206">
        <ele>1239.9</ele>
        <time>2026-08-18T11:09:28.990Z</time>
      </trkpt>
      <trkpt lat="45.38899" lon="4.6206">
        <ele>1239.9</ele>
        <time>2026-08-18T11:09:29.990Z</time>
      </trkpt>
      <trkpt lat="45.38899" lon="4.6206">
        <ele>1239.9</ele>
        <time>2026-08-18T11:09:31.990Z</time>
      </trkpt>
      <trkpt lat="45.38899" lon="4.6206">
        <ele>1239.9</ele>
        <time>2026-08-18T11:09:33.990Z</time>
      </trkpt>
      <trkpt lat="45.38899" lon="4.6206">
        <ele>1239.9</ele>
        <time>2026-08-18T11:09:35.989Z</time>
      </trkpt>
      <trkpt lat="45.38899" lon="4.6206">
        <ele>1239.7</ele>
        <time>2026-08-18T11:09:36.990Z</time>
      </trkpt>
      <trkpt lat="45.38898" lon="4.62059">
        <ele>1239.6</ele>
        <time>2026-08-18T11:09:38.998Z</time>
      </trkpt>
      <trkpt lat="45.38897" lon="4.62058">
        <ele>1240.2</ele>
        <time>2026-08-18T11:09:40.989Z</time>
      </trkpt>
      <trkpt lat="45.38896" lon="4.62057">
        <ele>1240.1</ele>
        <time>2026-08-18T11:09:41.989Z</time>
      </trkpt>
      <trkpt lat="45.38896" lon="4.62056">
        <ele>1240.1</ele>
        <time>2026-08-18T11:09:43.000Z</time>
      </trkpt>
      <trkpt lat="45.38894" lon="4.62054">
        <ele>1239.9</ele>
        <time>2026-08-18T11:09:44.989Z</time>
      </trkpt>
      <trkpt lat="45.38894" lon="4.62053">
        <ele>1240.4</ele>
        <time>2026-08-18T11:09:45.989Z</time>
      </trkpt>
      <trkpt lat="45.38894" lon="4.62052">
        <ele>1240.5</ele>
        <time>2026-08-18T11:09:46.989Z</time>
      </trkpt>
      <trkpt lat="45.38894" lon="4.62052">
        <ele>1240.5</ele>
        <time>2026-08-18T11:09:47.990Z</time>
      </trkpt>
      <trkpt lat="45.38894" lon="4.62053">
        <ele>1241.9</ele>
        <time>2026-08-18T11:09:48.999Z</time>
      </trkpt>
      <trkpt lat="45.38893" lon="4.62053">
        <ele>1241.6</ele>
        <time>2026-08-18T11:09:50.990Z</time>
      </trkpt>
      <trkpt lat="45.38893" lon="4.62052">
        <ele>1241.6</ele>
        <time>2026-08-18T11:09:52.015Z</time>
      </trkpt>
      <trkpt lat="45.38892" lon="4.62049">
        <ele>1242</ele>
        <time>2026-08-18T11:09:53.990Z</time>
      </trkpt>
      <trkpt lat="45.38891" lon="4.62048">
        <ele>1241.9</ele>
        <time>2026-08-18T11:09:54.990Z</time>
      </trkpt>
      <trkpt lat="45.3889" lon="4.62045">
        <ele>1241.6</ele>
        <time>2026-08-18T11:09:56.990Z</time>
      </trkpt>
      <trkpt lat="45.3889" lon="4.62044">
        <ele>1241.9</ele>
        <time>2026-08-18T11:09:57.990Z</time>
      </trkpt>
      <trkpt lat="45.3889" lon="4.62042">
        <ele>1241.5</ele>
        <time>2026-08-18T11:09:59.990Z</time>
      </trkpt>
      <trkpt lat="45.38891" lon="4.62041">
        <ele>1241.7</ele>
        <time>2026-08-18T11:10:01.989Z</time>
      </trkpt>
      <trkpt lat="45.38891" lon="4.62041">
        <ele>1241.7</ele>
        <time>2026-08-18T11:10:02.990Z</time>
      </trkpt>
      <trkpt lat="45.38891" lon="4.62042">
        <ele>1241.7</ele>
        <time>2026-08-18T11:10:04.989Z</time>
      </trkpt>
      <trkpt lat="45.38891" lon="4.62042">
        <ele>1241.7</ele>
        <time>2026-08-18T11:10:06.000Z</time>
      </trkpt>
      <trkpt lat="45.38891" lon="4.62042">
        <ele>1241.7</ele>
        <time>2026-08-18T11:10:07.990Z</time>
      </trkpt>
      <trkpt lat="45.38891" lon="4.62042">
        <ele>1241.7</ele>
        <time>2026-08-18T11:10:08.990Z</time>
      </trkpt>
      <trkpt lat="45.38891" lon="4.62042">
        <ele>1241.7</ele>
        <time>2026-08-18T11:10:10.989Z</time>
      </trkpt>
      <trkpt lat="45.38891" lon="4.62042">
        <ele>1241.7</ele>
        <time>2026-08-18T11:10:11.989Z</time>
      </trkpt>
      <trkpt lat="45.38891" lon="4.62042">
        <ele>1241.7</ele>
        <time>2026-08-18T11:10:12.989Z</time>
      </trkpt>
      <trkpt lat="45.38891" lon="4.62042">
        <ele>1241.7</ele>
        <time>2026-08-18T11:10:13.990Z</time>
      </trkpt>
      <trkpt lat="45.38891" lon="4.62042">
        <ele>1241.7</ele>
        <time>2026-08-18T11:10:14.990Z</time>
      </trkpt>
      <trkpt lat="45.38891" lon="4.62042">
        <ele>1241.7</ele>
        <time>2026-08-18T11:10:15.990Z</time>
      </trkpt>
      <trkpt lat="45.38891" lon="4.62042">
        <ele>1241.7</ele>
        <time>2026-08-18T11:10:16.990Z</time>
      </trkpt>
      <trkpt lat="45.38891" lon="4.62042">
        <ele>1241.6</ele>
        <time>2026-08-18T11:10:17.990Z</time>
      </trkpt>
      <trkpt lat="45.38891" lon="4.62042">
        <ele>1241.6</ele>
        <time>2026-08-18T11:10:18.990Z</time>
      </trkpt>
      <trkpt lat="45.38891" lon="4.62042">
        <ele>1241.6</ele>
        <time>2026-08-18T11:10:19.990Z</time>
      </trkpt>
      <trkpt lat="45.38891" lon="4.62042">
        <ele>1241.6</ele>
        <time>2026-08-18T11:10:20.990Z</time>
      </trkpt>
      <trkpt lat="45.38891" lon="4.62042">
        <ele>1241.6</ele>
        <time>2026-08-18T11:10:21.990Z</time>
      </trkpt>
      <trkpt lat="45.38891" lon="4.62042">
        <ele>1241.6</ele>
        <time>2026-08-18T11:10:22.990Z</time>
      </trkpt>
      <trkpt lat="45.38891" lon="4.62042">
        <ele>1241.6</ele>
        <time>2026-08-18T11:10:24.990Z</time>
      </trkpt>
      <trkpt lat="45.38891" lon="4.62042">
        <ele>1241.6</ele>
        <time>2026-08-18T11:10:25.990Z</time>
      </trkpt>
      <trkpt lat="45.38891" lon="4.62041">
        <ele>1241.6</ele>
        <time>2026-08-18T11:10:27.989Z</time>
      </trkpt>
      <trkpt lat="45.38891" lon="4.62041">
        <ele>1241.6</ele>
        <time>2026-08-18T11:10:28.990Z</time>
      </trkpt>
      <trkpt lat="45.38891" lon="4.62041">
        <ele>1241.6</ele>
        <time>2026-08-18T11:10:30.989Z</time>
      </trkpt>
      <trkpt lat="45.38891" lon="4.62041">
        <ele>1241.3</ele>
        <time>2026-08-18T11:10:31.989Z</time>
      </trkpt>
      <trkpt lat="45.38891" lon="4.62041">
        <ele>1241.3</ele>
        <time>2026-08-18T11:10:32.990Z</time>
      </trkpt>
      <trkpt lat="45.38891" lon="4.62041">
        <ele>1241.3</ele>
        <time>2026-08-18T11:10:33.990Z</time>
      </trkpt>
      <trkpt lat="45.38891" lon="4.62041">
        <ele>1241.1</ele>
        <time>2026-08-18T11:10:34.990Z</time>
      </trkpt>
      <trkpt lat="45.38891" lon="4.62041">
        <ele>1240.7</ele>
        <time>2026-08-18T11:10:36.989Z</time>
      </trkpt>
      <trkpt lat="45.38891" lon="4.62041">
        <ele>1240.7</ele>
        <time>2026-08-18T11:10:37.990Z</time>
      </trkpt>
      <trkpt lat="45.38891" lon="4.62041">
        <ele>1240.7</ele>
        <time>2026-08-18T11:10:38.990Z</time>
      </trkpt>
      <trkpt lat="45.38891" lon="4.62041">
        <ele>1240.7</ele>
        <time>2026-08-18T11:10:39.990Z</time>
      </trkpt>
      <trkpt lat="45.38891" lon="4.62041">
        <ele>1240.7</ele>
        <time>2026-08-18T11:10:41.990Z</time>
      </trkpt>
      <trkpt lat="45.38891" lon="4.62041">
        <ele>1240.7</ele>
        <time>2026-08-18T11:10:42.990Z</time>
      </trkpt>
      <trkpt lat="45.38891" lon="4.62041">
        <ele>1240.7</ele>
        <time>2026-08-18T11:10:43.995Z</time>
      </trkpt>
      <trkpt lat="45.38891" lon="4.62041">
        <ele>1240.7</ele>
        <time>2026-08-18T11:10:45.990Z</time>
      </trkpt>
      <trkpt lat="45.38891" lon="4.62041">
        <ele>1240.7</ele>
        <time>2026-08-18T11:10:46.990Z</time>
      </trkpt>
      <trkpt lat="45.38891" lon="4.62041">
        <ele>1240.2</ele>
        <time>2026-08-18T11:10:47.990Z</time>
      </trkpt>
      <trkpt lat="45.38891" lon="4.62041">
        <ele>1240.2</ele>
        <time>2026-08-18T11:10:48.990Z</time>
      </trkpt>
      <trkpt lat="45.38891" lon="4.62041">
        <ele>1240.2</ele>
        <time>2026-08-18T11:10:49.990Z</time>
      </trkpt>
      <trkpt lat="45.38891" lon="4.62041">
        <ele>1240.2</ele>
        <time>2026-08-18T11:10:51.989Z</time>
      </trkpt>
      <trkpt lat="45.38891" lon="4.62041">
        <ele>1240.2</ele>
        <time>2026-08-18T11:10:52.989Z</time>
      </trkpt>
      <trkpt lat="45.38891" lon="4.62041">
        <ele>1240.2</ele>
        <time>2026-08-18T11:10:53.990Z</time>
      </trkpt>
      <trkpt lat="45.38891" lon="4.62041">
        <ele>1240.4</ele>
        <time>2026-08-18T11:10:55.989Z</time>
      </trkpt>
      <trkpt lat="45.38891" lon="4.62041">
        <ele>1240.4</ele>
        <time>2026-08-18T11:10:57.990Z</time>
      </trkpt>
      <trkpt lat="45.38891" lon="4.62041">
        <ele>1240.4</ele>
        <time>2026-08-18T11:10:59.989Z</time>
      </trkpt>
      <trkpt lat="45.38891" lon="4.62041">
        <ele>1240.4</ele>
        <time>2026-08-18T11:11:00.997Z</time>
      </trkpt>
      <trkpt lat="45.38891" lon="4.62041">
        <ele>1241.5</ele>
        <time>2026-08-18T11:11:02.990Z</time>
      </trkpt>
      <trkpt lat="45.38891" lon="4.62041">
        <ele>1241.5</ele>
        <time>2026-08-18T11:11:03.990Z</time>
      </trkpt>
      <trkpt lat="45.38891" lon="4.62041">
        <ele>1241.5</ele>
        <time>2026-08-18T11:11:04.992Z</time>
      </trkpt>
      <trkpt lat="45.38891" lon="4.62041">
        <ele>1241.5</ele>
        <time>2026-08-18T11:11:06.990Z</time>
      </trkpt>
      <trkpt lat="45.38891" lon="4.62041">
        <ele>1241.5</ele>
        <time>2026-08-18T11:11:08.989Z</time>
      </trkpt>
      <trkpt lat="45.38891" lon="4.62041">
        <ele>1241.5</ele>
        <time>2026-08-18T11:11:09.989Z</time>
      </trkpt>
      <trkpt lat="45.38891" lon="4.62041">
        <ele>1240.9</ele>
        <time>2026-08-18T11:11:10.989Z</time>
      </trkpt>
      <trkpt lat="45.38891" lon="4.6204">
        <ele>1241.1</ele>
        <time>2026-08-18T11:11:11.990Z</time>
      </trkpt>
      <trkpt lat="45.38891" lon="4.6204">
        <ele>1240.8</ele>
        <time>2026-08-18T11:11:13.990Z</time>
      </trkpt>
      <trkpt lat="45.3889" lon="4.62039">
        <ele>1240.6</ele>
        <time>2026-08-18T11:11:14.990Z</time>
      </trkpt>
      <trkpt lat="45.3889" lon="4.62036">
        <ele>1241</ele>
        <time>2026-08-18T11:11:16.990Z</time>
      </trkpt>
      <trkpt lat="45.3889" lon="4.62035">
        <ele>1241.6</ele>
        <time>2026-08-18T11:11:17.990Z</time>
      </trkpt>
      <trkpt lat="45.3889" lon="4.62033">
        <ele>1241.8</ele>
        <time>2026-08-18T11:11:18.990Z</time>
      </trkpt>
      <trkpt lat="45.3889" lon="4.62032">
        <ele>1241.8</ele>
        <time>2026-08-18T11:11:20.019Z</time>
      </trkpt>
      <trkpt lat="45.3889" lon="4.62029">
        <ele>1240.7</ele>
        <time>2026-08-18T11:11:21.994Z</time>
      </trkpt>
      <trkpt lat="45.38889" lon="4.62029">
        <ele>1238.8</ele>
        <time>2026-08-18T11:11:23.990Z</time>
      </trkpt>
      <trkpt lat="45.38886" lon="4.6203">
        <ele>1239.8</ele>
        <time>2026-08-18T11:11:25.989Z</time>
      </trkpt>
      <trkpt lat="45.38885" lon="4.62029">
        <ele>1240.6</ele>
        <time>2026-08-18T11:11:26.990Z</time>
      </trkpt>
      <trkpt lat="45.38885" lon="4.62028">
        <ele>1240.2</ele>
        <time>2026-08-18T11:11:28.989Z</time>
      </trkpt>
      <trkpt lat="45.38884" lon="4.62028">
        <ele>1240.2</ele>
        <time>2026-08-18T11:11:29.990Z</time>
      </trkpt>
      <trkpt lat="45.38884" lon="4.62028">
        <ele>1240.9</ele>
        <time>2026-08-18T11:11:30.990Z</time>
      </trkpt>
      <trkpt lat="45.38883" lon="4.62029">
        <ele>1241.9</ele>
        <time>2026-08-18T11:11:32.989Z</time>
      </trkpt>
      <trkpt lat="45.38883" lon="4.62029">
        <ele>1242.7</ele>
        <time>2026-08-18T11:11:33.990Z</time>
      </trkpt>
      <trkpt lat="45.38883" lon="4.6203">
        <ele>1243.6</ele>
        <time>2026-08-18T11:11:34.990Z</time>
      </trkpt>
      <trkpt lat="45.38883" lon="4.62029">
        <ele>1243.7</ele>
        <time>2026-08-18T11:11:35.990Z</time>
      </trkpt>
      <trkpt lat="45.38882" lon="4.62029">
        <ele>1243.8</ele>
        <time>2026-08-18T11:11:36.990Z</time>
      </trkpt>
      <trkpt lat="45.38882" lon="4.62029">
        <ele>1244.7</ele>
        <time>2026-08-18T11:11:38.997Z</time>
      </trkpt>
      <trkpt lat="45.38881" lon="4.6203">
        <ele>1244.6</ele>
        <time>2026-08-18T11:11:40.989Z</time>
      </trkpt>
      <trkpt lat="45.38881" lon="4.62031">
        <ele>1244.6</ele>
        <time>2026-08-18T11:11:41.990Z</time>
      </trkpt>
      <trkpt lat="45.38881" lon="4.62031">
        <ele>1244.6</ele>
        <time>2026-08-18T11:11:42.990Z</time>
      </trkpt>
      <trkpt lat="45.38881" lon="4.6203">
        <ele>1244.6</ele>
        <time>2026-08-18T11:11:44.989Z</time>
      </trkpt>
      <trkpt lat="45.38881" lon="4.6203">
        <ele>1244.6</ele>
        <time>2026-08-18T11:11:45.990Z</time>
      </trkpt>
      <trkpt lat="45.38881" lon="4.6203">
        <ele>1244.7</ele>
        <time>2026-08-18T11:11:47.990Z</time>
      </trkpt>
      <trkpt lat="45.38881" lon="4.6203">
        <ele>1244.7</ele>
        <time>2026-08-18T11:11:48.990Z</time>
      </trkpt>
      <trkpt lat="45.38881" lon="4.6203">
        <ele>1244.7</ele>
        <time>2026-08-18T11:11:49.990Z</time>
      </trkpt>
      <trkpt lat="45.38881" lon="4.6203">
        <ele>1244.7</ele>
        <time>2026-08-18T11:11:51.989Z</time>
      </trkpt>
      <trkpt lat="45.38881" lon="4.6203">
        <ele>1244.7</ele>
        <time>2026-08-18T11:11:52.989Z</time>
      </trkpt>
      <trkpt lat="45.38881" lon="4.6203">
        <ele>1244.7</ele>
        <time>2026-08-18T11:11:53.989Z</time>
      </trkpt>
      <trkpt lat="45.38881" lon="4.6203">
        <ele>1244.7</ele>
        <time>2026-08-18T11:11:54.990Z</time>
      </trkpt>
      <trkpt lat="45.38881" lon="4.6203">
        <ele>1244.7</ele>
        <time>2026-08-18T11:11:55.997Z</time>
      </trkpt>
      <trkpt lat="45.38881" lon="4.6203">
        <ele>1244.6</ele>
        <time>2026-08-18T11:11:57.959Z</time>
      </trkpt>
      <trkpt lat="45.3888" lon="4.6203">
        <ele>1245.6</ele>
        <time>2026-08-18T11:11:58.990Z</time>
      </trkpt>
      <trkpt lat="45.3888" lon="4.6203">
        <ele>1245.9</ele>
        <time>2026-08-18T11:11:59.991Z</time>
      </trkpt>
      <trkpt lat="45.38879" lon="4.62029">
        <ele>1246</ele>
        <time>2026-08-18T11:12:01.990Z</time>
      </trkpt>
      <trkpt lat="45.3888" lon="4.62029">
        <ele>1246</ele>
        <time>2026-08-18T11:12:03.989Z</time>
      </trkpt>
      <trkpt lat="45.3888" lon="4.62029">
        <ele>1246</ele>
        <time>2026-08-18T11:12:04.989Z</time>
      </trkpt>
      <trkpt lat="45.3888" lon="4.62029">
        <ele>1246</ele>
        <time>2026-08-18T11:12:05.989Z</time>
      </trkpt>
      <trkpt lat="45.3888" lon="4.62029">
        <ele>1246</ele>
        <time>2026-08-18T11:12:06.989Z</time>
      </trkpt>
      <trkpt lat="45.3888" lon="4.62029">
        <ele>1246</ele>
        <time>2026-08-18T11:12:07.990Z</time>
      </trkpt>
      <trkpt lat="45.3888" lon="4.62029">
        <ele>1246</ele>
        <time>2026-08-18T11:12:08.990Z</time>
      </trkpt>
      <trkpt lat="45.3888" lon="4.62029">
        <ele>1246</ele>
        <time>2026-08-18T11:12:09.990Z</time>
      </trkpt>
      <trkpt lat="45.3888" lon="4.62029">
        <ele>1246</ele>
        <time>2026-08-18T11:12:11.989Z</time>
      </trkpt>
      <trkpt lat="45.3888" lon="4.62029">
        <ele>1246</ele>
        <time>2026-08-18T11:12:12.990Z</time>
      </trkpt>
      <trkpt lat="45.3888" lon="4.62029">
        <ele>1246</ele>
        <time>2026-08-18T11:12:14.990Z</time>
      </trkpt>
      <trkpt lat="45.3888" lon="4.62029">
        <ele>1246</ele>
        <time>2026-08-18T11:12:16.992Z</time>
      </trkpt>
      <trkpt lat="45.3888" lon="4.62029">
        <ele>1246.3</ele>
        <time>2026-08-18T11:12:18.989Z</time>
      </trkpt>
      <trkpt lat="45.3888" lon="4.62029">
        <ele>1246.3</ele>
        <time>2026-08-18T11:12:19.989Z</time>
      </trkpt>
      <trkpt lat="45.3888" lon="4.62029">
        <ele>1246.3</ele>
        <time>2026-08-18T11:12:20.990Z</time>
      </trkpt>
      <trkpt lat="45.3888" lon="4.62029">
        <ele>1246.3</ele>
        <time>2026-08-18T11:12:22.989Z</time>
      </trkpt>
      <trkpt lat="45.3888" lon="4.62028">
        <ele>1246.3</ele>
        <time>2026-08-18T11:12:23.990Z</time>
      </trkpt>
      <trkpt lat="45.3888" lon="4.62028">
        <ele>1246.3</ele>
        <time>2026-08-18T11:12:24.990Z</time>
      </trkpt>
      <trkpt lat="45.3888" lon="4.62029">
        <ele>1246.3</ele>
        <time>2026-08-18T11:12:26.989Z</time>
      </trkpt>
      <trkpt lat="45.3888" lon="4.62029">
        <ele>1246.3</ele>
        <time>2026-08-18T11:12:27.990Z</time>
      </trkpt>
      <trkpt lat="45.3888" lon="4.62028">
        <ele>1246.3</ele>
        <time>2026-08-18T11:12:28.990Z</time>
      </trkpt>
      <trkpt lat="45.3888" lon="4.62028">
        <ele>1246.4</ele>
        <time>2026-08-18T11:12:29.990Z</time>
      </trkpt>
      <trkpt lat="45.3888" lon="4.62028">
        <ele>1246.4</ele>
        <time>2026-08-18T11:12:30.990Z</time>
      </trkpt>
      <trkpt lat="45.3888" lon="4.62028">
        <ele>1246.4</ele>
        <time>2026-08-18T11:12:32.989Z</time>
      </trkpt>
      <trkpt lat="45.3888" lon="4.62028">
        <ele>1246.4</ele>
        <time>2026-08-18T11:12:33.990Z</time>
      </trkpt>
      <trkpt lat="45.3888" lon="4.62028">
        <ele>1246.4</ele>
        <time>2026-08-18T11:12:34.990Z</time>
      </trkpt>
      <trkpt lat="45.3888" lon="4.62029">
        <ele>1246.4</ele>
        <time>2026-08-18T11:12:36.989Z</time>
      </trkpt>
      <trkpt lat="45.3888" lon="4.62029">
        <ele>1247.4</ele>
        <time>2026-08-18T11:12:38.989Z</time>
      </trkpt>
      <trkpt lat="45.3888" lon="4.62028">
        <ele>1247.8</ele>
        <time>2026-08-18T11:12:40.989Z</time>
      </trkpt>
      <trkpt lat="45.38879" lon="4.62028">
        <ele>1248.8</ele>
        <time>2026-08-18T11:12:41.989Z</time>
      </trkpt>
      <trkpt lat="45.38879" lon="4.62028">
        <ele>1248.9</ele>
        <time>2026-08-18T11:12:42.990Z</time>
      </trkpt>
      <trkpt lat="45.38878" lon="4.62027">
        <ele>1249.8</ele>
        <time>2026-08-18T11:12:43.990Z</time>
      </trkpt>
      <trkpt lat="45.38877" lon="4.62027">
        <ele>1250</ele>
        <time>2026-08-18T11:12:45.997Z</time>
      </trkpt>
      <trkpt lat="45.38875" lon="4.62028">
        <ele>1250.7</ele>
        <time>2026-08-18T11:12:47.989Z</time>
      </trkpt>
      <trkpt lat="45.38875" lon="4.62028">
        <ele>1250.8</ele>
        <time>2026-08-18T11:12:48.990Z</time>
      </trkpt>
      <trkpt lat="45.38875" lon="4.62027">
        <ele>1251.1</ele>
        <time>2026-08-18T11:12:49.990Z</time>
      </trkpt>
      <trkpt lat="45.38875" lon="4.62027">
        <ele>1251</ele>
        <time>2026-08-18T11:12:50.990Z</time>
      </trkpt>
      <trkpt lat="45.38875" lon="4.62027">
        <ele>1251</ele>
        <time>2026-08-18T11:12:51.997Z</time>
      </trkpt>
      <trkpt lat="45.38874" lon="4.62027">
        <ele>1251.6</ele>
        <time>2026-08-18T11:12:53.803Z</time>
      </trkpt>
      <trkpt lat="45.38873" lon="4.62027">
        <ele>1252</ele>
        <time>2026-08-18T11:12:54.858Z</time>
      </trkpt>
      <trkpt lat="45.38873" lon="4.62028">
        <ele>1251.7</ele>
        <time>2026-08-18T11:12:55.990Z</time>
      </trkpt>
      <trkpt lat="45.38872" lon="4.62029">
        <ele>1252.1</ele>
        <time>2026-08-18T11:12:56.990Z</time>
      </trkpt>
      <trkpt lat="45.38871" lon="4.6203">
        <ele>1252.2</ele>
        <time>2026-08-18T11:12:58.990Z</time>
      </trkpt>
      <trkpt lat="45.3887" lon="4.6203">
        <ele>1252.4</ele>
        <time>2026-08-18T11:12:59.990Z</time>
      </trkpt>
      <trkpt lat="45.38869" lon="4.6203">
        <ele>1252.4</ele>
        <time>2026-08-18T11:13:01.989Z</time>
      </trkpt>
      <trkpt lat="45.38869" lon="4.62031">
        <ele>1252.9</ele>
        <time>2026-08-18T11:13:02.989Z</time>
      </trkpt>
      <trkpt lat="45.38869" lon="4.62032">
        <ele>1252.5</ele>
        <time>2026-08-18T11:13:03.989Z</time>
      </trkpt>
      <trkpt lat="45.38868" lon="4.62032">
        <ele>1253.1</ele>
        <time>2026-08-18T11:13:04.989Z</time>
      </trkpt>
      <trkpt lat="45.38867" lon="4.62032">
        <ele>1252.8</ele>
        <time>2026-08-18T11:13:05.990Z</time>
      </trkpt>
      <trkpt lat="45.38868" lon="4.62031">
        <ele>1252.5</ele>
        <time>2026-08-18T11:13:06.990Z</time>
      </trkpt>
      <trkpt lat="45.38868" lon="4.62031">
        <ele>1252.5</ele>
        <time>2026-08-18T11:13:07.996Z</time>
      </trkpt>
      <trkpt lat="45.38868" lon="4.62031">
        <ele>1252.5</ele>
        <time>2026-08-18T11:13:09.989Z</time>
      </trkpt>
      <trkpt lat="45.38869" lon="4.62031">
        <ele>1252.5</ele>
        <time>2026-08-18T11:13:10.989Z</time>
      </trkpt>
      <trkpt lat="45.38869" lon="4.62031">
        <ele>1252.5</ele>
        <time>2026-08-18T11:13:11.990Z</time>
      </trkpt>
      <trkpt lat="45.38869" lon="4.6203">
        <ele>1252.5</ele>
        <time>2026-08-18T11:13:12.990Z</time>
      </trkpt>
      <trkpt lat="45.38869" lon="4.6203">
        <ele>1252.5</ele>
        <time>2026-08-18T11:13:13.990Z</time>
      </trkpt>
      <trkpt lat="45.38869" lon="4.62031">
        <ele>1252.5</ele>
        <time>2026-08-18T11:13:14.990Z</time>
      </trkpt>
      <trkpt lat="45.38869" lon="4.62031">
        <ele>1252.5</ele>
        <time>2026-08-18T11:13:16.990Z</time>
      </trkpt>
      <trkpt lat="45.38869" lon="4.62031">
        <ele>1252.8</ele>
        <time>2026-08-18T11:13:19.000Z</time>
      </trkpt>
      <trkpt lat="45.38869" lon="4.62031">
        <ele>1253.2</ele>
        <time>2026-08-18T11:13:21.017Z</time>
      </trkpt>
      <trkpt lat="45.38867" lon="4.62029">
        <ele>1254.2</ele>
        <time>2026-08-18T11:13:22.989Z</time>
      </trkpt>
      <trkpt lat="45.38865" lon="4.62027">
        <ele>1254.8</ele>
        <time>2026-08-18T11:13:24.998Z</time>
      </trkpt>
      <trkpt lat="45.38865" lon="4.62026">
        <ele>1254.4</ele>
        <time>2026-08-18T11:13:26.990Z</time>
      </trkpt>
      <trkpt lat="45.38865" lon="4.62025">
        <ele>1254</ele>
        <time>2026-08-18T11:13:27.990Z</time>
      </trkpt>
      <trkpt lat="45.38865" lon="4.62024">
        <ele>1254</ele>
        <time>2026-08-18T11:13:28.992Z</time>
      </trkpt>
      <trkpt lat="45.38865" lon="4.62024">
        <ele>1254.4</ele>
        <time>2026-08-18T11:13:30.915Z</time>
      </trkpt>
      <trkpt lat="45.38865" lon="4.62024">
        <ele>1254.8</ele>
        <time>2026-08-18T11:13:32.798Z</time>
      </trkpt>
      <trkpt lat="45.38864" lon="4.62023">
        <ele>1255.6</ele>
        <time>2026-08-18T11:13:33.990Z</time>
      </trkpt>
      <trkpt lat="45.38865" lon="4.62023">
        <ele>1255.6</ele>
        <time>2026-08-18T11:13:34.990Z</time>
      </trkpt>
      <trkpt lat="45.38865" lon="4.62022">
        <ele>1255.1</ele>
        <time>2026-08-18T11:13:35.990Z</time>
      </trkpt>
      <trkpt lat="45.38866" lon="4.62022">
        <ele>1256</ele>
        <time>2026-08-18T11:13:36.990Z</time>
      </trkpt>
      <trkpt lat="45.38867" lon="4.62022">
        <ele>1255.7</ele>
        <time>2026-08-18T11:13:37.990Z</time>
      </trkpt>
      <trkpt lat="45.38866" lon="4.6202">
        <ele>1255.7</ele>
        <time>2026-08-18T11:13:39.989Z</time>
      </trkpt>
      <trkpt lat="45.38865" lon="4.6202">
        <ele>1255.5</ele>
        <time>2026-08-18T11:13:40.990Z</time>
      </trkpt>
      <trkpt lat="45.38865" lon="4.6202">
        <ele>1255.7</ele>
        <time>2026-08-18T11:13:41.998Z</time>
      </trkpt>
      <trkpt lat="45.38864" lon="4.62019">
        <ele>1254.9</ele>
        <time>2026-08-18T11:13:43.990Z</time>
      </trkpt>
      <trkpt lat="45.38862" lon="4.62019">
        <ele>1255.1</ele>
        <time>2026-08-18T11:13:45.993Z</time>
      </trkpt>
      <trkpt lat="45.38861" lon="4.62019">
        <ele>1254.5</ele>
        <time>2026-08-18T11:13:47.989Z</time>
      </trkpt>
      <trkpt lat="45.38859" lon="4.62019">
        <ele>1255.4</ele>
        <time>2026-08-18T11:13:49.990Z</time>
      </trkpt>
      <trkpt lat="45.38858" lon="4.6202">
        <ele>1255.5</ele>
        <time>2026-08-18T11:13:51.990Z</time>
      </trkpt>
      <trkpt lat="45.38857" lon="4.6202">
        <ele>1255.6</ele>
        <time>2026-08-18T11:13:52.990Z</time>
      </trkpt>
      <trkpt lat="45.38857" lon="4.62021">
        <ele>1256.3</ele>
        <time>2026-08-18T11:13:53.990Z</time>
      </trkpt>
      <trkpt lat="45.38856" lon="4.62021">
        <ele>1256.3</ele>
        <time>2026-08-18T11:13:54.990Z</time>
      </trkpt>
      <trkpt lat="45.38856" lon="4.62021">
        <ele>1256.5</ele>
        <time>2026-08-18T11:13:55.990Z</time>
      </trkpt>
      <trkpt lat="45.38856" lon="4.62022">
        <ele>1256.4</ele>
        <time>2026-08-18T11:13:56.990Z</time>
      </trkpt>
      <trkpt lat="45.38854" lon="4.62023">
        <ele>1256.9</ele>
        <time>2026-08-18T11:13:58.988Z</time>
      </trkpt>
      <trkpt lat="45.38854" lon="4.62024">
        <ele>1257</ele>
        <time>2026-08-18T11:13:59.988Z</time>
      </trkpt>
      <trkpt lat="45.38853" lon="4.62024">
        <ele>1257.5</ele>
        <time>2026-08-18T11:14:00.989Z</time>
      </trkpt>
      <trkpt lat="45.38851" lon="4.62025">
        <ele>1257.9</ele>
        <time>2026-08-18T11:14:02.938Z</time>
      </trkpt>
      <trkpt lat="45.38851" lon="4.62025">
        <ele>1258.3</ele>
        <time>2026-08-18T11:14:03.989Z</time>
      </trkpt>
      <trkpt lat="45.3885" lon="4.62026">
        <ele>1258.5</ele>
        <time>2026-08-18T11:14:05.989Z</time>
      </trkpt>
      <trkpt lat="45.3885" lon="4.62027">
        <ele>1258.6</ele>
        <time>2026-08-18T11:14:06.989Z</time>
      </trkpt>
      <trkpt lat="45.3885" lon="4.62028">
        <ele>1258.8</ele>
        <time>2026-08-18T11:14:08.014Z</time>
      </trkpt>
      <trkpt lat="45.3885" lon="4.62028">
        <ele>1258.8</ele>
        <time>2026-08-18T11:14:09.989Z</time>
      </trkpt>
      <trkpt lat="45.38851" lon="4.62027">
        <ele>1258.8</ele>
        <time>2026-08-18T11:14:10.989Z</time>
      </trkpt>
      <trkpt lat="45.38851" lon="4.62027">
        <ele>1258.8</ele>
        <time>2026-08-18T11:14:12.989Z</time>
      </trkpt>
      <trkpt lat="45.38851" lon="4.62027">
        <ele>1258.8</ele>
        <time>2026-08-18T11:14:13.989Z</time>
      </trkpt>
      <trkpt lat="45.38851" lon="4.62027">
        <ele>1258.8</ele>
        <time>2026-08-18T11:14:14.989Z</time>
      </trkpt>
      <trkpt lat="45.38851" lon="4.62027">
        <ele>1258.8</ele>
        <time>2026-08-18T11:14:16.002Z</time>
      </trkpt>
      <trkpt lat="45.38851" lon="4.62027">
        <ele>1258.8</ele>
        <time>2026-08-18T11:14:17.989Z</time>
      </trkpt>
      <trkpt lat="45.38851" lon="4.62027">
        <ele>1258.8</ele>
        <time>2026-08-18T11:14:19.995Z</time>
      </trkpt>
      <trkpt lat="45.38851" lon="4.62027">
        <ele>1258.8</ele>
        <time>2026-08-18T11:14:21.987Z</time>
      </trkpt>
      <trkpt lat="45.38851" lon="4.62027">
        <ele>1258.8</ele>
        <time>2026-08-18T11:14:22.989Z</time>
      </trkpt>
      <trkpt lat="45.38851" lon="4.62027">
        <ele>1258.8</ele>
        <time>2026-08-18T11:14:23.989Z</time>
      </trkpt>
      <trkpt lat="45.38851" lon="4.62027">
        <ele>1258.8</ele>
        <time>2026-08-18T11:14:24.989Z</time>
      </trkpt>
      <trkpt lat="45.38851" lon="4.62027">
        <ele>1258.8</ele>
        <time>2026-08-18T11:14:26.988Z</time>
      </trkpt>
      <trkpt lat="45.38851" lon="4.62027">
        <ele>1258.8</ele>
        <time>2026-08-18T11:14:27.989Z</time>
      </trkpt>
      <trkpt lat="45.38851" lon="4.62027">
        <ele>1258.8</ele>
        <time>2026-08-18T11:14:29.989Z</time>
      </trkpt>
      <trkpt lat="45.38851" lon="4.62027">
        <ele>1259.1</ele>
        <time>2026-08-18T11:14:30.989Z</time>
      </trkpt>
      <trkpt lat="45.38851" lon="4.62027">
        <ele>1259.1</ele>
        <time>2026-08-18T11:14:31.989Z</time>
      </trkpt>
      <trkpt lat="45.38851" lon="4.62027">
        <ele>1259.1</ele>
        <time>2026-08-18T11:14:32.989Z</time>
      </trkpt>
      <trkpt lat="45.38851" lon="4.62027">
        <ele>1259.1</ele>
        <time>2026-08-18T11:14:33.989Z</time>
      </trkpt>
      <trkpt lat="45.38851" lon="4.62027">
        <ele>1259.1</ele>
        <time>2026-08-18T11:14:34.989Z</time>
      </trkpt>
      <trkpt lat="45.38851" lon="4.62027">
        <ele>1259.1</ele>
        <time>2026-08-18T11:14:36.995Z</time>
      </trkpt>
      <trkpt lat="45.38851" lon="4.62027">
        <ele>1259.1</ele>
        <time>2026-08-18T11:14:38.989Z</time>
      </trkpt>
      <trkpt lat="45.38851" lon="4.62027">
        <ele>1259.1</ele>
        <time>2026-08-18T11:14:39.989Z</time>
      </trkpt>
      <trkpt lat="45.38851" lon="4.62027">
        <ele>1259.3</ele>
        <time>2026-08-18T11:14:40.990Z</time>
      </trkpt>
      <trkpt lat="45.38851" lon="4.62027">
        <ele>1259.3</ele>
        <time>2026-08-18T11:14:42.987Z</time>
      </trkpt>
      <trkpt lat="45.38851" lon="4.62027">
        <ele>1259.3</ele>
        <time>2026-08-18T11:14:43.989Z</time>
      </trkpt>
      <trkpt lat="45.38852" lon="4.62027">
        <ele>1259.3</ele>
        <time>2026-08-18T11:14:45.989Z</time>
      </trkpt>
      <trkpt lat="45.38852" lon="4.62027">
        <ele>1259.3</ele>
        <time>2026-08-18T11:14:46.989Z</time>
      </trkpt>
      <trkpt lat="45.38851" lon="4.62027">
        <ele>1259.6</ele>
        <time>2026-08-18T11:14:47.989Z</time>
      </trkpt>
      <trkpt lat="45.38852" lon="4.62027">
        <ele>1260</ele>
        <time>2026-08-18T11:14:48.989Z</time>
      </trkpt>
      <trkpt lat="45.38852" lon="4.62027">
        <ele>1260</ele>
        <time>2026-08-18T11:14:50.002Z</time>
      </trkpt>
      <trkpt lat="45.38852" lon="4.62027">
        <ele>1260</ele>
        <time>2026-08-18T11:14:51.988Z</time>
      </trkpt>
      <trkpt lat="45.38852" lon="4.62026">
        <ele>1260</ele>
        <time>2026-08-18T11:14:52.989Z</time>
      </trkpt>
      <trkpt lat="45.38852" lon="4.62026">
        <ele>1260</ele>
        <time>2026-08-18T11:14:53.989Z</time>
      </trkpt>
      <trkpt lat="45.38852" lon="4.62026">
        <ele>1260.4</ele>
        <time>2026-08-18T11:14:54.989Z</time>
      </trkpt>
      <trkpt lat="45.38852" lon="4.62026">
        <ele>1260.6</ele>
        <time>2026-08-18T11:14:56.987Z</time>
      </trkpt>
      <trkpt lat="45.38852" lon="4.62026">
        <ele>1260</ele>
        <time>2026-08-18T11:14:57.989Z</time>
      </trkpt>
      <trkpt lat="45.38852" lon="4.62025">
        <ele>1259.9</ele>
        <time>2026-08-18T11:14:58.989Z</time>
      </trkpt>
      <trkpt lat="45.38852" lon="4.62024">
        <ele>1260.5</ele>
        <time>2026-08-18T11:15:00.988Z</time>
      </trkpt>
      <trkpt lat="45.38852" lon="4.62024">
        <ele>1260.9</ele>
        <time>2026-08-18T11:15:01.988Z</time>
      </trkpt>
      <trkpt lat="45.38852" lon="4.62023">
        <ele>1261</ele>
        <time>2026-08-18T11:15:02.989Z</time>
      </trkpt>
      <trkpt lat="45.38853" lon="4.62022">
        <ele>1261</ele>
        <time>2026-08-18T11:15:05.018Z</time>
      </trkpt>
      <trkpt lat="45.38853" lon="4.62019">
        <ele>1260.7</ele>
        <time>2026-08-18T11:15:06.989Z</time>
      </trkpt>
      <trkpt lat="45.38853" lon="4.62018">
        <ele>1260.9</ele>
        <time>2026-08-18T11:15:07.989Z</time>
      </trkpt>
      <trkpt lat="45.38853" lon="4.62017">
        <ele>1261.2</ele>
        <time>2026-08-18T11:15:08.989Z</time>
      </trkpt>
      <trkpt lat="45.38853" lon="4.62016">
        <ele>1261.4</ele>
        <time>2026-08-18T11:15:10.996Z</time>
      </trkpt>
      <trkpt lat="45.38854" lon="4.62015">
        <ele>1261.8</ele>
        <time>2026-08-18T11:15:12.989Z</time>
      </trkpt>
      <trkpt lat="45.38854" lon="4.62014">
        <ele>1262.5</ele>
        <time>2026-08-18T11:15:13.989Z</time>
      </trkpt>
      <trkpt lat="45.38853" lon="4.62013">
        <ele>1262.2</ele>
        <time>2026-08-18T11:15:14.990Z</time>
      </trkpt>
      <trkpt lat="45.38852" lon="4.62013">
        <ele>1261</ele>
        <time>2026-08-18T11:15:16.988Z</time>
      </trkpt>
      <trkpt lat="45.38852" lon="4.62013">
        <ele>1261.4</ele>
        <time>2026-08-18T11:15:17.988Z</time>
      </trkpt>
      <trkpt lat="45.38851" lon="4.62013">
        <ele>1261.9</ele>
        <time>2026-08-18T11:15:18.989Z</time>
      </trkpt>
      <trkpt lat="45.38851" lon="4.62012">
        <ele>1262.2</ele>
        <time>2026-08-18T11:15:19.989Z</time>
      </trkpt>
      <trkpt lat="45.38851" lon="4.62011">
        <ele>1262.6</ele>
        <time>2026-08-18T11:15:20.989Z</time>
      </trkpt>
      <trkpt lat="45.3885" lon="4.6201">
        <ele>1263.2</ele>
        <time>2026-08-18T11:15:22.988Z</time>
      </trkpt>
      <trkpt lat="45.3885" lon="4.6201">
        <ele>1263.5</ele>
        <time>2026-08-18T11:15:23.988Z</time>
      </trkpt>
      <trkpt lat="45.3885" lon="4.6201">
        <ele>1263.8</ele>
        <time>2026-08-18T11:15:24.989Z</time>
      </trkpt>
      <trkpt lat="45.3885" lon="4.62009">
        <ele>1263.9</ele>
        <time>2026-08-18T11:15:25.989Z</time>
      </trkpt>
      <trkpt lat="45.38849" lon="4.6201">
        <ele>1262.8</ele>
        <time>2026-08-18T11:15:27.998Z</time>
      </trkpt>
      <trkpt lat="45.38848" lon="4.6201">
        <ele>1262.9</ele>
        <time>2026-08-18T11:15:29.988Z</time>
      </trkpt>
      <trkpt lat="45.38847" lon="4.62011">
        <ele>1263</ele>
        <time>2026-08-18T11:15:30.988Z</time>
      </trkpt>
      <trkpt lat="45.38847" lon="4.62011">
        <ele>1263.1</ele>
        <time>2026-08-18T11:15:31.991Z</time>
      </trkpt>
      <trkpt lat="45.38844" lon="4.62011">
        <ele>1263</ele>
        <time>2026-08-18T11:15:33.988Z</time>
      </trkpt>
      <trkpt lat="45.38843" lon="4.6201">
        <ele>1262.6</ele>
        <time>2026-08-18T11:15:34.988Z</time>
      </trkpt>
      <trkpt lat="45.38842" lon="4.6201">
        <ele>1262</ele>
        <time>2026-08-18T11:15:35.989Z</time>
      </trkpt>
      <trkpt lat="45.38841" lon="4.62009">
        <ele>1262.4</ele>
        <time>2026-08-18T11:15:37.988Z</time>
      </trkpt>
      <trkpt lat="45.3884" lon="4.62008">
        <ele>1261.9</ele>
        <time>2026-08-18T11:15:38.988Z</time>
      </trkpt>
      <trkpt lat="45.38839" lon="4.62008">
        <ele>1261.8</ele>
        <time>2026-08-18T11:15:39.989Z</time>
      </trkpt>
      <trkpt lat="45.38838" lon="4.62008">
        <ele>1261.1</ele>
        <time>2026-08-18T11:15:41.988Z</time>
      </trkpt>
      <trkpt lat="45.38837" lon="4.62007">
        <ele>1261.3</ele>
        <time>2026-08-18T11:15:42.989Z</time>
      </trkpt>
      <trkpt lat="45.38836" lon="4.62006">
        <ele>1261.9</ele>
        <time>2026-08-18T11:15:43.989Z</time>
      </trkpt>
      <trkpt lat="45.38836" lon="4.62005">
        <ele>1262.1</ele>
        <time>2026-08-18T11:15:44.999Z</time>
      </trkpt>
      <trkpt lat="45.38836" lon="4.62003">
        <ele>1262.4</ele>
        <time>2026-08-18T11:15:46.988Z</time>
      </trkpt>
      <trkpt lat="45.38835" lon="4.62002">
        <ele>1262.7</ele>
        <time>2026-08-18T11:15:47.988Z</time>
      </trkpt>
      <trkpt lat="45.38834" lon="4.62002">
        <ele>1262.9</ele>
        <time>2026-08-18T11:15:48.992Z</time>
      </trkpt>
      <trkpt lat="45.38833" lon="4.62001">
        <ele>1262.9</ele>
        <time>2026-08-18T11:15:50.988Z</time>
      </trkpt>
      <trkpt lat="45.38833" lon="4.61999">
        <ele>1263.4</ele>
        <time>2026-08-18T11:15:51.989Z</time>
      </trkpt>
      <trkpt lat="45.38833" lon="4.61998">
        <ele>1263.6</ele>
        <time>2026-08-18T11:15:52.989Z</time>
      </trkpt>
      <trkpt lat="45.38833" lon="4.61995">
        <ele>1263.4</ele>
        <time>2026-08-18T11:15:54.989Z</time>
      </trkpt>
      <trkpt lat="45.38833" lon="4.61994">
        <ele>1263.2</ele>
        <time>2026-08-18T11:15:55.989Z</time>
      </trkpt>
      <trkpt lat="45.38833" lon="4.61994">
        <ele>1263</ele>
        <time>2026-08-18T11:15:56.989Z</time>
      </trkpt>
      <trkpt lat="45.38832" lon="4.61992">
        <ele>1262.9</ele>
        <time>2026-08-18T11:15:58.989Z</time>
      </trkpt>
      <trkpt lat="45.38832" lon="4.61991">
        <ele>1262.9</ele>
        <time>2026-08-18T11:15:59.995Z</time>
      </trkpt>
      <trkpt lat="45.38831" lon="4.61989">
        <ele>1262.7</ele>
        <time>2026-08-18T11:16:01.989Z</time>
      </trkpt>
      <trkpt lat="45.38831" lon="4.61987">
        <ele>1263.1</ele>
        <time>2026-08-18T11:16:03.988Z</time>
      </trkpt>
      <trkpt lat="45.38831" lon="4.61986">
        <ele>1263</ele>
        <time>2026-08-18T11:16:04.989Z</time>
      </trkpt>
      <trkpt lat="45.38831" lon="4.61985">
        <ele>1263.1</ele>
        <time>2026-08-18T11:16:05.993Z</time>
      </trkpt>
      <trkpt lat="45.38831" lon="4.61984">
        <ele>1263.1</ele>
        <time>2026-08-18T11:16:07.962Z</time>
      </trkpt>
      <trkpt lat="45.38831" lon="4.61983">
        <ele>1263.3</ele>
        <time>2026-08-18T11:16:08.988Z</time>
      </trkpt>
      <trkpt lat="45.38832" lon="4.61982">
        <ele>1263.3</ele>
        <time>2026-08-18T11:16:09.989Z</time>
      </trkpt>
      <trkpt lat="45.38833" lon="4.61981">
        <ele>1263.4</ele>
        <time>2026-08-18T11:16:11.989Z</time>
      </trkpt>
      <trkpt lat="45.38834" lon="4.61979">
        <ele>1264.2</ele>
        <time>2026-08-18T11:16:13.988Z</time>
      </trkpt>
      <trkpt lat="45.38834" lon="4.61978">
        <ele>1264.1</ele>
        <time>2026-08-18T11:16:15.006Z</time>
      </trkpt>
      <trkpt lat="45.38835" lon="4.61977">
        <ele>1264.6</ele>
        <time>2026-08-18T11:16:16.989Z</time>
      </trkpt>
      <trkpt lat="45.38836" lon="4.61976">
        <ele>1264.6</ele>
        <time>2026-08-18T11:16:18.936Z</time>
      </trkpt>
      <trkpt lat="45.38837" lon="4.61977">
        <ele>1265.5</ele>
        <time>2026-08-18T11:16:19.989Z</time>
      </trkpt>
      <trkpt lat="45.38838" lon="4.61977">
        <ele>1265.5</ele>
        <time>2026-08-18T11:16:20.989Z</time>
      </trkpt>
      <trkpt lat="45.38839" lon="4.61977">
        <ele>1265.2</ele>
        <time>2026-08-18T11:16:21.989Z</time>
      </trkpt>
      <trkpt lat="45.38839" lon="4.61977">
        <ele>1265.1</ele>
        <time>2026-08-18T11:16:22.993Z</time>
      </trkpt>
      <trkpt lat="45.3884" lon="4.61976">
        <ele>1265</ele>
        <time>2026-08-18T11:16:24.988Z</time>
      </trkpt>
      <trkpt lat="45.3884" lon="4.61975">
        <ele>1265.1</ele>
        <time>2026-08-18T11:16:25.989Z</time>
      </trkpt>
      <trkpt lat="45.38841" lon="4.61972">
        <ele>1265.2</ele>
        <time>2026-08-18T11:16:27.989Z</time>
      </trkpt>
      <trkpt lat="45.38842" lon="4.61971">
        <ele>1265</ele>
        <time>2026-08-18T11:16:28.989Z</time>
      </trkpt>
      <trkpt lat="45.38842" lon="4.6197">
        <ele>1265.2</ele>
        <time>2026-08-18T11:16:29.989Z</time>
      </trkpt>
      <trkpt lat="45.38842" lon="4.61968">
        <ele>1265.4</ele>
        <time>2026-08-18T11:16:30.989Z</time>
      </trkpt>
      <trkpt lat="45.38842" lon="4.61967">
        <ele>1265.4</ele>
        <time>2026-08-18T11:16:31.989Z</time>
      </trkpt>
      <trkpt lat="45.38843" lon="4.61965">
        <ele>1265.2</ele>
        <time>2026-08-18T11:16:33.959Z</time>
      </trkpt>
      <trkpt lat="45.38843" lon="4.61964">
        <ele>1265.1</ele>
        <time>2026-08-18T11:16:34.988Z</time>
      </trkpt>
      <trkpt lat="45.38843" lon="4.61962">
        <ele>1265</ele>
        <time>2026-08-18T11:16:35.988Z</time>
      </trkpt>
      <trkpt lat="45.38842" lon="4.61961">
        <ele>1265</ele>
        <time>2026-08-18T11:16:36.988Z</time>
      </trkpt>
      <trkpt lat="45.38843" lon="4.61959">
        <ele>1264.8</ele>
        <time>2026-08-18T11:16:38.988Z</time>
      </trkpt>
      <trkpt lat="45.38844" lon="4.61958">
        <ele>1264.9</ele>
        <time>2026-08-18T11:16:39.988Z</time>
      </trkpt>
      <trkpt lat="45.38844" lon="4.61958">
        <ele>1264.9</ele>
        <time>2026-08-18T11:16:40.989Z</time>
      </trkpt>
      <trkpt lat="45.38845" lon="4.61956">
        <ele>1265.1</ele>
        <time>2026-08-18T11:16:42.983Z</time>
      </trkpt>
      <trkpt lat="45.38846" lon="4.61956">
        <ele>1265.1</ele>
        <time>2026-08-18T11:16:43.989Z</time>
      </trkpt>
      <trkpt lat="45.38847" lon="4.61954">
        <ele>1264.6</ele>
        <time>2026-08-18T11:16:45.988Z</time>
      </trkpt>
      <trkpt lat="45.38847" lon="4.61953">
        <ele>1264.6</ele>
        <time>2026-08-18T11:16:46.988Z</time>
      </trkpt>
      <trkpt lat="45.38847" lon="4.61952">
        <ele>1264.7</ele>
        <time>2026-08-18T11:16:47.988Z</time>
      </trkpt>
      <trkpt lat="45.38847" lon="4.61951">
        <ele>1264.6</ele>
        <time>2026-08-18T11:16:48.989Z</time>
      </trkpt>
      <trkpt lat="45.38847" lon="4.6195">
        <ele>1264.4</ele>
        <time>2026-08-18T11:16:49.989Z</time>
      </trkpt>
      <trkpt lat="45.38847" lon="4.61949">
        <ele>1264.2</ele>
        <time>2026-08-18T11:16:50.989Z</time>
      </trkpt>
      <trkpt lat="45.38847" lon="4.61946">
        <ele>1264.3</ele>
        <time>2026-08-18T11:16:52.988Z</time>
      </trkpt>
      <trkpt lat="45.38847" lon="4.61945">
        <ele>1263.9</ele>
        <time>2026-08-18T11:16:53.989Z</time>
      </trkpt>
      <trkpt lat="45.38848" lon="4.61942">
        <ele>1264.4</ele>
        <time>2026-08-18T11:16:55.989Z</time>
      </trkpt>
      <trkpt lat="45.38849" lon="4.61941">
        <ele>1264.3</ele>
        <time>2026-08-18T11:16:56.989Z</time>
      </trkpt>
      <trkpt lat="45.38849" lon="4.6194">
        <ele>1264</ele>
        <time>2026-08-18T11:16:57.989Z</time>
      </trkpt>
      <trkpt lat="45.38849" lon="4.61937">
        <ele>1264.5</ele>
        <time>2026-08-18T11:16:59.936Z</time>
      </trkpt>
      <trkpt lat="45.38849" lon="4.61935">
        <ele>1264.5</ele>
        <time>2026-08-18T11:17:00.989Z</time>
      </trkpt>
      <trkpt lat="45.38851" lon="4.61933">
        <ele>1263.5</ele>
        <time>2026-08-18T11:17:02.988Z</time>
      </trkpt>
      <trkpt lat="45.3885" lon="4.6193">
        <ele>1263.6</ele>
        <time>2026-08-18T11:17:04.988Z</time>
      </trkpt>
      <trkpt lat="45.38848" lon="4.61928">
        <ele>1264.4</ele>
        <time>2026-08-18T11:17:06.989Z</time>
      </trkpt>
      <trkpt lat="45.38849" lon="4.61927">
        <ele>1263.8</ele>
        <time>2026-08-18T11:17:08.998Z</time>
      </trkpt>
      <trkpt lat="45.38849" lon="4.61925">
        <ele>1262.3</ele>
        <time>2026-08-18T11:17:10.988Z</time>
      </trkpt>
      <trkpt lat="45.38848" lon="4.61923">
        <ele>1261.9</ele>
        <time>2026-08-18T11:17:11.989Z</time>
      </trkpt>
      <trkpt lat="45.38847" lon="4.61921">
        <ele>1262.2</ele>
        <time>2026-08-18T11:17:13.989Z</time>
      </trkpt>
      <trkpt lat="45.38846" lon="4.6192">
        <ele>1262.1</ele>
        <time>2026-08-18T11:17:14.989Z</time>
      </trkpt>
      <trkpt lat="45.38845" lon="4.61918">
        <ele>1263.8</ele>
        <time>2026-08-18T11:17:16.989Z</time>
      </trkpt>
      <trkpt lat="45.38844" lon="4.61918">
        <ele>1264.8</ele>
        <time>2026-08-18T11:17:17.989Z</time>
      </trkpt>
      <trkpt lat="45.38843" lon="4.61917">
        <ele>1265</ele>
        <time>2026-08-18T11:17:19.989Z</time>
      </trkpt>
      <trkpt lat="45.38843" lon="4.61917">
        <ele>1264.8</ele>
        <time>2026-08-18T11:17:20.989Z</time>
      </trkpt>
      <trkpt lat="45.38843" lon="4.61917">
        <ele>1265.1</ele>
        <time>2026-08-18T11:17:22.989Z</time>
      </trkpt>
      <trkpt lat="45.38843" lon="4.61917">
        <ele>1265.1</ele>
        <time>2026-08-18T11:17:23.989Z</time>
      </trkpt>
      <trkpt lat="45.38843" lon="4.61917">
        <ele>1265.7</ele>
        <time>2026-08-18T11:17:25.989Z</time>
      </trkpt>
      <trkpt lat="45.38843" lon="4.61916">
        <ele>1266.8</ele>
        <time>2026-08-18T11:17:27.989Z</time>
      </trkpt>
      <trkpt lat="45.38842" lon="4.61915">
        <ele>1267.6</ele>
        <time>2026-08-18T11:17:28.989Z</time>
      </trkpt>
      <trkpt lat="45.38842" lon="4.61915">
        <ele>1268.1</ele>
        <time>2026-08-18T11:17:29.989Z</time>
      </trkpt>
      <trkpt lat="45.38841" lon="4.61913">
        <ele>1268.1</ele>
        <time>2026-08-18T11:17:30.989Z</time>
      </trkpt>
      <trkpt lat="45.3884" lon="4.6191">
        <ele>1268.3</ele>
        <time>2026-08-18T11:17:32.987Z</time>
      </trkpt>
      <trkpt lat="45.38839" lon="4.61908">
        <ele>1268.9</ele>
        <time>2026-08-18T11:17:33.989Z</time>
      </trkpt>
      <trkpt lat="45.3884" lon="4.61905">
        <ele>1269</ele>
        <time>2026-08-18T11:17:35.988Z</time>
      </trkpt>
      <trkpt lat="45.38839" lon="4.61904">
        <ele>1267.9</ele>
        <time>2026-08-18T11:17:36.988Z</time>
      </trkpt>
      <trkpt lat="45.38839" lon="4.61903">
        <ele>1268.1</ele>
        <time>2026-08-18T11:17:37.989Z</time>
      </trkpt>
      <trkpt lat="45.38839" lon="4.61901">
        <ele>1267.8</ele>
        <time>2026-08-18T11:17:39.988Z</time>
      </trkpt>
      <trkpt lat="45.38838" lon="4.61901">
        <ele>1269</ele>
        <time>2026-08-18T11:17:40.989Z</time>
      </trkpt>
      <trkpt lat="45.38838" lon="4.619">
        <ele>1268.9</ele>
        <time>2026-08-18T11:17:41.989Z</time>
      </trkpt>
      <trkpt lat="45.38837" lon="4.619">
        <ele>1269.5</ele>
        <time>2026-08-18T11:17:42.989Z</time>
      </trkpt>
      <trkpt lat="45.38837" lon="4.61899">
        <ele>1270</ele>
        <time>2026-08-18T11:17:43.989Z</time>
      </trkpt>
      <trkpt lat="45.38836" lon="4.61897">
        <ele>1269.5</ele>
        <time>2026-08-18T11:17:45.977Z</time>
      </trkpt>
      <trkpt lat="45.38834" lon="4.61895">
        <ele>1269.2</ele>
        <time>2026-08-18T11:17:47.989Z</time>
      </trkpt>
      <trkpt lat="45.38833" lon="4.61895">
        <ele>1268.7</ele>
        <time>2026-08-18T11:17:48.989Z</time>
      </trkpt>
      <trkpt lat="45.38833" lon="4.61894">
        <ele>1268.6</ele>
        <time>2026-08-18T11:17:50.989Z</time>
      </trkpt>
      <trkpt lat="45.38833" lon="4.61893">
        <ele>1269.1</ele>
        <time>2026-08-18T11:17:51.993Z</time>
      </trkpt>
      <trkpt lat="45.38833" lon="4.61891">
        <ele>1269</ele>
        <time>2026-08-18T11:17:53.954Z</time>
      </trkpt>
      <trkpt lat="45.38832" lon="4.61889">
        <ele>1269.2</ele>
        <time>2026-08-18T11:17:54.988Z</time>
      </trkpt>
      <trkpt lat="45.38832" lon="4.61888">
        <ele>1269.9</ele>
        <time>2026-08-18T11:17:55.988Z</time>
      </trkpt>
      <trkpt lat="45.38832" lon="4.61886">
        <ele>1270.9</ele>
        <time>2026-08-18T11:17:57.988Z</time>
      </trkpt>
      <trkpt lat="45.38832" lon="4.61885">
        <ele>1270.3</ele>
        <time>2026-08-18T11:17:58.989Z</time>
      </trkpt>
      <trkpt lat="45.38831" lon="4.61883">
        <ele>1270</ele>
        <time>2026-08-18T11:18:00.942Z</time>
      </trkpt>
      <trkpt lat="45.38832" lon="4.61883">
        <ele>1270.9</ele>
        <time>2026-08-18T11:18:01.961Z</time>
      </trkpt>
      <trkpt lat="45.38832" lon="4.61882">
        <ele>1272.2</ele>
        <time>2026-08-18T11:18:02.989Z</time>
      </trkpt>
      <trkpt lat="45.38833" lon="4.61881">
        <ele>1272.7</ele>
        <time>2026-08-18T11:18:04.994Z</time>
      </trkpt>
      <trkpt lat="45.38833" lon="4.61879">
        <ele>1273</ele>
        <time>2026-08-18T11:18:06.989Z</time>
      </trkpt>
      <trkpt lat="45.38834" lon="4.61877">
        <ele>1273.5</ele>
        <time>2026-08-18T11:18:07.989Z</time>
      </trkpt>
      <trkpt lat="45.38834" lon="4.61876">
        <ele>1274.2</ele>
        <time>2026-08-18T11:18:08.989Z</time>
      </trkpt>
      <trkpt lat="45.38833" lon="4.61874">
        <ele>1275.6</ele>
        <time>2026-08-18T11:18:10.988Z</time>
      </trkpt>
      <trkpt lat="45.38833" lon="4.61872">
        <ele>1275.5</ele>
        <time>2026-08-18T11:18:11.989Z</time>
      </trkpt>
      <trkpt lat="45.38834" lon="4.61871">
        <ele>1275.7</ele>
        <time>2026-08-18T11:18:12.989Z</time>
      </trkpt>
      <trkpt lat="45.38834" lon="4.6187">
        <ele>1276.4</ele>
        <time>2026-08-18T11:18:13.989Z</time>
      </trkpt>
      <trkpt lat="45.38833" lon="4.61869">
        <ele>1276.8</ele>
        <time>2026-08-18T11:18:14.989Z</time>
      </trkpt>
      <trkpt lat="45.38832" lon="4.61868">
        <ele>1275.3</ele>
        <time>2026-08-18T11:18:16.988Z</time>
      </trkpt>
      <trkpt lat="45.38831" lon="4.61868">
        <ele>1276.1</ele>
        <time>2026-08-18T11:18:17.988Z</time>
      </trkpt>
      <trkpt lat="45.3883" lon="4.61868">
        <ele>1276.1</ele>
        <time>2026-08-18T11:18:18.989Z</time>
      </trkpt>
      <trkpt lat="45.38829" lon="4.61869">
        <ele>1275.8</ele>
        <time>2026-08-18T11:18:20.989Z</time>
      </trkpt>
      <trkpt lat="45.38829" lon="4.61868">
        <ele>1276.2</ele>
        <time>2026-08-18T11:18:21.989Z</time>
      </trkpt>
      <trkpt lat="45.38829" lon="4.61867">
        <ele>1276.7</ele>
        <time>2026-08-18T11:18:23.989Z</time>
      </trkpt>
      <trkpt lat="45.38829" lon="4.61866">
        <ele>1278.4</ele>
        <time>2026-08-18T11:18:25.988Z</time>
      </trkpt>
      <trkpt lat="45.38829" lon="4.61866">
        <ele>1278.6</ele>
        <time>2026-08-18T11:18:26.988Z</time>
      </trkpt>
      <trkpt lat="45.38829" lon="4.61866">
        <ele>1278.5</ele>
        <time>2026-08-18T11:18:27.989Z</time>
      </trkpt>
      <trkpt lat="45.38829" lon="4.61865">
        <ele>1278.6</ele>
        <time>2026-08-18T11:18:29.990Z</time>
      </trkpt>
      <trkpt lat="45.38828" lon="4.61864">
        <ele>1278.3</ele>
        <time>2026-08-18T11:18:32.018Z</time>
      </trkpt>
      <trkpt lat="45.38827" lon="4.61862">
        <ele>1280.8</ele>
        <time>2026-08-18T11:18:33.989Z</time>
      </trkpt>
      <trkpt lat="45.38827" lon="4.61862">
        <ele>1281.4</ele>
        <time>2026-08-18T11:18:34.989Z</time>
      </trkpt>
      <trkpt lat="45.38826" lon="4.61861">
        <ele>1281.4</ele>
        <time>2026-08-18T11:18:35.989Z</time>
      </trkpt>
      <trkpt lat="45.38825" lon="4.6186">
        <ele>1280.5</ele>
        <time>2026-08-18T11:18:37.989Z</time>
      </trkpt>
      <trkpt lat="45.38825" lon="4.61861">
        <ele>1280.2</ele>
        <time>2026-08-18T11:18:39.989Z</time>
      </trkpt>
      <trkpt lat="45.38824" lon="4.61861">
        <ele>1280</ele>
        <time>2026-08-18T11:18:41.989Z</time>
      </trkpt>
      <trkpt lat="45.38823" lon="4.6186">
        <ele>1279.8</ele>
        <time>2026-08-18T11:18:42.989Z</time>
      </trkpt>
      <trkpt lat="45.38823" lon="4.61859">
        <ele>1280.7</ele>
        <time>2026-08-18T11:18:43.989Z</time>
      </trkpt>
      <trkpt lat="45.38822" lon="4.61858">
        <ele>1281.5</ele>
        <time>2026-08-18T11:18:45.989Z</time>
      </trkpt>
      <trkpt lat="45.3882" lon="4.61857">
        <ele>1281.7</ele>
        <time>2026-08-18T11:18:47.983Z</time>
      </trkpt>
      <trkpt lat="45.3882" lon="4.61856">
        <ele>1282.5</ele>
        <time>2026-08-18T11:18:48.988Z</time>
      </trkpt>
      <trkpt lat="45.38819" lon="4.61855">
        <ele>1283</ele>
        <time>2026-08-18T11:18:49.989Z</time>
      </trkpt>
      <trkpt lat="45.38818" lon="4.61855">
        <ele>1283.2</ele>
        <time>2026-08-18T11:18:50.989Z</time>
      </trkpt>
      <trkpt lat="45.38818" lon="4.61855">
        <ele>1283</ele>
        <time>2026-08-18T11:18:51.989Z</time>
      </trkpt>
      <trkpt lat="45.38818" lon="4.61854">
        <ele>1283.4</ele>
        <time>2026-08-18T11:18:52.989Z</time>
      </trkpt>
      <trkpt lat="45.38817" lon="4.61853">
        <ele>1283.7</ele>
        <time>2026-08-18T11:18:53.989Z</time>
      </trkpt>
      <trkpt lat="45.38817" lon="4.61851">
        <ele>1283.6</ele>
        <time>2026-08-18T11:18:55.876Z</time>
      </trkpt>
      <trkpt lat="45.38817" lon="4.6185">
        <ele>1283.6</ele>
        <time>2026-08-18T11:18:56.988Z</time>
      </trkpt>
      <trkpt lat="45.38816" lon="4.61849">
        <ele>1283.1</ele>
        <time>2026-08-18T11:18:57.989Z</time>
      </trkpt>
      <trkpt lat="45.38815" lon="4.61847">
        <ele>1283.7</ele>
        <time>2026-08-18T11:18:59.987Z</time>
      </trkpt>
      <trkpt lat="45.38815" lon="4.61845">
        <ele>1283.5</ele>
        <time>2026-08-18T11:19:01.989Z</time>
      </trkpt>
      <trkpt lat="45.38816" lon="4.61844">
        <ele>1283.8</ele>
        <time>2026-08-18T11:19:03.994Z</time>
      </trkpt>
      <trkpt lat="45.38817" lon="4.61843">
        <ele>1284.6</ele>
        <time>2026-08-18T11:19:05.989Z</time>
      </trkpt>
      <trkpt lat="45.38817" lon="4.61842">
        <ele>1284.6</ele>
        <time>2026-08-18T11:19:06.989Z</time>
      </trkpt>
      <trkpt lat="45.38817" lon="4.61841">
        <ele>1285.7</ele>
        <time>2026-08-18T11:19:07.989Z</time>
      </trkpt>
      <trkpt lat="45.38817" lon="4.6184">
        <ele>1286</ele>
        <time>2026-08-18T11:19:08.989Z</time>
      </trkpt>
      <trkpt lat="45.38817" lon="4.61839">
        <ele>1286.1</ele>
        <time>2026-08-18T11:19:09.989Z</time>
      </trkpt>
      <trkpt lat="45.38817" lon="4.61838">
        <ele>1286.8</ele>
        <time>2026-08-18T11:19:11.954Z</time>
      </trkpt>
      <trkpt lat="45.38817" lon="4.61837">
        <ele>1286.8</ele>
        <time>2026-08-18T11:19:12.982Z</time>
      </trkpt>
      <trkpt lat="45.38816" lon="4.61836">
        <ele>1287.4</ele>
        <time>2026-08-18T11:19:13.988Z</time>
      </trkpt>
      <trkpt lat="45.38816" lon="4.61835">
        <ele>1287.4</ele>
        <time>2026-08-18T11:19:15.016Z</time>
      </trkpt>
      <trkpt lat="45.38815" lon="4.61834">
        <ele>1288.5</ele>
        <time>2026-08-18T11:19:16.995Z</time>
      </trkpt>
      <trkpt lat="45.38815" lon="4.61832">
        <ele>1290.1</ele>
        <time>2026-08-18T11:19:18.989Z</time>
      </trkpt>
      <trkpt lat="45.38815" lon="4.61832">
        <ele>1290.6</ele>
        <time>2026-08-18T11:19:19.989Z</time>
      </trkpt>
      <trkpt lat="45.38815" lon="4.61831">
        <ele>1291</ele>
        <time>2026-08-18T11:19:20.989Z</time>
      </trkpt>
      <trkpt lat="45.38814" lon="4.61829">
        <ele>1291.5</ele>
        <time>2026-08-18T11:19:22.989Z</time>
      </trkpt>
      <trkpt lat="45.38814" lon="4.61828">
        <ele>1291.3</ele>
        <time>2026-08-18T11:19:23.989Z</time>
      </trkpt>
      <trkpt lat="45.38814" lon="4.61827">
        <ele>1291.9</ele>
        <time>2026-08-18T11:19:24.990Z</time>
      </trkpt>
      <trkpt lat="45.38813" lon="4.61826">
        <ele>1291.7</ele>
        <time>2026-08-18T11:19:26.989Z</time>
      </trkpt>
      <trkpt lat="45.38813" lon="4.61825">
        <ele>1291.3</ele>
        <time>2026-08-18T11:19:28.989Z</time>
      </trkpt>
      <trkpt lat="45.38813" lon="4.61823">
        <ele>1291.4</ele>
        <time>2026-08-18T11:19:30.989Z</time>
      </trkpt>
      <trkpt lat="45.38813" lon="4.61822">
        <ele>1291</ele>
        <time>2026-08-18T11:19:31.989Z</time>
      </trkpt>
      <trkpt lat="45.38814" lon="4.6182">
        <ele>1290.8</ele>
        <time>2026-08-18T11:19:33.959Z</time>
      </trkpt>
      <trkpt lat="45.38814" lon="4.61819">
        <ele>1290.5</ele>
        <time>2026-08-18T11:19:34.988Z</time>
      </trkpt>
      <trkpt lat="45.38812" lon="4.61819">
        <ele>1290.5</ele>
        <time>2026-08-18T11:19:36.989Z</time>
      </trkpt>
      <trkpt lat="45.38812" lon="4.61819">
        <ele>1290.5</ele>
        <time>2026-08-18T11:19:37.998Z</time>
      </trkpt>
      <trkpt lat="45.38811" lon="4.61819">
        <ele>1290.4</ele>
        <time>2026-08-18T11:19:39.989Z</time>
      </trkpt>
      <trkpt lat="45.3881" lon="4.61819">
        <ele>1290.7</ele>
        <time>2026-08-18T11:19:40.989Z</time>
      </trkpt>
      <trkpt lat="45.3881" lon="4.61819">
        <ele>1291</ele>
        <time>2026-08-18T11:19:41.992Z</time>
      </trkpt>
      <trkpt lat="45.38809" lon="4.61818">
        <ele>1291.2</ele>
        <time>2026-08-18T11:19:43.989Z</time>
      </trkpt>
      <trkpt lat="45.38808" lon="4.61818">
        <ele>1291.2</ele>
        <time>2026-08-18T11:19:44.989Z</time>
      </trkpt>
      <trkpt lat="45.38808" lon="4.61818">
        <ele>1291.2</ele>
        <time>2026-08-18T11:19:46.016Z</time>
      </trkpt>
      <trkpt lat="45.38808" lon="4.61818">
        <ele>1290.9</ele>
        <time>2026-08-18T11:19:47.989Z</time>
      </trkpt>
      <trkpt lat="45.38808" lon="4.61818">
        <ele>1291</ele>
        <time>2026-08-18T11:19:48.989Z</time>
      </trkpt>
      <trkpt lat="45.38808" lon="4.61818">
        <ele>1291.1</ele>
        <time>2026-08-18T11:19:49.989Z</time>
      </trkpt>
      <trkpt lat="45.38808" lon="4.61818">
        <ele>1291.3</ele>
        <time>2026-08-18T11:19:51.989Z</time>
      </trkpt>
      <trkpt lat="45.38808" lon="4.61818">
        <ele>1291.3</ele>
        <time>2026-08-18T11:19:53.988Z</time>
      </trkpt>
      <trkpt lat="45.38809" lon="4.61817">
        <ele>1291.6</ele>
        <time>2026-08-18T11:19:54.988Z</time>
      </trkpt>
      <trkpt lat="45.3881" lon="4.61817">
        <ele>1291.9</ele>
        <time>2026-08-18T11:19:55.988Z</time>
      </trkpt>
      <trkpt lat="45.38811" lon="4.61816">
        <ele>1290.9</ele>
        <time>2026-08-18T11:19:56.989Z</time>
      </trkpt>
      <trkpt lat="45.38813" lon="4.61816">
        <ele>1291</ele>
        <time>2026-08-18T11:19:57.989Z</time>
      </trkpt>
      <trkpt lat="45.38815" lon="4.61816">
        <ele>1290.9</ele>
        <time>2026-08-18T11:19:59.989Z</time>
      </trkpt>
      <trkpt lat="45.38816" lon="4.61815">
        <ele>1290.4</ele>
        <time>2026-08-18T11:20:01.989Z</time>
      </trkpt>
      <trkpt lat="45.38818" lon="4.61814">
        <ele>1289.8</ele>
        <time>2026-08-18T11:20:03.989Z</time>
      </trkpt>
      <trkpt lat="45.38818" lon="4.61814">
        <ele>1290</ele>
        <time>2026-08-18T11:20:04.989Z</time>
      </trkpt>
      <trkpt lat="45.38818" lon="4.61814">
        <ele>1290.3</ele>
        <time>2026-08-18T11:20:06.988Z</time>
      </trkpt>
      <trkpt lat="45.38818" lon="4.61814">
        <ele>1290.5</ele>
        <time>2026-08-18T11:20:07.989Z</time>
      </trkpt>
      <trkpt lat="45.38818" lon="4.61814">
        <ele>1291.1</ele>
        <time>2026-08-18T11:20:08.989Z</time>
      </trkpt>
      <trkpt lat="45.38818" lon="4.61814">
        <ele>1291.4</ele>
        <time>2026-08-18T11:20:09.989Z</time>
      </trkpt>
      <trkpt lat="45.38818" lon="4.61814">
        <ele>1291.2</ele>
        <time>2026-08-18T11:20:10.989Z</time>
      </trkpt>
      <trkpt lat="45.38819" lon="4.61815">
        <ele>1291.2</ele>
        <time>2026-08-18T11:20:12.001Z</time>
      </trkpt>
      <trkpt lat="45.38819" lon="4.61815">
        <ele>1291.1</ele>
        <time>2026-08-18T11:20:13.988Z</time>
      </trkpt>
      <trkpt lat="45.38819" lon="4.61815">
        <ele>1291.1</ele>
        <time>2026-08-18T11:20:15.996Z</time>
      </trkpt>
      <trkpt lat="45.3882" lon="4.61815">
        <ele>1291.1</ele>
        <time>2026-08-18T11:20:17.987Z</time>
      </trkpt>
      <trkpt lat="45.3882" lon="4.61815">
        <ele>1291.1</ele>
        <time>2026-08-18T11:20:18.987Z</time>
      </trkpt>
      <trkpt lat="45.3882" lon="4.61815">
        <ele>1291.1</ele>
        <time>2026-08-18T11:20:19.989Z</time>
      </trkpt>
      <trkpt lat="45.3882" lon="4.61815">
        <ele>1291.1</ele>
        <time>2026-08-18T11:20:21.988Z</time>
      </trkpt>
      <trkpt lat="45.3882" lon="4.61814">
        <ele>1290.9</ele>
        <time>2026-08-18T11:20:23.987Z</time>
      </trkpt>
      <trkpt lat="45.3882" lon="4.61814">
        <ele>1290.8</ele>
        <time>2026-08-18T11:20:24.988Z</time>
      </trkpt>
      <trkpt lat="45.3882" lon="4.61814">
        <ele>1290.9</ele>
        <time>2026-08-18T11:20:25.988Z</time>
      </trkpt>
      <trkpt lat="45.38819" lon="4.61812">
        <ele>1290.4</ele>
        <time>2026-08-18T11:20:27.987Z</time>
      </trkpt>
      <trkpt lat="45.38819" lon="4.61809">
        <ele>1290.9</ele>
        <time>2026-08-18T11:20:29.986Z</time>
      </trkpt>
      <trkpt lat="45.3882" lon="4.61808">
        <ele>1291.1</ele>
        <time>2026-08-18T11:20:30.988Z</time>
      </trkpt>
      <trkpt lat="45.3882" lon="4.61806">
        <ele>1290.5</ele>
        <time>2026-08-18T11:20:31.988Z</time>
      </trkpt>
      <trkpt lat="45.3882" lon="4.61805">
        <ele>1290.6</ele>
        <time>2026-08-18T11:20:32.988Z</time>
      </trkpt>
      <trkpt lat="45.3882" lon="4.61804">
        <ele>1290.2</ele>
        <time>2026-08-18T11:20:33.988Z</time>
      </trkpt>
      <trkpt lat="45.38821" lon="4.61802">
        <ele>1291.1</ele>
        <time>2026-08-18T11:20:35.987Z</time>
      </trkpt>
      <trkpt lat="45.38821" lon="4.61801">
        <ele>1291</ele>
        <time>2026-08-18T11:20:36.988Z</time>
      </trkpt>
      <trkpt lat="45.38821" lon="4.618">
        <ele>1290.9</ele>
        <time>2026-08-18T11:20:38.988Z</time>
      </trkpt>
      <trkpt lat="45.38821" lon="4.618">
        <ele>1291.3</ele>
        <time>2026-08-18T11:20:39.988Z</time>
      </trkpt>
      <trkpt lat="45.38822" lon="4.618">
        <ele>1291.1</ele>
        <time>2026-08-18T11:20:40.988Z</time>
      </trkpt>
      <trkpt lat="45.38822" lon="4.61799">
        <ele>1291.2</ele>
        <time>2026-08-18T11:20:41.988Z</time>
      </trkpt>
      <trkpt lat="45.38822" lon="4.61799">
        <ele>1290.8</ele>
        <time>2026-08-18T11:20:42.988Z</time>
      </trkpt>
      <trkpt lat="45.38822" lon="4.61798">
        <ele>1290.8</ele>
        <time>2026-08-18T11:20:43.988Z</time>
      </trkpt>
      <trkpt lat="45.38822" lon="4.61797">
        <ele>1290.6</ele>
        <time>2026-08-18T11:20:44.988Z</time>
      </trkpt>
      <trkpt lat="45.38822" lon="4.61797">
        <ele>1290.3</ele>
        <time>2026-08-18T11:20:45.988Z</time>
      </trkpt>
      <trkpt lat="45.38822" lon="4.61796">
        <ele>1290.7</ele>
        <time>2026-08-18T11:20:46.988Z</time>
      </trkpt>
      <trkpt lat="45.38822" lon="4.61795">
        <ele>1290.6</ele>
        <time>2026-08-18T11:20:47.988Z</time>
      </trkpt>
      <trkpt lat="45.38822" lon="4.61794">
        <ele>1290.3</ele>
        <time>2026-08-18T11:20:48.988Z</time>
      </trkpt>
      <trkpt lat="45.38822" lon="4.61793">
        <ele>1290</ele>
        <time>2026-08-18T11:20:49.988Z</time>
      </trkpt>
      <trkpt lat="45.38823" lon="4.61792">
        <ele>1290.2</ele>
        <time>2026-08-18T11:20:51.988Z</time>
      </trkpt>
      <trkpt lat="45.38823" lon="4.61791">
        <ele>1290.2</ele>
        <time>2026-08-18T11:20:52.997Z</time>
      </trkpt>
      <trkpt lat="45.38823" lon="4.6179">
        <ele>1289.3</ele>
        <time>2026-08-18T11:20:54.987Z</time>
      </trkpt>
      <trkpt lat="45.38824" lon="4.61789">
        <ele>1289.2</ele>
        <time>2026-08-18T11:20:55.988Z</time>
      </trkpt>
      <trkpt lat="45.38824" lon="4.61789">
        <ele>1289.3</ele>
        <time>2026-08-18T11:20:56.988Z</time>
      </trkpt>
      <trkpt lat="45.38824" lon="4.61788">
        <ele>1289.6</ele>
        <time>2026-08-18T11:20:57.988Z</time>
      </trkpt>
      <trkpt lat="45.38825" lon="4.61788">
        <ele>1289.7</ele>
        <time>2026-08-18T11:20:58.988Z</time>
      </trkpt>
      <trkpt lat="45.38825" lon="4.61787">
        <ele>1289.7</ele>
        <time>2026-08-18T11:21:00.016Z</time>
      </trkpt>
      <trkpt lat="45.38826" lon="4.61785">
        <ele>1289.5</ele>
        <time>2026-08-18T11:21:01.988Z</time>
      </trkpt>
      <trkpt lat="45.38828" lon="4.61785">
        <ele>1289.2</ele>
        <time>2026-08-18T11:21:03.914Z</time>
      </trkpt>
      <trkpt lat="45.38829" lon="4.61784">
        <ele>1288.9</ele>
        <time>2026-08-18T11:21:04.988Z</time>
      </trkpt>
      <trkpt lat="45.38829" lon="4.61784">
        <ele>1288.9</ele>
        <time>2026-08-18T11:21:05.988Z</time>
      </trkpt>
      <trkpt lat="45.3883" lon="4.61784">
        <ele>1288.8</ele>
        <time>2026-08-18T11:21:07.003Z</time>
      </trkpt>
      <trkpt lat="45.38832" lon="4.61784">
        <ele>1288.6</ele>
        <time>2026-08-18T11:21:08.987Z</time>
      </trkpt>
      <trkpt lat="45.38832" lon="4.61783">
        <ele>1288.8</ele>
        <time>2026-08-18T11:21:09.988Z</time>
      </trkpt>
      <trkpt lat="45.38833" lon="4.61782">
        <ele>1288.8</ele>
        <time>2026-08-18T11:21:10.995Z</time>
      </trkpt>
      <trkpt lat="45.38833" lon="4.61781">
        <ele>1289</ele>
        <time>2026-08-18T11:21:12.988Z</time>
      </trkpt>
      <trkpt lat="45.38834" lon="4.61779">
        <ele>1288.8</ele>
        <time>2026-08-18T11:21:14.989Z</time>
      </trkpt>
      <trkpt lat="45.38835" lon="4.61778">
        <ele>1288.4</ele>
        <time>2026-08-18T11:21:16.988Z</time>
      </trkpt>
      <trkpt lat="45.38835" lon="4.61776">
        <ele>1288.3</ele>
        <time>2026-08-18T11:21:18.988Z</time>
      </trkpt>
      <trkpt lat="45.38836" lon="4.61775">
        <ele>1287.3</ele>
        <time>2026-08-18T11:21:19.988Z</time>
      </trkpt>
      <trkpt lat="45.38836" lon="4.61774">
        <ele>1287.3</ele>
        <time>2026-08-18T11:21:20.988Z</time>
      </trkpt>
      <trkpt lat="45.38836" lon="4.61773">
        <ele>1287.2</ele>
        <time>2026-08-18T11:21:22.988Z</time>
      </trkpt>
      <trkpt lat="45.38836" lon="4.61771">
        <ele>1286.9</ele>
        <time>2026-08-18T11:21:24.987Z</time>
      </trkpt>
      <trkpt lat="45.38836" lon="4.6177">
        <ele>1286.9</ele>
        <time>2026-08-18T11:21:25.994Z</time>
      </trkpt>
      <trkpt lat="45.38836" lon="4.61768">
        <ele>1287.2</ele>
        <time>2026-08-18T11:21:27.987Z</time>
      </trkpt>
      <trkpt lat="45.38836" lon="4.61767">
        <ele>1287.2</ele>
        <time>2026-08-18T11:21:28.988Z</time>
      </trkpt>
      <trkpt lat="45.38836" lon="4.61766">
        <ele>1287.2</ele>
        <time>2026-08-18T11:21:30.988Z</time>
      </trkpt>
      <trkpt lat="45.38836" lon="4.61765">
        <ele>1287.2</ele>
        <time>2026-08-18T11:21:31.988Z</time>
      </trkpt>
      <trkpt lat="45.38836" lon="4.61763">
        <ele>1287.9</ele>
        <time>2026-08-18T11:21:33.988Z</time>
      </trkpt>
      <trkpt lat="45.38836" lon="4.61762">
        <ele>1288.4</ele>
        <time>2026-08-18T11:21:34.988Z</time>
      </trkpt>
      <trkpt lat="45.38836" lon="4.61762">
        <ele>1288.7</ele>
        <time>2026-08-18T11:21:35.988Z</time>
      </trkpt>
      <trkpt lat="45.38836" lon="4.61762">
        <ele>1289.6</ele>
        <time>2026-08-18T11:21:37.988Z</time>
      </trkpt>
      <trkpt lat="45.38836" lon="4.61762">
        <ele>1289.6</ele>
        <time>2026-08-18T11:21:38.988Z</time>
      </trkpt>
      <trkpt lat="45.38836" lon="4.61762">
        <ele>1289.6</ele>
        <time>2026-08-18T11:21:40.987Z</time>
      </trkpt>
      <trkpt lat="45.38836" lon="4.61762">
        <ele>1289.6</ele>
        <time>2026-08-18T11:21:41.988Z</time>
      </trkpt>
      <trkpt lat="45.38836" lon="4.61762">
        <ele>1289.6</ele>
        <time>2026-08-18T11:21:42.988Z</time>
      </trkpt>
      <trkpt lat="45.38837" lon="4.61762">
        <ele>1289.6</ele>
        <time>2026-08-18T11:21:44.988Z</time>
      </trkpt>
      <trkpt lat="45.38837" lon="4.61762">
        <ele>1289.4</ele>
        <time>2026-08-18T11:21:46.980Z</time>
      </trkpt>
      <trkpt lat="45.38837" lon="4.61762">
        <ele>1289.6</ele>
        <time>2026-08-18T11:21:47.988Z</time>
      </trkpt>
      <trkpt lat="45.38837" lon="4.61761">
        <ele>1289.8</ele>
        <time>2026-08-18T11:21:48.988Z</time>
      </trkpt>
      <trkpt lat="45.38837" lon="4.6176">
        <ele>1289.8</ele>
        <time>2026-08-18T11:21:49.988Z</time>
      </trkpt>
      <trkpt lat="45.38837" lon="4.61757">
        <ele>1290.5</ele>
        <time>2026-08-18T11:21:51.988Z</time>
      </trkpt>
      <trkpt lat="45.38837" lon="4.61756">
        <ele>1290.9</ele>
        <time>2026-08-18T11:21:52.988Z</time>
      </trkpt>
      <trkpt lat="45.38838" lon="4.61753">
        <ele>1290.8</ele>
        <time>2026-08-18T11:21:54.987Z</time>
      </trkpt>
      <trkpt lat="45.38838" lon="4.6175">
        <ele>1290.5</ele>
        <time>2026-08-18T11:21:56.988Z</time>
      </trkpt>
      <trkpt lat="45.38838" lon="4.61747">
        <ele>1290.1</ele>
        <time>2026-08-18T11:21:58.987Z</time>
      </trkpt>
      <trkpt lat="45.38837" lon="4.61746">
        <ele>1290.1</ele>
        <time>2026-08-18T11:21:59.987Z</time>
      </trkpt>
      <trkpt lat="45.38838" lon="4.61744">
        <ele>1289.4</ele>
        <time>2026-08-18T11:22:00.987Z</time>
      </trkpt>
      <trkpt lat="45.38837" lon="4.61743">
        <ele>1289.3</ele>
        <time>2026-08-18T11:22:01.987Z</time>
      </trkpt>
      <trkpt lat="45.38837" lon="4.61741">
        <ele>1289.5</ele>
        <time>2026-08-18T11:22:02.987Z</time>
      </trkpt>
      <trkpt lat="45.38837" lon="4.6174">
        <ele>1290</ele>
        <time>2026-08-18T11:22:03.987Z</time>
      </trkpt>
      <trkpt lat="45.38837" lon="4.61739">
        <ele>1290</ele>
        <time>2026-08-18T11:22:05.000Z</time>
      </trkpt>
      <trkpt lat="45.38837" lon="4.61737">
        <ele>1290.8</ele>
        <time>2026-08-18T11:22:06.988Z</time>
      </trkpt>
      <trkpt lat="45.38837" lon="4.61736">
        <ele>1291.2</ele>
        <time>2026-08-18T11:22:07.988Z</time>
      </trkpt>
      <trkpt lat="45.38836" lon="4.61735">
        <ele>1291.4</ele>
        <time>2026-08-18T11:22:08.988Z</time>
      </trkpt>
      <trkpt lat="45.38835" lon="4.61734">
        <ele>1291.6</ele>
        <time>2026-08-18T11:22:09.990Z</time>
      </trkpt>
      <trkpt lat="45.38834" lon="4.61732">
        <ele>1291.1</ele>
        <time>2026-08-18T11:22:11.988Z</time>
      </trkpt>
      <trkpt lat="45.38834" lon="4.61731">
        <ele>1291.3</ele>
        <time>2026-08-18T11:22:12.988Z</time>
      </trkpt>
      <trkpt lat="45.38834" lon="4.61728">
        <ele>1292</ele>
        <time>2026-08-18T11:22:14.988Z</time>
      </trkpt>
      <trkpt lat="45.38834" lon="4.61726">
        <ele>1291.6</ele>
        <time>2026-08-18T11:22:16.988Z</time>
      </trkpt>
      <trkpt lat="45.38833" lon="4.61724">
        <ele>1292</ele>
        <time>2026-08-18T11:22:18.987Z</time>
      </trkpt>
      <trkpt lat="45.38833" lon="4.61722">
        <ele>1292</ele>
        <time>2026-08-18T11:22:19.987Z</time>
      </trkpt>
      <trkpt lat="45.38833" lon="4.61721">
        <ele>1292.2</ele>
        <time>2026-08-18T11:22:20.988Z</time>
      </trkpt>
      <trkpt lat="45.38834" lon="4.61719">
        <ele>1292.1</ele>
        <time>2026-08-18T11:22:22.988Z</time>
      </trkpt>
      <trkpt lat="45.38833" lon="4.61717">
        <ele>1292.3</ele>
        <time>2026-08-18T11:22:24.987Z</time>
      </trkpt>
      <trkpt lat="45.38833" lon="4.61715">
        <ele>1292.3</ele>
        <time>2026-08-18T11:22:25.998Z</time>
      </trkpt>
      <trkpt lat="45.38832" lon="4.61713">
        <ele>1291.5</ele>
        <time>2026-08-18T11:22:27.988Z</time>
      </trkpt>
      <trkpt lat="45.38833" lon="4.61711">
        <ele>1291.5</ele>
        <time>2026-08-18T11:22:29.988Z</time>
      </trkpt>
      <trkpt lat="45.38835" lon="4.6171">
        <ele>1291.8</ele>
        <time>2026-08-18T11:22:31.988Z</time>
      </trkpt>
      <trkpt lat="45.38835" lon="4.61708">
        <ele>1291.2</ele>
        <time>2026-08-18T11:22:33.987Z</time>
      </trkpt>
      <trkpt lat="45.38835" lon="4.61707">
        <ele>1290.9</ele>
        <time>2026-08-18T11:22:34.987Z</time>
      </trkpt>
      <trkpt lat="45.38835" lon="4.61706">
        <ele>1291.4</ele>
        <time>2026-08-18T11:22:35.988Z</time>
      </trkpt>
      <trkpt lat="45.38835" lon="4.61705">
        <ele>1291.9</ele>
        <time>2026-08-18T11:22:36.988Z</time>
      </trkpt>
      <trkpt lat="45.38835" lon="4.61704">
        <ele>1290.9</ele>
        <time>2026-08-18T11:22:37.988Z</time>
      </trkpt>
      <trkpt lat="45.38834" lon="4.61703">
        <ele>1291</ele>
        <time>2026-08-18T11:22:39.988Z</time>
      </trkpt>
      <trkpt lat="45.38834" lon="4.61702">
        <ele>1291.4</ele>
        <time>2026-08-18T11:22:40.988Z</time>
      </trkpt>
      <trkpt lat="45.38834" lon="4.61702">
        <ele>1290.8</ele>
        <time>2026-08-18T11:22:41.988Z</time>
      </trkpt>
      <trkpt lat="45.38834" lon="4.617">
        <ele>1290.7</ele>
        <time>2026-08-18T11:22:43.988Z</time>
      </trkpt>
      <trkpt lat="45.38834" lon="4.61698">
        <ele>1290.3</ele>
        <time>2026-08-18T11:22:44.988Z</time>
      </trkpt>
      <trkpt lat="45.38834" lon="4.61696">
        <ele>1290</ele>
        <time>2026-08-18T11:22:46.988Z</time>
      </trkpt>
      <trkpt lat="45.38834" lon="4.61694">
        <ele>1288.8</ele>
        <time>2026-08-18T11:22:48.988Z</time>
      </trkpt>
      <trkpt lat="45.38834" lon="4.61691">
        <ele>1289.1</ele>
        <time>2026-08-18T11:22:50.988Z</time>
      </trkpt>
      <trkpt lat="45.38834" lon="4.61689">
        <ele>1288.9</ele>
        <time>2026-08-18T11:22:52.987Z</time>
      </trkpt>
      <trkpt lat="45.38833" lon="4.61688">
        <ele>1289.5</ele>
        <time>2026-08-18T11:22:53.987Z</time>
      </trkpt>
      <trkpt lat="45.38833" lon="4.61687">
        <ele>1289.2</ele>
        <time>2026-08-18T11:22:54.987Z</time>
      </trkpt>
      <trkpt lat="45.38833" lon="4.61686">
        <ele>1289.5</ele>
        <time>2026-08-18T11:22:55.988Z</time>
      </trkpt>
      <trkpt lat="45.38833" lon="4.61685">
        <ele>1289.2</ele>
        <time>2026-08-18T11:22:56.988Z</time>
      </trkpt>
      <trkpt lat="45.38833" lon="4.61684">
        <ele>1288.6</ele>
        <time>2026-08-18T11:22:57.988Z</time>
      </trkpt>
      <trkpt lat="45.38834" lon="4.61683">
        <ele>1288.5</ele>
        <time>2026-08-18T11:22:58.988Z</time>
      </trkpt>
      <trkpt lat="45.38835" lon="4.6168">
        <ele>1288.1</ele>
        <time>2026-08-18T11:23:00.987Z</time>
      </trkpt>
      <trkpt lat="45.38836" lon="4.61679">
        <ele>1287.2</ele>
        <time>2026-08-18T11:23:01.987Z</time>
      </trkpt>
      <trkpt lat="45.38836" lon="4.61678">
        <ele>1287.1</ele>
        <time>2026-08-18T11:23:02.988Z</time>
      </trkpt>
      <trkpt lat="45.38837" lon="4.61677">
        <ele>1286.4</ele>
        <time>2026-08-18T11:23:03.988Z</time>
      </trkpt>
      <trkpt lat="45.38838" lon="4.61675">
        <ele>1286.4</ele>
        <time>2026-08-18T11:23:05.988Z</time>
      </trkpt>
      <trkpt lat="45.38839" lon="4.61672">
        <ele>1286.8</ele>
        <time>2026-08-18T11:23:07.987Z</time>
      </trkpt>
      <trkpt lat="45.3884" lon="4.61671">
        <ele>1287.3</ele>
        <time>2026-08-18T11:23:08.988Z</time>
      </trkpt>
      <trkpt lat="45.3884" lon="4.6167">
        <ele>1287.3</ele>
        <time>2026-08-18T11:23:09.988Z</time>
      </trkpt>
      <trkpt lat="45.38841" lon="4.61669">
        <ele>1287.3</ele>
        <time>2026-08-18T11:23:10.988Z</time>
      </trkpt>
      <trkpt lat="45.38841" lon="4.61668">
        <ele>1287.1</ele>
        <time>2026-08-18T11:23:12.988Z</time>
      </trkpt>
      <trkpt lat="45.38841" lon="4.61667">
        <ele>1287.1</ele>
        <time>2026-08-18T11:23:13.988Z</time>
      </trkpt>
      <trkpt lat="45.38842" lon="4.61666">
        <ele>1286.5</ele>
        <time>2026-08-18T11:23:14.988Z</time>
      </trkpt>
      <trkpt lat="45.38844" lon="4.61663">
        <ele>1286.1</ele>
        <time>2026-08-18T11:23:16.988Z</time>
      </trkpt>
      <trkpt lat="45.38845" lon="4.61662">
        <ele>1286</ele>
        <time>2026-08-18T11:23:17.988Z</time>
      </trkpt>
      <trkpt lat="45.38847" lon="4.61661">
        <ele>1285.4</ele>
        <time>2026-08-18T11:23:19.988Z</time>
      </trkpt>
      <trkpt lat="45.3885" lon="4.6166">
        <ele>1285.2</ele>
        <time>2026-08-18T11:23:21.902Z</time>
      </trkpt>
      <trkpt lat="45.38851" lon="4.6166">
        <ele>1285.3</ele>
        <time>2026-08-18T11:23:22.988Z</time>
      </trkpt>
      <trkpt lat="45.38852" lon="4.61659">
        <ele>1285.7</ele>
        <time>2026-08-18T11:23:23.988Z</time>
      </trkpt>
      <trkpt lat="45.38853" lon="4.61658">
        <ele>1285.4</ele>
        <time>2026-08-18T11:23:24.988Z</time>
      </trkpt>
      <trkpt lat="45.38854" lon="4.61656">
        <ele>1285</ele>
        <time>2026-08-18T11:23:26.988Z</time>
      </trkpt>
      <trkpt lat="45.38856" lon="4.61653">
        <ele>1285.9</ele>
        <time>2026-08-18T11:23:28.986Z</time>
      </trkpt>
      <trkpt lat="45.38856" lon="4.61652">
        <ele>1285.8</ele>
        <time>2026-08-18T11:23:29.987Z</time>
      </trkpt>
      <trkpt lat="45.38857" lon="4.61651">
        <ele>1285.6</ele>
        <time>2026-08-18T11:23:30.988Z</time>
      </trkpt>
      <trkpt lat="45.38857" lon="4.61648">
        <ele>1285.9</ele>
        <time>2026-08-18T11:23:32.988Z</time>
      </trkpt>
      <trkpt lat="45.38858" lon="4.61646">
        <ele>1286.2</ele>
        <time>2026-08-18T11:23:33.988Z</time>
      </trkpt>
      <trkpt lat="45.38858" lon="4.61643">
        <ele>1285.9</ele>
        <time>2026-08-18T11:23:35.976Z</time>
      </trkpt>
      <trkpt lat="45.38858" lon="4.61642">
        <ele>1285.4</ele>
        <time>2026-08-18T11:23:36.988Z</time>
      </trkpt>
      <trkpt lat="45.3886" lon="4.61639">
        <ele>1285.1</ele>
        <time>2026-08-18T11:23:38.982Z</time>
      </trkpt>
      <trkpt lat="45.38861" lon="4.61639">
        <ele>1284.8</ele>
        <time>2026-08-18T11:23:39.987Z</time>
      </trkpt>
      <trkpt lat="45.38862" lon="4.61638">
        <ele>1283.9</ele>
        <time>2026-08-18T11:23:40.988Z</time>
      </trkpt>
      <trkpt lat="45.38864" lon="4.61636">
        <ele>1283.6</ele>
        <time>2026-08-18T11:23:42.988Z</time>
      </trkpt>
      <trkpt lat="45.38865" lon="4.61636">
        <ele>1283.4</ele>
        <time>2026-08-18T11:23:43.988Z</time>
      </trkpt>
      <trkpt lat="45.38867" lon="4.61635">
        <ele>1283.5</ele>
        <time>2026-08-18T11:23:45.962Z</time>
      </trkpt>
      <trkpt lat="45.38868" lon="4.61635">
        <ele>1282.6</ele>
        <time>2026-08-18T11:23:46.987Z</time>
      </trkpt>
      <trkpt lat="45.38869" lon="4.61635">
        <ele>1282.5</ele>
        <time>2026-08-18T11:23:47.987Z</time>
      </trkpt>
      <trkpt lat="45.3887" lon="4.61633">
        <ele>1282.2</ele>
        <time>2026-08-18T11:23:48.988Z</time>
      </trkpt>
      <trkpt lat="45.38872" lon="4.61632">
        <ele>1282.8</ele>
        <time>2026-08-18T11:23:50.954Z</time>
      </trkpt>
      <trkpt lat="45.38873" lon="4.61631">
        <ele>1283</ele>
        <time>2026-08-18T11:23:51.987Z</time>
      </trkpt>
      <trkpt lat="45.38875" lon="4.61629">
        <ele>1282.9</ele>
        <time>2026-08-18T11:23:53.988Z</time>
      </trkpt>
      <trkpt lat="45.38875" lon="4.61628">
        <ele>1281.9</ele>
        <time>2026-08-18T11:23:54.988Z</time>
      </trkpt>
      <trkpt lat="45.38877" lon="4.61626">
        <ele>1281.8</ele>
        <time>2026-08-18T11:23:56.988Z</time>
      </trkpt>
      <trkpt lat="45.38878" lon="4.61624">
        <ele>1282.3</ele>
        <time>2026-08-18T11:23:57.988Z</time>
      </trkpt>
      <trkpt lat="45.38878" lon="4.61623">
        <ele>1281.6</ele>
        <time>2026-08-18T11:23:58.988Z</time>
      </trkpt>
      <trkpt lat="45.38879" lon="4.61623">
        <ele>1281.5</ele>
        <time>2026-08-18T11:23:59.988Z</time>
      </trkpt>
      <trkpt lat="45.38881" lon="4.61623">
        <ele>1281.1</ele>
        <time>2026-08-18T11:24:01.988Z</time>
      </trkpt>
      <trkpt lat="45.38881" lon="4.61623">
        <ele>1280.3</ele>
        <time>2026-08-18T11:24:02.988Z</time>
      </trkpt>
      <trkpt lat="45.38882" lon="4.61623">
        <ele>1279.1</ele>
        <time>2026-08-18T11:24:03.988Z</time>
      </trkpt>
      <trkpt lat="45.38883" lon="4.61623">
        <ele>1278.5</ele>
        <time>2026-08-18T11:24:05.987Z</time>
      </trkpt>
      <trkpt lat="45.38884" lon="4.61623">
        <ele>1278.7</ele>
        <time>2026-08-18T11:24:07.987Z</time>
      </trkpt>
      <trkpt lat="45.38885" lon="4.61622">
        <ele>1280.1</ele>
        <time>2026-08-18T11:24:09.988Z</time>
      </trkpt>
      <trkpt lat="45.38887" lon="4.61622">
        <ele>1283.3</ele>
        <time>2026-08-18T11:24:11.988Z</time>
      </trkpt>
      <trkpt lat="45.38888" lon="4.61622">
        <ele>1280.4</ele>
        <time>2026-08-18T11:24:13.988Z</time>
      </trkpt>
      <trkpt lat="45.38888" lon="4.61622">
        <ele>1280.4</ele>
        <time>2026-08-18T11:24:14.988Z</time>
      </trkpt>
      <trkpt lat="45.38887" lon="4.61622">
        <ele>1280.4</ele>
        <time>2026-08-18T11:24:16.987Z</time>
      </trkpt>
      <trkpt lat="45.38887" lon="4.61622">
        <ele>1280.4</ele>
        <time>2026-08-18T11:24:17.988Z</time>
      </trkpt>
      <trkpt lat="45.38887" lon="4.61622">
        <ele>1280.4</ele>
        <time>2026-08-18T11:24:19.988Z</time>
      </trkpt>
      <trkpt lat="45.38887" lon="4.61621">
        <ele>1280.4</ele>
        <time>2026-08-18T11:24:21.988Z</time>
      </trkpt>
      <trkpt lat="45.38887" lon="4.61621">
        <ele>1280.4</ele>
        <time>2026-08-18T11:24:22.988Z</time>
      </trkpt>
      <trkpt lat="45.38887" lon="4.61621">
        <ele>1280.4</ele>
        <time>2026-08-18T11:24:23.988Z</time>
      </trkpt>
      <trkpt lat="45.38887" lon="4.61621">
        <ele>1280.4</ele>
        <time>2026-08-18T11:24:24.988Z</time>
      </trkpt>
      <trkpt lat="45.38887" lon="4.61621">
        <ele>1280.4</ele>
        <time>2026-08-18T11:24:25.988Z</time>
      </trkpt>
      <trkpt lat="45.38887" lon="4.61621">
        <ele>1280.4</ele>
        <time>2026-08-18T11:24:27.987Z</time>
      </trkpt>
      <trkpt lat="45.38887" lon="4.61621">
        <ele>1280.4</ele>
        <time>2026-08-18T11:24:28.988Z</time>
      </trkpt>
      <trkpt lat="45.38887" lon="4.61621">
        <ele>1280.4</ele>
        <time>2026-08-18T11:24:29.988Z</time>
      </trkpt>
      <trkpt lat="45.38887" lon="4.61621">
        <ele>1280.4</ele>
        <time>2026-08-18T11:24:30.988Z</time>
      </trkpt>
      <trkpt lat="45.38887" lon="4.61621">
        <ele>1280.4</ele>
        <time>2026-08-18T11:24:32.988Z</time>
      </trkpt>
      <trkpt lat="45.38887" lon="4.61621">
        <ele>1280.4</ele>
        <time>2026-08-18T11:24:33.988Z</time>
      </trkpt>
      <trkpt lat="45.38887" lon="4.61621">
        <ele>1280.5</ele>
        <time>2026-08-18T11:24:35.988Z</time>
      </trkpt>
      <trkpt lat="45.38887" lon="4.61621">
        <ele>1280.5</ele>
        <time>2026-08-18T11:24:37.988Z</time>
      </trkpt>
      <trkpt lat="45.38887" lon="4.61621">
        <ele>1280.5</ele>
        <time>2026-08-18T11:24:38.988Z</time>
      </trkpt>
      <trkpt lat="45.38887" lon="4.61621">
        <ele>1280.5</ele>
        <time>2026-08-18T11:24:39.988Z</time>
      </trkpt>
      <trkpt lat="45.38887" lon="4.61621">
        <ele>1280.5</ele>
        <time>2026-08-18T11:24:41.988Z</time>
      </trkpt>
      <trkpt lat="45.38887" lon="4.61621">
        <ele>1280.9</ele>
        <time>2026-08-18T11:24:43.986Z</time>
      </trkpt>
      <trkpt lat="45.38888" lon="4.61621">
        <ele>1281.3</ele>
        <time>2026-08-18T11:24:44.988Z</time>
      </trkpt>
      <trkpt lat="45.38888" lon="4.61621">
        <ele>1282</ele>
        <time>2026-08-18T11:24:45.988Z</time>
      </trkpt>
      <trkpt lat="45.38888" lon="4.6162">
        <ele>1281.7</ele>
        <time>2026-08-18T11:24:46.988Z</time>
      </trkpt>
      <trkpt lat="45.38888" lon="4.6162">
        <ele>1281.8</ele>
        <time>2026-08-18T11:24:47.988Z</time>
      </trkpt>
      <trkpt lat="45.38889" lon="4.61618">
        <ele>1281.5</ele>
        <time>2026-08-18T11:24:49.988Z</time>
      </trkpt>
      <trkpt lat="45.3889" lon="4.61616">
        <ele>1281.8</ele>
        <time>2026-08-18T11:24:50.988Z</time>
      </trkpt>
      <trkpt lat="45.38891" lon="4.61616">
        <ele>1282.2</ele>
        <time>2026-08-18T11:24:51.988Z</time>
      </trkpt>
      <trkpt lat="45.38891" lon="4.61614">
        <ele>1282.4</ele>
        <time>2026-08-18T11:24:52.988Z</time>
      </trkpt>
      <trkpt lat="45.38892" lon="4.61614">
        <ele>1282.2</ele>
        <time>2026-08-18T11:24:53.988Z</time>
      </trkpt>
      <trkpt lat="45.38893" lon="4.61611">
        <ele>1282.5</ele>
        <time>2026-08-18T11:24:55.988Z</time>
      </trkpt>
      <trkpt lat="45.38894" lon="4.61609">
        <ele>1283.5</ele>
        <time>2026-08-18T11:24:57.988Z</time>
      </trkpt>
      <trkpt lat="45.38895" lon="4.61608">
        <ele>1283.9</ele>
        <time>2026-08-18T11:24:58.988Z</time>
      </trkpt>
      <trkpt lat="45.38896" lon="4.61607">
        <ele>1284.6</ele>
        <time>2026-08-18T11:24:59.988Z</time>
      </trkpt>
      <trkpt lat="45.38896" lon="4.61607">
        <ele>1285.6</ele>
        <time>2026-08-18T11:25:00.988Z</time>
      </trkpt>
      <trkpt lat="45.38897" lon="4.61605">
        <ele>1287</ele>
        <time>2026-08-18T11:25:02.986Z</time>
      </trkpt>
      <trkpt lat="45.38898" lon="4.61604">
        <ele>1287.8</ele>
        <time>2026-08-18T11:25:03.988Z</time>
      </trkpt>
      <trkpt lat="45.38899" lon="4.61603">
        <ele>1287.9</ele>
        <time>2026-08-18T11:25:04.988Z</time>
      </trkpt>
      <trkpt lat="45.38899" lon="4.61602">
        <ele>1287.7</ele>
        <time>2026-08-18T11:25:05.988Z</time>
      </trkpt>
      <trkpt lat="45.389" lon="4.61601">
        <ele>1287.5</ele>
        <time>2026-08-18T11:25:06.988Z</time>
      </trkpt>
      <trkpt lat="45.38901" lon="4.61599">
        <ele>1288.2</ele>
        <time>2026-08-18T11:25:08.987Z</time>
      </trkpt>
      <trkpt lat="45.38902" lon="4.61598">
        <ele>1288.3</ele>
        <time>2026-08-18T11:25:09.988Z</time>
      </trkpt>
      <trkpt lat="45.38903" lon="4.61598">
        <ele>1288.7</ele>
        <time>2026-08-18T11:25:11.988Z</time>
      </trkpt>
      <trkpt lat="45.38905" lon="4.61596">
        <ele>1288.9</ele>
        <time>2026-08-18T11:25:13.942Z</time>
      </trkpt>
      <trkpt lat="45.38905" lon="4.61595">
        <ele>1290.3</ele>
        <time>2026-08-18T11:25:14.986Z</time>
      </trkpt>
      <trkpt lat="45.38906" lon="4.61593">
        <ele>1290.6</ele>
        <time>2026-08-18T11:25:15.993Z</time>
      </trkpt>
      <trkpt lat="45.38906" lon="4.61592">
        <ele>1291.3</ele>
        <time>2026-08-18T11:25:17.986Z</time>
      </trkpt>
      <trkpt lat="45.38906" lon="4.61592">
        <ele>1291</ele>
        <time>2026-08-18T11:25:18.987Z</time>
      </trkpt>
      <trkpt lat="45.38907" lon="4.61592">
        <ele>1290.3</ele>
        <time>2026-08-18T11:25:19.988Z</time>
      </trkpt>
      <trkpt lat="45.38907" lon="4.6159">
        <ele>1290.4</ele>
        <time>2026-08-18T11:25:21.986Z</time>
      </trkpt>
      <trkpt lat="45.38908" lon="4.6159">
        <ele>1289.7</ele>
        <time>2026-08-18T11:25:22.987Z</time>
      </trkpt>
      <trkpt lat="45.38907" lon="4.61589">
        <ele>1288.4</ele>
        <time>2026-08-18T11:25:24.987Z</time>
      </trkpt>
      <trkpt lat="45.38906" lon="4.61587">
        <ele>1289.2</ele>
        <time>2026-08-18T11:25:26.922Z</time>
      </trkpt>
      <trkpt lat="45.38906" lon="4.61586">
        <ele>1289.4</ele>
        <time>2026-08-18T11:25:27.986Z</time>
      </trkpt>
      <trkpt lat="45.38906" lon="4.61586">
        <ele>1289.6</ele>
        <time>2026-08-18T11:25:28.986Z</time>
      </trkpt>
      <trkpt lat="45.38906" lon="4.61585">
        <ele>1290</ele>
        <time>2026-08-18T11:25:29.987Z</time>
      </trkpt>
      <trkpt lat="45.38907" lon="4.61585">
        <ele>1288.8</ele>
        <time>2026-08-18T11:25:31.986Z</time>
      </trkpt>
      <trkpt lat="45.38907" lon="4.61584">
        <ele>1289.2</ele>
        <time>2026-08-18T11:25:32.995Z</time>
      </trkpt>
      <trkpt lat="45.38907" lon="4.61585">
        <ele>1289.2</ele>
        <time>2026-08-18T11:25:34.987Z</time>
      </trkpt>
      <trkpt lat="45.38907" lon="4.61585">
        <ele>1289.2</ele>
        <time>2026-08-18T11:25:35.987Z</time>
      </trkpt>
      <trkpt lat="45.38907" lon="4.61585">
        <ele>1288.9</ele>
        <time>2026-08-18T11:25:36.989Z</time>
      </trkpt>
      <trkpt lat="45.38907" lon="4.61585">
        <ele>1289.1</ele>
        <time>2026-08-18T11:25:38.986Z</time>
      </trkpt>
      <trkpt lat="45.38909" lon="4.61582">
        <ele>1288.1</ele>
        <time>2026-08-18T11:25:40.987Z</time>
      </trkpt>
      <trkpt lat="45.3891" lon="4.6158">
        <ele>1287.4</ele>
        <time>2026-08-18T11:25:41.987Z</time>
      </trkpt>
      <trkpt lat="45.38911" lon="4.61579">
        <ele>1287.7</ele>
        <time>2026-08-18T11:25:42.987Z</time>
      </trkpt>
      <trkpt lat="45.38913" lon="4.61577">
        <ele>1287.3</ele>
        <time>2026-08-18T11:25:44.987Z</time>
      </trkpt>
      <trkpt lat="45.38914" lon="4.61576">
        <ele>1287.4</ele>
        <time>2026-08-18T11:25:46.987Z</time>
      </trkpt>
      <trkpt lat="45.38915" lon="4.61575">
        <ele>1287.1</ele>
        <time>2026-08-18T11:25:47.987Z</time>
      </trkpt>
      <trkpt lat="45.38915" lon="4.61575">
        <ele>1287.2</ele>
        <time>2026-08-18T11:25:48.987Z</time>
      </trkpt>
      <trkpt lat="45.38915" lon="4.61576">
        <ele>1287.2</ele>
        <time>2026-08-18T11:25:50.987Z</time>
      </trkpt>
      <trkpt lat="45.38915" lon="4.61577">
        <ele>1287.2</ele>
        <time>2026-08-18T11:25:51.987Z</time>
      </trkpt>
      <trkpt lat="45.38915" lon="4.61577">
        <ele>1287.2</ele>
        <time>2026-08-18T11:25:52.987Z</time>
      </trkpt>
      <trkpt lat="45.38915" lon="4.61577">
        <ele>1287.4</ele>
        <time>2026-08-18T11:25:54.986Z</time>
      </trkpt>
      <trkpt lat="45.38915" lon="4.61576">
        <ele>1287.5</ele>
        <time>2026-08-18T11:25:55.987Z</time>
      </trkpt>
      <trkpt lat="45.38916" lon="4.61576">
        <ele>1287.5</ele>
        <time>2026-08-18T11:25:56.987Z</time>
      </trkpt>
      <trkpt lat="45.38917" lon="4.61574">
        <ele>1287.8</ele>
        <time>2026-08-18T11:25:58.986Z</time>
      </trkpt>
      <trkpt lat="45.38918" lon="4.61573">
        <ele>1288</ele>
        <time>2026-08-18T11:25:59.987Z</time>
      </trkpt>
      <trkpt lat="45.38919" lon="4.61572">
        <ele>1288.8</ele>
        <time>2026-08-18T11:26:01.896Z</time>
      </trkpt>
      <trkpt lat="45.3892" lon="4.61571">
        <ele>1289.6</ele>
        <time>2026-08-18T11:26:02.987Z</time>
      </trkpt>
      <trkpt lat="45.38921" lon="4.61571">
        <ele>1289.2</ele>
        <time>2026-08-18T11:26:04.987Z</time>
      </trkpt>
      <trkpt lat="45.38922" lon="4.61571">
        <ele>1288.9</ele>
        <time>2026-08-18T11:26:05.987Z</time>
      </trkpt>
      <trkpt lat="45.38924" lon="4.6157">
        <ele>1289.5</ele>
        <time>2026-08-18T11:26:07.987Z</time>
      </trkpt>
      <trkpt lat="45.38925" lon="4.61569">
        <ele>1289.9</ele>
        <time>2026-08-18T11:26:09.987Z</time>
      </trkpt>
      <trkpt lat="45.38926" lon="4.61568">
        <ele>1289.9</ele>
        <time>2026-08-18T11:26:10.996Z</time>
      </trkpt>
      <trkpt lat="45.38927" lon="4.61568">
        <ele>1290.6</ele>
        <time>2026-08-18T11:26:12.987Z</time>
      </trkpt>
      <trkpt lat="45.38928" lon="4.61566">
        <ele>1291</ele>
        <time>2026-08-18T11:26:14.941Z</time>
      </trkpt>
      <trkpt lat="45.38929" lon="4.61566">
        <ele>1290.3</ele>
        <time>2026-08-18T11:26:15.987Z</time>
      </trkpt>
      <trkpt lat="45.38929" lon="4.61565">
        <ele>1290.4</ele>
        <time>2026-08-18T11:26:16.987Z</time>
      </trkpt>
      <trkpt lat="45.3893" lon="4.61563">
        <ele>1291.1</ele>
        <time>2026-08-18T11:26:17.987Z</time>
      </trkpt>
      <trkpt lat="45.38931" lon="4.61562">
        <ele>1291.8</ele>
        <time>2026-08-18T11:26:19.985Z</time>
      </trkpt>
      <trkpt lat="45.38932" lon="4.6156">
        <ele>1291.6</ele>
        <time>2026-08-18T11:26:21.987Z</time>
      </trkpt>
      <trkpt lat="45.38932" lon="4.61559">
        <ele>1292</ele>
        <time>2026-08-18T11:26:22.987Z</time>
      </trkpt>
      <trkpt lat="45.38933" lon="4.61559">
        <ele>1291.9</ele>
        <time>2026-08-18T11:26:23.987Z</time>
      </trkpt>
      <trkpt lat="45.38933" lon="4.61558">
        <ele>1291.5</ele>
        <time>2026-08-18T11:26:24.987Z</time>
      </trkpt>
      <trkpt lat="45.38934" lon="4.61557">
        <ele>1291.4</ele>
        <time>2026-08-18T11:26:25.987Z</time>
      </trkpt>
      <trkpt lat="45.38936" lon="4.61556">
        <ele>1291.7</ele>
        <time>2026-08-18T11:26:27.986Z</time>
      </trkpt>
      <trkpt lat="45.38937" lon="4.61556">
        <ele>1291.5</ele>
        <time>2026-08-18T11:26:28.987Z</time>
      </trkpt>
      <trkpt lat="45.38938" lon="4.61555">
        <ele>1291.4</ele>
        <time>2026-08-18T11:26:29.987Z</time>
      </trkpt>
      <trkpt lat="45.38939" lon="4.61555">
        <ele>1292.1</ele>
        <time>2026-08-18T11:26:30.987Z</time>
      </trkpt>
      <trkpt lat="45.3894" lon="4.61554">
        <ele>1291.8</ele>
        <time>2026-08-18T11:26:31.988Z</time>
      </trkpt>
      <trkpt lat="45.38942" lon="4.61552">
        <ele>1292.4</ele>
        <time>2026-08-18T11:26:33.986Z</time>
      </trkpt>
      <trkpt lat="45.38943" lon="4.61551">
        <ele>1292.4</ele>
        <time>2026-08-18T11:26:34.997Z</time>
      </trkpt>
      <trkpt lat="45.38944" lon="4.6155">
        <ele>1291.5</ele>
        <time>2026-08-18T11:26:36.987Z</time>
      </trkpt>
      <trkpt lat="45.38946" lon="4.61548">
        <ele>1292</ele>
        <time>2026-08-18T11:26:38.987Z</time>
      </trkpt>
      <trkpt lat="45.38948" lon="4.61546">
        <ele>1292</ele>
        <time>2026-08-18T11:26:40.987Z</time>
      </trkpt>
      <trkpt lat="45.38949" lon="4.61544">
        <ele>1293</ele>
        <time>2026-08-18T11:26:42.987Z</time>
      </trkpt>
      <trkpt lat="45.38949" lon="4.61543">
        <ele>1293</ele>
        <time>2026-08-18T11:26:44.002Z</time>
      </trkpt>
      <trkpt lat="45.3895" lon="4.61541">
        <ele>1296.3</ele>
        <time>2026-08-18T11:26:45.987Z</time>
      </trkpt>
      <trkpt lat="45.38952" lon="4.61539">
        <ele>1296.6</ele>
        <time>2026-08-18T11:26:47.986Z</time>
      </trkpt>
      <trkpt lat="45.38952" lon="4.61538">
        <ele>1296.6</ele>
        <time>2026-08-18T11:26:48.987Z</time>
      </trkpt>
      <trkpt lat="45.38953" lon="4.61537">
        <ele>1296.8</ele>
        <time>2026-08-18T11:26:49.987Z</time>
      </trkpt>
      <trkpt lat="45.38954" lon="4.61538">
        <ele>1297.2</ele>
        <time>2026-08-18T11:26:51.986Z</time>
      </trkpt>
      <trkpt lat="45.38955" lon="4.61537">
        <ele>1297.8</ele>
        <time>2026-08-18T11:26:53.987Z</time>
      </trkpt>
      <trkpt lat="45.38956" lon="4.61537">
        <ele>1298.3</ele>
        <time>2026-08-18T11:26:54.987Z</time>
      </trkpt>
      <trkpt lat="45.38958" lon="4.61535">
        <ele>1298.8</ele>
        <time>2026-08-18T11:26:56.986Z</time>
      </trkpt>
      <trkpt lat="45.38959" lon="4.61534">
        <ele>1298.9</ele>
        <time>2026-08-18T11:26:58.986Z</time>
      </trkpt>
      <trkpt lat="45.3896" lon="4.61533">
        <ele>1298.7</ele>
        <time>2026-08-18T11:26:59.986Z</time>
      </trkpt>
      <trkpt lat="45.38962" lon="4.61532">
        <ele>1298.8</ele>
        <time>2026-08-18T11:27:01.986Z</time>
      </trkpt>
      <trkpt lat="45.38962" lon="4.61531">
        <ele>1299</ele>
        <time>2026-08-18T11:27:02.987Z</time>
      </trkpt>
      <trkpt lat="45.38963" lon="4.6153">
        <ele>1299.3</ele>
        <time>2026-08-18T11:27:03.987Z</time>
      </trkpt>
      <trkpt lat="45.38964" lon="4.61529">
        <ele>1300.4</ele>
        <time>2026-08-18T11:27:05.976Z</time>
      </trkpt>
      <trkpt lat="45.38965" lon="4.61528">
        <ele>1300.7</ele>
        <time>2026-08-18T11:27:06.986Z</time>
      </trkpt>
      <trkpt lat="45.38966" lon="4.61526">
        <ele>1300.2</ele>
        <time>2026-08-18T11:27:08.943Z</time>
      </trkpt>
      <trkpt lat="45.38967" lon="4.61525">
        <ele>1299.9</ele>
        <time>2026-08-18T11:27:09.987Z</time>
      </trkpt>
      <trkpt lat="45.38968" lon="4.61523">
        <ele>1298.8</ele>
        <time>2026-08-18T11:27:11.986Z</time>
      </trkpt>
      <trkpt lat="45.38969" lon="4.61522">
        <ele>1299</ele>
        <time>2026-08-18T11:27:12.986Z</time>
      </trkpt>
      <trkpt lat="45.3897" lon="4.61521">
        <ele>1299.5</ele>
        <time>2026-08-18T11:27:13.987Z</time>
      </trkpt>
      <trkpt lat="45.3897" lon="4.6152">
        <ele>1300.2</ele>
        <time>2026-08-18T11:27:14.987Z</time>
      </trkpt>
      <trkpt lat="45.38971" lon="4.61519">
        <ele>1300.5</ele>
        <time>2026-08-18T11:27:15.987Z</time>
      </trkpt>
      <trkpt lat="45.38972" lon="4.61518">
        <ele>1300.5</ele>
        <time>2026-08-18T11:27:16.987Z</time>
      </trkpt>
      <trkpt lat="45.38973" lon="4.61516">
        <ele>1300.7</ele>
        <time>2026-08-18T11:27:18.986Z</time>
      </trkpt>
      <trkpt lat="45.38974" lon="4.61515">
        <ele>1300.2</ele>
        <time>2026-08-18T11:27:19.987Z</time>
      </trkpt>
      <trkpt lat="45.38975" lon="4.61514">
        <ele>1300.2</ele>
        <time>2026-08-18T11:27:21.000Z</time>
      </trkpt>
      <trkpt lat="45.38977" lon="4.61513">
        <ele>1300</ele>
        <time>2026-08-18T11:27:22.986Z</time>
      </trkpt>
      <trkpt lat="45.38979" lon="4.61511">
        <ele>1300.6</ele>
        <time>2026-08-18T11:27:24.987Z</time>
      </trkpt>
      <trkpt lat="45.3898" lon="4.6151">
        <ele>1300.6</ele>
        <time>2026-08-18T11:27:26.820Z</time>
      </trkpt>
      <trkpt lat="45.38981" lon="4.61509">
        <ele>1301.4</ele>
        <time>2026-08-18T11:27:27.987Z</time>
      </trkpt>
      <trkpt lat="45.38982" lon="4.61509">
        <ele>1301.4</ele>
        <time>2026-08-18T11:27:28.997Z</time>
      </trkpt>
      <trkpt lat="45.38983" lon="4.61508">
        <ele>1303.1</ele>
        <time>2026-08-18T11:27:30.987Z</time>
      </trkpt>
      <trkpt lat="45.38985" lon="4.61506">
        <ele>1304.6</ele>
        <time>2026-08-18T11:27:32.986Z</time>
      </trkpt>
      <trkpt lat="45.38987" lon="4.61505">
        <ele>1304.3</ele>
        <time>2026-08-18T11:27:34.987Z</time>
      </trkpt>
      <trkpt lat="45.38987" lon="4.61504">
        <ele>1304.6</ele>
        <time>2026-08-18T11:27:36.003Z</time>
      </trkpt>
      <trkpt lat="45.38989" lon="4.61503">
        <ele>1305</ele>
        <time>2026-08-18T11:27:37.987Z</time>
      </trkpt>
      <trkpt lat="45.3899" lon="4.61501">
        <ele>1305.2</ele>
        <time>2026-08-18T11:27:39.942Z</time>
      </trkpt>
      <trkpt lat="45.3899" lon="4.61501">
        <ele>1305.5</ele>
        <time>2026-08-18T11:27:40.987Z</time>
      </trkpt>
      <trkpt lat="45.38991" lon="4.615">
        <ele>1305.4</ele>
        <time>2026-08-18T11:27:41.987Z</time>
      </trkpt>
      <trkpt lat="45.38992" lon="4.61498">
        <ele>1305.5</ele>
        <time>2026-08-18T11:27:43.990Z</time>
      </trkpt>
      <trkpt lat="45.38993" lon="4.61496">
        <ele>1306</ele>
        <time>2026-08-18T11:27:45.987Z</time>
      </trkpt>
      <trkpt lat="45.38993" lon="4.61496">
        <ele>1306.8</ele>
        <time>2026-08-18T11:27:46.987Z</time>
      </trkpt>
      <trkpt lat="45.38994" lon="4.61495">
        <ele>1306.3</ele>
        <time>2026-08-18T11:27:47.987Z</time>
      </trkpt>
      <trkpt lat="45.38995" lon="4.61494">
        <ele>1306.5</ele>
        <time>2026-08-18T11:27:49.010Z</time>
      </trkpt>
      <trkpt lat="45.38996" lon="4.61493">
        <ele>1306.5</ele>
        <time>2026-08-18T11:27:50.981Z</time>
      </trkpt>
      <trkpt lat="45.38997" lon="4.61492">
        <ele>1306.3</ele>
        <time>2026-08-18T11:27:51.986Z</time>
      </trkpt>
      <trkpt lat="45.38997" lon="4.61492">
        <ele>1307.4</ele>
        <time>2026-08-18T11:27:53.004Z</time>
      </trkpt>
      <trkpt lat="45.38998" lon="4.6149">
        <ele>1308.8</ele>
        <time>2026-08-18T11:27:54.987Z</time>
      </trkpt>
      <trkpt lat="45.39" lon="4.61489">
        <ele>1309</ele>
        <time>2026-08-18T11:27:56.997Z</time>
      </trkpt>
      <trkpt lat="45.39001" lon="4.61487">
        <ele>1307.3</ele>
        <time>2026-08-18T11:27:58.987Z</time>
      </trkpt>
      <trkpt lat="45.39003" lon="4.61487">
        <ele>1307.8</ele>
        <time>2026-08-18T11:28:00.991Z</time>
      </trkpt>
      <trkpt lat="45.39004" lon="4.61485">
        <ele>1307.7</ele>
        <time>2026-08-18T11:28:02.987Z</time>
      </trkpt>
      <trkpt lat="45.39005" lon="4.61484">
        <ele>1308</ele>
        <time>2026-08-18T11:28:04.881Z</time>
      </trkpt>
      <trkpt lat="45.39006" lon="4.61483">
        <ele>1310</ele>
        <time>2026-08-18T11:28:06.011Z</time>
      </trkpt>
      <trkpt lat="45.39008" lon="4.61482">
        <ele>1310</ele>
        <time>2026-08-18T11:28:07.934Z</time>
      </trkpt>
      <trkpt lat="45.39008" lon="4.61481">
        <ele>1310.2</ele>
        <time>2026-08-18T11:28:08.986Z</time>
      </trkpt>
      <trkpt lat="45.39009" lon="4.61481">
        <ele>1310.3</ele>
        <time>2026-08-18T11:28:09.987Z</time>
      </trkpt>
      <trkpt lat="45.3901" lon="4.61479">
        <ele>1310.4</ele>
        <time>2026-08-18T11:28:11.986Z</time>
      </trkpt>
      <trkpt lat="45.39011" lon="4.61478">
        <ele>1310</ele>
        <time>2026-08-18T11:28:12.987Z</time>
      </trkpt>
      <trkpt lat="45.39011" lon="4.61478">
        <ele>1310</ele>
        <time>2026-08-18T11:28:14.019Z</time>
      </trkpt>
      <trkpt lat="45.39012" lon="4.61476">
        <ele>1312.2</ele>
        <time>2026-08-18T11:28:15.987Z</time>
      </trkpt>
      <trkpt lat="45.39014" lon="4.61475">
        <ele>1312.4</ele>
        <time>2026-08-18T11:28:17.918Z</time>
      </trkpt>
      <trkpt lat="45.39014" lon="4.61474">
        <ele>1312.8</ele>
        <time>2026-08-18T11:28:18.987Z</time>
      </trkpt>
      <trkpt lat="45.39015" lon="4.61473">
        <ele>1311.6</ele>
        <time>2026-08-18T11:28:19.987Z</time>
      </trkpt>
      <trkpt lat="45.39015" lon="4.61472">
        <ele>1311.5</ele>
        <time>2026-08-18T11:28:20.987Z</time>
      </trkpt>
      <trkpt lat="45.39015" lon="4.6147">
        <ele>1310.7</ele>
        <time>2026-08-18T11:28:22.976Z</time>
      </trkpt>
      <trkpt lat="45.39015" lon="4.6147">
        <ele>1310.9</ele>
        <time>2026-08-18T11:28:23.986Z</time>
      </trkpt>
      <trkpt lat="45.39016" lon="4.61469">
        <ele>1309.9</ele>
        <time>2026-08-18T11:28:24.986Z</time>
      </trkpt>
      <trkpt lat="45.39016" lon="4.61468">
        <ele>1310.2</ele>
        <time>2026-08-18T11:28:25.986Z</time>
      </trkpt>
      <trkpt lat="45.39017" lon="4.61468">
        <ele>1310.2</ele>
        <time>2026-08-18T11:28:27.005Z</time>
      </trkpt>
      <trkpt lat="45.39018" lon="4.61466">
        <ele>1310.3</ele>
        <time>2026-08-18T11:28:29.014Z</time>
      </trkpt>
      <trkpt lat="45.39019" lon="4.61464">
        <ele>1309</ele>
        <time>2026-08-18T11:28:30.999Z</time>
      </trkpt>
      <trkpt lat="45.39021" lon="4.61463">
        <ele>1309.8</ele>
        <time>2026-08-18T11:28:32.986Z</time>
      </trkpt>
      <trkpt lat="45.39021" lon="4.61462">
        <ele>1310.1</ele>
        <time>2026-08-18T11:28:33.987Z</time>
      </trkpt>
      <trkpt lat="45.39022" lon="4.61461">
        <ele>1310.5</ele>
        <time>2026-08-18T11:28:34.991Z</time>
      </trkpt>
      <trkpt lat="45.39022" lon="4.61459">
        <ele>1311.2</ele>
        <time>2026-08-18T11:28:36.987Z</time>
      </trkpt>
      <trkpt lat="45.39023" lon="4.61458">
        <ele>1312.2</ele>
        <time>2026-08-18T11:28:38.987Z</time>
      </trkpt>
      <trkpt lat="45.39024" lon="4.61458">
        <ele>1312</ele>
        <time>2026-08-18T11:28:39.987Z</time>
      </trkpt>
      <trkpt lat="45.39025" lon="4.61458">
        <ele>1313.2</ele>
        <time>2026-08-18T11:28:40.987Z</time>
      </trkpt>
      <trkpt lat="45.39027" lon="4.61457">
        <ele>1313.9</ele>
        <time>2026-08-18T11:28:42.986Z</time>
      </trkpt>
      <trkpt lat="45.39028" lon="4.61457">
        <ele>1314</ele>
        <time>2026-08-18T11:28:44.005Z</time>
      </trkpt>
      <trkpt lat="45.39029" lon="4.61456">
        <ele>1313.7</ele>
        <time>2026-08-18T11:28:45.987Z</time>
      </trkpt>
      <trkpt lat="45.3903" lon="4.61456">
        <ele>1314.3</ele>
        <time>2026-08-18T11:28:46.987Z</time>
      </trkpt>
      <trkpt lat="45.39031" lon="4.61454">
        <ele>1314.2</ele>
        <time>2026-08-18T11:28:48.987Z</time>
      </trkpt>
      <trkpt lat="45.39033" lon="4.61453">
        <ele>1315.4</ele>
        <time>2026-08-18T11:28:50.921Z</time>
      </trkpt>
      <trkpt lat="45.39034" lon="4.61453">
        <ele>1317.5</ele>
        <time>2026-08-18T11:28:52.986Z</time>
      </trkpt>
      <trkpt lat="45.39034" lon="4.61452">
        <ele>1316.5</ele>
        <time>2026-08-18T11:28:53.987Z</time>
      </trkpt>
      <trkpt lat="45.39036" lon="4.6145">
        <ele>1316.8</ele>
        <time>2026-08-18T11:28:55.986Z</time>
      </trkpt>
      <trkpt lat="45.39036" lon="4.61449">
        <ele>1316.7</ele>
        <time>2026-08-18T11:28:56.987Z</time>
      </trkpt>
      <trkpt lat="45.39037" lon="4.61448">
        <ele>1318.5</ele>
        <time>2026-08-18T11:28:58.986Z</time>
      </trkpt>
      <trkpt lat="45.39037" lon="4.61447">
        <ele>1319.4</ele>
        <time>2026-08-18T11:28:59.987Z</time>
      </trkpt>
      <trkpt lat="45.39038" lon="4.61446">
        <ele>1320.4</ele>
        <time>2026-08-18T11:29:01.006Z</time>
      </trkpt>
      <trkpt lat="45.39039" lon="4.61445">
        <ele>1321.3</ele>
        <time>2026-08-18T11:29:02.985Z</time>
      </trkpt>
      <trkpt lat="45.39039" lon="4.61445">
        <ele>1321.5</ele>
        <time>2026-08-18T11:29:03.987Z</time>
      </trkpt>
      <trkpt lat="45.3904" lon="4.61444">
        <ele>1321.1</ele>
        <time>2026-08-18T11:29:05.986Z</time>
      </trkpt>
      <trkpt lat="45.3904" lon="4.61443">
        <ele>1321.3</ele>
        <time>2026-08-18T11:29:06.987Z</time>
      </trkpt>
      <trkpt lat="45.39042" lon="4.61441">
        <ele>1320.4</ele>
        <time>2026-08-18T11:29:08.993Z</time>
      </trkpt>
      <trkpt lat="45.39043" lon="4.6144">
        <ele>1320.4</ele>
        <time>2026-08-18T11:29:10.003Z</time>
      </trkpt>
      <trkpt lat="45.39044" lon="4.61438">
        <ele>1322.1</ele>
        <time>2026-08-18T11:29:11.987Z</time>
      </trkpt>
      <trkpt lat="45.39045" lon="4.61436">
        <ele>1322.2</ele>
        <time>2026-08-18T11:29:12.987Z</time>
      </trkpt>
      <trkpt lat="45.39046" lon="4.61435">
        <ele>1322.7</ele>
        <time>2026-08-18T11:29:14.986Z</time>
      </trkpt>
      <trkpt lat="45.39046" lon="4.61434">
        <ele>1322.9</ele>
        <time>2026-08-18T11:29:15.987Z</time>
      </trkpt>
      <trkpt lat="45.39047" lon="4.61433">
        <ele>1323.4</ele>
        <time>2026-08-18T11:29:16.987Z</time>
      </trkpt>
      <trkpt lat="45.39047" lon="4.61433">
        <ele>1322.8</ele>
        <time>2026-08-18T11:29:18.006Z</time>
      </trkpt>
      <trkpt lat="45.39047" lon="4.61431">
        <ele>1322.2</ele>
        <time>2026-08-18T11:29:19.987Z</time>
      </trkpt>
      <trkpt lat="45.39048" lon="4.61429">
        <ele>1322.3</ele>
        <time>2026-08-18T11:29:22.000Z</time>
      </trkpt>
      <trkpt lat="45.39049" lon="4.61427">
        <ele>1321.9</ele>
        <time>2026-08-18T11:29:23.960Z</time>
      </trkpt>
      <trkpt lat="45.3905" lon="4.61426">
        <ele>1322.8</ele>
        <time>2026-08-18T11:29:24.987Z</time>
      </trkpt>
      <trkpt lat="45.3905" lon="4.61425">
        <ele>1322.8</ele>
        <time>2026-08-18T11:29:25.993Z</time>
      </trkpt>
      <trkpt lat="45.39051" lon="4.61424">
        <ele>1322.9</ele>
        <time>2026-08-18T11:29:28.019Z</time>
      </trkpt>
      <trkpt lat="45.39052" lon="4.61423">
        <ele>1324.1</ele>
        <time>2026-08-18T11:29:29.987Z</time>
      </trkpt>
      <trkpt lat="45.39053" lon="4.61422">
        <ele>1325.9</ele>
        <time>2026-08-18T11:29:31.987Z</time>
      </trkpt>
      <trkpt lat="45.39054" lon="4.6142">
        <ele>1328</ele>
        <time>2026-08-18T11:29:33.986Z</time>
      </trkpt>
      <trkpt lat="45.39055" lon="4.61419">
        <ele>1327.9</ele>
        <time>2026-08-18T11:29:35.005Z</time>
      </trkpt>
      <trkpt lat="45.39056" lon="4.61419">
        <ele>1327.5</ele>
        <time>2026-08-18T11:29:36.986Z</time>
      </trkpt>
      <trkpt lat="45.39056" lon="4.6142">
        <ele>1327.5</ele>
        <time>2026-08-18T11:29:37.987Z</time>
      </trkpt>
      <trkpt lat="45.39057" lon="4.6142">
        <ele>1326.9</ele>
        <time>2026-08-18T11:29:38.999Z</time>
      </trkpt>
      <trkpt lat="45.39058" lon="4.6142">
        <ele>1327.9</ele>
        <time>2026-08-18T11:29:40.987Z</time>
      </trkpt>
      <trkpt lat="45.39058" lon="4.6142">
        <ele>1327.6</ele>
        <time>2026-08-18T11:29:42.993Z</time>
      </trkpt>
      <trkpt lat="45.39058" lon="4.6142">
        <ele>1326.7</ele>
        <time>2026-08-18T11:29:44.982Z</time>
      </trkpt>
      <trkpt lat="45.39058" lon="4.6142">
        <ele>1326.2</ele>
        <time>2026-08-18T11:29:45.987Z</time>
      </trkpt>
      <trkpt lat="45.39058" lon="4.6142">
        <ele>1325.8</ele>
        <time>2026-08-18T11:29:46.987Z</time>
      </trkpt>
      <trkpt lat="45.39059" lon="4.6142">
        <ele>1326.7</ele>
        <time>2026-08-18T11:29:47.987Z</time>
      </trkpt>
      <trkpt lat="45.3906" lon="4.6142">
        <ele>1326.9</ele>
        <time>2026-08-18T11:29:49.987Z</time>
      </trkpt>
      <trkpt lat="45.3906" lon="4.61419">
        <ele>1328.2</ele>
        <time>2026-08-18T11:29:51.923Z</time>
      </trkpt>
      <trkpt lat="45.39061" lon="4.61419">
        <ele>1329.2</ele>
        <time>2026-08-18T11:29:52.987Z</time>
      </trkpt>
      <trkpt lat="45.39063" lon="4.61418">
        <ele>1329.7</ele>
        <time>2026-08-18T11:29:54.987Z</time>
      </trkpt>
      <trkpt lat="45.39064" lon="4.61418">
        <ele>1330.3</ele>
        <time>2026-08-18T11:29:55.999Z</time>
      </trkpt>
      <trkpt lat="45.39065" lon="4.61417">
        <ele>1330.4</ele>
        <time>2026-08-18T11:29:57.987Z</time>
      </trkpt>
      <trkpt lat="45.39066" lon="4.61416">
        <ele>1330.1</ele>
        <time>2026-08-18T11:29:59.993Z</time>
      </trkpt>
      <trkpt lat="45.39067" lon="4.61415">
        <ele>1330.6</ele>
        <time>2026-08-18T11:30:01.986Z</time>
      </trkpt>
      <trkpt lat="45.39067" lon="4.61414">
        <ele>1330.6</ele>
        <time>2026-08-18T11:30:03.986Z</time>
      </trkpt>
      <trkpt lat="45.39068" lon="4.61414">
        <ele>1331.1</ele>
        <time>2026-08-18T11:30:04.987Z</time>
      </trkpt>
      <trkpt lat="45.39069" lon="4.61413">
        <ele>1330.7</ele>
        <time>2026-08-18T11:30:06.985Z</time>
      </trkpt>
      <trkpt lat="45.39069" lon="4.61412">
        <ele>1330</ele>
        <time>2026-08-18T11:30:08.987Z</time>
      </trkpt>
      <trkpt lat="45.3907" lon="4.61411">
        <ele>1329.9</ele>
        <time>2026-08-18T11:30:09.987Z</time>
      </trkpt>
      <trkpt lat="45.39071" lon="4.61411">
        <ele>1330.3</ele>
        <time>2026-08-18T11:30:10.987Z</time>
      </trkpt>
      <trkpt lat="45.39071" lon="4.6141">
        <ele>1329.4</ele>
        <time>2026-08-18T11:30:11.987Z</time>
      </trkpt>
      <trkpt lat="45.39072" lon="4.61409">
        <ele>1329.7</ele>
        <time>2026-08-18T11:30:13.987Z</time>
      </trkpt>
      <trkpt lat="45.39072" lon="4.61408">
        <ele>1329.3</ele>
        <time>2026-08-18T11:30:14.987Z</time>
      </trkpt>
      <trkpt lat="45.39073" lon="4.61408">
        <ele>1329.4</ele>
        <time>2026-08-18T11:30:15.987Z</time>
      </trkpt>
      <trkpt lat="45.39073" lon="4.61408">
        <ele>1329.7</ele>
        <time>2026-08-18T11:30:16.993Z</time>
      </trkpt>
      <trkpt lat="45.39074" lon="4.61407">
        <ele>1331.4</ele>
        <time>2026-08-18T11:30:18.987Z</time>
      </trkpt>
      <trkpt lat="45.39075" lon="4.61406">
        <ele>1332.1</ele>
        <time>2026-08-18T11:30:19.987Z</time>
      </trkpt>
      <trkpt lat="45.39077" lon="4.61405">
        <ele>1333.1</ele>
        <time>2026-08-18T11:30:21.986Z</time>
      </trkpt>
      <trkpt lat="45.39077" lon="4.61404">
        <ele>1334.2</ele>
        <time>2026-08-18T11:30:22.986Z</time>
      </trkpt>
      <trkpt lat="45.39078" lon="4.61403">
        <ele>1335.2</ele>
        <time>2026-08-18T11:30:23.986Z</time>
      </trkpt>
      <trkpt lat="45.39079" lon="4.61403">
        <ele>1335.2</ele>
        <time>2026-08-18T11:30:24.986Z</time>
      </trkpt>
      <trkpt lat="45.39079" lon="4.61403">
        <ele>1336.1</ele>
        <time>2026-08-18T11:30:26.006Z</time>
      </trkpt>
      <trkpt lat="45.3908" lon="4.61402">
        <ele>1336.4</ele>
        <time>2026-08-18T11:30:28.014Z</time>
      </trkpt>
      <trkpt lat="45.3908" lon="4.61402">
        <ele>1336</ele>
        <time>2026-08-18T11:30:29.999Z</time>
      </trkpt>
      <trkpt lat="45.39082" lon="4.61401">
        <ele>1335</ele>
        <time>2026-08-18T11:30:31.987Z</time>
      </trkpt>
      <trkpt lat="45.39083" lon="4.614">
        <ele>1334.1</ele>
        <time>2026-08-18T11:30:32.987Z</time>
      </trkpt>
      <trkpt lat="45.39083" lon="4.61399">
        <ele>1334.1</ele>
        <time>2026-08-18T11:30:33.991Z</time>
      </trkpt>
      <trkpt lat="45.39085" lon="4.61398">
        <ele>1335.2</ele>
        <time>2026-08-18T11:30:35.914Z</time>
      </trkpt>
      <trkpt lat="45.39086" lon="4.61396">
        <ele>1334.5</ele>
        <time>2026-08-18T11:30:36.987Z</time>
      </trkpt>
      <trkpt lat="45.39087" lon="4.61394">
        <ele>1334</ele>
        <time>2026-08-18T11:30:38.987Z</time>
      </trkpt>
      <trkpt lat="45.39087" lon="4.61394">
        <ele>1334</ele>
        <time>2026-08-18T11:30:39.994Z</time>
      </trkpt>
      <trkpt lat="45.39088" lon="4.61393">
        <ele>1334</ele>
        <time>2026-08-18T11:30:41.987Z</time>
      </trkpt>
      <trkpt lat="45.39089" lon="4.61393">
        <ele>1333.8</ele>
        <time>2026-08-18T11:30:43.006Z</time>
      </trkpt>
      <trkpt lat="45.39089" lon="4.61391">
        <ele>1334.5</ele>
        <time>2026-08-18T11:30:44.987Z</time>
      </trkpt>
      <trkpt lat="45.3909" lon="4.61391">
        <ele>1336.5</ele>
        <time>2026-08-18T11:30:46.999Z</time>
      </trkpt>
      <trkpt lat="45.3909" lon="4.61389">
        <ele>1338.1</ele>
        <time>2026-08-18T11:30:48.986Z</time>
      </trkpt>
      <trkpt lat="45.39091" lon="4.61389">
        <ele>1338.8</ele>
        <time>2026-08-18T11:30:50.899Z</time>
      </trkpt>
      <trkpt lat="45.39091" lon="4.61388">
        <ele>1340.8</ele>
        <time>2026-08-18T11:30:51.986Z</time>
      </trkpt>
      <trkpt lat="45.39093" lon="4.61387">
        <ele>1339.8</ele>
        <time>2026-08-18T11:30:52.987Z</time>
      </trkpt>
      <trkpt lat="45.39095" lon="4.61386">
        <ele>1340</ele>
        <time>2026-08-18T11:30:54.986Z</time>
      </trkpt>
      <trkpt lat="45.39096" lon="4.61385">
        <ele>1339.8</ele>
        <time>2026-08-18T11:30:55.986Z</time>
      </trkpt>
      <trkpt lat="45.39096" lon="4.61385">
        <ele>1340.6</ele>
        <time>2026-08-18T11:30:56.986Z</time>
      </trkpt>
      <trkpt lat="45.39096" lon="4.61386">
        <ele>1340.4</ele>
        <time>2026-08-18T11:30:57.986Z</time>
      </trkpt>
      <trkpt lat="45.39095" lon="4.61386">
        <ele>1340.4</ele>
        <time>2026-08-18T11:30:58.986Z</time>
      </trkpt>
      <trkpt lat="45.39095" lon="4.61386">
        <ele>1339.6</ele>
        <time>2026-08-18T11:31:00.005Z</time>
      </trkpt>
      <trkpt lat="45.39095" lon="4.61385">
        <ele>1339.6</ele>
        <time>2026-08-18T11:31:01.987Z</time>
      </trkpt>
      <trkpt lat="45.39096" lon="4.61385">
        <ele>1339.6</ele>
        <time>2026-08-18T11:31:03.999Z</time>
      </trkpt>
      <trkpt lat="45.39096" lon="4.61385">
        <ele>1339.6</ele>
        <time>2026-08-18T11:31:05.986Z</time>
      </trkpt>
      <trkpt lat="45.39096" lon="4.61385">
        <ele>1339.6</ele>
        <time>2026-08-18T11:31:06.986Z</time>
      </trkpt>
      <trkpt lat="45.39096" lon="4.61385">
        <ele>1339.6</ele>
        <time>2026-08-18T11:31:07.992Z</time>
      </trkpt>
      <trkpt lat="45.39096" lon="4.61386">
        <ele>1339.6</ele>
        <time>2026-08-18T11:31:09.986Z</time>
      </trkpt>
      <trkpt lat="45.39096" lon="4.61386">
        <ele>1339.6</ele>
        <time>2026-08-18T11:31:10.987Z</time>
      </trkpt>
      <trkpt lat="45.39097" lon="4.61386">
        <ele>1339.6</ele>
        <time>2026-08-18T11:31:12.986Z</time>
      </trkpt>
      <trkpt lat="45.39097" lon="4.61386">
        <ele>1339.6</ele>
        <time>2026-08-18T11:31:13.987Z</time>
      </trkpt>
      <trkpt lat="45.39097" lon="4.61386">
        <ele>1339.6</ele>
        <time>2026-08-18T11:31:15.987Z</time>
      </trkpt>
      <trkpt lat="45.39097" lon="4.61386">
        <ele>1339.6</ele>
        <time>2026-08-18T11:31:17.005Z</time>
      </trkpt>
      <trkpt lat="45.39097" lon="4.61386">
        <ele>1339.5</ele>
        <time>2026-08-18T11:31:18.987Z</time>
      </trkpt>
      <trkpt lat="45.39097" lon="4.61386">
        <ele>1339.5</ele>
        <time>2026-08-18T11:31:20.998Z</time>
      </trkpt>
      <trkpt lat="45.39097" lon="4.61386">
        <ele>1339.5</ele>
        <time>2026-08-18T11:31:22.986Z</time>
      </trkpt>
      <trkpt lat="45.39097" lon="4.61386">
        <ele>1339.6</ele>
        <time>2026-08-18T11:31:23.987Z</time>
      </trkpt>
      <trkpt lat="45.39097" lon="4.61386">
        <ele>1339.6</ele>
        <time>2026-08-18T11:31:24.991Z</time>
      </trkpt>
      <trkpt lat="45.39097" lon="4.61386">
        <ele>1339.6</ele>
        <time>2026-08-18T11:31:26.987Z</time>
      </trkpt>
      <trkpt lat="45.39097" lon="4.61386">
        <ele>1339.6</ele>
        <time>2026-08-18T11:31:28.987Z</time>
      </trkpt>
      <trkpt lat="45.39097" lon="4.61386">
        <ele>1339.6</ele>
        <time>2026-08-18T11:31:29.987Z</time>
      </trkpt>
      <trkpt lat="45.39097" lon="4.61386">
        <ele>1339.5</ele>
        <time>2026-08-18T11:31:30.987Z</time>
      </trkpt>
      <trkpt lat="45.39097" lon="4.61386">
        <ele>1339.5</ele>
        <time>2026-08-18T11:31:31.987Z</time>
      </trkpt>
      <trkpt lat="45.39097" lon="4.61386">
        <ele>1339.5</ele>
        <time>2026-08-18T11:31:32.988Z</time>
      </trkpt>
      <trkpt lat="45.39097" lon="4.61386">
        <ele>1339.5</ele>
        <time>2026-08-18T11:31:34.986Z</time>
      </trkpt>
      <trkpt lat="45.39097" lon="4.61386">
        <ele>1339.5</ele>
        <time>2026-08-18T11:31:35.986Z</time>
      </trkpt>
      <trkpt lat="45.39097" lon="4.61386">
        <ele>1339.5</ele>
        <time>2026-08-18T11:31:36.986Z</time>
      </trkpt>
      <trkpt lat="45.39097" lon="4.61386">
        <ele>1339.5</ele>
        <time>2026-08-18T11:31:37.998Z</time>
      </trkpt>
      <trkpt lat="45.39097" lon="4.61386">
        <ele>1339.5</ele>
        <time>2026-08-18T11:31:39.987Z</time>
      </trkpt>
      <trkpt lat="45.39097" lon="4.61386">
        <ele>1339.5</ele>
        <time>2026-08-18T11:31:41.991Z</time>
      </trkpt>
      <trkpt lat="45.39097" lon="4.61386">
        <ele>1339.5</ele>
        <time>2026-08-18T11:31:43.987Z</time>
      </trkpt>
      <trkpt lat="45.39097" lon="4.61386">
        <ele>1339.1</ele>
        <time>2026-08-18T11:31:45.987Z</time>
      </trkpt>
      <trkpt lat="45.39097" lon="4.61385">
        <ele>1338.5</ele>
        <time>2026-08-18T11:31:47.011Z</time>
      </trkpt>
      <trkpt lat="45.39097" lon="4.61385">
        <ele>1337.7</ele>
        <time>2026-08-18T11:31:48.986Z</time>
      </trkpt>
      <trkpt lat="45.39097" lon="4.61385">
        <ele>1337.7</ele>
        <time>2026-08-18T11:31:49.987Z</time>
      </trkpt>
      <trkpt lat="45.39096" lon="4.61386">
        <ele>1337.1</ele>
        <time>2026-08-18T11:31:51.004Z</time>
      </trkpt>
      <trkpt lat="45.39096" lon="4.61387">
        <ele>1337.7</ele>
        <time>2026-08-18T11:31:52.917Z</time>
      </trkpt>
      <trkpt lat="45.39096" lon="4.61388">
        <ele>1338.8</ele>
        <time>2026-08-18T11:31:53.986Z</time>
      </trkpt>
      <trkpt lat="45.39097" lon="4.61388">
        <ele>1338.5</ele>
        <time>2026-08-18T11:31:54.986Z</time>
      </trkpt>
      <trkpt lat="45.39097" lon="4.61389">
        <ele>1337.5</ele>
        <time>2026-08-18T11:31:55.987Z</time>
      </trkpt>
      <trkpt lat="45.39097" lon="4.61389">
        <ele>1337.5</ele>
        <time>2026-08-18T11:31:56.987Z</time>
      </trkpt>
      <trkpt lat="45.39097" lon="4.61389">
        <ele>1337.5</ele>
        <time>2026-08-18T11:31:58.986Z</time>
      </trkpt>
      <trkpt lat="45.39097" lon="4.61389">
        <ele>1337.5</ele>
        <time>2026-08-18T11:32:00.986Z</time>
      </trkpt>
      <trkpt lat="45.39097" lon="4.61389">
        <ele>1337.5</ele>
        <time>2026-08-18T11:32:01.986Z</time>
      </trkpt>
      <trkpt lat="45.39097" lon="4.61389">
        <ele>1337.5</ele>
        <time>2026-08-18T11:32:03.985Z</time>
      </trkpt>
      <trkpt lat="45.39097" lon="4.61388">
        <ele>1337.5</ele>
        <time>2026-08-18T11:32:04.985Z</time>
      </trkpt>
      <trkpt lat="45.39097" lon="4.61389">
        <ele>1337.5</ele>
        <time>2026-08-18T11:32:05.986Z</time>
      </trkpt>
      <trkpt lat="45.39097" lon="4.61388">
        <ele>1337.5</ele>
        <time>2026-08-18T11:32:07.986Z</time>
      </trkpt>
      <trkpt lat="45.39097" lon="4.61388">
        <ele>1337.5</ele>
        <time>2026-08-18T11:32:09.986Z</time>
      </trkpt>
      <trkpt lat="45.39097" lon="4.61389">
        <ele>1337.3</ele>
        <time>2026-08-18T11:32:11.980Z</time>
      </trkpt>
      <trkpt lat="45.39097" lon="4.61389">
        <ele>1336.8</ele>
        <time>2026-08-18T11:32:12.986Z</time>
      </trkpt>
      <trkpt lat="45.39097" lon="4.61389">
        <ele>1336.2</ele>
        <time>2026-08-18T11:32:13.986Z</time>
      </trkpt>
      <trkpt lat="45.39097" lon="4.61389">
        <ele>1336.1</ele>
        <time>2026-08-18T11:32:14.986Z</time>
      </trkpt>
      <trkpt lat="45.39097" lon="4.61389">
        <ele>1336.2</ele>
        <time>2026-08-18T11:32:15.989Z</time>
      </trkpt>
      <trkpt lat="45.39097" lon="4.61389">
        <ele>1336.9</ele>
        <time>2026-08-18T11:32:17.986Z</time>
      </trkpt>
      <trkpt lat="45.39097" lon="4.6139">
        <ele>1336.9</ele>
        <time>2026-08-18T11:32:19.985Z</time>
      </trkpt>
      <trkpt lat="45.39098" lon="4.6139">
        <ele>1337</ele>
        <time>2026-08-18T11:32:20.986Z</time>
      </trkpt>
      <trkpt lat="45.39098" lon="4.6139">
        <ele>1337</ele>
        <time>2026-08-18T11:32:21.986Z</time>
      </trkpt>
      <trkpt lat="45.39098" lon="4.6139">
        <ele>1337</ele>
        <time>2026-08-18T11:32:23.985Z</time>
      </trkpt>
      <trkpt lat="45.39098" lon="4.6139">
        <ele>1337</ele>
        <time>2026-08-18T11:32:24.986Z</time>
      </trkpt>
      <trkpt lat="45.39098" lon="4.6139">
        <ele>1337</ele>
        <time>2026-08-18T11:32:26.986Z</time>
      </trkpt>
      <trkpt lat="45.39098" lon="4.6139">
        <ele>1337</ele>
        <time>2026-08-18T11:32:28.986Z</time>
      </trkpt>
      <trkpt lat="45.39098" lon="4.6139">
        <ele>1337</ele>
        <time>2026-08-18T11:32:30.986Z</time>
      </trkpt>
      <trkpt lat="45.39097" lon="4.6139">
        <ele>1336.6</ele>
        <time>2026-08-18T11:32:32.990Z</time>
      </trkpt>
      <trkpt lat="45.39098" lon="4.6139">
        <ele>1336.1</ele>
        <time>2026-08-18T11:32:34.986Z</time>
      </trkpt>
      <trkpt lat="45.39098" lon="4.6139">
        <ele>1335.4</ele>
        <time>2026-08-18T11:32:36.985Z</time>
      </trkpt>
      <trkpt lat="45.39098" lon="4.6139">
        <ele>1335.4</ele>
        <time>2026-08-18T11:32:37.986Z</time>
      </trkpt>
      <trkpt lat="45.39098" lon="4.6139">
        <ele>1335.2</ele>
        <time>2026-08-18T11:32:39.986Z</time>
      </trkpt>
      <trkpt lat="45.39098" lon="4.6139">
        <ele>1335.6</ele>
        <time>2026-08-18T11:32:40.986Z</time>
      </trkpt>
      <trkpt lat="45.39098" lon="4.6139">
        <ele>1335.5</ele>
        <time>2026-08-18T11:32:42.004Z</time>
      </trkpt>
      <trkpt lat="45.39098" lon="4.6139">
        <ele>1335.6</ele>
        <time>2026-08-18T11:32:43.985Z</time>
      </trkpt>
      <trkpt lat="45.39098" lon="4.6139">
        <ele>1335.6</ele>
        <time>2026-08-18T11:32:44.985Z</time>
      </trkpt>
      <trkpt lat="45.39098" lon="4.6139">
        <ele>1335.6</ele>
        <time>2026-08-18T11:32:45.997Z</time>
      </trkpt>
      <trkpt lat="45.39098" lon="4.6139">
        <ele>1335.4</ele>
        <time>2026-08-18T11:32:47.986Z</time>
      </trkpt>
      <trkpt lat="45.39098" lon="4.6139">
        <ele>1336.8</ele>
        <time>2026-08-18T11:32:49.989Z</time>
      </trkpt>
      <trkpt lat="45.39097" lon="4.61391">
        <ele>1339.4</ele>
        <time>2026-08-18T11:32:51.985Z</time>
      </trkpt>
      <trkpt lat="45.39098" lon="4.61391">
        <ele>1339.7</ele>
        <time>2026-08-18T11:32:52.986Z</time>
      </trkpt>
      <trkpt lat="45.39097" lon="4.61391">
        <ele>1339.8</ele>
        <time>2026-08-18T11:32:54.986Z</time>
      </trkpt>
      <trkpt lat="45.39097" lon="4.61391">
        <ele>1339.8</ele>
        <time>2026-08-18T11:32:55.986Z</time>
      </trkpt>
      <trkpt lat="45.39097" lon="4.61391">
        <ele>1339.8</ele>
        <time>2026-08-18T11:32:56.986Z</time>
      </trkpt>
      <trkpt lat="45.39097" lon="4.61391">
        <ele>1339.9</ele>
        <time>2026-08-18T11:32:58.986Z</time>
      </trkpt>
      <trkpt lat="45.39097" lon="4.61391">
        <ele>1340.4</ele>
        <time>2026-08-18T11:32:59.986Z</time>
      </trkpt>
      <trkpt lat="45.39097" lon="4.61391">
        <ele>1341.2</ele>
        <time>2026-08-18T11:33:00.986Z</time>
      </trkpt>
      <trkpt lat="45.39097" lon="4.61391">
        <ele>1340.1</ele>
        <time>2026-08-18T11:33:01.986Z</time>
      </trkpt>
      <trkpt lat="45.39097" lon="4.61391">
        <ele>1340.8</ele>
        <time>2026-08-18T11:33:02.997Z</time>
      </trkpt>
      <trkpt lat="45.39098" lon="4.6139">
        <ele>1341.4</ele>
        <time>2026-08-18T11:33:04.986Z</time>
      </trkpt>
      <trkpt lat="45.39098" lon="4.61389">
        <ele>1341</ele>
        <time>2026-08-18T11:33:05.986Z</time>
      </trkpt>
      <trkpt lat="45.39098" lon="4.61388">
        <ele>1340.9</ele>
        <time>2026-08-18T11:33:06.989Z</time>
      </trkpt>
      <trkpt lat="45.391" lon="4.61385">
        <ele>1342.2</ele>
        <time>2026-08-18T11:33:08.986Z</time>
      </trkpt>
      <trkpt lat="45.391" lon="4.61384">
        <ele>1342</ele>
        <time>2026-08-18T11:33:09.986Z</time>
      </trkpt>
      <trkpt lat="45.39102" lon="4.61381">
        <ele>1342.9</ele>
        <time>2026-08-18T11:33:11.985Z</time>
      </trkpt>
      <trkpt lat="45.39102" lon="4.61381">
        <ele>1343.5</ele>
        <time>2026-08-18T11:33:12.985Z</time>
      </trkpt>
      <trkpt lat="45.39102" lon="4.6138">
        <ele>1344.8</ele>
        <time>2026-08-18T11:33:13.986Z</time>
      </trkpt>
      <trkpt lat="45.39103" lon="4.6138">
        <ele>1344.7</ele>
        <time>2026-08-18T11:33:14.986Z</time>
      </trkpt>
      <trkpt lat="45.39103" lon="4.61379">
        <ele>1344.9</ele>
        <time>2026-08-18T11:33:16.003Z</time>
      </trkpt>
      <trkpt lat="45.39103" lon="4.61379">
        <ele>1345</ele>
        <time>2026-08-18T11:33:17.985Z</time>
      </trkpt>
      <trkpt lat="45.39103" lon="4.61378">
        <ele>1345.2</ele>
        <time>2026-08-18T11:33:19.985Z</time>
      </trkpt>
      <trkpt lat="45.39103" lon="4.61377">
        <ele>1345.4</ele>
        <time>2026-08-18T11:33:20.986Z</time>
      </trkpt>
      <trkpt lat="45.39103" lon="4.61376">
        <ele>1345</ele>
        <time>2026-08-18T11:33:22.918Z</time>
      </trkpt>
      <trkpt lat="45.39104" lon="4.61376">
        <ele>1346</ele>
        <time>2026-08-18T11:33:23.989Z</time>
      </trkpt>
      <trkpt lat="45.39104" lon="4.61374">
        <ele>1346.1</ele>
        <time>2026-08-18T11:33:25.986Z</time>
      </trkpt>
      <trkpt lat="45.39105" lon="4.61373">
        <ele>1346</ele>
        <time>2026-08-18T11:33:26.986Z</time>
      </trkpt>
      <trkpt lat="45.39105" lon="4.61373">
        <ele>1345.1</ele>
        <time>2026-08-18T11:33:28.840Z</time>
      </trkpt>
      <trkpt lat="45.39105" lon="4.61372">
        <ele>1346.5</ele>
        <time>2026-08-18T11:33:30.800Z</time>
      </trkpt>
      <trkpt lat="45.39105" lon="4.61371">
        <ele>1348.2</ele>
        <time>2026-08-18T11:33:31.985Z</time>
      </trkpt>
      <trkpt lat="45.39106" lon="4.6137">
        <ele>1347.5</ele>
        <time>2026-08-18T11:33:32.985Z</time>
      </trkpt>
      <trkpt lat="45.39106" lon="4.61369">
        <ele>1347.8</ele>
        <time>2026-08-18T11:33:33.986Z</time>
      </trkpt>
      <trkpt lat="45.39106" lon="4.61367">
        <ele>1347.7</ele>
        <time>2026-08-18T11:33:35.985Z</time>
      </trkpt>
      <trkpt lat="45.39106" lon="4.61367">
        <ele>1347.5</ele>
        <time>2026-08-18T11:33:36.996Z</time>
      </trkpt>
      <trkpt lat="45.39107" lon="4.61365">
        <ele>1348</ele>
        <time>2026-08-18T11:33:38.985Z</time>
      </trkpt>
      <trkpt lat="45.39107" lon="4.61365">
        <ele>1348</ele>
        <time>2026-08-18T11:33:40.003Z</time>
      </trkpt>
      <trkpt lat="45.39107" lon="4.61363">
        <ele>1349.3</ele>
        <time>2026-08-18T11:33:41.985Z</time>
      </trkpt>
      <trkpt lat="45.39107" lon="4.61363">
        <ele>1348.8</ele>
        <time>2026-08-18T11:33:42.986Z</time>
      </trkpt>
      <trkpt lat="45.39108" lon="4.61362">
        <ele>1350.3</ele>
        <time>2026-08-18T11:33:44.986Z</time>
      </trkpt>
      <trkpt lat="45.39108" lon="4.61363">
        <ele>1350.3</ele>
        <time>2026-08-18T11:33:45.986Z</time>
      </trkpt>
      <trkpt lat="45.39108" lon="4.61362">
        <ele>1350.9</ele>
        <time>2026-08-18T11:33:47.817Z</time>
      </trkpt>
      <trkpt lat="45.39108" lon="4.61362">
        <ele>1351.4</ele>
        <time>2026-08-18T11:33:50.003Z</time>
      </trkpt>
      <trkpt lat="45.39108" lon="4.61361">
        <ele>1350.9</ele>
        <time>2026-08-18T11:33:51.986Z</time>
      </trkpt>
      <trkpt lat="45.39108" lon="4.6136">
        <ele>1350.5</ele>
        <time>2026-08-18T11:33:53.995Z</time>
      </trkpt>
      <trkpt lat="45.39109" lon="4.61359">
        <ele>1350.7</ele>
        <time>2026-08-18T11:33:55.986Z</time>
      </trkpt>
      <trkpt lat="45.39109" lon="4.61358">
        <ele>1350.2</ele>
        <time>2026-08-18T11:33:58.020Z</time>
      </trkpt>
      <trkpt lat="45.3911" lon="4.61357">
        <ele>1349.5</ele>
        <time>2026-08-18T11:33:59.855Z</time>
      </trkpt>
      <trkpt lat="45.39111" lon="4.61355">
        <ele>1348.7</ele>
        <time>2026-08-18T11:34:01.679Z</time>
      </trkpt>
      <trkpt lat="45.39111" lon="4.61353">
        <ele>1349</ele>
        <time>2026-08-18T11:34:02.986Z</time>
      </trkpt>
      <trkpt lat="45.39112" lon="4.61352">
        <ele>1348.9</ele>
        <time>2026-08-18T11:34:03.986Z</time>
      </trkpt>
      <trkpt lat="45.39112" lon="4.61351">
        <ele>1351.6</ele>
        <time>2026-08-18T11:34:05.985Z</time>
      </trkpt>
      <trkpt lat="45.39113" lon="4.6135">
        <ele>1352</ele>
        <time>2026-08-18T11:34:07.002Z</time>
      </trkpt>
      <trkpt lat="45.39114" lon="4.61349">
        <ele>1352.7</ele>
        <time>2026-08-18T11:34:08.985Z</time>
      </trkpt>
      <trkpt lat="45.39114" lon="4.61348">
        <ele>1352.5</ele>
        <time>2026-08-18T11:34:09.986Z</time>
      </trkpt>
      <trkpt lat="45.39115" lon="4.61347">
        <ele>1352.8</ele>
        <time>2026-08-18T11:34:10.995Z</time>
      </trkpt>
      <trkpt lat="45.39115" lon="4.61345">
        <ele>1352.2</ele>
        <time>2026-08-18T11:34:12.986Z</time>
      </trkpt>
      <trkpt lat="45.39115" lon="4.61345">
        <ele>1353.3</ele>
        <time>2026-08-18T11:34:13.986Z</time>
      </trkpt>
      <trkpt lat="45.39115" lon="4.61344">
        <ele>1353.1</ele>
        <time>2026-08-18T11:34:14.988Z</time>
      </trkpt>
      <trkpt lat="45.39115" lon="4.61342">
        <ele>1354.1</ele>
        <time>2026-08-18T11:34:16.940Z</time>
      </trkpt>
      <trkpt lat="45.39115" lon="4.61341">
        <ele>1354.8</ele>
        <time>2026-08-18T11:34:17.985Z</time>
      </trkpt>
      <trkpt lat="45.39115" lon="4.61341">
        <ele>1354.9</ele>
        <time>2026-08-18T11:34:18.986Z</time>
      </trkpt>
      <trkpt lat="45.39116" lon="4.6134">
        <ele>1353.6</ele>
        <time>2026-08-18T11:34:19.986Z</time>
      </trkpt>
      <trkpt lat="45.39116" lon="4.6134">
        <ele>1352.6</ele>
        <time>2026-08-18T11:34:20.986Z</time>
      </trkpt>
      <trkpt lat="45.39116" lon="4.6134">
        <ele>1352</ele>
        <time>2026-08-18T11:34:21.986Z</time>
      </trkpt>
      <trkpt lat="45.39117" lon="4.61339">
        <ele>1352.2</ele>
        <time>2026-08-18T11:34:24.000Z</time>
      </trkpt>
      <trkpt lat="45.39118" lon="4.61339">
        <ele>1351.5</ele>
        <time>2026-08-18T11:34:25.986Z</time>
      </trkpt>
      <trkpt lat="45.39118" lon="4.61338">
        <ele>1351.8</ele>
        <time>2026-08-18T11:34:26.986Z</time>
      </trkpt>
      <trkpt lat="45.39119" lon="4.61338">
        <ele>1352.7</ele>
        <time>2026-08-18T11:34:27.994Z</time>
      </trkpt>
      <trkpt lat="45.3912" lon="4.61338">
        <ele>1353.6</ele>
        <time>2026-08-18T11:34:29.985Z</time>
      </trkpt>
      <trkpt lat="45.39121" lon="4.61337">
        <ele>1352.4</ele>
        <time>2026-08-18T11:34:30.985Z</time>
      </trkpt>
      <trkpt lat="45.39121" lon="4.61337">
        <ele>1352.9</ele>
        <time>2026-08-18T11:34:31.988Z</time>
      </trkpt>
      <trkpt lat="45.39123" lon="4.61336">
        <ele>1354</ele>
        <time>2026-08-18T11:34:33.985Z</time>
      </trkpt>
      <trkpt lat="45.39124" lon="4.61336">
        <ele>1355</ele>
        <time>2026-08-18T11:34:34.985Z</time>
      </trkpt>
      <trkpt lat="45.39126" lon="4.61335">
        <ele>1355.3</ele>
        <time>2026-08-18T11:34:35.985Z</time>
      </trkpt>
      <trkpt lat="45.39129" lon="4.61333">
        <ele>1353.9</ele>
        <time>2026-08-18T11:34:37.987Z</time>
      </trkpt>
      <trkpt lat="45.39131" lon="4.61333">
        <ele>1353.7</ele>
        <time>2026-08-18T11:34:39.986Z</time>
      </trkpt>
      <trkpt lat="45.39132" lon="4.61333">
        <ele>1353.9</ele>
        <time>2026-08-18T11:34:41.001Z</time>
      </trkpt>
      <trkpt lat="45.39133" lon="4.61332">
        <ele>1355.3</ele>
        <time>2026-08-18T11:34:42.985Z</time>
      </trkpt>
      <trkpt lat="45.39134" lon="4.61331">
        <ele>1354.8</ele>
        <time>2026-08-18T11:34:43.986Z</time>
      </trkpt>
      <trkpt lat="45.39133" lon="4.61331">
        <ele>1355.7</ele>
        <time>2026-08-18T11:34:44.994Z</time>
      </trkpt>
      <trkpt lat="45.39133" lon="4.6133">
        <ele>1356.8</ele>
        <time>2026-08-18T11:34:46.985Z</time>
      </trkpt>
      <trkpt lat="45.39133" lon="4.6133">
        <ele>1356.8</ele>
        <time>2026-08-18T11:34:48.020Z</time>
      </trkpt>
      <trkpt lat="45.39135" lon="4.6133">
        <ele>1357.1</ele>
        <time>2026-08-18T11:34:49.985Z</time>
      </trkpt>
      <trkpt lat="45.39135" lon="4.6133">
        <ele>1357.1</ele>
        <time>2026-08-18T11:34:50.986Z</time>
      </trkpt>
      <trkpt lat="45.39136" lon="4.61329">
        <ele>1356.7</ele>
        <time>2026-08-18T11:34:52.985Z</time>
      </trkpt>
      <trkpt lat="45.39137" lon="4.61329">
        <ele>1357.1</ele>
        <time>2026-08-18T11:34:53.986Z</time>
      </trkpt>
      <trkpt lat="45.39138" lon="4.61329">
        <ele>1357.3</ele>
        <time>2026-08-18T11:34:55.986Z</time>
      </trkpt>
      <trkpt lat="45.39139" lon="4.61328">
        <ele>1358.7</ele>
        <time>2026-08-18T11:34:57.999Z</time>
      </trkpt>
      <trkpt lat="45.3914" lon="4.61327">
        <ele>1359.9</ele>
        <time>2026-08-18T11:34:59.986Z</time>
      </trkpt>
      <trkpt lat="45.3914" lon="4.61327">
        <ele>1360</ele>
        <time>2026-08-18T11:35:00.986Z</time>
      </trkpt>
      <trkpt lat="45.39141" lon="4.61326">
        <ele>1360.6</ele>
        <time>2026-08-18T11:35:02.986Z</time>
      </trkpt>
      <trkpt lat="45.39141" lon="4.61326">
        <ele>1360.2</ele>
        <time>2026-08-18T11:35:04.986Z</time>
      </trkpt>
      <trkpt lat="45.39141" lon="4.61326">
        <ele>1359.9</ele>
        <time>2026-08-18T11:35:05.986Z</time>
      </trkpt>
      <trkpt lat="45.39142" lon="4.61325">
        <ele>1360.4</ele>
        <time>2026-08-18T11:35:07.984Z</time>
      </trkpt>
      <trkpt lat="45.39142" lon="4.61325">
        <ele>1360.5</ele>
        <time>2026-08-18T11:35:08.985Z</time>
      </trkpt>
      <trkpt lat="45.39143" lon="4.61325">
        <ele>1360.6</ele>
        <time>2026-08-18T11:35:09.986Z</time>
      </trkpt>
      <trkpt lat="45.39143" lon="4.61324">
        <ele>1360.1</ele>
        <time>2026-08-18T11:35:10.986Z</time>
      </trkpt>
      <trkpt lat="45.39144" lon="4.61324">
        <ele>1360.1</ele>
        <time>2026-08-18T11:35:12.986Z</time>
      </trkpt>
      <trkpt lat="45.39145" lon="4.61324">
        <ele>1360</ele>
        <time>2026-08-18T11:35:13.986Z</time>
      </trkpt>
      <trkpt lat="45.39147" lon="4.61323">
        <ele>1360.9</ele>
        <time>2026-08-18T11:35:15.985Z</time>
      </trkpt>
      <trkpt lat="45.39148" lon="4.61322">
        <ele>1361.4</ele>
        <time>2026-08-18T11:35:16.985Z</time>
      </trkpt>
      <trkpt lat="45.39149" lon="4.61321">
        <ele>1361.5</ele>
        <time>2026-08-18T11:35:18.992Z</time>
      </trkpt>
      <trkpt lat="45.39151" lon="4.6132">
        <ele>1363.2</ele>
        <time>2026-08-18T11:35:20.985Z</time>
      </trkpt>
      <trkpt lat="45.39152" lon="4.6132">
        <ele>1363.3</ele>
        <time>2026-08-18T11:35:21.986Z</time>
      </trkpt>
      <trkpt lat="45.39153" lon="4.6132">
        <ele>1363.8</ele>
        <time>2026-08-18T11:35:23.985Z</time>
      </trkpt>
      <trkpt lat="45.39154" lon="4.6132">
        <ele>1364.1</ele>
        <time>2026-08-18T11:35:24.986Z</time>
      </trkpt>
      <trkpt lat="45.39154" lon="4.6132">
        <ele>1364.7</ele>
        <time>2026-08-18T11:35:25.986Z</time>
      </trkpt>
      <trkpt lat="45.39154" lon="4.6132">
        <ele>1364.8</ele>
        <time>2026-08-18T11:35:26.986Z</time>
      </trkpt>
      <trkpt lat="45.39155" lon="4.6132">
        <ele>1365.2</ele>
        <time>2026-08-18T11:35:27.986Z</time>
      </trkpt>
      <trkpt lat="45.39155" lon="4.6132">
        <ele>1365.6</ele>
        <time>2026-08-18T11:35:29.976Z</time>
      </trkpt>
      <trkpt lat="45.39156" lon="4.61319">
        <ele>1366.8</ele>
        <time>2026-08-18T11:35:30.986Z</time>
      </trkpt>
      <trkpt lat="45.39157" lon="4.61318">
        <ele>1367.7</ele>
        <time>2026-08-18T11:35:31.998Z</time>
      </trkpt>
      <trkpt lat="45.39158" lon="4.61318">
        <ele>1367.4</ele>
        <time>2026-08-18T11:35:33.986Z</time>
      </trkpt>
      <trkpt lat="45.39159" lon="4.61318">
        <ele>1367.2</ele>
        <time>2026-08-18T11:35:35.861Z</time>
      </trkpt>
      <trkpt lat="45.39159" lon="4.61318">
        <ele>1367.2</ele>
        <time>2026-08-18T11:35:36.896Z</time>
      </trkpt>
      <trkpt lat="45.3916" lon="4.61318">
        <ele>1367.4</ele>
        <time>2026-08-18T11:35:37.984Z</time>
      </trkpt>
      <trkpt lat="45.39161" lon="4.61317">
        <ele>1368.1</ele>
        <time>2026-08-18T11:35:38.986Z</time>
      </trkpt>
      <trkpt lat="45.39161" lon="4.61316">
        <ele>1368.7</ele>
        <time>2026-08-18T11:35:39.986Z</time>
      </trkpt>
      <trkpt lat="45.39162" lon="4.61315">
        <ele>1369.1</ele>
        <time>2026-08-18T11:35:40.986Z</time>
      </trkpt>
      <trkpt lat="45.39162" lon="4.61314">
        <ele>1370</ele>
        <time>2026-08-18T11:35:41.986Z</time>
      </trkpt>
      <trkpt lat="45.39163" lon="4.61312">
        <ele>1370.6</ele>
        <time>2026-08-18T11:35:43.986Z</time>
      </trkpt>
      <trkpt lat="45.39163" lon="4.61311">
        <ele>1370.7</ele>
        <time>2026-08-18T11:35:44.986Z</time>
      </trkpt>
      <trkpt lat="45.39164" lon="4.6131">
        <ele>1371.3</ele>
        <time>2026-08-18T11:35:45.986Z</time>
      </trkpt>
      <trkpt lat="45.39164" lon="4.61309">
        <ele>1372.2</ele>
        <time>2026-08-18T11:35:47.985Z</time>
      </trkpt>
      <trkpt lat="45.39165" lon="4.61309">
        <ele>1372.4</ele>
        <time>2026-08-18T11:35:48.997Z</time>
      </trkpt>
      <trkpt lat="45.39166" lon="4.61308">
        <ele>1373</ele>
        <time>2026-08-18T11:35:50.985Z</time>
      </trkpt>
      <trkpt lat="45.39166" lon="4.61308">
        <ele>1373.2</ele>
        <time>2026-08-18T11:35:51.985Z</time>
      </trkpt>
      <trkpt lat="45.39166" lon="4.61308">
        <ele>1374.2</ele>
        <time>2026-08-18T11:35:52.990Z</time>
      </trkpt>
      <trkpt lat="45.39167" lon="4.61307">
        <ele>1374</ele>
        <time>2026-08-18T11:35:54.985Z</time>
      </trkpt>
      <trkpt lat="45.39168" lon="4.61307">
        <ele>1374.2</ele>
        <time>2026-08-18T11:35:55.985Z</time>
      </trkpt>
      <trkpt lat="45.39168" lon="4.61306">
        <ele>1374.1</ele>
        <time>2026-08-18T11:35:56.986Z</time>
      </trkpt>
      <trkpt lat="45.39169" lon="4.61305">
        <ele>1374.7</ele>
        <time>2026-08-18T11:35:58.986Z</time>
      </trkpt>
      <trkpt lat="45.39169" lon="4.61304">
        <ele>1375.1</ele>
        <time>2026-08-18T11:35:59.986Z</time>
      </trkpt>
      <trkpt lat="45.39169" lon="4.61303">
        <ele>1375.9</ele>
        <time>2026-08-18T11:36:02.003Z</time>
      </trkpt>
      <trkpt lat="45.3917" lon="4.61302">
        <ele>1376.3</ele>
        <time>2026-08-18T11:36:03.986Z</time>
      </trkpt>
      <trkpt lat="45.39171" lon="4.61301">
        <ele>1376.8</ele>
        <time>2026-08-18T11:36:04.986Z</time>
      </trkpt>
      <trkpt lat="45.39171" lon="4.61301">
        <ele>1377.3</ele>
        <time>2026-08-18T11:36:05.997Z</time>
      </trkpt>
      <trkpt lat="45.39172" lon="4.61301">
        <ele>1377.3</ele>
        <time>2026-08-18T11:36:07.986Z</time>
      </trkpt>
      <trkpt lat="45.39173" lon="4.613">
        <ele>1377.4</ele>
        <time>2026-08-18T11:36:09.990Z</time>
      </trkpt>
      <trkpt lat="45.39174" lon="4.613">
        <ele>1377.7</ele>
        <time>2026-08-18T11:36:11.984Z</time>
      </trkpt>
      <trkpt lat="45.39175" lon="4.61299">
        <ele>1378.8</ele>
        <time>2026-08-18T11:36:12.985Z</time>
      </trkpt>
      <trkpt lat="45.39175" lon="4.61299">
        <ele>1378.4</ele>
        <time>2026-08-18T11:36:13.986Z</time>
      </trkpt>
      <trkpt lat="45.39176" lon="4.61298">
        <ele>1378.8</ele>
        <time>2026-08-18T11:36:15.986Z</time>
      </trkpt>
      <trkpt lat="45.39176" lon="4.61298">
        <ele>1378.7</ele>
        <time>2026-08-18T11:36:16.986Z</time>
      </trkpt>
      <trkpt lat="45.39177" lon="4.61297">
        <ele>1378.8</ele>
        <time>2026-08-18T11:36:18.976Z</time>
      </trkpt>
      <trkpt lat="45.39178" lon="4.61297">
        <ele>1378.7</ele>
        <time>2026-08-18T11:36:19.985Z</time>
      </trkpt>
      <trkpt lat="45.39178" lon="4.61296">
        <ele>1378.6</ele>
        <time>2026-08-18T11:36:20.986Z</time>
      </trkpt>
      <trkpt lat="45.39179" lon="4.61295">
        <ele>1379.2</ele>
        <time>2026-08-18T11:36:21.986Z</time>
      </trkpt>
      <trkpt lat="45.39179" lon="4.61294">
        <ele>1379.3</ele>
        <time>2026-08-18T11:36:22.995Z</time>
      </trkpt>
      <trkpt lat="45.3918" lon="4.61293">
        <ele>1379.7</ele>
        <time>2026-08-18T11:36:24.985Z</time>
      </trkpt>
      <trkpt lat="45.3918" lon="4.61293">
        <ele>1380.2</ele>
        <time>2026-08-18T11:36:25.986Z</time>
      </trkpt>
      <trkpt lat="45.39181" lon="4.61292">
        <ele>1380.5</ele>
        <time>2026-08-18T11:36:26.988Z</time>
      </trkpt>
      <trkpt lat="45.39181" lon="4.61291">
        <ele>1381.5</ele>
        <time>2026-08-18T11:36:28.985Z</time>
      </trkpt>
      <trkpt lat="45.39182" lon="4.6129">
        <ele>1381.9</ele>
        <time>2026-08-18T11:36:30.986Z</time>
      </trkpt>
      <trkpt lat="45.39182" lon="4.6129">
        <ele>1380.9</ele>
        <time>2026-08-18T11:36:32.009Z</time>
      </trkpt>
      <trkpt lat="45.39184" lon="4.61288">
        <ele>1381.7</ele>
        <time>2026-08-18T11:36:33.985Z</time>
      </trkpt>
      <trkpt lat="45.39185" lon="4.61288">
        <ele>1381.6</ele>
        <time>2026-08-18T11:36:34.986Z</time>
      </trkpt>
      <trkpt lat="45.39185" lon="4.61287">
        <ele>1381.2</ele>
        <time>2026-08-18T11:36:36.002Z</time>
      </trkpt>
      <trkpt lat="45.39186" lon="4.61286">
        <ele>1382.1</ele>
        <time>2026-08-18T11:36:37.982Z</time>
      </trkpt>
      <trkpt lat="45.39186" lon="4.61286">
        <ele>1382.4</ele>
        <time>2026-08-18T11:36:38.985Z</time>
      </trkpt>
      <trkpt lat="45.39187" lon="4.61286">
        <ele>1382.3</ele>
        <time>2026-08-18T11:36:39.994Z</time>
      </trkpt>
      <trkpt lat="45.39188" lon="4.61286">
        <ele>1382.9</ele>
        <time>2026-08-18T11:36:41.985Z</time>
      </trkpt>
      <trkpt lat="45.39189" lon="4.61286">
        <ele>1383.7</ele>
        <time>2026-08-18T11:36:42.986Z</time>
      </trkpt>
      <trkpt lat="45.39189" lon="4.61286">
        <ele>1383.3</ele>
        <time>2026-08-18T11:36:43.988Z</time>
      </trkpt>
      <trkpt lat="45.39191" lon="4.61287">
        <ele>1383.1</ele>
        <time>2026-08-18T11:36:45.985Z</time>
      </trkpt>
      <trkpt lat="45.39192" lon="4.61287">
        <ele>1383.5</ele>
        <time>2026-08-18T11:36:46.985Z</time>
      </trkpt>
      <trkpt lat="45.39192" lon="4.61287">
        <ele>1383.7</ele>
        <time>2026-08-18T11:36:47.985Z</time>
      </trkpt>
      <trkpt lat="45.39193" lon="4.61288">
        <ele>1383.9</ele>
        <time>2026-08-18T11:36:48.985Z</time>
      </trkpt>
      <trkpt lat="45.39194" lon="4.61288">
        <ele>1384</ele>
        <time>2026-08-18T11:36:49.985Z</time>
      </trkpt>
      <trkpt lat="45.39194" lon="4.61288">
        <ele>1384.2</ele>
        <time>2026-08-18T11:36:50.986Z</time>
      </trkpt>
      <trkpt lat="45.39196" lon="4.61289">
        <ele>1384.5</ele>
        <time>2026-08-18T11:36:53.000Z</time>
      </trkpt>
      <trkpt lat="45.39197" lon="4.61289">
        <ele>1385.8</ele>
        <time>2026-08-18T11:36:54.986Z</time>
      </trkpt>
      <trkpt lat="45.39198" lon="4.61289">
        <ele>1386.2</ele>
        <time>2026-08-18T11:36:55.986Z</time>
      </trkpt>
      <trkpt lat="45.39198" lon="4.61289">
        <ele>1386.5</ele>
        <time>2026-08-18T11:36:56.986Z</time>
      </trkpt>
      <trkpt lat="45.39199" lon="4.61289">
        <ele>1387.1</ele>
        <time>2026-08-18T11:36:57.986Z</time>
      </trkpt>
      <trkpt lat="45.392" lon="4.61289">
        <ele>1387.3</ele>
        <time>2026-08-18T11:36:59.878Z</time>
      </trkpt>
      <trkpt lat="45.39201" lon="4.61289">
        <ele>1387.3</ele>
        <time>2026-08-18T11:37:01.986Z</time>
      </trkpt>
      <trkpt lat="45.39202" lon="4.61289">
        <ele>1387.9</ele>
        <time>2026-08-18T11:37:03.986Z</time>
      </trkpt>
      <trkpt lat="45.39203" lon="4.61289">
        <ele>1388.4</ele>
        <time>2026-08-18T11:37:04.986Z</time>
      </trkpt>
      <trkpt lat="45.39203" lon="4.61289">
        <ele>1388.4</ele>
        <time>2026-08-18T11:37:05.986Z</time>
      </trkpt>
      <trkpt lat="45.39204" lon="4.61288">
        <ele>1389.1</ele>
        <time>2026-08-18T11:37:07.986Z</time>
      </trkpt>
      <trkpt lat="45.39205" lon="4.61288">
        <ele>1389.3</ele>
        <time>2026-08-18T11:37:10.001Z</time>
      </trkpt>
      <trkpt lat="45.39206" lon="4.61288">
        <ele>1389.9</ele>
        <time>2026-08-18T11:37:11.986Z</time>
      </trkpt>
      <trkpt lat="45.39206" lon="4.61288">
        <ele>1389.7</ele>
        <time>2026-08-18T11:37:12.986Z</time>
      </trkpt>
      <trkpt lat="45.39207" lon="4.61287">
        <ele>1389.8</ele>
        <time>2026-08-18T11:37:13.993Z</time>
      </trkpt>
      <trkpt lat="45.39207" lon="4.61286">
        <ele>1389</ele>
        <time>2026-08-18T11:37:15.985Z</time>
      </trkpt>
      <trkpt lat="45.39208" lon="4.61285">
        <ele>1389.6</ele>
        <time>2026-08-18T11:37:16.986Z</time>
      </trkpt>
      <trkpt lat="45.39208" lon="4.61285">
        <ele>1389.8</ele>
        <time>2026-08-18T11:37:17.987Z</time>
      </trkpt>
      <trkpt lat="45.39209" lon="4.61284">
        <ele>1389.9</ele>
        <time>2026-08-18T11:37:18.987Z</time>
      </trkpt>
      <trkpt lat="45.3921" lon="4.61284">
        <ele>1390.2</ele>
        <time>2026-08-18T11:37:20.985Z</time>
      </trkpt>
      <trkpt lat="45.3921" lon="4.61284">
        <ele>1390.8</ele>
        <time>2026-08-18T11:37:21.986Z</time>
      </trkpt>
      <trkpt lat="45.39211" lon="4.61283">
        <ele>1391.3</ele>
        <time>2026-08-18T11:37:22.986Z</time>
      </trkpt>
      <trkpt lat="45.39211" lon="4.61283">
        <ele>1391.7</ele>
        <time>2026-08-18T11:37:23.986Z</time>
      </trkpt>
      <trkpt lat="45.39212" lon="4.61283">
        <ele>1391.4</ele>
        <time>2026-08-18T11:37:25.986Z</time>
      </trkpt>
      <trkpt lat="45.39213" lon="4.61283">
        <ele>1391.6</ele>
        <time>2026-08-18T11:37:27.985Z</time>
      </trkpt>
      <trkpt lat="45.39214" lon="4.61282">
        <ele>1391.3</ele>
        <time>2026-08-18T11:37:28.986Z</time>
      </trkpt>
      <trkpt lat="45.39214" lon="4.61282">
        <ele>1391.3</ele>
        <time>2026-08-18T11:37:29.986Z</time>
      </trkpt>
      <trkpt lat="45.39215" lon="4.61282">
        <ele>1391.2</ele>
        <time>2026-08-18T11:37:30.993Z</time>
      </trkpt>
      <trkpt lat="45.39216" lon="4.61281">
        <ele>1391.5</ele>
        <time>2026-08-18T11:37:32.985Z</time>
      </trkpt>
      <trkpt lat="45.39216" lon="4.61281">
        <ele>1391.5</ele>
        <time>2026-08-18T11:37:33.986Z</time>
      </trkpt>
      <trkpt lat="45.39218" lon="4.61281">
        <ele>1391.8</ele>
        <time>2026-08-18T11:37:35.986Z</time>
      </trkpt>
      <trkpt lat="45.39219" lon="4.61283">
        <ele>1391.6</ele>
        <time>2026-08-18T11:37:37.986Z</time>
      </trkpt>
      <trkpt lat="45.3922" lon="4.61283">
        <ele>1392.4</ele>
        <time>2026-08-18T11:37:38.986Z</time>
      </trkpt>
      <trkpt lat="45.3922" lon="4.61282">
        <ele>1392.7</ele>
        <time>2026-08-18T11:37:39.986Z</time>
      </trkpt>
      <trkpt lat="45.39221" lon="4.61281">
        <ele>1393</ele>
        <time>2026-08-18T11:37:41.986Z</time>
      </trkpt>
      <trkpt lat="45.39222" lon="4.61281">
        <ele>1393.5</ele>
        <time>2026-08-18T11:37:43.999Z</time>
      </trkpt>
      <trkpt lat="45.39222" lon="4.61281">
        <ele>1393.3</ele>
        <time>2026-08-18T11:37:45.998Z</time>
      </trkpt>
      <trkpt lat="45.39223" lon="4.61282">
        <ele>1394.1</ele>
        <time>2026-08-18T11:37:47.992Z</time>
      </trkpt>
      <trkpt lat="45.39225" lon="4.61282">
        <ele>1394.2</ele>
        <time>2026-08-18T11:37:49.985Z</time>
      </trkpt>
      <trkpt lat="45.39225" lon="4.61282">
        <ele>1394.5</ele>
        <time>2026-08-18T11:37:50.985Z</time>
      </trkpt>
      <trkpt lat="45.39226" lon="4.61282">
        <ele>1394.4</ele>
        <time>2026-08-18T11:37:51.986Z</time>
      </trkpt>
      <trkpt lat="45.39226" lon="4.61281">
        <ele>1394.7</ele>
        <time>2026-08-18T11:37:52.986Z</time>
      </trkpt>
      <trkpt lat="45.39226" lon="4.61281">
        <ele>1394.8</ele>
        <time>2026-08-18T11:37:53.986Z</time>
      </trkpt>
      <trkpt lat="45.39226" lon="4.61281">
        <ele>1394.7</ele>
        <time>2026-08-18T11:37:55.985Z</time>
      </trkpt>
      <trkpt lat="45.39226" lon="4.61281">
        <ele>1394.7</ele>
        <time>2026-08-18T11:37:57.006Z</time>
      </trkpt>
      <trkpt lat="45.39226" lon="4.61281">
        <ele>1394.3</ele>
        <time>2026-08-18T11:37:58.985Z</time>
      </trkpt>
      <trkpt lat="45.39226" lon="4.61281">
        <ele>1394</ele>
        <time>2026-08-18T11:37:59.985Z</time>
      </trkpt>
      <trkpt lat="45.39226" lon="4.61281">
        <ele>1394</ele>
        <time>2026-08-18T11:38:00.998Z</time>
      </trkpt>
      <trkpt lat="45.39226" lon="4.61281">
        <ele>1394</ele>
        <time>2026-08-18T11:38:02.985Z</time>
      </trkpt>
      <trkpt lat="45.39226" lon="4.61281">
        <ele>1394</ele>
        <time>2026-08-18T11:38:03.985Z</time>
      </trkpt>
      <trkpt lat="45.39226" lon="4.61281">
        <ele>1394</ele>
        <time>2026-08-18T11:38:04.992Z</time>
      </trkpt>
      <trkpt lat="45.39226" lon="4.61281">
        <ele>1394</ele>
        <time>2026-08-18T11:38:06.985Z</time>
      </trkpt>
      <trkpt lat="45.39226" lon="4.61281">
        <ele>1394</ele>
        <time>2026-08-18T11:38:07.986Z</time>
      </trkpt>
      <trkpt lat="45.39226" lon="4.61281">
        <ele>1394</ele>
        <time>2026-08-18T11:38:08.986Z</time>
      </trkpt>
      <trkpt lat="45.39226" lon="4.61281">
        <ele>1394</ele>
        <time>2026-08-18T11:38:10.986Z</time>
      </trkpt>
      <trkpt lat="45.39226" lon="4.61281">
        <ele>1394</ele>
        <time>2026-08-18T11:38:12.986Z</time>
      </trkpt>
      <trkpt lat="45.39226" lon="4.61281">
        <ele>1394</ele>
        <time>2026-08-18T11:38:14.996Z</time>
      </trkpt>
      <trkpt lat="45.39225" lon="4.61282">
        <ele>1392.1</ele>
        <time>2026-08-18T11:38:16.986Z</time>
      </trkpt>
      <trkpt lat="45.39224" lon="4.61282">
        <ele>1392.2</ele>
        <time>2026-08-18T11:38:17.997Z</time>
      </trkpt>
      <trkpt lat="45.39224" lon="4.61282">
        <ele>1392.1</ele>
        <time>2026-08-18T11:38:19.986Z</time>
      </trkpt>
      <trkpt lat="45.39224" lon="4.61282">
        <ele>1392.1</ele>
        <time>2026-08-18T11:38:20.986Z</time>
      </trkpt>
      <trkpt lat="45.39224" lon="4.61282">
        <ele>1392.1</ele>
        <time>2026-08-18T11:38:21.990Z</time>
      </trkpt>
      <trkpt lat="45.39224" lon="4.61283">
        <ele>1392.1</ele>
        <time>2026-08-18T11:38:23.986Z</time>
      </trkpt>
      <trkpt lat="45.39224" lon="4.61283">
        <ele>1392.1</ele>
        <time>2026-08-18T11:38:24.986Z</time>
      </trkpt>
      <trkpt lat="45.39224" lon="4.61283">
        <ele>1392.1</ele>
        <time>2026-08-18T11:38:25.986Z</time>
      </trkpt>
      <trkpt lat="45.39224" lon="4.61283">
        <ele>1392.1</ele>
        <time>2026-08-18T11:38:26.986Z</time>
      </trkpt>
      <trkpt lat="45.39224" lon="4.61283">
        <ele>1392.1</ele>
        <time>2026-08-18T11:38:27.986Z</time>
      </trkpt>
      <trkpt lat="45.39223" lon="4.61283">
        <ele>1392.1</ele>
        <time>2026-08-18T11:38:29.986Z</time>
      </trkpt>
      <trkpt lat="45.39223" lon="4.61283">
        <ele>1392.1</ele>
        <time>2026-08-18T11:38:31.004Z</time>
      </trkpt>
      <trkpt lat="45.39223" lon="4.61283">
        <ele>1392.1</ele>
        <time>2026-08-18T11:38:32.986Z</time>
      </trkpt>
      <trkpt lat="45.39223" lon="4.61283">
        <ele>1392.1</ele>
        <time>2026-08-18T11:38:33.986Z</time>
      </trkpt>
      <trkpt lat="45.39223" lon="4.61284">
        <ele>1392.1</ele>
        <time>2026-08-18T11:38:34.986Z</time>
      </trkpt>
      <trkpt lat="45.39223" lon="4.61284">
        <ele>1392.1</ele>
        <time>2026-08-18T11:38:36.985Z</time>
      </trkpt>
      <trkpt lat="45.39223" lon="4.61284">
        <ele>1392.1</ele>
        <time>2026-08-18T11:38:37.986Z</time>
      </trkpt>
      <trkpt lat="45.39223" lon="4.61284">
        <ele>1392.1</ele>
        <time>2026-08-18T11:38:38.990Z</time>
      </trkpt>
      <trkpt lat="45.39223" lon="4.61284">
        <ele>1392.1</ele>
        <time>2026-08-18T11:38:40.986Z</time>
      </trkpt>
      <trkpt lat="45.39223" lon="4.61284">
        <ele>1392.1</ele>
        <time>2026-08-18T11:38:41.986Z</time>
      </trkpt>
      <trkpt lat="45.39223" lon="4.61284">
        <ele>1392.1</ele>
        <time>2026-08-18T11:38:42.986Z</time>
      </trkpt>
      <trkpt lat="45.39223" lon="4.61284">
        <ele>1392.1</ele>
        <time>2026-08-18T11:38:44.985Z</time>
      </trkpt>
      <trkpt lat="45.39223" lon="4.61284">
        <ele>1391.9</ele>
        <time>2026-08-18T11:38:45.986Z</time>
      </trkpt>
      <trkpt lat="45.39223" lon="4.61284">
        <ele>1391.9</ele>
        <time>2026-08-18T11:38:46.986Z</time>
      </trkpt>
      <trkpt lat="45.39223" lon="4.61284">
        <ele>1391.9</ele>
        <time>2026-08-18T11:38:48.986Z</time>
      </trkpt>
      <trkpt lat="45.39223" lon="4.61284">
        <ele>1391.9</ele>
        <time>2026-08-18T11:38:50.986Z</time>
      </trkpt>
      <trkpt lat="45.39223" lon="4.61284">
        <ele>1391.9</ele>
        <time>2026-08-18T11:38:51.996Z</time>
      </trkpt>
      <trkpt lat="45.39223" lon="4.61284">
        <ele>1391.9</ele>
        <time>2026-08-18T11:38:53.985Z</time>
      </trkpt>
      <trkpt lat="45.39223" lon="4.61284">
        <ele>1391.9</ele>
        <time>2026-08-18T11:38:54.986Z</time>
      </trkpt>
      <trkpt lat="45.39223" lon="4.61284">
        <ele>1391.9</ele>
        <time>2026-08-18T11:38:55.990Z</time>
      </trkpt>
      <trkpt lat="45.39223" lon="4.61284">
        <ele>1391.9</ele>
        <time>2026-08-18T11:38:57.986Z</time>
      </trkpt>
      <trkpt lat="45.39223" lon="4.61284">
        <ele>1391.9</ele>
        <time>2026-08-18T11:38:58.986Z</time>
      </trkpt>
      <trkpt lat="45.39223" lon="4.61284">
        <ele>1391.9</ele>
        <time>2026-08-18T11:38:59.986Z</time>
      </trkpt>
      <trkpt lat="45.39223" lon="4.61284">
        <ele>1391.9</ele>
        <time>2026-08-18T11:39:00.986Z</time>
      </trkpt>
      <trkpt lat="45.39223" lon="4.61284">
        <ele>1391.9</ele>
        <time>2026-08-18T11:39:01.986Z</time>
      </trkpt>
      <trkpt lat="45.39223" lon="4.61284">
        <ele>1391.9</ele>
        <time>2026-08-18T11:39:02.986Z</time>
      </trkpt>
      <trkpt lat="45.39223" lon="4.61284">
        <ele>1391.9</ele>
        <time>2026-08-18T11:39:03.986Z</time>
      </trkpt>
      <trkpt lat="45.39223" lon="4.61284">
        <ele>1391.9</ele>
        <time>2026-08-18T11:39:04.986Z</time>
      </trkpt>
      <trkpt lat="45.39223" lon="4.61283">
        <ele>1391.9</ele>
        <time>2026-08-18T11:39:05.986Z</time>
      </trkpt>
      <trkpt lat="45.39223" lon="4.61283">
        <ele>1391.9</ele>
        <time>2026-08-18T11:39:07.985Z</time>
      </trkpt>
      <trkpt lat="45.39223" lon="4.61283">
        <ele>1391.9</ele>
        <time>2026-08-18T11:39:08.996Z</time>
      </trkpt>
      <trkpt lat="45.39223" lon="4.61283">
        <ele>1391.9</ele>
        <time>2026-08-18T11:39:10.986Z</time>
      </trkpt>
      <trkpt lat="45.39223" lon="4.61283">
        <ele>1391.9</ele>
        <time>2026-08-18T11:39:12.989Z</time>
      </trkpt>
      <trkpt lat="45.39223" lon="4.61283">
        <ele>1391.9</ele>
        <time>2026-08-18T11:39:14.984Z</time>
      </trkpt>
      <trkpt lat="45.39223" lon="4.61283">
        <ele>1391.9</ele>
        <time>2026-08-18T11:39:15.986Z</time>
      </trkpt>
      <trkpt lat="45.39223" lon="4.61283">
        <ele>1391.9</ele>
        <time>2026-08-18T11:39:16.986Z</time>
      </trkpt>
      <trkpt lat="45.39223" lon="4.61283">
        <ele>1392.2</ele>
        <time>2026-08-18T11:39:18.943Z</time>
      </trkpt>
      <trkpt lat="45.39223" lon="4.61284">
        <ele>1392.2</ele>
        <time>2026-08-18T11:39:19.986Z</time>
      </trkpt>
      <trkpt lat="45.39223" lon="4.61284">
        <ele>1392.2</ele>
        <time>2026-08-18T11:39:20.986Z</time>
      </trkpt>
      <trkpt lat="45.39223" lon="4.61284">
        <ele>1392.1</ele>
        <time>2026-08-18T11:39:22.002Z</time>
      </trkpt>
      <trkpt lat="45.39224" lon="4.61283">
        <ele>1392.1</ele>
        <time>2026-08-18T11:39:23.985Z</time>
      </trkpt>
      <trkpt lat="45.39224" lon="4.61283">
        <ele>1392.1</ele>
        <time>2026-08-18T11:39:24.986Z</time>
      </trkpt>
      <trkpt lat="45.39224" lon="4.61283">
        <ele>1392</ele>
        <time>2026-08-18T11:39:26.986Z</time>
      </trkpt>
      <trkpt lat="45.39224" lon="4.61283">
        <ele>1392</ele>
        <time>2026-08-18T11:39:27.986Z</time>
      </trkpt>
      <trkpt lat="45.39224" lon="4.61283">
        <ele>1392</ele>
        <time>2026-08-18T11:39:28.986Z</time>
      </trkpt>
      <trkpt lat="45.39224" lon="4.61283">
        <ele>1392</ele>
        <time>2026-08-18T11:39:29.988Z</time>
      </trkpt>
      <trkpt lat="45.39224" lon="4.61283">
        <ele>1392</ele>
        <time>2026-08-18T11:39:31.986Z</time>
      </trkpt>
      <trkpt lat="45.39224" lon="4.61283">
        <ele>1392</ele>
        <time>2026-08-18T11:39:33.986Z</time>
      </trkpt>
      <trkpt lat="45.39224" lon="4.61283">
        <ele>1391.9</ele>
        <time>2026-08-18T11:39:35.986Z</time>
      </trkpt>
      <trkpt lat="45.39224" lon="4.61283">
        <ele>1391.9</ele>
        <time>2026-08-18T11:39:36.986Z</time>
      </trkpt>
      <trkpt lat="45.39224" lon="4.61283">
        <ele>1391.9</ele>
        <time>2026-08-18T11:39:37.986Z</time>
      </trkpt>
      <trkpt lat="45.39224" lon="4.61283">
        <ele>1391.9</ele>
        <time>2026-08-18T11:39:38.994Z</time>
      </trkpt>
      <trkpt lat="45.39224" lon="4.61283">
        <ele>1392.2</ele>
        <time>2026-08-18T11:39:40.986Z</time>
      </trkpt>
      <trkpt lat="45.39224" lon="4.61282">
        <ele>1392.4</ele>
        <time>2026-08-18T11:39:42.994Z</time>
      </trkpt>
      <trkpt lat="45.39224" lon="4.61282">
        <ele>1392.4</ele>
        <time>2026-08-18T11:39:44.985Z</time>
      </trkpt>
      <trkpt lat="45.39224" lon="4.61282">
        <ele>1392.3</ele>
        <time>2026-08-18T11:39:45.985Z</time>
      </trkpt>
      <trkpt lat="45.39224" lon="4.61282">
        <ele>1392.3</ele>
        <time>2026-08-18T11:39:47.018Z</time>
      </trkpt>
      <trkpt lat="45.39225" lon="4.61282">
        <ele>1392.2</ele>
        <time>2026-08-18T11:39:48.986Z</time>
      </trkpt>
      <trkpt lat="45.39225" lon="4.61282">
        <ele>1392.1</ele>
        <time>2026-08-18T11:39:49.986Z</time>
      </trkpt>
      <trkpt lat="45.39226" lon="4.61283">
        <ele>1391.8</ele>
        <time>2026-08-18T11:39:51.986Z</time>
      </trkpt>
      <trkpt lat="45.39226" lon="4.61286">
        <ele>1391.1</ele>
        <time>2026-08-18T11:39:53.986Z</time>
      </trkpt>
      <trkpt lat="45.39225" lon="4.61287">
        <ele>1390.8</ele>
        <time>2026-08-18T11:39:55.999Z</time>
      </trkpt>
      <trkpt lat="45.39224" lon="4.61287">
        <ele>1391</ele>
        <time>2026-08-18T11:39:57.986Z</time>
      </trkpt>
      <trkpt lat="45.39223" lon="4.61286">
        <ele>1391.1</ele>
        <time>2026-08-18T11:39:58.986Z</time>
      </trkpt>
      <trkpt lat="45.39223" lon="4.61286">
        <ele>1391.3</ele>
        <time>2026-08-18T11:39:59.993Z</time>
      </trkpt>
      <trkpt lat="45.39223" lon="4.61286">
        <ele>1391</ele>
        <time>2026-08-18T11:40:01.985Z</time>
      </trkpt>
      <trkpt lat="45.39223" lon="4.61286">
        <ele>1391</ele>
        <time>2026-08-18T11:40:02.986Z</time>
      </trkpt>
      <trkpt lat="45.39223" lon="4.61286">
        <ele>1391</ele>
        <time>2026-08-18T11:40:04.986Z</time>
      </trkpt>
      <trkpt lat="45.39223" lon="4.61286">
        <ele>1391</ele>
        <time>2026-08-18T11:40:06.985Z</time>
      </trkpt>
      <trkpt lat="45.39223" lon="4.61286">
        <ele>1391</ele>
        <time>2026-08-18T11:40:07.986Z</time>
      </trkpt>
      <trkpt lat="45.39223" lon="4.61286">
        <ele>1391</ele>
        <time>2026-08-18T11:40:09.986Z</time>
      </trkpt>
      <trkpt lat="45.39223" lon="4.61286">
        <ele>1391</ele>
        <time>2026-08-18T11:40:11.986Z</time>
      </trkpt>
      <trkpt lat="45.39223" lon="4.61286">
        <ele>1391</ele>
        <time>2026-08-18T11:40:13.985Z</time>
      </trkpt>
      <trkpt lat="45.39224" lon="4.61286">
        <ele>1390.8</ele>
        <time>2026-08-18T11:40:14.985Z</time>
      </trkpt>
      <trkpt lat="45.39224" lon="4.61287">
        <ele>1390.8</ele>
        <time>2026-08-18T11:40:15.986Z</time>
      </trkpt>
      <trkpt lat="45.39224" lon="4.61287">
        <ele>1390.8</ele>
        <time>2026-08-18T11:40:16.986Z</time>
      </trkpt>
      <trkpt lat="45.39223" lon="4.61286">
        <ele>1390.6</ele>
        <time>2026-08-18T11:40:17.986Z</time>
      </trkpt>
      <trkpt lat="45.39224" lon="4.61286">
        <ele>1391</ele>
        <time>2026-08-18T11:40:18.986Z</time>
      </trkpt>
      <trkpt lat="45.39224" lon="4.61286">
        <ele>1391.3</ele>
        <time>2026-08-18T11:40:19.986Z</time>
      </trkpt>
      <trkpt lat="45.39224" lon="4.61286">
        <ele>1391.3</ele>
        <time>2026-08-18T11:40:20.986Z</time>
      </trkpt>
      <trkpt lat="45.39224" lon="4.61286">
        <ele>1391.3</ele>
        <time>2026-08-18T11:40:22.986Z</time>
      </trkpt>
      <trkpt lat="45.39224" lon="4.61286">
        <ele>1391.3</ele>
        <time>2026-08-18T11:40:23.986Z</time>
      </trkpt>
      <trkpt lat="45.39224" lon="4.61286">
        <ele>1391.3</ele>
        <time>2026-08-18T11:40:25.986Z</time>
      </trkpt>
      <trkpt lat="45.39224" lon="4.61286">
        <ele>1391.3</ele>
        <time>2026-08-18T11:40:27.986Z</time>
      </trkpt>
      <trkpt lat="45.39224" lon="4.61286">
        <ele>1391.3</ele>
        <time>2026-08-18T11:40:29.986Z</time>
      </trkpt>
      <trkpt lat="45.39224" lon="4.61286">
        <ele>1391.3</ele>
        <time>2026-08-18T11:40:31.985Z</time>
      </trkpt>
      <trkpt lat="45.39224" lon="4.61286">
        <ele>1391.3</ele>
        <time>2026-08-18T11:40:32.985Z</time>
      </trkpt>
      <trkpt lat="45.39224" lon="4.61286">
        <ele>1391.3</ele>
        <time>2026-08-18T11:40:33.986Z</time>
      </trkpt>
      <trkpt lat="45.39224" lon="4.61286">
        <ele>1391.3</ele>
        <time>2026-08-18T11:40:34.986Z</time>
      </trkpt>
      <trkpt lat="45.39224" lon="4.61286">
        <ele>1391.3</ele>
        <time>2026-08-18T11:40:36.986Z</time>
      </trkpt>
      <trkpt lat="45.39224" lon="4.61286">
        <ele>1391.3</ele>
        <time>2026-08-18T11:40:37.986Z</time>
      </trkpt>
      <trkpt lat="45.39224" lon="4.61286">
        <ele>1391.3</ele>
        <time>2026-08-18T11:40:39.986Z</time>
      </trkpt>
      <trkpt lat="45.39224" lon="4.61286">
        <ele>1391.3</ele>
        <time>2026-08-18T11:40:40.986Z</time>
      </trkpt>
      <trkpt lat="45.39224" lon="4.61286">
        <ele>1391.3</ele>
        <time>2026-08-18T11:40:41.986Z</time>
      </trkpt>
      <trkpt lat="45.39224" lon="4.61286">
        <ele>1391.3</ele>
        <time>2026-08-18T11:40:42.986Z</time>
      </trkpt>
      <trkpt lat="45.39224" lon="4.61286">
        <ele>1391.3</ele>
        <time>2026-08-18T11:40:43.986Z</time>
      </trkpt>
      <trkpt lat="45.39224" lon="4.61286">
        <ele>1391.3</ele>
        <time>2026-08-18T11:40:45.986Z</time>
      </trkpt>
      <trkpt lat="45.39224" lon="4.61286">
        <ele>1391.3</ele>
        <time>2026-08-18T11:40:46.986Z</time>
      </trkpt>
      <trkpt lat="45.39224" lon="4.61286">
        <ele>1391.3</ele>
        <time>2026-08-18T11:40:48.986Z</time>
      </trkpt>
      <trkpt lat="45.39224" lon="4.61286">
        <ele>1391.3</ele>
        <time>2026-08-18T11:40:50.986Z</time>
      </trkpt>
      <trkpt lat="45.39224" lon="4.61286">
        <ele>1391.3</ele>
        <time>2026-08-18T11:40:51.986Z</time>
      </trkpt>
      <trkpt lat="45.39224" lon="4.61286">
        <ele>1391.3</ele>
        <time>2026-08-18T11:40:52.986Z</time>
      </trkpt>
      <trkpt lat="45.39224" lon="4.61286">
        <ele>1391.3</ele>
        <time>2026-08-18T11:40:53.986Z</time>
      </trkpt>
      <trkpt lat="45.39224" lon="4.61286">
        <ele>1391.3</ele>
        <time>2026-08-18T11:40:55.986Z</time>
      </trkpt>
      <trkpt lat="45.39224" lon="4.61286">
        <ele>1391.3</ele>
        <time>2026-08-18T11:40:56.986Z</time>
      </trkpt>
      <trkpt lat="45.39224" lon="4.61286">
        <ele>1391.3</ele>
        <time>2026-08-18T11:40:58.986Z</time>
      </trkpt>
      <trkpt lat="45.39224" lon="4.61286">
        <ele>1391.3</ele>
        <time>2026-08-18T11:41:00.986Z</time>
      </trkpt>
      <trkpt lat="45.39224" lon="4.61286">
        <ele>1391.3</ele>
        <time>2026-08-18T11:41:02.986Z</time>
      </trkpt>
      <trkpt lat="45.39224" lon="4.61286">
        <ele>1391.3</ele>
        <time>2026-08-18T11:41:04.986Z</time>
      </trkpt>
      <trkpt lat="45.39224" lon="4.61286">
        <ele>1391.3</ele>
        <time>2026-08-18T11:41:06.985Z</time>
      </trkpt>
      <trkpt lat="45.39224" lon="4.61286">
        <ele>1391.3</ele>
        <time>2026-08-18T11:41:07.986Z</time>
      </trkpt>
      <trkpt lat="45.39224" lon="4.61286">
        <ele>1391.3</ele>
        <time>2026-08-18T11:41:09.986Z</time>
      </trkpt>
      <trkpt lat="45.39224" lon="4.61286">
        <ele>1391.3</ele>
        <time>2026-08-18T11:41:11.985Z</time>
      </trkpt>
      <trkpt lat="45.39224" lon="4.61286">
        <ele>1391.3</ele>
        <time>2026-08-18T11:41:12.986Z</time>
      </trkpt>
      <trkpt lat="45.39224" lon="4.61286">
        <ele>1391.3</ele>
        <time>2026-08-18T11:41:13.986Z</time>
      </trkpt>
      <trkpt lat="45.39224" lon="4.61286">
        <ele>1391.3</ele>
        <time>2026-08-18T11:41:15.985Z</time>
      </trkpt>
      <trkpt lat="45.39224" lon="4.61286">
        <ele>1391.3</ele>
        <time>2026-08-18T11:41:16.985Z</time>
      </trkpt>
      <trkpt lat="45.39224" lon="4.61286">
        <ele>1391.3</ele>
        <time>2026-08-18T11:41:17.985Z</time>
      </trkpt>
      <trkpt lat="45.39224" lon="4.61286">
        <ele>1391.3</ele>
        <time>2026-08-18T11:41:18.986Z</time>
      </trkpt>
      <trkpt lat="45.39224" lon="4.61286">
        <ele>1391.3</ele>
        <time>2026-08-18T11:41:20.986Z</time>
      </trkpt>
      <trkpt lat="45.39224" lon="4.61286">
        <ele>1391.3</ele>
        <time>2026-08-18T11:41:21.986Z</time>
      </trkpt>
      <trkpt lat="45.39224" lon="4.61286">
        <ele>1391.3</ele>
        <time>2026-08-18T11:41:22.986Z</time>
      </trkpt>
      <trkpt lat="45.39224" lon="4.61286">
        <ele>1391.3</ele>
        <time>2026-08-18T11:41:23.986Z</time>
      </trkpt>
      <trkpt lat="45.39224" lon="4.61286">
        <ele>1391.3</ele>
        <time>2026-08-18T11:41:24.986Z</time>
      </trkpt>
      <trkpt lat="45.39224" lon="4.61286">
        <ele>1391.3</ele>
        <time>2026-08-18T11:41:26.986Z</time>
      </trkpt>
      <trkpt lat="45.39224" lon="4.61286">
        <ele>1391.3</ele>
        <time>2026-08-18T11:41:27.986Z</time>
      </trkpt>
      <trkpt lat="45.39224" lon="4.61286">
        <ele>1391.3</ele>
        <time>2026-08-18T11:41:28.986Z</time>
      </trkpt>
      <trkpt lat="45.39224" lon="4.61286">
        <ele>1391.3</ele>
        <time>2026-08-18T11:41:29.986Z</time>
      </trkpt>
      <trkpt lat="45.39224" lon="4.61286">
        <ele>1391.3</ele>
        <time>2026-08-18T11:41:31.986Z</time>
      </trkpt>
      <trkpt lat="45.39224" lon="4.61286">
        <ele>1391.3</ele>
        <time>2026-08-18T11:41:32.986Z</time>
      </trkpt>
      <trkpt lat="45.39224" lon="4.61286">
        <ele>1391.3</ele>
        <time>2026-08-18T11:41:33.986Z</time>
      </trkpt>
      <trkpt lat="45.39224" lon="4.61286">
        <ele>1391.3</ele>
        <time>2026-08-18T11:41:35.984Z</time>
      </trkpt>
      <trkpt lat="45.39224" lon="4.61286">
        <ele>1391.3</ele>
        <time>2026-08-18T11:41:36.984Z</time>
      </trkpt>
      <trkpt lat="45.39224" lon="4.61286">
        <ele>1391.3</ele>
        <time>2026-08-18T11:41:37.985Z</time>
      </trkpt>
      <trkpt lat="45.39224" lon="4.61286">
        <ele>1391.3</ele>
        <time>2026-08-18T11:41:38.985Z</time>
      </trkpt>
      <trkpt lat="45.39224" lon="4.61286">
        <ele>1391.3</ele>
        <time>2026-08-18T11:41:39.985Z</time>
      </trkpt>
      <trkpt lat="45.39224" lon="4.61286">
        <ele>1391.3</ele>
        <time>2026-08-18T11:41:41.984Z</time>
      </trkpt>
      <trkpt lat="45.39224" lon="4.61286">
        <ele>1391.3</ele>
        <time>2026-08-18T11:41:42.985Z</time>
      </trkpt>
      <trkpt lat="45.39224" lon="4.61286">
        <ele>1391.3</ele>
        <time>2026-08-18T11:41:43.985Z</time>
      </trkpt>
      <trkpt lat="45.39224" lon="4.61286">
        <ele>1391.3</ele>
        <time>2026-08-18T11:41:44.985Z</time>
      </trkpt>
      <trkpt lat="45.39224" lon="4.61286">
        <ele>1391.3</ele>
        <time>2026-08-18T11:41:45.985Z</time>
      </trkpt>
      <trkpt lat="45.39224" lon="4.61286">
        <ele>1391.3</ele>
        <time>2026-08-18T11:41:46.985Z</time>
      </trkpt>
      <trkpt lat="45.39224" lon="4.61286">
        <ele>1391.3</ele>
        <time>2026-08-18T11:41:47.985Z</time>
      </trkpt>
      <trkpt lat="45.39224" lon="4.61286">
        <ele>1391.3</ele>
        <time>2026-08-18T11:41:48.985Z</time>
      </trkpt>
      <trkpt lat="45.39224" lon="4.61286">
        <ele>1391.3</ele>
        <time>2026-08-18T11:41:49.985Z</time>
      </trkpt>
      <trkpt lat="45.39224" lon="4.61286">
        <ele>1391.3</ele>
        <time>2026-08-18T11:41:51.984Z</time>
      </trkpt>
      <trkpt lat="45.39224" lon="4.61286">
        <ele>1391.3</ele>
        <time>2026-08-18T11:41:52.984Z</time>
      </trkpt>
      <trkpt lat="45.39224" lon="4.61286">
        <ele>1391.3</ele>
        <time>2026-08-18T11:41:53.985Z</time>
      </trkpt>
      <trkpt lat="45.39224" lon="4.61286">
        <ele>1391.3</ele>
        <time>2026-08-18T11:41:55.985Z</time>
      </trkpt>
      <trkpt lat="45.39224" lon="4.61286">
        <ele>1391.3</ele>
        <time>2026-08-18T11:41:56.985Z</time>
      </trkpt>
      <trkpt lat="45.39224" lon="4.61286">
        <ele>1391.3</ele>
        <time>2026-08-18T11:41:57.985Z</time>
      </trkpt>
      <trkpt lat="45.39224" lon="4.61286">
        <ele>1391.3</ele>
        <time>2026-08-18T11:41:58.985Z</time>
      </trkpt>
      <trkpt lat="45.39224" lon="4.61286">
        <ele>1391.3</ele>
        <time>2026-08-18T11:42:00.985Z</time>
      </trkpt>
      <trkpt lat="45.39224" lon="4.61286">
        <ele>1391.3</ele>
        <time>2026-08-18T11:42:01.985Z</time>
      </trkpt>
      <trkpt lat="45.39224" lon="4.61286">
        <ele>1391.3</ele>
        <time>2026-08-18T11:42:02.985Z</time>
      </trkpt>
      <trkpt lat="45.39224" lon="4.61286">
        <ele>1391.3</ele>
        <time>2026-08-18T11:42:04.984Z</time>
      </trkpt>
      <trkpt lat="45.39224" lon="4.61286">
        <ele>1391.3</ele>
        <time>2026-08-18T11:42:05.984Z</time>
      </trkpt>
      <trkpt lat="45.39224" lon="4.61286">
        <ele>1391.3</ele>
        <time>2026-08-18T11:42:06.985Z</time>
      </trkpt>
      <trkpt lat="45.39224" lon="4.61286">
        <ele>1391.3</ele>
        <time>2026-08-18T11:42:07.985Z</time>
      </trkpt>
      <trkpt lat="45.39224" lon="4.61286">
        <ele>1391.3</ele>
        <time>2026-08-18T11:42:08.985Z</time>
      </trkpt>
      <trkpt lat="45.39224" lon="4.61286">
        <ele>1391.3</ele>
        <time>2026-08-18T11:42:09.985Z</time>
      </trkpt>
      <trkpt lat="45.39224" lon="4.61286">
        <ele>1391.3</ele>
        <time>2026-08-18T11:42:11.985Z</time>
      </trkpt>
      <trkpt lat="45.39224" lon="4.61286">
        <ele>1391.3</ele>
        <time>2026-08-18T11:42:13.985Z</time>
      </trkpt>
      <trkpt lat="45.39224" lon="4.61286">
        <ele>1391.3</ele>
        <time>2026-08-18T11:42:14.985Z</time>
      </trkpt>
      <trkpt lat="45.39224" lon="4.61286">
        <ele>1391.3</ele>
        <time>2026-08-18T11:42:16.985Z</time>
      </trkpt>
      <trkpt lat="45.39224" lon="4.61286">
        <ele>1391.3</ele>
        <time>2026-08-18T11:42:17.985Z</time>
      </trkpt>
      <trkpt lat="45.39224" lon="4.61286">
        <ele>1391.3</ele>
        <time>2026-08-18T11:42:18.985Z</time>
      </trkpt>
      <trkpt lat="45.39224" lon="4.61286">
        <ele>1391.3</ele>
        <time>2026-08-18T11:42:20.985Z</time>
      </trkpt>
      <trkpt lat="45.39224" lon="4.61286">
        <ele>1391.3</ele>
        <time>2026-08-18T11:42:21.985Z</time>
      </trkpt>
      <trkpt lat="45.39224" lon="4.61286">
        <ele>1391.3</ele>
        <time>2026-08-18T11:42:23.984Z</time>
      </trkpt>
      <trkpt lat="45.39224" lon="4.61286">
        <ele>1391.3</ele>
        <time>2026-08-18T11:42:25.984Z</time>
      </trkpt>
      <trkpt lat="45.39224" lon="4.61286">
        <ele>1391.2</ele>
        <time>2026-08-18T11:42:26.985Z</time>
      </trkpt>
      <trkpt lat="45.39224" lon="4.61286">
        <ele>1391.2</ele>
        <time>2026-08-18T11:42:28.984Z</time>
      </trkpt>
      <trkpt lat="45.39224" lon="4.61286">
        <ele>1391.2</ele>
        <time>2026-08-18T11:42:29.985Z</time>
      </trkpt>
      <trkpt lat="45.39224" lon="4.61286">
        <ele>1391.2</ele>
        <time>2026-08-18T11:42:31.985Z</time>
      </trkpt>
      <trkpt lat="45.39224" lon="4.61286">
        <ele>1391.2</ele>
        <time>2026-08-18T11:42:32.985Z</time>
      </trkpt>
      <trkpt lat="45.39224" lon="4.61286">
        <ele>1391.2</ele>
        <time>2026-08-18T11:42:33.985Z</time>
      </trkpt>
      <trkpt lat="45.39224" lon="4.61286">
        <ele>1391.2</ele>
        <time>2026-08-18T11:42:34.985Z</time>
      </trkpt>
      <trkpt lat="45.39224" lon="4.61286">
        <ele>1391.2</ele>
        <time>2026-08-18T11:42:36.984Z</time>
      </trkpt>
      <trkpt lat="45.39224" lon="4.61286">
        <ele>1391.2</ele>
        <time>2026-08-18T11:42:37.985Z</time>
      </trkpt>
      <trkpt lat="45.39224" lon="4.61286">
        <ele>1391.2</ele>
        <time>2026-08-18T11:42:39.984Z</time>
      </trkpt>
      <trkpt lat="45.39224" lon="4.61286">
        <ele>1391.2</ele>
        <time>2026-08-18T11:42:40.984Z</time>
      </trkpt>
      <trkpt lat="45.39224" lon="4.61286">
        <ele>1391.2</ele>
        <time>2026-08-18T11:42:41.984Z</time>
      </trkpt>
      <trkpt lat="45.39224" lon="4.61286">
        <ele>1391.2</ele>
        <time>2026-08-18T11:42:42.984Z</time>
      </trkpt>
      <trkpt lat="45.39224" lon="4.61286">
        <ele>1391.2</ele>
        <time>2026-08-18T11:42:43.984Z</time>
      </trkpt>
      <trkpt lat="45.39224" lon="4.61286">
        <ele>1391.2</ele>
        <time>2026-08-18T11:42:44.985Z</time>
      </trkpt>
      <trkpt lat="45.39224" lon="4.61286">
        <ele>1391.2</ele>
        <time>2026-08-18T11:42:45.985Z</time>
      </trkpt>
      <trkpt lat="45.39224" lon="4.61286">
        <ele>1391.2</ele>
        <time>2026-08-18T11:42:47.984Z</time>
      </trkpt>
      <trkpt lat="45.39224" lon="4.61286">
        <ele>1391.2</ele>
        <time>2026-08-18T11:42:48.985Z</time>
      </trkpt>
      <trkpt lat="45.39224" lon="4.61286">
        <ele>1391.2</ele>
        <time>2026-08-18T11:42:49.985Z</time>
      </trkpt>
      <trkpt lat="45.39224" lon="4.61286">
        <ele>1391.2</ele>
        <time>2026-08-18T11:42:51.985Z</time>
      </trkpt>
      <trkpt lat="45.39224" lon="4.61286">
        <ele>1391.2</ele>
        <time>2026-08-18T11:42:53.985Z</time>
      </trkpt>
      <trkpt lat="45.39224" lon="4.61286">
        <ele>1391.2</ele>
        <time>2026-08-18T11:42:54.985Z</time>
      </trkpt>
      <trkpt lat="45.39224" lon="4.61286">
        <ele>1391.2</ele>
        <time>2026-08-18T11:42:56.984Z</time>
      </trkpt>
      <trkpt lat="45.39224" lon="4.61286">
        <ele>1391.2</ele>
        <time>2026-08-18T11:42:57.985Z</time>
      </trkpt>
      <trkpt lat="45.39224" lon="4.61286">
        <ele>1391.2</ele>
        <time>2026-08-18T11:42:58.985Z</time>
      </trkpt>
      <trkpt lat="45.39224" lon="4.61286">
        <ele>1391.2</ele>
        <time>2026-08-18T11:42:59.985Z</time>
      </trkpt>
      <trkpt lat="45.39224" lon="4.61286">
        <ele>1391.2</ele>
        <time>2026-08-18T11:43:00.985Z</time>
      </trkpt>
      <trkpt lat="45.39224" lon="4.61286">
        <ele>1391.2</ele>
        <time>2026-08-18T11:43:01.985Z</time>
      </trkpt>
      <trkpt lat="45.39224" lon="4.61286">
        <ele>1391.2</ele>
        <time>2026-08-18T11:43:02.985Z</time>
      </trkpt>
      <trkpt lat="45.39224" lon="4.61286">
        <ele>1391.2</ele>
        <time>2026-08-18T11:43:03.985Z</time>
      </trkpt>
      <trkpt lat="45.39224" lon="4.61286">
        <ele>1391.2</ele>
        <time>2026-08-18T11:43:04.985Z</time>
      </trkpt>
      <trkpt lat="45.39224" lon="4.61286">
        <ele>1391.2</ele>
        <time>2026-08-18T11:43:05.985Z</time>
      </trkpt>
      <trkpt lat="45.39224" lon="4.61286">
        <ele>1391.2</ele>
        <time>2026-08-18T11:43:07.985Z</time>
      </trkpt>
      <trkpt lat="45.39224" lon="4.61286">
        <ele>1391.2</ele>
        <time>2026-08-18T11:43:09.984Z</time>
      </trkpt>
      <trkpt lat="45.39224" lon="4.61286">
        <ele>1391.2</ele>
        <time>2026-08-18T11:43:10.985Z</time>
      </trkpt>
      <trkpt lat="45.39224" lon="4.61286">
        <ele>1391.2</ele>
        <time>2026-08-18T11:43:12.985Z</time>
      </trkpt>
      <trkpt lat="45.39224" lon="4.61286">
        <ele>1391.2</ele>
        <time>2026-08-18T11:43:14.985Z</time>
      </trkpt>
      <trkpt lat="45.39224" lon="4.61286">
        <ele>1391.2</ele>
        <time>2026-08-18T11:43:16.985Z</time>
      </trkpt>
      <trkpt lat="45.39224" lon="4.61286">
        <ele>1391.2</ele>
        <time>2026-08-18T11:43:18.984Z</time>
      </trkpt>
      <trkpt lat="45.39224" lon="4.61286">
        <ele>1391.2</ele>
        <time>2026-08-18T11:43:19.985Z</time>
      </trkpt>
      <trkpt lat="45.39224" lon="4.61286">
        <ele>1391.2</ele>
        <time>2026-08-18T11:43:20.985Z</time>
      </trkpt>
      <trkpt lat="45.39224" lon="4.61286">
        <ele>1391.2</ele>
        <time>2026-08-18T11:43:22.984Z</time>
      </trkpt>
      <trkpt lat="45.39224" lon="4.61286">
        <ele>1391.2</ele>
        <time>2026-08-18T11:43:23.984Z</time>
      </trkpt>
      <trkpt lat="45.39224" lon="4.61286">
        <ele>1391.2</ele>
        <time>2026-08-18T11:43:24.985Z</time>
      </trkpt>
      <trkpt lat="45.39224" lon="4.61286">
        <ele>1391.2</ele>
        <time>2026-08-18T11:43:25.985Z</time>
      </trkpt>
      <trkpt lat="45.39224" lon="4.61286">
        <ele>1391.2</ele>
        <time>2026-08-18T11:43:26.985Z</time>
      </trkpt>
      <trkpt lat="45.39224" lon="4.61286">
        <ele>1391.2</ele>
        <time>2026-08-18T11:43:28.984Z</time>
      </trkpt>
      <trkpt lat="45.39224" lon="4.61286">
        <ele>1391.2</ele>
        <time>2026-08-18T11:43:29.985Z</time>
      </trkpt>
      <trkpt lat="45.39224" lon="4.61286">
        <ele>1391.2</ele>
        <time>2026-08-18T11:43:31.985Z</time>
      </trkpt>
      <trkpt lat="45.39224" lon="4.61286">
        <ele>1391.2</ele>
        <time>2026-08-18T11:43:32.985Z</time>
      </trkpt>
      <trkpt lat="45.39224" lon="4.61286">
        <ele>1391.2</ele>
        <time>2026-08-18T11:43:33.985Z</time>
      </trkpt>
      <trkpt lat="45.39224" lon="4.61286">
        <ele>1391.2</ele>
        <time>2026-08-18T11:43:35.985Z</time>
      </trkpt>
      <trkpt lat="45.39224" lon="4.61286">
        <ele>1391.2</ele>
        <time>2026-08-18T11:43:36.985Z</time>
      </trkpt>
      <trkpt lat="45.39224" lon="4.61286">
        <ele>1391.2</ele>
        <time>2026-08-18T11:43:37.985Z</time>
      </trkpt>
      <trkpt lat="45.39224" lon="4.61286">
        <ele>1391.2</ele>
        <time>2026-08-18T11:43:39.985Z</time>
      </trkpt>
      <trkpt lat="45.39224" lon="4.61286">
        <ele>1391.2</ele>
        <time>2026-08-18T11:43:41.985Z</time>
      </trkpt>
      <trkpt lat="45.39224" lon="4.61286">
        <ele>1391.2</ele>
        <time>2026-08-18T11:43:43.984Z</time>
      </trkpt>
      <trkpt lat="45.39224" lon="4.61286">
        <ele>1391.2</ele>
        <time>2026-08-18T11:43:44.984Z</time>
      </trkpt>
      <trkpt lat="45.39224" lon="4.61286">
        <ele>1391.2</ele>
        <time>2026-08-18T11:43:45.985Z</time>
      </trkpt>
      <trkpt lat="45.39224" lon="4.61286">
        <ele>1391.2</ele>
        <time>2026-08-18T11:43:46.985Z</time>
      </trkpt>
      <trkpt lat="45.39224" lon="4.61286">
        <ele>1391.2</ele>
        <time>2026-08-18T11:43:48.985Z</time>
      </trkpt>
      <trkpt lat="45.39224" lon="4.61286">
        <ele>1391.2</ele>
        <time>2026-08-18T11:43:50.985Z</time>
      </trkpt>
      <trkpt lat="45.39224" lon="4.61286">
        <ele>1391.2</ele>
        <time>2026-08-18T11:43:52.983Z</time>
      </trkpt>
      <trkpt lat="45.39224" lon="4.61286">
        <ele>1391.2</ele>
        <time>2026-08-18T11:43:53.985Z</time>
      </trkpt>
      <trkpt lat="45.39224" lon="4.61286">
        <ele>1391.2</ele>
        <time>2026-08-18T11:43:54.985Z</time>
      </trkpt>
      <trkpt lat="45.39224" lon="4.61286">
        <ele>1391.2</ele>
        <time>2026-08-18T11:43:55.985Z</time>
      </trkpt>
      <trkpt lat="45.39224" lon="4.61286">
        <ele>1391.2</ele>
        <time>2026-08-18T11:43:56.985Z</time>
      </trkpt>
      <trkpt lat="45.39224" lon="4.61286">
        <ele>1391.2</ele>
        <time>2026-08-18T11:43:57.985Z</time>
      </trkpt>
      <trkpt lat="45.39224" lon="4.61286">
        <ele>1391.2</ele>
        <time>2026-08-18T11:43:58.985Z</time>
      </trkpt>
      <trkpt lat="45.39224" lon="4.61286">
        <ele>1391.2</ele>
        <time>2026-08-18T11:43:59.985Z</time>
      </trkpt>
      <trkpt lat="45.39224" lon="4.61286">
        <ele>1391.2</ele>
        <time>2026-08-18T11:44:00.985Z</time>
      </trkpt>
      <trkpt lat="45.39224" lon="4.61286">
        <ele>1391.2</ele>
        <time>2026-08-18T11:44:02.985Z</time>
      </trkpt>
      <trkpt lat="45.39224" lon="4.61286">
        <ele>1391.2</ele>
        <time>2026-08-18T11:44:03.985Z</time>
      </trkpt>
      <trkpt lat="45.39224" lon="4.61286">
        <ele>1391.2</ele>
        <time>2026-08-18T11:44:04.985Z</time>
      </trkpt>
      <trkpt lat="45.39224" lon="4.61286">
        <ele>1391.2</ele>
        <time>2026-08-18T11:44:05.985Z</time>
      </trkpt>
      <trkpt lat="45.39224" lon="4.61286">
        <ele>1391.2</ele>
        <time>2026-08-18T11:44:07.984Z</time>
      </trkpt>
      <trkpt lat="45.39224" lon="4.61286">
        <ele>1391.2</ele>
        <time>2026-08-18T11:44:08.985Z</time>
      </trkpt>
      <trkpt lat="45.39224" lon="4.61286">
        <ele>1391.2</ele>
        <time>2026-08-18T11:44:09.985Z</time>
      </trkpt>
      <trkpt lat="45.39224" lon="4.61286">
        <ele>1391.2</ele>
        <time>2026-08-18T11:44:11.985Z</time>
      </trkpt>
      <trkpt lat="45.39224" lon="4.61286">
        <ele>1391.2</ele>
        <time>2026-08-18T11:44:12.985Z</time>
      </trkpt>
      <trkpt lat="45.39224" lon="4.61286">
        <ele>1391.2</ele>
        <time>2026-08-18T11:44:14.985Z</time>
      </trkpt>
      <trkpt lat="45.39224" lon="4.61286">
        <ele>1391.2</ele>
        <time>2026-08-18T11:44:16.985Z</time>
      </trkpt>
      <trkpt lat="45.39224" lon="4.61286">
        <ele>1391.2</ele>
        <time>2026-08-18T11:44:17.985Z</time>
      </trkpt>
      <trkpt lat="45.39224" lon="4.61286">
        <ele>1391.2</ele>
        <time>2026-08-18T11:44:18.986Z</time>
      </trkpt>
      <trkpt lat="45.39224" lon="4.61286">
        <ele>1391.2</ele>
        <time>2026-08-18T11:44:20.985Z</time>
      </trkpt>
      <trkpt lat="45.39224" lon="4.61286">
        <ele>1391.2</ele>
        <time>2026-08-18T11:44:22.985Z</time>
      </trkpt>
      <trkpt lat="45.39224" lon="4.61286">
        <ele>1391.2</ele>
        <time>2026-08-18T11:44:23.985Z</time>
      </trkpt>
      <trkpt lat="45.39224" lon="4.61286">
        <ele>1391.2</ele>
        <time>2026-08-18T11:44:24.985Z</time>
      </trkpt>
      <trkpt lat="45.39224" lon="4.61286">
        <ele>1391.2</ele>
        <time>2026-08-18T11:44:25.985Z</time>
      </trkpt>
      <trkpt lat="45.39224" lon="4.61286">
        <ele>1391.2</ele>
        <time>2026-08-18T11:44:26.985Z</time>
      </trkpt>
      <trkpt lat="45.39224" lon="4.61286">
        <ele>1391.2</ele>
        <time>2026-08-18T11:44:28.985Z</time>
      </trkpt>
      <trkpt lat="45.39224" lon="4.61286">
        <ele>1391.2</ele>
        <time>2026-08-18T11:44:30.985Z</time>
      </trkpt>
      <trkpt lat="45.39224" lon="4.61286">
        <ele>1391.2</ele>
        <time>2026-08-18T11:44:31.985Z</time>
      </trkpt>
      <trkpt lat="45.39224" lon="4.61286">
        <ele>1391.2</ele>
        <time>2026-08-18T11:44:32.985Z</time>
      </trkpt>
      <trkpt lat="45.39224" lon="4.61286">
        <ele>1391.2</ele>
        <time>2026-08-18T11:44:34.985Z</time>
      </trkpt>
      <trkpt lat="45.39224" lon="4.61286">
        <ele>1391.2</ele>
        <time>2026-08-18T11:44:36.984Z</time>
      </trkpt>
      <trkpt lat="45.39224" lon="4.61286">
        <ele>1391.2</ele>
        <time>2026-08-18T11:44:37.985Z</time>
      </trkpt>
      <trkpt lat="45.39224" lon="4.61286">
        <ele>1391.2</ele>
        <time>2026-08-18T11:44:38.985Z</time>
      </trkpt>
      <trkpt lat="45.39224" lon="4.61286">
        <ele>1391.2</ele>
        <time>2026-08-18T11:44:40.985Z</time>
      </trkpt>
      <trkpt lat="45.39224" lon="4.61286">
        <ele>1391.2</ele>
        <time>2026-08-18T11:44:41.985Z</time>
      </trkpt>
      <trkpt lat="45.39224" lon="4.61286">
        <ele>1391.2</ele>
        <time>2026-08-18T11:44:42.985Z</time>
      </trkpt>
      <trkpt lat="45.39224" lon="4.61286">
        <ele>1391.2</ele>
        <time>2026-08-18T11:44:43.985Z</time>
      </trkpt>
      <trkpt lat="45.39224" lon="4.61286">
        <ele>1391.2</ele>
        <time>2026-08-18T11:44:44.985Z</time>
      </trkpt>
      <trkpt lat="45.39224" lon="4.61286">
        <ele>1391.2</ele>
        <time>2026-08-18T11:44:46.985Z</time>
      </trkpt>
      <trkpt lat="45.39224" lon="4.61286">
        <ele>1391.2</ele>
        <time>2026-08-18T11:44:47.985Z</time>
      </trkpt>
      <trkpt lat="45.39224" lon="4.61286">
        <ele>1391.2</ele>
        <time>2026-08-18T11:44:48.985Z</time>
      </trkpt>
      <trkpt lat="45.39224" lon="4.61286">
        <ele>1391.2</ele>
        <time>2026-08-18T11:44:49.985Z</time>
      </trkpt>
      <trkpt lat="45.39224" lon="4.61286">
        <ele>1391.2</ele>
        <time>2026-08-18T11:44:50.985Z</time>
      </trkpt>
      <trkpt lat="45.39224" lon="4.61286">
        <ele>1391.2</ele>
        <time>2026-08-18T11:44:51.985Z</time>
      </trkpt>
      <trkpt lat="45.39224" lon="4.61286">
        <ele>1391.2</ele>
        <time>2026-08-18T11:44:52.985Z</time>
      </trkpt>
      <trkpt lat="45.39224" lon="4.61286">
        <ele>1391.2</ele>
        <time>2026-08-18T11:44:53.985Z</time>
      </trkpt>
      <trkpt lat="45.39224" lon="4.61286">
        <ele>1391.2</ele>
        <time>2026-08-18T11:44:54.985Z</time>
      </trkpt>
      <trkpt lat="45.39224" lon="4.61286">
        <ele>1391.2</ele>
        <time>2026-08-18T11:44:56.984Z</time>
      </trkpt>
      <trkpt lat="45.39224" lon="4.61286">
        <ele>1391.2</ele>
        <time>2026-08-18T11:44:57.984Z</time>
      </trkpt>
      <trkpt lat="45.39224" lon="4.61286">
        <ele>1391.2</ele>
        <time>2026-08-18T11:44:58.985Z</time>
      </trkpt>
      <trkpt lat="45.39224" lon="4.61286">
        <ele>1391.2</ele>
        <time>2026-08-18T11:44:59.985Z</time>
      </trkpt>
      <trkpt lat="45.39224" lon="4.61286">
        <ele>1391.2</ele>
        <time>2026-08-18T11:45:01.985Z</time>
      </trkpt>
      <trkpt lat="45.39224" lon="4.61286">
        <ele>1391.2</ele>
        <time>2026-08-18T11:45:03.984Z</time>
      </trkpt>
      <trkpt lat="45.39224" lon="4.61286">
        <ele>1391.2</ele>
        <time>2026-08-18T11:45:05.985Z</time>
      </trkpt>
      <trkpt lat="45.39224" lon="4.61286">
        <ele>1391.2</ele>
        <time>2026-08-18T11:45:06.985Z</time>
      </trkpt>
      <trkpt lat="45.39224" lon="4.61286">
        <ele>1391.2</ele>
        <time>2026-08-18T11:45:07.985Z</time>
      </trkpt>
      <trkpt lat="45.39224" lon="4.61286">
        <ele>1391.2</ele>
        <time>2026-08-18T11:45:08.985Z</time>
      </trkpt>
      <trkpt lat="45.39224" lon="4.61286">
        <ele>1391.2</ele>
        <time>2026-08-18T11:45:09.985Z</time>
      </trkpt>
      <trkpt lat="45.39224" lon="4.61286">
        <ele>1391.2</ele>
        <time>2026-08-18T11:45:10.985Z</time>
      </trkpt>
      <trkpt lat="45.39224" lon="4.61286">
        <ele>1391.2</ele>
        <time>2026-08-18T11:45:11.985Z</time>
      </trkpt>
      <trkpt lat="45.39224" lon="4.61286">
        <ele>1391.2</ele>
        <time>2026-08-18T11:45:13.984Z</time>
      </trkpt>
      <trkpt lat="45.39224" lon="4.61286">
        <ele>1391.2</ele>
        <time>2026-08-18T11:45:14.985Z</time>
      </trkpt>
      <trkpt lat="45.39224" lon="4.61286">
        <ele>1391.2</ele>
        <time>2026-08-18T11:45:15.985Z</time>
      </trkpt>
      <trkpt lat="45.39224" lon="4.61286">
        <ele>1391.2</ele>
        <time>2026-08-18T11:45:17.985Z</time>
      </trkpt>
      <trkpt lat="45.39224" lon="4.61286">
        <ele>1391.2</ele>
        <time>2026-08-18T11:45:18.985Z</time>
      </trkpt>
      <trkpt lat="45.39224" lon="4.61286">
        <ele>1391.2</ele>
        <time>2026-08-18T11:45:19.985Z</time>
      </trkpt>
      <trkpt lat="45.39224" lon="4.61286">
        <ele>1391.2</ele>
        <time>2026-08-18T11:45:20.985Z</time>
      </trkpt>
      <trkpt lat="45.39224" lon="4.61286">
        <ele>1391.2</ele>
        <time>2026-08-18T11:45:22.985Z</time>
      </trkpt>
      <trkpt lat="45.39224" lon="4.61286">
        <ele>1391.2</ele>
        <time>2026-08-18T11:45:23.985Z</time>
      </trkpt>
      <trkpt lat="45.39224" lon="4.61286">
        <ele>1391.2</ele>
        <time>2026-08-18T11:45:25.983Z</time>
      </trkpt>
      <trkpt lat="45.39224" lon="4.61286">
        <ele>1391.2</ele>
        <time>2026-08-18T11:45:26.984Z</time>
      </trkpt>
      <trkpt lat="45.39224" lon="4.61286">
        <ele>1391.3</ele>
        <time>2026-08-18T11:45:27.985Z</time>
      </trkpt>
      <trkpt lat="45.39224" lon="4.61286">
        <ele>1391.3</ele>
        <time>2026-08-18T11:45:28.985Z</time>
      </trkpt>
      <trkpt lat="45.39224" lon="4.61286">
        <ele>1391.3</ele>
        <time>2026-08-18T11:45:30.984Z</time>
      </trkpt>
      <trkpt lat="45.39224" lon="4.61286">
        <ele>1391.2</ele>
        <time>2026-08-18T11:45:31.985Z</time>
      </trkpt>
      <trkpt lat="45.39224" lon="4.61286">
        <ele>1391.2</ele>
        <time>2026-08-18T11:45:33.985Z</time>
      </trkpt>
      <trkpt lat="45.39224" lon="4.61286">
        <ele>1391.3</ele>
        <time>2026-08-18T11:45:34.985Z</time>
      </trkpt>
      <trkpt lat="45.39224" lon="4.61286">
        <ele>1391.3</ele>
        <time>2026-08-18T11:45:35.985Z</time>
      </trkpt>
      <trkpt lat="45.39224" lon="4.61286">
        <ele>1391.3</ele>
        <time>2026-08-18T11:45:36.985Z</time>
      </trkpt>
      <trkpt lat="45.39224" lon="4.61286">
        <ele>1391.3</ele>
        <time>2026-08-18T11:45:38.985Z</time>
      </trkpt>
      <trkpt lat="45.39224" lon="4.61286">
        <ele>1391.3</ele>
        <time>2026-08-18T11:45:40.984Z</time>
      </trkpt>
      <trkpt lat="45.39224" lon="4.61286">
        <ele>1391.3</ele>
        <time>2026-08-18T11:45:41.985Z</time>
      </trkpt>
      <trkpt lat="45.39224" lon="4.61286">
        <ele>1391.2</ele>
        <time>2026-08-18T11:45:43.985Z</time>
      </trkpt>
      <trkpt lat="45.39224" lon="4.61286">
        <ele>1391.2</ele>
        <time>2026-08-18T11:45:45.984Z</time>
      </trkpt>
      <trkpt lat="45.39224" lon="4.61286">
        <ele>1391.2</ele>
        <time>2026-08-18T11:45:46.985Z</time>
      </trkpt>
      <trkpt lat="45.39224" lon="4.61286">
        <ele>1391.2</ele>
        <time>2026-08-18T11:45:47.985Z</time>
      </trkpt>
      <trkpt lat="45.39224" lon="4.61286">
        <ele>1391.2</ele>
        <time>2026-08-18T11:45:48.985Z</time>
      </trkpt>
      <trkpt lat="45.39224" lon="4.61286">
        <ele>1391.2</ele>
        <time>2026-08-18T11:45:49.985Z</time>
      </trkpt>
      <trkpt lat="45.39224" lon="4.61286">
        <ele>1391.2</ele>
        <time>2026-08-18T11:45:50.985Z</time>
      </trkpt>
      <trkpt lat="45.39224" lon="4.61286">
        <ele>1391.2</ele>
        <time>2026-08-18T11:45:51.985Z</time>
      </trkpt>
      <trkpt lat="45.39224" lon="4.61286">
        <ele>1391.2</ele>
        <time>2026-08-18T11:45:52.985Z</time>
      </trkpt>
      <trkpt lat="45.39224" lon="4.61286">
        <ele>1391.2</ele>
        <time>2026-08-18T11:45:53.985Z</time>
      </trkpt>
      <trkpt lat="45.39224" lon="4.61286">
        <ele>1391.2</ele>
        <time>2026-08-18T11:45:54.985Z</time>
      </trkpt>
      <trkpt lat="45.39224" lon="4.61286">
        <ele>1391.2</ele>
        <time>2026-08-18T11:45:56.985Z</time>
      </trkpt>
      <trkpt lat="45.39224" lon="4.61286">
        <ele>1391.2</ele>
        <time>2026-08-18T11:45:58.985Z</time>
      </trkpt>
      <trkpt lat="45.39224" lon="4.61286">
        <ele>1391.2</ele>
        <time>2026-08-18T11:45:59.985Z</time>
      </trkpt>
      <trkpt lat="45.39224" lon="4.61286">
        <ele>1391.2</ele>
        <time>2026-08-18T11:46:00.985Z</time>
      </trkpt>
      <trkpt lat="45.39224" lon="4.61286">
        <ele>1391.2</ele>
        <time>2026-08-18T11:46:01.985Z</time>
      </trkpt>
      <trkpt lat="45.39224" lon="4.61286">
        <ele>1391.2</ele>
        <time>2026-08-18T11:46:02.986Z</time>
      </trkpt>
      <trkpt lat="45.39224" lon="4.61286">
        <ele>1391.2</ele>
        <time>2026-08-18T11:46:04.985Z</time>
      </trkpt>
      <trkpt lat="45.39224" lon="4.61286">
        <ele>1391.2</ele>
        <time>2026-08-18T11:46:05.985Z</time>
      </trkpt>
      <trkpt lat="45.39224" lon="4.61286">
        <ele>1391.2</ele>
        <time>2026-08-18T11:46:07.984Z</time>
      </trkpt>
      <trkpt lat="45.39224" lon="4.61286">
        <ele>1391.2</ele>
        <time>2026-08-18T11:46:08.985Z</time>
      </trkpt>
      <trkpt lat="45.39224" lon="4.61286">
        <ele>1391.2</ele>
        <time>2026-08-18T11:46:10.984Z</time>
      </trkpt>
      <trkpt lat="45.39224" lon="4.61286">
        <ele>1391.2</ele>
        <time>2026-08-18T11:46:11.984Z</time>
      </trkpt>
      <trkpt lat="45.39224" lon="4.61286">
        <ele>1391.2</ele>
        <time>2026-08-18T11:46:12.985Z</time>
      </trkpt>
      <trkpt lat="45.39224" lon="4.61286">
        <ele>1391.2</ele>
        <time>2026-08-18T11:46:13.985Z</time>
      </trkpt>
      <trkpt lat="45.39224" lon="4.61286">
        <ele>1391.2</ele>
        <time>2026-08-18T11:46:14.985Z</time>
      </trkpt>
      <trkpt lat="45.39224" lon="4.61286">
        <ele>1391.2</ele>
        <time>2026-08-18T11:46:15.985Z</time>
      </trkpt>
      <trkpt lat="45.39224" lon="4.61286">
        <ele>1391.1</ele>
        <time>2026-08-18T11:46:16.985Z</time>
      </trkpt>
      <trkpt lat="45.39224" lon="4.61286">
        <ele>1390.6</ele>
        <time>2026-08-18T11:46:18.985Z</time>
      </trkpt>
      <trkpt lat="45.39224" lon="4.61286">
        <ele>1390.6</ele>
        <time>2026-08-18T11:46:20.985Z</time>
      </trkpt>
      <trkpt lat="45.39224" lon="4.61286">
        <ele>1390.6</ele>
        <time>2026-08-18T11:46:22.985Z</time>
      </trkpt>
      <trkpt lat="45.39224" lon="4.61286">
        <ele>1390.6</ele>
        <time>2026-08-18T11:46:23.985Z</time>
      </trkpt>
      <trkpt lat="45.39224" lon="4.61286">
        <ele>1390.6</ele>
        <time>2026-08-18T11:46:25.984Z</time>
      </trkpt>
      <trkpt lat="45.39224" lon="4.61286">
        <ele>1390.6</ele>
        <time>2026-08-18T11:46:26.984Z</time>
      </trkpt>
      <trkpt lat="45.39224" lon="4.61286">
        <ele>1390.6</ele>
        <time>2026-08-18T11:46:27.985Z</time>
      </trkpt>
      <trkpt lat="45.39224" lon="4.61286">
        <ele>1390.6</ele>
        <time>2026-08-18T11:46:28.985Z</time>
      </trkpt>
      <trkpt lat="45.39224" lon="4.61286">
        <ele>1390.6</ele>
        <time>2026-08-18T11:46:30.984Z</time>
      </trkpt>
      <trkpt lat="45.39224" lon="4.61286">
        <ele>1390.6</ele>
        <time>2026-08-18T11:46:31.984Z</time>
      </trkpt>
      <trkpt lat="45.39224" lon="4.61286">
        <ele>1390.6</ele>
        <time>2026-08-18T11:46:32.984Z</time>
      </trkpt>
      <trkpt lat="45.39224" lon="4.61286">
        <ele>1390.6</ele>
        <time>2026-08-18T11:46:33.985Z</time>
      </trkpt>
      <trkpt lat="45.39224" lon="4.61286">
        <ele>1390.6</ele>
        <time>2026-08-18T11:46:34.985Z</time>
      </trkpt>
      <trkpt lat="45.39224" lon="4.61286">
        <ele>1390.6</ele>
        <time>2026-08-18T11:46:35.985Z</time>
      </trkpt>
      <trkpt lat="45.39224" lon="4.61286">
        <ele>1390.6</ele>
        <time>2026-08-18T11:46:37.985Z</time>
      </trkpt>
      <trkpt lat="45.39224" lon="4.61286">
        <ele>1390.6</ele>
        <time>2026-08-18T11:46:38.985Z</time>
      </trkpt>
      <trkpt lat="45.39224" lon="4.61286">
        <ele>1390.6</ele>
        <time>2026-08-18T11:46:39.985Z</time>
      </trkpt>
      <trkpt lat="45.39224" lon="4.61286">
        <ele>1390.6</ele>
        <time>2026-08-18T11:46:40.985Z</time>
      </trkpt>
      <trkpt lat="45.39224" lon="4.61286">
        <ele>1390.6</ele>
        <time>2026-08-18T11:46:41.985Z</time>
      </trkpt>
      <trkpt lat="45.39224" lon="4.61286">
        <ele>1390.6</ele>
        <time>2026-08-18T11:46:42.985Z</time>
      </trkpt>
      <trkpt lat="45.39224" lon="4.61286">
        <ele>1390.6</ele>
        <time>2026-08-18T11:46:43.985Z</time>
      </trkpt>
      <trkpt lat="45.39224" lon="4.61286">
        <ele>1390.6</ele>
        <time>2026-08-18T11:46:44.985Z</time>
      </trkpt>
      <trkpt lat="45.39224" lon="4.61286">
        <ele>1390.6</ele>
        <time>2026-08-18T11:46:45.985Z</time>
      </trkpt>
      <trkpt lat="45.39224" lon="4.61286">
        <ele>1390.6</ele>
        <time>2026-08-18T11:46:46.985Z</time>
      </trkpt>
      <trkpt lat="45.39224" lon="4.61286">
        <ele>1390.6</ele>
        <time>2026-08-18T11:46:48.984Z</time>
      </trkpt>
      <trkpt lat="45.39224" lon="4.61286">
        <ele>1390.6</ele>
        <time>2026-08-18T11:46:49.984Z</time>
      </trkpt>
      <trkpt lat="45.39224" lon="4.61286">
        <ele>1390.6</ele>
        <time>2026-08-18T11:46:50.986Z</time>
      </trkpt>
      <trkpt lat="45.39224" lon="4.61285">
        <ele>1390.8</ele>
        <time>2026-08-18T11:46:52.985Z</time>
      </trkpt>
      <trkpt lat="45.39223" lon="4.61285">
        <ele>1391</ele>
        <time>2026-08-18T11:46:53.985Z</time>
      </trkpt>
      <trkpt lat="45.39223" lon="4.61285">
        <ele>1391.1</ele>
        <time>2026-08-18T11:46:54.985Z</time>
      </trkpt>
      <trkpt lat="45.39223" lon="4.61285">
        <ele>1391.1</ele>
        <time>2026-08-18T11:46:56.985Z</time>
      </trkpt>
      <trkpt lat="45.39223" lon="4.61285">
        <ele>1391.1</ele>
        <time>2026-08-18T11:46:57.985Z</time>
      </trkpt>
      <trkpt lat="45.39223" lon="4.61285">
        <ele>1391.1</ele>
        <time>2026-08-18T11:46:59.985Z</time>
      </trkpt>
      <trkpt lat="45.39223" lon="4.61285">
        <ele>1391.1</ele>
        <time>2026-08-18T11:47:01.985Z</time>
      </trkpt>
      <trkpt lat="45.39223" lon="4.61285">
        <ele>1391.1</ele>
        <time>2026-08-18T11:47:03.984Z</time>
      </trkpt>
      <trkpt lat="45.39223" lon="4.61285">
        <ele>1391.1</ele>
        <time>2026-08-18T11:47:04.984Z</time>
      </trkpt>
      <trkpt lat="45.39223" lon="4.61285">
        <ele>1391.1</ele>
        <time>2026-08-18T11:47:05.985Z</time>
      </trkpt>
      <trkpt lat="45.39223" lon="4.61285">
        <ele>1391.1</ele>
        <time>2026-08-18T11:47:06.985Z</time>
      </trkpt>
      <trkpt lat="45.39223" lon="4.61285">
        <ele>1391.1</ele>
        <time>2026-08-18T11:47:08.985Z</time>
      </trkpt>
      <trkpt lat="45.39223" lon="4.61285">
        <ele>1391.1</ele>
        <time>2026-08-18T11:47:09.990Z</time>
      </trkpt>
      <trkpt lat="45.39223" lon="4.61285">
        <ele>1391.1</ele>
        <time>2026-08-18T11:47:11.985Z</time>
      </trkpt>
      <trkpt lat="45.39223" lon="4.61285">
        <ele>1391.1</ele>
        <time>2026-08-18T11:47:13.984Z</time>
      </trkpt>
      <trkpt lat="45.39223" lon="4.61285">
        <ele>1391.1</ele>
        <time>2026-08-18T11:47:14.984Z</time>
      </trkpt>
      <trkpt lat="45.39223" lon="4.61285">
        <ele>1391.1</ele>
        <time>2026-08-18T11:47:15.985Z</time>
      </trkpt>
      <trkpt lat="45.39223" lon="4.61285">
        <ele>1391.1</ele>
        <time>2026-08-18T11:47:16.985Z</time>
      </trkpt>
      <trkpt lat="45.39223" lon="4.61285">
        <ele>1391.1</ele>
        <time>2026-08-18T11:47:17.985Z</time>
      </trkpt>
      <trkpt lat="45.39223" lon="4.61285">
        <ele>1391.1</ele>
        <time>2026-08-18T11:47:19.003Z</time>
      </trkpt>
      <trkpt lat="45.39223" lon="4.61285">
        <ele>1391.1</ele>
        <time>2026-08-18T11:47:20.985Z</time>
      </trkpt>
      <trkpt lat="45.39223" lon="4.61285">
        <ele>1390.8</ele>
        <time>2026-08-18T11:47:21.985Z</time>
      </trkpt>
      <trkpt lat="45.39223" lon="4.61285">
        <ele>1390.7</ele>
        <time>2026-08-18T11:47:22.997Z</time>
      </trkpt>
      <trkpt lat="45.39224" lon="4.61285">
        <ele>1390.6</ele>
        <time>2026-08-18T11:47:24.985Z</time>
      </trkpt>
      <trkpt lat="45.39224" lon="4.61285">
        <ele>1390.6</ele>
        <time>2026-08-18T11:47:26.022Z</time>
      </trkpt>
      <trkpt lat="45.39225" lon="4.61285">
        <ele>1391.2</ele>
        <time>2026-08-18T11:47:28.016Z</time>
      </trkpt>
      <trkpt lat="45.39226" lon="4.61282">
        <ele>1389.2</ele>
        <time>2026-08-18T11:47:29.983Z</time>
      </trkpt>
      <trkpt lat="45.39225" lon="4.61281">
        <ele>1391.9</ele>
        <time>2026-08-18T11:47:30.984Z</time>
      </trkpt>
      <trkpt lat="45.39225" lon="4.6128">
        <ele>1391.9</ele>
        <time>2026-08-18T11:47:31.984Z</time>
      </trkpt>
      <trkpt lat="45.39225" lon="4.61279">
        <ele>1391.6</ele>
        <time>2026-08-18T11:47:32.985Z</time>
      </trkpt>
      <trkpt lat="45.39224" lon="4.61278">
        <ele>1391.3</ele>
        <time>2026-08-18T11:47:33.985Z</time>
      </trkpt>
      <trkpt lat="45.39225" lon="4.61277">
        <ele>1391.4</ele>
        <time>2026-08-18T11:47:36.003Z</time>
      </trkpt>
      <trkpt lat="45.39225" lon="4.61277">
        <ele>1391.4</ele>
        <time>2026-08-18T11:47:37.984Z</time>
      </trkpt>
      <trkpt lat="45.39225" lon="4.61276">
        <ele>1392</ele>
        <time>2026-08-18T11:47:38.985Z</time>
      </trkpt>
      <trkpt lat="45.39225" lon="4.61276">
        <ele>1392.1</ele>
        <time>2026-08-18T11:47:39.996Z</time>
      </trkpt>
      <trkpt lat="45.39225" lon="4.61275">
        <ele>1392.3</ele>
        <time>2026-08-18T11:47:41.985Z</time>
      </trkpt>
      <trkpt lat="45.39226" lon="4.61274">
        <ele>1392.9</ele>
        <time>2026-08-18T11:47:43.989Z</time>
      </trkpt>
      <trkpt lat="45.39225" lon="4.61272">
        <ele>1393.6</ele>
        <time>2026-08-18T11:47:45.984Z</time>
      </trkpt>
      <trkpt lat="45.39225" lon="4.61271">
        <ele>1394</ele>
        <time>2026-08-18T11:47:46.985Z</time>
      </trkpt>
      <trkpt lat="45.39224" lon="4.61269">
        <ele>1394.4</ele>
        <time>2026-08-18T11:47:48.985Z</time>
      </trkpt>
      <trkpt lat="45.39223" lon="4.61268">
        <ele>1394.4</ele>
        <time>2026-08-18T11:47:50.985Z</time>
      </trkpt>
      <trkpt lat="45.39223" lon="4.61267">
        <ele>1394</ele>
        <time>2026-08-18T11:47:51.985Z</time>
      </trkpt>
      <trkpt lat="45.39222" lon="4.61266">
        <ele>1393.4</ele>
        <time>2026-08-18T11:47:53.984Z</time>
      </trkpt>
      <trkpt lat="45.39221" lon="4.61265">
        <ele>1393.9</ele>
        <time>2026-08-18T11:47:54.984Z</time>
      </trkpt>
      <trkpt lat="45.3922" lon="4.61263">
        <ele>1394.1</ele>
        <time>2026-08-18T11:47:56.994Z</time>
      </trkpt>
      <trkpt lat="45.3922" lon="4.61262">
        <ele>1394</ele>
        <time>2026-08-18T11:47:58.861Z</time>
      </trkpt>
      <trkpt lat="45.3922" lon="4.61261">
        <ele>1393.9</ele>
        <time>2026-08-18T11:47:59.898Z</time>
      </trkpt>
      <trkpt lat="45.3922" lon="4.61261">
        <ele>1393.7</ele>
        <time>2026-08-18T11:48:01.019Z</time>
      </trkpt>
      <trkpt lat="45.39221" lon="4.6126">
        <ele>1393.3</ele>
        <time>2026-08-18T11:48:02.985Z</time>
      </trkpt>
      <trkpt lat="45.39221" lon="4.61258">
        <ele>1393.8</ele>
        <time>2026-08-18T11:48:04.985Z</time>
      </trkpt>
      <trkpt lat="45.39221" lon="4.61256">
        <ele>1393.5</ele>
        <time>2026-08-18T11:48:06.985Z</time>
      </trkpt>
      <trkpt lat="45.39221" lon="4.61254">
        <ele>1394.6</ele>
        <time>2026-08-18T11:48:08.985Z</time>
      </trkpt>
      <trkpt lat="45.39221" lon="4.61252">
        <ele>1395.4</ele>
        <time>2026-08-18T11:48:10.985Z</time>
      </trkpt>
      <trkpt lat="45.39221" lon="4.61251">
        <ele>1396.2</ele>
        <time>2026-08-18T11:48:11.985Z</time>
      </trkpt>
      <trkpt lat="45.39221" lon="4.61249">
        <ele>1396.8</ele>
        <time>2026-08-18T11:48:13.995Z</time>
      </trkpt>
      <trkpt lat="45.39221" lon="4.61247">
        <ele>1397.3</ele>
        <time>2026-08-18T11:48:15.984Z</time>
      </trkpt>
      <trkpt lat="45.39222" lon="4.61246">
        <ele>1397.2</ele>
        <time>2026-08-18T11:48:16.985Z</time>
      </trkpt>
      <trkpt lat="45.39222" lon="4.61245">
        <ele>1397.1</ele>
        <time>2026-08-18T11:48:17.987Z</time>
      </trkpt>
      <trkpt lat="45.39222" lon="4.61243">
        <ele>1396.8</ele>
        <time>2026-08-18T11:48:19.985Z</time>
      </trkpt>
      <trkpt lat="45.39222" lon="4.61243">
        <ele>1396.9</ele>
        <time>2026-08-18T11:48:20.985Z</time>
      </trkpt>
      <trkpt lat="45.39222" lon="4.61242">
        <ele>1397.1</ele>
        <time>2026-08-18T11:48:21.985Z</time>
      </trkpt>
      <trkpt lat="45.39222" lon="4.61241">
        <ele>1397.3</ele>
        <time>2026-08-18T11:48:22.985Z</time>
      </trkpt>
      <trkpt lat="45.39222" lon="4.61241">
        <ele>1397.4</ele>
        <time>2026-08-18T11:48:24.985Z</time>
      </trkpt>
      <trkpt lat="45.39222" lon="4.61241">
        <ele>1397.4</ele>
        <time>2026-08-18T11:48:25.985Z</time>
      </trkpt>
      <trkpt lat="45.39222" lon="4.61241">
        <ele>1397.5</ele>
        <time>2026-08-18T11:48:27.000Z</time>
      </trkpt>
      <trkpt lat="45.39221" lon="4.61241">
        <ele>1397.3</ele>
        <time>2026-08-18T11:48:28.985Z</time>
      </trkpt>
      <trkpt lat="45.39221" lon="4.6124">
        <ele>1397.3</ele>
        <time>2026-08-18T11:48:30.994Z</time>
      </trkpt>
      <trkpt lat="45.39221" lon="4.6124">
        <ele>1397.3</ele>
        <time>2026-08-18T11:48:32.984Z</time>
      </trkpt>
      <trkpt lat="45.39221" lon="4.6124">
        <ele>1397.1</ele>
        <time>2026-08-18T11:48:33.984Z</time>
      </trkpt>
      <trkpt lat="45.39221" lon="4.6124">
        <ele>1397.4</ele>
        <time>2026-08-18T11:48:34.986Z</time>
      </trkpt>
      <trkpt lat="45.39221" lon="4.61239">
        <ele>1398</ele>
        <time>2026-08-18T11:48:36.985Z</time>
      </trkpt>
      <trkpt lat="45.39222" lon="4.61239">
        <ele>1398.3</ele>
        <time>2026-08-18T11:48:37.985Z</time>
      </trkpt>
      <trkpt lat="45.39221" lon="4.61238">
        <ele>1398.3</ele>
        <time>2026-08-18T11:48:39.985Z</time>
      </trkpt>
      <trkpt lat="45.39222" lon="4.61237">
        <ele>1398.6</ele>
        <time>2026-08-18T11:48:40.985Z</time>
      </trkpt>
      <trkpt lat="45.39222" lon="4.61234">
        <ele>1398</ele>
        <time>2026-08-18T11:48:42.985Z</time>
      </trkpt>
      <trkpt lat="45.39222" lon="4.61233">
        <ele>1398.1</ele>
        <time>2026-08-18T11:48:44.000Z</time>
      </trkpt>
      <trkpt lat="45.39221" lon="4.61231">
        <ele>1398.7</ele>
        <time>2026-08-18T11:48:45.984Z</time>
      </trkpt>
      <trkpt lat="45.39221" lon="4.61231">
        <ele>1398.9</ele>
        <time>2026-08-18T11:48:46.985Z</time>
      </trkpt>
      <trkpt lat="45.39221" lon="4.61229">
        <ele>1398.2</ele>
        <time>2026-08-18T11:48:48.984Z</time>
      </trkpt>
      <trkpt lat="45.39221" lon="4.61229">
        <ele>1399</ele>
        <time>2026-08-18T11:48:49.985Z</time>
      </trkpt>
      <trkpt lat="45.39222" lon="4.61228">
        <ele>1398.8</ele>
        <time>2026-08-18T11:48:50.985Z</time>
      </trkpt>
      <trkpt lat="45.39222" lon="4.61228">
        <ele>1398.6</ele>
        <time>2026-08-18T11:48:51.986Z</time>
      </trkpt>
      <trkpt lat="45.39222" lon="4.61227">
        <ele>1399.2</ele>
        <time>2026-08-18T11:48:53.985Z</time>
      </trkpt>
      <trkpt lat="45.39222" lon="4.61226">
        <ele>1399.5</ele>
        <time>2026-08-18T11:48:54.985Z</time>
      </trkpt>
      <trkpt lat="45.39223" lon="4.61226">
        <ele>1399.9</ele>
        <time>2026-08-18T11:48:55.985Z</time>
      </trkpt>
      <trkpt lat="45.39223" lon="4.61224">
        <ele>1400.6</ele>
        <time>2026-08-18T11:48:57.985Z</time>
      </trkpt>
      <trkpt lat="45.39223" lon="4.61223">
        <ele>1400.6</ele>
        <time>2026-08-18T11:48:58.985Z</time>
      </trkpt>
      <trkpt lat="45.39223" lon="4.61222">
        <ele>1401.1</ele>
        <time>2026-08-18T11:48:59.985Z</time>
      </trkpt>
      <trkpt lat="45.39223" lon="4.61221">
        <ele>1401.2</ele>
        <time>2026-08-18T11:49:00.999Z</time>
      </trkpt>
      <trkpt lat="45.39224" lon="4.6122">
        <ele>1401.4</ele>
        <time>2026-08-18T11:49:02.985Z</time>
      </trkpt>
      <trkpt lat="45.39224" lon="4.61219">
        <ele>1401.5</ele>
        <time>2026-08-18T11:49:03.985Z</time>
      </trkpt>
      <trkpt lat="45.39224" lon="4.61218">
        <ele>1401.9</ele>
        <time>2026-08-18T11:49:04.985Z</time>
      </trkpt>
      <trkpt lat="45.39224" lon="4.61217">
        <ele>1402.1</ele>
        <time>2026-08-18T11:49:06.985Z</time>
      </trkpt>
      <trkpt lat="45.39224" lon="4.61216">
        <ele>1402.6</ele>
        <time>2026-08-18T11:49:08.985Z</time>
      </trkpt>
      <trkpt lat="45.39224" lon="4.61215">
        <ele>1402.6</ele>
        <time>2026-08-18T11:49:09.985Z</time>
      </trkpt>
      <trkpt lat="45.39225" lon="4.61214">
        <ele>1402.7</ele>
        <time>2026-08-18T11:49:11.985Z</time>
      </trkpt>
      <trkpt lat="45.39225" lon="4.61213">
        <ele>1402.4</ele>
        <time>2026-08-18T11:49:12.985Z</time>
      </trkpt>
      <trkpt lat="45.39225" lon="4.61212">
        <ele>1402.6</ele>
        <time>2026-08-18T11:49:14.997Z</time>
      </trkpt>
      <trkpt lat="45.39226" lon="4.61211">
        <ele>1403.7</ele>
        <time>2026-08-18T11:49:16.984Z</time>
      </trkpt>
      <trkpt lat="45.39226" lon="4.61211">
        <ele>1403.7</ele>
        <time>2026-08-18T11:49:17.998Z</time>
      </trkpt>
      <trkpt lat="45.39226" lon="4.61211">
        <ele>1403.3</ele>
        <time>2026-08-18T11:49:19.985Z</time>
      </trkpt>
      <trkpt lat="45.39226" lon="4.61211">
        <ele>1403.3</ele>
        <time>2026-08-18T11:49:21.015Z</time>
      </trkpt>
      <trkpt lat="45.39227" lon="4.61209">
        <ele>1403.4</ele>
        <time>2026-08-18T11:49:22.985Z</time>
      </trkpt>
      <trkpt lat="45.39227" lon="4.61209">
        <ele>1403.5</ele>
        <time>2026-08-18T11:49:23.985Z</time>
      </trkpt>
      <trkpt lat="45.39227" lon="4.61208">
        <ele>1404</ele>
        <time>2026-08-18T11:49:25.985Z</time>
      </trkpt>
      <trkpt lat="45.39227" lon="4.61207">
        <ele>1404.1</ele>
        <time>2026-08-18T11:49:27.985Z</time>
      </trkpt>
      <trkpt lat="45.39227" lon="4.61206">
        <ele>1404.1</ele>
        <time>2026-08-18T11:49:29.985Z</time>
      </trkpt>
      <trkpt lat="45.39228" lon="4.61205">
        <ele>1404.7</ele>
        <time>2026-08-18T11:49:31.985Z</time>
      </trkpt>
      <trkpt lat="45.39228" lon="4.61205">
        <ele>1405</ele>
        <time>2026-08-18T11:49:32.985Z</time>
      </trkpt>
      <trkpt lat="45.39228" lon="4.61204">
        <ele>1405.4</ele>
        <time>2026-08-18T11:49:33.985Z</time>
      </trkpt>
      <trkpt lat="45.39229" lon="4.61203">
        <ele>1405.7</ele>
        <time>2026-08-18T11:49:35.985Z</time>
      </trkpt>
      <trkpt lat="45.39229" lon="4.61203">
        <ele>1405.5</ele>
        <time>2026-08-18T11:49:37.938Z</time>
      </trkpt>
      <trkpt lat="45.39229" lon="4.61201">
        <ele>1406.3</ele>
        <time>2026-08-18T11:49:39.984Z</time>
      </trkpt>
      <trkpt lat="45.39229" lon="4.612">
        <ele>1406.6</ele>
        <time>2026-08-18T11:49:40.984Z</time>
      </trkpt>
      <trkpt lat="45.39229" lon="4.612">
        <ele>1407.2</ele>
        <time>2026-08-18T11:49:41.985Z</time>
      </trkpt>
      <trkpt lat="45.3923" lon="4.61198">
        <ele>1407.9</ele>
        <time>2026-08-18T11:49:43.984Z</time>
      </trkpt>
      <trkpt lat="45.3923" lon="4.61198">
        <ele>1408.3</ele>
        <time>2026-08-18T11:49:44.985Z</time>
      </trkpt>
      <trkpt lat="45.3923" lon="4.61197">
        <ele>1408.8</ele>
        <time>2026-08-18T11:49:46.984Z</time>
      </trkpt>
      <trkpt lat="45.39231" lon="4.61196">
        <ele>1409.1</ele>
        <time>2026-08-18T11:49:48.005Z</time>
      </trkpt>
      <trkpt lat="45.39231" lon="4.61194">
        <ele>1408.7</ele>
        <time>2026-08-18T11:49:49.985Z</time>
      </trkpt>
      <trkpt lat="45.39231" lon="4.61193">
        <ele>1408.9</ele>
        <time>2026-08-18T11:49:50.985Z</time>
      </trkpt>
      <trkpt lat="45.39232" lon="4.61193">
        <ele>1408.9</ele>
        <time>2026-08-18T11:49:51.998Z</time>
      </trkpt>
      <trkpt lat="45.39232" lon="4.61192">
        <ele>1408.7</ele>
        <time>2026-08-18T11:49:53.920Z</time>
      </trkpt>
      <trkpt lat="45.39232" lon="4.61191">
        <ele>1409.9</ele>
        <time>2026-08-18T11:49:55.984Z</time>
      </trkpt>
      <trkpt lat="45.39232" lon="4.6119">
        <ele>1410.1</ele>
        <time>2026-08-18T11:49:57.017Z</time>
      </trkpt>
      <trkpt lat="45.39232" lon="4.61189">
        <ele>1410.7</ele>
        <time>2026-08-18T11:49:58.940Z</time>
      </trkpt>
      <trkpt lat="45.39233" lon="4.61187">
        <ele>1411.1</ele>
        <time>2026-08-18T11:50:00.900Z</time>
      </trkpt>
      <trkpt lat="45.39233" lon="4.61186">
        <ele>1411.8</ele>
        <time>2026-08-18T11:50:01.985Z</time>
      </trkpt>
      <trkpt lat="45.39233" lon="4.61185">
        <ele>1411.5</ele>
        <time>2026-08-18T11:50:02.985Z</time>
      </trkpt>
      <trkpt lat="45.39234" lon="4.61184">
        <ele>1410.5</ele>
        <time>2026-08-18T11:50:04.984Z</time>
      </trkpt>
      <trkpt lat="45.39234" lon="4.61183">
        <ele>1411.7</ele>
        <time>2026-08-18T11:50:05.985Z</time>
      </trkpt>
      <trkpt lat="45.39235" lon="4.61182">
        <ele>1410.7</ele>
        <time>2026-08-18T11:50:07.985Z</time>
      </trkpt>
      <trkpt lat="45.39235" lon="4.61181">
        <ele>1410.1</ele>
        <time>2026-08-18T11:50:08.997Z</time>
      </trkpt>
      <trkpt lat="45.39236" lon="4.6118">
        <ele>1409.8</ele>
        <time>2026-08-18T11:50:10.985Z</time>
      </trkpt>
      <trkpt lat="45.39236" lon="4.6118">
        <ele>1410.2</ele>
        <time>2026-08-18T11:50:11.985Z</time>
      </trkpt>
      <trkpt lat="45.39237" lon="4.6118">
        <ele>1410.2</ele>
        <time>2026-08-18T11:50:12.990Z</time>
      </trkpt>
      <trkpt lat="45.39238" lon="4.61178">
        <ele>1410.2</ele>
        <time>2026-08-18T11:50:14.985Z</time>
      </trkpt>
      <trkpt lat="45.39238" lon="4.61177">
        <ele>1409</ele>
        <time>2026-08-18T11:50:15.985Z</time>
      </trkpt>
      <trkpt lat="45.39239" lon="4.61175">
        <ele>1409.4</ele>
        <time>2026-08-18T11:50:17.985Z</time>
      </trkpt>
      <trkpt lat="45.39239" lon="4.61175">
        <ele>1409.5</ele>
        <time>2026-08-18T11:50:18.985Z</time>
      </trkpt>
      <trkpt lat="45.39239" lon="4.61174">
        <ele>1410.1</ele>
        <time>2026-08-18T11:50:19.985Z</time>
      </trkpt>
      <trkpt lat="45.3924" lon="4.61172">
        <ele>1411</ele>
        <time>2026-08-18T11:50:22.004Z</time>
      </trkpt>
      <trkpt lat="45.3924" lon="4.61171">
        <ele>1410.9</ele>
        <time>2026-08-18T11:50:23.955Z</time>
      </trkpt>
      <trkpt lat="45.3924" lon="4.61172">
        <ele>1409.9</ele>
        <time>2026-08-18T11:50:24.985Z</time>
      </trkpt>
      <trkpt lat="45.3924" lon="4.61172">
        <ele>1409.7</ele>
        <time>2026-08-18T11:50:25.998Z</time>
      </trkpt>
      <trkpt lat="45.3924" lon="4.61172">
        <ele>1409.7</ele>
        <time>2026-08-18T11:50:27.984Z</time>
      </trkpt>
      <trkpt lat="45.3924" lon="4.61172">
        <ele>1409.7</ele>
        <time>2026-08-18T11:50:28.984Z</time>
      </trkpt>
      <trkpt lat="45.3924" lon="4.61172">
        <ele>1409.7</ele>
        <time>2026-08-18T11:50:29.991Z</time>
      </trkpt>
      <trkpt lat="45.3924" lon="4.61171">
        <ele>1409.6</ele>
        <time>2026-08-18T11:50:31.922Z</time>
      </trkpt>
      <trkpt lat="45.3924" lon="4.61171">
        <ele>1409.2</ele>
        <time>2026-08-18T11:50:32.984Z</time>
      </trkpt>
      <trkpt lat="45.39241" lon="4.61171">
        <ele>1409.4</ele>
        <time>2026-08-18T11:50:33.985Z</time>
      </trkpt>
      <trkpt lat="45.39242" lon="4.61172">
        <ele>1409.4</ele>
        <time>2026-08-18T11:50:34.985Z</time>
      </trkpt>
      <trkpt lat="45.39244" lon="4.61172">
        <ele>1408.3</ele>
        <time>2026-08-18T11:50:36.985Z</time>
      </trkpt>
      <trkpt lat="45.39245" lon="4.61172">
        <ele>1409.4</ele>
        <time>2026-08-18T11:50:37.985Z</time>
      </trkpt>
      <trkpt lat="45.39245" lon="4.61173">
        <ele>1407.9</ele>
        <time>2026-08-18T11:50:39.003Z</time>
      </trkpt>
      <trkpt lat="45.39245" lon="4.61172">
        <ele>1407.7</ele>
        <time>2026-08-18T11:50:40.985Z</time>
      </trkpt>
      <trkpt lat="45.39246" lon="4.61172">
        <ele>1408</ele>
        <time>2026-08-18T11:50:41.985Z</time>
      </trkpt>
      <trkpt lat="45.39247" lon="4.61171">
        <ele>1409</ele>
        <time>2026-08-18T11:50:42.997Z</time>
      </trkpt>
      <trkpt lat="45.39248" lon="4.61171">
        <ele>1410.7</ele>
        <time>2026-08-18T11:50:44.984Z</time>
      </trkpt>
      <trkpt lat="45.39249" lon="4.61171">
        <ele>1411.6</ele>
        <time>2026-08-18T11:50:45.984Z</time>
      </trkpt>
      <trkpt lat="45.39249" lon="4.61172">
        <ele>1413.2</ele>
        <time>2026-08-18T11:50:46.991Z</time>
      </trkpt>
      <trkpt lat="45.39248" lon="4.61172">
        <ele>1412.4</ele>
        <time>2026-08-18T11:50:48.984Z</time>
      </trkpt>
      <trkpt lat="45.39248" lon="4.61172">
        <ele>1412.4</ele>
        <time>2026-08-18T11:50:49.985Z</time>
      </trkpt>
      <trkpt lat="45.39249" lon="4.61171">
        <ele>1412.4</ele>
        <time>2026-08-18T11:50:50.985Z</time>
      </trkpt>
      <trkpt lat="45.39249" lon="4.61171">
        <ele>1412.4</ele>
        <time>2026-08-18T11:50:52.985Z</time>
      </trkpt>
      <trkpt lat="45.39249" lon="4.61171">
        <ele>1412.4</ele>
        <time>2026-08-18T11:50:53.985Z</time>
      </trkpt>
      <trkpt lat="45.39249" lon="4.61171">
        <ele>1412.4</ele>
        <time>2026-08-18T11:50:54.985Z</time>
      </trkpt>
      <trkpt lat="45.39249" lon="4.61171">
        <ele>1412.4</ele>
        <time>2026-08-18T11:50:55.985Z</time>
      </trkpt>
      <trkpt lat="45.39249" lon="4.61171">
        <ele>1411.9</ele>
        <time>2026-08-18T11:50:57.985Z</time>
      </trkpt>
      <trkpt lat="45.39249" lon="4.61171">
        <ele>1411.9</ele>
        <time>2026-08-18T11:50:58.985Z</time>
      </trkpt>
      <trkpt lat="45.39249" lon="4.61171">
        <ele>1411.8</ele>
        <time>2026-08-18T11:50:59.985Z</time>
      </trkpt>
      <trkpt lat="45.39249" lon="4.61171">
        <ele>1411.7</ele>
        <time>2026-08-18T11:51:01.984Z</time>
      </trkpt>
      <trkpt lat="45.39248" lon="4.61172">
        <ele>1411.7</ele>
        <time>2026-08-18T11:51:02.985Z</time>
      </trkpt>
      <trkpt lat="45.39248" lon="4.61172">
        <ele>1411.7</ele>
        <time>2026-08-18T11:51:03.985Z</time>
      </trkpt>
      <trkpt lat="45.39248" lon="4.61172">
        <ele>1411.6</ele>
        <time>2026-08-18T11:51:04.985Z</time>
      </trkpt>
      <trkpt lat="45.39248" lon="4.61172">
        <ele>1411.6</ele>
        <time>2026-08-18T11:51:05.985Z</time>
      </trkpt>
      <trkpt lat="45.39248" lon="4.61172">
        <ele>1411.6</ele>
        <time>2026-08-18T11:51:06.985Z</time>
      </trkpt>
      <trkpt lat="45.39248" lon="4.61172">
        <ele>1411.6</ele>
        <time>2026-08-18T11:51:07.985Z</time>
      </trkpt>
      <trkpt lat="45.39248" lon="4.61172">
        <ele>1411.6</ele>
        <time>2026-08-18T11:51:08.985Z</time>
      </trkpt>
      <trkpt lat="45.39248" lon="4.61172">
        <ele>1411.6</ele>
        <time>2026-08-18T11:51:09.985Z</time>
      </trkpt>
      <trkpt lat="45.39248" lon="4.61172">
        <ele>1411.6</ele>
        <time>2026-08-18T11:51:11.985Z</time>
      </trkpt>
      <trkpt lat="45.39248" lon="4.61172">
        <ele>1411.6</ele>
        <time>2026-08-18T11:51:12.985Z</time>
      </trkpt>
      <trkpt lat="45.39248" lon="4.61172">
        <ele>1411.6</ele>
        <time>2026-08-18T11:51:14.985Z</time>
      </trkpt>
      <trkpt lat="45.39248" lon="4.61172">
        <ele>1411.6</ele>
        <time>2026-08-18T11:51:15.985Z</time>
      </trkpt>
      <trkpt lat="45.39249" lon="4.61172">
        <ele>1412</ele>
        <time>2026-08-18T11:51:17.985Z</time>
      </trkpt>
      <trkpt lat="45.39249" lon="4.61172">
        <ele>1411.8</ele>
        <time>2026-08-18T11:51:18.985Z</time>
      </trkpt>
      <trkpt lat="45.3925" lon="4.61172">
        <ele>1412.2</ele>
        <time>2026-08-18T11:51:19.985Z</time>
      </trkpt>
      <trkpt lat="45.3925" lon="4.61172">
        <ele>1412.1</ele>
        <time>2026-08-18T11:51:20.985Z</time>
      </trkpt>
      <trkpt lat="45.39251" lon="4.61171">
        <ele>1412.4</ele>
        <time>2026-08-18T11:51:21.985Z</time>
      </trkpt>
      <trkpt lat="45.39253" lon="4.61171">
        <ele>1413.3</ele>
        <time>2026-08-18T11:51:23.985Z</time>
      </trkpt>
      <trkpt lat="45.39255" lon="4.61171">
        <ele>1412.6</ele>
        <time>2026-08-18T11:51:25.985Z</time>
      </trkpt>
      <trkpt lat="45.39255" lon="4.61171">
        <ele>1412.4</ele>
        <time>2026-08-18T11:51:26.985Z</time>
      </trkpt>
      <trkpt lat="45.39256" lon="4.61171">
        <ele>1411.9</ele>
        <time>2026-08-18T11:51:28.984Z</time>
      </trkpt>
      <trkpt lat="45.39257" lon="4.61169">
        <ele>1411.4</ele>
        <time>2026-08-18T11:51:30.985Z</time>
      </trkpt>
      <trkpt lat="45.39259" lon="4.61169">
        <ele>1412.4</ele>
        <time>2026-08-18T11:51:32.984Z</time>
      </trkpt>
      <trkpt lat="45.3926" lon="4.61169">
        <ele>1413.1</ele>
        <time>2026-08-18T11:51:34.984Z</time>
      </trkpt>
      <trkpt lat="45.39261" lon="4.61169">
        <ele>1412.7</ele>
        <time>2026-08-18T11:51:35.984Z</time>
      </trkpt>
      <trkpt lat="45.39262" lon="4.61168">
        <ele>1413.9</ele>
        <time>2026-08-18T11:51:37.984Z</time>
      </trkpt>
      <trkpt lat="45.39264" lon="4.61168">
        <ele>1413.2</ele>
        <time>2026-08-18T11:51:39.984Z</time>
      </trkpt>
      <trkpt lat="45.39265" lon="4.61168">
        <ele>1412.8</ele>
        <time>2026-08-18T11:51:40.984Z</time>
      </trkpt>
      <trkpt lat="45.39267" lon="4.61168">
        <ele>1413.6</ele>
        <time>2026-08-18T11:51:42.984Z</time>
      </trkpt>
      <trkpt lat="45.39268" lon="4.61169">
        <ele>1412.9</ele>
        <time>2026-08-18T11:51:44.984Z</time>
      </trkpt>
      <trkpt lat="45.3927" lon="4.61169">
        <ele>1412</ele>
        <time>2026-08-18T11:51:46.984Z</time>
      </trkpt>
      <trkpt lat="45.39272" lon="4.61169">
        <ele>1412.9</ele>
        <time>2026-08-18T11:51:48.983Z</time>
      </trkpt>
      <trkpt lat="45.39273" lon="4.61169">
        <ele>1412.1</ele>
        <time>2026-08-18T11:51:49.984Z</time>
      </trkpt>
      <trkpt lat="45.39274" lon="4.6117">
        <ele>1411.7</ele>
        <time>2026-08-18T11:51:50.998Z</time>
      </trkpt>
      <trkpt lat="45.39275" lon="4.61169">
        <ele>1412.1</ele>
        <time>2026-08-18T11:51:52.983Z</time>
      </trkpt>
      <trkpt lat="45.39276" lon="4.61169">
        <ele>1412.5</ele>
        <time>2026-08-18T11:51:53.983Z</time>
      </trkpt>
      <trkpt lat="45.39277" lon="4.6117">
        <ele>1413.8</ele>
        <time>2026-08-18T11:51:55.984Z</time>
      </trkpt>
      <trkpt lat="45.39277" lon="4.61171">
        <ele>1412.5</ele>
        <time>2026-08-18T11:51:56.984Z</time>
      </trkpt>
      <trkpt lat="45.39278" lon="4.61171">
        <ele>1412.5</ele>
        <time>2026-08-18T11:51:57.984Z</time>
      </trkpt>
      <trkpt lat="45.39277" lon="4.61171">
        <ele>1412.5</ele>
        <time>2026-08-18T11:51:59.983Z</time>
      </trkpt>
      <trkpt lat="45.39277" lon="4.61171">
        <ele>1412.5</ele>
        <time>2026-08-18T11:52:00.983Z</time>
      </trkpt>
      <trkpt lat="45.39277" lon="4.61171">
        <ele>1412.5</ele>
        <time>2026-08-18T11:52:01.984Z</time>
      </trkpt>
      <trkpt lat="45.39276" lon="4.61171">
        <ele>1412.5</ele>
        <time>2026-08-18T11:52:02.984Z</time>
      </trkpt>
      <trkpt lat="45.39276" lon="4.61171">
        <ele>1412.5</ele>
        <time>2026-08-18T11:52:03.984Z</time>
      </trkpt>
      <trkpt lat="45.39276" lon="4.61171">
        <ele>1412.5</ele>
        <time>2026-08-18T11:52:04.984Z</time>
      </trkpt>
      <trkpt lat="45.39276" lon="4.61171">
        <ele>1412.5</ele>
        <time>2026-08-18T11:52:05.984Z</time>
      </trkpt>
      <trkpt lat="45.39275" lon="4.61171">
        <ele>1412.4</ele>
        <time>2026-08-18T11:52:07.984Z</time>
      </trkpt>
      <trkpt lat="45.39275" lon="4.61171">
        <ele>1412.4</ele>
        <time>2026-08-18T11:52:09.984Z</time>
      </trkpt>
      <trkpt lat="45.39275" lon="4.61171">
        <ele>1412.4</ele>
        <time>2026-08-18T11:52:10.984Z</time>
      </trkpt>
      <trkpt lat="45.39275" lon="4.61171">
        <ele>1412.4</ele>
        <time>2026-08-18T11:52:11.991Z</time>
      </trkpt>
      <trkpt lat="45.39275" lon="4.61171">
        <ele>1412.5</ele>
        <time>2026-08-18T11:52:13.018Z</time>
      </trkpt>
      <trkpt lat="45.39274" lon="4.61171">
        <ele>1412.5</ele>
        <time>2026-08-18T11:52:14.984Z</time>
      </trkpt>
      <trkpt lat="45.39274" lon="4.61171">
        <ele>1412.5</ele>
        <time>2026-08-18T11:52:15.984Z</time>
      </trkpt>
      <trkpt lat="45.39274" lon="4.61171">
        <ele>1412.3</ele>
        <time>2026-08-18T11:52:17.983Z</time>
      </trkpt>
      <trkpt lat="45.39274" lon="4.61171">
        <ele>1412.9</ele>
        <time>2026-08-18T11:52:18.983Z</time>
      </trkpt>
      <trkpt lat="45.39274" lon="4.61171">
        <ele>1413.4</ele>
        <time>2026-08-18T11:52:19.984Z</time>
      </trkpt>
      <trkpt lat="45.39274" lon="4.61171">
        <ele>1413.5</ele>
        <time>2026-08-18T11:52:21.983Z</time>
      </trkpt>
      <trkpt lat="45.39274" lon="4.61171">
        <ele>1413.5</ele>
        <time>2026-08-18T11:52:22.984Z</time>
      </trkpt>
      <trkpt lat="45.39274" lon="4.61171">
        <ele>1413.5</ele>
        <time>2026-08-18T11:52:23.984Z</time>
      </trkpt>
      <trkpt lat="45.39274" lon="4.61171">
        <ele>1413.5</ele>
        <time>2026-08-18T11:52:24.984Z</time>
      </trkpt>
      <trkpt lat="45.39274" lon="4.61171">
        <ele>1413.5</ele>
        <time>2026-08-18T11:52:25.984Z</time>
      </trkpt>
      <trkpt lat="45.39274" lon="4.61171">
        <ele>1413.5</ele>
        <time>2026-08-18T11:52:26.984Z</time>
      </trkpt>
      <trkpt lat="45.39274" lon="4.61171">
        <ele>1413.2</ele>
        <time>2026-08-18T11:52:28.983Z</time>
      </trkpt>
      <trkpt lat="45.39275" lon="4.61172">
        <ele>1413</ele>
        <time>2026-08-18T11:52:29.984Z</time>
      </trkpt>
      <trkpt lat="45.39275" lon="4.61172">
        <ele>1412.9</ele>
        <time>2026-08-18T11:52:30.984Z</time>
      </trkpt>
      <trkpt lat="45.39275" lon="4.61172">
        <ele>1413</ele>
        <time>2026-08-18T11:52:31.984Z</time>
      </trkpt>
      <trkpt lat="45.39275" lon="4.61172">
        <ele>1413</ele>
        <time>2026-08-18T11:52:33.984Z</time>
      </trkpt>
      <trkpt lat="45.39275" lon="4.61172">
        <ele>1413</ele>
        <time>2026-08-18T11:52:35.984Z</time>
      </trkpt>
      <trkpt lat="45.39275" lon="4.61172">
        <ele>1413.2</ele>
        <time>2026-08-18T11:52:37.984Z</time>
      </trkpt>
      <trkpt lat="45.39275" lon="4.61172">
        <ele>1413.1</ele>
        <time>2026-08-18T11:52:38.984Z</time>
      </trkpt>
      <trkpt lat="45.39275" lon="4.61172">
        <ele>1413</ele>
        <time>2026-08-18T11:52:40.984Z</time>
      </trkpt>
      <trkpt lat="45.39275" lon="4.61172">
        <ele>1413</ele>
        <time>2026-08-18T11:52:41.984Z</time>
      </trkpt>
      <trkpt lat="45.39275" lon="4.61172">
        <ele>1413</ele>
        <time>2026-08-18T11:52:42.984Z</time>
      </trkpt>
      <trkpt lat="45.39275" lon="4.61172">
        <ele>1413</ele>
        <time>2026-08-18T11:52:43.984Z</time>
      </trkpt>
      <trkpt lat="45.39275" lon="4.61172">
        <ele>1413</ele>
        <time>2026-08-18T11:52:44.984Z</time>
      </trkpt>
      <trkpt lat="45.39275" lon="4.61172">
        <ele>1413</ele>
        <time>2026-08-18T11:52:45.984Z</time>
      </trkpt>
      <trkpt lat="45.39275" lon="4.61172">
        <ele>1413</ele>
        <time>2026-08-18T11:52:46.984Z</time>
      </trkpt>
      <trkpt lat="45.39275" lon="4.61172">
        <ele>1413</ele>
        <time>2026-08-18T11:52:48.984Z</time>
      </trkpt>
      <trkpt lat="45.39275" lon="4.61172">
        <ele>1413.5</ele>
        <time>2026-08-18T11:52:49.984Z</time>
      </trkpt>
      <trkpt lat="45.39275" lon="4.61172">
        <ele>1413.6</ele>
        <time>2026-08-18T11:52:50.984Z</time>
      </trkpt>
      <trkpt lat="45.39278" lon="4.61175">
        <ele>1413.2</ele>
        <time>2026-08-18T11:52:52.983Z</time>
      </trkpt>
      <trkpt lat="45.39278" lon="4.61175">
        <ele>1413.1</ele>
        <time>2026-08-18T11:52:53.984Z</time>
      </trkpt>
      <trkpt lat="45.39279" lon="4.61176">
        <ele>1412.8</ele>
        <time>2026-08-18T11:52:54.984Z</time>
      </trkpt>
      <trkpt lat="45.39279" lon="4.61177">
        <ele>1413.2</ele>
        <time>2026-08-18T11:52:55.984Z</time>
      </trkpt>
      <trkpt lat="45.39279" lon="4.61179">
        <ele>1414.4</ele>
        <time>2026-08-18T11:52:56.984Z</time>
      </trkpt>
      <trkpt lat="45.39277" lon="4.61178">
        <ele>1415.1</ele>
        <time>2026-08-18T11:52:58.983Z</time>
      </trkpt>
      <trkpt lat="45.39277" lon="4.61178">
        <ele>1415.1</ele>
        <time>2026-08-18T11:52:59.983Z</time>
      </trkpt>
      <trkpt lat="45.39277" lon="4.61178">
        <ele>1415.1</ele>
        <time>2026-08-18T11:53:00.984Z</time>
      </trkpt>
      <trkpt lat="45.39277" lon="4.61178">
        <ele>1415.1</ele>
        <time>2026-08-18T11:53:02.984Z</time>
      </trkpt>
      <trkpt lat="45.39277" lon="4.61178">
        <ele>1415.1</ele>
        <time>2026-08-18T11:53:03.984Z</time>
      </trkpt>
      <trkpt lat="45.39277" lon="4.61178">
        <ele>1414.9</ele>
        <time>2026-08-18T11:53:04.984Z</time>
      </trkpt>
      <trkpt lat="45.39277" lon="4.61177">
        <ele>1414.9</ele>
        <time>2026-08-18T11:53:06.984Z</time>
      </trkpt>
      <trkpt lat="45.39277" lon="4.61177">
        <ele>1414.8</ele>
        <time>2026-08-18T11:53:08.983Z</time>
      </trkpt>
      <trkpt lat="45.39277" lon="4.61177">
        <ele>1414.8</ele>
        <time>2026-08-18T11:53:09.983Z</time>
      </trkpt>
      <trkpt lat="45.39277" lon="4.61177">
        <ele>1414.8</ele>
        <time>2026-08-18T11:53:10.983Z</time>
      </trkpt>
      <trkpt lat="45.39277" lon="4.61177">
        <ele>1414.8</ele>
        <time>2026-08-18T11:53:11.983Z</time>
      </trkpt>
      <trkpt lat="45.39277" lon="4.61177">
        <ele>1414.8</ele>
        <time>2026-08-18T11:53:12.984Z</time>
      </trkpt>
      <trkpt lat="45.39277" lon="4.61177">
        <ele>1414.8</ele>
        <time>2026-08-18T11:53:14.984Z</time>
      </trkpt>
      <trkpt lat="45.39277" lon="4.61177">
        <ele>1414.8</ele>
        <time>2026-08-18T11:53:16.983Z</time>
      </trkpt>
      <trkpt lat="45.39277" lon="4.61177">
        <ele>1414.8</ele>
        <time>2026-08-18T11:53:17.984Z</time>
      </trkpt>
      <trkpt lat="45.39277" lon="4.61177">
        <ele>1414.7</ele>
        <time>2026-08-18T11:53:18.984Z</time>
      </trkpt>
      <trkpt lat="45.39277" lon="4.61177">
        <ele>1414.7</ele>
        <time>2026-08-18T11:53:19.984Z</time>
      </trkpt>
      <trkpt lat="45.39277" lon="4.61177">
        <ele>1414.7</ele>
        <time>2026-08-18T11:53:20.984Z</time>
      </trkpt>
      <trkpt lat="45.39277" lon="4.61177">
        <ele>1414.7</ele>
        <time>2026-08-18T11:53:21.984Z</time>
      </trkpt>
      <trkpt lat="45.39277" lon="4.61177">
        <ele>1414.8</ele>
        <time>2026-08-18T11:53:22.984Z</time>
      </trkpt>
      <trkpt lat="45.39277" lon="4.61177">
        <ele>1414.8</ele>
        <time>2026-08-18T11:53:24.983Z</time>
      </trkpt>
      <trkpt lat="45.39277" lon="4.61177">
        <ele>1414.7</ele>
        <time>2026-08-18T11:53:25.984Z</time>
      </trkpt>
      <trkpt lat="45.39277" lon="4.61177">
        <ele>1414.8</ele>
        <time>2026-08-18T11:53:26.984Z</time>
      </trkpt>
      <trkpt lat="45.39277" lon="4.61177">
        <ele>1414.7</ele>
        <time>2026-08-18T11:53:28.983Z</time>
      </trkpt>
      <trkpt lat="45.39277" lon="4.61177">
        <ele>1414.7</ele>
        <time>2026-08-18T11:53:29.984Z</time>
      </trkpt>
      <trkpt lat="45.39277" lon="4.61177">
        <ele>1414.7</ele>
        <time>2026-08-18T11:53:31.983Z</time>
      </trkpt>
      <trkpt lat="45.39277" lon="4.61177">
        <ele>1414.7</ele>
        <time>2026-08-18T11:53:32.983Z</time>
      </trkpt>
      <trkpt lat="45.39277" lon="4.61177">
        <ele>1414.7</ele>
        <time>2026-08-18T11:53:33.984Z</time>
      </trkpt>
      <trkpt lat="45.39277" lon="4.61177">
        <ele>1414.7</ele>
        <time>2026-08-18T11:53:35.984Z</time>
      </trkpt>
      <trkpt lat="45.39277" lon="4.61177">
        <ele>1414.7</ele>
        <time>2026-08-18T11:53:37.984Z</time>
      </trkpt>
      <trkpt lat="45.39277" lon="4.61177">
        <ele>1414.7</ele>
        <time>2026-08-18T11:53:38.984Z</time>
      </trkpt>
      <trkpt lat="45.39277" lon="4.61177">
        <ele>1414.7</ele>
        <time>2026-08-18T11:53:39.984Z</time>
      </trkpt>
      <trkpt lat="45.39277" lon="4.61177">
        <ele>1414.8</ele>
        <time>2026-08-18T11:53:41.983Z</time>
      </trkpt>
      <trkpt lat="45.39277" lon="4.61177">
        <ele>1414.7</ele>
        <time>2026-08-18T11:53:42.983Z</time>
      </trkpt>
      <trkpt lat="45.39277" lon="4.61177">
        <ele>1414.7</ele>
        <time>2026-08-18T11:53:43.984Z</time>
      </trkpt>
      <trkpt lat="45.39277" lon="4.61177">
        <ele>1414.7</ele>
        <time>2026-08-18T11:53:45.983Z</time>
      </trkpt>
      <trkpt lat="45.39277" lon="4.61177">
        <ele>1414.7</ele>
        <time>2026-08-18T11:53:46.983Z</time>
      </trkpt>
      <trkpt lat="45.39277" lon="4.61177">
        <ele>1414.7</ele>
        <time>2026-08-18T11:53:47.984Z</time>
      </trkpt>
      <trkpt lat="45.39277" lon="4.61177">
        <ele>1414.7</ele>
        <time>2026-08-18T11:53:49.984Z</time>
      </trkpt>
      <trkpt lat="45.39277" lon="4.61177">
        <ele>1414.7</ele>
        <time>2026-08-18T11:53:51.983Z</time>
      </trkpt>
      <trkpt lat="45.39277" lon="4.61177">
        <ele>1414.7</ele>
        <time>2026-08-18T11:53:52.983Z</time>
      </trkpt>
      <trkpt lat="45.39277" lon="4.61177">
        <ele>1414.7</ele>
        <time>2026-08-18T11:53:53.984Z</time>
      </trkpt>
      <trkpt lat="45.39277" lon="4.61177">
        <ele>1414.6</ele>
        <time>2026-08-18T11:53:55.983Z</time>
      </trkpt>
      <trkpt lat="45.39277" lon="4.61177">
        <ele>1414.6</ele>
        <time>2026-08-18T11:53:56.984Z</time>
      </trkpt>
      <trkpt lat="45.39277" lon="4.61177">
        <ele>1413.7</ele>
        <time>2026-08-18T11:53:57.984Z</time>
      </trkpt>
      <trkpt lat="45.39277" lon="4.61177">
        <ele>1412.4</ele>
        <time>2026-08-18T11:53:58.984Z</time>
      </trkpt>
      <trkpt lat="45.39277" lon="4.61178">
        <ele>1412.4</ele>
        <time>2026-08-18T11:53:59.984Z</time>
      </trkpt>
      <trkpt lat="45.39277" lon="4.6118">
        <ele>1412.1</ele>
        <time>2026-08-18T11:54:01.983Z</time>
      </trkpt>
      <trkpt lat="45.39277" lon="4.61181">
        <ele>1411.9</ele>
        <time>2026-08-18T11:54:02.984Z</time>
      </trkpt>
      <trkpt lat="45.39276" lon="4.61183">
        <ele>1411.4</ele>
        <time>2026-08-18T11:54:04.984Z</time>
      </trkpt>
      <trkpt lat="45.39275" lon="4.61184">
        <ele>1411.7</ele>
        <time>2026-08-18T11:54:05.984Z</time>
      </trkpt>
      <trkpt lat="45.39274" lon="4.61185">
        <ele>1411.3</ele>
        <time>2026-08-18T11:54:07.984Z</time>
      </trkpt>
      <trkpt lat="45.39274" lon="4.61187">
        <ele>1410.9</ele>
        <time>2026-08-18T11:54:09.984Z</time>
      </trkpt>
      <trkpt lat="45.39274" lon="4.61186">
        <ele>1410.8</ele>
        <time>2026-08-18T11:54:11.984Z</time>
      </trkpt>
      <trkpt lat="45.39274" lon="4.61186">
        <ele>1410.8</ele>
        <time>2026-08-18T11:54:12.984Z</time>
      </trkpt>
      <trkpt lat="45.39274" lon="4.61186">
        <ele>1410.8</ele>
        <time>2026-08-18T11:54:14.984Z</time>
      </trkpt>
      <trkpt lat="45.39274" lon="4.61186">
        <ele>1410.8</ele>
        <time>2026-08-18T11:54:16.983Z</time>
      </trkpt>
      <trkpt lat="45.39274" lon="4.61186">
        <ele>1410.8</ele>
        <time>2026-08-18T11:54:17.984Z</time>
      </trkpt>
      <trkpt lat="45.39274" lon="4.61186">
        <ele>1410.8</ele>
        <time>2026-08-18T11:54:18.984Z</time>
      </trkpt>
      <trkpt lat="45.39274" lon="4.61186">
        <ele>1410.8</ele>
        <time>2026-08-18T11:54:19.984Z</time>
      </trkpt>
      <trkpt lat="45.39274" lon="4.61186">
        <ele>1410.8</ele>
        <time>2026-08-18T11:54:20.984Z</time>
      </trkpt>
      <trkpt lat="45.39274" lon="4.61186">
        <ele>1410.8</ele>
        <time>2026-08-18T11:54:22.984Z</time>
      </trkpt>
      <trkpt lat="45.39274" lon="4.61186">
        <ele>1410.8</ele>
        <time>2026-08-18T11:54:23.984Z</time>
      </trkpt>
      <trkpt lat="45.39274" lon="4.61186">
        <ele>1410.8</ele>
        <time>2026-08-18T11:54:25.984Z</time>
      </trkpt>
      <trkpt lat="45.39273" lon="4.61187">
        <ele>1410.9</ele>
        <time>2026-08-18T11:54:26.984Z</time>
      </trkpt>
      <trkpt lat="45.39274" lon="4.61188">
        <ele>1411.1</ele>
        <time>2026-08-18T11:54:27.984Z</time>
      </trkpt>
      <trkpt lat="45.39273" lon="4.6119">
        <ele>1410.5</ele>
        <time>2026-08-18T11:54:29.984Z</time>
      </trkpt>
      <trkpt lat="45.39273" lon="4.61191">
        <ele>1410.1</ele>
        <time>2026-08-18T11:54:30.984Z</time>
      </trkpt>
      <trkpt lat="45.39273" lon="4.61191">
        <ele>1410</ele>
        <time>2026-08-18T11:54:31.984Z</time>
      </trkpt>
      <trkpt lat="45.39273" lon="4.61192">
        <ele>1410.1</ele>
        <time>2026-08-18T11:54:32.984Z</time>
      </trkpt>
      <trkpt lat="45.39274" lon="4.61193">
        <ele>1410</ele>
        <time>2026-08-18T11:54:34.983Z</time>
      </trkpt>
      <trkpt lat="45.39274" lon="4.61194">
        <ele>1409.9</ele>
        <time>2026-08-18T11:54:35.983Z</time>
      </trkpt>
      <trkpt lat="45.39274" lon="4.61194">
        <ele>1410.2</ele>
        <time>2026-08-18T11:54:36.983Z</time>
      </trkpt>
      <trkpt lat="45.39274" lon="4.61195">
        <ele>1410.1</ele>
        <time>2026-08-18T11:54:37.984Z</time>
      </trkpt>
      <trkpt lat="45.39274" lon="4.61197">
        <ele>1410.4</ele>
        <time>2026-08-18T11:54:39.983Z</time>
      </trkpt>
      <trkpt lat="45.39274" lon="4.61197">
        <ele>1410.3</ele>
        <time>2026-08-18T11:54:40.983Z</time>
      </trkpt>
      <trkpt lat="45.39273" lon="4.61198">
        <ele>1410.5</ele>
        <time>2026-08-18T11:54:41.983Z</time>
      </trkpt>
      <trkpt lat="45.39273" lon="4.61199">
        <ele>1410.6</ele>
        <time>2026-08-18T11:54:42.983Z</time>
      </trkpt>
      <trkpt lat="45.39273" lon="4.612">
        <ele>1411</ele>
        <time>2026-08-18T11:54:43.984Z</time>
      </trkpt>
      <trkpt lat="45.39273" lon="4.61202">
        <ele>1411.2</ele>
        <time>2026-08-18T11:54:45.984Z</time>
      </trkpt>
      <trkpt lat="45.39273" lon="4.61203">
        <ele>1411.2</ele>
        <time>2026-08-18T11:54:46.984Z</time>
      </trkpt>
      <trkpt lat="45.39273" lon="4.61204">
        <ele>1411.7</ele>
        <time>2026-08-18T11:54:47.984Z</time>
      </trkpt>
      <trkpt lat="45.39273" lon="4.61205">
        <ele>1411.6</ele>
        <time>2026-08-18T11:54:48.984Z</time>
      </trkpt>
      <trkpt lat="45.39273" lon="4.61206">
        <ele>1411.7</ele>
        <time>2026-08-18T11:54:49.984Z</time>
      </trkpt>
      <trkpt lat="45.39273" lon="4.61208">
        <ele>1412.3</ele>
        <time>2026-08-18T11:54:51.983Z</time>
      </trkpt>
      <trkpt lat="45.39272" lon="4.61208">
        <ele>1412.3</ele>
        <time>2026-08-18T11:54:52.984Z</time>
      </trkpt>
      <trkpt lat="45.39272" lon="4.61208">
        <ele>1411.9</ele>
        <time>2026-08-18T11:54:53.984Z</time>
      </trkpt>
      <trkpt lat="45.39272" lon="4.61207">
        <ele>1412.7</ele>
        <time>2026-08-18T11:54:55.983Z</time>
      </trkpt>
      <trkpt lat="45.39271" lon="4.61207">
        <ele>1412</ele>
        <time>2026-08-18T11:54:56.984Z</time>
      </trkpt>
      <trkpt lat="45.39269" lon="4.61208">
        <ele>1411.6</ele>
        <time>2026-08-18T11:54:58.983Z</time>
      </trkpt>
      <trkpt lat="45.39269" lon="4.61209">
        <ele>1411.4</ele>
        <time>2026-08-18T11:54:59.984Z</time>
      </trkpt>
      <trkpt lat="45.39269" lon="4.6121">
        <ele>1411.4</ele>
        <time>2026-08-18T11:55:00.984Z</time>
      </trkpt>
      <trkpt lat="45.39269" lon="4.61212">
        <ele>1411.6</ele>
        <time>2026-08-18T11:55:02.983Z</time>
      </trkpt>
      <trkpt lat="45.39269" lon="4.61213">
        <ele>1412.2</ele>
        <time>2026-08-18T11:55:03.984Z</time>
      </trkpt>
      <trkpt lat="45.39268" lon="4.61215">
        <ele>1412.3</ele>
        <time>2026-08-18T11:55:05.984Z</time>
      </trkpt>
      <trkpt lat="45.39268" lon="4.61216">
        <ele>1411.9</ele>
        <time>2026-08-18T11:55:06.984Z</time>
      </trkpt>
      <trkpt lat="45.39268" lon="4.61216">
        <ele>1411.4</ele>
        <time>2026-08-18T11:55:07.984Z</time>
      </trkpt>
      <trkpt lat="45.39268" lon="4.61217">
        <ele>1411.3</ele>
        <time>2026-08-18T11:55:08.984Z</time>
      </trkpt>
      <trkpt lat="45.39268" lon="4.61219">
        <ele>1411</ele>
        <time>2026-08-18T11:55:10.983Z</time>
      </trkpt>
      <trkpt lat="45.39268" lon="4.61221">
        <ele>1411.5</ele>
        <time>2026-08-18T11:55:12.984Z</time>
      </trkpt>
      <trkpt lat="45.39271" lon="4.6122">
        <ele>1411.8</ele>
        <time>2026-08-18T11:55:14.984Z</time>
      </trkpt>
      <trkpt lat="45.39271" lon="4.61221">
        <ele>1411.8</ele>
        <time>2026-08-18T11:55:16.984Z</time>
      </trkpt>
      <trkpt lat="45.39272" lon="4.61221">
        <ele>1411.8</ele>
        <time>2026-08-18T11:55:18.983Z</time>
      </trkpt>
      <trkpt lat="45.39272" lon="4.61221">
        <ele>1411.8</ele>
        <time>2026-08-18T11:55:19.983Z</time>
      </trkpt>
      <trkpt lat="45.39272" lon="4.61221">
        <ele>1411.8</ele>
        <time>2026-08-18T11:55:20.984Z</time>
      </trkpt>
      <trkpt lat="45.39272" lon="4.61221">
        <ele>1411.8</ele>
        <time>2026-08-18T11:55:21.984Z</time>
      </trkpt>
      <trkpt lat="45.39272" lon="4.61221">
        <ele>1411.8</ele>
        <time>2026-08-18T11:55:22.984Z</time>
      </trkpt>
      <trkpt lat="45.39272" lon="4.61221">
        <ele>1411.8</ele>
        <time>2026-08-18T11:55:24.984Z</time>
      </trkpt>
      <trkpt lat="45.39272" lon="4.61221">
        <ele>1411.8</ele>
        <time>2026-08-18T11:55:25.984Z</time>
      </trkpt>
      <trkpt lat="45.39272" lon="4.61221">
        <ele>1411.8</ele>
        <time>2026-08-18T11:55:26.984Z</time>
      </trkpt>
      <trkpt lat="45.39272" lon="4.61221">
        <ele>1411.8</ele>
        <time>2026-08-18T11:55:28.982Z</time>
      </trkpt>
      <trkpt lat="45.39272" lon="4.61221">
        <ele>1411.8</ele>
        <time>2026-08-18T11:55:29.983Z</time>
      </trkpt>
      <trkpt lat="45.39273" lon="4.61221">
        <ele>1411.8</ele>
        <time>2026-08-18T11:55:30.983Z</time>
      </trkpt>
      <trkpt lat="45.39273" lon="4.61221">
        <ele>1411.8</ele>
        <time>2026-08-18T11:55:31.984Z</time>
      </trkpt>
      <trkpt lat="45.39273" lon="4.61221">
        <ele>1411.8</ele>
        <time>2026-08-18T11:55:32.984Z</time>
      </trkpt>
      <trkpt lat="45.39273" lon="4.61221">
        <ele>1411.8</ele>
        <time>2026-08-18T11:55:34.984Z</time>
      </trkpt>
      <trkpt lat="45.39273" lon="4.61221">
        <ele>1411.8</ele>
        <time>2026-08-18T11:55:35.984Z</time>
      </trkpt>
      <trkpt lat="45.39273" lon="4.61221">
        <ele>1411.8</ele>
        <time>2026-08-18T11:55:36.984Z</time>
      </trkpt>
      <trkpt lat="45.39273" lon="4.61221">
        <ele>1411.8</ele>
        <time>2026-08-18T11:55:37.984Z</time>
      </trkpt>
      <trkpt lat="45.39273" lon="4.61221">
        <ele>1411.8</ele>
        <time>2026-08-18T11:55:39.983Z</time>
      </trkpt>
      <trkpt lat="45.39273" lon="4.61221">
        <ele>1411.8</ele>
        <time>2026-08-18T11:55:40.984Z</time>
      </trkpt>
      <trkpt lat="45.39273" lon="4.61221">
        <ele>1411.8</ele>
        <time>2026-08-18T11:55:41.984Z</time>
      </trkpt>
      <trkpt lat="45.39273" lon="4.61221">
        <ele>1411.8</ele>
        <time>2026-08-18T11:55:42.984Z</time>
      </trkpt>
      <trkpt lat="45.39273" lon="4.61221">
        <ele>1411.8</ele>
        <time>2026-08-18T11:55:43.984Z</time>
      </trkpt>
      <trkpt lat="45.39273" lon="4.61221">
        <ele>1411.8</ele>
        <time>2026-08-18T11:55:45.984Z</time>
      </trkpt>
      <trkpt lat="45.39273" lon="4.61221">
        <ele>1411.8</ele>
        <time>2026-08-18T11:55:47.984Z</time>
      </trkpt>
      <trkpt lat="45.39273" lon="4.61221">
        <ele>1411.8</ele>
        <time>2026-08-18T11:55:49.983Z</time>
      </trkpt>
      <trkpt lat="45.39273" lon="4.61221">
        <ele>1411.8</ele>
        <time>2026-08-18T11:55:50.983Z</time>
      </trkpt>
      <trkpt lat="45.39273" lon="4.61221">
        <ele>1411.8</ele>
        <time>2026-08-18T11:55:51.984Z</time>
      </trkpt>
      <trkpt lat="45.39273" lon="4.61221">
        <ele>1411.8</ele>
        <time>2026-08-18T11:55:52.984Z</time>
      </trkpt>
      <trkpt lat="45.39273" lon="4.61221">
        <ele>1411.8</ele>
        <time>2026-08-18T11:55:54.983Z</time>
      </trkpt>
      <trkpt lat="45.39273" lon="4.61221">
        <ele>1411.8</ele>
        <time>2026-08-18T11:55:55.984Z</time>
      </trkpt>
      <trkpt lat="45.39273" lon="4.61221">
        <ele>1411.8</ele>
        <time>2026-08-18T11:55:57.983Z</time>
      </trkpt>
      <trkpt lat="45.39273" lon="4.61221">
        <ele>1411.8</ele>
        <time>2026-08-18T11:55:58.984Z</time>
      </trkpt>
      <trkpt lat="45.39273" lon="4.61221">
        <ele>1411.8</ele>
        <time>2026-08-18T11:55:59.984Z</time>
      </trkpt>
      <trkpt lat="45.39273" lon="4.61221">
        <ele>1411.8</ele>
        <time>2026-08-18T11:56:00.984Z</time>
      </trkpt>
      <trkpt lat="45.39273" lon="4.61221">
        <ele>1411.8</ele>
        <time>2026-08-18T11:56:01.984Z</time>
      </trkpt>
      <trkpt lat="45.39273" lon="4.61221">
        <ele>1411.8</ele>
        <time>2026-08-18T11:56:02.984Z</time>
      </trkpt>
      <trkpt lat="45.39273" lon="4.61221">
        <ele>1411.8</ele>
        <time>2026-08-18T11:56:03.984Z</time>
      </trkpt>
      <trkpt lat="45.39273" lon="4.61221">
        <ele>1411.8</ele>
        <time>2026-08-18T11:56:04.984Z</time>
      </trkpt>
      <trkpt lat="45.39273" lon="4.61221">
        <ele>1411.8</ele>
        <time>2026-08-18T11:56:05.984Z</time>
      </trkpt>
      <trkpt lat="45.39273" lon="4.61221">
        <ele>1411.8</ele>
        <time>2026-08-18T11:56:06.984Z</time>
      </trkpt>
      <trkpt lat="45.39273" lon="4.61221">
        <ele>1411.8</ele>
        <time>2026-08-18T11:56:07.984Z</time>
      </trkpt>
      <trkpt lat="45.39273" lon="4.61221">
        <ele>1411.8</ele>
        <time>2026-08-18T11:56:08.984Z</time>
      </trkpt>
      <trkpt lat="45.39273" lon="4.61221">
        <ele>1411.8</ele>
        <time>2026-08-18T11:56:09.984Z</time>
      </trkpt>
      <trkpt lat="45.39273" lon="4.61221">
        <ele>1411.8</ele>
        <time>2026-08-18T11:56:11.984Z</time>
      </trkpt>
      <trkpt lat="45.39273" lon="4.61221">
        <ele>1411.8</ele>
        <time>2026-08-18T11:56:13.984Z</time>
      </trkpt>
      <trkpt lat="45.39273" lon="4.61221">
        <ele>1411.8</ele>
        <time>2026-08-18T11:56:14.984Z</time>
      </trkpt>
      <trkpt lat="45.39273" lon="4.61221">
        <ele>1411.8</ele>
        <time>2026-08-18T11:56:16.983Z</time>
      </trkpt>
      <trkpt lat="45.39273" lon="4.61221">
        <ele>1411.8</ele>
        <time>2026-08-18T11:56:17.983Z</time>
      </trkpt>
      <trkpt lat="45.39273" lon="4.61221">
        <ele>1411.8</ele>
        <time>2026-08-18T11:56:18.983Z</time>
      </trkpt>
      <trkpt lat="45.39273" lon="4.61221">
        <ele>1411.8</ele>
        <time>2026-08-18T11:56:19.984Z</time>
      </trkpt>
      <trkpt lat="45.39273" lon="4.61221">
        <ele>1411.8</ele>
        <time>2026-08-18T11:56:21.983Z</time>
      </trkpt>
      <trkpt lat="45.39273" lon="4.61221">
        <ele>1411.8</ele>
        <time>2026-08-18T11:56:22.983Z</time>
      </trkpt>
      <trkpt lat="45.39273" lon="4.61221">
        <ele>1411.8</ele>
        <time>2026-08-18T11:56:23.983Z</time>
      </trkpt>
      <trkpt lat="45.39273" lon="4.61221">
        <ele>1411.8</ele>
        <time>2026-08-18T11:56:24.984Z</time>
      </trkpt>
      <trkpt lat="45.39273" lon="4.61221">
        <ele>1411.8</ele>
        <time>2026-08-18T11:56:25.984Z</time>
      </trkpt>
      <trkpt lat="45.39273" lon="4.61221">
        <ele>1411.8</ele>
        <time>2026-08-18T11:56:27.984Z</time>
      </trkpt>
      <trkpt lat="45.39273" lon="4.61221">
        <ele>1411.8</ele>
        <time>2026-08-18T11:56:29.983Z</time>
      </trkpt>
      <trkpt lat="45.39273" lon="4.61221">
        <ele>1411.8</ele>
        <time>2026-08-18T11:56:30.984Z</time>
      </trkpt>
      <trkpt lat="45.39273" lon="4.61221">
        <ele>1411.8</ele>
        <time>2026-08-18T11:56:32.983Z</time>
      </trkpt>
      <trkpt lat="45.39273" lon="4.61221">
        <ele>1411.8</ele>
        <time>2026-08-18T11:56:33.983Z</time>
      </trkpt>
      <trkpt lat="45.39273" lon="4.61221">
        <ele>1411.8</ele>
        <time>2026-08-18T11:56:34.984Z</time>
      </trkpt>
      <trkpt lat="45.39273" lon="4.61221">
        <ele>1411.8</ele>
        <time>2026-08-18T11:56:36.984Z</time>
      </trkpt>
      <trkpt lat="45.39273" lon="4.61221">
        <ele>1411.8</ele>
        <time>2026-08-18T11:56:37.984Z</time>
      </trkpt>
      <trkpt lat="45.39273" lon="4.61221">
        <ele>1411.9</ele>
        <time>2026-08-18T11:56:38.984Z</time>
      </trkpt>
      <trkpt lat="45.39273" lon="4.61221">
        <ele>1411.9</ele>
        <time>2026-08-18T11:56:39.984Z</time>
      </trkpt>
      <trkpt lat="45.39273" lon="4.61221">
        <ele>1411.9</ele>
        <time>2026-08-18T11:56:40.984Z</time>
      </trkpt>
      <trkpt lat="45.39273" lon="4.61221">
        <ele>1411.9</ele>
        <time>2026-08-18T11:56:41.984Z</time>
      </trkpt>
      <trkpt lat="45.39273" lon="4.61221">
        <ele>1411.9</ele>
        <time>2026-08-18T11:56:43.983Z</time>
      </trkpt>
      <trkpt lat="45.39273" lon="4.61221">
        <ele>1411.9</ele>
        <time>2026-08-18T11:56:44.983Z</time>
      </trkpt>
      <trkpt lat="45.39273" lon="4.61221">
        <ele>1411.9</ele>
        <time>2026-08-18T11:56:45.983Z</time>
      </trkpt>
      <trkpt lat="45.39273" lon="4.61221">
        <ele>1411.9</ele>
        <time>2026-08-18T11:56:46.984Z</time>
      </trkpt>
      <trkpt lat="45.39273" lon="4.61221">
        <ele>1411.9</ele>
        <time>2026-08-18T11:56:47.984Z</time>
      </trkpt>
      <trkpt lat="45.39273" lon="4.61221">
        <ele>1411.9</ele>
        <time>2026-08-18T11:56:49.983Z</time>
      </trkpt>
      <trkpt lat="45.39273" lon="4.61221">
        <ele>1411.9</ele>
        <time>2026-08-18T11:56:50.983Z</time>
      </trkpt>
      <trkpt lat="45.39273" lon="4.61221">
        <ele>1411.9</ele>
        <time>2026-08-18T11:56:51.984Z</time>
      </trkpt>
      <trkpt lat="45.39273" lon="4.61221">
        <ele>1411.9</ele>
        <time>2026-08-18T11:56:52.984Z</time>
      </trkpt>
      <trkpt lat="45.39273" lon="4.61221">
        <ele>1411.9</ele>
        <time>2026-08-18T11:56:53.984Z</time>
      </trkpt>
      <trkpt lat="45.39273" lon="4.61221">
        <ele>1411.9</ele>
        <time>2026-08-18T11:56:54.984Z</time>
      </trkpt>
      <trkpt lat="45.39273" lon="4.61221">
        <ele>1411.9</ele>
        <time>2026-08-18T11:56:55.984Z</time>
      </trkpt>
      <trkpt lat="45.39273" lon="4.61221">
        <ele>1411.9</ele>
        <time>2026-08-18T11:56:56.984Z</time>
      </trkpt>
      <trkpt lat="45.39273" lon="4.61221">
        <ele>1411.9</ele>
        <time>2026-08-18T11:56:58.984Z</time>
      </trkpt>
      <trkpt lat="45.39273" lon="4.61221">
        <ele>1411.9</ele>
        <time>2026-08-18T11:57:00.983Z</time>
      </trkpt>
      <trkpt lat="45.39273" lon="4.61221">
        <ele>1411.9</ele>
        <time>2026-08-18T11:57:01.983Z</time>
      </trkpt>
      <trkpt lat="45.39273" lon="4.61221">
        <ele>1411.9</ele>
        <time>2026-08-18T11:57:02.984Z</time>
      </trkpt>
      <trkpt lat="45.39273" lon="4.61221">
        <ele>1411.9</ele>
        <time>2026-08-18T11:57:04.984Z</time>
      </trkpt>
      <trkpt lat="45.39273" lon="4.61221">
        <ele>1411.9</ele>
        <time>2026-08-18T11:57:05.984Z</time>
      </trkpt>
      <trkpt lat="45.39273" lon="4.61221">
        <ele>1411.9</ele>
        <time>2026-08-18T11:57:07.983Z</time>
      </trkpt>
      <trkpt lat="45.39273" lon="4.61221">
        <ele>1411.9</ele>
        <time>2026-08-18T11:57:08.984Z</time>
      </trkpt>
      <trkpt lat="45.39273" lon="4.61221">
        <ele>1411.9</ele>
        <time>2026-08-18T11:57:09.984Z</time>
      </trkpt>
      <trkpt lat="45.39273" lon="4.61221">
        <ele>1411.9</ele>
        <time>2026-08-18T11:57:11.983Z</time>
      </trkpt>
      <trkpt lat="45.39273" lon="4.61221">
        <ele>1411.9</ele>
        <time>2026-08-18T11:57:12.984Z</time>
      </trkpt>
      <trkpt lat="45.39273" lon="4.61221">
        <ele>1411.9</ele>
        <time>2026-08-18T11:57:13.984Z</time>
      </trkpt>
      <trkpt lat="45.39273" lon="4.61221">
        <ele>1411.9</ele>
        <time>2026-08-18T11:57:14.984Z</time>
      </trkpt>
      <trkpt lat="45.39273" lon="4.61221">
        <ele>1411.9</ele>
        <time>2026-08-18T11:57:15.984Z</time>
      </trkpt>
      <trkpt lat="45.39273" lon="4.61221">
        <ele>1411.9</ele>
        <time>2026-08-18T11:57:16.984Z</time>
      </trkpt>
      <trkpt lat="45.39273" lon="4.61221">
        <ele>1411.9</ele>
        <time>2026-08-18T11:57:18.983Z</time>
      </trkpt>
      <trkpt lat="45.39273" lon="4.61221">
        <ele>1411.9</ele>
        <time>2026-08-18T11:57:19.984Z</time>
      </trkpt>
      <trkpt lat="45.39273" lon="4.61221">
        <ele>1411.9</ele>
        <time>2026-08-18T11:57:21.984Z</time>
      </trkpt>
      <trkpt lat="45.39273" lon="4.61221">
        <ele>1411.9</ele>
        <time>2026-08-18T11:57:23.983Z</time>
      </trkpt>
      <trkpt lat="45.39273" lon="4.61221">
        <ele>1411.9</ele>
        <time>2026-08-18T11:57:24.984Z</time>
      </trkpt>
      <trkpt lat="45.39273" lon="4.61221">
        <ele>1411.9</ele>
        <time>2026-08-18T11:57:25.984Z</time>
      </trkpt>
      <trkpt lat="45.39273" lon="4.61221">
        <ele>1411.9</ele>
        <time>2026-08-18T11:57:27.984Z</time>
      </trkpt>
      <trkpt lat="45.39273" lon="4.61221">
        <ele>1411.9</ele>
        <time>2026-08-18T11:57:29.983Z</time>
      </trkpt>
      <trkpt lat="45.39273" lon="4.61221">
        <ele>1411.9</ele>
        <time>2026-08-18T11:57:30.984Z</time>
      </trkpt>
      <trkpt lat="45.39273" lon="4.61221">
        <ele>1411.9</ele>
        <time>2026-08-18T11:57:32.983Z</time>
      </trkpt>
      <trkpt lat="45.39273" lon="4.61221">
        <ele>1411.9</ele>
        <time>2026-08-18T11:57:33.983Z</time>
      </trkpt>
      <trkpt lat="45.39273" lon="4.61221">
        <ele>1411.9</ele>
        <time>2026-08-18T11:57:34.984Z</time>
      </trkpt>
      <trkpt lat="45.39273" lon="4.61221">
        <ele>1411.9</ele>
        <time>2026-08-18T11:57:36.983Z</time>
      </trkpt>
      <trkpt lat="45.39273" lon="4.61221">
        <ele>1411.9</ele>
        <time>2026-08-18T11:57:37.984Z</time>
      </trkpt>
      <trkpt lat="45.39273" lon="4.61221">
        <ele>1411.9</ele>
        <time>2026-08-18T11:57:39.984Z</time>
      </trkpt>
      <trkpt lat="45.39273" lon="4.61221">
        <ele>1411.9</ele>
        <time>2026-08-18T11:57:41.983Z</time>
      </trkpt>
      <trkpt lat="45.39273" lon="4.61221">
        <ele>1411.9</ele>
        <time>2026-08-18T11:57:42.984Z</time>
      </trkpt>
      <trkpt lat="45.39273" lon="4.61221">
        <ele>1411.9</ele>
        <time>2026-08-18T11:57:43.984Z</time>
      </trkpt>
      <trkpt lat="45.39273" lon="4.61221">
        <ele>1411.9</ele>
        <time>2026-08-18T11:57:45.983Z</time>
      </trkpt>
      <trkpt lat="45.39273" lon="4.61221">
        <ele>1411.9</ele>
        <time>2026-08-18T11:57:46.983Z</time>
      </trkpt>
      <trkpt lat="45.39273" lon="4.61221">
        <ele>1411.9</ele>
        <time>2026-08-18T11:57:47.984Z</time>
      </trkpt>
      <trkpt lat="45.39273" lon="4.61221">
        <ele>1411.9</ele>
        <time>2026-08-18T11:57:48.984Z</time>
      </trkpt>
      <trkpt lat="45.39273" lon="4.61221">
        <ele>1411.9</ele>
        <time>2026-08-18T11:57:50.983Z</time>
      </trkpt>
      <trkpt lat="45.39273" lon="4.61221">
        <ele>1411.9</ele>
        <time>2026-08-18T11:57:51.984Z</time>
      </trkpt>
      <trkpt lat="45.39273" lon="4.61221">
        <ele>1411.9</ele>
        <time>2026-08-18T11:57:53.984Z</time>
      </trkpt>
      <trkpt lat="45.39273" lon="4.61221">
        <ele>1411.9</ele>
        <time>2026-08-18T11:57:54.984Z</time>
      </trkpt>
      <trkpt lat="45.39273" lon="4.61221">
        <ele>1411.9</ele>
        <time>2026-08-18T11:57:55.984Z</time>
      </trkpt>
      <trkpt lat="45.39273" lon="4.61221">
        <ele>1411.9</ele>
        <time>2026-08-18T11:57:56.984Z</time>
      </trkpt>
      <trkpt lat="45.39273" lon="4.61221">
        <ele>1411.9</ele>
        <time>2026-08-18T11:57:58.983Z</time>
      </trkpt>
      <trkpt lat="45.39273" lon="4.61221">
        <ele>1411.9</ele>
        <time>2026-08-18T11:57:59.984Z</time>
      </trkpt>
      <trkpt lat="45.39273" lon="4.61221">
        <ele>1411.9</ele>
        <time>2026-08-18T11:58:00.984Z</time>
      </trkpt>
      <trkpt lat="45.39273" lon="4.61221">
        <ele>1411.9</ele>
        <time>2026-08-18T11:58:01.984Z</time>
      </trkpt>
      <trkpt lat="45.39273" lon="4.61221">
        <ele>1411.9</ele>
        <time>2026-08-18T11:58:03.984Z</time>
      </trkpt>
      <trkpt lat="45.39273" lon="4.61221">
        <ele>1411.9</ele>
        <time>2026-08-18T11:58:05.984Z</time>
      </trkpt>
      <trkpt lat="45.39273" lon="4.61221">
        <ele>1411.9</ele>
        <time>2026-08-18T11:58:07.983Z</time>
      </trkpt>
      <trkpt lat="45.39273" lon="4.61221">
        <ele>1411.9</ele>
        <time>2026-08-18T11:58:08.983Z</time>
      </trkpt>
      <trkpt lat="45.39273" lon="4.61221">
        <ele>1411.9</ele>
        <time>2026-08-18T11:58:09.984Z</time>
      </trkpt>
      <trkpt lat="45.39273" lon="4.61221">
        <ele>1411.9</ele>
        <time>2026-08-18T11:58:11.984Z</time>
      </trkpt>
      <trkpt lat="45.39273" lon="4.61221">
        <ele>1411.9</ele>
        <time>2026-08-18T11:58:12.984Z</time>
      </trkpt>
      <trkpt lat="45.39273" lon="4.61221">
        <ele>1411.9</ele>
        <time>2026-08-18T11:58:13.984Z</time>
      </trkpt>
      <trkpt lat="45.39273" lon="4.61221">
        <ele>1411.9</ele>
        <time>2026-08-18T11:58:14.984Z</time>
      </trkpt>
      <trkpt lat="45.39273" lon="4.61221">
        <ele>1411.9</ele>
        <time>2026-08-18T11:58:15.984Z</time>
      </trkpt>
      <trkpt lat="45.39273" lon="4.61221">
        <ele>1411.9</ele>
        <time>2026-08-18T11:58:16.984Z</time>
      </trkpt>
      <trkpt lat="45.39273" lon="4.61221">
        <ele>1411.9</ele>
        <time>2026-08-18T11:58:17.984Z</time>
      </trkpt>
      <trkpt lat="45.39273" lon="4.61221">
        <ele>1411.9</ele>
        <time>2026-08-18T11:58:18.984Z</time>
      </trkpt>
      <trkpt lat="45.39273" lon="4.61221">
        <ele>1411.9</ele>
        <time>2026-08-18T11:58:20.984Z</time>
      </trkpt>
      <trkpt lat="45.39273" lon="4.61221">
        <ele>1411.9</ele>
        <time>2026-08-18T11:58:22.984Z</time>
      </trkpt>
      <trkpt lat="45.39273" lon="4.61221">
        <ele>1411.9</ele>
        <time>2026-08-18T11:58:23.984Z</time>
      </trkpt>
      <trkpt lat="45.39273" lon="4.61221">
        <ele>1411.9</ele>
        <time>2026-08-18T11:58:24.984Z</time>
      </trkpt>
      <trkpt lat="45.39273" lon="4.61221">
        <ele>1411.9</ele>
        <time>2026-08-18T11:58:25.984Z</time>
      </trkpt>
      <trkpt lat="45.39273" lon="4.61221">
        <ele>1411.9</ele>
        <time>2026-08-18T11:58:27.983Z</time>
      </trkpt>
      <trkpt lat="45.39273" lon="4.61221">
        <ele>1411.9</ele>
        <time>2026-08-18T11:58:28.983Z</time>
      </trkpt>
      <trkpt lat="45.39273" lon="4.61221">
        <ele>1411.9</ele>
        <time>2026-08-18T11:58:29.983Z</time>
      </trkpt>
      <trkpt lat="45.39273" lon="4.61221">
        <ele>1411.9</ele>
        <time>2026-08-18T11:58:30.984Z</time>
      </trkpt>
      <trkpt lat="45.39273" lon="4.61221">
        <ele>1411.9</ele>
        <time>2026-08-18T11:58:31.984Z</time>
      </trkpt>
      <trkpt lat="45.39273" lon="4.61221">
        <ele>1411.9</ele>
        <time>2026-08-18T11:58:32.984Z</time>
      </trkpt>
      <trkpt lat="45.39273" lon="4.61221">
        <ele>1411.9</ele>
        <time>2026-08-18T11:58:34.984Z</time>
      </trkpt>
      <trkpt lat="45.39273" lon="4.61221">
        <ele>1411.9</ele>
        <time>2026-08-18T11:58:35.984Z</time>
      </trkpt>
      <trkpt lat="45.39273" lon="4.61221">
        <ele>1411.9</ele>
        <time>2026-08-18T11:58:36.984Z</time>
      </trkpt>
      <trkpt lat="45.39273" lon="4.61221">
        <ele>1411.9</ele>
        <time>2026-08-18T11:58:38.984Z</time>
      </trkpt>
      <trkpt lat="45.39273" lon="4.61221">
        <ele>1411.9</ele>
        <time>2026-08-18T11:58:40.983Z</time>
      </trkpt>
      <trkpt lat="45.39273" lon="4.61221">
        <ele>1411.9</ele>
        <time>2026-08-18T11:58:41.984Z</time>
      </trkpt>
      <trkpt lat="45.39273" lon="4.61221">
        <ele>1411.9</ele>
        <time>2026-08-18T11:58:43.983Z</time>
      </trkpt>
      <trkpt lat="45.39273" lon="4.61221">
        <ele>1411.9</ele>
        <time>2026-08-18T11:58:44.983Z</time>
      </trkpt>
      <trkpt lat="45.39273" lon="4.61221">
        <ele>1411.9</ele>
        <time>2026-08-18T11:58:45.984Z</time>
      </trkpt>
      <trkpt lat="45.39273" lon="4.61221">
        <ele>1411.9</ele>
        <time>2026-08-18T11:58:47.984Z</time>
      </trkpt>
      <trkpt lat="45.39273" lon="4.61221">
        <ele>1411.9</ele>
        <time>2026-08-18T11:58:48.984Z</time>
      </trkpt>
      <trkpt lat="45.39273" lon="4.61221">
        <ele>1411.9</ele>
        <time>2026-08-18T11:58:49.984Z</time>
      </trkpt>
      <trkpt lat="45.39273" lon="4.61221">
        <ele>1411.9</ele>
        <time>2026-08-18T11:58:51.984Z</time>
      </trkpt>
      <trkpt lat="45.39273" lon="4.61221">
        <ele>1411.9</ele>
        <time>2026-08-18T11:58:53.983Z</time>
      </trkpt>
      <trkpt lat="45.39273" lon="4.61221">
        <ele>1411.9</ele>
        <time>2026-08-18T11:58:54.984Z</time>
      </trkpt>
      <trkpt lat="45.39273" lon="4.61221">
        <ele>1411.9</ele>
        <time>2026-08-18T11:58:56.983Z</time>
      </trkpt>
      <trkpt lat="45.39273" lon="4.61221">
        <ele>1411.9</ele>
        <time>2026-08-18T11:58:57.984Z</time>
      </trkpt>
      <trkpt lat="45.39273" lon="4.61221">
        <ele>1411.9</ele>
        <time>2026-08-18T11:58:58.984Z</time>
      </trkpt>
      <trkpt lat="45.39273" lon="4.61221">
        <ele>1411.9</ele>
        <time>2026-08-18T11:59:00.984Z</time>
      </trkpt>
      <trkpt lat="45.39273" lon="4.61221">
        <ele>1411.9</ele>
        <time>2026-08-18T11:59:01.984Z</time>
      </trkpt>
      <trkpt lat="45.39273" lon="4.61221">
        <ele>1411.9</ele>
        <time>2026-08-18T11:59:03.984Z</time>
      </trkpt>
      <trkpt lat="45.39273" lon="4.61221">
        <ele>1411.9</ele>
        <time>2026-08-18T11:59:04.984Z</time>
      </trkpt>
      <trkpt lat="45.39273" lon="4.61221">
        <ele>1411.9</ele>
        <time>2026-08-18T11:59:05.984Z</time>
      </trkpt>
      <trkpt lat="45.39273" lon="4.61221">
        <ele>1411.9</ele>
        <time>2026-08-18T11:59:06.984Z</time>
      </trkpt>
      <trkpt lat="45.39273" lon="4.61221">
        <ele>1411.9</ele>
        <time>2026-08-18T11:59:07.984Z</time>
      </trkpt>
      <trkpt lat="45.39273" lon="4.61221">
        <ele>1411.9</ele>
        <time>2026-08-18T11:59:09.984Z</time>
      </trkpt>
      <trkpt lat="45.39273" lon="4.61221">
        <ele>1411.9</ele>
        <time>2026-08-18T11:59:10.984Z</time>
      </trkpt>
      <trkpt lat="45.39273" lon="4.61221">
        <ele>1411.9</ele>
        <time>2026-08-18T11:59:12.983Z</time>
      </trkpt>
      <trkpt lat="45.39273" lon="4.61221">
        <ele>1411.9</ele>
        <time>2026-08-18T11:59:13.984Z</time>
      </trkpt>
      <trkpt lat="45.39273" lon="4.61221">
        <ele>1411.9</ele>
        <time>2026-08-18T11:59:14.984Z</time>
      </trkpt>
      <trkpt lat="45.39273" lon="4.61221">
        <ele>1411.9</ele>
        <time>2026-08-18T11:59:15.984Z</time>
      </trkpt>
      <trkpt lat="45.39273" lon="4.61221">
        <ele>1411.9</ele>
        <time>2026-08-18T11:59:16.984Z</time>
      </trkpt>
      <trkpt lat="45.39273" lon="4.61221">
        <ele>1411.9</ele>
        <time>2026-08-18T11:59:18.984Z</time>
      </trkpt>
      <trkpt lat="45.39273" lon="4.61221">
        <ele>1411.9</ele>
        <time>2026-08-18T11:59:19.984Z</time>
      </trkpt>
      <trkpt lat="45.39273" lon="4.61221">
        <ele>1411.9</ele>
        <time>2026-08-18T11:59:20.984Z</time>
      </trkpt>
      <trkpt lat="45.39273" lon="4.61221">
        <ele>1411.9</ele>
        <time>2026-08-18T11:59:22.984Z</time>
      </trkpt>
      <trkpt lat="45.39273" lon="4.61221">
        <ele>1411.9</ele>
        <time>2026-08-18T11:59:23.984Z</time>
      </trkpt>
      <trkpt lat="45.39273" lon="4.61221">
        <ele>1411.9</ele>
        <time>2026-08-18T11:59:25.983Z</time>
      </trkpt>
      <trkpt lat="45.39273" lon="4.61221">
        <ele>1411.9</ele>
        <time>2026-08-18T11:59:26.984Z</time>
      </trkpt>
      <trkpt lat="45.39273" lon="4.61221">
        <ele>1411.9</ele>
        <time>2026-08-18T11:59:28.984Z</time>
      </trkpt>
      <trkpt lat="45.39273" lon="4.61221">
        <ele>1411.9</ele>
        <time>2026-08-18T11:59:29.991Z</time>
      </trkpt>
      <trkpt lat="45.39273" lon="4.61221">
        <ele>1411.9</ele>
        <time>2026-08-18T11:59:31.984Z</time>
      </trkpt>
      <trkpt lat="45.39273" lon="4.61221">
        <ele>1411.9</ele>
        <time>2026-08-18T11:59:32.984Z</time>
      </trkpt>
      <trkpt lat="45.39273" lon="4.61221">
        <ele>1411.9</ele>
        <time>2026-08-18T11:59:34.984Z</time>
      </trkpt>
      <trkpt lat="45.39273" lon="4.61221">
        <ele>1411.9</ele>
        <time>2026-08-18T11:59:35.984Z</time>
      </trkpt>
      <trkpt lat="45.39273" lon="4.61221">
        <ele>1411.9</ele>
        <time>2026-08-18T11:59:36.984Z</time>
      </trkpt>
      <trkpt lat="45.39273" lon="4.61221">
        <ele>1411.9</ele>
        <time>2026-08-18T11:59:38.984Z</time>
      </trkpt>
      <trkpt lat="45.39273" lon="4.61221">
        <ele>1411.9</ele>
        <time>2026-08-18T11:59:40.984Z</time>
      </trkpt>
      <trkpt lat="45.39273" lon="4.61221">
        <ele>1411.9</ele>
        <time>2026-08-18T11:59:41.984Z</time>
      </trkpt>
      <trkpt lat="45.39273" lon="4.61221">
        <ele>1411.9</ele>
        <time>2026-08-18T11:59:42.997Z</time>
      </trkpt>
      <trkpt lat="45.39273" lon="4.61221">
        <ele>1411.9</ele>
        <time>2026-08-18T11:59:44.984Z</time>
      </trkpt>
      <trkpt lat="45.39273" lon="4.61221">
        <ele>1411.9</ele>
        <time>2026-08-18T11:59:46.989Z</time>
      </trkpt>
      <trkpt lat="45.39273" lon="4.61222">
        <ele>1411.9</ele>
        <time>2026-08-18T11:59:48.984Z</time>
      </trkpt>
      <trkpt lat="45.39273" lon="4.61222">
        <ele>1411.9</ele>
        <time>2026-08-18T11:59:49.984Z</time>
      </trkpt>
      <trkpt lat="45.39273" lon="4.61222">
        <ele>1411.9</ele>
        <time>2026-08-18T11:59:50.984Z</time>
      </trkpt>
      <trkpt lat="45.39273" lon="4.61222">
        <ele>1411.9</ele>
        <time>2026-08-18T11:59:51.984Z</time>
      </trkpt>
      <trkpt lat="45.39273" lon="4.61222">
        <ele>1411.9</ele>
        <time>2026-08-18T11:59:52.984Z</time>
      </trkpt>
      <trkpt lat="45.39273" lon="4.61222">
        <ele>1411.9</ele>
        <time>2026-08-18T11:59:54.984Z</time>
      </trkpt>
      <trkpt lat="45.39273" lon="4.61222">
        <ele>1411.9</ele>
        <time>2026-08-18T11:59:56.983Z</time>
      </trkpt>
      <trkpt lat="45.39273" lon="4.61222">
        <ele>1411.9</ele>
        <time>2026-08-18T11:59:57.984Z</time>
      </trkpt>
      <trkpt lat="45.39273" lon="4.61222">
        <ele>1411.9</ele>
        <time>2026-08-18T11:59:58.984Z</time>
      </trkpt>
      <trkpt lat="45.39273" lon="4.61222">
        <ele>1411.9</ele>
        <time>2026-08-18T11:59:59.996Z</time>
      </trkpt>
      <trkpt lat="45.39273" lon="4.61222">
        <ele>1411.9</ele>
        <time>2026-08-18T12:00:01.984Z</time>
      </trkpt>
      <trkpt lat="45.39273" lon="4.61221">
        <ele>1411.9</ele>
        <time>2026-08-18T12:00:02.984Z</time>
      </trkpt>
      <trkpt lat="45.39273" lon="4.61221">
        <ele>1411.9</ele>
        <time>2026-08-18T12:00:03.984Z</time>
      </trkpt>
      <trkpt lat="45.39273" lon="4.61221">
        <ele>1411.9</ele>
        <time>2026-08-18T12:00:04.984Z</time>
      </trkpt>
      <trkpt lat="45.39273" lon="4.61221">
        <ele>1411.9</ele>
        <time>2026-08-18T12:00:05.984Z</time>
      </trkpt>
      <trkpt lat="45.39273" lon="4.61221">
        <ele>1411.9</ele>
        <time>2026-08-18T12:00:06.984Z</time>
      </trkpt>
      <trkpt lat="45.39273" lon="4.61221">
        <ele>1411.9</ele>
        <time>2026-08-18T12:00:07.984Z</time>
      </trkpt>
      <trkpt lat="45.39273" lon="4.61221">
        <ele>1411.9</ele>
        <time>2026-08-18T12:00:08.984Z</time>
      </trkpt>
      <trkpt lat="45.39273" lon="4.61221">
        <ele>1411.9</ele>
        <time>2026-08-18T12:00:09.984Z</time>
      </trkpt>
      <trkpt lat="45.39273" lon="4.61221">
        <ele>1411.9</ele>
        <time>2026-08-18T12:00:11.984Z</time>
      </trkpt>
      <trkpt lat="45.39273" lon="4.61221">
        <ele>1411.9</ele>
        <time>2026-08-18T12:00:12.984Z</time>
      </trkpt>
      <trkpt lat="45.39273" lon="4.61221">
        <ele>1411.9</ele>
        <time>2026-08-18T12:00:13.984Z</time>
      </trkpt>
      <trkpt lat="45.39273" lon="4.61221">
        <ele>1411.9</ele>
        <time>2026-08-18T12:00:14.984Z</time>
      </trkpt>
      <trkpt lat="45.39273" lon="4.61221">
        <ele>1411.9</ele>
        <time>2026-08-18T12:00:15.984Z</time>
      </trkpt>
      <trkpt lat="45.39273" lon="4.61221">
        <ele>1411.9</ele>
        <time>2026-08-18T12:00:16.984Z</time>
      </trkpt>
      <trkpt lat="45.39273" lon="4.61221">
        <ele>1411.9</ele>
        <time>2026-08-18T12:00:18.982Z</time>
      </trkpt>
      <trkpt lat="45.39273" lon="4.61221">
        <ele>1411.9</ele>
        <time>2026-08-18T12:00:19.983Z</time>
      </trkpt>
      <trkpt lat="45.39273" lon="4.61221">
        <ele>1411.9</ele>
        <time>2026-08-18T12:00:20.989Z</time>
      </trkpt>
      <trkpt lat="45.39273" lon="4.61221">
        <ele>1411.9</ele>
        <time>2026-08-18T12:00:22.983Z</time>
      </trkpt>
      <trkpt lat="45.39273" lon="4.61221">
        <ele>1411.9</ele>
        <time>2026-08-18T12:00:24.982Z</time>
      </trkpt>
      <trkpt lat="45.39273" lon="4.61221">
        <ele>1411.9</ele>
        <time>2026-08-18T12:00:25.982Z</time>
      </trkpt>
      <trkpt lat="45.39273" lon="4.61221">
        <ele>1411.9</ele>
        <time>2026-08-18T12:00:26.982Z</time>
      </trkpt>
      <trkpt lat="45.39273" lon="4.61221">
        <ele>1411.9</ele>
        <time>2026-08-18T12:00:27.983Z</time>
      </trkpt>
      <trkpt lat="45.39273" lon="4.61221">
        <ele>1411.9</ele>
        <time>2026-08-18T12:00:30.001Z</time>
      </trkpt>
      <trkpt lat="45.39273" lon="4.61221">
        <ele>1411.9</ele>
        <time>2026-08-18T12:00:31.983Z</time>
      </trkpt>
      <trkpt lat="45.39272" lon="4.61221">
        <ele>1411.9</ele>
        <time>2026-08-18T12:00:33.982Z</time>
      </trkpt>
      <trkpt lat="45.39272" lon="4.61221">
        <ele>1411.9</ele>
        <time>2026-08-18T12:00:34.982Z</time>
      </trkpt>
      <trkpt lat="45.39272" lon="4.61221">
        <ele>1411.9</ele>
        <time>2026-08-18T12:00:35.982Z</time>
      </trkpt>
      <trkpt lat="45.39272" lon="4.61221">
        <ele>1411.9</ele>
        <time>2026-08-18T12:00:36.983Z</time>
      </trkpt>
      <trkpt lat="45.39272" lon="4.61221">
        <ele>1411.9</ele>
        <time>2026-08-18T12:00:37.988Z</time>
      </trkpt>
      <trkpt lat="45.39272" lon="4.61221">
        <ele>1411.9</ele>
        <time>2026-08-18T12:00:39.983Z</time>
      </trkpt>
      <trkpt lat="45.39272" lon="4.61221">
        <ele>1411.9</ele>
        <time>2026-08-18T12:00:40.983Z</time>
      </trkpt>
      <trkpt lat="45.39272" lon="4.61221">
        <ele>1411.9</ele>
        <time>2026-08-18T12:00:42.983Z</time>
      </trkpt>
      <trkpt lat="45.39272" lon="4.61221">
        <ele>1411.9</ele>
        <time>2026-08-18T12:00:43.983Z</time>
      </trkpt>
      <trkpt lat="45.39272" lon="4.61221">
        <ele>1411.9</ele>
        <time>2026-08-18T12:00:44.983Z</time>
      </trkpt>
      <trkpt lat="45.39272" lon="4.61221">
        <ele>1411.9</ele>
        <time>2026-08-18T12:00:46.983Z</time>
      </trkpt>
      <trkpt lat="45.39272" lon="4.61221">
        <ele>1411.9</ele>
        <time>2026-08-18T12:00:48.983Z</time>
      </trkpt>
      <trkpt lat="45.39272" lon="4.61221">
        <ele>1411.9</ele>
        <time>2026-08-18T12:00:49.983Z</time>
      </trkpt>
      <trkpt lat="45.39272" lon="4.61221">
        <ele>1412</ele>
        <time>2026-08-18T12:00:50.993Z</time>
      </trkpt>
      <trkpt lat="45.39272" lon="4.61221">
        <ele>1412</ele>
        <time>2026-08-18T12:00:52.983Z</time>
      </trkpt>
      <trkpt lat="45.39272" lon="4.61221">
        <ele>1412</ele>
        <time>2026-08-18T12:00:53.983Z</time>
      </trkpt>
      <trkpt lat="45.39272" lon="4.61221">
        <ele>1412</ele>
        <time>2026-08-18T12:00:54.985Z</time>
      </trkpt>
      <trkpt lat="45.39272" lon="4.61221">
        <ele>1412</ele>
        <time>2026-08-18T12:00:56.982Z</time>
      </trkpt>
      <trkpt lat="45.39272" lon="4.61221">
        <ele>1412</ele>
        <time>2026-08-18T12:00:57.982Z</time>
      </trkpt>
      <trkpt lat="45.39272" lon="4.61221">
        <ele>1412</ele>
        <time>2026-08-18T12:00:58.983Z</time>
      </trkpt>
      <trkpt lat="45.39272" lon="4.61221">
        <ele>1412</ele>
        <time>2026-08-18T12:01:00.005Z</time>
      </trkpt>
      <trkpt lat="45.39272" lon="4.61221">
        <ele>1412</ele>
        <time>2026-08-18T12:01:01.983Z</time>
      </trkpt>
      <trkpt lat="45.39272" lon="4.61221">
        <ele>1412</ele>
        <time>2026-08-18T12:01:03.983Z</time>
      </trkpt>
      <trkpt lat="45.39272" lon="4.61222">
        <ele>1412</ele>
        <time>2026-08-18T12:01:04.983Z</time>
      </trkpt>
      <trkpt lat="45.39272" lon="4.61222">
        <ele>1412</ele>
        <time>2026-08-18T12:01:05.983Z</time>
      </trkpt>
      <trkpt lat="45.39272" lon="4.61221">
        <ele>1412</ele>
        <time>2026-08-18T12:01:07.992Z</time>
      </trkpt>
      <trkpt lat="45.39272" lon="4.61221">
        <ele>1412</ele>
        <time>2026-08-18T12:01:09.982Z</time>
      </trkpt>
      <trkpt lat="45.39272" lon="4.61221">
        <ele>1412</ele>
        <time>2026-08-18T12:01:10.983Z</time>
      </trkpt>
      <trkpt lat="45.39272" lon="4.61221">
        <ele>1412</ele>
        <time>2026-08-18T12:01:11.985Z</time>
      </trkpt>
      <trkpt lat="45.39272" lon="4.61221">
        <ele>1412</ele>
        <time>2026-08-18T12:01:13.983Z</time>
      </trkpt>
      <trkpt lat="45.39273" lon="4.61221">
        <ele>1412</ele>
        <time>2026-08-18T12:01:14.983Z</time>
      </trkpt>
      <trkpt lat="45.39273" lon="4.61221">
        <ele>1412</ele>
        <time>2026-08-18T12:01:15.983Z</time>
      </trkpt>
      <trkpt lat="45.39273" lon="4.61221">
        <ele>1412</ele>
        <time>2026-08-18T12:01:17.983Z</time>
      </trkpt>
      <trkpt lat="45.39273" lon="4.61221">
        <ele>1412</ele>
        <time>2026-08-18T12:01:18.983Z</time>
      </trkpt>
      <trkpt lat="45.39273" lon="4.61221">
        <ele>1412</ele>
        <time>2026-08-18T12:01:19.983Z</time>
      </trkpt>
      <trkpt lat="45.39273" lon="4.61221">
        <ele>1412</ele>
        <time>2026-08-18T12:01:20.997Z</time>
      </trkpt>
      <trkpt lat="45.39273" lon="4.61221">
        <ele>1412</ele>
        <time>2026-08-18T12:01:22.982Z</time>
      </trkpt>
      <trkpt lat="45.39273" lon="4.61221">
        <ele>1412</ele>
        <time>2026-08-18T12:01:23.983Z</time>
      </trkpt>
      <trkpt lat="45.39273" lon="4.61222">
        <ele>1412</ele>
        <time>2026-08-18T12:01:25.982Z</time>
      </trkpt>
      <trkpt lat="45.39273" lon="4.61222">
        <ele>1412</ele>
        <time>2026-08-18T12:01:26.983Z</time>
      </trkpt>
      <trkpt lat="45.39273" lon="4.61222">
        <ele>1412</ele>
        <time>2026-08-18T12:01:28.983Z</time>
      </trkpt>
      <trkpt lat="45.39273" lon="4.61221">
        <ele>1412</ele>
        <time>2026-08-18T12:01:30.011Z</time>
      </trkpt>
      <trkpt lat="45.39273" lon="4.61221">
        <ele>1412</ele>
        <time>2026-08-18T12:01:31.982Z</time>
      </trkpt>
      <trkpt lat="45.39273" lon="4.61221">
        <ele>1412</ele>
        <time>2026-08-18T12:01:32.983Z</time>
      </trkpt>
      <trkpt lat="45.39273" lon="4.61221">
        <ele>1412</ele>
        <time>2026-08-18T12:01:34.983Z</time>
      </trkpt>
      <trkpt lat="45.39273" lon="4.61221">
        <ele>1412</ele>
        <time>2026-08-18T12:01:35.983Z</time>
      </trkpt>
      <trkpt lat="45.39273" lon="4.61221">
        <ele>1412</ele>
        <time>2026-08-18T12:01:37.997Z</time>
      </trkpt>
      <trkpt lat="45.39273" lon="4.61221">
        <ele>1412</ele>
        <time>2026-08-18T12:01:39.983Z</time>
      </trkpt>
      <trkpt lat="45.39273" lon="4.61221">
        <ele>1412</ele>
        <time>2026-08-18T12:01:40.983Z</time>
      </trkpt>
      <trkpt lat="45.39273" lon="4.61221">
        <ele>1412</ele>
        <time>2026-08-18T12:01:41.990Z</time>
      </trkpt>
      <trkpt lat="45.39273" lon="4.61221">
        <ele>1412</ele>
        <time>2026-08-18T12:01:43.983Z</time>
      </trkpt>
      <trkpt lat="45.39273" lon="4.61221">
        <ele>1412</ele>
        <time>2026-08-18T12:01:44.983Z</time>
      </trkpt>
      <trkpt lat="45.39273" lon="4.61221">
        <ele>1412</ele>
        <time>2026-08-18T12:01:45.983Z</time>
      </trkpt>
      <trkpt lat="45.39273" lon="4.61221">
        <ele>1412</ele>
        <time>2026-08-18T12:01:46.983Z</time>
      </trkpt>
      <trkpt lat="45.39273" lon="4.61221">
        <ele>1412</ele>
        <time>2026-08-18T12:01:47.983Z</time>
      </trkpt>
      <trkpt lat="45.39273" lon="4.61221">
        <ele>1412</ele>
        <time>2026-08-18T12:01:49.983Z</time>
      </trkpt>
      <trkpt lat="45.39273" lon="4.61221">
        <ele>1412</ele>
        <time>2026-08-18T12:01:51.003Z</time>
      </trkpt>
      <trkpt lat="45.39273" lon="4.61221">
        <ele>1412</ele>
        <time>2026-08-18T12:01:52.983Z</time>
      </trkpt>
      <trkpt lat="45.39273" lon="4.61221">
        <ele>1412</ele>
        <time>2026-08-18T12:01:53.983Z</time>
      </trkpt>
      <trkpt lat="45.39273" lon="4.61221">
        <ele>1412</ele>
        <time>2026-08-18T12:01:55.982Z</time>
      </trkpt>
      <trkpt lat="45.39273" lon="4.61221">
        <ele>1412</ele>
        <time>2026-08-18T12:01:56.983Z</time>
      </trkpt>
      <trkpt lat="45.39273" lon="4.61221">
        <ele>1412</ele>
        <time>2026-08-18T12:01:58.988Z</time>
      </trkpt>
      <trkpt lat="45.39273" lon="4.61221">
        <ele>1412</ele>
        <time>2026-08-18T12:02:00.983Z</time>
      </trkpt>
      <trkpt lat="45.39273" lon="4.61221">
        <ele>1411.9</ele>
        <time>2026-08-18T12:02:02.982Z</time>
      </trkpt>
      <trkpt lat="45.39273" lon="4.61221">
        <ele>1411.9</ele>
        <time>2026-08-18T12:02:03.982Z</time>
      </trkpt>
      <trkpt lat="45.39273" lon="4.61221">
        <ele>1411.9</ele>
        <time>2026-08-18T12:02:04.983Z</time>
      </trkpt>
      <trkpt lat="45.39272" lon="4.61221">
        <ele>1411.7</ele>
        <time>2026-08-18T12:02:06.983Z</time>
      </trkpt>
      <trkpt lat="45.39272" lon="4.61221">
        <ele>1411.9</ele>
        <time>2026-08-18T12:02:08.000Z</time>
      </trkpt>
      <trkpt lat="45.39272" lon="4.6122">
        <ele>1411.9</ele>
        <time>2026-08-18T12:02:09.001Z</time>
      </trkpt>
      <trkpt lat="45.39271" lon="4.61217">
        <ele>1412.2</ele>
        <time>2026-08-18T12:02:10.902Z</time>
      </trkpt>
      <trkpt lat="45.3927" lon="4.61216">
        <ele>1413.1</ele>
        <time>2026-08-18T12:02:11.993Z</time>
      </trkpt>
      <trkpt lat="45.39269" lon="4.61213">
        <ele>1413.2</ele>
        <time>2026-08-18T12:02:13.982Z</time>
      </trkpt>
      <trkpt lat="45.39269" lon="4.61212">
        <ele>1413.2</ele>
        <time>2026-08-18T12:02:14.983Z</time>
      </trkpt>
      <trkpt lat="45.39269" lon="4.61211">
        <ele>1413.5</ele>
        <time>2026-08-18T12:02:16.983Z</time>
      </trkpt>
      <trkpt lat="45.39269" lon="4.61211">
        <ele>1413.5</ele>
        <time>2026-08-18T12:02:18.983Z</time>
      </trkpt>
      <trkpt lat="45.39269" lon="4.61211">
        <ele>1413.5</ele>
        <time>2026-08-18T12:02:19.983Z</time>
      </trkpt>
      <trkpt lat="45.39269" lon="4.61211">
        <ele>1413.5</ele>
        <time>2026-08-18T12:02:21.007Z</time>
      </trkpt>
      <trkpt lat="45.39269" lon="4.61211">
        <ele>1413.5</ele>
        <time>2026-08-18T12:02:22.983Z</time>
      </trkpt>
      <trkpt lat="45.39269" lon="4.61211">
        <ele>1413.5</ele>
        <time>2026-08-18T12:02:23.983Z</time>
      </trkpt>
      <trkpt lat="45.39269" lon="4.61211">
        <ele>1414.1</ele>
        <time>2026-08-18T12:02:25.983Z</time>
      </trkpt>
      <trkpt lat="45.39267" lon="4.61212">
        <ele>1414.8</ele>
        <time>2026-08-18T12:02:27.983Z</time>
      </trkpt>
      <trkpt lat="45.39267" lon="4.61212">
        <ele>1414.9</ele>
        <time>2026-08-18T12:02:28.992Z</time>
      </trkpt>
      <trkpt lat="45.39265" lon="4.61214">
        <ele>1414.6</ele>
        <time>2026-08-18T12:02:30.982Z</time>
      </trkpt>
      <trkpt lat="45.39266" lon="4.61214">
        <ele>1414.4</ele>
        <time>2026-08-18T12:02:31.983Z</time>
      </trkpt>
      <trkpt lat="45.39266" lon="4.61214">
        <ele>1414.4</ele>
        <time>2026-08-18T12:02:32.986Z</time>
      </trkpt>
      <trkpt lat="45.39267" lon="4.61215">
        <ele>1414.4</ele>
        <time>2026-08-18T12:02:34.957Z</time>
      </trkpt>
      <trkpt lat="45.39267" lon="4.61215">
        <ele>1414.7</ele>
        <time>2026-08-18T12:02:35.982Z</time>
      </trkpt>
      <trkpt lat="45.39267" lon="4.61215">
        <ele>1413.9</ele>
        <time>2026-08-18T12:02:36.982Z</time>
      </trkpt>
      <trkpt lat="45.39268" lon="4.61215">
        <ele>1413.2</ele>
        <time>2026-08-18T12:02:37.983Z</time>
      </trkpt>
      <trkpt lat="45.39268" lon="4.61214">
        <ele>1412.8</ele>
        <time>2026-08-18T12:02:39.938Z</time>
      </trkpt>
      <trkpt lat="45.39268" lon="4.61214">
        <ele>1410.9</ele>
        <time>2026-08-18T12:02:40.983Z</time>
      </trkpt>
      <trkpt lat="45.39269" lon="4.61214">
        <ele>1411.3</ele>
        <time>2026-08-18T12:02:41.983Z</time>
      </trkpt>
      <trkpt lat="45.39269" lon="4.61214">
        <ele>1411.8</ele>
        <time>2026-08-18T12:02:42.983Z</time>
      </trkpt>
      <trkpt lat="45.39269" lon="4.61214">
        <ele>1411.8</ele>
        <time>2026-08-18T12:02:43.983Z</time>
      </trkpt>
      <trkpt lat="45.39268" lon="4.61213">
        <ele>1412.5</ele>
        <time>2026-08-18T12:02:45.899Z</time>
      </trkpt>
      <trkpt lat="45.39268" lon="4.61213">
        <ele>1412.2</ele>
        <time>2026-08-18T12:02:46.982Z</time>
      </trkpt>
      <trkpt lat="45.39268" lon="4.61213">
        <ele>1412.4</ele>
        <time>2026-08-18T12:02:47.982Z</time>
      </trkpt>
      <trkpt lat="45.39268" lon="4.61214">
        <ele>1413.7</ele>
        <time>2026-08-18T12:02:49.985Z</time>
      </trkpt>
      <trkpt lat="45.39268" lon="4.61212">
        <ele>1413.4</ele>
        <time>2026-08-18T12:02:51.982Z</time>
      </trkpt>
      <trkpt lat="45.39268" lon="4.6121">
        <ele>1413.8</ele>
        <time>2026-08-18T12:02:52.982Z</time>
      </trkpt>
      <trkpt lat="45.39268" lon="4.6121">
        <ele>1413.8</ele>
        <time>2026-08-18T12:02:53.983Z</time>
      </trkpt>
      <trkpt lat="45.39268" lon="4.61209">
        <ele>1413.9</ele>
        <time>2026-08-18T12:02:54.983Z</time>
      </trkpt>
      <trkpt lat="45.39268" lon="4.61209">
        <ele>1413.9</ele>
        <time>2026-08-18T12:02:55.983Z</time>
      </trkpt>
      <trkpt lat="45.39268" lon="4.61209">
        <ele>1413.9</ele>
        <time>2026-08-18T12:02:56.983Z</time>
      </trkpt>
      <trkpt lat="45.39268" lon="4.61208">
        <ele>1413.9</ele>
        <time>2026-08-18T12:02:58.998Z</time>
      </trkpt>
      <trkpt lat="45.39268" lon="4.61208">
        <ele>1413.9</ele>
        <time>2026-08-18T12:03:00.982Z</time>
      </trkpt>
      <trkpt lat="45.39268" lon="4.61208">
        <ele>1413.9</ele>
        <time>2026-08-18T12:03:01.983Z</time>
      </trkpt>
      <trkpt lat="45.39268" lon="4.61208">
        <ele>1413.9</ele>
        <time>2026-08-18T12:03:02.990Z</time>
      </trkpt>
      <trkpt lat="45.39268" lon="4.61207">
        <ele>1413.9</ele>
        <time>2026-08-18T12:03:04.983Z</time>
      </trkpt>
      <trkpt lat="45.39268" lon="4.61207">
        <ele>1413.9</ele>
        <time>2026-08-18T12:03:05.983Z</time>
      </trkpt>
      <trkpt lat="45.39268" lon="4.61207">
        <ele>1413.9</ele>
        <time>2026-08-18T12:03:06.983Z</time>
      </trkpt>
      <trkpt lat="45.39268" lon="4.61207">
        <ele>1413.9</ele>
        <time>2026-08-18T12:03:07.983Z</time>
      </trkpt>
      <trkpt lat="45.39268" lon="4.61207">
        <ele>1413.9</ele>
        <time>2026-08-18T12:03:08.983Z</time>
      </trkpt>
      <trkpt lat="45.39268" lon="4.61207">
        <ele>1413.7</ele>
        <time>2026-08-18T12:03:09.983Z</time>
      </trkpt>
      <trkpt lat="45.39268" lon="4.61206">
        <ele>1413.4</ele>
        <time>2026-08-18T12:03:10.983Z</time>
      </trkpt>
      <trkpt lat="45.39267" lon="4.61206">
        <ele>1413.4</ele>
        <time>2026-08-18T12:03:11.983Z</time>
      </trkpt>
      <trkpt lat="45.39267" lon="4.61203">
        <ele>1413.1</ele>
        <time>2026-08-18T12:03:13.982Z</time>
      </trkpt>
      <trkpt lat="45.39266" lon="4.61202">
        <ele>1412.9</ele>
        <time>2026-08-18T12:03:14.983Z</time>
      </trkpt>
      <trkpt lat="45.39266" lon="4.61201">
        <ele>1412.9</ele>
        <time>2026-08-18T12:03:15.996Z</time>
      </trkpt>
      <trkpt lat="45.39266" lon="4.61198">
        <ele>1413</ele>
        <time>2026-08-18T12:03:17.983Z</time>
      </trkpt>
      <trkpt lat="45.39266" lon="4.61196">
        <ele>1413.1</ele>
        <time>2026-08-18T12:03:18.983Z</time>
      </trkpt>
      <trkpt lat="45.39266" lon="4.61193">
        <ele>1413.4</ele>
        <time>2026-08-18T12:03:20.982Z</time>
      </trkpt>
      <trkpt lat="45.39266" lon="4.61192">
        <ele>1413.6</ele>
        <time>2026-08-18T12:03:21.983Z</time>
      </trkpt>
      <trkpt lat="45.39266" lon="4.6119">
        <ele>1413.8</ele>
        <time>2026-08-18T12:03:23.982Z</time>
      </trkpt>
      <trkpt lat="45.39266" lon="4.61188">
        <ele>1414</ele>
        <time>2026-08-18T12:03:24.983Z</time>
      </trkpt>
      <trkpt lat="45.39266" lon="4.61187">
        <ele>1414.6</ele>
        <time>2026-08-18T12:03:25.983Z</time>
      </trkpt>
      <trkpt lat="45.39266" lon="4.61185">
        <ele>1414.8</ele>
        <time>2026-08-18T12:03:27.983Z</time>
      </trkpt>
      <trkpt lat="45.39266" lon="4.61184">
        <ele>1415</ele>
        <time>2026-08-18T12:03:28.983Z</time>
      </trkpt>
      <trkpt lat="45.39266" lon="4.61183">
        <ele>1415.4</ele>
        <time>2026-08-18T12:03:29.983Z</time>
      </trkpt>
      <trkpt lat="45.39266" lon="4.61182">
        <ele>1415.4</ele>
        <time>2026-08-18T12:03:30.983Z</time>
      </trkpt>
      <trkpt lat="45.39265" lon="4.61181">
        <ele>1415.7</ele>
        <time>2026-08-18T12:03:32.996Z</time>
      </trkpt>
      <trkpt lat="45.39264" lon="4.61178">
        <ele>1415.2</ele>
        <time>2026-08-18T12:03:34.983Z</time>
      </trkpt>
      <trkpt lat="45.39264" lon="4.61178">
        <ele>1415.6</ele>
        <time>2026-08-18T12:03:35.983Z</time>
      </trkpt>
      <trkpt lat="45.39264" lon="4.61177">
        <ele>1415.6</ele>
        <time>2026-08-18T12:03:36.989Z</time>
      </trkpt>
      <trkpt lat="45.39264" lon="4.61176">
        <ele>1416</ele>
        <time>2026-08-18T12:03:38.997Z</time>
      </trkpt>
      <trkpt lat="45.39264" lon="4.61173">
        <ele>1415.2</ele>
        <time>2026-08-18T12:03:40.983Z</time>
      </trkpt>
      <trkpt lat="45.39265" lon="4.61171">
        <ele>1415.1</ele>
        <time>2026-08-18T12:03:41.983Z</time>
      </trkpt>
      <trkpt lat="45.39265" lon="4.6117">
        <ele>1415.1</ele>
        <time>2026-08-18T12:03:43.018Z</time>
      </trkpt>
      <trkpt lat="45.39267" lon="4.61168">
        <ele>1414.9</ele>
        <time>2026-08-18T12:03:44.982Z</time>
      </trkpt>
      <trkpt lat="45.39268" lon="4.61167">
        <ele>1414.6</ele>
        <time>2026-08-18T12:03:46.000Z</time>
      </trkpt>
      <trkpt lat="45.39269" lon="4.61167">
        <ele>1414.4</ele>
        <time>2026-08-18T12:03:47.983Z</time>
      </trkpt>
      <trkpt lat="45.3927" lon="4.61164">
        <ele>1414.6</ele>
        <time>2026-08-18T12:03:49.994Z</time>
      </trkpt>
      <trkpt lat="45.3927" lon="4.61162">
        <ele>1414.7</ele>
        <time>2026-08-18T12:03:51.983Z</time>
      </trkpt>
      <trkpt lat="45.3927" lon="4.61161">
        <ele>1413.8</ele>
        <time>2026-08-18T12:03:52.983Z</time>
      </trkpt>
      <trkpt lat="45.3927" lon="4.6116">
        <ele>1413.8</ele>
        <time>2026-08-18T12:03:53.983Z</time>
      </trkpt>
      <trkpt lat="45.3927" lon="4.61157">
        <ele>1413.1</ele>
        <time>2026-08-18T12:03:55.983Z</time>
      </trkpt>
      <trkpt lat="45.3927" lon="4.61156">
        <ele>1413.1</ele>
        <time>2026-08-18T12:03:57.023Z</time>
      </trkpt>
      <trkpt lat="45.3927" lon="4.61153">
        <ele>1414.5</ele>
        <time>2026-08-18T12:03:58.981Z</time>
      </trkpt>
      <trkpt lat="45.3927" lon="4.61152">
        <ele>1414.4</ele>
        <time>2026-08-18T12:03:59.982Z</time>
      </trkpt>
      <trkpt lat="45.3927" lon="4.6115">
        <ele>1414.7</ele>
        <time>2026-08-18T12:04:00.983Z</time>
      </trkpt>
      <trkpt lat="45.3927" lon="4.61149">
        <ele>1414.8</ele>
        <time>2026-08-18T12:04:01.983Z</time>
      </trkpt>
      <trkpt lat="45.3927" lon="4.61148">
        <ele>1415.2</ele>
        <time>2026-08-18T12:04:03.001Z</time>
      </trkpt>
      <trkpt lat="45.3927" lon="4.61145">
        <ele>1415.3</ele>
        <time>2026-08-18T12:04:04.982Z</time>
      </trkpt>
      <trkpt lat="45.39269" lon="4.61144">
        <ele>1415.6</ele>
        <time>2026-08-18T12:04:05.982Z</time>
      </trkpt>
      <trkpt lat="45.39269" lon="4.61143">
        <ele>1416</ele>
        <time>2026-08-18T12:04:06.994Z</time>
      </trkpt>
      <trkpt lat="45.39269" lon="4.61143">
        <ele>1416.3</ele>
        <time>2026-08-18T12:04:08.982Z</time>
      </trkpt>
      <trkpt lat="45.39269" lon="4.61143">
        <ele>1416.3</ele>
        <time>2026-08-18T12:04:09.982Z</time>
      </trkpt>
      <trkpt lat="45.39268" lon="4.61143">
        <ele>1416.4</ele>
        <time>2026-08-18T12:04:10.987Z</time>
      </trkpt>
      <trkpt lat="45.39269" lon="4.61143">
        <ele>1416.7</ele>
        <time>2026-08-18T12:04:12.918Z</time>
      </trkpt>
      <trkpt lat="45.39269" lon="4.61141">
        <ele>1416.5</ele>
        <time>2026-08-18T12:04:13.982Z</time>
      </trkpt>
      <trkpt lat="45.39269" lon="4.61139">
        <ele>1416.6</ele>
        <time>2026-08-18T12:04:14.983Z</time>
      </trkpt>
      <trkpt lat="45.39269" lon="4.61137">
        <ele>1415.7</ele>
        <time>2026-08-18T12:04:16.007Z</time>
      </trkpt>
      <trkpt lat="45.39269" lon="4.61134">
        <ele>1415.1</ele>
        <time>2026-08-18T12:04:18.015Z</time>
      </trkpt>
      <trkpt lat="45.39269" lon="4.61131">
        <ele>1415.2</ele>
        <time>2026-08-18T12:04:19.983Z</time>
      </trkpt>
      <trkpt lat="45.39269" lon="4.6113">
        <ele>1414.9</ele>
        <time>2026-08-18T12:04:20.983Z</time>
      </trkpt>
      <trkpt lat="45.39268" lon="4.61127">
        <ele>1414.7</ele>
        <time>2026-08-18T12:04:22.982Z</time>
      </trkpt>
      <trkpt lat="45.39268" lon="4.61126">
        <ele>1414</ele>
        <time>2026-08-18T12:04:23.983Z</time>
      </trkpt>
      <trkpt lat="45.39268" lon="4.61123">
        <ele>1415</ele>
        <time>2026-08-18T12:04:25.983Z</time>
      </trkpt>
      <trkpt lat="45.39268" lon="4.61121">
        <ele>1415</ele>
        <time>2026-08-18T12:04:27.985Z</time>
      </trkpt>
      <trkpt lat="45.39267" lon="4.61119">
        <ele>1415.2</ele>
        <time>2026-08-18T12:04:29.981Z</time>
      </trkpt>
      <trkpt lat="45.39267" lon="4.61118">
        <ele>1415</ele>
        <time>2026-08-18T12:04:30.982Z</time>
      </trkpt>
      <trkpt lat="45.39266" lon="4.61116">
        <ele>1415.4</ele>
        <time>2026-08-18T12:04:32.982Z</time>
      </trkpt>
      <trkpt lat="45.39266" lon="4.61115">
        <ele>1415.5</ele>
        <time>2026-08-18T12:04:33.983Z</time>
      </trkpt>
      <trkpt lat="45.39266" lon="4.61113">
        <ele>1414.6</ele>
        <time>2026-08-18T12:04:35.983Z</time>
      </trkpt>
      <trkpt lat="45.39266" lon="4.6111">
        <ele>1415.5</ele>
        <time>2026-08-18T12:04:37.982Z</time>
      </trkpt>
      <trkpt lat="45.39266" lon="4.61107">
        <ele>1415.1</ele>
        <time>2026-08-18T12:04:39.983Z</time>
      </trkpt>
      <trkpt lat="45.39266" lon="4.61105">
        <ele>1414.2</ele>
        <time>2026-08-18T12:04:40.992Z</time>
      </trkpt>
      <trkpt lat="45.39266" lon="4.61103">
        <ele>1413.4</ele>
        <time>2026-08-18T12:04:42.983Z</time>
      </trkpt>
      <trkpt lat="45.39266" lon="4.61101">
        <ele>1413.4</ele>
        <time>2026-08-18T12:04:43.983Z</time>
      </trkpt>
      <trkpt lat="45.39266" lon="4.61098">
        <ele>1412.5</ele>
        <time>2026-08-18T12:04:45.983Z</time>
      </trkpt>
      <trkpt lat="45.39266" lon="4.61095">
        <ele>1413</ele>
        <time>2026-08-18T12:04:47.982Z</time>
      </trkpt>
      <trkpt lat="45.39265" lon="4.61093">
        <ele>1412.5</ele>
        <time>2026-08-18T12:04:49.983Z</time>
      </trkpt>
      <trkpt lat="45.39265" lon="4.61091">
        <ele>1412.4</ele>
        <time>2026-08-18T12:04:50.983Z</time>
      </trkpt>
      <trkpt lat="45.39265" lon="4.61089">
        <ele>1413</ele>
        <time>2026-08-18T12:04:51.983Z</time>
      </trkpt>
      <trkpt lat="45.39265" lon="4.61086">
        <ele>1412.9</ele>
        <time>2026-08-18T12:04:53.983Z</time>
      </trkpt>
      <trkpt lat="45.39265" lon="4.61083">
        <ele>1412</ele>
        <time>2026-08-18T12:04:55.983Z</time>
      </trkpt>
      <trkpt lat="45.39264" lon="4.6108">
        <ele>1411.4</ele>
        <time>2026-08-18T12:04:57.990Z</time>
      </trkpt>
      <trkpt lat="45.39264" lon="4.61077">
        <ele>1411.5</ele>
        <time>2026-08-18T12:05:00.000Z</time>
      </trkpt>
      <trkpt lat="45.39264" lon="4.61074">
        <ele>1410.8</ele>
        <time>2026-08-18T12:05:01.985Z</time>
      </trkpt>
      <trkpt lat="45.39264" lon="4.61071">
        <ele>1410.7</ele>
        <time>2026-08-18T12:05:03.983Z</time>
      </trkpt>
      <trkpt lat="45.39263" lon="4.61069">
        <ele>1410.7</ele>
        <time>2026-08-18T12:05:04.983Z</time>
      </trkpt>
      <trkpt lat="45.39263" lon="4.61067">
        <ele>1413</ele>
        <time>2026-08-18T12:05:06.983Z</time>
      </trkpt>
      <trkpt lat="45.39262" lon="4.61065">
        <ele>1412.7</ele>
        <time>2026-08-18T12:05:08.982Z</time>
      </trkpt>
      <trkpt lat="45.39262" lon="4.61063">
        <ele>1412.9</ele>
        <time>2026-08-18T12:05:09.983Z</time>
      </trkpt>
      <trkpt lat="45.39262" lon="4.61062">
        <ele>1412.3</ele>
        <time>2026-08-18T12:05:10.997Z</time>
      </trkpt>
      <trkpt lat="45.39261" lon="4.6106">
        <ele>1412.1</ele>
        <time>2026-08-18T12:05:12.983Z</time>
      </trkpt>
      <trkpt lat="45.39259" lon="4.61058">
        <ele>1413</ele>
        <time>2026-08-18T12:05:14.983Z</time>
      </trkpt>
      <trkpt lat="45.39259" lon="4.61057">
        <ele>1413.1</ele>
        <time>2026-08-18T12:05:15.983Z</time>
      </trkpt>
      <trkpt lat="45.39258" lon="4.61056">
        <ele>1413.1</ele>
        <time>2026-08-18T12:05:17.018Z</time>
      </trkpt>
      <trkpt lat="45.39256" lon="4.61053">
        <ele>1413</ele>
        <time>2026-08-18T12:05:18.984Z</time>
      </trkpt>
      <trkpt lat="45.39255" lon="4.61051">
        <ele>1413.1</ele>
        <time>2026-08-18T12:05:20.983Z</time>
      </trkpt>
      <trkpt lat="45.39254" lon="4.61048">
        <ele>1413.5</ele>
        <time>2026-08-18T12:05:22.983Z</time>
      </trkpt>
      <trkpt lat="45.39252" lon="4.61046">
        <ele>1413.6</ele>
        <time>2026-08-18T12:05:24.983Z</time>
      </trkpt>
      <trkpt lat="45.39252" lon="4.61046">
        <ele>1412.6</ele>
        <time>2026-08-18T12:05:25.983Z</time>
      </trkpt>
      <trkpt lat="45.3925" lon="4.61044">
        <ele>1411.5</ele>
        <time>2026-08-18T12:05:27.996Z</time>
      </trkpt>
      <trkpt lat="45.39249" lon="4.61044">
        <ele>1411</ele>
        <time>2026-08-18T12:05:29.983Z</time>
      </trkpt>
      <trkpt lat="45.39249" lon="4.61045">
        <ele>1410.9</ele>
        <time>2026-08-18T12:05:30.983Z</time>
      </trkpt>
      <trkpt lat="45.39249" lon="4.61045">
        <ele>1410.9</ele>
        <time>2026-08-18T12:05:31.991Z</time>
      </trkpt>
      <trkpt lat="45.39249" lon="4.61046">
        <ele>1410.9</ele>
        <time>2026-08-18T12:05:33.982Z</time>
      </trkpt>
      <trkpt lat="45.39249" lon="4.61046">
        <ele>1410.9</ele>
        <time>2026-08-18T12:05:34.983Z</time>
      </trkpt>
      <trkpt lat="45.39249" lon="4.61046">
        <ele>1410.7</ele>
        <time>2026-08-18T12:05:35.983Z</time>
      </trkpt>
      <trkpt lat="45.39249" lon="4.61044">
        <ele>1410.9</ele>
        <time>2026-08-18T12:05:37.983Z</time>
      </trkpt>
      <trkpt lat="45.39249" lon="4.61043">
        <ele>1410.8</ele>
        <time>2026-08-18T12:05:38.983Z</time>
      </trkpt>
      <trkpt lat="45.39249" lon="4.61042">
        <ele>1410.8</ele>
        <time>2026-08-18T12:05:39.983Z</time>
      </trkpt>
      <trkpt lat="45.39249" lon="4.6104">
        <ele>1410.5</ele>
        <time>2026-08-18T12:05:41.003Z</time>
      </trkpt>
      <trkpt lat="45.3925" lon="4.61038">
        <ele>1410.3</ele>
        <time>2026-08-18T12:05:42.983Z</time>
      </trkpt>
      <trkpt lat="45.3925" lon="4.61037">
        <ele>1410.1</ele>
        <time>2026-08-18T12:05:43.983Z</time>
      </trkpt>
      <trkpt lat="45.3925" lon="4.61035">
        <ele>1409.9</ele>
        <time>2026-08-18T12:05:45.983Z</time>
      </trkpt>
      <trkpt lat="45.39249" lon="4.61034">
        <ele>1409.9</ele>
        <time>2026-08-18T12:05:46.983Z</time>
      </trkpt>
      <trkpt lat="45.3925" lon="4.61033">
        <ele>1409.9</ele>
        <time>2026-08-18T12:05:47.983Z</time>
      </trkpt>
      <trkpt lat="45.3925" lon="4.61033">
        <ele>1409.9</ele>
        <time>2026-08-18T12:05:48.983Z</time>
      </trkpt>
      <trkpt lat="45.3925" lon="4.61033">
        <ele>1409.9</ele>
        <time>2026-08-18T12:05:49.983Z</time>
      </trkpt>
      <trkpt lat="45.3925" lon="4.61033">
        <ele>1409.9</ele>
        <time>2026-08-18T12:05:52.178Z</time>
      </trkpt>
      <trkpt lat="45.3925" lon="4.61032">
        <ele>1409.7</ele>
        <time>2026-08-18T12:05:53.623Z</time>
      </trkpt>
      <trkpt lat="45.3925" lon="4.6103">
        <ele>1409.7</ele>
        <time>2026-08-18T12:05:54.983Z</time>
      </trkpt>
      <trkpt lat="45.39249" lon="4.61028">
        <ele>1409.8</ele>
        <time>2026-08-18T12:05:55.983Z</time>
      </trkpt>
      <trkpt lat="45.39249" lon="4.61026">
        <ele>1409.5</ele>
        <time>2026-08-18T12:05:56.983Z</time>
      </trkpt>
      <trkpt lat="45.39248" lon="4.61025">
        <ele>1409.5</ele>
        <time>2026-08-18T12:05:57.983Z</time>
      </trkpt>
      <trkpt lat="45.39247" lon="4.61023">
        <ele>1409.1</ele>
        <time>2026-08-18T12:05:59.983Z</time>
      </trkpt>
      <trkpt lat="45.39246" lon="4.61022">
        <ele>1408</ele>
        <time>2026-08-18T12:06:01.982Z</time>
      </trkpt>
      <trkpt lat="45.39246" lon="4.61021">
        <ele>1407.8</ele>
        <time>2026-08-18T12:06:02.982Z</time>
      </trkpt>
      <trkpt lat="45.39246" lon="4.6102">
        <ele>1408</ele>
        <time>2026-08-18T12:06:03.983Z</time>
      </trkpt>
      <trkpt lat="45.39246" lon="4.61019">
        <ele>1408.1</ele>
        <time>2026-08-18T12:06:04.983Z</time>
      </trkpt>
      <trkpt lat="45.39246" lon="4.61018">
        <ele>1407.5</ele>
        <time>2026-08-18T12:06:05.990Z</time>
      </trkpt>
      <trkpt lat="45.39245" lon="4.61016">
        <ele>1407.5</ele>
        <time>2026-08-18T12:06:07.017Z</time>
      </trkpt>
      <trkpt lat="45.39246" lon="4.61014">
        <ele>1406.9</ele>
        <time>2026-08-18T12:06:08.983Z</time>
      </trkpt>
      <trkpt lat="45.39246" lon="4.61011">
        <ele>1407.1</ele>
        <time>2026-08-18T12:06:10.982Z</time>
      </trkpt>
      <trkpt lat="45.39247" lon="4.6101">
        <ele>1406.7</ele>
        <time>2026-08-18T12:06:11.983Z</time>
      </trkpt>
      <trkpt lat="45.39247" lon="4.61008">
        <ele>1406.6</ele>
        <time>2026-08-18T12:06:12.983Z</time>
      </trkpt>
      <trkpt lat="45.39247" lon="4.61006">
        <ele>1406.7</ele>
        <time>2026-08-18T12:06:14.983Z</time>
      </trkpt>
      <trkpt lat="45.39248" lon="4.61003">
        <ele>1406.3</ele>
        <time>2026-08-18T12:06:16.983Z</time>
      </trkpt>
      <trkpt lat="45.39248" lon="4.61002">
        <ele>1405</ele>
        <time>2026-08-18T12:06:18.983Z</time>
      </trkpt>
      <trkpt lat="45.39247" lon="4.61001">
        <ele>1405.3</ele>
        <time>2026-08-18T12:06:19.983Z</time>
      </trkpt>
      <trkpt lat="45.39245" lon="4.61">
        <ele>1405.4</ele>
        <time>2026-08-18T12:06:21.982Z</time>
      </trkpt>
      <trkpt lat="45.39245" lon="4.60999">
        <ele>1404.6</ele>
        <time>2026-08-18T12:06:22.983Z</time>
      </trkpt>
      <trkpt lat="45.39244" lon="4.60998">
        <ele>1404.2</ele>
        <time>2026-08-18T12:06:24.983Z</time>
      </trkpt>
      <trkpt lat="45.39243" lon="4.60998">
        <ele>1403.6</ele>
        <time>2026-08-18T12:06:25.983Z</time>
      </trkpt>
      <trkpt lat="45.39242" lon="4.60997">
        <ele>1403.4</ele>
        <time>2026-08-18T12:06:26.985Z</time>
      </trkpt>
      <trkpt lat="45.39241" lon="4.60996">
        <ele>1403.3</ele>
        <time>2026-08-18T12:06:28.982Z</time>
      </trkpt>
      <trkpt lat="45.39241" lon="4.60995">
        <ele>1402.9</ele>
        <time>2026-08-18T12:06:29.983Z</time>
      </trkpt>
      <trkpt lat="45.3924" lon="4.60994">
        <ele>1403.1</ele>
        <time>2026-08-18T12:06:30.983Z</time>
      </trkpt>
      <trkpt lat="45.39239" lon="4.60994">
        <ele>1403.1</ele>
        <time>2026-08-18T12:06:31.998Z</time>
      </trkpt>
      <trkpt lat="45.39238" lon="4.60993">
        <ele>1402.4</ele>
        <time>2026-08-18T12:06:33.982Z</time>
      </trkpt>
      <trkpt lat="45.39238" lon="4.60993">
        <ele>1402.4</ele>
        <time>2026-08-18T12:06:34.983Z</time>
      </trkpt>
      <trkpt lat="45.39237" lon="4.60992">
        <ele>1402.4</ele>
        <time>2026-08-18T12:06:35.983Z</time>
      </trkpt>
      <trkpt lat="45.39237" lon="4.60991">
        <ele>1402</ele>
        <time>2026-08-18T12:06:36.983Z</time>
      </trkpt>
      <trkpt lat="45.39235" lon="4.60991">
        <ele>1401.6</ele>
        <time>2026-08-18T12:06:38.982Z</time>
      </trkpt>
      <trkpt lat="45.39234" lon="4.6099">
        <ele>1401.4</ele>
        <time>2026-08-18T12:06:39.983Z</time>
      </trkpt>
      <trkpt lat="45.39233" lon="4.6099">
        <ele>1401.4</ele>
        <time>2026-08-18T12:06:40.983Z</time>
      </trkpt>
      <trkpt lat="45.39233" lon="4.60989">
        <ele>1402.1</ele>
        <time>2026-08-18T12:06:41.983Z</time>
      </trkpt>
      <trkpt lat="45.39232" lon="4.60987">
        <ele>1402.2</ele>
        <time>2026-08-18T12:06:43.982Z</time>
      </trkpt>
      <trkpt lat="45.39232" lon="4.60987">
        <ele>1402.2</ele>
        <time>2026-08-18T12:06:44.982Z</time>
      </trkpt>
      <trkpt lat="45.39232" lon="4.60987">
        <ele>1402.2</ele>
        <time>2026-08-18T12:06:45.982Z</time>
      </trkpt>
      <trkpt lat="45.39232" lon="4.60987">
        <ele>1402.2</ele>
        <time>2026-08-18T12:06:46.983Z</time>
      </trkpt>
      <trkpt lat="45.39232" lon="4.60987">
        <ele>1402.2</ele>
        <time>2026-08-18T12:06:48.983Z</time>
      </trkpt>
      <trkpt lat="45.39232" lon="4.60987">
        <ele>1402.2</ele>
        <time>2026-08-18T12:06:50.983Z</time>
      </trkpt>
      <trkpt lat="45.39232" lon="4.60987">
        <ele>1402.2</ele>
        <time>2026-08-18T12:06:51.983Z</time>
      </trkpt>
      <trkpt lat="45.39232" lon="4.60987">
        <ele>1402.2</ele>
        <time>2026-08-18T12:06:53.983Z</time>
      </trkpt>
      <trkpt lat="45.39232" lon="4.60987">
        <ele>1402.2</ele>
        <time>2026-08-18T12:06:54.983Z</time>
      </trkpt>
      <trkpt lat="45.39232" lon="4.60987">
        <ele>1402.1</ele>
        <time>2026-08-18T12:06:56.982Z</time>
      </trkpt>
      <trkpt lat="45.39232" lon="4.60987">
        <ele>1402.1</ele>
        <time>2026-08-18T12:06:57.982Z</time>
      </trkpt>
      <trkpt lat="45.39231" lon="4.60986">
        <ele>1401.7</ele>
        <time>2026-08-18T12:06:59.982Z</time>
      </trkpt>
      <trkpt lat="45.39231" lon="4.60984">
        <ele>1401.7</ele>
        <time>2026-08-18T12:07:01.983Z</time>
      </trkpt>
      <trkpt lat="45.39231" lon="4.6098">
        <ele>1402.2</ele>
        <time>2026-08-18T12:07:03.982Z</time>
      </trkpt>
      <trkpt lat="45.39231" lon="4.60978">
        <ele>1402.1</ele>
        <time>2026-08-18T12:07:04.983Z</time>
      </trkpt>
      <trkpt lat="45.39231" lon="4.60976">
        <ele>1403</ele>
        <time>2026-08-18T12:07:06.983Z</time>
      </trkpt>
      <trkpt lat="45.39231" lon="4.60975">
        <ele>1403</ele>
        <time>2026-08-18T12:07:07.983Z</time>
      </trkpt>
      <trkpt lat="45.39231" lon="4.60975">
        <ele>1403</ele>
        <time>2026-08-18T12:07:09.982Z</time>
      </trkpt>
      <trkpt lat="45.39231" lon="4.60975">
        <ele>1403</ele>
        <time>2026-08-18T12:07:10.982Z</time>
      </trkpt>
      <trkpt lat="45.39231" lon="4.60975">
        <ele>1403</ele>
        <time>2026-08-18T12:07:11.983Z</time>
      </trkpt>
      <trkpt lat="45.39231" lon="4.60975">
        <ele>1402.8</ele>
        <time>2026-08-18T12:07:13.978Z</time>
      </trkpt>
      <trkpt lat="45.3923" lon="4.60974">
        <ele>1402.3</ele>
        <time>2026-08-18T12:07:14.982Z</time>
      </trkpt>
      <trkpt lat="45.3923" lon="4.60974">
        <ele>1401.8</ele>
        <time>2026-08-18T12:07:15.982Z</time>
      </trkpt>
      <trkpt lat="45.39229" lon="4.60973">
        <ele>1401.9</ele>
        <time>2026-08-18T12:07:16.982Z</time>
      </trkpt>
      <trkpt lat="45.39228" lon="4.60973">
        <ele>1401.6</ele>
        <time>2026-08-18T12:07:17.982Z</time>
      </trkpt>
      <trkpt lat="45.39225" lon="4.60974">
        <ele>1401.4</ele>
        <time>2026-08-18T12:07:19.982Z</time>
      </trkpt>
      <trkpt lat="45.39225" lon="4.60975">
        <ele>1401.3</ele>
        <time>2026-08-18T12:07:20.983Z</time>
      </trkpt>
      <trkpt lat="45.39223" lon="4.60976">
        <ele>1400.5</ele>
        <time>2026-08-18T12:07:22.983Z</time>
      </trkpt>
      <trkpt lat="45.39222" lon="4.60977">
        <ele>1400.1</ele>
        <time>2026-08-18T12:07:24.983Z</time>
      </trkpt>
      <trkpt lat="45.39221" lon="4.60977">
        <ele>1399.7</ele>
        <time>2026-08-18T12:07:25.983Z</time>
      </trkpt>
      <trkpt lat="45.39221" lon="4.60976">
        <ele>1399.1</ele>
        <time>2026-08-18T12:07:27.983Z</time>
      </trkpt>
      <trkpt lat="45.3922" lon="4.60976">
        <ele>1399</ele>
        <time>2026-08-18T12:07:29.982Z</time>
      </trkpt>
      <trkpt lat="45.39219" lon="4.60978">
        <ele>1398.8</ele>
        <time>2026-08-18T12:07:31.982Z</time>
      </trkpt>
      <trkpt lat="45.39219" lon="4.60978">
        <ele>1398.5</ele>
        <time>2026-08-18T12:07:32.983Z</time>
      </trkpt>
      <trkpt lat="45.39218" lon="4.60978">
        <ele>1398.5</ele>
        <time>2026-08-18T12:07:33.983Z</time>
      </trkpt>
      <trkpt lat="45.39217" lon="4.60977">
        <ele>1397.2</ele>
        <time>2026-08-18T12:07:35.983Z</time>
      </trkpt>
      <trkpt lat="45.39216" lon="4.60976">
        <ele>1397.1</ele>
        <time>2026-08-18T12:07:37.959Z</time>
      </trkpt>
      <trkpt lat="45.39216" lon="4.60975">
        <ele>1396.9</ele>
        <time>2026-08-18T12:07:38.984Z</time>
      </trkpt>
      <trkpt lat="45.39215" lon="4.60974">
        <ele>1396.1</ele>
        <time>2026-08-18T12:07:40.936Z</time>
      </trkpt>
      <trkpt lat="45.39215" lon="4.60974">
        <ele>1395.8</ele>
        <time>2026-08-18T12:07:41.983Z</time>
      </trkpt>
      <trkpt lat="45.39215" lon="4.60973">
        <ele>1395.4</ele>
        <time>2026-08-18T12:07:42.983Z</time>
      </trkpt>
      <trkpt lat="45.39215" lon="4.60972">
        <ele>1395.2</ele>
        <time>2026-08-18T12:07:44.983Z</time>
      </trkpt>
      <trkpt lat="45.39215" lon="4.60971">
        <ele>1395.3</ele>
        <time>2026-08-18T12:07:45.983Z</time>
      </trkpt>
      <trkpt lat="45.39215" lon="4.6097">
        <ele>1395.5</ele>
        <time>2026-08-18T12:07:46.983Z</time>
      </trkpt>
      <trkpt lat="45.39215" lon="4.60969">
        <ele>1395.1</ele>
        <time>2026-08-18T12:07:47.983Z</time>
      </trkpt>
      <trkpt lat="45.39215" lon="4.60968">
        <ele>1395</ele>
        <time>2026-08-18T12:07:48.983Z</time>
      </trkpt>
      <trkpt lat="45.39214" lon="4.60966">
        <ele>1395.3</ele>
        <time>2026-08-18T12:07:49.983Z</time>
      </trkpt>
      <trkpt lat="45.39214" lon="4.60965">
        <ele>1395</ele>
        <time>2026-08-18T12:07:50.983Z</time>
      </trkpt>
      <trkpt lat="45.39213" lon="4.60965">
        <ele>1395.5</ele>
        <time>2026-08-18T12:07:51.983Z</time>
      </trkpt>
      <trkpt lat="45.39211" lon="4.60964">
        <ele>1394.5</ele>
        <time>2026-08-18T12:07:53.983Z</time>
      </trkpt>
      <trkpt lat="45.39211" lon="4.60961">
        <ele>1394.2</ele>
        <time>2026-08-18T12:07:55.983Z</time>
      </trkpt>
      <trkpt lat="45.39209" lon="4.60959">
        <ele>1393.9</ele>
        <time>2026-08-18T12:07:57.983Z</time>
      </trkpt>
      <trkpt lat="45.39207" lon="4.60958">
        <ele>1393.3</ele>
        <time>2026-08-18T12:07:59.983Z</time>
      </trkpt>
      <trkpt lat="45.39206" lon="4.60954">
        <ele>1392.3</ele>
        <time>2026-08-18T12:08:01.982Z</time>
      </trkpt>
      <trkpt lat="45.39205" lon="4.60953">
        <ele>1392.4</ele>
        <time>2026-08-18T12:08:02.983Z</time>
      </trkpt>
      <trkpt lat="45.39203" lon="4.60952">
        <ele>1392.1</ele>
        <time>2026-08-18T12:08:04.983Z</time>
      </trkpt>
      <trkpt lat="45.39201" lon="4.60949">
        <ele>1391.9</ele>
        <time>2026-08-18T12:08:06.982Z</time>
      </trkpt>
      <trkpt lat="45.392" lon="4.60948">
        <ele>1391.5</ele>
        <time>2026-08-18T12:08:07.982Z</time>
      </trkpt>
      <trkpt lat="45.39199" lon="4.60947">
        <ele>1391.5</ele>
        <time>2026-08-18T12:08:08.995Z</time>
      </trkpt>
      <trkpt lat="45.39198" lon="4.60945">
        <ele>1391.3</ele>
        <time>2026-08-18T12:08:11.003Z</time>
      </trkpt>
      <trkpt lat="45.39197" lon="4.60943">
        <ele>1390.9</ele>
        <time>2026-08-18T12:08:12.894Z</time>
      </trkpt>
      <trkpt lat="45.39196" lon="4.60943">
        <ele>1390.8</ele>
        <time>2026-08-18T12:08:13.982Z</time>
      </trkpt>
      <trkpt lat="45.39196" lon="4.60942">
        <ele>1390.3</ele>
        <time>2026-08-18T12:08:14.982Z</time>
      </trkpt>
      <trkpt lat="45.39196" lon="4.60941">
        <ele>1389.4</ele>
        <time>2026-08-18T12:08:15.983Z</time>
      </trkpt>
      <trkpt lat="45.39195" lon="4.60939">
        <ele>1389.6</ele>
        <time>2026-08-18T12:08:16.983Z</time>
      </trkpt>
      <trkpt lat="45.39195" lon="4.60938">
        <ele>1389.6</ele>
        <time>2026-08-18T12:08:18.000Z</time>
      </trkpt>
      <trkpt lat="45.39193" lon="4.60936">
        <ele>1389.7</ele>
        <time>2026-08-18T12:08:19.978Z</time>
      </trkpt>
      <trkpt lat="45.39192" lon="4.60936">
        <ele>1389.2</ele>
        <time>2026-08-18T12:08:20.983Z</time>
      </trkpt>
      <trkpt lat="45.39192" lon="4.60935">
        <ele>1388.8</ele>
        <time>2026-08-18T12:08:21.983Z</time>
      </trkpt>
      <trkpt lat="45.39191" lon="4.60934">
        <ele>1388.5</ele>
        <time>2026-08-18T12:08:22.983Z</time>
      </trkpt>
      <trkpt lat="45.3919" lon="4.60933">
        <ele>1388.7</ele>
        <time>2026-08-18T12:08:23.983Z</time>
      </trkpt>
      <trkpt lat="45.39189" lon="4.60932">
        <ele>1389</ele>
        <time>2026-08-18T12:08:25.982Z</time>
      </trkpt>
      <trkpt lat="45.39188" lon="4.60931">
        <ele>1388.8</ele>
        <time>2026-08-18T12:08:26.982Z</time>
      </trkpt>
      <trkpt lat="45.39188" lon="4.6093">
        <ele>1388.4</ele>
        <time>2026-08-18T12:08:27.983Z</time>
      </trkpt>
      <trkpt lat="45.39187" lon="4.6093">
        <ele>1388.7</ele>
        <time>2026-08-18T12:08:28.983Z</time>
      </trkpt>
      <trkpt lat="45.39185" lon="4.60928">
        <ele>1388.6</ele>
        <time>2026-08-18T12:08:30.983Z</time>
      </trkpt>
      <trkpt lat="45.39184" lon="4.60927">
        <ele>1387.7</ele>
        <time>2026-08-18T12:08:32.982Z</time>
      </trkpt>
      <trkpt lat="45.39183" lon="4.60926">
        <ele>1387</ele>
        <time>2026-08-18T12:08:33.983Z</time>
      </trkpt>
      <trkpt lat="45.39182" lon="4.60924">
        <ele>1387.2</ele>
        <time>2026-08-18T12:08:35.983Z</time>
      </trkpt>
      <trkpt lat="45.39181" lon="4.60923">
        <ele>1387.2</ele>
        <time>2026-08-18T12:08:37.000Z</time>
      </trkpt>
      <trkpt lat="45.3918" lon="4.60921">
        <ele>1386.8</ele>
        <time>2026-08-18T12:08:38.983Z</time>
      </trkpt>
      <trkpt lat="45.39179" lon="4.60919">
        <ele>1387.1</ele>
        <time>2026-08-18T12:08:40.917Z</time>
      </trkpt>
      <trkpt lat="45.39178" lon="4.60918">
        <ele>1387.3</ele>
        <time>2026-08-18T12:08:41.983Z</time>
      </trkpt>
      <trkpt lat="45.39177" lon="4.60917">
        <ele>1387</ele>
        <time>2026-08-18T12:08:42.998Z</time>
      </trkpt>
      <trkpt lat="45.39176" lon="4.60915">
        <ele>1386.8</ele>
        <time>2026-08-18T12:08:44.921Z</time>
      </trkpt>
      <trkpt lat="45.39175" lon="4.60914">
        <ele>1386.8</ele>
        <time>2026-08-18T12:08:45.983Z</time>
      </trkpt>
      <trkpt lat="45.39175" lon="4.60914">
        <ele>1386.6</ele>
        <time>2026-08-18T12:08:46.983Z</time>
      </trkpt>
      <trkpt lat="45.39174" lon="4.60913">
        <ele>1386.5</ele>
        <time>2026-08-18T12:08:48.982Z</time>
      </trkpt>
      <trkpt lat="45.39174" lon="4.60912">
        <ele>1386.5</ele>
        <time>2026-08-18T12:08:49.982Z</time>
      </trkpt>
      <trkpt lat="45.39173" lon="4.60911">
        <ele>1386.5</ele>
        <time>2026-08-18T12:08:50.984Z</time>
      </trkpt>
      <trkpt lat="45.39173" lon="4.6091">
        <ele>1386.6</ele>
        <time>2026-08-18T12:08:52.983Z</time>
      </trkpt>
      <trkpt lat="45.39172" lon="4.60909">
        <ele>1386.6</ele>
        <time>2026-08-18T12:08:53.983Z</time>
      </trkpt>
      <trkpt lat="45.39172" lon="4.60908">
        <ele>1386.6</ele>
        <time>2026-08-18T12:08:54.983Z</time>
      </trkpt>
      <trkpt lat="45.39171" lon="4.60907">
        <ele>1386.3</ele>
        <time>2026-08-18T12:08:56.981Z</time>
      </trkpt>
      <trkpt lat="45.3917" lon="4.60905">
        <ele>1386.2</ele>
        <time>2026-08-18T12:08:58.982Z</time>
      </trkpt>
      <trkpt lat="45.3917" lon="4.60904">
        <ele>1386.1</ele>
        <time>2026-08-18T12:09:00.000Z</time>
      </trkpt>
      <trkpt lat="45.3917" lon="4.60902">
        <ele>1386</ele>
        <time>2026-08-18T12:09:01.981Z</time>
      </trkpt>
      <trkpt lat="45.39169" lon="4.609">
        <ele>1385.8</ele>
        <time>2026-08-18T12:09:02.982Z</time>
      </trkpt>
      <trkpt lat="45.39169" lon="4.609">
        <ele>1385.7</ele>
        <time>2026-08-18T12:09:03.982Z</time>
      </trkpt>
      <trkpt lat="45.39168" lon="4.60899">
        <ele>1385.6</ele>
        <time>2026-08-18T12:09:04.982Z</time>
      </trkpt>
      <trkpt lat="45.39166" lon="4.60897">
        <ele>1384.8</ele>
        <time>2026-08-18T12:09:06.982Z</time>
      </trkpt>
      <trkpt lat="45.39166" lon="4.60896">
        <ele>1384.9</ele>
        <time>2026-08-18T12:09:07.986Z</time>
      </trkpt>
      <trkpt lat="45.39164" lon="4.60896">
        <ele>1384.8</ele>
        <time>2026-08-18T12:09:09.981Z</time>
      </trkpt>
      <trkpt lat="45.39163" lon="4.60896">
        <ele>1384.7</ele>
        <time>2026-08-18T12:09:10.981Z</time>
      </trkpt>
      <trkpt lat="45.39162" lon="4.60896">
        <ele>1384.5</ele>
        <time>2026-08-18T12:09:11.981Z</time>
      </trkpt>
      <trkpt lat="45.39162" lon="4.60896">
        <ele>1384.4</ele>
        <time>2026-08-18T12:09:12.981Z</time>
      </trkpt>
      <trkpt lat="45.39161" lon="4.60896">
        <ele>1384.5</ele>
        <time>2026-08-18T12:09:13.982Z</time>
      </trkpt>
      <trkpt lat="45.3916" lon="4.60895">
        <ele>1383.7</ele>
        <time>2026-08-18T12:09:15.982Z</time>
      </trkpt>
      <trkpt lat="45.39159" lon="4.60894">
        <ele>1383.9</ele>
        <time>2026-08-18T12:09:16.982Z</time>
      </trkpt>
      <trkpt lat="45.39159" lon="4.60892">
        <ele>1383.6</ele>
        <time>2026-08-18T12:09:18.981Z</time>
      </trkpt>
      <trkpt lat="45.39159" lon="4.60891">
        <ele>1383.8</ele>
        <time>2026-08-18T12:09:19.981Z</time>
      </trkpt>
      <trkpt lat="45.39159" lon="4.60889">
        <ele>1383.8</ele>
        <time>2026-08-18T12:09:20.981Z</time>
      </trkpt>
      <trkpt lat="45.39158" lon="4.60888">
        <ele>1383.7</ele>
        <time>2026-08-18T12:09:21.981Z</time>
      </trkpt>
      <trkpt lat="45.39158" lon="4.60887">
        <ele>1383.7</ele>
        <time>2026-08-18T12:09:22.982Z</time>
      </trkpt>
      <trkpt lat="45.39157" lon="4.60886">
        <ele>1382.9</ele>
        <time>2026-08-18T12:09:24.982Z</time>
      </trkpt>
      <trkpt lat="45.39156" lon="4.60885">
        <ele>1382.1</ele>
        <time>2026-08-18T12:09:26.981Z</time>
      </trkpt>
      <trkpt lat="45.39156" lon="4.60885">
        <ele>1381.8</ele>
        <time>2026-08-18T12:09:27.982Z</time>
      </trkpt>
      <trkpt lat="45.39155" lon="4.60884">
        <ele>1380.7</ele>
        <time>2026-08-18T12:09:29.981Z</time>
      </trkpt>
      <trkpt lat="45.39155" lon="4.60884">
        <ele>1380.4</ele>
        <time>2026-08-18T12:09:30.982Z</time>
      </trkpt>
      <trkpt lat="45.39155" lon="4.60885">
        <ele>1379.9</ele>
        <time>2026-08-18T12:09:32.982Z</time>
      </trkpt>
      <trkpt lat="45.39154" lon="4.60884">
        <ele>1379.5</ele>
        <time>2026-08-18T12:09:34.982Z</time>
      </trkpt>
      <trkpt lat="45.39154" lon="4.60884">
        <ele>1379.7</ele>
        <time>2026-08-18T12:09:35.982Z</time>
      </trkpt>
      <trkpt lat="45.39153" lon="4.60883">
        <ele>1379.7</ele>
        <time>2026-08-18T12:09:36.983Z</time>
      </trkpt>
      <trkpt lat="45.39152" lon="4.60882">
        <ele>1379.5</ele>
        <time>2026-08-18T12:09:38.982Z</time>
      </trkpt>
      <trkpt lat="45.39151" lon="4.60881">
        <ele>1379.6</ele>
        <time>2026-08-18T12:09:40.981Z</time>
      </trkpt>
      <trkpt lat="45.39151" lon="4.60881">
        <ele>1379.7</ele>
        <time>2026-08-18T12:09:41.981Z</time>
      </trkpt>
      <trkpt lat="45.39151" lon="4.6088">
        <ele>1379.5</ele>
        <time>2026-08-18T12:09:42.981Z</time>
      </trkpt>
      <trkpt lat="45.3915" lon="4.6088">
        <ele>1379.7</ele>
        <time>2026-08-18T12:09:43.981Z</time>
      </trkpt>
      <trkpt lat="45.3915" lon="4.60879">
        <ele>1379.9</ele>
        <time>2026-08-18T12:09:44.982Z</time>
      </trkpt>
      <trkpt lat="45.39149" lon="4.60877">
        <ele>1379.2</ele>
        <time>2026-08-18T12:09:46.982Z</time>
      </trkpt>
      <trkpt lat="45.39149" lon="4.60877">
        <ele>1379.2</ele>
        <time>2026-08-18T12:09:47.982Z</time>
      </trkpt>
      <trkpt lat="45.39148" lon="4.60876">
        <ele>1379.2</ele>
        <time>2026-08-18T12:09:48.982Z</time>
      </trkpt>
      <trkpt lat="45.39148" lon="4.60874">
        <ele>1378.7</ele>
        <time>2026-08-18T12:09:50.981Z</time>
      </trkpt>
      <trkpt lat="45.39147" lon="4.60872">
        <ele>1378.8</ele>
        <time>2026-08-18T12:09:52.982Z</time>
      </trkpt>
      <trkpt lat="45.39147" lon="4.60871">
        <ele>1378.8</ele>
        <time>2026-08-18T12:09:53.982Z</time>
      </trkpt>
      <trkpt lat="45.39146" lon="4.6087">
        <ele>1378.8</ele>
        <time>2026-08-18T12:09:54.984Z</time>
      </trkpt>
      <trkpt lat="45.39145" lon="4.60869">
        <ele>1378.3</ele>
        <time>2026-08-18T12:09:56.981Z</time>
      </trkpt>
      <trkpt lat="45.39145" lon="4.60868">
        <ele>1377.9</ele>
        <time>2026-08-18T12:09:57.981Z</time>
      </trkpt>
      <trkpt lat="45.39144" lon="4.60868">
        <ele>1377.5</ele>
        <time>2026-08-18T12:09:58.981Z</time>
      </trkpt>
      <trkpt lat="45.39144" lon="4.60868">
        <ele>1377.3</ele>
        <time>2026-08-18T12:09:59.982Z</time>
      </trkpt>
      <trkpt lat="45.39143" lon="4.60868">
        <ele>1377.4</ele>
        <time>2026-08-18T12:10:00.982Z</time>
      </trkpt>
      <trkpt lat="45.39142" lon="4.60868">
        <ele>1376.9</ele>
        <time>2026-08-18T12:10:01.982Z</time>
      </trkpt>
      <trkpt lat="45.39142" lon="4.60868">
        <ele>1376</ele>
        <time>2026-08-18T12:10:02.987Z</time>
      </trkpt>
      <trkpt lat="45.39141" lon="4.60867">
        <ele>1376.4</ele>
        <time>2026-08-18T12:10:04.981Z</time>
      </trkpt>
      <trkpt lat="45.39141" lon="4.60866">
        <ele>1376.6</ele>
        <time>2026-08-18T12:10:05.981Z</time>
      </trkpt>
      <trkpt lat="45.3914" lon="4.60865">
        <ele>1376.9</ele>
        <time>2026-08-18T12:10:07.982Z</time>
      </trkpt>
      <trkpt lat="45.39139" lon="4.60863">
        <ele>1377.2</ele>
        <time>2026-08-18T12:10:09.982Z</time>
      </trkpt>
      <trkpt lat="45.39139" lon="4.60861">
        <ele>1376.8</ele>
        <time>2026-08-18T12:10:10.982Z</time>
      </trkpt>
      <trkpt lat="45.39139" lon="4.60859">
        <ele>1377</ele>
        <time>2026-08-18T12:10:12.981Z</time>
      </trkpt>
      <trkpt lat="45.39139" lon="4.60858">
        <ele>1376.4</ele>
        <time>2026-08-18T12:10:13.981Z</time>
      </trkpt>
      <trkpt lat="45.39138" lon="4.60857">
        <ele>1375.6</ele>
        <time>2026-08-18T12:10:14.981Z</time>
      </trkpt>
      <trkpt lat="45.39138" lon="4.60856">
        <ele>1376</ele>
        <time>2026-08-18T12:10:15.982Z</time>
      </trkpt>
      <trkpt lat="45.39137" lon="4.60855">
        <ele>1375.2</ele>
        <time>2026-08-18T12:10:17.881Z</time>
      </trkpt>
      <trkpt lat="45.39136" lon="4.60855">
        <ele>1376</ele>
        <time>2026-08-18T12:10:18.982Z</time>
      </trkpt>
      <trkpt lat="45.39135" lon="4.60855">
        <ele>1376.9</ele>
        <time>2026-08-18T12:10:19.990Z</time>
      </trkpt>
      <trkpt lat="45.39134" lon="4.60855">
        <ele>1376.1</ele>
        <time>2026-08-18T12:10:21.982Z</time>
      </trkpt>
      <trkpt lat="45.39133" lon="4.60854">
        <ele>1375.8</ele>
        <time>2026-08-18T12:10:23.984Z</time>
      </trkpt>
      <trkpt lat="45.39133" lon="4.60852">
        <ele>1375</ele>
        <time>2026-08-18T12:10:25.981Z</time>
      </trkpt>
      <trkpt lat="45.39132" lon="4.6085">
        <ele>1374.8</ele>
        <time>2026-08-18T12:10:26.982Z</time>
      </trkpt>
      <trkpt lat="45.39133" lon="4.60849">
        <ele>1374.3</ele>
        <time>2026-08-18T12:10:27.982Z</time>
      </trkpt>
      <trkpt lat="45.39132" lon="4.60847">
        <ele>1374.1</ele>
        <time>2026-08-18T12:10:29.981Z</time>
      </trkpt>
      <trkpt lat="45.39132" lon="4.60846">
        <ele>1374.2</ele>
        <time>2026-08-18T12:10:30.982Z</time>
      </trkpt>
      <trkpt lat="45.39131" lon="4.60844">
        <ele>1373.8</ele>
        <time>2026-08-18T12:10:31.982Z</time>
      </trkpt>
      <trkpt lat="45.3913" lon="4.60841">
        <ele>1373.6</ele>
        <time>2026-08-18T12:10:33.981Z</time>
      </trkpt>
      <trkpt lat="45.3913" lon="4.6084">
        <ele>1373.7</ele>
        <time>2026-08-18T12:10:34.981Z</time>
      </trkpt>
      <trkpt lat="45.39129" lon="4.60839">
        <ele>1373.4</ele>
        <time>2026-08-18T12:10:35.981Z</time>
      </trkpt>
      <trkpt lat="45.39128" lon="4.60838">
        <ele>1373.5</ele>
        <time>2026-08-18T12:10:36.991Z</time>
      </trkpt>
      <trkpt lat="45.39128" lon="4.60834">
        <ele>1373</ele>
        <time>2026-08-18T12:10:38.981Z</time>
      </trkpt>
      <trkpt lat="45.39127" lon="4.60832">
        <ele>1372.8</ele>
        <time>2026-08-18T12:10:39.982Z</time>
      </trkpt>
      <trkpt lat="45.39127" lon="4.60831">
        <ele>1372.8</ele>
        <time>2026-08-18T12:10:40.997Z</time>
      </trkpt>
      <trkpt lat="45.39126" lon="4.60828">
        <ele>1372.4</ele>
        <time>2026-08-18T12:10:42.982Z</time>
      </trkpt>
      <trkpt lat="45.39125" lon="4.60827">
        <ele>1372.1</ele>
        <time>2026-08-18T12:10:43.982Z</time>
      </trkpt>
      <trkpt lat="45.39125" lon="4.60824">
        <ele>1371.5</ele>
        <time>2026-08-18T12:10:45.982Z</time>
      </trkpt>
      <trkpt lat="45.39126" lon="4.60823">
        <ele>1371.3</ele>
        <time>2026-08-18T12:10:46.982Z</time>
      </trkpt>
      <trkpt lat="45.39126" lon="4.6082">
        <ele>1370.4</ele>
        <time>2026-08-18T12:10:48.982Z</time>
      </trkpt>
      <trkpt lat="45.39126" lon="4.60818">
        <ele>1370.8</ele>
        <time>2026-08-18T12:10:49.982Z</time>
      </trkpt>
      <trkpt lat="45.39125" lon="4.60815">
        <ele>1370.8</ele>
        <time>2026-08-18T12:10:51.982Z</time>
      </trkpt>
      <trkpt lat="45.39124" lon="4.60813">
        <ele>1370.6</ele>
        <time>2026-08-18T12:10:52.982Z</time>
      </trkpt>
      <trkpt lat="45.39123" lon="4.6081">
        <ele>1370.5</ele>
        <time>2026-08-18T12:10:54.981Z</time>
      </trkpt>
      <trkpt lat="45.39121" lon="4.60807">
        <ele>1370.3</ele>
        <time>2026-08-18T12:10:56.982Z</time>
      </trkpt>
      <trkpt lat="45.39121" lon="4.60806">
        <ele>1370.5</ele>
        <time>2026-08-18T12:10:57.989Z</time>
      </trkpt>
      <trkpt lat="45.39118" lon="4.60803">
        <ele>1370.4</ele>
        <time>2026-08-18T12:10:59.959Z</time>
      </trkpt>
      <trkpt lat="45.39117" lon="4.60802">
        <ele>1370.5</ele>
        <time>2026-08-18T12:11:00.982Z</time>
      </trkpt>
      <trkpt lat="45.39115" lon="4.608">
        <ele>1371.2</ele>
        <time>2026-08-18T12:11:02.982Z</time>
      </trkpt>
      <trkpt lat="45.39113" lon="4.60798">
        <ele>1371.7</ele>
        <time>2026-08-18T12:11:04.982Z</time>
      </trkpt>
      <trkpt lat="45.39112" lon="4.60797">
        <ele>1371.7</ele>
        <time>2026-08-18T12:11:05.982Z</time>
      </trkpt>
      <trkpt lat="45.39111" lon="4.60796">
        <ele>1371.9</ele>
        <time>2026-08-18T12:11:07.003Z</time>
      </trkpt>
      <trkpt lat="45.3911" lon="4.60794">
        <ele>1371.5</ele>
        <time>2026-08-18T12:11:08.981Z</time>
      </trkpt>
      <trkpt lat="45.39109" lon="4.60793">
        <ele>1371.6</ele>
        <time>2026-08-18T12:11:09.982Z</time>
      </trkpt>
      <trkpt lat="45.39108" lon="4.60792">
        <ele>1371.6</ele>
        <time>2026-08-18T12:11:10.996Z</time>
      </trkpt>
      <trkpt lat="45.39106" lon="4.60791">
        <ele>1371.9</ele>
        <time>2026-08-18T12:11:12.981Z</time>
      </trkpt>
      <trkpt lat="45.39106" lon="4.6079">
        <ele>1372.1</ele>
        <time>2026-08-18T12:11:13.981Z</time>
      </trkpt>
      <trkpt lat="45.39105" lon="4.60789">
        <ele>1372.3</ele>
        <time>2026-08-18T12:11:14.981Z</time>
      </trkpt>
      <trkpt lat="45.39104" lon="4.60788">
        <ele>1372</ele>
        <time>2026-08-18T12:11:15.981Z</time>
      </trkpt>
      <trkpt lat="45.39103" lon="4.60787">
        <ele>1372.2</ele>
        <time>2026-08-18T12:11:16.982Z</time>
      </trkpt>
      <trkpt lat="45.39103" lon="4.60786">
        <ele>1372.9</ele>
        <time>2026-08-18T12:11:17.982Z</time>
      </trkpt>
      <trkpt lat="45.39102" lon="4.60785">
        <ele>1373.5</ele>
        <time>2026-08-18T12:11:18.984Z</time>
      </trkpt>
      <trkpt lat="45.39102" lon="4.60782">
        <ele>1373.3</ele>
        <time>2026-08-18T12:11:20.981Z</time>
      </trkpt>
      <trkpt lat="45.39101" lon="4.60781">
        <ele>1373.5</ele>
        <time>2026-08-18T12:11:21.982Z</time>
      </trkpt>
      <trkpt lat="45.39101" lon="4.60779">
        <ele>1374</ele>
        <time>2026-08-18T12:11:22.982Z</time>
      </trkpt>
      <trkpt lat="45.391" lon="4.60778">
        <ele>1374.3</ele>
        <time>2026-08-18T12:11:23.982Z</time>
      </trkpt>
      <trkpt lat="45.391" lon="4.60777">
        <ele>1374.5</ele>
        <time>2026-08-18T12:11:24.982Z</time>
      </trkpt>
      <trkpt lat="45.39098" lon="4.60775">
        <ele>1374.4</ele>
        <time>2026-08-18T12:11:26.982Z</time>
      </trkpt>
      <trkpt lat="45.39096" lon="4.60773">
        <ele>1374.1</ele>
        <time>2026-08-18T12:11:28.981Z</time>
      </trkpt>
      <trkpt lat="45.39095" lon="4.60771">
        <ele>1374.2</ele>
        <time>2026-08-18T12:11:29.982Z</time>
      </trkpt>
      <trkpt lat="45.39095" lon="4.6077">
        <ele>1374.2</ele>
        <time>2026-08-18T12:11:30.997Z</time>
      </trkpt>
      <trkpt lat="45.39093" lon="4.60768">
        <ele>1374.2</ele>
        <time>2026-08-18T12:11:32.982Z</time>
      </trkpt>
      <trkpt lat="45.39092" lon="4.60766">
        <ele>1374.1</ele>
        <time>2026-08-18T12:11:34.981Z</time>
      </trkpt>
      <trkpt lat="45.39091" lon="4.60765">
        <ele>1374.2</ele>
        <time>2026-08-18T12:11:35.988Z</time>
      </trkpt>
      <trkpt lat="45.39089" lon="4.60763">
        <ele>1374.3</ele>
        <time>2026-08-18T12:11:37.981Z</time>
      </trkpt>
      <trkpt lat="45.39088" lon="4.60762">
        <ele>1374.2</ele>
        <time>2026-08-18T12:11:38.982Z</time>
      </trkpt>
      <trkpt lat="45.39087" lon="4.60761">
        <ele>1374.1</ele>
        <time>2026-08-18T12:11:39.982Z</time>
      </trkpt>
      <trkpt lat="45.39085" lon="4.60759">
        <ele>1372.9</ele>
        <time>2026-08-18T12:11:41.982Z</time>
      </trkpt>
      <trkpt lat="45.39083" lon="4.60756">
        <ele>1373.1</ele>
        <time>2026-08-18T12:11:43.982Z</time>
      </trkpt>
      <trkpt lat="45.39081" lon="4.60755">
        <ele>1373.3</ele>
        <time>2026-08-18T12:11:44.982Z</time>
      </trkpt>
      <trkpt lat="45.39079" lon="4.60753">
        <ele>1373.3</ele>
        <time>2026-08-18T12:11:46.981Z</time>
      </trkpt>
      <trkpt lat="45.39078" lon="4.60751">
        <ele>1373.1</ele>
        <time>2026-08-18T12:11:48.996Z</time>
      </trkpt>
      <trkpt lat="45.39077" lon="4.60749">
        <ele>1372.5</ele>
        <time>2026-08-18T12:11:50.958Z</time>
      </trkpt>
      <trkpt lat="45.39076" lon="4.60748">
        <ele>1373.3</ele>
        <time>2026-08-18T12:11:51.981Z</time>
      </trkpt>
      <trkpt lat="45.39075" lon="4.60748">
        <ele>1373.3</ele>
        <time>2026-08-18T12:11:52.989Z</time>
      </trkpt>
      <trkpt lat="45.39074" lon="4.60747">
        <ele>1373</ele>
        <time>2026-08-18T12:11:54.982Z</time>
      </trkpt>
      <trkpt lat="45.39071" lon="4.60745">
        <ele>1371.3</ele>
        <time>2026-08-18T12:11:56.984Z</time>
      </trkpt>
      <trkpt lat="45.39069" lon="4.60743">
        <ele>1371.7</ele>
        <time>2026-08-18T12:11:58.916Z</time>
      </trkpt>
      <trkpt lat="45.39068" lon="4.60741">
        <ele>1371.4</ele>
        <time>2026-08-18T12:11:59.981Z</time>
      </trkpt>
      <trkpt lat="45.39066" lon="4.60738">
        <ele>1369.6</ele>
        <time>2026-08-18T12:12:01.981Z</time>
      </trkpt>
      <trkpt lat="45.39065" lon="4.60737">
        <ele>1370</ele>
        <time>2026-08-18T12:12:02.992Z</time>
      </trkpt>
      <trkpt lat="45.39064" lon="4.60734">
        <ele>1370.1</ele>
        <time>2026-08-18T12:12:04.982Z</time>
      </trkpt>
      <trkpt lat="45.39063" lon="4.60732">
        <ele>1369</ele>
        <time>2026-08-18T12:12:05.982Z</time>
      </trkpt>
      <trkpt lat="45.39062" lon="4.60731">
        <ele>1368.5</ele>
        <time>2026-08-18T12:12:06.982Z</time>
      </trkpt>
      <trkpt lat="45.39061" lon="4.60729">
        <ele>1368.9</ele>
        <time>2026-08-18T12:12:08.982Z</time>
      </trkpt>
      <trkpt lat="45.3906" lon="4.60727">
        <ele>1368.6</ele>
        <time>2026-08-18T12:12:10.049Z</time>
      </trkpt>
      <trkpt lat="45.39058" lon="4.60725">
        <ele>1367.7</ele>
        <time>2026-08-18T12:12:11.980Z</time>
      </trkpt>
      <trkpt lat="45.39058" lon="4.60723">
        <ele>1366.8</ele>
        <time>2026-08-18T12:12:12.982Z</time>
      </trkpt>
      <trkpt lat="45.39057" lon="4.60722">
        <ele>1366.8</ele>
        <time>2026-08-18T12:12:13.998Z</time>
      </trkpt>
      <trkpt lat="45.39055" lon="4.6072">
        <ele>1365.4</ele>
        <time>2026-08-18T12:12:16.211Z</time>
      </trkpt>
      <trkpt lat="45.39053" lon="4.60718">
        <ele>1365.7</ele>
        <time>2026-08-18T12:12:17.840Z</time>
      </trkpt>
      <trkpt lat="45.39052" lon="4.60716">
        <ele>1363.8</ele>
        <time>2026-08-18T12:12:18.981Z</time>
      </trkpt>
      <trkpt lat="45.39051" lon="4.60715">
        <ele>1362.6</ele>
        <time>2026-08-18T12:12:20.052Z</time>
      </trkpt>
      <trkpt lat="45.39048" lon="4.60712">
        <ele>1359.8</ele>
        <time>2026-08-18T12:12:21.982Z</time>
      </trkpt>
      <trkpt lat="45.39047" lon="4.60711">
        <ele>1359.2</ele>
        <time>2026-08-18T12:12:22.982Z</time>
      </trkpt>
      <trkpt lat="45.39046" lon="4.60707">
        <ele>1357.7</ele>
        <time>2026-08-18T12:12:24.982Z</time>
      </trkpt>
      <trkpt lat="45.39045" lon="4.60706">
        <ele>1357.8</ele>
        <time>2026-08-18T12:12:25.986Z</time>
      </trkpt>
      <trkpt lat="45.39044" lon="4.60703">
        <ele>1357.1</ele>
        <time>2026-08-18T12:12:27.901Z</time>
      </trkpt>
      <trkpt lat="45.39043" lon="4.60702">
        <ele>1357.6</ele>
        <time>2026-08-18T12:12:28.982Z</time>
      </trkpt>
      <trkpt lat="45.39043" lon="4.60701">
        <ele>1358</ele>
        <time>2026-08-18T12:12:29.982Z</time>
      </trkpt>
      <trkpt lat="45.39043" lon="4.607">
        <ele>1357.5</ele>
        <time>2026-08-18T12:12:30.982Z</time>
      </trkpt>
      <trkpt lat="45.39043" lon="4.60699">
        <ele>1357.7</ele>
        <time>2026-08-18T12:12:31.982Z</time>
      </trkpt>
      <trkpt lat="45.39042" lon="4.60699">
        <ele>1358.7</ele>
        <time>2026-08-18T12:12:32.982Z</time>
      </trkpt>
      <trkpt lat="45.39042" lon="4.60699">
        <ele>1360</ele>
        <time>2026-08-18T12:12:33.982Z</time>
      </trkpt>
      <trkpt lat="45.39042" lon="4.60699">
        <ele>1361.1</ele>
        <time>2026-08-18T12:12:34.982Z</time>
      </trkpt>
      <trkpt lat="45.39042" lon="4.60698">
        <ele>1362.5</ele>
        <time>2026-08-18T12:12:35.982Z</time>
      </trkpt>
      <trkpt lat="45.39042" lon="4.60695">
        <ele>1363.4</ele>
        <time>2026-08-18T12:12:37.982Z</time>
      </trkpt>
      <trkpt lat="45.39042" lon="4.60693">
        <ele>1363.3</ele>
        <time>2026-08-18T12:12:38.995Z</time>
      </trkpt>
      <trkpt lat="45.39041" lon="4.6069">
        <ele>1365.9</ele>
        <time>2026-08-18T12:12:40.982Z</time>
      </trkpt>
      <trkpt lat="45.39041" lon="4.60688">
        <ele>1368.5</ele>
        <time>2026-08-18T12:12:42.989Z</time>
      </trkpt>
      <trkpt lat="45.39041" lon="4.60687">
        <ele>1370.5</ele>
        <time>2026-08-18T12:12:44.982Z</time>
      </trkpt>
      <trkpt lat="45.39041" lon="4.60686">
        <ele>1372.3</ele>
        <time>2026-08-18T12:12:45.982Z</time>
      </trkpt>
      <trkpt lat="45.39041" lon="4.60685">
        <ele>1373.9</ele>
        <time>2026-08-18T12:12:46.983Z</time>
      </trkpt>
      <trkpt lat="45.39041" lon="4.60683">
        <ele>1372.2</ele>
        <time>2026-08-18T12:12:48.982Z</time>
      </trkpt>
      <trkpt lat="45.39041" lon="4.60683">
        <ele>1371.3</ele>
        <time>2026-08-18T12:12:49.982Z</time>
      </trkpt>
      <trkpt lat="45.39041" lon="4.60683">
        <ele>1371.5</ele>
        <time>2026-08-18T12:12:51.883Z</time>
      </trkpt>
      <trkpt lat="45.39041" lon="4.60683">
        <ele>1372.4</ele>
        <time>2026-08-18T12:12:52.981Z</time>
      </trkpt>
      <trkpt lat="45.39042" lon="4.60683">
        <ele>1373.1</ele>
        <time>2026-08-18T12:12:53.982Z</time>
      </trkpt>
      <trkpt lat="45.39042" lon="4.60682">
        <ele>1373.3</ele>
        <time>2026-08-18T12:12:55.982Z</time>
      </trkpt>
      <trkpt lat="45.39042" lon="4.60682">
        <ele>1373.6</ele>
        <time>2026-08-18T12:12:56.982Z</time>
      </trkpt>
      <trkpt lat="45.39042" lon="4.60682">
        <ele>1374</ele>
        <time>2026-08-18T12:12:57.982Z</time>
      </trkpt>
      <trkpt lat="45.39042" lon="4.60681">
        <ele>1374.9</ele>
        <time>2026-08-18T12:12:58.982Z</time>
      </trkpt>
      <trkpt lat="45.39042" lon="4.60681">
        <ele>1375.5</ele>
        <time>2026-08-18T12:12:59.991Z</time>
      </trkpt>
      <trkpt lat="45.39042" lon="4.6068">
        <ele>1375.9</ele>
        <time>2026-08-18T12:13:01.982Z</time>
      </trkpt>
      <trkpt lat="45.39042" lon="4.60679">
        <ele>1375.9</ele>
        <time>2026-08-18T12:13:02.998Z</time>
      </trkpt>
      <trkpt lat="45.39042" lon="4.60678">
        <ele>1377</ele>
        <time>2026-08-18T12:13:04.981Z</time>
      </trkpt>
      <trkpt lat="45.39042" lon="4.60678">
        <ele>1377</ele>
        <time>2026-08-18T12:13:05.981Z</time>
      </trkpt>
      <trkpt lat="45.39042" lon="4.60677">
        <ele>1376.9</ele>
        <time>2026-08-18T12:13:06.981Z</time>
      </trkpt>
      <trkpt lat="45.39041" lon="4.60677">
        <ele>1377</ele>
        <time>2026-08-18T12:13:07.982Z</time>
      </trkpt>
      <trkpt lat="45.39041" lon="4.60676">
        <ele>1377.2</ele>
        <time>2026-08-18T12:13:08.982Z</time>
      </trkpt>
      <trkpt lat="45.39041" lon="4.60675">
        <ele>1377.5</ele>
        <time>2026-08-18T12:13:09.982Z</time>
      </trkpt>
      <trkpt lat="45.39041" lon="4.60674">
        <ele>1377.5</ele>
        <time>2026-08-18T12:13:10.982Z</time>
      </trkpt>
      <trkpt lat="45.39041" lon="4.60672">
        <ele>1378.5</ele>
        <time>2026-08-18T12:13:12.982Z</time>
      </trkpt>
      <trkpt lat="45.39041" lon="4.60671">
        <ele>1378.4</ele>
        <time>2026-08-18T12:13:13.982Z</time>
      </trkpt>
      <trkpt lat="45.3904" lon="4.6067">
        <ele>1378.3</ele>
        <time>2026-08-18T12:13:15.981Z</time>
      </trkpt>
      <trkpt lat="45.3904" lon="4.60669">
        <ele>1378.3</ele>
        <time>2026-08-18T12:13:16.982Z</time>
      </trkpt>
      <trkpt lat="45.3904" lon="4.60668">
        <ele>1378.6</ele>
        <time>2026-08-18T12:13:17.982Z</time>
      </trkpt>
      <trkpt lat="45.39039" lon="4.60667">
        <ele>1378.6</ele>
        <time>2026-08-18T12:13:19.982Z</time>
      </trkpt>
      <trkpt lat="45.39039" lon="4.60666">
        <ele>1379.4</ele>
        <time>2026-08-18T12:13:20.988Z</time>
      </trkpt>
      <trkpt lat="45.39038" lon="4.60664">
        <ele>1380.1</ele>
        <time>2026-08-18T12:13:22.982Z</time>
      </trkpt>
      <trkpt lat="45.39038" lon="4.60663">
        <ele>1380.5</ele>
        <time>2026-08-18T12:13:23.982Z</time>
      </trkpt>
      <trkpt lat="45.39038" lon="4.60663">
        <ele>1380.7</ele>
        <time>2026-08-18T12:13:24.982Z</time>
      </trkpt>
      <trkpt lat="45.39038" lon="4.60661">
        <ele>1380.6</ele>
        <time>2026-08-18T12:13:26.962Z</time>
      </trkpt>
      <trkpt lat="45.39038" lon="4.6066">
        <ele>1381.7</ele>
        <time>2026-08-18T12:13:27.982Z</time>
      </trkpt>
      <trkpt lat="45.39038" lon="4.60658">
        <ele>1383.4</ele>
        <time>2026-08-18T12:13:29.982Z</time>
      </trkpt>
      <trkpt lat="45.39037" lon="4.60656">
        <ele>1384.3</ele>
        <time>2026-08-18T12:13:32.002Z</time>
      </trkpt>
      <trkpt lat="45.39036" lon="4.60655">
        <ele>1384.8</ele>
        <time>2026-08-18T12:13:33.982Z</time>
      </trkpt>
      <trkpt lat="45.39035" lon="4.60653">
        <ele>1385.4</ele>
        <time>2026-08-18T12:13:35.981Z</time>
      </trkpt>
      <trkpt lat="45.39035" lon="4.60651">
        <ele>1386.4</ele>
        <time>2026-08-18T12:13:37.935Z</time>
      </trkpt>
      <trkpt lat="45.39035" lon="4.6065">
        <ele>1386.3</ele>
        <time>2026-08-18T12:13:38.981Z</time>
      </trkpt>
      <trkpt lat="45.39035" lon="4.60648">
        <ele>1387.5</ele>
        <time>2026-08-18T12:13:39.982Z</time>
      </trkpt>
      <trkpt lat="45.39035" lon="4.60647">
        <ele>1387.7</ele>
        <time>2026-08-18T12:13:40.982Z</time>
      </trkpt>
      <trkpt lat="45.39035" lon="4.60646">
        <ele>1387.7</ele>
        <time>2026-08-18T12:13:42.013Z</time>
      </trkpt>
      <trkpt lat="45.39035" lon="4.60643">
        <ele>1387.2</ele>
        <time>2026-08-18T12:13:43.982Z</time>
      </trkpt>
      <trkpt lat="45.39034" lon="4.60642">
        <ele>1386.8</ele>
        <time>2026-08-18T12:13:44.982Z</time>
      </trkpt>
      <trkpt lat="45.39034" lon="4.6064">
        <ele>1387.3</ele>
        <time>2026-08-18T12:13:46.981Z</time>
      </trkpt>
      <trkpt lat="45.39033" lon="4.60639">
        <ele>1388</ele>
        <time>2026-08-18T12:13:47.981Z</time>
      </trkpt>
      <trkpt lat="45.39033" lon="4.60637">
        <ele>1387.7</ele>
        <time>2026-08-18T12:13:48.981Z</time>
      </trkpt>
      <trkpt lat="45.39033" lon="4.60636">
        <ele>1386.4</ele>
        <time>2026-08-18T12:13:49.982Z</time>
      </trkpt>
      <trkpt lat="45.39032" lon="4.60635">
        <ele>1386.7</ele>
        <time>2026-08-18T12:13:50.997Z</time>
      </trkpt>
      <trkpt lat="45.39032" lon="4.60633">
        <ele>1387</ele>
        <time>2026-08-18T12:13:52.982Z</time>
      </trkpt>
      <trkpt lat="45.39032" lon="4.60633">
        <ele>1386.3</ele>
        <time>2026-08-18T12:13:53.982Z</time>
      </trkpt>
      <trkpt lat="45.39031" lon="4.60631">
        <ele>1385.3</ele>
        <time>2026-08-18T12:13:54.982Z</time>
      </trkpt>
      <trkpt lat="45.39031" lon="4.6063">
        <ele>1385.2</ele>
        <time>2026-08-18T12:13:55.982Z</time>
      </trkpt>
      <trkpt lat="45.39031" lon="4.60629">
        <ele>1385.6</ele>
        <time>2026-08-18T12:13:56.982Z</time>
      </trkpt>
      <trkpt lat="45.39031" lon="4.60627">
        <ele>1385.9</ele>
        <time>2026-08-18T12:13:58.985Z</time>
      </trkpt>
      <trkpt lat="45.39031" lon="4.60624">
        <ele>1387.2</ele>
        <time>2026-08-18T12:14:00.982Z</time>
      </trkpt>
      <trkpt lat="45.39031" lon="4.60623">
        <ele>1387.2</ele>
        <time>2026-08-18T12:14:01.982Z</time>
      </trkpt>
      <trkpt lat="45.39031" lon="4.60621">
        <ele>1387.9</ele>
        <time>2026-08-18T12:14:03.982Z</time>
      </trkpt>
      <trkpt lat="45.3903" lon="4.6062">
        <ele>1387.9</ele>
        <time>2026-08-18T12:14:04.982Z</time>
      </trkpt>
      <trkpt lat="45.3903" lon="4.60617">
        <ele>1388.6</ele>
        <time>2026-08-18T12:14:06.995Z</time>
      </trkpt>
      <trkpt lat="45.39029" lon="4.60616">
        <ele>1388.5</ele>
        <time>2026-08-18T12:14:08.981Z</time>
      </trkpt>
      <trkpt lat="45.39029" lon="4.60614">
        <ele>1389.4</ele>
        <time>2026-08-18T12:14:10.979Z</time>
      </trkpt>
      <trkpt lat="45.39029" lon="4.60613">
        <ele>1389.6</ele>
        <time>2026-08-18T12:14:11.993Z</time>
      </trkpt>
      <trkpt lat="45.39029" lon="4.60611">
        <ele>1388.4</ele>
        <time>2026-08-18T12:14:13.981Z</time>
      </trkpt>
      <trkpt lat="45.39029" lon="4.60609">
        <ele>1388.1</ele>
        <time>2026-08-18T12:14:14.981Z</time>
      </trkpt>
      <trkpt lat="45.39028" lon="4.60608">
        <ele>1389</ele>
        <time>2026-08-18T12:14:15.981Z</time>
      </trkpt>
      <trkpt lat="45.39028" lon="4.60607">
        <ele>1389</ele>
        <time>2026-08-18T12:14:16.981Z</time>
      </trkpt>
      <trkpt lat="45.39027" lon="4.60606">
        <ele>1388.2</ele>
        <time>2026-08-18T12:14:17.981Z</time>
      </trkpt>
      <trkpt lat="45.39027" lon="4.60605">
        <ele>1387.6</ele>
        <time>2026-08-18T12:14:18.981Z</time>
      </trkpt>
      <trkpt lat="45.39027" lon="4.60602">
        <ele>1388.1</ele>
        <time>2026-08-18T12:14:20.980Z</time>
      </trkpt>
      <trkpt lat="45.39027" lon="4.60601">
        <ele>1387.1</ele>
        <time>2026-08-18T12:14:21.981Z</time>
      </trkpt>
      <trkpt lat="45.39027" lon="4.606">
        <ele>1387.2</ele>
        <time>2026-08-18T12:14:22.981Z</time>
      </trkpt>
      <trkpt lat="45.39027" lon="4.60598">
        <ele>1387.1</ele>
        <time>2026-08-18T12:14:23.981Z</time>
      </trkpt>
      <trkpt lat="45.39027" lon="4.60597">
        <ele>1386.9</ele>
        <time>2026-08-18T12:14:24.981Z</time>
      </trkpt>
      <trkpt lat="45.39026" lon="4.60595">
        <ele>1385.8</ele>
        <time>2026-08-18T12:14:26.980Z</time>
      </trkpt>
      <trkpt lat="45.39026" lon="4.60593">
        <ele>1385.6</ele>
        <time>2026-08-18T12:14:27.980Z</time>
      </trkpt>
      <trkpt lat="45.39027" lon="4.60592">
        <ele>1385.6</ele>
        <time>2026-08-18T12:14:28.996Z</time>
      </trkpt>
      <trkpt lat="45.39027" lon="4.6059">
        <ele>1386.3</ele>
        <time>2026-08-18T12:14:30.981Z</time>
      </trkpt>
      <trkpt lat="45.39027" lon="4.60588">
        <ele>1387.1</ele>
        <time>2026-08-18T12:14:31.981Z</time>
      </trkpt>
      <trkpt lat="45.39027" lon="4.60586">
        <ele>1386.7</ele>
        <time>2026-08-18T12:14:32.990Z</time>
      </trkpt>
      <trkpt lat="45.39027" lon="4.60582">
        <ele>1387.2</ele>
        <time>2026-08-18T12:14:34.981Z</time>
      </trkpt>
      <trkpt lat="45.39027" lon="4.60581">
        <ele>1387.2</ele>
        <time>2026-08-18T12:14:35.981Z</time>
      </trkpt>
      <trkpt lat="45.39027" lon="4.60579">
        <ele>1387.4</ele>
        <time>2026-08-18T12:14:36.982Z</time>
      </trkpt>
      <trkpt lat="45.39027" lon="4.60576">
        <ele>1387.4</ele>
        <time>2026-08-18T12:14:38.954Z</time>
      </trkpt>
      <trkpt lat="45.39027" lon="4.60572">
        <ele>1390.1</ele>
        <time>2026-08-18T12:14:40.981Z</time>
      </trkpt>
      <trkpt lat="45.39027" lon="4.6057">
        <ele>1390.9</ele>
        <time>2026-08-18T12:14:41.981Z</time>
      </trkpt>
      <trkpt lat="45.39027" lon="4.60568">
        <ele>1390.8</ele>
        <time>2026-08-18T12:14:43.980Z</time>
      </trkpt>
      <trkpt lat="45.39026" lon="4.60566">
        <ele>1391.1</ele>
        <time>2026-08-18T12:14:44.981Z</time>
      </trkpt>
      <trkpt lat="45.39026" lon="4.60564">
        <ele>1391</ele>
        <time>2026-08-18T12:14:46.980Z</time>
      </trkpt>
      <trkpt lat="45.39026" lon="4.60563">
        <ele>1391.8</ele>
        <time>2026-08-18T12:14:47.980Z</time>
      </trkpt>
      <trkpt lat="45.39026" lon="4.6056">
        <ele>1390.8</ele>
        <time>2026-08-18T12:14:49.990Z</time>
      </trkpt>
      <trkpt lat="45.39026" lon="4.60558">
        <ele>1392.8</ele>
        <time>2026-08-18T12:14:51.981Z</time>
      </trkpt>
      <trkpt lat="45.39026" lon="4.60556">
        <ele>1394.1</ele>
        <time>2026-08-18T12:14:53.985Z</time>
      </trkpt>
      <trkpt lat="45.39026" lon="4.60554">
        <ele>1394.2</ele>
        <time>2026-08-18T12:14:55.936Z</time>
      </trkpt>
      <trkpt lat="45.39026" lon="4.60554">
        <ele>1394.8</ele>
        <time>2026-08-18T12:14:56.980Z</time>
      </trkpt>
      <trkpt lat="45.39026" lon="4.60552">
        <ele>1395</ele>
        <time>2026-08-18T12:14:57.981Z</time>
      </trkpt>
      <trkpt lat="45.39026" lon="4.60551">
        <ele>1395.2</ele>
        <time>2026-08-18T12:14:58.981Z</time>
      </trkpt>
      <trkpt lat="45.39026" lon="4.60551">
        <ele>1396</ele>
        <time>2026-08-18T12:14:59.981Z</time>
      </trkpt>
      <trkpt lat="45.39025" lon="4.6055">
        <ele>1396.8</ele>
        <time>2026-08-18T12:15:01.979Z</time>
      </trkpt>
      <trkpt lat="45.39025" lon="4.60549">
        <ele>1397.2</ele>
        <time>2026-08-18T12:15:02.980Z</time>
      </trkpt>
      <trkpt lat="45.39025" lon="4.60548">
        <ele>1397.5</ele>
        <time>2026-08-18T12:15:03.980Z</time>
      </trkpt>
      <trkpt lat="45.39025" lon="4.60547">
        <ele>1397.3</ele>
        <time>2026-08-18T12:15:04.980Z</time>
      </trkpt>
      <trkpt lat="45.39026" lon="4.60547">
        <ele>1397.6</ele>
        <time>2026-08-18T12:15:05.981Z</time>
      </trkpt>
      <trkpt lat="45.39026" lon="4.60545">
        <ele>1397.4</ele>
        <time>2026-08-18T12:15:06.993Z</time>
      </trkpt>
      <trkpt lat="45.39026" lon="4.60544">
        <ele>1397.1</ele>
        <time>2026-08-18T12:15:08.980Z</time>
      </trkpt>
      <trkpt lat="45.39026" lon="4.60542">
        <ele>1397.1</ele>
        <time>2026-08-18T12:15:09.980Z</time>
      </trkpt>
      <trkpt lat="45.39025" lon="4.60541">
        <ele>1397.1</ele>
        <time>2026-08-18T12:15:10.999Z</time>
      </trkpt>
      <trkpt lat="45.39025" lon="4.60539">
        <ele>1397.5</ele>
        <time>2026-08-18T12:15:12.981Z</time>
      </trkpt>
      <trkpt lat="45.39025" lon="4.60537">
        <ele>1397.4</ele>
        <time>2026-08-18T12:15:14.981Z</time>
      </trkpt>
      <trkpt lat="45.39024" lon="4.60535">
        <ele>1397.7</ele>
        <time>2026-08-18T12:15:16.960Z</time>
      </trkpt>
      <trkpt lat="45.39025" lon="4.60533">
        <ele>1397.3</ele>
        <time>2026-08-18T12:15:17.980Z</time>
      </trkpt>
      <trkpt lat="45.39025" lon="4.60532">
        <ele>1397.5</ele>
        <time>2026-08-18T12:15:18.981Z</time>
      </trkpt>
      <trkpt lat="45.39025" lon="4.6053">
        <ele>1397.2</ele>
        <time>2026-08-18T12:15:20.981Z</time>
      </trkpt>
      <trkpt lat="45.39025" lon="4.60527">
        <ele>1396.8</ele>
        <time>2026-08-18T12:15:23.018Z</time>
      </trkpt>
      <trkpt lat="45.39025" lon="4.60525">
        <ele>1397.6</ele>
        <time>2026-08-18T12:15:24.980Z</time>
      </trkpt>
      <trkpt lat="45.39025" lon="4.60523">
        <ele>1397.3</ele>
        <time>2026-08-18T12:15:25.981Z</time>
      </trkpt>
      <trkpt lat="45.39025" lon="4.60522">
        <ele>1397.7</ele>
        <time>2026-08-18T12:15:26.981Z</time>
      </trkpt>
      <trkpt lat="45.39024" lon="4.60521">
        <ele>1397.7</ele>
        <time>2026-08-18T12:15:27.988Z</time>
      </trkpt>
      <trkpt lat="45.39024" lon="4.60519">
        <ele>1397.8</ele>
        <time>2026-08-18T12:15:29.016Z</time>
      </trkpt>
      <trkpt lat="45.39024" lon="4.60517">
        <ele>1400</ele>
        <time>2026-08-18T12:15:30.981Z</time>
      </trkpt>
      <trkpt lat="45.39024" lon="4.60516">
        <ele>1399.6</ele>
        <time>2026-08-18T12:15:31.983Z</time>
      </trkpt>
      <trkpt lat="45.39023" lon="4.60514">
        <ele>1399.2</ele>
        <time>2026-08-18T12:15:33.980Z</time>
      </trkpt>
      <trkpt lat="45.39023" lon="4.60513">
        <ele>1399.1</ele>
        <time>2026-08-18T12:15:34.981Z</time>
      </trkpt>
      <trkpt lat="45.39023" lon="4.60511">
        <ele>1400.7</ele>
        <time>2026-08-18T12:15:36.981Z</time>
      </trkpt>
      <trkpt lat="45.39023" lon="4.6051">
        <ele>1401</ele>
        <time>2026-08-18T12:15:37.981Z</time>
      </trkpt>
      <trkpt lat="45.39024" lon="4.60508">
        <ele>1401.1</ele>
        <time>2026-08-18T12:15:39.981Z</time>
      </trkpt>
      <trkpt lat="45.39024" lon="4.60507">
        <ele>1402.1</ele>
        <time>2026-08-18T12:15:40.997Z</time>
      </trkpt>
      <trkpt lat="45.39024" lon="4.60505">
        <ele>1402.1</ele>
        <time>2026-08-18T12:15:42.017Z</time>
      </trkpt>
      <trkpt lat="45.39024" lon="4.60503">
        <ele>1403.3</ele>
        <time>2026-08-18T12:15:43.981Z</time>
      </trkpt>
      <trkpt lat="45.39024" lon="4.605">
        <ele>1404.5</ele>
        <time>2026-08-18T12:15:45.981Z</time>
      </trkpt>
      <trkpt lat="45.39025" lon="4.60499">
        <ele>1404.7</ele>
        <time>2026-08-18T12:15:46.981Z</time>
      </trkpt>
      <trkpt lat="45.39025" lon="4.60496">
        <ele>1404.9</ele>
        <time>2026-08-18T12:15:48.984Z</time>
      </trkpt>
      <trkpt lat="45.39026" lon="4.60494">
        <ele>1405</ele>
        <time>2026-08-18T12:15:50.974Z</time>
      </trkpt>
      <trkpt lat="45.39026" lon="4.60492">
        <ele>1405.4</ele>
        <time>2026-08-18T12:15:51.980Z</time>
      </trkpt>
      <trkpt lat="45.39026" lon="4.60491">
        <ele>1405.7</ele>
        <time>2026-08-18T12:15:52.981Z</time>
      </trkpt>
      <trkpt lat="45.39026" lon="4.60489">
        <ele>1406.2</ele>
        <time>2026-08-18T12:15:53.981Z</time>
      </trkpt>
      <trkpt lat="45.39027" lon="4.60487">
        <ele>1406.7</ele>
        <time>2026-08-18T12:15:55.981Z</time>
      </trkpt>
      <trkpt lat="45.39027" lon="4.60484">
        <ele>1407</ele>
        <time>2026-08-18T12:15:57.981Z</time>
      </trkpt>
      <trkpt lat="45.39027" lon="4.60482">
        <ele>1407.4</ele>
        <time>2026-08-18T12:15:58.981Z</time>
      </trkpt>
      <trkpt lat="45.39027" lon="4.60481">
        <ele>1408.4</ele>
        <time>2026-08-18T12:15:59.981Z</time>
      </trkpt>
      <trkpt lat="45.39027" lon="4.60479">
        <ele>1408.7</ele>
        <time>2026-08-18T12:16:01.992Z</time>
      </trkpt>
      <trkpt lat="45.39028" lon="4.60477">
        <ele>1408.8</ele>
        <time>2026-08-18T12:16:03.979Z</time>
      </trkpt>
      <trkpt lat="45.39028" lon="4.60477">
        <ele>1408.8</ele>
        <time>2026-08-18T12:16:04.979Z</time>
      </trkpt>
      <trkpt lat="45.39028" lon="4.60478">
        <ele>1408.3</ele>
        <time>2026-08-18T12:16:05.981Z</time>
      </trkpt>
      <trkpt lat="45.39028" lon="4.60478">
        <ele>1408.4</ele>
        <time>2026-08-18T12:16:07.981Z</time>
      </trkpt>
      <trkpt lat="45.39028" lon="4.60478">
        <ele>1408.4</ele>
        <time>2026-08-18T12:16:08.981Z</time>
      </trkpt>
      <trkpt lat="45.39028" lon="4.60478">
        <ele>1408.4</ele>
        <time>2026-08-18T12:16:09.981Z</time>
      </trkpt>
      <trkpt lat="45.39028" lon="4.60478">
        <ele>1408.4</ele>
        <time>2026-08-18T12:16:10.981Z</time>
      </trkpt>
      <trkpt lat="45.39028" lon="4.60478">
        <ele>1408.4</ele>
        <time>2026-08-18T12:16:11.981Z</time>
      </trkpt>
      <trkpt lat="45.39028" lon="4.60478">
        <ele>1408.7</ele>
        <time>2026-08-18T12:16:12.981Z</time>
      </trkpt>
      <trkpt lat="45.39028" lon="4.60478">
        <ele>1409</ele>
        <time>2026-08-18T12:16:13.981Z</time>
      </trkpt>
      <trkpt lat="45.39028" lon="4.60478">
        <ele>1408.5</ele>
        <time>2026-08-18T12:16:14.981Z</time>
      </trkpt>
      <trkpt lat="45.39028" lon="4.60475">
        <ele>1407.8</ele>
        <time>2026-08-18T12:16:16.980Z</time>
      </trkpt>
      <trkpt lat="45.39028" lon="4.60475">
        <ele>1407.6</ele>
        <time>2026-08-18T12:16:17.981Z</time>
      </trkpt>
      <trkpt lat="45.39028" lon="4.60475">
        <ele>1407.6</ele>
        <time>2026-08-18T12:16:18.993Z</time>
      </trkpt>
      <trkpt lat="45.39029" lon="4.60475">
        <ele>1407.6</ele>
        <time>2026-08-18T12:16:20.980Z</time>
      </trkpt>
      <trkpt lat="45.39029" lon="4.60474">
        <ele>1407.8</ele>
        <time>2026-08-18T12:16:21.980Z</time>
      </trkpt>
      <trkpt lat="45.39029" lon="4.60474">
        <ele>1408.2</ele>
        <time>2026-08-18T12:16:22.988Z</time>
      </trkpt>
      <trkpt lat="45.3903" lon="4.60473">
        <ele>1408.6</ele>
        <time>2026-08-18T12:16:24.980Z</time>
      </trkpt>
      <trkpt lat="45.3903" lon="4.60472">
        <ele>1409.5</ele>
        <time>2026-08-18T12:16:25.981Z</time>
      </trkpt>
      <trkpt lat="45.3903" lon="4.60471">
        <ele>1409.4</ele>
        <time>2026-08-18T12:16:26.982Z</time>
      </trkpt>
      <trkpt lat="45.39031" lon="4.60468">
        <ele>1409</ele>
        <time>2026-08-18T12:16:28.980Z</time>
      </trkpt>
      <trkpt lat="45.39032" lon="4.60465">
        <ele>1409.5</ele>
        <time>2026-08-18T12:16:29.981Z</time>
      </trkpt>
      <trkpt lat="45.39031" lon="4.60463">
        <ele>1408.8</ele>
        <time>2026-08-18T12:16:30.981Z</time>
      </trkpt>
      <trkpt lat="45.39031" lon="4.60461">
        <ele>1408.8</ele>
        <time>2026-08-18T12:16:31.994Z</time>
      </trkpt>
      <trkpt lat="45.39031" lon="4.60459">
        <ele>1409.4</ele>
        <time>2026-08-18T12:16:33.981Z</time>
      </trkpt>
      <trkpt lat="45.39032" lon="4.60457">
        <ele>1409.1</ele>
        <time>2026-08-18T12:16:35.981Z</time>
      </trkpt>
      <trkpt lat="45.39032" lon="4.60455">
        <ele>1408.7</ele>
        <time>2026-08-18T12:16:37.900Z</time>
      </trkpt>
      <trkpt lat="45.39032" lon="4.60455">
        <ele>1407.8</ele>
        <time>2026-08-18T12:16:38.981Z</time>
      </trkpt>
      <trkpt lat="45.39032" lon="4.60453">
        <ele>1407.4</ele>
        <time>2026-08-18T12:16:39.989Z</time>
      </trkpt>
      <trkpt lat="45.39032" lon="4.60451">
        <ele>1407.7</ele>
        <time>2026-08-18T12:16:41.980Z</time>
      </trkpt>
      <trkpt lat="45.39032" lon="4.60448">
        <ele>1408.9</ele>
        <time>2026-08-18T12:16:43.983Z</time>
      </trkpt>
      <trkpt lat="45.39033" lon="4.60446">
        <ele>1408.2</ele>
        <time>2026-08-18T12:16:45.980Z</time>
      </trkpt>
      <trkpt lat="45.39033" lon="4.60444">
        <ele>1408.2</ele>
        <time>2026-08-18T12:16:46.981Z</time>
      </trkpt>
      <trkpt lat="45.39034" lon="4.60442">
        <ele>1408.2</ele>
        <time>2026-08-18T12:16:47.981Z</time>
      </trkpt>
      <trkpt lat="45.39035" lon="4.60438">
        <ele>1409.1</ele>
        <time>2026-08-18T12:16:49.980Z</time>
      </trkpt>
      <trkpt lat="45.39036" lon="4.60437">
        <ele>1409.2</ele>
        <time>2026-08-18T12:16:50.981Z</time>
      </trkpt>
      <trkpt lat="45.39036" lon="4.60435">
        <ele>1411.5</ele>
        <time>2026-08-18T12:16:51.981Z</time>
      </trkpt>
      <trkpt lat="45.39037" lon="4.60434">
        <ele>1411.6</ele>
        <time>2026-08-18T12:16:52.981Z</time>
      </trkpt>
      <trkpt lat="45.39037" lon="4.60432">
        <ele>1412</ele>
        <time>2026-08-18T12:16:53.981Z</time>
      </trkpt>
      <trkpt lat="45.39038" lon="4.60431">
        <ele>1412</ele>
        <time>2026-08-18T12:16:54.981Z</time>
      </trkpt>
      <trkpt lat="45.39038" lon="4.60428">
        <ele>1412</ele>
        <time>2026-08-18T12:16:56.990Z</time>
      </trkpt>
      <trkpt lat="45.39039" lon="4.60425">
        <ele>1411.7</ele>
        <time>2026-08-18T12:16:58.981Z</time>
      </trkpt>
      <trkpt lat="45.39039" lon="4.60423">
        <ele>1411.6</ele>
        <time>2026-08-18T12:16:59.981Z</time>
      </trkpt>
      <trkpt lat="45.3904" lon="4.60422">
        <ele>1411.6</ele>
        <time>2026-08-18T12:17:00.985Z</time>
      </trkpt>
      <trkpt lat="45.39041" lon="4.60419">
        <ele>1412.2</ele>
        <time>2026-08-18T12:17:02.981Z</time>
      </trkpt>
      <trkpt lat="45.39041" lon="4.60416">
        <ele>1411.4</ele>
        <time>2026-08-18T12:17:04.981Z</time>
      </trkpt>
      <trkpt lat="45.39042" lon="4.60413">
        <ele>1410.4</ele>
        <time>2026-08-18T12:17:06.981Z</time>
      </trkpt>
      <trkpt lat="45.39042" lon="4.60411">
        <ele>1410.6</ele>
        <time>2026-08-18T12:17:07.981Z</time>
      </trkpt>
      <trkpt lat="45.39042" lon="4.60408">
        <ele>1410.5</ele>
        <time>2026-08-18T12:17:09.983Z</time>
      </trkpt>
      <trkpt lat="45.39043" lon="4.60405">
        <ele>1411.7</ele>
        <time>2026-08-18T12:17:11.981Z</time>
      </trkpt>
      <trkpt lat="45.39044" lon="4.60402">
        <ele>1412.6</ele>
        <time>2026-08-18T12:17:13.993Z</time>
      </trkpt>
      <trkpt lat="45.39044" lon="4.60399">
        <ele>1413.1</ele>
        <time>2026-08-18T12:17:15.981Z</time>
      </trkpt>
      <trkpt lat="45.39044" lon="4.60396">
        <ele>1413.8</ele>
        <time>2026-08-18T12:17:17.987Z</time>
      </trkpt>
      <trkpt lat="45.39045" lon="4.60393">
        <ele>1413.2</ele>
        <time>2026-08-18T12:17:19.980Z</time>
      </trkpt>
      <trkpt lat="45.39045" lon="4.60392">
        <ele>1413.1</ele>
        <time>2026-08-18T12:17:20.980Z</time>
      </trkpt>
      <trkpt lat="45.39045" lon="4.60391">
        <ele>1413</ele>
        <time>2026-08-18T12:17:21.981Z</time>
      </trkpt>
      <trkpt lat="45.39045" lon="4.60388">
        <ele>1413.1</ele>
        <time>2026-08-18T12:17:23.981Z</time>
      </trkpt>
      <trkpt lat="45.39046" lon="4.60387">
        <ele>1411.6</ele>
        <time>2026-08-18T12:17:24.981Z</time>
      </trkpt>
      <trkpt lat="45.39047" lon="4.60385">
        <ele>1410.8</ele>
        <time>2026-08-18T12:17:26.955Z</time>
      </trkpt>
      <trkpt lat="45.39047" lon="4.60384">
        <ele>1410.9</ele>
        <time>2026-08-18T12:17:27.981Z</time>
      </trkpt>
      <trkpt lat="45.39048" lon="4.60383">
        <ele>1410.9</ele>
        <time>2026-08-18T12:17:28.981Z</time>
      </trkpt>
      <trkpt lat="45.39049" lon="4.6038">
        <ele>1411.7</ele>
        <time>2026-08-18T12:17:30.995Z</time>
      </trkpt>
      <trkpt lat="45.3905" lon="4.60379">
        <ele>1410.2</ele>
        <time>2026-08-18T12:17:32.980Z</time>
      </trkpt>
      <trkpt lat="45.39052" lon="4.60377">
        <ele>1410.5</ele>
        <time>2026-08-18T12:17:34.980Z</time>
      </trkpt>
      <trkpt lat="45.39052" lon="4.60376">
        <ele>1410.5</ele>
        <time>2026-08-18T12:17:35.981Z</time>
      </trkpt>
      <trkpt lat="45.39053" lon="4.60375">
        <ele>1410.7</ele>
        <time>2026-08-18T12:17:36.981Z</time>
      </trkpt>
      <trkpt lat="45.39053" lon="4.60373">
        <ele>1410.8</ele>
        <time>2026-08-18T12:17:37.981Z</time>
      </trkpt>
      <trkpt lat="45.39054" lon="4.60372">
        <ele>1410.6</ele>
        <time>2026-08-18T12:17:38.982Z</time>
      </trkpt>
      <trkpt lat="45.39055" lon="4.60369">
        <ele>1410.7</ele>
        <time>2026-08-18T12:17:40.981Z</time>
      </trkpt>
      <trkpt lat="45.39055" lon="4.60368">
        <ele>1410.7</ele>
        <time>2026-08-18T12:17:41.981Z</time>
      </trkpt>
      <trkpt lat="45.39056" lon="4.60366">
        <ele>1410.7</ele>
        <time>2026-08-18T12:17:42.981Z</time>
      </trkpt>
      <trkpt lat="45.39056" lon="4.60365">
        <ele>1410.4</ele>
        <time>2026-08-18T12:17:43.981Z</time>
      </trkpt>
      <trkpt lat="45.39057" lon="4.60362">
        <ele>1409.8</ele>
        <time>2026-08-18T12:17:45.981Z</time>
      </trkpt>
      <trkpt lat="45.39058" lon="4.6036">
        <ele>1409.8</ele>
        <time>2026-08-18T12:17:46.981Z</time>
      </trkpt>
      <trkpt lat="45.39059" lon="4.60357">
        <ele>1410.1</ele>
        <time>2026-08-18T12:17:48.981Z</time>
      </trkpt>
      <trkpt lat="45.39059" lon="4.60354">
        <ele>1410.9</ele>
        <time>2026-08-18T12:17:50.980Z</time>
      </trkpt>
      <trkpt lat="45.39059" lon="4.60353">
        <ele>1410.5</ele>
        <time>2026-08-18T12:17:51.990Z</time>
      </trkpt>
      <trkpt lat="45.39059" lon="4.60351">
        <ele>1411.6</ele>
        <time>2026-08-18T12:17:53.980Z</time>
      </trkpt>
      <trkpt lat="45.3906" lon="4.60349">
        <ele>1412.3</ele>
        <time>2026-08-18T12:17:54.980Z</time>
      </trkpt>
      <trkpt lat="45.3906" lon="4.60348">
        <ele>1411.7</ele>
        <time>2026-08-18T12:17:55.984Z</time>
      </trkpt>
      <trkpt lat="45.3906" lon="4.60344">
        <ele>1412.5</ele>
        <time>2026-08-18T12:17:57.980Z</time>
      </trkpt>
      <trkpt lat="45.3906" lon="4.60343">
        <ele>1412.1</ele>
        <time>2026-08-18T12:17:58.981Z</time>
      </trkpt>
      <trkpt lat="45.3906" lon="4.60341">
        <ele>1411.3</ele>
        <time>2026-08-18T12:17:59.981Z</time>
      </trkpt>
      <trkpt lat="45.3906" lon="4.6034">
        <ele>1411.6</ele>
        <time>2026-08-18T12:18:00.981Z</time>
      </trkpt>
      <trkpt lat="45.3906" lon="4.60338">
        <ele>1411.8</ele>
        <time>2026-08-18T12:18:01.981Z</time>
      </trkpt>
      <trkpt lat="45.3906" lon="4.60337">
        <ele>1411.5</ele>
        <time>2026-08-18T12:18:02.981Z</time>
      </trkpt>
      <trkpt lat="45.3906" lon="4.60336">
        <ele>1411.7</ele>
        <time>2026-08-18T12:18:03.981Z</time>
      </trkpt>
      <trkpt lat="45.3906" lon="4.60335">
        <ele>1412.5</ele>
        <time>2026-08-18T12:18:04.981Z</time>
      </trkpt>
      <trkpt lat="45.3906" lon="4.60335">
        <ele>1412.5</ele>
        <time>2026-08-18T12:18:05.981Z</time>
      </trkpt>
      <trkpt lat="45.39059" lon="4.60335">
        <ele>1412.5</ele>
        <time>2026-08-18T12:18:06.981Z</time>
      </trkpt>
      <trkpt lat="45.39059" lon="4.60335">
        <ele>1412.5</ele>
        <time>2026-08-18T12:18:07.981Z</time>
      </trkpt>
      <trkpt lat="45.39059" lon="4.60336">
        <ele>1412.5</ele>
        <time>2026-08-18T12:18:08.981Z</time>
      </trkpt>
      <trkpt lat="45.39059" lon="4.60336">
        <ele>1412.5</ele>
        <time>2026-08-18T12:18:10.981Z</time>
      </trkpt>
      <trkpt lat="45.3906" lon="4.60336">
        <ele>1412.5</ele>
        <time>2026-08-18T12:18:12.981Z</time>
      </trkpt>
      <trkpt lat="45.3906" lon="4.60336">
        <ele>1412.5</ele>
        <time>2026-08-18T12:18:13.981Z</time>
      </trkpt>
      <trkpt lat="45.3906" lon="4.60336">
        <ele>1412.4</ele>
        <time>2026-08-18T12:18:15.981Z</time>
      </trkpt>
      <trkpt lat="45.3906" lon="4.60336">
        <ele>1412.5</ele>
        <time>2026-08-18T12:18:16.981Z</time>
      </trkpt>
      <trkpt lat="45.39059" lon="4.60333">
        <ele>1411.6</ele>
        <time>2026-08-18T12:18:18.980Z</time>
      </trkpt>
      <trkpt lat="45.39059" lon="4.60331">
        <ele>1411.5</ele>
        <time>2026-08-18T12:18:19.980Z</time>
      </trkpt>
      <trkpt lat="45.3906" lon="4.60329">
        <ele>1411.6</ele>
        <time>2026-08-18T12:18:20.980Z</time>
      </trkpt>
      <trkpt lat="45.39061" lon="4.60328">
        <ele>1411.5</ele>
        <time>2026-08-18T12:18:21.980Z</time>
      </trkpt>
      <trkpt lat="45.39061" lon="4.60327">
        <ele>1412</ele>
        <time>2026-08-18T12:18:22.981Z</time>
      </trkpt>
      <trkpt lat="45.39061" lon="4.60324">
        <ele>1412.3</ele>
        <time>2026-08-18T12:18:24.979Z</time>
      </trkpt>
      <trkpt lat="45.39062" lon="4.60322">
        <ele>1411.3</ele>
        <time>2026-08-18T12:18:25.994Z</time>
      </trkpt>
      <trkpt lat="45.39062" lon="4.6032">
        <ele>1411.2</ele>
        <time>2026-08-18T12:18:27.936Z</time>
      </trkpt>
      <trkpt lat="45.39062" lon="4.60318">
        <ele>1411.2</ele>
        <time>2026-08-18T12:18:28.980Z</time>
      </trkpt>
      <trkpt lat="45.39062" lon="4.60317">
        <ele>1411.7</ele>
        <time>2026-08-18T12:18:29.988Z</time>
      </trkpt>
      <trkpt lat="45.39063" lon="4.60314">
        <ele>1412.1</ele>
        <time>2026-08-18T12:18:32.004Z</time>
      </trkpt>
      <trkpt lat="45.39065" lon="4.60311">
        <ele>1412.2</ele>
        <time>2026-08-18T12:18:33.981Z</time>
      </trkpt>
      <trkpt lat="45.39066" lon="4.60308">
        <ele>1412.1</ele>
        <time>2026-08-18T12:18:35.981Z</time>
      </trkpt>
      <trkpt lat="45.39067" lon="4.60304">
        <ele>1411.9</ele>
        <time>2026-08-18T12:18:37.980Z</time>
      </trkpt>
      <trkpt lat="45.39067" lon="4.60302">
        <ele>1411.9</ele>
        <time>2026-08-18T12:18:39.015Z</time>
      </trkpt>
      <trkpt lat="45.39067" lon="4.60298">
        <ele>1411.5</ele>
        <time>2026-08-18T12:18:40.981Z</time>
      </trkpt>
      <trkpt lat="45.39068" lon="4.60296">
        <ele>1411.5</ele>
        <time>2026-08-18T12:18:41.981Z</time>
      </trkpt>
      <trkpt lat="45.39068" lon="4.60293">
        <ele>1412.7</ele>
        <time>2026-08-18T12:18:43.985Z</time>
      </trkpt>
      <trkpt lat="45.39069" lon="4.6029">
        <ele>1411.3</ele>
        <time>2026-08-18T12:18:45.980Z</time>
      </trkpt>
      <trkpt lat="45.39069" lon="4.60288">
        <ele>1410.6</ele>
        <time>2026-08-18T12:18:46.980Z</time>
      </trkpt>
      <trkpt lat="45.39069" lon="4.60286">
        <ele>1410.2</ele>
        <time>2026-08-18T12:18:47.981Z</time>
      </trkpt>
      <trkpt lat="45.39069" lon="4.60283">
        <ele>1409.9</ele>
        <time>2026-08-18T12:18:49.981Z</time>
      </trkpt>
      <trkpt lat="45.3907" lon="4.6028">
        <ele>1409.8</ele>
        <time>2026-08-18T12:18:51.980Z</time>
      </trkpt>
      <trkpt lat="45.39071" lon="4.60278">
        <ele>1409.9</ele>
        <time>2026-08-18T12:18:53.000Z</time>
      </trkpt>
      <trkpt lat="45.39071" lon="4.60275">
        <ele>1409.7</ele>
        <time>2026-08-18T12:18:54.981Z</time>
      </trkpt>
      <trkpt lat="45.39072" lon="4.60272">
        <ele>1409.2</ele>
        <time>2026-08-18T12:18:56.994Z</time>
      </trkpt>
      <trkpt lat="45.39073" lon="4.60269">
        <ele>1409.1</ele>
        <time>2026-08-18T12:18:58.955Z</time>
      </trkpt>
      <trkpt lat="45.39073" lon="4.60267">
        <ele>1409</ele>
        <time>2026-08-18T12:18:59.980Z</time>
      </trkpt>
      <trkpt lat="45.39073" lon="4.60265">
        <ele>1408.7</ele>
        <time>2026-08-18T12:19:00.988Z</time>
      </trkpt>
      <trkpt lat="45.39073" lon="4.60262">
        <ele>1409</ele>
        <time>2026-08-18T12:19:02.980Z</time>
      </trkpt>
      <trkpt lat="45.39073" lon="4.60258">
        <ele>1407.6</ele>
        <time>2026-08-18T12:19:04.982Z</time>
      </trkpt>
      <trkpt lat="45.39073" lon="4.60255">
        <ele>1406.9</ele>
        <time>2026-08-18T12:19:06.981Z</time>
      </trkpt>
      <trkpt lat="45.39073" lon="4.60253">
        <ele>1407.2</ele>
        <time>2026-08-18T12:19:07.981Z</time>
      </trkpt>
      <trkpt lat="45.39073" lon="4.6025">
        <ele>1406.2</ele>
        <time>2026-08-18T12:19:09.980Z</time>
      </trkpt>
      <trkpt lat="45.39073" lon="4.60248">
        <ele>1406.3</ele>
        <time>2026-08-18T12:19:10.981Z</time>
      </trkpt>
      <trkpt lat="45.39072" lon="4.60245">
        <ele>1407</ele>
        <time>2026-08-18T12:19:12.981Z</time>
      </trkpt>
      <trkpt lat="45.39072" lon="4.60243">
        <ele>1406.5</ele>
        <time>2026-08-18T12:19:13.996Z</time>
      </trkpt>
      <trkpt lat="45.39072" lon="4.6024">
        <ele>1406.9</ele>
        <time>2026-08-18T12:19:15.980Z</time>
      </trkpt>
      <trkpt lat="45.39071" lon="4.60238">
        <ele>1407.1</ele>
        <time>2026-08-18T12:19:16.981Z</time>
      </trkpt>
      <trkpt lat="45.39071" lon="4.60236">
        <ele>1406.7</ele>
        <time>2026-08-18T12:19:17.989Z</time>
      </trkpt>
      <trkpt lat="45.3907" lon="4.60233">
        <ele>1407.7</ele>
        <time>2026-08-18T12:19:19.981Z</time>
      </trkpt>
      <trkpt lat="45.3907" lon="4.60229">
        <ele>1409.2</ele>
        <time>2026-08-18T12:19:21.983Z</time>
      </trkpt>
      <trkpt lat="45.39071" lon="4.60225">
        <ele>1409.4</ele>
        <time>2026-08-18T12:19:23.981Z</time>
      </trkpt>
      <trkpt lat="45.39071" lon="4.60221">
        <ele>1409.7</ele>
        <time>2026-08-18T12:19:25.980Z</time>
      </trkpt>
      <trkpt lat="45.3907" lon="4.60218">
        <ele>1409.6</ele>
        <time>2026-08-18T12:19:27.981Z</time>
      </trkpt>
      <trkpt lat="45.3907" lon="4.60216">
        <ele>1409.6</ele>
        <time>2026-08-18T12:19:28.993Z</time>
      </trkpt>
      <trkpt lat="45.3907" lon="4.60212">
        <ele>1409.3</ele>
        <time>2026-08-18T12:19:30.998Z</time>
      </trkpt>
      <trkpt lat="45.39069" lon="4.60209">
        <ele>1409.3</ele>
        <time>2026-08-18T12:19:32.980Z</time>
      </trkpt>
      <trkpt lat="45.39068" lon="4.60206">
        <ele>1409.9</ele>
        <time>2026-08-18T12:19:34.979Z</time>
      </trkpt>
      <trkpt lat="45.39068" lon="4.60204">
        <ele>1410</ele>
        <time>2026-08-18T12:19:35.980Z</time>
      </trkpt>
      <trkpt lat="45.39068" lon="4.60201">
        <ele>1409.4</ele>
        <time>2026-08-18T12:19:37.979Z</time>
      </trkpt>
      <trkpt lat="45.39068" lon="4.60199">
        <ele>1409.4</ele>
        <time>2026-08-18T12:19:39.017Z</time>
      </trkpt>
      <trkpt lat="45.39068" lon="4.60196">
        <ele>1410.3</ele>
        <time>2026-08-18T12:19:40.980Z</time>
      </trkpt>
      <trkpt lat="45.39067" lon="4.60192">
        <ele>1410.1</ele>
        <time>2026-08-18T12:19:42.979Z</time>
      </trkpt>
      <trkpt lat="45.39067" lon="4.6019">
        <ele>1410.4</ele>
        <time>2026-08-18T12:19:44.007Z</time>
      </trkpt>
      <trkpt lat="45.39066" lon="4.60187">
        <ele>1410.6</ele>
        <time>2026-08-18T12:19:45.980Z</time>
      </trkpt>
      <trkpt lat="45.39065" lon="4.60183">
        <ele>1410.5</ele>
        <time>2026-08-18T12:19:48.000Z</time>
      </trkpt>
      <trkpt lat="45.39065" lon="4.6018">
        <ele>1410.3</ele>
        <time>2026-08-18T12:19:49.980Z</time>
      </trkpt>
      <trkpt lat="45.39064" lon="4.60177">
        <ele>1409.6</ele>
        <time>2026-08-18T12:19:51.994Z</time>
      </trkpt>
      <trkpt lat="45.39063" lon="4.60174">
        <ele>1408.3</ele>
        <time>2026-08-18T12:19:53.980Z</time>
      </trkpt>
      <trkpt lat="45.39063" lon="4.60171">
        <ele>1407.5</ele>
        <time>2026-08-18T12:19:55.980Z</time>
      </trkpt>
      <trkpt lat="45.39063" lon="4.60169">
        <ele>1407.5</ele>
        <time>2026-08-18T12:19:56.980Z</time>
      </trkpt>
      <trkpt lat="45.39062" lon="4.60168">
        <ele>1407.5</ele>
        <time>2026-08-18T12:19:58.016Z</time>
      </trkpt>
      <trkpt lat="45.39062" lon="4.60165">
        <ele>1407.4</ele>
        <time>2026-08-18T12:19:59.982Z</time>
      </trkpt>
      <trkpt lat="45.3906" lon="4.60162">
        <ele>1407.5</ele>
        <time>2026-08-18T12:20:01.980Z</time>
      </trkpt>
      <trkpt lat="45.39059" lon="4.60159">
        <ele>1406.6</ele>
        <time>2026-08-18T12:20:03.979Z</time>
      </trkpt>
      <trkpt lat="45.39059" lon="4.60158">
        <ele>1406.8</ele>
        <time>2026-08-18T12:20:04.979Z</time>
      </trkpt>
      <trkpt lat="45.39058" lon="4.60157">
        <ele>1406.6</ele>
        <time>2026-08-18T12:20:05.979Z</time>
      </trkpt>
      <trkpt lat="45.39058" lon="4.60155">
        <ele>1406.4</ele>
        <time>2026-08-18T12:20:06.980Z</time>
      </trkpt>
      <trkpt lat="45.39058" lon="4.60153">
        <ele>1406.8</ele>
        <time>2026-08-18T12:20:07.980Z</time>
      </trkpt>
      <trkpt lat="45.39058" lon="4.60151">
        <ele>1406.8</ele>
        <time>2026-08-18T12:20:08.996Z</time>
      </trkpt>
      <trkpt lat="45.39057" lon="4.60149">
        <ele>1406.5</ele>
        <time>2026-08-18T12:20:10.979Z</time>
      </trkpt>
      <trkpt lat="45.39056" lon="4.60147">
        <ele>1406.9</ele>
        <time>2026-08-18T12:20:11.980Z</time>
      </trkpt>
      <trkpt lat="45.39056" lon="4.60145">
        <ele>1406.4</ele>
        <time>2026-08-18T12:20:12.989Z</time>
      </trkpt>
      <trkpt lat="45.39055" lon="4.60142">
        <ele>1406.9</ele>
        <time>2026-08-18T12:20:14.980Z</time>
      </trkpt>
      <trkpt lat="45.39055" lon="4.60141">
        <ele>1406.3</ele>
        <time>2026-08-18T12:20:15.980Z</time>
      </trkpt>
      <trkpt lat="45.39054" lon="4.60139">
        <ele>1407</ele>
        <time>2026-08-18T12:20:16.982Z</time>
      </trkpt>
      <trkpt lat="45.39053" lon="4.60136">
        <ele>1407.7</ele>
        <time>2026-08-18T12:20:18.979Z</time>
      </trkpt>
      <trkpt lat="45.39053" lon="4.60135">
        <ele>1407.3</ele>
        <time>2026-08-18T12:20:19.979Z</time>
      </trkpt>
      <trkpt lat="45.39052" lon="4.60134">
        <ele>1407.7</ele>
        <time>2026-08-18T12:20:20.979Z</time>
      </trkpt>
      <trkpt lat="45.39051" lon="4.60132">
        <ele>1408.3</ele>
        <time>2026-08-18T12:20:22.004Z</time>
      </trkpt>
      <trkpt lat="45.3905" lon="4.60129">
        <ele>1407.1</ele>
        <time>2026-08-18T12:20:23.980Z</time>
      </trkpt>
      <trkpt lat="45.39049" lon="4.60128">
        <ele>1407.2</ele>
        <time>2026-08-18T12:20:24.980Z</time>
      </trkpt>
      <trkpt lat="45.39048" lon="4.60127">
        <ele>1407</ele>
        <time>2026-08-18T12:20:25.980Z</time>
      </trkpt>
      <trkpt lat="45.39048" lon="4.60125">
        <ele>1407.2</ele>
        <time>2026-08-18T12:20:26.980Z</time>
      </trkpt>
      <trkpt lat="45.39047" lon="4.60124">
        <ele>1407.2</ele>
        <time>2026-08-18T12:20:27.980Z</time>
      </trkpt>
      <trkpt lat="45.39047" lon="4.60122">
        <ele>1407.4</ele>
        <time>2026-08-18T12:20:28.980Z</time>
      </trkpt>
      <trkpt lat="45.39046" lon="4.60119">
        <ele>1407.2</ele>
        <time>2026-08-18T12:20:30.980Z</time>
      </trkpt>
      <trkpt lat="45.39045" lon="4.60116">
        <ele>1407.1</ele>
        <time>2026-08-18T12:20:32.980Z</time>
      </trkpt>
      <trkpt lat="45.39044" lon="4.60115">
        <ele>1406.3</ele>
        <time>2026-08-18T12:20:33.980Z</time>
      </trkpt>
      <trkpt lat="45.39043" lon="4.60112">
        <ele>1405.6</ele>
        <time>2026-08-18T12:20:35.979Z</time>
      </trkpt>
      <trkpt lat="45.39043" lon="4.60111">
        <ele>1405.5</ele>
        <time>2026-08-18T12:20:36.979Z</time>
      </trkpt>
      <trkpt lat="45.39042" lon="4.6011">
        <ele>1404.3</ele>
        <time>2026-08-18T12:20:37.979Z</time>
      </trkpt>
      <trkpt lat="45.39042" lon="4.60108">
        <ele>1403.9</ele>
        <time>2026-08-18T12:20:39.006Z</time>
      </trkpt>
      <trkpt lat="45.39041" lon="4.60106">
        <ele>1404</ele>
        <time>2026-08-18T12:20:40.979Z</time>
      </trkpt>
      <trkpt lat="45.39041" lon="4.60104">
        <ele>1403.7</ele>
        <time>2026-08-18T12:20:41.979Z</time>
      </trkpt>
      <trkpt lat="45.3904" lon="4.60103">
        <ele>1403.8</ele>
        <time>2026-08-18T12:20:43.000Z</time>
      </trkpt>
      <trkpt lat="45.39039" lon="4.60101">
        <ele>1402.9</ele>
        <time>2026-08-18T12:20:44.979Z</time>
      </trkpt>
      <trkpt lat="45.39038" lon="4.601">
        <ele>1402.8</ele>
        <time>2026-08-18T12:20:45.979Z</time>
      </trkpt>
      <trkpt lat="45.39037" lon="4.60099">
        <ele>1402.8</ele>
        <time>2026-08-18T12:20:46.992Z</time>
      </trkpt>
      <trkpt lat="45.39036" lon="4.60096">
        <ele>1402.5</ele>
        <time>2026-08-18T12:20:48.979Z</time>
      </trkpt>
      <trkpt lat="45.39035" lon="4.60095">
        <ele>1402.5</ele>
        <time>2026-08-18T12:20:49.982Z</time>
      </trkpt>
      <trkpt lat="45.39034" lon="4.60095">
        <ele>1403.4</ele>
        <time>2026-08-18T12:20:50.986Z</time>
      </trkpt>
      <trkpt lat="45.39033" lon="4.60093">
        <ele>1403.7</ele>
        <time>2026-08-18T12:20:52.980Z</time>
      </trkpt>
      <trkpt lat="45.39031" lon="4.60091">
        <ele>1402.8</ele>
        <time>2026-08-18T12:20:54.979Z</time>
      </trkpt>
      <trkpt lat="45.3903" lon="4.6009">
        <ele>1402.7</ele>
        <time>2026-08-18T12:20:55.979Z</time>
      </trkpt>
      <trkpt lat="45.39028" lon="4.60088">
        <ele>1402.4</ele>
        <time>2026-08-18T12:20:57.980Z</time>
      </trkpt>
      <trkpt lat="45.39027" lon="4.60087">
        <ele>1402.3</ele>
        <time>2026-08-18T12:20:58.980Z</time>
      </trkpt>
      <trkpt lat="45.39026" lon="4.60085">
        <ele>1401.7</ele>
        <time>2026-08-18T12:21:00.879Z</time>
      </trkpt>
      <trkpt lat="45.39025" lon="4.60084">
        <ele>1402.5</ele>
        <time>2026-08-18T12:21:01.980Z</time>
      </trkpt>
      <trkpt lat="45.39024" lon="4.60081">
        <ele>1402.5</ele>
        <time>2026-08-18T12:21:03.959Z</time>
      </trkpt>
      <trkpt lat="45.39024" lon="4.60079">
        <ele>1402.7</ele>
        <time>2026-08-18T12:21:04.979Z</time>
      </trkpt>
      <trkpt lat="45.39023" lon="4.60078">
        <ele>1403.3</ele>
        <time>2026-08-18T12:21:05.980Z</time>
      </trkpt>
      <trkpt lat="45.39021" lon="4.60076">
        <ele>1403.7</ele>
        <time>2026-08-18T12:21:07.988Z</time>
      </trkpt>
      <trkpt lat="45.39019" lon="4.60073">
        <ele>1403.3</ele>
        <time>2026-08-18T12:21:09.979Z</time>
      </trkpt>
      <trkpt lat="45.39018" lon="4.60072">
        <ele>1403.1</ele>
        <time>2026-08-18T12:21:11.979Z</time>
      </trkpt>
      <trkpt lat="45.39017" lon="4.6007">
        <ele>1403</ele>
        <time>2026-08-18T12:21:13.009Z</time>
      </trkpt>
      <trkpt lat="45.39015" lon="4.60068">
        <ele>1402.7</ele>
        <time>2026-08-18T12:21:14.980Z</time>
      </trkpt>
      <trkpt lat="45.39014" lon="4.60067">
        <ele>1402.7</ele>
        <time>2026-08-18T12:21:15.998Z</time>
      </trkpt>
      <trkpt lat="45.39012" lon="4.60065">
        <ele>1402.7</ele>
        <time>2026-08-18T12:21:17.980Z</time>
      </trkpt>
      <trkpt lat="45.39011" lon="4.60062">
        <ele>1402.9</ele>
        <time>2026-08-18T12:21:19.980Z</time>
      </trkpt>
      <trkpt lat="45.3901" lon="4.60061">
        <ele>1403.1</ele>
        <time>2026-08-18T12:21:20.980Z</time>
      </trkpt>
      <trkpt lat="45.39009" lon="4.6006">
        <ele>1403</ele>
        <time>2026-08-18T12:21:21.980Z</time>
      </trkpt>
      <trkpt lat="45.39009" lon="4.60058">
        <ele>1402.9</ele>
        <time>2026-08-18T12:21:22.980Z</time>
      </trkpt>
      <trkpt lat="45.39008" lon="4.60055">
        <ele>1403.6</ele>
        <time>2026-08-18T12:21:24.979Z</time>
      </trkpt>
      <trkpt lat="45.39007" lon="4.60054">
        <ele>1402.6</ele>
        <time>2026-08-18T12:21:25.980Z</time>
      </trkpt>
      <trkpt lat="45.39005" lon="4.60053">
        <ele>1402.6</ele>
        <time>2026-08-18T12:21:27.979Z</time>
      </trkpt>
      <trkpt lat="45.39003" lon="4.60052">
        <ele>1402.6</ele>
        <time>2026-08-18T12:21:28.984Z</time>
      </trkpt>
      <trkpt lat="45.39001" lon="4.60051">
        <ele>1402.3</ele>
        <time>2026-08-18T12:21:30.980Z</time>
      </trkpt>
      <trkpt lat="45.39" lon="4.6005">
        <ele>1401.6</ele>
        <time>2026-08-18T12:21:31.980Z</time>
      </trkpt>
      <trkpt lat="45.38999" lon="4.60049">
        <ele>1402.1</ele>
        <time>2026-08-18T12:21:32.980Z</time>
      </trkpt>
      <trkpt lat="45.38998" lon="4.60048">
        <ele>1401.8</ele>
        <time>2026-08-18T12:21:33.980Z</time>
      </trkpt>
      <trkpt lat="45.38998" lon="4.60047">
        <ele>1401.6</ele>
        <time>2026-08-18T12:21:34.980Z</time>
      </trkpt>
      <trkpt lat="45.38997" lon="4.60046">
        <ele>1401.7</ele>
        <time>2026-08-18T12:21:35.980Z</time>
      </trkpt>
      <trkpt lat="45.38996" lon="4.60045">
        <ele>1401.8</ele>
        <time>2026-08-18T12:21:36.980Z</time>
      </trkpt>
      <trkpt lat="45.38995" lon="4.60043">
        <ele>1402.1</ele>
        <time>2026-08-18T12:21:37.999Z</time>
      </trkpt>
      <trkpt lat="45.38993" lon="4.60041">
        <ele>1402.1</ele>
        <time>2026-08-18T12:21:39.979Z</time>
      </trkpt>
      <trkpt lat="45.38992" lon="4.60041">
        <ele>1402.4</ele>
        <time>2026-08-18T12:21:40.979Z</time>
      </trkpt>
      <trkpt lat="45.38991" lon="4.6004">
        <ele>1402.5</ele>
        <time>2026-08-18T12:21:41.980Z</time>
      </trkpt>
      <trkpt lat="45.38991" lon="4.60038">
        <ele>1402.6</ele>
        <time>2026-08-18T12:21:42.980Z</time>
      </trkpt>
      <trkpt lat="45.38989" lon="4.60036">
        <ele>1402.3</ele>
        <time>2026-08-18T12:21:44.980Z</time>
      </trkpt>
      <trkpt lat="45.38987" lon="4.60034">
        <ele>1402.9</ele>
        <time>2026-08-18T12:21:46.980Z</time>
      </trkpt>
      <trkpt lat="45.38986" lon="4.60034">
        <ele>1402.2</ele>
        <time>2026-08-18T12:21:47.980Z</time>
      </trkpt>
      <trkpt lat="45.38984" lon="4.60032">
        <ele>1400.6</ele>
        <time>2026-08-18T12:21:49.980Z</time>
      </trkpt>
      <trkpt lat="45.38983" lon="4.60031">
        <ele>1401.8</ele>
        <time>2026-08-18T12:21:50.980Z</time>
      </trkpt>
      <trkpt lat="45.38982" lon="4.6003">
        <ele>1402.1</ele>
        <time>2026-08-18T12:21:51.980Z</time>
      </trkpt>
      <trkpt lat="45.38981" lon="4.60029">
        <ele>1402.1</ele>
        <time>2026-08-18T12:21:52.996Z</time>
      </trkpt>
      <trkpt lat="45.38979" lon="4.60027">
        <ele>1402.4</ele>
        <time>2026-08-18T12:21:54.980Z</time>
      </trkpt>
      <trkpt lat="45.38978" lon="4.60026">
        <ele>1403</ele>
        <time>2026-08-18T12:21:55.980Z</time>
      </trkpt>
      <trkpt lat="45.38976" lon="4.60024">
        <ele>1403.4</ele>
        <time>2026-08-18T12:21:57.980Z</time>
      </trkpt>
      <trkpt lat="45.38975" lon="4.60023">
        <ele>1402.5</ele>
        <time>2026-08-18T12:21:58.980Z</time>
      </trkpt>
      <trkpt lat="45.38973" lon="4.60021">
        <ele>1402.4</ele>
        <time>2026-08-18T12:22:00.979Z</time>
      </trkpt>
      <trkpt lat="45.38972" lon="4.6002">
        <ele>1402.7</ele>
        <time>2026-08-18T12:22:01.979Z</time>
      </trkpt>
      <trkpt lat="45.38971" lon="4.60018">
        <ele>1402.3</ele>
        <time>2026-08-18T12:22:02.989Z</time>
      </trkpt>
      <trkpt lat="45.3897" lon="4.60016">
        <ele>1402.4</ele>
        <time>2026-08-18T12:22:04.883Z</time>
      </trkpt>
      <trkpt lat="45.38969" lon="4.60015">
        <ele>1402.4</ele>
        <time>2026-08-18T12:22:05.979Z</time>
      </trkpt>
      <trkpt lat="45.38968" lon="4.60014">
        <ele>1401.9</ele>
        <time>2026-08-18T12:22:06.980Z</time>
      </trkpt>
      <trkpt lat="45.38967" lon="4.60012">
        <ele>1401</ele>
        <time>2026-08-18T12:22:08.009Z</time>
      </trkpt>
      <trkpt lat="45.38966" lon="4.6001">
        <ele>1401.7</ele>
        <time>2026-08-18T12:22:09.980Z</time>
      </trkpt>
      <trkpt lat="45.38964" lon="4.60008">
        <ele>1401.9</ele>
        <time>2026-08-18T12:22:11.900Z</time>
      </trkpt>
      <trkpt lat="45.38962" lon="4.60007">
        <ele>1402.4</ele>
        <time>2026-08-18T12:22:12.979Z</time>
      </trkpt>
      <trkpt lat="45.38961" lon="4.60006">
        <ele>1402.1</ele>
        <time>2026-08-18T12:22:13.979Z</time>
      </trkpt>
      <trkpt lat="45.3896" lon="4.60004">
        <ele>1401.8</ele>
        <time>2026-08-18T12:22:14.980Z</time>
      </trkpt>
      <trkpt lat="45.38957" lon="4.60003">
        <ele>1400.5</ele>
        <time>2026-08-18T12:22:16.979Z</time>
      </trkpt>
      <trkpt lat="45.38956" lon="4.60002">
        <ele>1399.9</ele>
        <time>2026-08-18T12:22:17.979Z</time>
      </trkpt>
      <trkpt lat="45.38955" lon="4.60001">
        <ele>1399.6</ele>
        <time>2026-08-18T12:22:18.980Z</time>
      </trkpt>
      <trkpt lat="45.38954" lon="4.6">
        <ele>1399.8</ele>
        <time>2026-08-18T12:22:19.990Z</time>
      </trkpt>
      <trkpt lat="45.38951" lon="4.59998">
        <ele>1399.2</ele>
        <time>2026-08-18T12:22:21.980Z</time>
      </trkpt>
      <trkpt lat="45.3895" lon="4.59998">
        <ele>1399.2</ele>
        <time>2026-08-18T12:22:22.980Z</time>
      </trkpt>
      <trkpt lat="45.38949" lon="4.59997">
        <ele>1399</ele>
        <time>2026-08-18T12:22:23.984Z</time>
      </trkpt>
      <trkpt lat="45.38948" lon="4.59995">
        <ele>1399.4</ele>
        <time>2026-08-18T12:22:25.955Z</time>
      </trkpt>
      <trkpt lat="45.38947" lon="4.59994">
        <ele>1398.7</ele>
        <time>2026-08-18T12:22:26.979Z</time>
      </trkpt>
      <trkpt lat="45.38946" lon="4.59993">
        <ele>1398.2</ele>
        <time>2026-08-18T12:22:27.980Z</time>
      </trkpt>
      <trkpt lat="45.38945" lon="4.59992">
        <ele>1397.5</ele>
        <time>2026-08-18T12:22:29.005Z</time>
      </trkpt>
      <trkpt lat="45.38943" lon="4.5999">
        <ele>1398.4</ele>
        <time>2026-08-18T12:22:30.938Z</time>
      </trkpt>
      <trkpt lat="45.38943" lon="4.59989">
        <ele>1398.2</ele>
        <time>2026-08-18T12:22:31.979Z</time>
      </trkpt>
      <trkpt lat="45.38942" lon="4.59988">
        <ele>1397.8</ele>
        <time>2026-08-18T12:22:32.980Z</time>
      </trkpt>
      <trkpt lat="45.38942" lon="4.59987">
        <ele>1398.2</ele>
        <time>2026-08-18T12:22:33.980Z</time>
      </trkpt>
      <trkpt lat="45.38941" lon="4.59986">
        <ele>1398.1</ele>
        <time>2026-08-18T12:22:34.980Z</time>
      </trkpt>
      <trkpt lat="45.3894" lon="4.59985">
        <ele>1398.6</ele>
        <time>2026-08-18T12:22:35.980Z</time>
      </trkpt>
      <trkpt lat="45.38939" lon="4.59984">
        <ele>1398.1</ele>
        <time>2026-08-18T12:22:36.980Z</time>
      </trkpt>
      <trkpt lat="45.38937" lon="4.59982">
        <ele>1397.7</ele>
        <time>2026-08-18T12:22:38.980Z</time>
      </trkpt>
      <trkpt lat="45.38936" lon="4.59981">
        <ele>1397.7</ele>
        <time>2026-08-18T12:22:39.980Z</time>
      </trkpt>
      <trkpt lat="45.38936" lon="4.5998">
        <ele>1397.7</ele>
        <time>2026-08-18T12:22:40.999Z</time>
      </trkpt>
      <trkpt lat="45.38934" lon="4.59978">
        <ele>1397.1</ele>
        <time>2026-08-18T12:22:42.980Z</time>
      </trkpt>
      <trkpt lat="45.38932" lon="4.59976">
        <ele>1396.8</ele>
        <time>2026-08-18T12:22:44.979Z</time>
      </trkpt>
      <trkpt lat="45.38931" lon="4.59975">
        <ele>1396.5</ele>
        <time>2026-08-18T12:22:45.980Z</time>
      </trkpt>
      <trkpt lat="45.3893" lon="4.59974">
        <ele>1396.4</ele>
        <time>2026-08-18T12:22:47.979Z</time>
      </trkpt>
      <trkpt lat="45.38929" lon="4.59973">
        <ele>1396.6</ele>
        <time>2026-08-18T12:22:48.980Z</time>
      </trkpt>
      <trkpt lat="45.38928" lon="4.59972">
        <ele>1396</ele>
        <time>2026-08-18T12:22:49.980Z</time>
      </trkpt>
      <trkpt lat="45.38926" lon="4.5997">
        <ele>1396.4</ele>
        <time>2026-08-18T12:22:51.979Z</time>
      </trkpt>
      <trkpt lat="45.38925" lon="4.59969">
        <ele>1396.9</ele>
        <time>2026-08-18T12:22:52.980Z</time>
      </trkpt>
      <trkpt lat="45.38924" lon="4.59968">
        <ele>1397</ele>
        <time>2026-08-18T12:22:53.995Z</time>
      </trkpt>
      <trkpt lat="45.38922" lon="4.59967">
        <ele>1396.5</ele>
        <time>2026-08-18T12:22:55.975Z</time>
      </trkpt>
      <trkpt lat="45.38921" lon="4.59966">
        <ele>1396.5</ele>
        <time>2026-08-18T12:22:56.979Z</time>
      </trkpt>
      <trkpt lat="45.3892" lon="4.59964">
        <ele>1396.8</ele>
        <time>2026-08-18T12:22:57.988Z</time>
      </trkpt>
      <trkpt lat="45.38919" lon="4.59963">
        <ele>1396.3</ele>
        <time>2026-08-18T12:22:59.979Z</time>
      </trkpt>
      <trkpt lat="45.38917" lon="4.59961">
        <ele>1395.9</ele>
        <time>2026-08-18T12:23:01.982Z</time>
      </trkpt>
      <trkpt lat="45.38915" lon="4.59959">
        <ele>1396</ele>
        <time>2026-08-18T12:23:03.982Z</time>
      </trkpt>
      <trkpt lat="45.38913" lon="4.59957">
        <ele>1396.6</ele>
        <time>2026-08-18T12:23:05.980Z</time>
      </trkpt>
      <trkpt lat="45.38912" lon="4.59955">
        <ele>1396.7</ele>
        <time>2026-08-18T12:23:07.979Z</time>
      </trkpt>
      <trkpt lat="45.38911" lon="4.59954">
        <ele>1396.7</ele>
        <time>2026-08-18T12:23:08.982Z</time>
      </trkpt>
      <trkpt lat="45.38909" lon="4.59951">
        <ele>1396.9</ele>
        <time>2026-08-18T12:23:10.997Z</time>
      </trkpt>
      <trkpt lat="45.38908" lon="4.59949">
        <ele>1396.8</ele>
        <time>2026-08-18T12:23:12.979Z</time>
      </trkpt>
      <trkpt lat="45.38906" lon="4.59946">
        <ele>1396.8</ele>
        <time>2026-08-18T12:23:14.980Z</time>
      </trkpt>
      <trkpt lat="45.38905" lon="4.59945">
        <ele>1396.5</ele>
        <time>2026-08-18T12:23:15.980Z</time>
      </trkpt>
      <trkpt lat="45.38903" lon="4.59945">
        <ele>1396.4</ele>
        <time>2026-08-18T12:23:16.980Z</time>
      </trkpt>
      <trkpt lat="45.38902" lon="4.59944">
        <ele>1396.4</ele>
        <time>2026-08-18T12:23:17.997Z</time>
      </trkpt>
      <trkpt lat="45.389" lon="4.59942">
        <ele>1396.6</ele>
        <time>2026-08-18T12:23:19.900Z</time>
      </trkpt>
      <trkpt lat="45.38899" lon="4.59942">
        <ele>1396.8</ele>
        <time>2026-08-18T12:23:20.980Z</time>
      </trkpt>
      <trkpt lat="45.38898" lon="4.59941">
        <ele>1396.7</ele>
        <time>2026-08-18T12:23:21.980Z</time>
      </trkpt>
      <trkpt lat="45.38896" lon="4.5994">
        <ele>1396.7</ele>
        <time>2026-08-18T12:23:22.980Z</time>
      </trkpt>
      <trkpt lat="45.38895" lon="4.5994">
        <ele>1396.3</ele>
        <time>2026-08-18T12:23:23.980Z</time>
      </trkpt>
      <trkpt lat="45.38893" lon="4.59938">
        <ele>1396.8</ele>
        <time>2026-08-18T12:23:25.980Z</time>
      </trkpt>
      <trkpt lat="45.38891" lon="4.59936">
        <ele>1397</ele>
        <time>2026-08-18T12:23:27.979Z</time>
      </trkpt>
      <trkpt lat="45.38889" lon="4.59934">
        <ele>1396.6</ele>
        <time>2026-08-18T12:23:29.979Z</time>
      </trkpt>
      <trkpt lat="45.38887" lon="4.59932">
        <ele>1397.4</ele>
        <time>2026-08-18T12:23:31.993Z</time>
      </trkpt>
      <trkpt lat="45.38885" lon="4.5993">
        <ele>1397.2</ele>
        <time>2026-08-18T12:23:33.979Z</time>
      </trkpt>
      <trkpt lat="45.38884" lon="4.59929">
        <ele>1396.6</ele>
        <time>2026-08-18T12:23:34.979Z</time>
      </trkpt>
      <trkpt lat="45.38882" lon="4.59928">
        <ele>1396.2</ele>
        <time>2026-08-18T12:23:36.979Z</time>
      </trkpt>
      <trkpt lat="45.38881" lon="4.59926">
        <ele>1396.3</ele>
        <time>2026-08-18T12:23:37.979Z</time>
      </trkpt>
      <trkpt lat="45.3888" lon="4.59925">
        <ele>1396.3</ele>
        <time>2026-08-18T12:23:38.980Z</time>
      </trkpt>
      <trkpt lat="45.38879" lon="4.59923">
        <ele>1396.2</ele>
        <time>2026-08-18T12:23:40.979Z</time>
      </trkpt>
      <trkpt lat="45.38878" lon="4.59922">
        <ele>1396.6</ele>
        <time>2026-08-18T12:23:41.979Z</time>
      </trkpt>
      <trkpt lat="45.38877" lon="4.59921">
        <ele>1396.7</ele>
        <time>2026-08-18T12:23:42.980Z</time>
      </trkpt>
      <trkpt lat="45.38876" lon="4.5992">
        <ele>1396.8</ele>
        <time>2026-08-18T12:23:43.980Z</time>
      </trkpt>
      <trkpt lat="45.38875" lon="4.59919">
        <ele>1396.7</ele>
        <time>2026-08-18T12:23:44.980Z</time>
      </trkpt>
      <trkpt lat="45.38874" lon="4.59919">
        <ele>1396.7</ele>
        <time>2026-08-18T12:23:45.980Z</time>
      </trkpt>
      <trkpt lat="45.38873" lon="4.5992">
        <ele>1396.9</ele>
        <time>2026-08-18T12:23:46.980Z</time>
      </trkpt>
      <trkpt lat="45.38872" lon="4.59921">
        <ele>1396.8</ele>
        <time>2026-08-18T12:23:47.980Z</time>
      </trkpt>
      <trkpt lat="45.38871" lon="4.59922">
        <ele>1396.4</ele>
        <time>2026-08-18T12:23:48.994Z</time>
      </trkpt>
      <trkpt lat="45.3887" lon="4.59924">
        <ele>1395.5</ele>
        <time>2026-08-18T12:23:50.980Z</time>
      </trkpt>
      <trkpt lat="45.38871" lon="4.59927">
        <ele>1395.1</ele>
        <time>2026-08-18T12:23:52.988Z</time>
      </trkpt>
      <trkpt lat="45.38873" lon="4.59925">
        <ele>1393.2</ele>
        <time>2026-08-18T12:23:54.979Z</time>
      </trkpt>
      <trkpt lat="45.3887" lon="4.5992">
        <ele>1393.1</ele>
        <time>2026-08-18T12:23:56.980Z</time>
      </trkpt>
      <trkpt lat="45.38869" lon="4.59916">
        <ele>1393.6</ele>
        <time>2026-08-18T12:23:58.979Z</time>
      </trkpt>
      <trkpt lat="45.38869" lon="4.59914">
        <ele>1393.9</ele>
        <time>2026-08-18T12:23:59.979Z</time>
      </trkpt>
      <trkpt lat="45.38868" lon="4.59913">
        <ele>1393.4</ele>
        <time>2026-08-18T12:24:00.979Z</time>
      </trkpt>
      <trkpt lat="45.38867" lon="4.59911">
        <ele>1393.2</ele>
        <time>2026-08-18T12:24:01.979Z</time>
      </trkpt>
      <trkpt lat="45.38866" lon="4.5991">
        <ele>1393.5</ele>
        <time>2026-08-18T12:24:02.979Z</time>
      </trkpt>
      <trkpt lat="45.38865" lon="4.59908">
        <ele>1393.3</ele>
        <time>2026-08-18T12:24:03.980Z</time>
      </trkpt>
      <trkpt lat="45.38865" lon="4.59907">
        <ele>1393.6</ele>
        <time>2026-08-18T12:24:04.980Z</time>
      </trkpt>
      <trkpt lat="45.38863" lon="4.59904">
        <ele>1393.3</ele>
        <time>2026-08-18T12:24:06.979Z</time>
      </trkpt>
      <trkpt lat="45.38862" lon="4.59902">
        <ele>1393.3</ele>
        <time>2026-08-18T12:24:08.015Z</time>
      </trkpt>
      <trkpt lat="45.3886" lon="4.599">
        <ele>1394.4</ele>
        <time>2026-08-18T12:24:09.991Z</time>
      </trkpt>
      <trkpt lat="45.38858" lon="4.59899">
        <ele>1393.8</ele>
        <time>2026-08-18T12:24:11.980Z</time>
      </trkpt>
      <trkpt lat="45.38857" lon="4.59895">
        <ele>1393.9</ele>
        <time>2026-08-18T12:24:13.985Z</time>
      </trkpt>
      <trkpt lat="45.38857" lon="4.59891">
        <ele>1394.4</ele>
        <time>2026-08-18T12:24:15.980Z</time>
      </trkpt>
      <trkpt lat="45.38856" lon="4.59888">
        <ele>1394.5</ele>
        <time>2026-08-18T12:24:17.979Z</time>
      </trkpt>
      <trkpt lat="45.38855" lon="4.59886">
        <ele>1394.4</ele>
        <time>2026-08-18T12:24:18.980Z</time>
      </trkpt>
      <trkpt lat="45.38854" lon="4.59885">
        <ele>1394.2</ele>
        <time>2026-08-18T12:24:20.044Z</time>
      </trkpt>
      <trkpt lat="45.38853" lon="4.59883">
        <ele>1394.2</ele>
        <time>2026-08-18T12:24:21.899Z</time>
      </trkpt>
      <trkpt lat="45.38852" lon="4.59882">
        <ele>1393.3</ele>
        <time>2026-08-18T12:24:22.999Z</time>
      </trkpt>
      <trkpt lat="45.38852" lon="4.59884">
        <ele>1390.7</ele>
        <time>2026-08-18T12:24:24.979Z</time>
      </trkpt>
      <trkpt lat="45.38852" lon="4.59884">
        <ele>1391.9</ele>
        <time>2026-08-18T12:24:25.979Z</time>
      </trkpt>
      <trkpt lat="45.38852" lon="4.59884">
        <ele>1392</ele>
        <time>2026-08-18T12:24:26.979Z</time>
      </trkpt>
      <trkpt lat="45.38851" lon="4.59884">
        <ele>1392</ele>
        <time>2026-08-18T12:24:27.980Z</time>
      </trkpt>
      <trkpt lat="45.38851" lon="4.59884">
        <ele>1392</ele>
        <time>2026-08-18T12:24:28.980Z</time>
      </trkpt>
      <trkpt lat="45.38851" lon="4.59884">
        <ele>1392.2</ele>
        <time>2026-08-18T12:24:29.980Z</time>
      </trkpt>
      <trkpt lat="45.3885" lon="4.59884">
        <ele>1392</ele>
        <time>2026-08-18T12:24:30.980Z</time>
      </trkpt>
      <trkpt lat="45.3885" lon="4.59884">
        <ele>1392.7</ele>
        <time>2026-08-18T12:24:32.980Z</time>
      </trkpt>
      <trkpt lat="45.3885" lon="4.59884">
        <ele>1394.9</ele>
        <time>2026-08-18T12:24:34.979Z</time>
      </trkpt>
      <trkpt lat="45.3885" lon="4.59883">
        <ele>1394.6</ele>
        <time>2026-08-18T12:24:35.979Z</time>
      </trkpt>
      <trkpt lat="45.3885" lon="4.59881">
        <ele>1394.6</ele>
        <time>2026-08-18T12:24:37.980Z</time>
      </trkpt>
      <trkpt lat="45.3885" lon="4.59879">
        <ele>1394.6</ele>
        <time>2026-08-18T12:24:39.979Z</time>
      </trkpt>
      <trkpt lat="45.3885" lon="4.59878">
        <ele>1394.6</ele>
        <time>2026-08-18T12:24:40.980Z</time>
      </trkpt>
      <trkpt lat="45.3885" lon="4.59876">
        <ele>1394.9</ele>
        <time>2026-08-18T12:24:42.913Z</time>
      </trkpt>
      <trkpt lat="45.3885" lon="4.59874">
        <ele>1394.9</ele>
        <time>2026-08-18T12:24:43.980Z</time>
      </trkpt>
      <trkpt lat="45.38849" lon="4.59873">
        <ele>1394.4</ele>
        <time>2026-08-18T12:24:45.979Z</time>
      </trkpt>
      <trkpt lat="45.38849" lon="4.59872">
        <ele>1394.3</ele>
        <time>2026-08-18T12:24:46.980Z</time>
      </trkpt>
      <trkpt lat="45.38848" lon="4.59871">
        <ele>1394.6</ele>
        <time>2026-08-18T12:24:47.980Z</time>
      </trkpt>
      <trkpt lat="45.38848" lon="4.5987">
        <ele>1394.5</ele>
        <time>2026-08-18T12:24:48.980Z</time>
      </trkpt>
      <trkpt lat="45.38848" lon="4.59869">
        <ele>1394.2</ele>
        <time>2026-08-18T12:24:49.980Z</time>
      </trkpt>
      <trkpt lat="45.38848" lon="4.59867">
        <ele>1393.9</ele>
        <time>2026-08-18T12:24:51.979Z</time>
      </trkpt>
      <trkpt lat="45.38848" lon="4.59865">
        <ele>1393.3</ele>
        <time>2026-08-18T12:24:53.978Z</time>
      </trkpt>
      <trkpt lat="45.38848" lon="4.59864">
        <ele>1393.4</ele>
        <time>2026-08-18T12:24:54.979Z</time>
      </trkpt>
      <trkpt lat="45.38849" lon="4.59864">
        <ele>1393.6</ele>
        <time>2026-08-18T12:24:55.979Z</time>
      </trkpt>
      <trkpt lat="45.38849" lon="4.59864">
        <ele>1393.8</ele>
        <time>2026-08-18T12:24:57.005Z</time>
      </trkpt>
      <trkpt lat="45.38851" lon="4.59864">
        <ele>1393.6</ele>
        <time>2026-08-18T12:24:58.880Z</time>
      </trkpt>
      <trkpt lat="45.38853" lon="4.59865">
        <ele>1393.5</ele>
        <time>2026-08-18T12:24:59.978Z</time>
      </trkpt>
      <trkpt lat="45.38854" lon="4.59866">
        <ele>1393.3</ele>
        <time>2026-08-18T12:25:00.979Z</time>
      </trkpt>
      <trkpt lat="45.38856" lon="4.59868">
        <ele>1393.4</ele>
        <time>2026-08-18T12:25:02.979Z</time>
      </trkpt>
      <trkpt lat="45.38858" lon="4.5987">
        <ele>1393.5</ele>
        <time>2026-08-18T12:25:04.979Z</time>
      </trkpt>
      <trkpt lat="45.38859" lon="4.59871">
        <ele>1393.9</ele>
        <time>2026-08-18T12:25:05.979Z</time>
      </trkpt>
      <trkpt lat="45.38859" lon="4.59873">
        <ele>1393.8</ele>
        <time>2026-08-18T12:25:06.979Z</time>
      </trkpt>
      <trkpt lat="45.38861" lon="4.59875">
        <ele>1393.6</ele>
        <time>2026-08-18T12:25:08.978Z</time>
      </trkpt>
      <trkpt lat="45.38862" lon="4.59878">
        <ele>1393.5</ele>
        <time>2026-08-18T12:25:10.978Z</time>
      </trkpt>
      <trkpt lat="45.38862" lon="4.59881">
        <ele>1393</ele>
        <time>2026-08-18T12:25:12.981Z</time>
      </trkpt>
      <trkpt lat="45.38863" lon="4.59885">
        <ele>1392.5</ele>
        <time>2026-08-18T12:25:14.978Z</time>
      </trkpt>
      <trkpt lat="45.38863" lon="4.59886">
        <ele>1392.7</ele>
        <time>2026-08-18T12:25:15.979Z</time>
      </trkpt>
      <trkpt lat="45.38864" lon="4.59889">
        <ele>1392.9</ele>
        <time>2026-08-18T12:25:17.979Z</time>
      </trkpt>
      <trkpt lat="45.38866" lon="4.59892">
        <ele>1392.5</ele>
        <time>2026-08-18T12:25:19.979Z</time>
      </trkpt>
      <trkpt lat="45.38867" lon="4.59894">
        <ele>1392.3</ele>
        <time>2026-08-18T12:25:21.979Z</time>
      </trkpt>
      <trkpt lat="45.38868" lon="4.59896">
        <ele>1392.6</ele>
        <time>2026-08-18T12:25:22.979Z</time>
      </trkpt>
      <trkpt lat="45.38869" lon="4.59896">
        <ele>1392.9</ele>
        <time>2026-08-18T12:25:24.978Z</time>
      </trkpt>
      <trkpt lat="45.38869" lon="4.59896">
        <ele>1392.9</ele>
        <time>2026-08-18T12:25:25.979Z</time>
      </trkpt>
      <trkpt lat="45.38868" lon="4.59896">
        <ele>1392.9</ele>
        <time>2026-08-18T12:25:26.979Z</time>
      </trkpt>
      <trkpt lat="45.38868" lon="4.59896">
        <ele>1392.9</ele>
        <time>2026-08-18T12:25:27.979Z</time>
      </trkpt>
      <trkpt lat="45.38868" lon="4.59896">
        <ele>1392.9</ele>
        <time>2026-08-18T12:25:29.978Z</time>
      </trkpt>
      <trkpt lat="45.38868" lon="4.59896">
        <ele>1392.8</ele>
        <time>2026-08-18T12:25:30.978Z</time>
      </trkpt>
      <trkpt lat="45.38868" lon="4.59896">
        <ele>1392.7</ele>
        <time>2026-08-18T12:25:31.979Z</time>
      </trkpt>
      <trkpt lat="45.38868" lon="4.59896">
        <ele>1392.7</ele>
        <time>2026-08-18T12:25:32.979Z</time>
      </trkpt>
      <trkpt lat="45.38868" lon="4.59896">
        <ele>1392.9</ele>
        <time>2026-08-18T12:25:33.979Z</time>
      </trkpt>
      <trkpt lat="45.38868" lon="4.59896">
        <ele>1392.7</ele>
        <time>2026-08-18T12:25:35.004Z</time>
      </trkpt>
      <trkpt lat="45.3887" lon="4.59899">
        <ele>1392.6</ele>
        <time>2026-08-18T12:25:36.979Z</time>
      </trkpt>
      <trkpt lat="45.38871" lon="4.599">
        <ele>1392.3</ele>
        <time>2026-08-18T12:25:37.979Z</time>
      </trkpt>
      <trkpt lat="45.38872" lon="4.59901">
        <ele>1392.3</ele>
        <time>2026-08-18T12:25:38.979Z</time>
      </trkpt>
      <trkpt lat="45.38873" lon="4.59903">
        <ele>1392.1</ele>
        <time>2026-08-18T12:25:39.979Z</time>
      </trkpt>
      <trkpt lat="45.38874" lon="4.59903">
        <ele>1392.1</ele>
        <time>2026-08-18T12:25:40.979Z</time>
      </trkpt>
      <trkpt lat="45.38876" lon="4.59904">
        <ele>1391.8</ele>
        <time>2026-08-18T12:25:41.979Z</time>
      </trkpt>
      <trkpt lat="45.38878" lon="4.59904">
        <ele>1391.4</ele>
        <time>2026-08-18T12:25:43.994Z</time>
      </trkpt>
      <trkpt lat="45.38881" lon="4.59904">
        <ele>1391.2</ele>
        <time>2026-08-18T12:25:45.978Z</time>
      </trkpt>
      <trkpt lat="45.38882" lon="4.59904">
        <ele>1391.5</ele>
        <time>2026-08-18T12:25:46.988Z</time>
      </trkpt>
      <trkpt lat="45.38885" lon="4.59903">
        <ele>1390.3</ele>
        <time>2026-08-18T12:25:48.979Z</time>
      </trkpt>
      <trkpt lat="45.38885" lon="4.59901">
        <ele>1390.5</ele>
        <time>2026-08-18T12:25:49.979Z</time>
      </trkpt>
      <trkpt lat="45.38885" lon="4.599">
        <ele>1390.9</ele>
        <time>2026-08-18T12:25:51.978Z</time>
      </trkpt>
      <trkpt lat="45.38885" lon="4.599">
        <ele>1390.9</ele>
        <time>2026-08-18T12:25:52.978Z</time>
      </trkpt>
      <trkpt lat="45.38885" lon="4.599">
        <ele>1390.9</ele>
        <time>2026-08-18T12:25:53.978Z</time>
      </trkpt>
      <trkpt lat="45.38885" lon="4.599">
        <ele>1390.9</ele>
        <time>2026-08-18T12:25:54.979Z</time>
      </trkpt>
      <trkpt lat="45.38885" lon="4.599">
        <ele>1390.9</ele>
        <time>2026-08-18T12:25:56.978Z</time>
      </trkpt>
      <trkpt lat="45.38885" lon="4.599">
        <ele>1390.9</ele>
        <time>2026-08-18T12:25:57.978Z</time>
      </trkpt>
      <trkpt lat="45.38885" lon="4.599">
        <ele>1390.9</ele>
        <time>2026-08-18T12:25:58.979Z</time>
      </trkpt>
      <trkpt lat="45.38885" lon="4.599">
        <ele>1390.9</ele>
        <time>2026-08-18T12:25:59.979Z</time>
      </trkpt>
      <trkpt lat="45.38885" lon="4.599">
        <ele>1390.7</ele>
        <time>2026-08-18T12:26:00.979Z</time>
      </trkpt>
      <trkpt lat="45.38884" lon="4.599">
        <ele>1390.7</ele>
        <time>2026-08-18T12:26:01.979Z</time>
      </trkpt>
      <trkpt lat="45.38884" lon="4.599">
        <ele>1391.2</ele>
        <time>2026-08-18T12:26:02.979Z</time>
      </trkpt>
      <trkpt lat="45.38884" lon="4.599">
        <ele>1391.9</ele>
        <time>2026-08-18T12:26:03.979Z</time>
      </trkpt>
      <trkpt lat="45.38885" lon="4.59901">
        <ele>1392.1</ele>
        <time>2026-08-18T12:26:05.978Z</time>
      </trkpt>
      <trkpt lat="45.38887" lon="4.59903">
        <ele>1392.2</ele>
        <time>2026-08-18T12:26:06.979Z</time>
      </trkpt>
      <trkpt lat="45.38889" lon="4.59905">
        <ele>1392.3</ele>
        <time>2026-08-18T12:26:08.979Z</time>
      </trkpt>
      <trkpt lat="45.38891" lon="4.59907">
        <ele>1392.3</ele>
        <time>2026-08-18T12:26:10.979Z</time>
      </trkpt>
      <trkpt lat="45.38893" lon="4.59907">
        <ele>1392.1</ele>
        <time>2026-08-18T12:26:12.894Z</time>
      </trkpt>
      <trkpt lat="45.38894" lon="4.59907">
        <ele>1392.9</ele>
        <time>2026-08-18T12:26:13.979Z</time>
      </trkpt>
      <trkpt lat="45.38896" lon="4.59907">
        <ele>1392.8</ele>
        <time>2026-08-18T12:26:14.979Z</time>
      </trkpt>
      <trkpt lat="45.38897" lon="4.59907">
        <ele>1392.4</ele>
        <time>2026-08-18T12:26:15.979Z</time>
      </trkpt>
      <trkpt lat="45.389" lon="4.59906">
        <ele>1392.4</ele>
        <time>2026-08-18T12:26:17.978Z</time>
      </trkpt>
      <trkpt lat="45.38901" lon="4.59906">
        <ele>1392.5</ele>
        <time>2026-08-18T12:26:18.978Z</time>
      </trkpt>
      <trkpt lat="45.38904" lon="4.59907">
        <ele>1392.8</ele>
        <time>2026-08-18T12:26:20.978Z</time>
      </trkpt>
      <trkpt lat="45.38906" lon="4.59907">
        <ele>1392.7</ele>
        <time>2026-08-18T12:26:21.978Z</time>
      </trkpt>
      <trkpt lat="45.38907" lon="4.59908">
        <ele>1392.4</ele>
        <time>2026-08-18T12:26:22.978Z</time>
      </trkpt>
      <trkpt lat="45.38908" lon="4.59908">
        <ele>1392.5</ele>
        <time>2026-08-18T12:26:23.979Z</time>
      </trkpt>
      <trkpt lat="45.38909" lon="4.59908">
        <ele>1392.4</ele>
        <time>2026-08-18T12:26:24.979Z</time>
      </trkpt>
      <trkpt lat="45.38911" lon="4.59908">
        <ele>1392.4</ele>
        <time>2026-08-18T12:26:25.999Z</time>
      </trkpt>
      <trkpt lat="45.38913" lon="4.59909">
        <ele>1392</ele>
        <time>2026-08-18T12:26:27.979Z</time>
      </trkpt>
      <trkpt lat="45.38916" lon="4.5991">
        <ele>1392.1</ele>
        <time>2026-08-18T12:26:29.978Z</time>
      </trkpt>
      <trkpt lat="45.38917" lon="4.5991">
        <ele>1392.3</ele>
        <time>2026-08-18T12:26:30.978Z</time>
      </trkpt>
      <trkpt lat="45.38918" lon="4.59911">
        <ele>1392.6</ele>
        <time>2026-08-18T12:26:31.979Z</time>
      </trkpt>
      <trkpt lat="45.3892" lon="4.59911">
        <ele>1392.4</ele>
        <time>2026-08-18T12:26:33.979Z</time>
      </trkpt>
      <trkpt lat="45.38922" lon="4.59912">
        <ele>1392</ele>
        <time>2026-08-18T12:26:35.978Z</time>
      </trkpt>
      <trkpt lat="45.38923" lon="4.59913">
        <ele>1391.8</ele>
        <time>2026-08-18T12:26:36.979Z</time>
      </trkpt>
      <trkpt lat="45.38924" lon="4.59913">
        <ele>1391.8</ele>
        <time>2026-08-18T12:26:37.981Z</time>
      </trkpt>
      <trkpt lat="45.38926" lon="4.59914">
        <ele>1390.7</ele>
        <time>2026-08-18T12:26:39.882Z</time>
      </trkpt>
      <trkpt lat="45.38927" lon="4.59915">
        <ele>1390.4</ele>
        <time>2026-08-18T12:26:40.995Z</time>
      </trkpt>
      <trkpt lat="45.38928" lon="4.59915">
        <ele>1391.1</ele>
        <time>2026-08-18T12:26:42.978Z</time>
      </trkpt>
      <trkpt lat="45.38929" lon="4.59916">
        <ele>1391.1</ele>
        <time>2026-08-18T12:26:43.979Z</time>
      </trkpt>
      <trkpt lat="45.3893" lon="4.59916">
        <ele>1391.2</ele>
        <time>2026-08-18T12:26:45.979Z</time>
      </trkpt>
      <trkpt lat="45.38932" lon="4.59918">
        <ele>1391</ele>
        <time>2026-08-18T12:26:47.979Z</time>
      </trkpt>
      <trkpt lat="45.38931" lon="4.59919">
        <ele>1391</ele>
        <time>2026-08-18T12:26:49.979Z</time>
      </trkpt>
      <trkpt lat="45.38931" lon="4.59919">
        <ele>1391</ele>
        <time>2026-08-18T12:26:50.979Z</time>
      </trkpt>
      <trkpt lat="45.38931" lon="4.59918">
        <ele>1391</ele>
        <time>2026-08-18T12:26:52.979Z</time>
      </trkpt>
      <trkpt lat="45.38931" lon="4.59917">
        <ele>1391</ele>
        <time>2026-08-18T12:26:54.978Z</time>
      </trkpt>
      <trkpt lat="45.38931" lon="4.59917">
        <ele>1391</ele>
        <time>2026-08-18T12:26:55.979Z</time>
      </trkpt>
      <trkpt lat="45.38931" lon="4.59917">
        <ele>1391</ele>
        <time>2026-08-18T12:26:57.979Z</time>
      </trkpt>
      <trkpt lat="45.38931" lon="4.59917">
        <ele>1391.1</ele>
        <time>2026-08-18T12:26:58.994Z</time>
      </trkpt>
      <trkpt lat="45.38932" lon="4.59918">
        <ele>1391.2</ele>
        <time>2026-08-18T12:27:00.978Z</time>
      </trkpt>
      <trkpt lat="45.38933" lon="4.59918">
        <ele>1391.3</ele>
        <time>2026-08-18T12:27:01.979Z</time>
      </trkpt>
      <trkpt lat="45.38934" lon="4.59918">
        <ele>1391.3</ele>
        <time>2026-08-18T12:27:02.981Z</time>
      </trkpt>
      <trkpt lat="45.38937" lon="4.5992">
        <ele>1391</ele>
        <time>2026-08-18T12:27:04.979Z</time>
      </trkpt>
      <trkpt lat="45.3894" lon="4.59923">
        <ele>1391.2</ele>
        <time>2026-08-18T12:27:06.975Z</time>
      </trkpt>
      <trkpt lat="45.38941" lon="4.59924">
        <ele>1391.4</ele>
        <time>2026-08-18T12:27:07.979Z</time>
      </trkpt>
      <trkpt lat="45.38944" lon="4.59926">
        <ele>1390.5</ele>
        <time>2026-08-18T12:27:09.979Z</time>
      </trkpt>
      <trkpt lat="45.38945" lon="4.59927">
        <ele>1390.5</ele>
        <time>2026-08-18T12:27:10.979Z</time>
      </trkpt>
      <trkpt lat="45.38948" lon="4.59928">
        <ele>1390.5</ele>
        <time>2026-08-18T12:27:12.979Z</time>
      </trkpt>
      <trkpt lat="45.38951" lon="4.5993">
        <ele>1390.3</ele>
        <time>2026-08-18T12:27:14.978Z</time>
      </trkpt>
      <trkpt lat="45.38952" lon="4.5993">
        <ele>1390.3</ele>
        <time>2026-08-18T12:27:15.998Z</time>
      </trkpt>
      <trkpt lat="45.38955" lon="4.59932">
        <ele>1389.4</ele>
        <time>2026-08-18T12:27:17.979Z</time>
      </trkpt>
      <trkpt lat="45.38957" lon="4.59934">
        <ele>1389.4</ele>
        <time>2026-08-18T12:27:19.978Z</time>
      </trkpt>
      <trkpt lat="45.38958" lon="4.59935">
        <ele>1388.7</ele>
        <time>2026-08-18T12:27:20.978Z</time>
      </trkpt>
      <trkpt lat="45.3896" lon="4.59936">
        <ele>1389</ele>
        <time>2026-08-18T12:27:21.978Z</time>
      </trkpt>
      <trkpt lat="45.38961" lon="4.59936">
        <ele>1389</ele>
        <time>2026-08-18T12:27:22.979Z</time>
      </trkpt>
      <trkpt lat="45.38962" lon="4.59938">
        <ele>1388.8</ele>
        <time>2026-08-18T12:27:23.979Z</time>
      </trkpt>
      <trkpt lat="45.38962" lon="4.59939">
        <ele>1388.8</ele>
        <time>2026-08-18T12:27:24.979Z</time>
      </trkpt>
      <trkpt lat="45.38963" lon="4.5994">
        <ele>1389.1</ele>
        <time>2026-08-18T12:27:25.979Z</time>
      </trkpt>
      <trkpt lat="45.38965" lon="4.59941">
        <ele>1389.6</ele>
        <time>2026-08-18T12:27:27.978Z</time>
      </trkpt>
      <trkpt lat="45.38966" lon="4.59941">
        <ele>1390</ele>
        <time>2026-08-18T12:27:28.979Z</time>
      </trkpt>
      <trkpt lat="45.38966" lon="4.5994">
        <ele>1390.3</ele>
        <time>2026-08-18T12:27:29.979Z</time>
      </trkpt>
      <trkpt lat="45.38967" lon="4.59939">
        <ele>1390.1</ele>
        <time>2026-08-18T12:27:30.979Z</time>
      </trkpt>
      <trkpt lat="45.38969" lon="4.59937">
        <ele>1389.1</ele>
        <time>2026-08-18T12:27:32.979Z</time>
      </trkpt>
      <trkpt lat="45.38971" lon="4.59937">
        <ele>1388.8</ele>
        <time>2026-08-18T12:27:34.978Z</time>
      </trkpt>
      <trkpt lat="45.38973" lon="4.59936">
        <ele>1388.5</ele>
        <time>2026-08-18T12:27:35.978Z</time>
      </trkpt>
      <trkpt lat="45.38974" lon="4.59936">
        <ele>1389.3</ele>
        <time>2026-08-18T12:27:36.978Z</time>
      </trkpt>
      <trkpt lat="45.38975" lon="4.59936">
        <ele>1389.1</ele>
        <time>2026-08-18T12:27:37.979Z</time>
      </trkpt>
      <trkpt lat="45.38976" lon="4.59936">
        <ele>1388.3</ele>
        <time>2026-08-18T12:27:38.979Z</time>
      </trkpt>
      <trkpt lat="45.38979" lon="4.59937">
        <ele>1388.1</ele>
        <time>2026-08-18T12:27:40.979Z</time>
      </trkpt>
      <trkpt lat="45.38981" lon="4.59939">
        <ele>1388.1</ele>
        <time>2026-08-18T12:27:42.979Z</time>
      </trkpt>
      <trkpt lat="45.38981" lon="4.5994">
        <ele>1388.1</ele>
        <time>2026-08-18T12:27:43.979Z</time>
      </trkpt>
      <trkpt lat="45.38983" lon="4.59943">
        <ele>1388.4</ele>
        <time>2026-08-18T12:27:45.979Z</time>
      </trkpt>
      <trkpt lat="45.38984" lon="4.59943">
        <ele>1388.2</ele>
        <time>2026-08-18T12:27:46.979Z</time>
      </trkpt>
      <trkpt lat="45.38985" lon="4.59942">
        <ele>1387.8</ele>
        <time>2026-08-18T12:27:48.977Z</time>
      </trkpt>
      <trkpt lat="45.38987" lon="4.59941">
        <ele>1385.6</ele>
        <time>2026-08-18T12:27:50.978Z</time>
      </trkpt>
      <trkpt lat="45.38988" lon="4.59941">
        <ele>1385.6</ele>
        <time>2026-08-18T12:27:51.978Z</time>
      </trkpt>
      <trkpt lat="45.3899" lon="4.5994">
        <ele>1384</ele>
        <time>2026-08-18T12:27:53.979Z</time>
      </trkpt>
      <trkpt lat="45.38992" lon="4.59939">
        <ele>1383.5</ele>
        <time>2026-08-18T12:27:55.995Z</time>
      </trkpt>
      <trkpt lat="45.38994" lon="4.59938">
        <ele>1381.1</ele>
        <time>2026-08-18T12:27:57.979Z</time>
      </trkpt>
      <trkpt lat="45.38995" lon="4.59937">
        <ele>1381.6</ele>
        <time>2026-08-18T12:27:58.979Z</time>
      </trkpt>
      <trkpt lat="45.38995" lon="4.59936">
        <ele>1381.8</ele>
        <time>2026-08-18T12:27:59.979Z</time>
      </trkpt>
      <trkpt lat="45.38996" lon="4.59935">
        <ele>1381.8</ele>
        <time>2026-08-18T12:28:00.979Z</time>
      </trkpt>
      <trkpt lat="45.38997" lon="4.59933">
        <ele>1381.8</ele>
        <time>2026-08-18T12:28:02.979Z</time>
      </trkpt>
      <trkpt lat="45.39" lon="4.59933">
        <ele>1382.5</ele>
        <time>2026-08-18T12:28:04.979Z</time>
      </trkpt>
      <trkpt lat="45.39001" lon="4.59933">
        <ele>1382.2</ele>
        <time>2026-08-18T12:28:05.979Z</time>
      </trkpt>
      <trkpt lat="45.39003" lon="4.59933">
        <ele>1381.3</ele>
        <time>2026-08-18T12:28:07.979Z</time>
      </trkpt>
      <trkpt lat="45.39004" lon="4.59932">
        <ele>1380.7</ele>
        <time>2026-08-18T12:28:08.979Z</time>
      </trkpt>
      <trkpt lat="45.39006" lon="4.59932">
        <ele>1381.4</ele>
        <time>2026-08-18T12:28:10.979Z</time>
      </trkpt>
      <trkpt lat="45.39007" lon="4.59932">
        <ele>1381.7</ele>
        <time>2026-08-18T12:28:11.979Z</time>
      </trkpt>
      <trkpt lat="45.39009" lon="4.59933">
        <ele>1381.8</ele>
        <time>2026-08-18T12:28:13.979Z</time>
      </trkpt>
      <trkpt lat="45.3901" lon="4.59934">
        <ele>1381.7</ele>
        <time>2026-08-18T12:28:14.979Z</time>
      </trkpt>
      <trkpt lat="45.39012" lon="4.59936">
        <ele>1381.6</ele>
        <time>2026-08-18T12:28:16.979Z</time>
      </trkpt>
      <trkpt lat="45.39014" lon="4.59938">
        <ele>1381</ele>
        <time>2026-08-18T12:28:18.978Z</time>
      </trkpt>
      <trkpt lat="45.39015" lon="4.59938">
        <ele>1380.9</ele>
        <time>2026-08-18T12:28:19.979Z</time>
      </trkpt>
      <trkpt lat="45.39017" lon="4.59939">
        <ele>1381.2</ele>
        <time>2026-08-18T12:28:21.957Z</time>
      </trkpt>
      <trkpt lat="45.39018" lon="4.59939">
        <ele>1380.6</ele>
        <time>2026-08-18T12:28:22.980Z</time>
      </trkpt>
      <trkpt lat="45.3902" lon="4.59939">
        <ele>1379.4</ele>
        <time>2026-08-18T12:28:24.943Z</time>
      </trkpt>
      <trkpt lat="45.3902" lon="4.59938">
        <ele>1378.6</ele>
        <time>2026-08-18T12:28:25.979Z</time>
      </trkpt>
      <trkpt lat="45.39021" lon="4.59937">
        <ele>1379.3</ele>
        <time>2026-08-18T12:28:26.979Z</time>
      </trkpt>
      <trkpt lat="45.39021" lon="4.59934">
        <ele>1379.8</ele>
        <time>2026-08-18T12:28:28.979Z</time>
      </trkpt>
      <trkpt lat="45.39021" lon="4.59931">
        <ele>1377.4</ele>
        <time>2026-08-18T12:28:30.979Z</time>
      </trkpt>
      <trkpt lat="45.3902" lon="4.59927">
        <ele>1377.7</ele>
        <time>2026-08-18T12:28:32.883Z</time>
      </trkpt>
      <trkpt lat="45.39018" lon="4.59924">
        <ele>1376.8</ele>
        <time>2026-08-18T12:28:34.979Z</time>
      </trkpt>
      <trkpt lat="45.39017" lon="4.59922">
        <ele>1377.8</ele>
        <time>2026-08-18T12:28:36.979Z</time>
      </trkpt>
      <trkpt lat="45.39016" lon="4.59921">
        <ele>1377.7</ele>
        <time>2026-08-18T12:28:37.979Z</time>
      </trkpt>
      <trkpt lat="45.39015" lon="4.59918">
        <ele>1378.2</ele>
        <time>2026-08-18T12:28:39.984Z</time>
      </trkpt>
      <trkpt lat="45.39014" lon="4.59916">
        <ele>1378.2</ele>
        <time>2026-08-18T12:28:41.979Z</time>
      </trkpt>
      <trkpt lat="45.39013" lon="4.59914">
        <ele>1378.8</ele>
        <time>2026-08-18T12:28:42.979Z</time>
      </trkpt>
      <trkpt lat="45.39012" lon="4.59912">
        <ele>1376.2</ele>
        <time>2026-08-18T12:28:44.977Z</time>
      </trkpt>
      <trkpt lat="45.39011" lon="4.59911">
        <ele>1375.4</ele>
        <time>2026-08-18T12:28:45.979Z</time>
      </trkpt>
      <trkpt lat="45.3901" lon="4.59911">
        <ele>1374.6</ele>
        <time>2026-08-18T12:28:46.979Z</time>
      </trkpt>
      <trkpt lat="45.39009" lon="4.5991">
        <ele>1374.1</ele>
        <time>2026-08-18T12:28:47.979Z</time>
      </trkpt>
      <trkpt lat="45.39008" lon="4.59907">
        <ele>1374.5</ele>
        <time>2026-08-18T12:28:50.256Z</time>
      </trkpt>
      <trkpt lat="45.39008" lon="4.59906">
        <ele>1374.8</ele>
        <time>2026-08-18T12:28:51.455Z</time>
      </trkpt>
      <trkpt lat="45.39007" lon="4.59904">
        <ele>1375.7</ele>
        <time>2026-08-18T12:28:52.719Z</time>
      </trkpt>
      <trkpt lat="45.39006" lon="4.59902">
        <ele>1376.1</ele>
        <time>2026-08-18T12:28:53.979Z</time>
      </trkpt>
      <trkpt lat="45.39005" lon="4.599">
        <ele>1376.9</ele>
        <time>2026-08-18T12:28:55.978Z</time>
      </trkpt>
      <trkpt lat="45.39004" lon="4.59899">
        <ele>1377.2</ele>
        <time>2026-08-18T12:28:56.979Z</time>
      </trkpt>
      <trkpt lat="45.39003" lon="4.59896">
        <ele>1377.1</ele>
        <time>2026-08-18T12:28:58.979Z</time>
      </trkpt>
      <trkpt lat="45.39002" lon="4.59895">
        <ele>1377.1</ele>
        <time>2026-08-18T12:29:00.003Z</time>
      </trkpt>
      <trkpt lat="45.39" lon="4.59893">
        <ele>1376.7</ele>
        <time>2026-08-18T12:29:01.979Z</time>
      </trkpt>
      <trkpt lat="45.38999" lon="4.59891">
        <ele>1376.9</ele>
        <time>2026-08-18T12:29:03.978Z</time>
      </trkpt>
      <trkpt lat="45.38998" lon="4.5989">
        <ele>1375.9</ele>
        <time>2026-08-18T12:29:04.979Z</time>
      </trkpt>
      <trkpt lat="45.38997" lon="4.59889">
        <ele>1375.5</ele>
        <time>2026-08-18T12:29:06.979Z</time>
      </trkpt>
      <trkpt lat="45.38995" lon="4.59887">
        <ele>1375.7</ele>
        <time>2026-08-18T12:29:08.979Z</time>
      </trkpt>
      <trkpt lat="45.38994" lon="4.59884">
        <ele>1376.7</ele>
        <time>2026-08-18T12:29:10.979Z</time>
      </trkpt>
      <trkpt lat="45.38993" lon="4.59881">
        <ele>1377.8</ele>
        <time>2026-08-18T12:29:12.979Z</time>
      </trkpt>
      <trkpt lat="45.38992" lon="4.59879">
        <ele>1377.3</ele>
        <time>2026-08-18T12:29:13.989Z</time>
      </trkpt>
      <trkpt lat="45.38991" lon="4.59876">
        <ele>1377</ele>
        <time>2026-08-18T12:29:15.979Z</time>
      </trkpt>
      <trkpt lat="45.3899" lon="4.59874">
        <ele>1376.6</ele>
        <time>2026-08-18T12:29:17.982Z</time>
      </trkpt>
      <trkpt lat="45.38988" lon="4.59871">
        <ele>1376</ele>
        <time>2026-08-18T12:29:19.979Z</time>
      </trkpt>
      <trkpt lat="45.38988" lon="4.5987">
        <ele>1376.1</ele>
        <time>2026-08-18T12:29:20.979Z</time>
      </trkpt>
      <trkpt lat="45.38987" lon="4.59868">
        <ele>1375.9</ele>
        <time>2026-08-18T12:29:21.979Z</time>
      </trkpt>
      <trkpt lat="45.38987" lon="4.59865">
        <ele>1374.6</ele>
        <time>2026-08-18T12:29:23.979Z</time>
      </trkpt>
      <trkpt lat="45.38986" lon="4.59862">
        <ele>1375</ele>
        <time>2026-08-18T12:29:25.978Z</time>
      </trkpt>
      <trkpt lat="45.38985" lon="4.59859">
        <ele>1374.4</ele>
        <time>2026-08-18T12:29:27.978Z</time>
      </trkpt>
      <trkpt lat="45.38984" lon="4.59858">
        <ele>1374</ele>
        <time>2026-08-18T12:29:28.978Z</time>
      </trkpt>
      <trkpt lat="45.38983" lon="4.59857">
        <ele>1373.7</ele>
        <time>2026-08-18T12:29:29.978Z</time>
      </trkpt>
      <trkpt lat="45.38982" lon="4.59854">
        <ele>1373.4</ele>
        <time>2026-08-18T12:29:31.979Z</time>
      </trkpt>
      <trkpt lat="45.3898" lon="4.59852">
        <ele>1374.3</ele>
        <time>2026-08-18T12:29:33.979Z</time>
      </trkpt>
      <trkpt lat="45.38979" lon="4.5985">
        <ele>1374.4</ele>
        <time>2026-08-18T12:29:34.979Z</time>
      </trkpt>
      <trkpt lat="45.38978" lon="4.59847">
        <ele>1373.9</ele>
        <time>2026-08-18T12:29:36.977Z</time>
      </trkpt>
      <trkpt lat="45.38978" lon="4.59846">
        <ele>1374.1</ele>
        <time>2026-08-18T12:29:37.978Z</time>
      </trkpt>
      <trkpt lat="45.38977" lon="4.59844">
        <ele>1373.9</ele>
        <time>2026-08-18T12:29:38.978Z</time>
      </trkpt>
      <trkpt lat="45.38976" lon="4.59841">
        <ele>1373.2</ele>
        <time>2026-08-18T12:29:40.977Z</time>
      </trkpt>
      <trkpt lat="45.38976" lon="4.59839">
        <ele>1373.1</ele>
        <time>2026-08-18T12:29:41.978Z</time>
      </trkpt>
      <trkpt lat="45.38976" lon="4.59838">
        <ele>1373.3</ele>
        <time>2026-08-18T12:29:42.978Z</time>
      </trkpt>
      <trkpt lat="45.38975" lon="4.59836">
        <ele>1373.2</ele>
        <time>2026-08-18T12:29:43.978Z</time>
      </trkpt>
      <trkpt lat="45.38974" lon="4.59833">
        <ele>1372.3</ele>
        <time>2026-08-18T12:29:45.977Z</time>
      </trkpt>
      <trkpt lat="45.38974" lon="4.59831">
        <ele>1372.3</ele>
        <time>2026-08-18T12:29:46.995Z</time>
      </trkpt>
      <trkpt lat="45.38973" lon="4.59828">
        <ele>1371</ele>
        <time>2026-08-18T12:29:48.977Z</time>
      </trkpt>
      <trkpt lat="45.38973" lon="4.59827">
        <ele>1370.8</ele>
        <time>2026-08-18T12:29:49.978Z</time>
      </trkpt>
      <trkpt lat="45.38972" lon="4.59824">
        <ele>1372.1</ele>
        <time>2026-08-18T12:29:51.978Z</time>
      </trkpt>
      <trkpt lat="45.38971" lon="4.59821">
        <ele>1372</ele>
        <time>2026-08-18T12:29:53.977Z</time>
      </trkpt>
      <trkpt lat="45.38971" lon="4.5982">
        <ele>1371.8</ele>
        <time>2026-08-18T12:29:54.978Z</time>
      </trkpt>
      <trkpt lat="45.3897" lon="4.59818">
        <ele>1371.8</ele>
        <time>2026-08-18T12:29:55.981Z</time>
      </trkpt>
      <trkpt lat="45.38971" lon="4.59815">
        <ele>1372.6</ele>
        <time>2026-08-18T12:29:57.998Z</time>
      </trkpt>
      <trkpt lat="45.38972" lon="4.59812">
        <ele>1373.7</ele>
        <time>2026-08-18T12:30:00.044Z</time>
      </trkpt>
      <trkpt lat="45.38971" lon="4.59809">
        <ele>1372.5</ele>
        <time>2026-08-18T12:30:01.978Z</time>
      </trkpt>
      <trkpt lat="45.38971" lon="4.59808">
        <ele>1372.2</ele>
        <time>2026-08-18T12:30:02.978Z</time>
      </trkpt>
      <trkpt lat="45.3897" lon="4.59807">
        <ele>1372.7</ele>
        <time>2026-08-18T12:30:03.978Z</time>
      </trkpt>
      <trkpt lat="45.38968" lon="4.59804">
        <ele>1372.3</ele>
        <time>2026-08-18T12:30:05.978Z</time>
      </trkpt>
      <trkpt lat="45.38968" lon="4.59801">
        <ele>1372.2</ele>
        <time>2026-08-18T12:30:07.896Z</time>
      </trkpt>
      <trkpt lat="45.38967" lon="4.598">
        <ele>1371</ele>
        <time>2026-08-18T12:30:08.988Z</time>
      </trkpt>
      <trkpt lat="45.38966" lon="4.59797">
        <ele>1370.9</ele>
        <time>2026-08-18T12:30:10.978Z</time>
      </trkpt>
      <trkpt lat="45.38964" lon="4.59795">
        <ele>1371.2</ele>
        <time>2026-08-18T12:30:12.980Z</time>
      </trkpt>
      <trkpt lat="45.38963" lon="4.59793">
        <ele>1372.2</ele>
        <time>2026-08-18T12:30:14.978Z</time>
      </trkpt>
      <trkpt lat="45.38962" lon="4.59791">
        <ele>1372.6</ele>
        <time>2026-08-18T12:30:15.978Z</time>
      </trkpt>
      <trkpt lat="45.38961" lon="4.59789">
        <ele>1373.6</ele>
        <time>2026-08-18T12:30:17.977Z</time>
      </trkpt>
      <trkpt lat="45.3896" lon="4.59788">
        <ele>1372.6</ele>
        <time>2026-08-18T12:30:18.978Z</time>
      </trkpt>
      <trkpt lat="45.38959" lon="4.59788">
        <ele>1371.8</ele>
        <time>2026-08-18T12:30:19.978Z</time>
      </trkpt>
      <trkpt lat="45.38958" lon="4.59787">
        <ele>1371.8</ele>
        <time>2026-08-18T12:30:20.981Z</time>
      </trkpt>
      <trkpt lat="45.38958" lon="4.59786">
        <ele>1370.8</ele>
        <time>2026-08-18T12:30:21.996Z</time>
      </trkpt>
      <trkpt lat="45.38957" lon="4.59784">
        <ele>1370.6</ele>
        <time>2026-08-18T12:30:23.043Z</time>
      </trkpt>
      <trkpt lat="45.38957" lon="4.59781">
        <ele>1369.9</ele>
        <time>2026-08-18T12:30:24.978Z</time>
      </trkpt>
      <trkpt lat="45.38957" lon="4.5978">
        <ele>1369.5</ele>
        <time>2026-08-18T12:30:25.978Z</time>
      </trkpt>
      <trkpt lat="45.38957" lon="4.59778">
        <ele>1369.6</ele>
        <time>2026-08-18T12:30:27.978Z</time>
      </trkpt>
      <trkpt lat="45.38957" lon="4.59775">
        <ele>1368.9</ele>
        <time>2026-08-18T12:30:29.982Z</time>
      </trkpt>
      <trkpt lat="45.38956" lon="4.59772">
        <ele>1369.1</ele>
        <time>2026-08-18T12:30:31.977Z</time>
      </trkpt>
      <trkpt lat="45.38955" lon="4.5977">
        <ele>1368.2</ele>
        <time>2026-08-18T12:30:32.977Z</time>
      </trkpt>
      <trkpt lat="45.38954" lon="4.59767">
        <ele>1368</ele>
        <time>2026-08-18T12:30:34.977Z</time>
      </trkpt>
      <trkpt lat="45.38954" lon="4.59765">
        <ele>1367.2</ele>
        <time>2026-08-18T12:30:35.978Z</time>
      </trkpt>
      <trkpt lat="45.38953" lon="4.59761">
        <ele>1368</ele>
        <time>2026-08-18T12:30:37.978Z</time>
      </trkpt>
      <trkpt lat="45.38953" lon="4.5976">
        <ele>1368.1</ele>
        <time>2026-08-18T12:30:38.996Z</time>
      </trkpt>
      <trkpt lat="45.38953" lon="4.59756">
        <ele>1368.4</ele>
        <time>2026-08-18T12:30:40.978Z</time>
      </trkpt>
      <trkpt lat="45.38952" lon="4.59752">
        <ele>1368.7</ele>
        <time>2026-08-18T12:30:42.956Z</time>
      </trkpt>
      <trkpt lat="45.38952" lon="4.59751">
        <ele>1369</ele>
        <time>2026-08-18T12:30:43.977Z</time>
      </trkpt>
      <trkpt lat="45.38952" lon="4.59749">
        <ele>1368.7</ele>
        <time>2026-08-18T12:30:44.978Z</time>
      </trkpt>
      <trkpt lat="45.38951" lon="4.59747">
        <ele>1369.1</ele>
        <time>2026-08-18T12:30:45.978Z</time>
      </trkpt>
      <trkpt lat="45.38951" lon="4.59744">
        <ele>1369.6</ele>
        <time>2026-08-18T12:30:47.976Z</time>
      </trkpt>
      <trkpt lat="45.38951" lon="4.59743">
        <ele>1369.8</ele>
        <time>2026-08-18T12:30:48.978Z</time>
      </trkpt>
      <trkpt lat="45.38951" lon="4.59741">
        <ele>1369.9</ele>
        <time>2026-08-18T12:30:49.978Z</time>
      </trkpt>
      <trkpt lat="45.38951" lon="4.59738">
        <ele>1370.7</ele>
        <time>2026-08-18T12:30:51.978Z</time>
      </trkpt>
      <trkpt lat="45.38952" lon="4.59736">
        <ele>1371.7</ele>
        <time>2026-08-18T12:30:52.978Z</time>
      </trkpt>
      <trkpt lat="45.38952" lon="4.59735">
        <ele>1372</ele>
        <time>2026-08-18T12:30:53.978Z</time>
      </trkpt>
      <trkpt lat="45.38953" lon="4.59733">
        <ele>1371.9</ele>
        <time>2026-08-18T12:30:54.978Z</time>
      </trkpt>
      <trkpt lat="45.38954" lon="4.5973">
        <ele>1372</ele>
        <time>2026-08-18T12:30:56.978Z</time>
      </trkpt>
      <trkpt lat="45.38954" lon="4.59728">
        <ele>1373.6</ele>
        <time>2026-08-18T12:30:57.978Z</time>
      </trkpt>
      <trkpt lat="45.38954" lon="4.59727">
        <ele>1373.9</ele>
        <time>2026-08-18T12:30:58.978Z</time>
      </trkpt>
      <trkpt lat="45.38954" lon="4.59725">
        <ele>1373.2</ele>
        <time>2026-08-18T12:30:59.993Z</time>
      </trkpt>
      <trkpt lat="45.38954" lon="4.59723">
        <ele>1372.3</ele>
        <time>2026-08-18T12:31:01.896Z</time>
      </trkpt>
      <trkpt lat="45.38954" lon="4.59721">
        <ele>1370.5</ele>
        <time>2026-08-18T12:31:02.977Z</time>
      </trkpt>
      <trkpt lat="45.38954" lon="4.59719">
        <ele>1370.9</ele>
        <time>2026-08-18T12:31:03.986Z</time>
      </trkpt>
      <trkpt lat="45.38952" lon="4.59717">
        <ele>1369.4</ele>
        <time>2026-08-18T12:31:05.978Z</time>
      </trkpt>
      <trkpt lat="45.38952" lon="4.59716">
        <ele>1370.3</ele>
        <time>2026-08-18T12:31:06.978Z</time>
      </trkpt>
      <trkpt lat="45.38952" lon="4.59715">
        <ele>1370.1</ele>
        <time>2026-08-18T12:31:07.980Z</time>
      </trkpt>
      <trkpt lat="45.38952" lon="4.59712">
        <ele>1370.8</ele>
        <time>2026-08-18T12:31:10.017Z</time>
      </trkpt>
      <trkpt lat="45.38951" lon="4.5971">
        <ele>1371.7</ele>
        <time>2026-08-18T12:31:11.977Z</time>
      </trkpt>
      <trkpt lat="45.38951" lon="4.59709">
        <ele>1371.9</ele>
        <time>2026-08-18T12:31:12.978Z</time>
      </trkpt>
      <trkpt lat="45.38951" lon="4.59707">
        <ele>1372.2</ele>
        <time>2026-08-18T12:31:13.978Z</time>
      </trkpt>
      <trkpt lat="45.38951" lon="4.59706">
        <ele>1371.3</ele>
        <time>2026-08-18T12:31:14.978Z</time>
      </trkpt>
      <trkpt lat="45.38951" lon="4.59703">
        <ele>1370.1</ele>
        <time>2026-08-18T12:31:16.977Z</time>
      </trkpt>
      <trkpt lat="45.38952" lon="4.597">
        <ele>1370.1</ele>
        <time>2026-08-18T12:31:19.003Z</time>
      </trkpt>
      <trkpt lat="45.38952" lon="4.59697">
        <ele>1370.3</ele>
        <time>2026-08-18T12:31:20.988Z</time>
      </trkpt>
      <trkpt lat="45.38953" lon="4.59695">
        <ele>1368</ele>
        <time>2026-08-18T12:31:22.977Z</time>
      </trkpt>
      <trkpt lat="45.38953" lon="4.59693">
        <ele>1368</ele>
        <time>2026-08-18T12:31:23.995Z</time>
      </trkpt>
      <trkpt lat="45.38954" lon="4.5969">
        <ele>1366.4</ele>
        <time>2026-08-18T12:31:25.978Z</time>
      </trkpt>
      <trkpt lat="45.38954" lon="4.59687">
        <ele>1368.8</ele>
        <time>2026-08-18T12:31:27.978Z</time>
      </trkpt>
      <trkpt lat="45.38953" lon="4.59684">
        <ele>1368.4</ele>
        <time>2026-08-18T12:31:29.978Z</time>
      </trkpt>
      <trkpt lat="45.38953" lon="4.59683">
        <ele>1368.2</ele>
        <time>2026-08-18T12:31:30.978Z</time>
      </trkpt>
      <trkpt lat="45.38952" lon="4.5968">
        <ele>1368.1</ele>
        <time>2026-08-18T12:31:32.978Z</time>
      </trkpt>
      <trkpt lat="45.38952" lon="4.59679">
        <ele>1368.5</ele>
        <time>2026-08-18T12:31:33.978Z</time>
      </trkpt>
      <trkpt lat="45.38952" lon="4.59677">
        <ele>1368.2</ele>
        <time>2026-08-18T12:31:34.978Z</time>
      </trkpt>
      <trkpt lat="45.38953" lon="4.59674">
        <ele>1367.3</ele>
        <time>2026-08-18T12:31:36.978Z</time>
      </trkpt>
      <trkpt lat="45.38953" lon="4.59673">
        <ele>1366.9</ele>
        <time>2026-08-18T12:31:37.988Z</time>
      </trkpt>
      <trkpt lat="45.38953" lon="4.5967">
        <ele>1366.9</ele>
        <time>2026-08-18T12:31:39.922Z</time>
      </trkpt>
      <trkpt lat="45.38952" lon="4.59668">
        <ele>1367.1</ele>
        <time>2026-08-18T12:31:40.978Z</time>
      </trkpt>
      <trkpt lat="45.38952" lon="4.59666">
        <ele>1366.1</ele>
        <time>2026-08-18T12:31:41.983Z</time>
      </trkpt>
      <trkpt lat="45.38953" lon="4.59663">
        <ele>1365.6</ele>
        <time>2026-08-18T12:31:43.977Z</time>
      </trkpt>
      <trkpt lat="45.38953" lon="4.59662">
        <ele>1366.9</ele>
        <time>2026-08-18T12:31:44.978Z</time>
      </trkpt>
      <trkpt lat="45.38954" lon="4.59661">
        <ele>1367</ele>
        <time>2026-08-18T12:31:45.978Z</time>
      </trkpt>
      <trkpt lat="45.38954" lon="4.59658">
        <ele>1366.5</ele>
        <time>2026-08-18T12:31:47.977Z</time>
      </trkpt>
      <trkpt lat="45.38955" lon="4.59657">
        <ele>1366.8</ele>
        <time>2026-08-18T12:31:48.978Z</time>
      </trkpt>
      <trkpt lat="45.38955" lon="4.59655">
        <ele>1366.6</ele>
        <time>2026-08-18T12:31:49.978Z</time>
      </trkpt>
      <trkpt lat="45.38955" lon="4.59653">
        <ele>1366.6</ele>
        <time>2026-08-18T12:31:50.980Z</time>
      </trkpt>
      <trkpt lat="45.38956" lon="4.59651">
        <ele>1366.8</ele>
        <time>2026-08-18T12:31:52.978Z</time>
      </trkpt>
      <trkpt lat="45.38956" lon="4.59649">
        <ele>1366.6</ele>
        <time>2026-08-18T12:31:53.978Z</time>
      </trkpt>
      <trkpt lat="45.38956" lon="4.59648">
        <ele>1366.9</ele>
        <time>2026-08-18T12:31:54.978Z</time>
      </trkpt>
      <trkpt lat="45.38956" lon="4.59647">
        <ele>1366.3</ele>
        <time>2026-08-18T12:31:55.978Z</time>
      </trkpt>
      <trkpt lat="45.38956" lon="4.59645">
        <ele>1366.2</ele>
        <time>2026-08-18T12:31:56.978Z</time>
      </trkpt>
      <trkpt lat="45.38956" lon="4.59642">
        <ele>1366.9</ele>
        <time>2026-08-18T12:31:58.984Z</time>
      </trkpt>
      <trkpt lat="45.38957" lon="4.5964">
        <ele>1368.2</ele>
        <time>2026-08-18T12:32:00.977Z</time>
      </trkpt>
      <trkpt lat="45.38957" lon="4.59639">
        <ele>1367.5</ele>
        <time>2026-08-18T12:32:01.978Z</time>
      </trkpt>
      <trkpt lat="45.38957" lon="4.59636">
        <ele>1367.4</ele>
        <time>2026-08-18T12:32:03.976Z</time>
      </trkpt>
      <trkpt lat="45.38957" lon="4.59635">
        <ele>1367.7</ele>
        <time>2026-08-18T12:32:04.977Z</time>
      </trkpt>
      <trkpt lat="45.38958" lon="4.59632">
        <ele>1367.4</ele>
        <time>2026-08-18T12:32:06.977Z</time>
      </trkpt>
      <trkpt lat="45.38958" lon="4.59631">
        <ele>1366.9</ele>
        <time>2026-08-18T12:32:07.978Z</time>
      </trkpt>
      <trkpt lat="45.38958" lon="4.5963">
        <ele>1366.8</ele>
        <time>2026-08-18T12:32:08.978Z</time>
      </trkpt>
      <trkpt lat="45.38958" lon="4.59628">
        <ele>1367.4</ele>
        <time>2026-08-18T12:32:09.978Z</time>
      </trkpt>
      <trkpt lat="45.38958" lon="4.59625">
        <ele>1367.9</ele>
        <time>2026-08-18T12:32:11.992Z</time>
      </trkpt>
      <trkpt lat="45.38958" lon="4.59622">
        <ele>1369.2</ele>
        <time>2026-08-18T12:32:13.977Z</time>
      </trkpt>
      <trkpt lat="45.38958" lon="4.5962">
        <ele>1368.9</ele>
        <time>2026-08-18T12:32:14.978Z</time>
      </trkpt>
      <trkpt lat="45.38958" lon="4.59617">
        <ele>1369.5</ele>
        <time>2026-08-18T12:32:16.978Z</time>
      </trkpt>
      <trkpt lat="45.38958" lon="4.59616">
        <ele>1369.1</ele>
        <time>2026-08-18T12:32:17.978Z</time>
      </trkpt>
      <trkpt lat="45.38958" lon="4.59613">
        <ele>1370.6</ele>
        <time>2026-08-18T12:32:19.979Z</time>
      </trkpt>
      <trkpt lat="45.38958" lon="4.5961">
        <ele>1370</ele>
        <time>2026-08-18T12:32:21.998Z</time>
      </trkpt>
      <trkpt lat="45.38958" lon="4.59608">
        <ele>1369.5</ele>
        <time>2026-08-18T12:32:23.995Z</time>
      </trkpt>
      <trkpt lat="45.38959" lon="4.59603">
        <ele>1369</ele>
        <time>2026-08-18T12:32:25.915Z</time>
      </trkpt>
      <trkpt lat="45.38959" lon="4.596">
        <ele>1366.6</ele>
        <time>2026-08-18T12:32:26.978Z</time>
      </trkpt>
      <trkpt lat="45.38959" lon="4.59595">
        <ele>1365.2</ele>
        <time>2026-08-18T12:32:28.994Z</time>
      </trkpt>
      <trkpt lat="45.3896" lon="4.5959">
        <ele>1364.6</ele>
        <time>2026-08-18T12:32:30.978Z</time>
      </trkpt>
      <trkpt lat="45.3896" lon="4.59588">
        <ele>1366</ele>
        <time>2026-08-18T12:32:31.978Z</time>
      </trkpt>
      <trkpt lat="45.38961" lon="4.59584">
        <ele>1367.3</ele>
        <time>2026-08-18T12:32:33.978Z</time>
      </trkpt>
      <trkpt lat="45.38961" lon="4.59581">
        <ele>1368.3</ele>
        <time>2026-08-18T12:32:35.977Z</time>
      </trkpt>
      <trkpt lat="45.38961" lon="4.59579">
        <ele>1368</ele>
        <time>2026-08-18T12:32:37.977Z</time>
      </trkpt>
      <trkpt lat="45.38961" lon="4.59577">
        <ele>1368.9</ele>
        <time>2026-08-18T12:32:38.978Z</time>
      </trkpt>
      <trkpt lat="45.3896" lon="4.59576">
        <ele>1369.4</ele>
        <time>2026-08-18T12:32:39.978Z</time>
      </trkpt>
      <trkpt lat="45.3896" lon="4.59575">
        <ele>1368.9</ele>
        <time>2026-08-18T12:32:40.978Z</time>
      </trkpt>
      <trkpt lat="45.3896" lon="4.59573">
        <ele>1368.9</ele>
        <time>2026-08-18T12:32:41.993Z</time>
      </trkpt>
      <trkpt lat="45.38959" lon="4.59572">
        <ele>1368.3</ele>
        <time>2026-08-18T12:32:43.977Z</time>
      </trkpt>
      <trkpt lat="45.38958" lon="4.59569">
        <ele>1369.1</ele>
        <time>2026-08-18T12:32:45.978Z</time>
      </trkpt>
      <trkpt lat="45.38957" lon="4.59566">
        <ele>1370.5</ele>
        <time>2026-08-18T12:32:46.978Z</time>
      </trkpt>
      <trkpt lat="45.38956" lon="4.59562">
        <ele>1371.5</ele>
        <time>2026-08-18T12:32:49.002Z</time>
      </trkpt>
      <trkpt lat="45.38955" lon="4.59559">
        <ele>1373</ele>
        <time>2026-08-18T12:32:50.978Z</time>
      </trkpt>
      <trkpt lat="45.38955" lon="4.59556">
        <ele>1374.1</ele>
        <time>2026-08-18T12:32:52.881Z</time>
      </trkpt>
      <trkpt lat="45.38955" lon="4.59554">
        <ele>1375.1</ele>
        <time>2026-08-18T12:32:53.977Z</time>
      </trkpt>
      <trkpt lat="45.38955" lon="4.59553">
        <ele>1375.5</ele>
        <time>2026-08-18T12:32:54.978Z</time>
      </trkpt>
      <trkpt lat="45.38956" lon="4.5955">
        <ele>1375.5</ele>
        <time>2026-08-18T12:32:56.978Z</time>
      </trkpt>
      <trkpt lat="45.38956" lon="4.59549">
        <ele>1375.6</ele>
        <time>2026-08-18T12:32:57.978Z</time>
      </trkpt>
      <trkpt lat="45.38956" lon="4.59547">
        <ele>1375.5</ele>
        <time>2026-08-18T12:32:58.978Z</time>
      </trkpt>
      <trkpt lat="45.38956" lon="4.59544">
        <ele>1375</ele>
        <time>2026-08-18T12:33:00.978Z</time>
      </trkpt>
      <trkpt lat="45.38956" lon="4.59541">
        <ele>1376.1</ele>
        <time>2026-08-18T12:33:02.980Z</time>
      </trkpt>
      <trkpt lat="45.38955" lon="4.59538">
        <ele>1375.1</ele>
        <time>2026-08-18T12:33:04.978Z</time>
      </trkpt>
      <trkpt lat="45.38955" lon="4.59537">
        <ele>1375.4</ele>
        <time>2026-08-18T12:33:05.978Z</time>
      </trkpt>
      <trkpt lat="45.38955" lon="4.59536">
        <ele>1375.1</ele>
        <time>2026-08-18T12:33:06.990Z</time>
      </trkpt>
      <trkpt lat="45.38955" lon="4.59534">
        <ele>1375.2</ele>
        <time>2026-08-18T12:33:08.977Z</time>
      </trkpt>
      <trkpt lat="45.38954" lon="4.59533">
        <ele>1375</ele>
        <time>2026-08-18T12:33:09.977Z</time>
      </trkpt>
      <trkpt lat="45.38954" lon="4.59531">
        <ele>1374.6</ele>
        <time>2026-08-18T12:33:10.982Z</time>
      </trkpt>
      <trkpt lat="45.38954" lon="4.59529">
        <ele>1374.4</ele>
        <time>2026-08-18T12:33:12.978Z</time>
      </trkpt>
      <trkpt lat="45.38953" lon="4.59526">
        <ele>1374.3</ele>
        <time>2026-08-18T12:33:14.902Z</time>
      </trkpt>
      <trkpt lat="45.38953" lon="4.59526">
        <ele>1373.6</ele>
        <time>2026-08-18T12:33:15.977Z</time>
      </trkpt>
      <trkpt lat="45.38953" lon="4.59524">
        <ele>1373.4</ele>
        <time>2026-08-18T12:33:16.978Z</time>
      </trkpt>
      <trkpt lat="45.38953" lon="4.59523">
        <ele>1373.7</ele>
        <time>2026-08-18T12:33:17.978Z</time>
      </trkpt>
      <trkpt lat="45.38953" lon="4.5952">
        <ele>1373</ele>
        <time>2026-08-18T12:33:19.914Z</time>
      </trkpt>
      <trkpt lat="45.38954" lon="4.59519">
        <ele>1371.9</ele>
        <time>2026-08-18T12:33:20.977Z</time>
      </trkpt>
      <trkpt lat="45.38954" lon="4.59517">
        <ele>1372.2</ele>
        <time>2026-08-18T12:33:21.977Z</time>
      </trkpt>
      <trkpt lat="45.38955" lon="4.59516">
        <ele>1372.1</ele>
        <time>2026-08-18T12:33:22.978Z</time>
      </trkpt>
      <trkpt lat="45.38955" lon="4.59514">
        <ele>1371.8</ele>
        <time>2026-08-18T12:33:23.991Z</time>
      </trkpt>
      <trkpt lat="45.38955" lon="4.59513">
        <ele>1371.8</ele>
        <time>2026-08-18T12:33:25.020Z</time>
      </trkpt>
      <trkpt lat="45.38956" lon="4.5951">
        <ele>1372.1</ele>
        <time>2026-08-18T12:33:26.978Z</time>
      </trkpt>
      <trkpt lat="45.38957" lon="4.59509">
        <ele>1372.6</ele>
        <time>2026-08-18T12:33:27.984Z</time>
      </trkpt>
      <trkpt lat="45.38957" lon="4.59506">
        <ele>1373.1</ele>
        <time>2026-08-18T12:33:29.973Z</time>
      </trkpt>
      <trkpt lat="45.38957" lon="4.59504">
        <ele>1373.5</ele>
        <time>2026-08-18T12:33:30.977Z</time>
      </trkpt>
      <trkpt lat="45.38958" lon="4.59503">
        <ele>1373.8</ele>
        <time>2026-08-18T12:33:31.978Z</time>
      </trkpt>
      <trkpt lat="45.38958" lon="4.59501">
        <ele>1373.8</ele>
        <time>2026-08-18T12:33:32.978Z</time>
      </trkpt>
      <trkpt lat="45.38958" lon="4.595">
        <ele>1373</ele>
        <time>2026-08-18T12:33:33.978Z</time>
      </trkpt>
      <trkpt lat="45.38959" lon="4.59498">
        <ele>1371.8</ele>
        <time>2026-08-18T12:33:35.978Z</time>
      </trkpt>
      <trkpt lat="45.38959" lon="4.59496">
        <ele>1372</ele>
        <time>2026-08-18T12:33:36.978Z</time>
      </trkpt>
      <trkpt lat="45.38959" lon="4.59495">
        <ele>1370.7</ele>
        <time>2026-08-18T12:33:37.978Z</time>
      </trkpt>
      <trkpt lat="45.3896" lon="4.59494">
        <ele>1371.1</ele>
        <time>2026-08-18T12:33:38.978Z</time>
      </trkpt>
      <trkpt lat="45.3896" lon="4.59491">
        <ele>1372.3</ele>
        <time>2026-08-18T12:33:40.956Z</time>
      </trkpt>
      <trkpt lat="45.38961" lon="4.59489">
        <ele>1371.2</ele>
        <time>2026-08-18T12:33:41.978Z</time>
      </trkpt>
      <trkpt lat="45.38961" lon="4.59488">
        <ele>1371.7</ele>
        <time>2026-08-18T12:33:42.978Z</time>
      </trkpt>
      <trkpt lat="45.38961" lon="4.59486">
        <ele>1371</ele>
        <time>2026-08-18T12:33:43.978Z</time>
      </trkpt>
      <trkpt lat="45.38962" lon="4.59485">
        <ele>1371</ele>
        <time>2026-08-18T12:33:44.986Z</time>
      </trkpt>
      <trkpt lat="45.38962" lon="4.59483">
        <ele>1372</ele>
        <time>2026-08-18T12:33:46.977Z</time>
      </trkpt>
      <trkpt lat="45.38963" lon="4.59481">
        <ele>1371.9</ele>
        <time>2026-08-18T12:33:47.978Z</time>
      </trkpt>
      <trkpt lat="45.38964" lon="4.59479">
        <ele>1371.3</ele>
        <time>2026-08-18T12:33:49.978Z</time>
      </trkpt>
      <trkpt lat="45.38964" lon="4.59476">
        <ele>1370.9</ele>
        <time>2026-08-18T12:33:51.977Z</time>
      </trkpt>
      <trkpt lat="45.38965" lon="4.59475">
        <ele>1369.9</ele>
        <time>2026-08-18T12:33:52.978Z</time>
      </trkpt>
      <trkpt lat="45.38966" lon="4.59473">
        <ele>1369.4</ele>
        <time>2026-08-18T12:33:54.978Z</time>
      </trkpt>
      <trkpt lat="45.38966" lon="4.59471">
        <ele>1368.6</ele>
        <time>2026-08-18T12:33:56.978Z</time>
      </trkpt>
      <trkpt lat="45.38966" lon="4.59469">
        <ele>1368.7</ele>
        <time>2026-08-18T12:33:57.978Z</time>
      </trkpt>
      <trkpt lat="45.38966" lon="4.59467">
        <ele>1368.6</ele>
        <time>2026-08-18T12:33:59.977Z</time>
      </trkpt>
      <trkpt lat="45.38966" lon="4.59466">
        <ele>1368.6</ele>
        <time>2026-08-18T12:34:00.982Z</time>
      </trkpt>
      <trkpt lat="45.38967" lon="4.59463">
        <ele>1369.1</ele>
        <time>2026-08-18T12:34:02.958Z</time>
      </trkpt>
      <trkpt lat="45.38967" lon="4.59462">
        <ele>1368.6</ele>
        <time>2026-08-18T12:34:03.978Z</time>
      </trkpt>
      <trkpt lat="45.38968" lon="4.5946">
        <ele>1366.4</ele>
        <time>2026-08-18T12:34:05.977Z</time>
      </trkpt>
      <trkpt lat="45.38969" lon="4.59458">
        <ele>1366.7</ele>
        <time>2026-08-18T12:34:06.978Z</time>
      </trkpt>
      <trkpt lat="45.3897" lon="4.59456">
        <ele>1367.8</ele>
        <time>2026-08-18T12:34:08.977Z</time>
      </trkpt>
      <trkpt lat="45.3897" lon="4.59454">
        <ele>1368.3</ele>
        <time>2026-08-18T12:34:09.978Z</time>
      </trkpt>
      <trkpt lat="45.3897" lon="4.59453">
        <ele>1368.5</ele>
        <time>2026-08-18T12:34:10.978Z</time>
      </trkpt>
      <trkpt lat="45.3897" lon="4.5945">
        <ele>1368.2</ele>
        <time>2026-08-18T12:34:12.978Z</time>
      </trkpt>
      <trkpt lat="45.3897" lon="4.59449">
        <ele>1368</ele>
        <time>2026-08-18T12:34:13.978Z</time>
      </trkpt>
      <trkpt lat="45.3897" lon="4.59448">
        <ele>1368.3</ele>
        <time>2026-08-18T12:34:14.978Z</time>
      </trkpt>
      <trkpt lat="45.3897" lon="4.59447">
        <ele>1368</ele>
        <time>2026-08-18T12:34:15.978Z</time>
      </trkpt>
      <trkpt lat="45.38971" lon="4.59446">
        <ele>1367.8</ele>
        <time>2026-08-18T12:34:16.978Z</time>
      </trkpt>
      <trkpt lat="45.38972" lon="4.59443">
        <ele>1368.1</ele>
        <time>2026-08-18T12:34:18.987Z</time>
      </trkpt>
      <trkpt lat="45.38973" lon="4.5944">
        <ele>1369.4</ele>
        <time>2026-08-18T12:34:20.978Z</time>
      </trkpt>
      <trkpt lat="45.38973" lon="4.59437">
        <ele>1369.4</ele>
        <time>2026-08-18T12:34:22.982Z</time>
      </trkpt>
      <trkpt lat="45.38973" lon="4.59435">
        <ele>1367.7</ele>
        <time>2026-08-18T12:34:24.978Z</time>
      </trkpt>
      <trkpt lat="45.38973" lon="4.59433">
        <ele>1368.4</ele>
        <time>2026-08-18T12:34:25.978Z</time>
      </trkpt>
      <trkpt lat="45.38974" lon="4.59431">
        <ele>1366.8</ele>
        <time>2026-08-18T12:34:27.978Z</time>
      </trkpt>
      <trkpt lat="45.38975" lon="4.59429">
        <ele>1365.8</ele>
        <time>2026-08-18T12:34:29.978Z</time>
      </trkpt>
      <trkpt lat="45.38975" lon="4.59426">
        <ele>1365.4</ele>
        <time>2026-08-18T12:34:31.977Z</time>
      </trkpt>
      <trkpt lat="45.38975" lon="4.59425">
        <ele>1364.2</ele>
        <time>2026-08-18T12:34:32.978Z</time>
      </trkpt>
      <trkpt lat="45.38976" lon="4.59422">
        <ele>1364.8</ele>
        <time>2026-08-18T12:34:34.977Z</time>
      </trkpt>
      <trkpt lat="45.38976" lon="4.59421">
        <ele>1364.7</ele>
        <time>2026-08-18T12:34:35.977Z</time>
      </trkpt>
      <trkpt lat="45.38976" lon="4.5942">
        <ele>1363.5</ele>
        <time>2026-08-18T12:34:36.977Z</time>
      </trkpt>
      <trkpt lat="45.38976" lon="4.59418">
        <ele>1363.4</ele>
        <time>2026-08-18T12:34:37.978Z</time>
      </trkpt>
      <trkpt lat="45.38977" lon="4.59417">
        <ele>1363.4</ele>
        <time>2026-08-18T12:34:38.978Z</time>
      </trkpt>
      <trkpt lat="45.38977" lon="4.59415">
        <ele>1364.6</ele>
        <time>2026-08-18T12:34:39.982Z</time>
      </trkpt>
      <trkpt lat="45.38977" lon="4.59412">
        <ele>1364.2</ele>
        <time>2026-08-18T12:34:41.895Z</time>
      </trkpt>
      <trkpt lat="45.38977" lon="4.59411">
        <ele>1364.5</ele>
        <time>2026-08-18T12:34:42.978Z</time>
      </trkpt>
      <trkpt lat="45.38977" lon="4.5941">
        <ele>1364.2</ele>
        <time>2026-08-18T12:34:43.978Z</time>
      </trkpt>
      <trkpt lat="45.38978" lon="4.59407">
        <ele>1364.2</ele>
        <time>2026-08-18T12:34:45.899Z</time>
      </trkpt>
      <trkpt lat="45.38978" lon="4.59405">
        <ele>1363.3</ele>
        <time>2026-08-18T12:34:46.978Z</time>
      </trkpt>
      <trkpt lat="45.38978" lon="4.59402">
        <ele>1364.9</ele>
        <time>2026-08-18T12:34:48.997Z</time>
      </trkpt>
      <trkpt lat="45.38978" lon="4.59399">
        <ele>1364.8</ele>
        <time>2026-08-18T12:34:50.978Z</time>
      </trkpt>
      <trkpt lat="45.38978" lon="4.59398">
        <ele>1364.6</ele>
        <time>2026-08-18T12:34:51.978Z</time>
      </trkpt>
      <trkpt lat="45.38978" lon="4.59396">
        <ele>1364.2</ele>
        <time>2026-08-18T12:34:52.990Z</time>
      </trkpt>
      <trkpt lat="45.38979" lon="4.59389">
        <ele>1362.7</ele>
        <time>2026-08-18T12:34:54.978Z</time>
      </trkpt>
      <trkpt lat="45.38979" lon="4.59386">
        <ele>1362.7</ele>
        <time>2026-08-18T12:34:55.978Z</time>
      </trkpt>
      <trkpt lat="45.38979" lon="4.59384">
        <ele>1361.7</ele>
        <time>2026-08-18T12:34:56.983Z</time>
      </trkpt>
      <trkpt lat="45.38979" lon="4.59379">
        <ele>1361.3</ele>
        <time>2026-08-18T12:34:58.983Z</time>
      </trkpt>
      <trkpt lat="45.3898" lon="4.59375">
        <ele>1364.3</ele>
        <time>2026-08-18T12:35:00.978Z</time>
      </trkpt>
      <trkpt lat="45.3898" lon="4.59374">
        <ele>1364.3</ele>
        <time>2026-08-18T12:35:01.978Z</time>
      </trkpt>
      <trkpt lat="45.38981" lon="4.59373">
        <ele>1365.3</ele>
        <time>2026-08-18T12:35:02.978Z</time>
      </trkpt>
      <trkpt lat="45.38981" lon="4.5937">
        <ele>1365.3</ele>
        <time>2026-08-18T12:35:04.978Z</time>
      </trkpt>
      <trkpt lat="45.38981" lon="4.59369">
        <ele>1365.4</ele>
        <time>2026-08-18T12:35:05.978Z</time>
      </trkpt>
      <trkpt lat="45.38982" lon="4.59366">
        <ele>1365.8</ele>
        <time>2026-08-18T12:35:07.978Z</time>
      </trkpt>
      <trkpt lat="45.38982" lon="4.59364">
        <ele>1367.7</ele>
        <time>2026-08-18T12:35:08.978Z</time>
      </trkpt>
      <trkpt lat="45.38982" lon="4.59362">
        <ele>1367.6</ele>
        <time>2026-08-18T12:35:09.991Z</time>
      </trkpt>
      <trkpt lat="45.38982" lon="4.5936">
        <ele>1367.6</ele>
        <time>2026-08-18T12:35:11.001Z</time>
      </trkpt>
      <trkpt lat="45.38982" lon="4.59354">
        <ele>1366.4</ele>
        <time>2026-08-18T12:35:12.976Z</time>
      </trkpt>
      <trkpt lat="45.38982" lon="4.59352">
        <ele>1365.1</ele>
        <time>2026-08-18T12:35:13.985Z</time>
      </trkpt>
      <trkpt lat="45.38983" lon="4.59349">
        <ele>1364.3</ele>
        <time>2026-08-18T12:35:15.974Z</time>
      </trkpt>
      <trkpt lat="45.38983" lon="4.59349">
        <ele>1365.4</ele>
        <time>2026-08-18T12:35:16.978Z</time>
      </trkpt>
      <trkpt lat="45.38983" lon="4.59348">
        <ele>1366</ele>
        <time>2026-08-18T12:35:17.978Z</time>
      </trkpt>
      <trkpt lat="45.38984" lon="4.59347">
        <ele>1366.3</ele>
        <time>2026-08-18T12:35:19.863Z</time>
      </trkpt>
      <trkpt lat="45.38984" lon="4.59347">
        <ele>1367.4</ele>
        <time>2026-08-18T12:35:20.978Z</time>
      </trkpt>
      <trkpt lat="45.38983" lon="4.59346">
        <ele>1366.8</ele>
        <time>2026-08-18T12:35:21.978Z</time>
      </trkpt>
      <trkpt lat="45.38983" lon="4.59344">
        <ele>1366.8</ele>
        <time>2026-08-18T12:35:23.001Z</time>
      </trkpt>
      <trkpt lat="45.38983" lon="4.59343">
        <ele>1368.6</ele>
        <time>2026-08-18T12:35:24.976Z</time>
      </trkpt>
      <trkpt lat="45.38984" lon="4.59342">
        <ele>1369.2</ele>
        <time>2026-08-18T12:35:25.977Z</time>
      </trkpt>
      <trkpt lat="45.38984" lon="4.59341">
        <ele>1369.2</ele>
        <time>2026-08-18T12:35:26.992Z</time>
      </trkpt>
      <trkpt lat="45.38985" lon="4.5934">
        <ele>1369.3</ele>
        <time>2026-08-18T12:35:28.976Z</time>
      </trkpt>
      <trkpt lat="45.38985" lon="4.59339">
        <ele>1369.9</ele>
        <time>2026-08-18T12:35:29.977Z</time>
      </trkpt>
      <trkpt lat="45.38985" lon="4.59338">
        <ele>1370.2</ele>
        <time>2026-08-18T12:35:30.986Z</time>
      </trkpt>
      <trkpt lat="45.38986" lon="4.59336">
        <ele>1370.2</ele>
        <time>2026-08-18T12:35:32.978Z</time>
      </trkpt>
      <trkpt lat="45.38987" lon="4.59334">
        <ele>1370</ele>
        <time>2026-08-18T12:35:34.977Z</time>
      </trkpt>
      <trkpt lat="45.38987" lon="4.59333">
        <ele>1370.1</ele>
        <time>2026-08-18T12:35:35.977Z</time>
      </trkpt>
      <trkpt lat="45.38986" lon="4.59331">
        <ele>1370.4</ele>
        <time>2026-08-18T12:35:37.977Z</time>
      </trkpt>
      <trkpt lat="45.38986" lon="4.59329">
        <ele>1370.1</ele>
        <time>2026-08-18T12:35:39.977Z</time>
      </trkpt>
      <trkpt lat="45.38986" lon="4.59328">
        <ele>1369</ele>
        <time>2026-08-18T12:35:40.977Z</time>
      </trkpt>
      <trkpt lat="45.38986" lon="4.59327">
        <ele>1367.5</ele>
        <time>2026-08-18T12:35:41.977Z</time>
      </trkpt>
      <trkpt lat="45.38986" lon="4.59325">
        <ele>1367.4</ele>
        <time>2026-08-18T12:35:42.977Z</time>
      </trkpt>
      <trkpt lat="45.38986" lon="4.59324">
        <ele>1367.3</ele>
        <time>2026-08-18T12:35:43.993Z</time>
      </trkpt>
      <trkpt lat="45.38986" lon="4.59322">
        <ele>1366.2</ele>
        <time>2026-08-18T12:35:45.977Z</time>
      </trkpt>
      <trkpt lat="45.38986" lon="4.59321">
        <ele>1366.1</ele>
        <time>2026-08-18T12:35:46.977Z</time>
      </trkpt>
      <trkpt lat="45.38986" lon="4.5932">
        <ele>1366.2</ele>
        <time>2026-08-18T12:35:47.985Z</time>
      </trkpt>
      <trkpt lat="45.38986" lon="4.59317">
        <ele>1365.6</ele>
        <time>2026-08-18T12:35:49.977Z</time>
      </trkpt>
      <trkpt lat="45.38986" lon="4.59316">
        <ele>1365.5</ele>
        <time>2026-08-18T12:35:50.977Z</time>
      </trkpt>
      <trkpt lat="45.38986" lon="4.59315">
        <ele>1365.9</ele>
        <time>2026-08-18T12:35:51.980Z</time>
      </trkpt>
      <trkpt lat="45.38987" lon="4.59313">
        <ele>1364.7</ele>
        <time>2026-08-18T12:35:53.976Z</time>
      </trkpt>
      <trkpt lat="45.38987" lon="4.59312">
        <ele>1364.9</ele>
        <time>2026-08-18T12:35:54.976Z</time>
      </trkpt>
      <trkpt lat="45.38987" lon="4.59311">
        <ele>1364.9</ele>
        <time>2026-08-18T12:35:55.977Z</time>
      </trkpt>
      <trkpt lat="45.38987" lon="4.59309">
        <ele>1364.1</ele>
        <time>2026-08-18T12:35:57.977Z</time>
      </trkpt>
      <trkpt lat="45.38987" lon="4.59308">
        <ele>1364.8</ele>
        <time>2026-08-18T12:35:58.977Z</time>
      </trkpt>
      <trkpt lat="45.38986" lon="4.59305">
        <ele>1365.8</ele>
        <time>2026-08-18T12:36:00.958Z</time>
      </trkpt>
      <trkpt lat="45.38985" lon="4.59305">
        <ele>1364.8</ele>
        <time>2026-08-18T12:36:01.977Z</time>
      </trkpt>
      <trkpt lat="45.38985" lon="4.59303">
        <ele>1362.9</ele>
        <time>2026-08-18T12:36:03.977Z</time>
      </trkpt>
      <trkpt lat="45.38984" lon="4.59302">
        <ele>1362.6</ele>
        <time>2026-08-18T12:36:04.977Z</time>
      </trkpt>
      <trkpt lat="45.38984" lon="4.59301">
        <ele>1362.8</ele>
        <time>2026-08-18T12:36:05.977Z</time>
      </trkpt>
      <trkpt lat="45.38983" lon="4.593">
        <ele>1362.3</ele>
        <time>2026-08-18T12:36:06.977Z</time>
      </trkpt>
      <trkpt lat="45.38983" lon="4.59299">
        <ele>1361.8</ele>
        <time>2026-08-18T12:36:07.977Z</time>
      </trkpt>
      <trkpt lat="45.38983" lon="4.59297">
        <ele>1361.6</ele>
        <time>2026-08-18T12:36:08.981Z</time>
      </trkpt>
      <trkpt lat="45.38983" lon="4.59295">
        <ele>1362.7</ele>
        <time>2026-08-18T12:36:10.976Z</time>
      </trkpt>
      <trkpt lat="45.38982" lon="4.59293">
        <ele>1362.3</ele>
        <time>2026-08-18T12:36:12.977Z</time>
      </trkpt>
      <trkpt lat="45.38981" lon="4.59292">
        <ele>1362.2</ele>
        <time>2026-08-18T12:36:13.977Z</time>
      </trkpt>
      <trkpt lat="45.3898" lon="4.5929">
        <ele>1361.4</ele>
        <time>2026-08-18T12:36:15.977Z</time>
      </trkpt>
      <trkpt lat="45.38979" lon="4.5929">
        <ele>1361.2</ele>
        <time>2026-08-18T12:36:16.977Z</time>
      </trkpt>
      <trkpt lat="45.38977" lon="4.59289">
        <ele>1360.7</ele>
        <time>2026-08-18T12:36:18.938Z</time>
      </trkpt>
      <trkpt lat="45.38976" lon="4.59289">
        <ele>1359.7</ele>
        <time>2026-08-18T12:36:19.976Z</time>
      </trkpt>
      <trkpt lat="45.38976" lon="4.59289">
        <ele>1358.9</ele>
        <time>2026-08-18T12:36:20.977Z</time>
      </trkpt>
      <trkpt lat="45.38975" lon="4.59288">
        <ele>1358.6</ele>
        <time>2026-08-18T12:36:21.988Z</time>
      </trkpt>
      <trkpt lat="45.38973" lon="4.59286">
        <ele>1359.2</ele>
        <time>2026-08-18T12:36:23.902Z</time>
      </trkpt>
      <trkpt lat="45.38973" lon="4.59286">
        <ele>1359.4</ele>
        <time>2026-08-18T12:36:24.976Z</time>
      </trkpt>
      <trkpt lat="45.38972" lon="4.59285">
        <ele>1359.7</ele>
        <time>2026-08-18T12:36:25.981Z</time>
      </trkpt>
      <trkpt lat="45.3897" lon="4.59283">
        <ele>1359</ele>
        <time>2026-08-18T12:36:27.976Z</time>
      </trkpt>
      <trkpt lat="45.38969" lon="4.5928">
        <ele>1357.6</ele>
        <time>2026-08-18T12:36:29.977Z</time>
      </trkpt>
      <trkpt lat="45.38968" lon="4.59279">
        <ele>1357.6</ele>
        <time>2026-08-18T12:36:31.002Z</time>
      </trkpt>
      <trkpt lat="45.38966" lon="4.59278">
        <ele>1357.7</ele>
        <time>2026-08-18T12:36:32.976Z</time>
      </trkpt>
      <trkpt lat="45.38965" lon="4.59278">
        <ele>1356.7</ele>
        <time>2026-08-18T12:36:33.976Z</time>
      </trkpt>
      <trkpt lat="45.38964" lon="4.59277">
        <ele>1356.4</ele>
        <time>2026-08-18T12:36:34.977Z</time>
      </trkpt>
      <trkpt lat="45.38964" lon="4.59276">
        <ele>1355.9</ele>
        <time>2026-08-18T12:36:35.977Z</time>
      </trkpt>
      <trkpt lat="45.38963" lon="4.59276">
        <ele>1354.3</ele>
        <time>2026-08-18T12:36:36.977Z</time>
      </trkpt>
      <trkpt lat="45.38962" lon="4.59273">
        <ele>1355</ele>
        <time>2026-08-18T12:36:38.988Z</time>
      </trkpt>
      <trkpt lat="45.38961" lon="4.59272">
        <ele>1355</ele>
        <time>2026-08-18T12:36:39.998Z</time>
      </trkpt>
      <trkpt lat="45.3896" lon="4.59269">
        <ele>1356.2</ele>
        <time>2026-08-18T12:36:41.995Z</time>
      </trkpt>
      <trkpt lat="45.38958" lon="4.59266">
        <ele>1358.1</ele>
        <time>2026-08-18T12:36:43.977Z</time>
      </trkpt>
      <trkpt lat="45.38956" lon="4.59263">
        <ele>1357.7</ele>
        <time>2026-08-18T12:36:45.976Z</time>
      </trkpt>
      <trkpt lat="45.38955" lon="4.59262">
        <ele>1356.7</ele>
        <time>2026-08-18T12:36:46.976Z</time>
      </trkpt>
      <trkpt lat="45.38954" lon="4.59261">
        <ele>1356.7</ele>
        <time>2026-08-18T12:36:47.996Z</time>
      </trkpt>
      <trkpt lat="45.38951" lon="4.5926">
        <ele>1356.7</ele>
        <time>2026-08-18T12:36:49.976Z</time>
      </trkpt>
      <trkpt lat="45.38949" lon="4.59259">
        <ele>1354.8</ele>
        <time>2026-08-18T12:36:51.976Z</time>
      </trkpt>
      <trkpt lat="45.38947" lon="4.59258">
        <ele>1357.3</ele>
        <time>2026-08-18T12:36:53.976Z</time>
      </trkpt>
      <trkpt lat="45.38945" lon="4.59258">
        <ele>1358.5</ele>
        <time>2026-08-18T12:36:55.977Z</time>
      </trkpt>
      <trkpt lat="45.38944" lon="4.59257">
        <ele>1359</ele>
        <time>2026-08-18T12:36:56.977Z</time>
      </trkpt>
      <trkpt lat="45.38943" lon="4.59256">
        <ele>1356.4</ele>
        <time>2026-08-18T12:36:58.976Z</time>
      </trkpt>
      <trkpt lat="45.38942" lon="4.59255">
        <ele>1357.1</ele>
        <time>2026-08-18T12:36:59.983Z</time>
      </trkpt>
      <trkpt lat="45.38942" lon="4.59252">
        <ele>1358.1</ele>
        <time>2026-08-18T12:37:01.840Z</time>
      </trkpt>
      <trkpt lat="45.38941" lon="4.59251">
        <ele>1358.4</ele>
        <time>2026-08-18T12:37:02.976Z</time>
      </trkpt>
      <trkpt lat="45.38941" lon="4.59249">
        <ele>1358.2</ele>
        <time>2026-08-18T12:37:03.977Z</time>
      </trkpt>
      <trkpt lat="45.3894" lon="4.59247">
        <ele>1358.9</ele>
        <time>2026-08-18T12:37:05.976Z</time>
      </trkpt>
      <trkpt lat="45.38939" lon="4.59246">
        <ele>1358.8</ele>
        <time>2026-08-18T12:37:06.977Z</time>
      </trkpt>
      <trkpt lat="45.38938" lon="4.59244">
        <ele>1359.6</ele>
        <time>2026-08-18T12:37:08.997Z</time>
      </trkpt>
      <trkpt lat="45.38936" lon="4.59243">
        <ele>1357.3</ele>
        <time>2026-08-18T12:37:10.976Z</time>
      </trkpt>
      <trkpt lat="45.38935" lon="4.59242">
        <ele>1356.7</ele>
        <time>2026-08-18T12:37:11.977Z</time>
      </trkpt>
      <trkpt lat="45.38934" lon="4.59241">
        <ele>1356.5</ele>
        <time>2026-08-18T12:37:12.991Z</time>
      </trkpt>
      <trkpt lat="45.38933" lon="4.59238">
        <ele>1356.5</ele>
        <time>2026-08-18T12:37:14.976Z</time>
      </trkpt>
      <trkpt lat="45.38933" lon="4.59237">
        <ele>1355.4</ele>
        <time>2026-08-18T12:37:15.977Z</time>
      </trkpt>
      <trkpt lat="45.38932" lon="4.59236">
        <ele>1355.3</ele>
        <time>2026-08-18T12:37:16.984Z</time>
      </trkpt>
      <trkpt lat="45.38931" lon="4.59233">
        <ele>1354.6</ele>
        <time>2026-08-18T12:37:18.977Z</time>
      </trkpt>
      <trkpt lat="45.38929" lon="4.59231">
        <ele>1354.2</ele>
        <time>2026-08-18T12:37:20.978Z</time>
      </trkpt>
      <trkpt lat="45.38927" lon="4.59229">
        <ele>1354.1</ele>
        <time>2026-08-18T12:37:22.977Z</time>
      </trkpt>
      <trkpt lat="45.38927" lon="4.59228">
        <ele>1354.3</ele>
        <time>2026-08-18T12:37:23.977Z</time>
      </trkpt>
      <trkpt lat="45.38926" lon="4.59227">
        <ele>1354.4</ele>
        <time>2026-08-18T12:37:24.977Z</time>
      </trkpt>
      <trkpt lat="45.38925" lon="4.59226">
        <ele>1354.8</ele>
        <time>2026-08-18T12:37:25.977Z</time>
      </trkpt>
      <trkpt lat="45.38925" lon="4.59225">
        <ele>1354.6</ele>
        <time>2026-08-18T12:37:26.977Z</time>
      </trkpt>
      <trkpt lat="45.38925" lon="4.59225">
        <ele>1354.6</ele>
        <time>2026-08-18T12:37:28.977Z</time>
      </trkpt>
      <trkpt lat="45.38925" lon="4.59225">
        <ele>1354.6</ele>
        <time>2026-08-18T12:37:29.992Z</time>
      </trkpt>
      <trkpt lat="45.38925" lon="4.59226">
        <ele>1354.6</ele>
        <time>2026-08-18T12:37:31.977Z</time>
      </trkpt>
      <trkpt lat="45.38925" lon="4.59226">
        <ele>1354.1</ele>
        <time>2026-08-18T12:37:32.977Z</time>
      </trkpt>
      <trkpt lat="45.38925" lon="4.59226">
        <ele>1354</ele>
        <time>2026-08-18T12:37:33.985Z</time>
      </trkpt>
      <trkpt lat="45.38925" lon="4.59225">
        <ele>1354.7</ele>
        <time>2026-08-18T12:37:35.975Z</time>
      </trkpt>
      <trkpt lat="45.38924" lon="4.59223">
        <ele>1355</ele>
        <time>2026-08-18T12:37:36.977Z</time>
      </trkpt>
      <trkpt lat="45.38924" lon="4.59223">
        <ele>1354.7</ele>
        <time>2026-08-18T12:37:37.979Z</time>
      </trkpt>
      <trkpt lat="45.38924" lon="4.59222">
        <ele>1354.7</ele>
        <time>2026-08-18T12:37:39.976Z</time>
      </trkpt>
      <trkpt lat="45.38924" lon="4.59222">
        <ele>1354.6</ele>
        <time>2026-08-18T12:37:40.977Z</time>
      </trkpt>
      <trkpt lat="45.38924" lon="4.59221">
        <ele>1354.6</ele>
        <time>2026-08-18T12:37:42.999Z</time>
      </trkpt>
      <trkpt lat="45.38924" lon="4.59221">
        <ele>1354.6</ele>
        <time>2026-08-18T12:37:44.977Z</time>
      </trkpt>
      <trkpt lat="45.38924" lon="4.59221">
        <ele>1354.6</ele>
        <time>2026-08-18T12:37:45.977Z</time>
      </trkpt>
      <trkpt lat="45.38924" lon="4.59221">
        <ele>1354.6</ele>
        <time>2026-08-18T12:37:46.977Z</time>
      </trkpt>
      <trkpt lat="45.38924" lon="4.59221">
        <ele>1354.6</ele>
        <time>2026-08-18T12:37:48.977Z</time>
      </trkpt>
      <trkpt lat="45.38924" lon="4.59221">
        <ele>1354.7</ele>
        <time>2026-08-18T12:37:49.977Z</time>
      </trkpt>
      <trkpt lat="45.38924" lon="4.59221">
        <ele>1354.6</ele>
        <time>2026-08-18T12:37:50.985Z</time>
      </trkpt>
      <trkpt lat="45.38924" lon="4.59221">
        <ele>1354.7</ele>
        <time>2026-08-18T12:37:52.977Z</time>
      </trkpt>
      <trkpt lat="45.38924" lon="4.59221">
        <ele>1354.7</ele>
        <time>2026-08-18T12:37:53.977Z</time>
      </trkpt>
      <trkpt lat="45.38924" lon="4.59221">
        <ele>1354.6</ele>
        <time>2026-08-18T12:37:54.977Z</time>
      </trkpt>
      <trkpt lat="45.38924" lon="4.59221">
        <ele>1354.7</ele>
        <time>2026-08-18T12:37:56.977Z</time>
      </trkpt>
      <trkpt lat="45.38924" lon="4.59221">
        <ele>1354.6</ele>
        <time>2026-08-18T12:37:57.977Z</time>
      </trkpt>
      <trkpt lat="45.38924" lon="4.59221">
        <ele>1354.6</ele>
        <time>2026-08-18T12:37:58.977Z</time>
      </trkpt>
      <trkpt lat="45.38924" lon="4.59221">
        <ele>1354.6</ele>
        <time>2026-08-18T12:37:59.977Z</time>
      </trkpt>
      <trkpt lat="45.38924" lon="4.59221">
        <ele>1354.6</ele>
        <time>2026-08-18T12:38:01.977Z</time>
      </trkpt>
      <trkpt lat="45.38924" lon="4.59221">
        <ele>1354.6</ele>
        <time>2026-08-18T12:38:03.977Z</time>
      </trkpt>
      <trkpt lat="45.38924" lon="4.5922">
        <ele>1354.6</ele>
        <time>2026-08-18T12:38:05.977Z</time>
      </trkpt>
      <trkpt lat="45.38924" lon="4.5922">
        <ele>1354.6</ele>
        <time>2026-08-18T12:38:06.998Z</time>
      </trkpt>
      <trkpt lat="45.38924" lon="4.5922">
        <ele>1354.6</ele>
        <time>2026-08-18T12:38:08.977Z</time>
      </trkpt>
      <trkpt lat="45.38924" lon="4.5922">
        <ele>1354.6</ele>
        <time>2026-08-18T12:38:09.977Z</time>
      </trkpt>
      <trkpt lat="45.38924" lon="4.5922">
        <ele>1354.6</ele>
        <time>2026-08-18T12:38:10.991Z</time>
      </trkpt>
      <trkpt lat="45.38924" lon="4.5922">
        <ele>1354</ele>
        <time>2026-08-18T12:38:12.976Z</time>
      </trkpt>
      <trkpt lat="45.38924" lon="4.5922">
        <ele>1353.6</ele>
        <time>2026-08-18T12:38:13.977Z</time>
      </trkpt>
      <trkpt lat="45.38923" lon="4.5922">
        <ele>1354.7</ele>
        <time>2026-08-18T12:38:14.977Z</time>
      </trkpt>
      <trkpt lat="45.38922" lon="4.5922">
        <ele>1355.2</ele>
        <time>2026-08-18T12:38:15.977Z</time>
      </trkpt>
      <trkpt lat="45.3892" lon="4.59217">
        <ele>1354.8</ele>
        <time>2026-08-18T12:38:17.976Z</time>
      </trkpt>
      <trkpt lat="45.38919" lon="4.59216">
        <ele>1356.1</ele>
        <time>2026-08-18T12:38:18.978Z</time>
      </trkpt>
      <trkpt lat="45.38917" lon="4.59213">
        <ele>1355.5</ele>
        <time>2026-08-18T12:38:20.977Z</time>
      </trkpt>
      <trkpt lat="45.38916" lon="4.59212">
        <ele>1355.2</ele>
        <time>2026-08-18T12:38:21.977Z</time>
      </trkpt>
      <trkpt lat="45.38915" lon="4.59212">
        <ele>1356</ele>
        <time>2026-08-18T12:38:22.977Z</time>
      </trkpt>
      <trkpt lat="45.38913" lon="4.5921">
        <ele>1355.9</ele>
        <time>2026-08-18T12:38:24.961Z</time>
      </trkpt>
      <trkpt lat="45.38912" lon="4.59209">
        <ele>1356.2</ele>
        <time>2026-08-18T12:38:25.977Z</time>
      </trkpt>
      <trkpt lat="45.38912" lon="4.59208">
        <ele>1356.5</ele>
        <time>2026-08-18T12:38:26.977Z</time>
      </trkpt>
      <trkpt lat="45.38911" lon="4.59207">
        <ele>1356.8</ele>
        <time>2026-08-18T12:38:27.992Z</time>
      </trkpt>
      <trkpt lat="45.3891" lon="4.59205">
        <ele>1358.3</ele>
        <time>2026-08-18T12:38:29.977Z</time>
      </trkpt>
      <trkpt lat="45.38909" lon="4.59203">
        <ele>1359.5</ele>
        <time>2026-08-18T12:38:31.984Z</time>
      </trkpt>
      <trkpt lat="45.38908" lon="4.59202">
        <ele>1358.4</ele>
        <time>2026-08-18T12:38:33.977Z</time>
      </trkpt>
      <trkpt lat="45.38907" lon="4.59201">
        <ele>1359.1</ele>
        <time>2026-08-18T12:38:34.977Z</time>
      </trkpt>
      <trkpt lat="45.38906" lon="4.592">
        <ele>1359.1</ele>
        <time>2026-08-18T12:38:35.979Z</time>
      </trkpt>
      <trkpt lat="45.38904" lon="4.59199">
        <ele>1358.9</ele>
        <time>2026-08-18T12:38:37.883Z</time>
      </trkpt>
      <trkpt lat="45.38904" lon="4.59199">
        <ele>1359.1</ele>
        <time>2026-08-18T12:38:38.977Z</time>
      </trkpt>
      <trkpt lat="45.38902" lon="4.59196">
        <ele>1359.1</ele>
        <time>2026-08-18T12:38:40.977Z</time>
      </trkpt>
      <trkpt lat="45.38902" lon="4.59195">
        <ele>1359.6</ele>
        <time>2026-08-18T12:38:41.977Z</time>
      </trkpt>
      <trkpt lat="45.38901" lon="4.59194">
        <ele>1359.6</ele>
        <time>2026-08-18T12:38:42.979Z</time>
      </trkpt>
      <trkpt lat="45.38899" lon="4.59193">
        <ele>1358</ele>
        <time>2026-08-18T12:38:44.975Z</time>
      </trkpt>
      <trkpt lat="45.38898" lon="4.59192">
        <ele>1356.9</ele>
        <time>2026-08-18T12:38:45.977Z</time>
      </trkpt>
      <trkpt lat="45.38897" lon="4.5919">
        <ele>1356.4</ele>
        <time>2026-08-18T12:38:47.943Z</time>
      </trkpt>
      <trkpt lat="45.38896" lon="4.59189">
        <ele>1355.6</ele>
        <time>2026-08-18T12:38:48.985Z</time>
      </trkpt>
      <trkpt lat="45.38895" lon="4.59187">
        <ele>1353.3</ele>
        <time>2026-08-18T12:38:50.976Z</time>
      </trkpt>
      <trkpt lat="45.38894" lon="4.59186">
        <ele>1353.2</ele>
        <time>2026-08-18T12:38:51.976Z</time>
      </trkpt>
      <trkpt lat="45.38894" lon="4.59185">
        <ele>1352.1</ele>
        <time>2026-08-18T12:38:52.978Z</time>
      </trkpt>
      <trkpt lat="45.38892" lon="4.59183">
        <ele>1351.4</ele>
        <time>2026-08-18T12:38:54.976Z</time>
      </trkpt>
      <trkpt lat="45.38892" lon="4.59182">
        <ele>1351.5</ele>
        <time>2026-08-18T12:38:55.977Z</time>
      </trkpt>
      <trkpt lat="45.3889" lon="4.59179">
        <ele>1353</ele>
        <time>2026-08-18T12:38:57.999Z</time>
      </trkpt>
      <trkpt lat="45.38888" lon="4.59177">
        <ele>1353.3</ele>
        <time>2026-08-18T12:38:59.977Z</time>
      </trkpt>
      <trkpt lat="45.38887" lon="4.59177">
        <ele>1353.8</ele>
        <time>2026-08-18T12:39:00.977Z</time>
      </trkpt>
      <trkpt lat="45.38886" lon="4.59175">
        <ele>1354.7</ele>
        <time>2026-08-18T12:39:01.993Z</time>
      </trkpt>
      <trkpt lat="45.38884" lon="4.59174">
        <ele>1355.1</ele>
        <time>2026-08-18T12:39:03.977Z</time>
      </trkpt>
      <trkpt lat="45.38883" lon="4.59172">
        <ele>1354.7</ele>
        <time>2026-08-18T12:39:05.977Z</time>
      </trkpt>
      <trkpt lat="45.38882" lon="4.59171">
        <ele>1353.8</ele>
        <time>2026-08-18T12:39:06.977Z</time>
      </trkpt>
      <trkpt lat="45.38881" lon="4.5917">
        <ele>1353.6</ele>
        <time>2026-08-18T12:39:07.977Z</time>
      </trkpt>
      <trkpt lat="45.38879" lon="4.59168">
        <ele>1353.7</ele>
        <time>2026-08-18T12:39:09.980Z</time>
      </trkpt>
      <trkpt lat="45.38878" lon="4.59166">
        <ele>1351.9</ele>
        <time>2026-08-18T12:39:11.977Z</time>
      </trkpt>
      <trkpt lat="45.38878" lon="4.59165">
        <ele>1352</ele>
        <time>2026-08-18T12:39:12.977Z</time>
      </trkpt>
      <trkpt lat="45.38877" lon="4.59164">
        <ele>1352</ele>
        <time>2026-08-18T12:39:14.014Z</time>
      </trkpt>
      <trkpt lat="45.38876" lon="4.5916">
        <ele>1352.4</ele>
        <time>2026-08-18T12:39:15.976Z</time>
      </trkpt>
      <trkpt lat="45.38876" lon="4.59159">
        <ele>1352.5</ele>
        <time>2026-08-18T12:39:16.977Z</time>
      </trkpt>
      <trkpt lat="45.38875" lon="4.59157">
        <ele>1352.5</ele>
        <time>2026-08-18T12:39:18.017Z</time>
      </trkpt>
      <trkpt lat="45.38875" lon="4.59154">
        <ele>1352.6</ele>
        <time>2026-08-18T12:39:19.977Z</time>
      </trkpt>
      <trkpt lat="45.38874" lon="4.59152">
        <ele>1352.1</ele>
        <time>2026-08-18T12:39:20.977Z</time>
      </trkpt>
      <trkpt lat="45.38873" lon="4.59149">
        <ele>1352.7</ele>
        <time>2026-08-18T12:39:22.976Z</time>
      </trkpt>
      <trkpt lat="45.38872" lon="4.59146">
        <ele>1354.4</ele>
        <time>2026-08-18T12:39:24.977Z</time>
      </trkpt>
      <trkpt lat="45.38872" lon="4.59144">
        <ele>1354.6</ele>
        <time>2026-08-18T12:39:25.977Z</time>
      </trkpt>
      <trkpt lat="45.38872" lon="4.59143">
        <ele>1354.8</ele>
        <time>2026-08-18T12:39:26.981Z</time>
      </trkpt>
      <trkpt lat="45.38871" lon="4.59139">
        <ele>1355.2</ele>
        <time>2026-08-18T12:39:28.977Z</time>
      </trkpt>
      <trkpt lat="45.3887" lon="4.59136">
        <ele>1358</ele>
        <time>2026-08-18T12:39:30.977Z</time>
      </trkpt>
      <trkpt lat="45.38868" lon="4.59132">
        <ele>1357.7</ele>
        <time>2026-08-18T12:39:32.917Z</time>
      </trkpt>
      <trkpt lat="45.38867" lon="4.59131">
        <ele>1357.8</ele>
        <time>2026-08-18T12:39:33.976Z</time>
      </trkpt>
      <trkpt lat="45.38866" lon="4.59128">
        <ele>1357.8</ele>
        <time>2026-08-18T12:39:35.976Z</time>
      </trkpt>
      <trkpt lat="45.38865" lon="4.59126">
        <ele>1357.3</ele>
        <time>2026-08-18T12:39:36.976Z</time>
      </trkpt>
      <trkpt lat="45.38865" lon="4.59125">
        <ele>1356.5</ele>
        <time>2026-08-18T12:39:37.976Z</time>
      </trkpt>
      <trkpt lat="45.38864" lon="4.59123">
        <ele>1357.5</ele>
        <time>2026-08-18T12:39:38.977Z</time>
      </trkpt>
      <trkpt lat="45.38863" lon="4.5912">
        <ele>1359.1</ele>
        <time>2026-08-18T12:39:40.976Z</time>
      </trkpt>
      <trkpt lat="45.38862" lon="4.59119">
        <ele>1359.4</ele>
        <time>2026-08-18T12:39:41.976Z</time>
      </trkpt>
      <trkpt lat="45.38862" lon="4.59117">
        <ele>1358.7</ele>
        <time>2026-08-18T12:39:42.976Z</time>
      </trkpt>
      <trkpt lat="45.38862" lon="4.59116">
        <ele>1359.3</ele>
        <time>2026-08-18T12:39:43.981Z</time>
      </trkpt>
      <trkpt lat="45.38862" lon="4.59113">
        <ele>1358.7</ele>
        <time>2026-08-18T12:39:45.977Z</time>
      </trkpt>
      <trkpt lat="45.38861" lon="4.59111">
        <ele>1359.2</ele>
        <time>2026-08-18T12:39:46.977Z</time>
      </trkpt>
      <trkpt lat="45.38861" lon="4.5911">
        <ele>1359.6</ele>
        <time>2026-08-18T12:39:47.977Z</time>
      </trkpt>
      <trkpt lat="45.3886" lon="4.59108">
        <ele>1359.6</ele>
        <time>2026-08-18T12:39:49.977Z</time>
      </trkpt>
      <trkpt lat="45.38859" lon="4.59106">
        <ele>1359.3</ele>
        <time>2026-08-18T12:39:50.977Z</time>
      </trkpt>
      <trkpt lat="45.38859" lon="4.59104">
        <ele>1357.9</ele>
        <time>2026-08-18T12:39:52.976Z</time>
      </trkpt>
      <trkpt lat="45.38859" lon="4.59102">
        <ele>1355.9</ele>
        <time>2026-08-18T12:39:53.976Z</time>
      </trkpt>
      <trkpt lat="45.38858" lon="4.591">
        <ele>1356.8</ele>
        <time>2026-08-18T12:39:55.976Z</time>
      </trkpt>
      <trkpt lat="45.38858" lon="4.59098">
        <ele>1356.2</ele>
        <time>2026-08-18T12:39:56.976Z</time>
      </trkpt>
      <trkpt lat="45.38857" lon="4.59097">
        <ele>1356.2</ele>
        <time>2026-08-18T12:39:57.981Z</time>
      </trkpt>
      <trkpt lat="45.38856" lon="4.59095">
        <ele>1356.5</ele>
        <time>2026-08-18T12:39:59.976Z</time>
      </trkpt>
      <trkpt lat="45.38856" lon="4.59094">
        <ele>1355.6</ele>
        <time>2026-08-18T12:40:00.983Z</time>
      </trkpt>
      <trkpt lat="45.38855" lon="4.59092">
        <ele>1355.9</ele>
        <time>2026-08-18T12:40:02.897Z</time>
      </trkpt>
      <trkpt lat="45.38854" lon="4.5909">
        <ele>1355</ele>
        <time>2026-08-18T12:40:03.977Z</time>
      </trkpt>
      <trkpt lat="45.38854" lon="4.59089">
        <ele>1355.3</ele>
        <time>2026-08-18T12:40:04.977Z</time>
      </trkpt>
      <trkpt lat="45.38853" lon="4.59087">
        <ele>1355.8</ele>
        <time>2026-08-18T12:40:06.977Z</time>
      </trkpt>
      <trkpt lat="45.38852" lon="4.59084">
        <ele>1357.1</ele>
        <time>2026-08-18T12:40:08.977Z</time>
      </trkpt>
      <trkpt lat="45.38852" lon="4.59083">
        <ele>1357.1</ele>
        <time>2026-08-18T12:40:09.998Z</time>
      </trkpt>
      <trkpt lat="45.3885" lon="4.5908">
        <ele>1356.5</ele>
        <time>2026-08-18T12:40:11.995Z</time>
      </trkpt>
      <trkpt lat="45.38849" lon="4.59077">
        <ele>1355</ele>
        <time>2026-08-18T12:40:13.976Z</time>
      </trkpt>
      <trkpt lat="45.38848" lon="4.59076">
        <ele>1355</ele>
        <time>2026-08-18T12:40:15.000Z</time>
      </trkpt>
      <trkpt lat="45.38848" lon="4.59073">
        <ele>1354.7</ele>
        <time>2026-08-18T12:40:16.902Z</time>
      </trkpt>
      <trkpt lat="45.38848" lon="4.59071">
        <ele>1352.7</ele>
        <time>2026-08-18T12:40:17.984Z</time>
      </trkpt>
      <trkpt lat="45.38848" lon="4.5907">
        <ele>1352</ele>
        <time>2026-08-18T12:40:19.011Z</time>
      </trkpt>
      <trkpt lat="45.38848" lon="4.59066">
        <ele>1351.7</ele>
        <time>2026-08-18T12:40:20.977Z</time>
      </trkpt>
      <trkpt lat="45.38848" lon="4.59063">
        <ele>1349.5</ele>
        <time>2026-08-18T12:40:22.977Z</time>
      </trkpt>
      <trkpt lat="45.38847" lon="4.5906">
        <ele>1349</ele>
        <time>2026-08-18T12:40:24.977Z</time>
      </trkpt>
      <trkpt lat="45.38847" lon="4.59058">
        <ele>1349</ele>
        <time>2026-08-18T12:40:25.983Z</time>
      </trkpt>
      <trkpt lat="45.38847" lon="4.59055">
        <ele>1347.6</ele>
        <time>2026-08-18T12:40:27.922Z</time>
      </trkpt>
      <trkpt lat="45.38847" lon="4.59053">
        <ele>1346.2</ele>
        <time>2026-08-18T12:40:28.977Z</time>
      </trkpt>
      <trkpt lat="45.38846" lon="4.59051">
        <ele>1346</ele>
        <time>2026-08-18T12:40:29.977Z</time>
      </trkpt>
      <trkpt lat="45.38846" lon="4.5905">
        <ele>1346.1</ele>
        <time>2026-08-18T12:40:30.977Z</time>
      </trkpt>
      <trkpt lat="45.38846" lon="4.59047">
        <ele>1346.5</ele>
        <time>2026-08-18T12:40:32.977Z</time>
      </trkpt>
      <trkpt lat="45.38846" lon="4.59045">
        <ele>1346.8</ele>
        <time>2026-08-18T12:40:33.977Z</time>
      </trkpt>
      <trkpt lat="45.38845" lon="4.59044">
        <ele>1346.9</ele>
        <time>2026-08-18T12:40:34.977Z</time>
      </trkpt>
      <trkpt lat="45.38845" lon="4.5904">
        <ele>1347.7</ele>
        <time>2026-08-18T12:40:36.977Z</time>
      </trkpt>
      <trkpt lat="45.38844" lon="4.59037">
        <ele>1347.9</ele>
        <time>2026-08-18T12:40:39.000Z</time>
      </trkpt>
      <trkpt lat="45.38843" lon="4.59034">
        <ele>1347.3</ele>
        <time>2026-08-18T12:40:40.976Z</time>
      </trkpt>
      <trkpt lat="45.38842" lon="4.59032">
        <ele>1347</ele>
        <time>2026-08-18T12:40:41.976Z</time>
      </trkpt>
      <trkpt lat="45.38842" lon="4.59031">
        <ele>1347.3</ele>
        <time>2026-08-18T12:40:42.977Z</time>
      </trkpt>
      <trkpt lat="45.38841" lon="4.59029">
        <ele>1347.3</ele>
        <time>2026-08-18T12:40:43.977Z</time>
      </trkpt>
      <trkpt lat="45.38841" lon="4.59028">
        <ele>1346.5</ele>
        <time>2026-08-18T12:40:44.977Z</time>
      </trkpt>
      <trkpt lat="45.3884" lon="4.59026">
        <ele>1345.6</ele>
        <time>2026-08-18T12:40:45.977Z</time>
      </trkpt>
      <trkpt lat="45.38839" lon="4.59023">
        <ele>1347.5</ele>
        <time>2026-08-18T12:40:47.992Z</time>
      </trkpt>
      <trkpt lat="45.38838" lon="4.59021">
        <ele>1348.7</ele>
        <time>2026-08-18T12:40:49.977Z</time>
      </trkpt>
      <trkpt lat="45.38838" lon="4.59019">
        <ele>1350.1</ele>
        <time>2026-08-18T12:40:50.977Z</time>
      </trkpt>
      <trkpt lat="45.38837" lon="4.59017">
        <ele>1350</ele>
        <time>2026-08-18T12:40:51.986Z</time>
      </trkpt>
      <trkpt lat="45.38836" lon="4.59014">
        <ele>1349.9</ele>
        <time>2026-08-18T12:40:53.977Z</time>
      </trkpt>
      <trkpt lat="45.38835" lon="4.5901">
        <ele>1350.1</ele>
        <time>2026-08-18T12:40:55.976Z</time>
      </trkpt>
      <trkpt lat="45.38834" lon="4.59009">
        <ele>1349.2</ele>
        <time>2026-08-18T12:40:56.976Z</time>
      </trkpt>
      <trkpt lat="45.38833" lon="4.59006">
        <ele>1348</ele>
        <time>2026-08-18T12:40:58.977Z</time>
      </trkpt>
      <trkpt lat="45.38833" lon="4.59004">
        <ele>1347.7</ele>
        <time>2026-08-18T12:40:59.977Z</time>
      </trkpt>
      <trkpt lat="45.38832" lon="4.59">
        <ele>1348.2</ele>
        <time>2026-08-18T12:41:01.976Z</time>
      </trkpt>
      <trkpt lat="45.38831" lon="4.58999">
        <ele>1348.6</ele>
        <time>2026-08-18T12:41:02.976Z</time>
      </trkpt>
      <trkpt lat="45.38831" lon="4.58996">
        <ele>1347.9</ele>
        <time>2026-08-18T12:41:04.976Z</time>
      </trkpt>
      <trkpt lat="45.38829" lon="4.58993">
        <ele>1349.1</ele>
        <time>2026-08-18T12:41:06.976Z</time>
      </trkpt>
      <trkpt lat="45.38829" lon="4.58991">
        <ele>1348.3</ele>
        <time>2026-08-18T12:41:07.977Z</time>
      </trkpt>
      <trkpt lat="45.38828" lon="4.5899">
        <ele>1346.9</ele>
        <time>2026-08-18T12:41:08.986Z</time>
      </trkpt>
      <trkpt lat="45.38827" lon="4.58987">
        <ele>1347</ele>
        <time>2026-08-18T12:41:10.977Z</time>
      </trkpt>
      <trkpt lat="45.38827" lon="4.58985">
        <ele>1346.6</ele>
        <time>2026-08-18T12:41:11.977Z</time>
      </trkpt>
      <trkpt lat="45.38827" lon="4.58984">
        <ele>1346</ele>
        <time>2026-08-18T12:41:12.981Z</time>
      </trkpt>
      <trkpt lat="45.38826" lon="4.58981">
        <ele>1346.5</ele>
        <time>2026-08-18T12:41:14.977Z</time>
      </trkpt>
      <trkpt lat="45.38826" lon="4.58977">
        <ele>1345.1</ele>
        <time>2026-08-18T12:41:16.977Z</time>
      </trkpt>
      <trkpt lat="45.38826" lon="4.58974">
        <ele>1344.2</ele>
        <time>2026-08-18T12:41:18.976Z</time>
      </trkpt>
      <trkpt lat="45.38826" lon="4.58973">
        <ele>1344</ele>
        <time>2026-08-18T12:41:19.977Z</time>
      </trkpt>
      <trkpt lat="45.38825" lon="4.5897">
        <ele>1345</ele>
        <time>2026-08-18T12:41:21.977Z</time>
      </trkpt>
      <trkpt lat="45.38824" lon="4.58967">
        <ele>1343.5</ele>
        <time>2026-08-18T12:41:23.975Z</time>
      </trkpt>
      <trkpt lat="45.38824" lon="4.58966">
        <ele>1343.4</ele>
        <time>2026-08-18T12:41:24.977Z</time>
      </trkpt>
      <trkpt lat="45.38823" lon="4.58964">
        <ele>1343.5</ele>
        <time>2026-08-18T12:41:25.977Z</time>
      </trkpt>
      <trkpt lat="45.38823" lon="4.58963">
        <ele>1343</ele>
        <time>2026-08-18T12:41:26.977Z</time>
      </trkpt>
      <trkpt lat="45.38822" lon="4.58961">
        <ele>1343.5</ele>
        <time>2026-08-18T12:41:27.977Z</time>
      </trkpt>
      <trkpt lat="45.38822" lon="4.5896">
        <ele>1344.1</ele>
        <time>2026-08-18T12:41:28.977Z</time>
      </trkpt>
      <trkpt lat="45.38821" lon="4.58958">
        <ele>1344.1</ele>
        <time>2026-08-18T12:41:29.981Z</time>
      </trkpt>
      <trkpt lat="45.38821" lon="4.58955">
        <ele>1344.2</ele>
        <time>2026-08-18T12:41:31.915Z</time>
      </trkpt>
      <trkpt lat="45.3882" lon="4.58954">
        <ele>1343.6</ele>
        <time>2026-08-18T12:41:32.976Z</time>
      </trkpt>
      <trkpt lat="45.3882" lon="4.58952">
        <ele>1343.4</ele>
        <time>2026-08-18T12:41:33.976Z</time>
      </trkpt>
      <trkpt lat="45.3882" lon="4.58951">
        <ele>1343.6</ele>
        <time>2026-08-18T12:41:34.976Z</time>
      </trkpt>
      <trkpt lat="45.3882" lon="4.58949">
        <ele>1343.3</ele>
        <time>2026-08-18T12:41:35.977Z</time>
      </trkpt>
      <trkpt lat="45.3882" lon="4.58947">
        <ele>1342.1</ele>
        <time>2026-08-18T12:41:36.977Z</time>
      </trkpt>
      <trkpt lat="45.3882" lon="4.58944">
        <ele>1341.5</ele>
        <time>2026-08-18T12:41:38.977Z</time>
      </trkpt>
      <trkpt lat="45.38819" lon="4.58943">
        <ele>1340.3</ele>
        <time>2026-08-18T12:41:39.977Z</time>
      </trkpt>
      <trkpt lat="45.38819" lon="4.58941">
        <ele>1338.9</ele>
        <time>2026-08-18T12:41:40.977Z</time>
      </trkpt>
      <trkpt lat="45.38818" lon="4.58939">
        <ele>1338.5</ele>
        <time>2026-08-18T12:41:42.989Z</time>
      </trkpt>
      <trkpt lat="45.38818" lon="4.58936">
        <ele>1337.9</ele>
        <time>2026-08-18T12:41:44.977Z</time>
      </trkpt>
      <trkpt lat="45.38818" lon="4.58934">
        <ele>1338.3</ele>
        <time>2026-08-18T12:41:45.977Z</time>
      </trkpt>
      <trkpt lat="45.38817" lon="4.58931">
        <ele>1338.2</ele>
        <time>2026-08-18T12:41:47.977Z</time>
      </trkpt>
      <trkpt lat="45.38816" lon="4.58928">
        <ele>1338.5</ele>
        <time>2026-08-18T12:41:49.980Z</time>
      </trkpt>
      <trkpt lat="45.38815" lon="4.58925">
        <ele>1338.4</ele>
        <time>2026-08-18T12:41:51.900Z</time>
      </trkpt>
      <trkpt lat="45.38814" lon="4.58923">
        <ele>1338.9</ele>
        <time>2026-08-18T12:41:52.977Z</time>
      </trkpt>
      <trkpt lat="45.38814" lon="4.5892">
        <ele>1338.7</ele>
        <time>2026-08-18T12:41:54.976Z</time>
      </trkpt>
      <trkpt lat="45.38813" lon="4.58919">
        <ele>1338.9</ele>
        <time>2026-08-18T12:41:55.977Z</time>
      </trkpt>
      <trkpt lat="45.38813" lon="4.58916">
        <ele>1338.3</ele>
        <time>2026-08-18T12:41:57.939Z</time>
      </trkpt>
      <trkpt lat="45.38812" lon="4.58915">
        <ele>1338.6</ele>
        <time>2026-08-18T12:41:58.976Z</time>
      </trkpt>
      <trkpt lat="45.38812" lon="4.58913">
        <ele>1339.2</ele>
        <time>2026-08-18T12:41:59.989Z</time>
      </trkpt>
      <trkpt lat="45.38811" lon="4.5891">
        <ele>1340</ele>
        <time>2026-08-18T12:42:01.976Z</time>
      </trkpt>
      <trkpt lat="45.3881" lon="4.58908">
        <ele>1340.3</ele>
        <time>2026-08-18T12:42:02.977Z</time>
      </trkpt>
      <trkpt lat="45.3881" lon="4.58906">
        <ele>1340.3</ele>
        <time>2026-08-18T12:42:04.014Z</time>
      </trkpt>
      <trkpt lat="45.38809" lon="4.58904">
        <ele>1339.7</ele>
        <time>2026-08-18T12:42:05.975Z</time>
      </trkpt>
      <trkpt lat="45.38808" lon="4.58902">
        <ele>1340.3</ele>
        <time>2026-08-18T12:42:06.976Z</time>
      </trkpt>
      <trkpt lat="45.38808" lon="4.58901">
        <ele>1341.1</ele>
        <time>2026-08-18T12:42:07.977Z</time>
      </trkpt>
      <trkpt lat="45.38807" lon="4.58899">
        <ele>1343.1</ele>
        <time>2026-08-18T12:42:09.976Z</time>
      </trkpt>
      <trkpt lat="45.38806" lon="4.58898">
        <ele>1342.4</ele>
        <time>2026-08-18T12:42:10.976Z</time>
      </trkpt>
      <trkpt lat="45.38806" lon="4.58896">
        <ele>1342.2</ele>
        <time>2026-08-18T12:42:11.976Z</time>
      </trkpt>
      <trkpt lat="45.38804" lon="4.58893">
        <ele>1341.9</ele>
        <time>2026-08-18T12:42:13.976Z</time>
      </trkpt>
      <trkpt lat="45.38804" lon="4.58892">
        <ele>1342.3</ele>
        <time>2026-08-18T12:42:14.976Z</time>
      </trkpt>
      <trkpt lat="45.38803" lon="4.5889">
        <ele>1342.3</ele>
        <time>2026-08-18T12:42:15.976Z</time>
      </trkpt>
      <trkpt lat="45.38803" lon="4.58888">
        <ele>1342.3</ele>
        <time>2026-08-18T12:42:16.991Z</time>
      </trkpt>
      <trkpt lat="45.38802" lon="4.58885">
        <ele>1341.4</ele>
        <time>2026-08-18T12:42:18.976Z</time>
      </trkpt>
      <trkpt lat="45.38801" lon="4.58881">
        <ele>1341.6</ele>
        <time>2026-08-18T12:42:20.984Z</time>
      </trkpt>
      <trkpt lat="45.388" lon="4.58878">
        <ele>1340.6</ele>
        <time>2026-08-18T12:42:22.976Z</time>
      </trkpt>
      <trkpt lat="45.388" lon="4.58877">
        <ele>1340.2</ele>
        <time>2026-08-18T12:42:23.976Z</time>
      </trkpt>
      <trkpt lat="45.388" lon="4.58875">
        <ele>1340.4</ele>
        <time>2026-08-18T12:42:24.979Z</time>
      </trkpt>
      <trkpt lat="45.38799" lon="4.58873">
        <ele>1341.5</ele>
        <time>2026-08-18T12:42:26.976Z</time>
      </trkpt>
      <trkpt lat="45.38799" lon="4.5887">
        <ele>1341.9</ele>
        <time>2026-08-18T12:42:28.975Z</time>
      </trkpt>
      <trkpt lat="45.38799" lon="4.58868">
        <ele>1342.1</ele>
        <time>2026-08-18T12:42:29.976Z</time>
      </trkpt>
      <trkpt lat="45.38799" lon="4.58865">
        <ele>1342.9</ele>
        <time>2026-08-18T12:42:31.975Z</time>
      </trkpt>
      <trkpt lat="45.38799" lon="4.58864">
        <ele>1343.4</ele>
        <time>2026-08-18T12:42:32.975Z</time>
      </trkpt>
      <trkpt lat="45.38799" lon="4.58862">
        <ele>1343.5</ele>
        <time>2026-08-18T12:42:33.992Z</time>
      </trkpt>
      <trkpt lat="45.38799" lon="4.58859">
        <ele>1344.5</ele>
        <time>2026-08-18T12:42:35.975Z</time>
      </trkpt>
      <trkpt lat="45.38799" lon="4.58856">
        <ele>1343.5</ele>
        <time>2026-08-18T12:42:37.985Z</time>
      </trkpt>
      <trkpt lat="45.38799" lon="4.58853">
        <ele>1343.4</ele>
        <time>2026-08-18T12:42:39.919Z</time>
      </trkpt>
      <trkpt lat="45.38799" lon="4.58851">
        <ele>1342.8</ele>
        <time>2026-08-18T12:42:40.975Z</time>
      </trkpt>
      <trkpt lat="45.38799" lon="4.5885">
        <ele>1342.7</ele>
        <time>2026-08-18T12:42:41.980Z</time>
      </trkpt>
      <trkpt lat="45.38799" lon="4.58846">
        <ele>1341.1</ele>
        <time>2026-08-18T12:42:43.997Z</time>
      </trkpt>
      <trkpt lat="45.38798" lon="4.58843">
        <ele>1339</ele>
        <time>2026-08-18T12:42:45.976Z</time>
      </trkpt>
      <trkpt lat="45.38798" lon="4.5884">
        <ele>1339.9</ele>
        <time>2026-08-18T12:42:47.976Z</time>
      </trkpt>
      <trkpt lat="45.38797" lon="4.58839">
        <ele>1339</ele>
        <time>2026-08-18T12:42:48.976Z</time>
      </trkpt>
      <trkpt lat="45.38797" lon="4.58838">
        <ele>1339.3</ele>
        <time>2026-08-18T12:42:49.976Z</time>
      </trkpt>
      <trkpt lat="45.38796" lon="4.58837">
        <ele>1338.8</ele>
        <time>2026-08-18T12:42:50.993Z</time>
      </trkpt>
      <trkpt lat="45.38795" lon="4.58834">
        <ele>1338.6</ele>
        <time>2026-08-18T12:42:52.955Z</time>
      </trkpt>
      <trkpt lat="45.38794" lon="4.58833">
        <ele>1339.4</ele>
        <time>2026-08-18T12:42:53.976Z</time>
      </trkpt>
      <trkpt lat="45.38793" lon="4.58831">
        <ele>1339.1</ele>
        <time>2026-08-18T12:42:55.976Z</time>
      </trkpt>
      <trkpt lat="45.38791" lon="4.58828">
        <ele>1339.8</ele>
        <time>2026-08-18T12:42:57.975Z</time>
      </trkpt>
      <trkpt lat="45.3879" lon="4.58826">
        <ele>1340.9</ele>
        <time>2026-08-18T12:42:59.976Z</time>
      </trkpt>
      <trkpt lat="45.3879" lon="4.58825">
        <ele>1340.3</ele>
        <time>2026-08-18T12:43:00.976Z</time>
      </trkpt>
      <trkpt lat="45.38789" lon="4.58823">
        <ele>1340.3</ele>
        <time>2026-08-18T12:43:02.016Z</time>
      </trkpt>
      <trkpt lat="45.38788" lon="4.5882">
        <ele>1340.3</ele>
        <time>2026-08-18T12:43:03.975Z</time>
      </trkpt>
      <trkpt lat="45.38788" lon="4.58819">
        <ele>1340</ele>
        <time>2026-08-18T12:43:04.976Z</time>
      </trkpt>
      <trkpt lat="45.38787" lon="4.58817">
        <ele>1339.5</ele>
        <time>2026-08-18T12:43:05.976Z</time>
      </trkpt>
      <trkpt lat="45.38786" lon="4.58814">
        <ele>1340.4</ele>
        <time>2026-08-18T12:43:07.995Z</time>
      </trkpt>
      <trkpt lat="45.38786" lon="4.58811">
        <ele>1341</ele>
        <time>2026-08-18T12:43:09.976Z</time>
      </trkpt>
      <trkpt lat="45.38786" lon="4.58809">
        <ele>1341.3</ele>
        <time>2026-08-18T12:43:10.976Z</time>
      </trkpt>
      <trkpt lat="45.38785" lon="4.58806">
        <ele>1342.9</ele>
        <time>2026-08-18T12:43:12.976Z</time>
      </trkpt>
      <trkpt lat="45.38784" lon="4.58804">
        <ele>1343.1</ele>
        <time>2026-08-18T12:43:13.976Z</time>
      </trkpt>
      <trkpt lat="45.38784" lon="4.58803">
        <ele>1343.1</ele>
        <time>2026-08-18T12:43:14.976Z</time>
      </trkpt>
      <trkpt lat="45.38783" lon="4.58801">
        <ele>1343.2</ele>
        <time>2026-08-18T12:43:15.976Z</time>
      </trkpt>
      <trkpt lat="45.38783" lon="4.58799">
        <ele>1343.3</ele>
        <time>2026-08-18T12:43:16.976Z</time>
      </trkpt>
      <trkpt lat="45.38782" lon="4.58796">
        <ele>1344.3</ele>
        <time>2026-08-18T12:43:18.875Z</time>
      </trkpt>
      <trkpt lat="45.38782" lon="4.58795">
        <ele>1342.9</ele>
        <time>2026-08-18T12:43:19.976Z</time>
      </trkpt>
      <trkpt lat="45.38782" lon="4.58793">
        <ele>1343.1</ele>
        <time>2026-08-18T12:43:20.976Z</time>
      </trkpt>
      <trkpt lat="45.38781" lon="4.5879">
        <ele>1344.5</ele>
        <time>2026-08-18T12:43:22.975Z</time>
      </trkpt>
      <trkpt lat="45.3878" lon="4.58788">
        <ele>1344.3</ele>
        <time>2026-08-18T12:43:23.975Z</time>
      </trkpt>
      <trkpt lat="45.3878" lon="4.58787">
        <ele>1343.4</ele>
        <time>2026-08-18T12:43:24.975Z</time>
      </trkpt>
      <trkpt lat="45.38779" lon="4.58785">
        <ele>1343.4</ele>
        <time>2026-08-18T12:43:25.996Z</time>
      </trkpt>
      <trkpt lat="45.38779" lon="4.58782">
        <ele>1343.2</ele>
        <time>2026-08-18T12:43:27.976Z</time>
      </trkpt>
      <trkpt lat="45.38778" lon="4.5878">
        <ele>1343.8</ele>
        <time>2026-08-18T12:43:28.988Z</time>
      </trkpt>
      <trkpt lat="45.38777" lon="4.58778">
        <ele>1344</ele>
        <time>2026-08-18T12:43:30.976Z</time>
      </trkpt>
      <trkpt lat="45.38776" lon="4.58775">
        <ele>1343.4</ele>
        <time>2026-08-18T12:43:32.982Z</time>
      </trkpt>
      <trkpt lat="45.38775" lon="4.58772">
        <ele>1343.9</ele>
        <time>2026-08-18T12:43:34.975Z</time>
      </trkpt>
      <trkpt lat="45.38775" lon="4.5877">
        <ele>1343.2</ele>
        <time>2026-08-18T12:43:35.976Z</time>
      </trkpt>
      <trkpt lat="45.38775" lon="4.58768">
        <ele>1343.2</ele>
        <time>2026-08-18T12:43:36.976Z</time>
      </trkpt>
      <trkpt lat="45.38774" lon="4.58767">
        <ele>1343.6</ele>
        <time>2026-08-18T12:43:37.976Z</time>
      </trkpt>
      <trkpt lat="45.38774" lon="4.58765">
        <ele>1342.8</ele>
        <time>2026-08-18T12:43:38.976Z</time>
      </trkpt>
      <trkpt lat="45.38773" lon="4.58762">
        <ele>1343</ele>
        <time>2026-08-18T12:43:40.876Z</time>
      </trkpt>
      <trkpt lat="45.38773" lon="4.5876">
        <ele>1343.8</ele>
        <time>2026-08-18T12:43:41.997Z</time>
      </trkpt>
      <trkpt lat="45.38771" lon="4.58757">
        <ele>1345</ele>
        <time>2026-08-18T12:43:43.976Z</time>
      </trkpt>
      <trkpt lat="45.38771" lon="4.58756">
        <ele>1345.3</ele>
        <time>2026-08-18T12:43:44.976Z</time>
      </trkpt>
      <trkpt lat="45.3877" lon="4.58752">
        <ele>1343.7</ele>
        <time>2026-08-18T12:43:46.975Z</time>
      </trkpt>
      <trkpt lat="45.3877" lon="4.58751">
        <ele>1343.6</ele>
        <time>2026-08-18T12:43:47.975Z</time>
      </trkpt>
      <trkpt lat="45.38769" lon="4.58749">
        <ele>1343.6</ele>
        <time>2026-08-18T12:43:48.975Z</time>
      </trkpt>
      <trkpt lat="45.38769" lon="4.58748">
        <ele>1343.1</ele>
        <time>2026-08-18T12:43:49.984Z</time>
      </trkpt>
      <trkpt lat="45.38767" lon="4.58745">
        <ele>1342.8</ele>
        <time>2026-08-18T12:43:51.975Z</time>
      </trkpt>
      <trkpt lat="45.38767" lon="4.58743">
        <ele>1342.7</ele>
        <time>2026-08-18T12:43:52.976Z</time>
      </trkpt>
      <trkpt lat="45.38766" lon="4.58742">
        <ele>1342.7</ele>
        <time>2026-08-18T12:43:53.980Z</time>
      </trkpt>
      <trkpt lat="45.38765" lon="4.58739">
        <ele>1342.5</ele>
        <time>2026-08-18T12:43:55.976Z</time>
      </trkpt>
      <trkpt lat="45.38764" lon="4.58737">
        <ele>1342.5</ele>
        <time>2026-08-18T12:43:56.994Z</time>
      </trkpt>
      <trkpt lat="45.38763" lon="4.58735">
        <ele>1341.8</ele>
        <time>2026-08-18T12:43:58.934Z</time>
      </trkpt>
      <trkpt lat="45.38762" lon="4.58734">
        <ele>1341.2</ele>
        <time>2026-08-18T12:43:59.976Z</time>
      </trkpt>
      <trkpt lat="45.38761" lon="4.58731">
        <ele>1340.6</ele>
        <time>2026-08-18T12:44:01.900Z</time>
      </trkpt>
      <trkpt lat="45.38761" lon="4.58729">
        <ele>1339.9</ele>
        <time>2026-08-18T12:44:02.991Z</time>
      </trkpt>
      <trkpt lat="45.3876" lon="4.58726">
        <ele>1339.1</ele>
        <time>2026-08-18T12:44:04.976Z</time>
      </trkpt>
      <trkpt lat="45.3876" lon="4.58723">
        <ele>1337.4</ele>
        <time>2026-08-18T12:44:06.984Z</time>
      </trkpt>
      <trkpt lat="45.38759" lon="4.5872">
        <ele>1337.3</ele>
        <time>2026-08-18T12:44:08.976Z</time>
      </trkpt>
      <trkpt lat="45.38759" lon="4.58718">
        <ele>1336.8</ele>
        <time>2026-08-18T12:44:09.976Z</time>
      </trkpt>
      <trkpt lat="45.38759" lon="4.58716">
        <ele>1336.7</ele>
        <time>2026-08-18T12:44:10.978Z</time>
      </trkpt>
      <trkpt lat="45.38758" lon="4.58713">
        <ele>1336.8</ele>
        <time>2026-08-18T12:44:12.883Z</time>
      </trkpt>
      <trkpt lat="45.38758" lon="4.58711">
        <ele>1336.7</ele>
        <time>2026-08-18T12:44:13.994Z</time>
      </trkpt>
      <trkpt lat="45.38757" lon="4.58709">
        <ele>1335.5</ele>
        <time>2026-08-18T12:44:15.976Z</time>
      </trkpt>
      <trkpt lat="45.38756" lon="4.58707">
        <ele>1335.6</ele>
        <time>2026-08-18T12:44:16.976Z</time>
      </trkpt>
      <trkpt lat="45.38756" lon="4.58704">
        <ele>1335.2</ele>
        <time>2026-08-18T12:44:18.976Z</time>
      </trkpt>
      <trkpt lat="45.38754" lon="4.58701">
        <ele>1334.9</ele>
        <time>2026-08-18T12:44:20.974Z</time>
      </trkpt>
      <trkpt lat="45.38754" lon="4.587">
        <ele>1335</ele>
        <time>2026-08-18T12:44:21.976Z</time>
      </trkpt>
      <trkpt lat="45.38753" lon="4.58697">
        <ele>1335.3</ele>
        <time>2026-08-18T12:44:23.985Z</time>
      </trkpt>
      <trkpt lat="45.38752" lon="4.58694">
        <ele>1334.9</ele>
        <time>2026-08-18T12:44:25.976Z</time>
      </trkpt>
      <trkpt lat="45.38751" lon="4.58691">
        <ele>1334.9</ele>
        <time>2026-08-18T12:44:27.980Z</time>
      </trkpt>
      <trkpt lat="45.3875" lon="4.58688">
        <ele>1335.6</ele>
        <time>2026-08-18T12:44:29.975Z</time>
      </trkpt>
      <trkpt lat="45.3875" lon="4.58686">
        <ele>1335.6</ele>
        <time>2026-08-18T12:44:30.977Z</time>
      </trkpt>
      <trkpt lat="45.38749" lon="4.58683">
        <ele>1335</ele>
        <time>2026-08-18T12:44:32.976Z</time>
      </trkpt>
      <trkpt lat="45.38748" lon="4.58682">
        <ele>1335.1</ele>
        <time>2026-08-18T12:44:33.976Z</time>
      </trkpt>
      <trkpt lat="45.38747" lon="4.5868">
        <ele>1335.4</ele>
        <time>2026-08-18T12:44:34.976Z</time>
      </trkpt>
      <trkpt lat="45.38746" lon="4.58677">
        <ele>1334.7</ele>
        <time>2026-08-18T12:44:36.994Z</time>
      </trkpt>
      <trkpt lat="45.38745" lon="4.58674">
        <ele>1336.6</ele>
        <time>2026-08-18T12:44:38.976Z</time>
      </trkpt>
      <trkpt lat="45.38745" lon="4.58673">
        <ele>1337.1</ele>
        <time>2026-08-18T12:44:39.976Z</time>
      </trkpt>
      <trkpt lat="45.38744" lon="4.58671">
        <ele>1336.2</ele>
        <time>2026-08-18T12:44:40.976Z</time>
      </trkpt>
      <trkpt lat="45.38743" lon="4.58668">
        <ele>1335.6</ele>
        <time>2026-08-18T12:44:42.975Z</time>
      </trkpt>
      <trkpt lat="45.38743" lon="4.58667">
        <ele>1335.7</ele>
        <time>2026-08-18T12:44:43.976Z</time>
      </trkpt>
      <trkpt lat="45.38742" lon="4.58665">
        <ele>1336.1</ele>
        <time>2026-08-18T12:44:44.976Z</time>
      </trkpt>
      <trkpt lat="45.38742" lon="4.58663">
        <ele>1336.4</ele>
        <time>2026-08-18T12:44:45.976Z</time>
      </trkpt>
      <trkpt lat="45.38741" lon="4.58662">
        <ele>1337.5</ele>
        <time>2026-08-18T12:44:46.976Z</time>
      </trkpt>
      <trkpt lat="45.38741" lon="4.58659">
        <ele>1338.2</ele>
        <time>2026-08-18T12:44:48.975Z</time>
      </trkpt>
      <trkpt lat="45.3874" lon="4.58657">
        <ele>1338.4</ele>
        <time>2026-08-18T12:44:49.975Z</time>
      </trkpt>
      <trkpt lat="45.3874" lon="4.58655">
        <ele>1337.7</ele>
        <time>2026-08-18T12:44:50.976Z</time>
      </trkpt>
      <trkpt lat="45.38739" lon="4.58654">
        <ele>1337.7</ele>
        <time>2026-08-18T12:44:52.018Z</time>
      </trkpt>
      <trkpt lat="45.38739" lon="4.58651">
        <ele>1338.1</ele>
        <time>2026-08-18T12:44:53.974Z</time>
      </trkpt>
      <trkpt lat="45.38738" lon="4.58649">
        <ele>1338.5</ele>
        <time>2026-08-18T12:44:54.976Z</time>
      </trkpt>
      <trkpt lat="45.38738" lon="4.58648">
        <ele>1338.1</ele>
        <time>2026-08-18T12:44:55.976Z</time>
      </trkpt>
      <trkpt lat="45.38737" lon="4.58646">
        <ele>1338.1</ele>
        <time>2026-08-18T12:44:56.983Z</time>
      </trkpt>
      <trkpt lat="45.38737" lon="4.58645">
        <ele>1339.1</ele>
        <time>2026-08-18T12:44:57.987Z</time>
      </trkpt>
      <trkpt lat="45.38736" lon="4.58642">
        <ele>1339.1</ele>
        <time>2026-08-18T12:44:59.975Z</time>
      </trkpt>
      <trkpt lat="45.38736" lon="4.5864">
        <ele>1338.4</ele>
        <time>2026-08-18T12:45:00.976Z</time>
      </trkpt>
      <trkpt lat="45.38735" lon="4.58637">
        <ele>1336.8</ele>
        <time>2026-08-18T12:45:03.009Z</time>
      </trkpt>
      <trkpt lat="45.38734" lon="4.58634">
        <ele>1336.8</ele>
        <time>2026-08-18T12:45:04.976Z</time>
      </trkpt>
      <trkpt lat="45.38733" lon="4.58632">
        <ele>1337</ele>
        <time>2026-08-18T12:45:05.976Z</time>
      </trkpt>
      <trkpt lat="45.38733" lon="4.58629">
        <ele>1336.9</ele>
        <time>2026-08-18T12:45:07.975Z</time>
      </trkpt>
      <trkpt lat="45.38732" lon="4.58627">
        <ele>1336.9</ele>
        <time>2026-08-18T12:45:08.981Z</time>
      </trkpt>
      <trkpt lat="45.38732" lon="4.58625">
        <ele>1337.2</ele>
        <time>2026-08-18T12:45:10.975Z</time>
      </trkpt>
      <trkpt lat="45.38732" lon="4.58623">
        <ele>1337.6</ele>
        <time>2026-08-18T12:45:11.975Z</time>
      </trkpt>
      <trkpt lat="45.38731" lon="4.58621">
        <ele>1337.6</ele>
        <time>2026-08-18T12:45:13.013Z</time>
      </trkpt>
      <trkpt lat="45.38731" lon="4.58618">
        <ele>1338</ele>
        <time>2026-08-18T12:45:14.976Z</time>
      </trkpt>
      <trkpt lat="45.38731" lon="4.58617">
        <ele>1338.5</ele>
        <time>2026-08-18T12:45:15.976Z</time>
      </trkpt>
      <trkpt lat="45.38731" lon="4.58614">
        <ele>1338.7</ele>
        <time>2026-08-18T12:45:17.996Z</time>
      </trkpt>
      <trkpt lat="45.38731" lon="4.58611">
        <ele>1339.8</ele>
        <time>2026-08-18T12:45:19.976Z</time>
      </trkpt>
      <trkpt lat="45.3873" lon="4.58609">
        <ele>1339.8</ele>
        <time>2026-08-18T12:45:20.976Z</time>
      </trkpt>
      <trkpt lat="45.3873" lon="4.58606">
        <ele>1340.9</ele>
        <time>2026-08-18T12:45:22.976Z</time>
      </trkpt>
      <trkpt lat="45.38729" lon="4.58603">
        <ele>1339.3</ele>
        <time>2026-08-18T12:45:24.975Z</time>
      </trkpt>
      <trkpt lat="45.38729" lon="4.58601">
        <ele>1338.9</ele>
        <time>2026-08-18T12:45:25.975Z</time>
      </trkpt>
      <trkpt lat="45.38729" lon="4.586">
        <ele>1337.2</ele>
        <time>2026-08-18T12:45:26.975Z</time>
      </trkpt>
      <trkpt lat="45.38728" lon="4.58596">
        <ele>1336.5</ele>
        <time>2026-08-18T12:45:28.976Z</time>
      </trkpt>
      <trkpt lat="45.38728" lon="4.58595">
        <ele>1334.7</ele>
        <time>2026-08-18T12:45:29.976Z</time>
      </trkpt>
      <trkpt lat="45.38728" lon="4.58591">
        <ele>1335</ele>
        <time>2026-08-18T12:45:31.989Z</time>
      </trkpt>
      <trkpt lat="45.38728" lon="4.58588">
        <ele>1334.2</ele>
        <time>2026-08-18T12:45:33.895Z</time>
      </trkpt>
      <trkpt lat="45.38728" lon="4.58586">
        <ele>1335.1</ele>
        <time>2026-08-18T12:45:34.975Z</time>
      </trkpt>
      <trkpt lat="45.38727" lon="4.58585">
        <ele>1335</ele>
        <time>2026-08-18T12:45:35.983Z</time>
      </trkpt>
      <trkpt lat="45.38727" lon="4.58582">
        <ele>1335.2</ele>
        <time>2026-08-18T12:45:37.975Z</time>
      </trkpt>
      <trkpt lat="45.38727" lon="4.5858">
        <ele>1334.7</ele>
        <time>2026-08-18T12:45:38.976Z</time>
      </trkpt>
      <trkpt lat="45.38727" lon="4.58577">
        <ele>1333.7</ele>
        <time>2026-08-18T12:45:40.921Z</time>
      </trkpt>
      <trkpt lat="45.38727" lon="4.58576">
        <ele>1333.6</ele>
        <time>2026-08-18T12:45:41.974Z</time>
      </trkpt>
      <trkpt lat="45.38727" lon="4.58574">
        <ele>1333.7</ele>
        <time>2026-08-18T12:45:42.976Z</time>
      </trkpt>
      <trkpt lat="45.38728" lon="4.58572">
        <ele>1334.8</ele>
        <time>2026-08-18T12:45:43.976Z</time>
      </trkpt>
      <trkpt lat="45.38727" lon="4.58571">
        <ele>1334</ele>
        <time>2026-08-18T12:45:44.976Z</time>
      </trkpt>
      <trkpt lat="45.38727" lon="4.58567">
        <ele>1333.4</ele>
        <time>2026-08-18T12:45:46.976Z</time>
      </trkpt>
      <trkpt lat="45.38727" lon="4.58566">
        <ele>1332.7</ele>
        <time>2026-08-18T12:45:47.976Z</time>
      </trkpt>
      <trkpt lat="45.38726" lon="4.58564">
        <ele>1332.8</ele>
        <time>2026-08-18T12:45:48.991Z</time>
      </trkpt>
      <trkpt lat="45.38727" lon="4.58561">
        <ele>1333.4</ele>
        <time>2026-08-18T12:45:50.976Z</time>
      </trkpt>
      <trkpt lat="45.38727" lon="4.58557">
        <ele>1333.1</ele>
        <time>2026-08-18T12:45:52.985Z</time>
      </trkpt>
      <trkpt lat="45.38727" lon="4.58554">
        <ele>1332.1</ele>
        <time>2026-08-18T12:45:54.975Z</time>
      </trkpt>
      <trkpt lat="45.38727" lon="4.58552">
        <ele>1332.1</ele>
        <time>2026-08-18T12:45:55.983Z</time>
      </trkpt>
      <trkpt lat="45.38727" lon="4.58549">
        <ele>1329.8</ele>
        <time>2026-08-18T12:45:58.005Z</time>
      </trkpt>
      <trkpt lat="45.38727" lon="4.58546">
        <ele>1328.8</ele>
        <time>2026-08-18T12:45:59.976Z</time>
      </trkpt>
      <trkpt lat="45.38727" lon="4.58543">
        <ele>1328.3</ele>
        <time>2026-08-18T12:46:01.999Z</time>
      </trkpt>
      <trkpt lat="45.38727" lon="4.5854">
        <ele>1328.1</ele>
        <time>2026-08-18T12:46:03.975Z</time>
      </trkpt>
      <trkpt lat="45.38727" lon="4.58538">
        <ele>1328.2</ele>
        <time>2026-08-18T12:46:04.975Z</time>
      </trkpt>
      <trkpt lat="45.38726" lon="4.58537">
        <ele>1328.1</ele>
        <time>2026-08-18T12:46:05.976Z</time>
      </trkpt>
      <trkpt lat="45.38726" lon="4.58533">
        <ele>1329.1</ele>
        <time>2026-08-18T12:46:07.976Z</time>
      </trkpt>
      <trkpt lat="45.38726" lon="4.5853">
        <ele>1330.3</ele>
        <time>2026-08-18T12:46:09.986Z</time>
      </trkpt>
      <trkpt lat="45.38726" lon="4.58527">
        <ele>1330.4</ele>
        <time>2026-08-18T12:46:11.918Z</time>
      </trkpt>
      <trkpt lat="45.38727" lon="4.58525">
        <ele>1331.9</ele>
        <time>2026-08-18T12:46:12.976Z</time>
      </trkpt>
      <trkpt lat="45.38727" lon="4.58523">
        <ele>1331.1</ele>
        <time>2026-08-18T12:46:13.978Z</time>
      </trkpt>
      <trkpt lat="45.38728" lon="4.5852">
        <ele>1330</ele>
        <time>2026-08-18T12:46:15.976Z</time>
      </trkpt>
      <trkpt lat="45.38728" lon="4.58518">
        <ele>1329.7</ele>
        <time>2026-08-18T12:46:17.975Z</time>
      </trkpt>
      <trkpt lat="45.38729" lon="4.58515">
        <ele>1329.9</ele>
        <time>2026-08-18T12:46:19.975Z</time>
      </trkpt>
      <trkpt lat="45.38729" lon="4.58514">
        <ele>1328.4</ele>
        <time>2026-08-18T12:46:20.975Z</time>
      </trkpt>
      <trkpt lat="45.38731" lon="4.58514">
        <ele>1328.1</ele>
        <time>2026-08-18T12:46:22.975Z</time>
      </trkpt>
      <trkpt lat="45.38732" lon="4.58514">
        <ele>1327.7</ele>
        <time>2026-08-18T12:46:23.976Z</time>
      </trkpt>
      <trkpt lat="45.38732" lon="4.58514">
        <ele>1327.7</ele>
        <time>2026-08-18T12:46:24.976Z</time>
      </trkpt>
      <trkpt lat="45.38732" lon="4.58515">
        <ele>1327.7</ele>
        <time>2026-08-18T12:46:25.976Z</time>
      </trkpt>
      <trkpt lat="45.38732" lon="4.58516">
        <ele>1327.7</ele>
        <time>2026-08-18T12:46:28.014Z</time>
      </trkpt>
      <trkpt lat="45.38732" lon="4.58517">
        <ele>1327.7</ele>
        <time>2026-08-18T12:46:29.976Z</time>
      </trkpt>
      <trkpt lat="45.38732" lon="4.58517">
        <ele>1326.1</ele>
        <time>2026-08-18T12:46:31.976Z</time>
      </trkpt>
      <trkpt lat="45.38732" lon="4.58517">
        <ele>1325.9</ele>
        <time>2026-08-18T12:46:33.976Z</time>
      </trkpt>
      <trkpt lat="45.38733" lon="4.58517">
        <ele>1325.8</ele>
        <time>2026-08-18T12:46:35.976Z</time>
      </trkpt>
      <trkpt lat="45.38735" lon="4.58517">
        <ele>1325.3</ele>
        <time>2026-08-18T12:46:36.976Z</time>
      </trkpt>
      <trkpt lat="45.38737" lon="4.58517">
        <ele>1324.8</ele>
        <time>2026-08-18T12:46:37.976Z</time>
      </trkpt>
      <trkpt lat="45.38738" lon="4.58518">
        <ele>1325.3</ele>
        <time>2026-08-18T12:46:38.976Z</time>
      </trkpt>
      <trkpt lat="45.3874" lon="4.5852">
        <ele>1321.8</ele>
        <time>2026-08-18T12:46:40.975Z</time>
      </trkpt>
      <trkpt lat="45.38742" lon="4.58521">
        <ele>1322.1</ele>
        <time>2026-08-18T12:46:41.976Z</time>
      </trkpt>
      <trkpt lat="45.38743" lon="4.58521">
        <ele>1323.8</ele>
        <time>2026-08-18T12:46:42.976Z</time>
      </trkpt>
      <trkpt lat="45.38744" lon="4.58522">
        <ele>1322.1</ele>
        <time>2026-08-18T12:46:43.988Z</time>
      </trkpt>
      <trkpt lat="45.38746" lon="4.58524">
        <ele>1322.4</ele>
        <time>2026-08-18T12:46:45.976Z</time>
      </trkpt>
      <trkpt lat="45.38747" lon="4.58525">
        <ele>1323</ele>
        <time>2026-08-18T12:46:46.976Z</time>
      </trkpt>
      <trkpt lat="45.38749" lon="4.58527">
        <ele>1320.7</ele>
        <time>2026-08-18T12:46:48.975Z</time>
      </trkpt>
      <trkpt lat="45.38751" lon="4.58528">
        <ele>1321.8</ele>
        <time>2026-08-18T12:46:49.975Z</time>
      </trkpt>
      <trkpt lat="45.38752" lon="4.58528">
        <ele>1323.1</ele>
        <time>2026-08-18T12:46:50.976Z</time>
      </trkpt>
      <trkpt lat="45.38754" lon="4.5853">
        <ele>1322.7</ele>
        <time>2026-08-18T12:46:53.003Z</time>
      </trkpt>
      <trkpt lat="45.38757" lon="4.58531">
        <ele>1323</ele>
        <time>2026-08-18T12:46:54.976Z</time>
      </trkpt>
      <trkpt lat="45.38759" lon="4.58533">
        <ele>1323.1</ele>
        <time>2026-08-18T12:46:56.975Z</time>
      </trkpt>
      <trkpt lat="45.38761" lon="4.58536">
        <ele>1323.6</ele>
        <time>2026-08-18T12:46:58.976Z</time>
      </trkpt>
      <trkpt lat="45.38763" lon="4.58538">
        <ele>1328.6</ele>
        <time>2026-08-18T12:47:00.990Z</time>
      </trkpt>
      <trkpt lat="45.38764" lon="4.58539">
        <ele>1328.4</ele>
        <time>2026-08-18T12:47:02.975Z</time>
      </trkpt>
      <trkpt lat="45.38766" lon="4.5854">
        <ele>1326.7</ele>
        <time>2026-08-18T12:47:04.976Z</time>
      </trkpt>
      <trkpt lat="45.38769" lon="4.5854">
        <ele>1325.4</ele>
        <time>2026-08-18T12:47:06.976Z</time>
      </trkpt>
      <trkpt lat="45.3877" lon="4.58541">
        <ele>1325.6</ele>
        <time>2026-08-18T12:47:07.976Z</time>
      </trkpt>
      <trkpt lat="45.38771" lon="4.5854">
        <ele>1326.1</ele>
        <time>2026-08-18T12:47:08.977Z</time>
      </trkpt>
      <trkpt lat="45.38772" lon="4.5854">
        <ele>1326.1</ele>
        <time>2026-08-18T12:47:09.997Z</time>
      </trkpt>
      <trkpt lat="45.38774" lon="4.5854">
        <ele>1326.9</ele>
        <time>2026-08-18T12:47:12.003Z</time>
      </trkpt>
      <trkpt lat="45.38776" lon="4.5854">
        <ele>1327.9</ele>
        <time>2026-08-18T12:47:13.976Z</time>
      </trkpt>
      <trkpt lat="45.38779" lon="4.5854">
        <ele>1327.7</ele>
        <time>2026-08-18T12:47:15.976Z</time>
      </trkpt>
      <trkpt lat="45.38781" lon="4.5854">
        <ele>1327.8</ele>
        <time>2026-08-18T12:47:17.991Z</time>
      </trkpt>
      <trkpt lat="45.38783" lon="4.5854">
        <ele>1325.8</ele>
        <time>2026-08-18T12:47:19.976Z</time>
      </trkpt>
      <trkpt lat="45.38784" lon="4.58539">
        <ele>1325.9</ele>
        <time>2026-08-18T12:47:20.976Z</time>
      </trkpt>
      <trkpt lat="45.38785" lon="4.58539">
        <ele>1326.3</ele>
        <time>2026-08-18T12:47:21.985Z</time>
      </trkpt>
      <trkpt lat="45.38786" lon="4.58539">
        <ele>1326.3</ele>
        <time>2026-08-18T12:47:22.995Z</time>
      </trkpt>
      <trkpt lat="45.38788" lon="4.58537">
        <ele>1328.3</ele>
        <time>2026-08-18T12:47:24.975Z</time>
      </trkpt>
      <trkpt lat="45.38789" lon="4.58536">
        <ele>1328</ele>
        <time>2026-08-18T12:47:25.978Z</time>
      </trkpt>
      <trkpt lat="45.38791" lon="4.58535">
        <ele>1329.3</ele>
        <time>2026-08-18T12:47:27.975Z</time>
      </trkpt>
      <trkpt lat="45.38793" lon="4.58534">
        <ele>1327.9</ele>
        <time>2026-08-18T12:47:29.976Z</time>
      </trkpt>
      <trkpt lat="45.38796" lon="4.58532">
        <ele>1328.3</ele>
        <time>2026-08-18T12:47:31.981Z</time>
      </trkpt>
      <trkpt lat="45.38799" lon="4.58532">
        <ele>1327.5</ele>
        <time>2026-08-18T12:47:33.976Z</time>
      </trkpt>
      <trkpt lat="45.38801" lon="4.58532">
        <ele>1327.8</ele>
        <time>2026-08-18T12:47:34.976Z</time>
      </trkpt>
      <trkpt lat="45.38802" lon="4.58532">
        <ele>1327.1</ele>
        <time>2026-08-18T12:47:35.976Z</time>
      </trkpt>
      <trkpt lat="45.38804" lon="4.58531">
        <ele>1327.2</ele>
        <time>2026-08-18T12:47:37.975Z</time>
      </trkpt>
      <trkpt lat="45.38805" lon="4.58531">
        <ele>1327.6</ele>
        <time>2026-08-18T12:47:38.975Z</time>
      </trkpt>
      <trkpt lat="45.38806" lon="4.58531">
        <ele>1328.3</ele>
        <time>2026-08-18T12:47:39.976Z</time>
      </trkpt>
      <trkpt lat="45.38807" lon="4.58531">
        <ele>1329</ele>
        <time>2026-08-18T12:47:40.976Z</time>
      </trkpt>
      <trkpt lat="45.38809" lon="4.5853">
        <ele>1325.2</ele>
        <time>2026-08-18T12:47:42.979Z</time>
      </trkpt>
      <trkpt lat="45.38811" lon="4.58529">
        <ele>1327.5</ele>
        <time>2026-08-18T12:47:44.975Z</time>
      </trkpt>
      <trkpt lat="45.38812" lon="4.58529">
        <ele>1328.7</ele>
        <time>2026-08-18T12:47:45.976Z</time>
      </trkpt>
      <trkpt lat="45.38814" lon="4.58529">
        <ele>1328.9</ele>
        <time>2026-08-18T12:47:48.000Z</time>
      </trkpt>
      <trkpt lat="45.38817" lon="4.58529">
        <ele>1330.8</ele>
        <time>2026-08-18T12:47:49.976Z</time>
      </trkpt>
      <trkpt lat="45.38818" lon="4.5853">
        <ele>1331.3</ele>
        <time>2026-08-18T12:47:50.976Z</time>
      </trkpt>
      <trkpt lat="45.3882" lon="4.58529">
        <ele>1332.5</ele>
        <time>2026-08-18T12:47:52.976Z</time>
      </trkpt>
      <trkpt lat="45.38822" lon="4.5853">
        <ele>1331.7</ele>
        <time>2026-08-18T12:47:54.976Z</time>
      </trkpt>
      <trkpt lat="45.38823" lon="4.5853">
        <ele>1330.5</ele>
        <time>2026-08-18T12:47:56.975Z</time>
      </trkpt>
      <trkpt lat="45.38825" lon="4.5853">
        <ele>1329.5</ele>
        <time>2026-08-18T12:47:58.975Z</time>
      </trkpt>
      <trkpt lat="45.38827" lon="4.5853">
        <ele>1328.4</ele>
        <time>2026-08-18T12:48:00.975Z</time>
      </trkpt>
      <trkpt lat="45.38828" lon="4.58531">
        <ele>1329.4</ele>
        <time>2026-08-18T12:48:02.976Z</time>
      </trkpt>
      <trkpt lat="45.38829" lon="4.58531">
        <ele>1329.3</ele>
        <time>2026-08-18T12:48:03.976Z</time>
      </trkpt>
      <trkpt lat="45.3883" lon="4.58531">
        <ele>1329</ele>
        <time>2026-08-18T12:48:04.976Z</time>
      </trkpt>
      <trkpt lat="45.38831" lon="4.58532">
        <ele>1328.5</ele>
        <time>2026-08-18T12:48:05.976Z</time>
      </trkpt>
      <trkpt lat="45.38832" lon="4.58532">
        <ele>1327.8</ele>
        <time>2026-08-18T12:48:06.976Z</time>
      </trkpt>
      <trkpt lat="45.38835" lon="4.58533">
        <ele>1327</ele>
        <time>2026-08-18T12:48:08.994Z</time>
      </trkpt>
      <trkpt lat="45.38837" lon="4.58533">
        <ele>1328.1</ele>
        <time>2026-08-18T12:48:10.976Z</time>
      </trkpt>
      <trkpt lat="45.38838" lon="4.58533">
        <ele>1329.2</ele>
        <time>2026-08-18T12:48:11.976Z</time>
      </trkpt>
      <trkpt lat="45.3884" lon="4.58533">
        <ele>1328.5</ele>
        <time>2026-08-18T12:48:13.976Z</time>
      </trkpt>
      <trkpt lat="45.38842" lon="4.58533">
        <ele>1327.5</ele>
        <time>2026-08-18T12:48:15.976Z</time>
      </trkpt>
      <trkpt lat="45.38844" lon="4.58533">
        <ele>1327.5</ele>
        <time>2026-08-18T12:48:17.976Z</time>
      </trkpt>
      <trkpt lat="45.38845" lon="4.58533">
        <ele>1327.5</ele>
        <time>2026-08-18T12:48:18.981Z</time>
      </trkpt>
      <trkpt lat="45.38847" lon="4.58533">
        <ele>1327.3</ele>
        <time>2026-08-18T12:48:20.958Z</time>
      </trkpt>
      <trkpt lat="45.38847" lon="4.58533">
        <ele>1327.9</ele>
        <time>2026-08-18T12:48:21.974Z</time>
      </trkpt>
      <trkpt lat="45.38849" lon="4.58533">
        <ele>1328.3</ele>
        <time>2026-08-18T12:48:23.975Z</time>
      </trkpt>
      <trkpt lat="45.3885" lon="4.58533">
        <ele>1327.9</ele>
        <time>2026-08-18T12:48:24.975Z</time>
      </trkpt>
      <trkpt lat="45.3885" lon="4.58533">
        <ele>1327.4</ele>
        <time>2026-08-18T12:48:25.975Z</time>
      </trkpt>
      <trkpt lat="45.38851" lon="4.58532">
        <ele>1327.2</ele>
        <time>2026-08-18T12:48:26.975Z</time>
      </trkpt>
      <trkpt lat="45.38853" lon="4.58531">
        <ele>1327.1</ele>
        <time>2026-08-18T12:48:28.975Z</time>
      </trkpt>
      <trkpt lat="45.38854" lon="4.5853">
        <ele>1326.8</ele>
        <time>2026-08-18T12:48:29.975Z</time>
      </trkpt>
      <trkpt lat="45.38855" lon="4.5853">
        <ele>1326.6</ele>
        <time>2026-08-18T12:48:30.975Z</time>
      </trkpt>
      <trkpt lat="45.38856" lon="4.5853">
        <ele>1326.6</ele>
        <time>2026-08-18T12:48:31.978Z</time>
      </trkpt>
      <trkpt lat="45.38857" lon="4.58529">
        <ele>1326.7</ele>
        <time>2026-08-18T12:48:33.975Z</time>
      </trkpt>
      <trkpt lat="45.38858" lon="4.58529">
        <ele>1326.7</ele>
        <time>2026-08-18T12:48:34.975Z</time>
      </trkpt>
      <trkpt lat="45.38859" lon="4.58529">
        <ele>1326.5</ele>
        <time>2026-08-18T12:48:35.975Z</time>
      </trkpt>
      <trkpt lat="45.38861" lon="4.58528">
        <ele>1326.6</ele>
        <time>2026-08-18T12:48:37.976Z</time>
      </trkpt>
      <trkpt lat="45.38862" lon="4.58528">
        <ele>1325.8</ele>
        <time>2026-08-18T12:48:39.974Z</time>
      </trkpt>
      <trkpt lat="45.38863" lon="4.58528">
        <ele>1325.8</ele>
        <time>2026-08-18T12:48:40.975Z</time>
      </trkpt>
      <trkpt lat="45.38864" lon="4.58528">
        <ele>1323.3</ele>
        <time>2026-08-18T12:48:41.975Z</time>
      </trkpt>
      <trkpt lat="45.38866" lon="4.58527">
        <ele>1322.4</ele>
        <time>2026-08-18T12:48:43.975Z</time>
      </trkpt>
      <trkpt lat="45.38868" lon="4.58527">
        <ele>1322.6</ele>
        <time>2026-08-18T12:48:45.974Z</time>
      </trkpt>
      <trkpt lat="45.38869" lon="4.58526">
        <ele>1321.6</ele>
        <time>2026-08-18T12:48:46.975Z</time>
      </trkpt>
      <trkpt lat="45.3887" lon="4.58525">
        <ele>1321.5</ele>
        <time>2026-08-18T12:48:47.975Z</time>
      </trkpt>
      <trkpt lat="45.3887" lon="4.58524">
        <ele>1322.1</ele>
        <time>2026-08-18T12:48:48.975Z</time>
      </trkpt>
      <trkpt lat="45.38872" lon="4.58522">
        <ele>1321.9</ele>
        <time>2026-08-18T12:48:50.975Z</time>
      </trkpt>
      <trkpt lat="45.38872" lon="4.58521">
        <ele>1322.1</ele>
        <time>2026-08-18T12:48:51.975Z</time>
      </trkpt>
      <trkpt lat="45.38873" lon="4.58519">
        <ele>1319.8</ele>
        <time>2026-08-18T12:48:53.975Z</time>
      </trkpt>
      <trkpt lat="45.38875" lon="4.58519">
        <ele>1319.9</ele>
        <time>2026-08-18T12:48:55.975Z</time>
      </trkpt>
      <trkpt lat="45.38876" lon="4.58519">
        <ele>1319.7</ele>
        <time>2026-08-18T12:48:56.975Z</time>
      </trkpt>
      <trkpt lat="45.38877" lon="4.58518">
        <ele>1319.7</ele>
        <time>2026-08-18T12:48:57.975Z</time>
      </trkpt>
      <trkpt lat="45.38878" lon="4.58519">
        <ele>1319.9</ele>
        <time>2026-08-18T12:48:59.975Z</time>
      </trkpt>
      <trkpt lat="45.38879" lon="4.58518">
        <ele>1319.9</ele>
        <time>2026-08-18T12:49:00.975Z</time>
      </trkpt>
      <trkpt lat="45.38881" lon="4.58518">
        <ele>1319.7</ele>
        <time>2026-08-18T12:49:02.974Z</time>
      </trkpt>
      <trkpt lat="45.38882" lon="4.58518">
        <ele>1320.6</ele>
        <time>2026-08-18T12:49:03.975Z</time>
      </trkpt>
      <trkpt lat="45.38883" lon="4.58517">
        <ele>1320.2</ele>
        <time>2026-08-18T12:49:05.960Z</time>
      </trkpt>
      <trkpt lat="45.38883" lon="4.58516">
        <ele>1318.3</ele>
        <time>2026-08-18T12:49:06.973Z</time>
      </trkpt>
      <trkpt lat="45.38884" lon="4.58515">
        <ele>1318.6</ele>
        <time>2026-08-18T12:49:07.974Z</time>
      </trkpt>
      <trkpt lat="45.38885" lon="4.58513">
        <ele>1319.9</ele>
        <time>2026-08-18T12:49:09.974Z</time>
      </trkpt>
      <trkpt lat="45.38886" lon="4.58512">
        <ele>1316.2</ele>
        <time>2026-08-18T12:49:10.974Z</time>
      </trkpt>
      <trkpt lat="45.38887" lon="4.58512">
        <ele>1314.6</ele>
        <time>2026-08-18T12:49:11.977Z</time>
      </trkpt>
      <trkpt lat="45.38888" lon="4.5851">
        <ele>1317.3</ele>
        <time>2026-08-18T12:49:13.975Z</time>
      </trkpt>
      <trkpt lat="45.38889" lon="4.58509">
        <ele>1317.1</ele>
        <time>2026-08-18T12:49:14.975Z</time>
      </trkpt>
      <trkpt lat="45.3889" lon="4.58508">
        <ele>1317.7</ele>
        <time>2026-08-18T12:49:15.975Z</time>
      </trkpt>
      <trkpt lat="45.38891" lon="4.58507">
        <ele>1319.2</ele>
        <time>2026-08-18T12:49:16.975Z</time>
      </trkpt>
      <trkpt lat="45.38893" lon="4.58506">
        <ele>1322.6</ele>
        <time>2026-08-18T12:49:18.974Z</time>
      </trkpt>
      <trkpt lat="45.38895" lon="4.58506">
        <ele>1323.1</ele>
        <time>2026-08-18T12:49:19.975Z</time>
      </trkpt>
      <trkpt lat="45.38896" lon="4.58505">
        <ele>1323.1</ele>
        <time>2026-08-18T12:49:21.003Z</time>
      </trkpt>
      <trkpt lat="45.38898" lon="4.58504">
        <ele>1323.5</ele>
        <time>2026-08-18T12:49:22.975Z</time>
      </trkpt>
      <trkpt lat="45.38899" lon="4.58503">
        <ele>1323.5</ele>
        <time>2026-08-18T12:49:24.017Z</time>
      </trkpt>
      <trkpt lat="45.38901" lon="4.58503">
        <ele>1324</ele>
        <time>2026-08-18T12:49:25.973Z</time>
      </trkpt>
      <trkpt lat="45.38903" lon="4.58503">
        <ele>1324.5</ele>
        <time>2026-08-18T12:49:26.974Z</time>
      </trkpt>
      <trkpt lat="45.38904" lon="4.58502">
        <ele>1325.4</ele>
        <time>2026-08-18T12:49:27.974Z</time>
      </trkpt>
      <trkpt lat="45.38906" lon="4.58502">
        <ele>1325.4</ele>
        <time>2026-08-18T12:49:28.978Z</time>
      </trkpt>
      <trkpt lat="45.38908" lon="4.585">
        <ele>1325.5</ele>
        <time>2026-08-18T12:49:30.975Z</time>
      </trkpt>
      <trkpt lat="45.38909" lon="4.585">
        <ele>1325.5</ele>
        <time>2026-08-18T12:49:31.975Z</time>
      </trkpt>
      <trkpt lat="45.38911" lon="4.58498">
        <ele>1326</ele>
        <time>2026-08-18T12:49:33.884Z</time>
      </trkpt>
      <trkpt lat="45.38912" lon="4.58498">
        <ele>1326</ele>
        <time>2026-08-18T12:49:34.911Z</time>
      </trkpt>
      <trkpt lat="45.38914" lon="4.58497">
        <ele>1325.7</ele>
        <time>2026-08-18T12:49:36.975Z</time>
      </trkpt>
      <trkpt lat="45.38915" lon="4.58496">
        <ele>1326.1</ele>
        <time>2026-08-18T12:49:38.975Z</time>
      </trkpt>
      <trkpt lat="45.38916" lon="4.58496">
        <ele>1326.7</ele>
        <time>2026-08-18T12:49:39.975Z</time>
      </trkpt>
      <trkpt lat="45.38918" lon="4.58496">
        <ele>1326.8</ele>
        <time>2026-08-18T12:49:41.974Z</time>
      </trkpt>
      <trkpt lat="45.38919" lon="4.58496">
        <ele>1326.4</ele>
        <time>2026-08-18T12:49:42.975Z</time>
      </trkpt>
      <trkpt lat="45.38921" lon="4.58496">
        <ele>1326.3</ele>
        <time>2026-08-18T12:49:44.935Z</time>
      </trkpt>
      <trkpt lat="45.38922" lon="4.58496">
        <ele>1327.2</ele>
        <time>2026-08-18T12:49:45.975Z</time>
      </trkpt>
      <trkpt lat="45.38925" lon="4.58496">
        <ele>1328.1</ele>
        <time>2026-08-18T12:49:47.974Z</time>
      </trkpt>
      <trkpt lat="45.38926" lon="4.58496">
        <ele>1327.5</ele>
        <time>2026-08-18T12:49:48.975Z</time>
      </trkpt>
      <trkpt lat="45.38928" lon="4.58495">
        <ele>1327.6</ele>
        <time>2026-08-18T12:49:50.974Z</time>
      </trkpt>
      <trkpt lat="45.38931" lon="4.58495">
        <ele>1327.8</ele>
        <time>2026-08-18T12:49:52.974Z</time>
      </trkpt>
      <trkpt lat="45.38932" lon="4.58495">
        <ele>1327.1</ele>
        <time>2026-08-18T12:49:53.975Z</time>
      </trkpt>
      <trkpt lat="45.38933" lon="4.58495">
        <ele>1327.3</ele>
        <time>2026-08-18T12:49:54.975Z</time>
      </trkpt>
      <trkpt lat="45.38935" lon="4.58494">
        <ele>1327</ele>
        <time>2026-08-18T12:49:56.931Z</time>
      </trkpt>
      <trkpt lat="45.38935" lon="4.58493">
        <ele>1327</ele>
        <time>2026-08-18T12:49:57.959Z</time>
      </trkpt>
      <trkpt lat="45.38937" lon="4.58492">
        <ele>1327</ele>
        <time>2026-08-18T12:49:59.899Z</time>
      </trkpt>
      <trkpt lat="45.38938" lon="4.58492">
        <ele>1327.6</ele>
        <time>2026-08-18T12:50:00.974Z</time>
      </trkpt>
      <trkpt lat="45.38938" lon="4.58492">
        <ele>1327.6</ele>
        <time>2026-08-18T12:50:01.974Z</time>
      </trkpt>
      <trkpt lat="45.38939" lon="4.58491">
        <ele>1327.2</ele>
        <time>2026-08-18T12:50:02.979Z</time>
      </trkpt>
      <trkpt lat="45.3894" lon="4.58491">
        <ele>1327.4</ele>
        <time>2026-08-18T12:50:04.974Z</time>
      </trkpt>
      <trkpt lat="45.38941" lon="4.58492">
        <ele>1328.8</ele>
        <time>2026-08-18T12:50:05.974Z</time>
      </trkpt>
      <trkpt lat="45.38942" lon="4.58493">
        <ele>1326.7</ele>
        <time>2026-08-18T12:50:07.975Z</time>
      </trkpt>
      <trkpt lat="45.38943" lon="4.58493">
        <ele>1328.3</ele>
        <time>2026-08-18T12:50:09.975Z</time>
      </trkpt>
      <trkpt lat="45.38944" lon="4.58493">
        <ele>1333.2</ele>
        <time>2026-08-18T12:50:10.975Z</time>
      </trkpt>
      <trkpt lat="45.38944" lon="4.58493">
        <ele>1335.6</ele>
        <time>2026-08-18T12:50:11.975Z</time>
      </trkpt>
      <trkpt lat="45.38945" lon="4.58493">
        <ele>1338.7</ele>
        <time>2026-08-18T12:50:12.975Z</time>
      </trkpt>
      <trkpt lat="45.38946" lon="4.58491">
        <ele>1342.6</ele>
        <time>2026-08-18T12:50:13.975Z</time>
      </trkpt>
      <trkpt lat="45.38946" lon="4.5849">
        <ele>1342.5</ele>
        <time>2026-08-18T12:50:14.975Z</time>
      </trkpt>
      <trkpt lat="45.38947" lon="4.58488">
        <ele>1343.7</ele>
        <time>2026-08-18T12:50:15.975Z</time>
      </trkpt>
      <trkpt lat="45.38948" lon="4.58485">
        <ele>1345.2</ele>
        <time>2026-08-18T12:50:17.880Z</time>
      </trkpt>
      <trkpt lat="45.38949" lon="4.58484">
        <ele>1350</ele>
        <time>2026-08-18T12:50:18.975Z</time>
      </trkpt>
      <trkpt lat="45.3895" lon="4.58483">
        <ele>1350.3</ele>
        <time>2026-08-18T12:50:19.980Z</time>
      </trkpt>
      <trkpt lat="45.38952" lon="4.58481">
        <ele>1349.6</ele>
        <time>2026-08-18T12:50:21.975Z</time>
      </trkpt>
      <trkpt lat="45.38953" lon="4.58479">
        <ele>1349.7</ele>
        <time>2026-08-18T12:50:22.975Z</time>
      </trkpt>
      <trkpt lat="45.38954" lon="4.58478">
        <ele>1349.9</ele>
        <time>2026-08-18T12:50:23.975Z</time>
      </trkpt>
      <trkpt lat="45.38955" lon="4.58477">
        <ele>1349</ele>
        <time>2026-08-18T12:50:24.975Z</time>
      </trkpt>
      <trkpt lat="45.38957" lon="4.58475">
        <ele>1348.9</ele>
        <time>2026-08-18T12:50:26.962Z</time>
      </trkpt>
      <trkpt lat="45.38958" lon="4.58475">
        <ele>1346.2</ele>
        <time>2026-08-18T12:50:27.975Z</time>
      </trkpt>
      <trkpt lat="45.38959" lon="4.58474">
        <ele>1345.6</ele>
        <time>2026-08-18T12:50:28.975Z</time>
      </trkpt>
      <trkpt lat="45.3896" lon="4.58474">
        <ele>1345.6</ele>
        <time>2026-08-18T12:50:29.975Z</time>
      </trkpt>
      <trkpt lat="45.38962" lon="4.58473">
        <ele>1345.8</ele>
        <time>2026-08-18T12:50:31.974Z</time>
      </trkpt>
      <trkpt lat="45.38963" lon="4.58473">
        <ele>1346.5</ele>
        <time>2026-08-18T12:50:32.988Z</time>
      </trkpt>
      <trkpt lat="45.38966" lon="4.58473">
        <ele>1347.4</ele>
        <time>2026-08-18T12:50:34.975Z</time>
      </trkpt>
      <trkpt lat="45.38968" lon="4.58472">
        <ele>1347.3</ele>
        <time>2026-08-18T12:50:36.980Z</time>
      </trkpt>
      <trkpt lat="45.38971" lon="4.58471">
        <ele>1348.4</ele>
        <time>2026-08-18T12:50:38.975Z</time>
      </trkpt>
      <trkpt lat="45.38973" lon="4.5847">
        <ele>1350.1</ele>
        <time>2026-08-18T12:50:40.975Z</time>
      </trkpt>
      <trkpt lat="45.38975" lon="4.5847">
        <ele>1349.5</ele>
        <time>2026-08-18T12:50:42.974Z</time>
      </trkpt>
      <trkpt lat="45.38976" lon="4.58469">
        <ele>1350.4</ele>
        <time>2026-08-18T12:50:43.975Z</time>
      </trkpt>
      <trkpt lat="45.38978" lon="4.58468">
        <ele>1348.4</ele>
        <time>2026-08-18T12:50:45.975Z</time>
      </trkpt>
      <trkpt lat="45.38979" lon="4.58468">
        <ele>1348.8</ele>
        <time>2026-08-18T12:50:46.975Z</time>
      </trkpt>
      <trkpt lat="45.38981" lon="4.58468">
        <ele>1346.5</ele>
        <time>2026-08-18T12:50:48.975Z</time>
      </trkpt>
      <trkpt lat="45.38982" lon="4.58467">
        <ele>1346.5</ele>
        <time>2026-08-18T12:50:50.000Z</time>
      </trkpt>
      <trkpt lat="45.38984" lon="4.58466">
        <ele>1346</ele>
        <time>2026-08-18T12:50:51.997Z</time>
      </trkpt>
      <trkpt lat="45.38986" lon="4.58464">
        <ele>1346.1</ele>
        <time>2026-08-18T12:50:53.936Z</time>
      </trkpt>
      <trkpt lat="45.38986" lon="4.58463">
        <ele>1346.4</ele>
        <time>2026-08-18T12:50:54.974Z</time>
      </trkpt>
      <trkpt lat="45.38987" lon="4.58462">
        <ele>1346.4</ele>
        <time>2026-08-18T12:50:55.975Z</time>
      </trkpt>
      <trkpt lat="45.38988" lon="4.58461">
        <ele>1347</ele>
        <time>2026-08-18T12:50:56.975Z</time>
      </trkpt>
      <trkpt lat="45.38989" lon="4.5846">
        <ele>1348</ele>
        <time>2026-08-18T12:50:57.975Z</time>
      </trkpt>
      <trkpt lat="45.3899" lon="4.58457">
        <ele>1348.1</ele>
        <time>2026-08-18T12:51:00.029Z</time>
      </trkpt>
      <trkpt lat="45.38991" lon="4.58454">
        <ele>1346.3</ele>
        <time>2026-08-18T12:51:01.974Z</time>
      </trkpt>
      <trkpt lat="45.38992" lon="4.58453">
        <ele>1346.6</ele>
        <time>2026-08-18T12:51:02.975Z</time>
      </trkpt>
      <trkpt lat="45.38993" lon="4.58451">
        <ele>1346.8</ele>
        <time>2026-08-18T12:51:03.975Z</time>
      </trkpt>
      <trkpt lat="45.38994" lon="4.5845">
        <ele>1346.8</ele>
        <time>2026-08-18T12:51:04.975Z</time>
      </trkpt>
      <trkpt lat="45.38994" lon="4.58449">
        <ele>1348.3</ele>
        <time>2026-08-18T12:51:05.975Z</time>
      </trkpt>
      <trkpt lat="45.38995" lon="4.58448">
        <ele>1347.2</ele>
        <time>2026-08-18T12:51:06.988Z</time>
      </trkpt>
      <trkpt lat="45.38996" lon="4.58446">
        <ele>1345.2</ele>
        <time>2026-08-18T12:51:08.975Z</time>
      </trkpt>
      <trkpt lat="45.38998" lon="4.58443">
        <ele>1346.5</ele>
        <time>2026-08-18T12:51:10.983Z</time>
      </trkpt>
      <trkpt lat="45.39" lon="4.58442">
        <ele>1345.7</ele>
        <time>2026-08-18T12:51:12.974Z</time>
      </trkpt>
      <trkpt lat="45.39001" lon="4.58441">
        <ele>1345.7</ele>
        <time>2026-08-18T12:51:13.998Z</time>
      </trkpt>
      <trkpt lat="45.39002" lon="4.58439">
        <ele>1345.9</ele>
        <time>2026-08-18T12:51:15.974Z</time>
      </trkpt>
      <trkpt lat="45.39003" lon="4.58438">
        <ele>1346.1</ele>
        <time>2026-08-18T12:51:16.974Z</time>
      </trkpt>
      <trkpt lat="45.39004" lon="4.58437">
        <ele>1345.6</ele>
        <time>2026-08-18T12:51:17.975Z</time>
      </trkpt>
      <trkpt lat="45.39005" lon="4.58436">
        <ele>1346.4</ele>
        <time>2026-08-18T12:51:18.975Z</time>
      </trkpt>
      <trkpt lat="45.39006" lon="4.58434">
        <ele>1347.7</ele>
        <time>2026-08-18T12:51:20.975Z</time>
      </trkpt>
      <trkpt lat="45.39007" lon="4.58433">
        <ele>1347.7</ele>
        <time>2026-08-18T12:51:22.015Z</time>
      </trkpt>
      <trkpt lat="45.39009" lon="4.58431">
        <ele>1348.6</ele>
        <time>2026-08-18T12:51:23.916Z</time>
      </trkpt>
      <trkpt lat="45.3901" lon="4.5843">
        <ele>1349.2</ele>
        <time>2026-08-18T12:51:24.975Z</time>
      </trkpt>
      <trkpt lat="45.39011" lon="4.58429">
        <ele>1349.2</ele>
        <time>2026-08-18T12:51:25.980Z</time>
      </trkpt>
      <trkpt lat="45.39013" lon="4.58428">
        <ele>1349.3</ele>
        <time>2026-08-18T12:51:27.900Z</time>
      </trkpt>
      <trkpt lat="45.39013" lon="4.58427">
        <ele>1349.2</ele>
        <time>2026-08-18T12:51:28.974Z</time>
      </trkpt>
      <trkpt lat="45.39014" lon="4.58426">
        <ele>1349.5</ele>
        <time>2026-08-18T12:51:29.975Z</time>
      </trkpt>
      <trkpt lat="45.39015" lon="4.58426">
        <ele>1349.2</ele>
        <time>2026-08-18T12:51:30.975Z</time>
      </trkpt>
      <trkpt lat="45.39016" lon="4.58425">
        <ele>1349.1</ele>
        <time>2026-08-18T12:51:31.977Z</time>
      </trkpt>
      <trkpt lat="45.39018" lon="4.58423">
        <ele>1349.1</ele>
        <time>2026-08-18T12:51:33.975Z</time>
      </trkpt>
      <trkpt lat="45.39019" lon="4.58423">
        <ele>1348.8</ele>
        <time>2026-08-18T12:51:34.975Z</time>
      </trkpt>
      <trkpt lat="45.39019" lon="4.58422">
        <ele>1348.9</ele>
        <time>2026-08-18T12:51:35.975Z</time>
      </trkpt>
      <trkpt lat="45.3902" lon="4.58421">
        <ele>1348.9</ele>
        <time>2026-08-18T12:51:36.975Z</time>
      </trkpt>
      <trkpt lat="45.39022" lon="4.5842">
        <ele>1348.4</ele>
        <time>2026-08-18T12:51:38.996Z</time>
      </trkpt>
      <trkpt lat="45.39025" lon="4.58418">
        <ele>1347.5</ele>
        <time>2026-08-18T12:51:40.974Z</time>
      </trkpt>
      <trkpt lat="45.39026" lon="4.58418">
        <ele>1347.7</ele>
        <time>2026-08-18T12:51:41.975Z</time>
      </trkpt>
      <trkpt lat="45.39028" lon="4.58416">
        <ele>1347.6</ele>
        <time>2026-08-18T12:51:43.974Z</time>
      </trkpt>
      <trkpt lat="45.39029" lon="4.58415">
        <ele>1347.5</ele>
        <time>2026-08-18T12:51:44.974Z</time>
      </trkpt>
      <trkpt lat="45.3903" lon="4.58415">
        <ele>1347.4</ele>
        <time>2026-08-18T12:51:45.974Z</time>
      </trkpt>
      <trkpt lat="45.39031" lon="4.58414">
        <ele>1347.4</ele>
        <time>2026-08-18T12:51:46.975Z</time>
      </trkpt>
      <trkpt lat="45.39031" lon="4.58413">
        <ele>1346.1</ele>
        <time>2026-08-18T12:51:47.975Z</time>
      </trkpt>
      <trkpt lat="45.39032" lon="4.58411">
        <ele>1348.2</ele>
        <time>2026-08-18T12:51:48.977Z</time>
      </trkpt>
      <trkpt lat="45.39034" lon="4.5841">
        <ele>1347.4</ele>
        <time>2026-08-18T12:51:50.974Z</time>
      </trkpt>
      <trkpt lat="45.39035" lon="4.58409">
        <ele>1346.5</ele>
        <time>2026-08-18T12:51:51.975Z</time>
      </trkpt>
      <trkpt lat="45.39035" lon="4.58409">
        <ele>1345.2</ele>
        <time>2026-08-18T12:51:52.975Z</time>
      </trkpt>
      <trkpt lat="45.39037" lon="4.58407">
        <ele>1344</ele>
        <time>2026-08-18T12:51:54.975Z</time>
      </trkpt>
      <trkpt lat="45.39038" lon="4.58406">
        <ele>1344.1</ele>
        <time>2026-08-18T12:51:55.975Z</time>
      </trkpt>
      <trkpt lat="45.39039" lon="4.58405">
        <ele>1344.1</ele>
        <time>2026-08-18T12:51:56.975Z</time>
      </trkpt>
      <trkpt lat="45.3904" lon="4.58404">
        <ele>1345.1</ele>
        <time>2026-08-18T12:51:57.975Z</time>
      </trkpt>
      <trkpt lat="45.39041" lon="4.58403">
        <ele>1345.5</ele>
        <time>2026-08-18T12:51:58.975Z</time>
      </trkpt>
      <trkpt lat="45.39043" lon="4.58402">
        <ele>1344.7</ele>
        <time>2026-08-18T12:52:00.974Z</time>
      </trkpt>
      <trkpt lat="45.39043" lon="4.584">
        <ele>1346.1</ele>
        <time>2026-08-18T12:52:01.985Z</time>
      </trkpt>
      <trkpt lat="45.39045" lon="4.58399">
        <ele>1346.5</ele>
        <time>2026-08-18T12:52:03.975Z</time>
      </trkpt>
      <trkpt lat="45.39047" lon="4.58397">
        <ele>1345.2</ele>
        <time>2026-08-18T12:52:05.975Z</time>
      </trkpt>
      <trkpt lat="45.39048" lon="4.58397">
        <ele>1345.7</ele>
        <time>2026-08-18T12:52:06.975Z</time>
      </trkpt>
      <trkpt lat="45.39049" lon="4.58396">
        <ele>1346.9</ele>
        <time>2026-08-18T12:52:07.975Z</time>
      </trkpt>
      <trkpt lat="45.3905" lon="4.58395">
        <ele>1346.7</ele>
        <time>2026-08-18T12:52:08.975Z</time>
      </trkpt>
      <trkpt lat="45.39051" lon="4.58393">
        <ele>1347.9</ele>
        <time>2026-08-18T12:52:10.975Z</time>
      </trkpt>
      <trkpt lat="45.39053" lon="4.58392">
        <ele>1348.1</ele>
        <time>2026-08-18T12:52:12.974Z</time>
      </trkpt>
      <trkpt lat="45.39055" lon="4.5839">
        <ele>1349</ele>
        <time>2026-08-18T12:52:14.975Z</time>
      </trkpt>
      <trkpt lat="45.39055" lon="4.58389">
        <ele>1349.3</ele>
        <time>2026-08-18T12:52:15.975Z</time>
      </trkpt>
      <trkpt lat="45.39056" lon="4.58387">
        <ele>1349.2</ele>
        <time>2026-08-18T12:52:16.975Z</time>
      </trkpt>
      <trkpt lat="45.39057" lon="4.58386">
        <ele>1350.6</ele>
        <time>2026-08-18T12:52:17.975Z</time>
      </trkpt>
      <trkpt lat="45.39058" lon="4.58385">
        <ele>1350.6</ele>
        <time>2026-08-18T12:52:18.985Z</time>
      </trkpt>
      <trkpt lat="45.3906" lon="4.58383">
        <ele>1350.9</ele>
        <time>2026-08-18T12:52:20.975Z</time>
      </trkpt>
      <trkpt lat="45.39061" lon="4.58381">
        <ele>1351.1</ele>
        <time>2026-08-18T12:52:21.975Z</time>
      </trkpt>
      <trkpt lat="45.39061" lon="4.5838">
        <ele>1351.2</ele>
        <time>2026-08-18T12:52:22.975Z</time>
      </trkpt>
      <trkpt lat="45.39063" lon="4.58378">
        <ele>1351.8</ele>
        <time>2026-08-18T12:52:24.974Z</time>
      </trkpt>
      <trkpt lat="45.39064" lon="4.58377">
        <ele>1352</ele>
        <time>2026-08-18T12:52:25.975Z</time>
      </trkpt>
      <trkpt lat="45.39066" lon="4.58374">
        <ele>1351.2</ele>
        <time>2026-08-18T12:52:27.897Z</time>
      </trkpt>
      <trkpt lat="45.39067" lon="4.58373">
        <ele>1352.7</ele>
        <time>2026-08-18T12:52:28.974Z</time>
      </trkpt>
      <trkpt lat="45.39068" lon="4.58372">
        <ele>1353.9</ele>
        <time>2026-08-18T12:52:29.974Z</time>
      </trkpt>
      <trkpt lat="45.39069" lon="4.58371">
        <ele>1353.8</ele>
        <time>2026-08-18T12:52:30.974Z</time>
      </trkpt>
      <trkpt lat="45.3907" lon="4.5837">
        <ele>1353.5</ele>
        <time>2026-08-18T12:52:31.992Z</time>
      </trkpt>
      <trkpt lat="45.39072" lon="4.58367">
        <ele>1353.1</ele>
        <time>2026-08-18T12:52:33.974Z</time>
      </trkpt>
      <trkpt lat="45.39073" lon="4.58366">
        <ele>1353.1</ele>
        <time>2026-08-18T12:52:34.975Z</time>
      </trkpt>
      <trkpt lat="45.39075" lon="4.58364">
        <ele>1354.1</ele>
        <time>2026-08-18T12:52:36.975Z</time>
      </trkpt>
      <trkpt lat="45.39076" lon="4.58363">
        <ele>1354.6</ele>
        <time>2026-08-18T12:52:37.975Z</time>
      </trkpt>
      <trkpt lat="45.39078" lon="4.58361">
        <ele>1353.2</ele>
        <time>2026-08-18T12:52:39.979Z</time>
      </trkpt>
      <trkpt lat="45.3908" lon="4.58359">
        <ele>1351.9</ele>
        <time>2026-08-18T12:52:41.974Z</time>
      </trkpt>
      <trkpt lat="45.39081" lon="4.58358">
        <ele>1350.4</ele>
        <time>2026-08-18T12:52:42.975Z</time>
      </trkpt>
      <trkpt lat="45.39082" lon="4.58356">
        <ele>1351.4</ele>
        <time>2026-08-18T12:52:44.975Z</time>
      </trkpt>
      <trkpt lat="45.39084" lon="4.58353">
        <ele>1350.9</ele>
        <time>2026-08-18T12:52:46.975Z</time>
      </trkpt>
      <trkpt lat="45.39085" lon="4.58352">
        <ele>1351.1</ele>
        <time>2026-08-18T12:52:47.975Z</time>
      </trkpt>
      <trkpt lat="45.39087" lon="4.58349">
        <ele>1351.2</ele>
        <time>2026-08-18T12:52:49.974Z</time>
      </trkpt>
      <trkpt lat="45.39089" lon="4.58347">
        <ele>1351</ele>
        <time>2026-08-18T12:52:51.975Z</time>
      </trkpt>
      <trkpt lat="45.3909" lon="4.58345">
        <ele>1351.6</ele>
        <time>2026-08-18T12:52:53.975Z</time>
      </trkpt>
      <trkpt lat="45.39091" lon="4.58344">
        <ele>1351.6</ele>
        <time>2026-08-18T12:52:54.975Z</time>
      </trkpt>
      <trkpt lat="45.39091" lon="4.58343">
        <ele>1351.4</ele>
        <time>2026-08-18T12:52:55.975Z</time>
      </trkpt>
      <trkpt lat="45.39092" lon="4.58341">
        <ele>1351.7</ele>
        <time>2026-08-18T12:52:56.980Z</time>
      </trkpt>
      <trkpt lat="45.39094" lon="4.58339">
        <ele>1351.3</ele>
        <time>2026-08-18T12:52:58.974Z</time>
      </trkpt>
      <trkpt lat="45.39095" lon="4.58337">
        <ele>1351.2</ele>
        <time>2026-08-18T12:52:59.974Z</time>
      </trkpt>
      <trkpt lat="45.39097" lon="4.58336">
        <ele>1351.5</ele>
        <time>2026-08-18T12:53:00.975Z</time>
      </trkpt>
      <trkpt lat="45.39099" lon="4.58334">
        <ele>1352.1</ele>
        <time>2026-08-18T12:53:02.974Z</time>
      </trkpt>
      <trkpt lat="45.39101" lon="4.58332">
        <ele>1353.4</ele>
        <time>2026-08-18T12:53:03.974Z</time>
      </trkpt>
      <trkpt lat="45.39102" lon="4.58331">
        <ele>1353.8</ele>
        <time>2026-08-18T12:53:04.974Z</time>
      </trkpt>
      <trkpt lat="45.39103" lon="4.5833">
        <ele>1354.6</ele>
        <time>2026-08-18T12:53:05.974Z</time>
      </trkpt>
      <trkpt lat="45.39104" lon="4.58329">
        <ele>1354.4</ele>
        <time>2026-08-18T12:53:06.975Z</time>
      </trkpt>
      <trkpt lat="45.39106" lon="4.58327">
        <ele>1353.5</ele>
        <time>2026-08-18T12:53:07.975Z</time>
      </trkpt>
      <trkpt lat="45.39107" lon="4.58326">
        <ele>1352.8</ele>
        <time>2026-08-18T12:53:08.975Z</time>
      </trkpt>
      <trkpt lat="45.39108" lon="4.58324">
        <ele>1353.1</ele>
        <time>2026-08-18T12:53:09.987Z</time>
      </trkpt>
      <trkpt lat="45.39111" lon="4.58321">
        <ele>1352.5</ele>
        <time>2026-08-18T12:53:11.975Z</time>
      </trkpt>
      <trkpt lat="45.39113" lon="4.58318">
        <ele>1353.6</ele>
        <time>2026-08-18T12:53:13.981Z</time>
      </trkpt>
      <trkpt lat="45.39116" lon="4.58314">
        <ele>1354.1</ele>
        <time>2026-08-18T12:53:15.974Z</time>
      </trkpt>
      <trkpt lat="45.39117" lon="4.58313">
        <ele>1353.6</ele>
        <time>2026-08-18T12:53:16.975Z</time>
      </trkpt>
      <trkpt lat="45.39118" lon="4.58311">
        <ele>1353.6</ele>
        <time>2026-08-18T12:53:17.975Z</time>
      </trkpt>
      <trkpt lat="45.39119" lon="4.5831">
        <ele>1353.9</ele>
        <time>2026-08-18T12:53:18.975Z</time>
      </trkpt>
      <trkpt lat="45.39119" lon="4.58309">
        <ele>1351.6</ele>
        <time>2026-08-18T12:53:19.975Z</time>
      </trkpt>
      <trkpt lat="45.39121" lon="4.58306">
        <ele>1350</ele>
        <time>2026-08-18T12:53:21.975Z</time>
      </trkpt>
      <trkpt lat="45.39121" lon="4.58305">
        <ele>1350.2</ele>
        <time>2026-08-18T12:53:22.995Z</time>
      </trkpt>
      <trkpt lat="45.39123" lon="4.58302">
        <ele>1349.9</ele>
        <time>2026-08-18T12:53:24.975Z</time>
      </trkpt>
      <trkpt lat="45.39125" lon="4.58301">
        <ele>1350.2</ele>
        <time>2026-08-18T12:53:25.975Z</time>
      </trkpt>
      <trkpt lat="45.39126" lon="4.583">
        <ele>1350.8</ele>
        <time>2026-08-18T12:53:26.975Z</time>
      </trkpt>
      <trkpt lat="45.39128" lon="4.58298">
        <ele>1353.2</ele>
        <time>2026-08-18T12:53:28.975Z</time>
      </trkpt>
      <trkpt lat="45.39129" lon="4.58297">
        <ele>1353.4</ele>
        <time>2026-08-18T12:53:29.975Z</time>
      </trkpt>
      <trkpt lat="45.3913" lon="4.58297">
        <ele>1353.2</ele>
        <time>2026-08-18T12:53:30.981Z</time>
      </trkpt>
      <trkpt lat="45.39132" lon="4.58296">
        <ele>1353.6</ele>
        <time>2026-08-18T12:53:32.975Z</time>
      </trkpt>
      <trkpt lat="45.39133" lon="4.58295">
        <ele>1354.6</ele>
        <time>2026-08-18T12:53:34.974Z</time>
      </trkpt>
      <trkpt lat="45.39134" lon="4.58294">
        <ele>1354.4</ele>
        <time>2026-08-18T12:53:36.975Z</time>
      </trkpt>
      <trkpt lat="45.39135" lon="4.58292">
        <ele>1354.1</ele>
        <time>2026-08-18T12:53:38.974Z</time>
      </trkpt>
      <trkpt lat="45.39136" lon="4.58292">
        <ele>1354.1</ele>
        <time>2026-08-18T12:53:39.975Z</time>
      </trkpt>
      <trkpt lat="45.39136" lon="4.58292">
        <ele>1355.8</ele>
        <time>2026-08-18T12:53:41.974Z</time>
      </trkpt>
      <trkpt lat="45.39136" lon="4.58292">
        <ele>1356</ele>
        <time>2026-08-18T12:53:42.974Z</time>
      </trkpt>
      <trkpt lat="45.39136" lon="4.58292">
        <ele>1356</ele>
        <time>2026-08-18T12:53:43.988Z</time>
      </trkpt>
      <trkpt lat="45.39136" lon="4.58291">
        <ele>1355.4</ele>
        <time>2026-08-18T12:53:45.975Z</time>
      </trkpt>
      <trkpt lat="45.39136" lon="4.5829">
        <ele>1355.2</ele>
        <time>2026-08-18T12:53:46.975Z</time>
      </trkpt>
      <trkpt lat="45.39137" lon="4.58287">
        <ele>1354.6</ele>
        <time>2026-08-18T12:53:48.975Z</time>
      </trkpt>
      <trkpt lat="45.39137" lon="4.58286">
        <ele>1354.5</ele>
        <time>2026-08-18T12:53:49.975Z</time>
      </trkpt>
      <trkpt lat="45.39137" lon="4.58285">
        <ele>1353.4</ele>
        <time>2026-08-18T12:53:50.975Z</time>
      </trkpt>
      <trkpt lat="45.39137" lon="4.58284">
        <ele>1353.3</ele>
        <time>2026-08-18T12:53:51.975Z</time>
      </trkpt>
      <trkpt lat="45.39138" lon="4.58283">
        <ele>1353.7</ele>
        <time>2026-08-18T12:53:52.975Z</time>
      </trkpt>
      <trkpt lat="45.39138" lon="4.58282">
        <ele>1354.5</ele>
        <time>2026-08-18T12:53:53.975Z</time>
      </trkpt>
      <trkpt lat="45.39138" lon="4.58281">
        <ele>1354.4</ele>
        <time>2026-08-18T12:53:54.975Z</time>
      </trkpt>
      <trkpt lat="45.39138" lon="4.5828">
        <ele>1354.4</ele>
        <time>2026-08-18T12:53:55.980Z</time>
      </trkpt>
      <trkpt lat="45.39138" lon="4.58279">
        <ele>1353</ele>
        <time>2026-08-18T12:53:57.975Z</time>
      </trkpt>
      <trkpt lat="45.39139" lon="4.58278">
        <ele>1353.6</ele>
        <time>2026-08-18T12:53:58.975Z</time>
      </trkpt>
      <trkpt lat="45.39139" lon="4.58277">
        <ele>1353.9</ele>
        <time>2026-08-18T12:53:59.975Z</time>
      </trkpt>
      <trkpt lat="45.3914" lon="4.58275">
        <ele>1355.7</ele>
        <time>2026-08-18T12:54:00.988Z</time>
      </trkpt>
      <trkpt lat="45.39141" lon="4.58273">
        <ele>1354.4</ele>
        <time>2026-08-18T12:54:02.974Z</time>
      </trkpt>
      <trkpt lat="45.39141" lon="4.58272">
        <ele>1355.9</ele>
        <time>2026-08-18T12:54:03.975Z</time>
      </trkpt>
      <trkpt lat="45.39143" lon="4.5827">
        <ele>1356.7</ele>
        <time>2026-08-18T12:54:05.975Z</time>
      </trkpt>
      <trkpt lat="45.39143" lon="4.58269">
        <ele>1357.1</ele>
        <time>2026-08-18T12:54:06.975Z</time>
      </trkpt>
      <trkpt lat="45.39145" lon="4.58267">
        <ele>1357.5</ele>
        <time>2026-08-18T12:54:08.976Z</time>
      </trkpt>
      <trkpt lat="45.39147" lon="4.58266">
        <ele>1358.5</ele>
        <time>2026-08-18T12:54:10.975Z</time>
      </trkpt>
      <trkpt lat="45.39149" lon="4.58264">
        <ele>1357.8</ele>
        <time>2026-08-18T12:54:11.975Z</time>
      </trkpt>
      <trkpt lat="45.39151" lon="4.58262">
        <ele>1360.1</ele>
        <time>2026-08-18T12:54:13.975Z</time>
      </trkpt>
      <trkpt lat="45.39152" lon="4.5826">
        <ele>1360.1</ele>
        <time>2026-08-18T12:54:14.975Z</time>
      </trkpt>
      <trkpt lat="45.39153" lon="4.58259">
        <ele>1359.3</ele>
        <time>2026-08-18T12:54:15.975Z</time>
      </trkpt>
      <trkpt lat="45.39154" lon="4.58257">
        <ele>1361.9</ele>
        <time>2026-08-18T12:54:17.989Z</time>
      </trkpt>
      <trkpt lat="45.39156" lon="4.58254">
        <ele>1362.2</ele>
        <time>2026-08-18T12:54:19.903Z</time>
      </trkpt>
      <trkpt lat="45.39157" lon="4.58253">
        <ele>1361.5</ele>
        <time>2026-08-18T12:54:20.974Z</time>
      </trkpt>
      <trkpt lat="45.39158" lon="4.58251">
        <ele>1362.7</ele>
        <time>2026-08-18T12:54:21.983Z</time>
      </trkpt>
      <trkpt lat="45.3916" lon="4.58249">
        <ele>1362.2</ele>
        <time>2026-08-18T12:54:23.975Z</time>
      </trkpt>
      <trkpt lat="45.39161" lon="4.58246">
        <ele>1363.8</ele>
        <time>2026-08-18T12:54:25.975Z</time>
      </trkpt>
      <trkpt lat="45.39162" lon="4.58245">
        <ele>1363.8</ele>
        <time>2026-08-18T12:54:26.975Z</time>
      </trkpt>
      <trkpt lat="45.39164" lon="4.58242">
        <ele>1364</ele>
        <time>2026-08-18T12:54:28.975Z</time>
      </trkpt>
      <trkpt lat="45.39165" lon="4.58241">
        <ele>1363.9</ele>
        <time>2026-08-18T12:54:29.975Z</time>
      </trkpt>
      <trkpt lat="45.39165" lon="4.5824">
        <ele>1362.6</ele>
        <time>2026-08-18T12:54:30.997Z</time>
      </trkpt>
      <trkpt lat="45.39167" lon="4.58238">
        <ele>1363.2</ele>
        <time>2026-08-18T12:54:32.920Z</time>
      </trkpt>
      <trkpt lat="45.39168" lon="4.58236">
        <ele>1364.7</ele>
        <time>2026-08-18T12:54:33.975Z</time>
      </trkpt>
      <trkpt lat="45.39169" lon="4.58233">
        <ele>1366.5</ele>
        <time>2026-08-18T12:54:35.974Z</time>
      </trkpt>
      <trkpt lat="45.3917" lon="4.58232">
        <ele>1367</ele>
        <time>2026-08-18T12:54:36.974Z</time>
      </trkpt>
      <trkpt lat="45.39171" lon="4.58231">
        <ele>1367.7</ele>
        <time>2026-08-18T12:54:37.975Z</time>
      </trkpt>
      <trkpt lat="45.39172" lon="4.58229">
        <ele>1367.7</ele>
        <time>2026-08-18T12:54:38.995Z</time>
      </trkpt>
      <trkpt lat="45.39174" lon="4.58227">
        <ele>1369</ele>
        <time>2026-08-18T12:54:40.975Z</time>
      </trkpt>
      <trkpt lat="45.39176" lon="4.58224">
        <ele>1368.8</ele>
        <time>2026-08-18T12:54:42.976Z</time>
      </trkpt>
      <trkpt lat="45.39177" lon="4.58222">
        <ele>1369</ele>
        <time>2026-08-18T12:54:44.973Z</time>
      </trkpt>
      <trkpt lat="45.39178" lon="4.5822">
        <ele>1369</ele>
        <time>2026-08-18T12:54:45.974Z</time>
      </trkpt>
      <trkpt lat="45.39178" lon="4.58218">
        <ele>1369</ele>
        <time>2026-08-18T12:54:46.975Z</time>
      </trkpt>
      <trkpt lat="45.39179" lon="4.58215">
        <ele>1368.9</ele>
        <time>2026-08-18T12:54:48.974Z</time>
      </trkpt>
      <trkpt lat="45.3918" lon="4.58213">
        <ele>1368.9</ele>
        <time>2026-08-18T12:54:49.975Z</time>
      </trkpt>
      <trkpt lat="45.3918" lon="4.5821">
        <ele>1368.2</ele>
        <time>2026-08-18T12:54:51.991Z</time>
      </trkpt>
      <trkpt lat="45.3918" lon="4.58206">
        <ele>1369.3</ele>
        <time>2026-08-18T12:54:53.974Z</time>
      </trkpt>
      <trkpt lat="45.39181" lon="4.58204">
        <ele>1370.9</ele>
        <time>2026-08-18T12:54:54.974Z</time>
      </trkpt>
      <trkpt lat="45.39181" lon="4.58203">
        <ele>1369.4</ele>
        <time>2026-08-18T12:54:55.974Z</time>
      </trkpt>
      <trkpt lat="45.39181" lon="4.58201">
        <ele>1369.5</ele>
        <time>2026-08-18T12:54:56.975Z</time>
      </trkpt>
      <trkpt lat="45.39181" lon="4.582">
        <ele>1368.7</ele>
        <time>2026-08-18T12:54:57.975Z</time>
      </trkpt>
      <trkpt lat="45.39181" lon="4.58199">
        <ele>1368</ele>
        <time>2026-08-18T12:54:58.975Z</time>
      </trkpt>
      <trkpt lat="45.39182" lon="4.58196">
        <ele>1369.3</ele>
        <time>2026-08-18T12:55:00.974Z</time>
      </trkpt>
      <trkpt lat="45.39182" lon="4.58195">
        <ele>1368.6</ele>
        <time>2026-08-18T12:55:01.974Z</time>
      </trkpt>
      <trkpt lat="45.39183" lon="4.58194">
        <ele>1367.7</ele>
        <time>2026-08-18T12:55:02.974Z</time>
      </trkpt>
      <trkpt lat="45.39183" lon="4.58193">
        <ele>1367.7</ele>
        <time>2026-08-18T12:55:03.975Z</time>
      </trkpt>
      <trkpt lat="45.39183" lon="4.58192">
        <ele>1367.7</ele>
        <time>2026-08-18T12:55:04.980Z</time>
      </trkpt>
      <trkpt lat="45.39185" lon="4.58189">
        <ele>1369.1</ele>
        <time>2026-08-18T12:55:06.975Z</time>
      </trkpt>
      <trkpt lat="45.39186" lon="4.58187">
        <ele>1369.1</ele>
        <time>2026-08-18T12:55:08.899Z</time>
      </trkpt>
      <trkpt lat="45.39187" lon="4.58186">
        <ele>1371.4</ele>
        <time>2026-08-18T12:55:09.975Z</time>
      </trkpt>
      <trkpt lat="45.39188" lon="4.58185">
        <ele>1371.6</ele>
        <time>2026-08-18T12:55:10.975Z</time>
      </trkpt>
      <trkpt lat="45.3919" lon="4.58182">
        <ele>1372.8</ele>
        <time>2026-08-18T12:55:12.985Z</time>
      </trkpt>
      <trkpt lat="45.3919" lon="4.58181">
        <ele>1373.5</ele>
        <time>2026-08-18T12:55:14.011Z</time>
      </trkpt>
      <trkpt lat="45.39193" lon="4.5818">
        <ele>1375.5</ele>
        <time>2026-08-18T12:55:15.972Z</time>
      </trkpt>
      <trkpt lat="45.39194" lon="4.58179">
        <ele>1375.7</ele>
        <time>2026-08-18T12:55:16.978Z</time>
      </trkpt>
      <trkpt lat="45.39196" lon="4.58177">
        <ele>1374.3</ele>
        <time>2026-08-18T12:55:18.974Z</time>
      </trkpt>
      <trkpt lat="45.39197" lon="4.58176">
        <ele>1374.3</ele>
        <time>2026-08-18T12:55:19.974Z</time>
      </trkpt>
      <trkpt lat="45.392" lon="4.58174">
        <ele>1375.7</ele>
        <time>2026-08-18T12:55:21.974Z</time>
      </trkpt>
      <trkpt lat="45.39201" lon="4.58173">
        <ele>1374</ele>
        <time>2026-08-18T12:55:23.959Z</time>
      </trkpt>
      <trkpt lat="45.39202" lon="4.58172">
        <ele>1374</ele>
        <time>2026-08-18T12:55:24.974Z</time>
      </trkpt>
      <trkpt lat="45.39202" lon="4.58171">
        <ele>1373.8</ele>
        <time>2026-08-18T12:55:25.974Z</time>
      </trkpt>
      <trkpt lat="45.39204" lon="4.58169">
        <ele>1374.8</ele>
        <time>2026-08-18T12:55:27.943Z</time>
      </trkpt>
      <trkpt lat="45.39204" lon="4.5817">
        <ele>1374.6</ele>
        <time>2026-08-18T12:55:28.973Z</time>
      </trkpt>
      <trkpt lat="45.39205" lon="4.5817">
        <ele>1374.1</ele>
        <time>2026-08-18T12:55:30.974Z</time>
      </trkpt>
      <trkpt lat="45.39206" lon="4.58169">
        <ele>1373.7</ele>
        <time>2026-08-18T12:55:32.974Z</time>
      </trkpt>
      <trkpt lat="45.39207" lon="4.58167">
        <ele>1373.3</ele>
        <time>2026-08-18T12:55:34.974Z</time>
      </trkpt>
      <trkpt lat="45.39208" lon="4.58166">
        <ele>1372.5</ele>
        <time>2026-08-18T12:55:35.974Z</time>
      </trkpt>
      <trkpt lat="45.39209" lon="4.58165">
        <ele>1372.5</ele>
        <time>2026-08-18T12:55:36.974Z</time>
      </trkpt>
      <trkpt lat="45.3921" lon="4.58162">
        <ele>1372.5</ele>
        <time>2026-08-18T12:55:38.974Z</time>
      </trkpt>
      <trkpt lat="45.39211" lon="4.5816">
        <ele>1372.6</ele>
        <time>2026-08-18T12:55:40.082Z</time>
      </trkpt>
      <trkpt lat="45.39212" lon="4.58157">
        <ele>1370.8</ele>
        <time>2026-08-18T12:55:41.974Z</time>
      </trkpt>
      <trkpt lat="45.39213" lon="4.58155">
        <ele>1370.8</ele>
        <time>2026-08-18T12:55:42.975Z</time>
      </trkpt>
      <trkpt lat="45.39214" lon="4.58152">
        <ele>1370.4</ele>
        <time>2026-08-18T12:55:44.876Z</time>
      </trkpt>
      <trkpt lat="45.39216" lon="4.58151">
        <ele>1370</ele>
        <time>2026-08-18T12:55:46.016Z</time>
      </trkpt>
      <trkpt lat="45.39217" lon="4.58149">
        <ele>1370.2</ele>
        <time>2026-08-18T12:55:47.974Z</time>
      </trkpt>
      <trkpt lat="45.39218" lon="4.58148">
        <ele>1370.2</ele>
        <time>2026-08-18T12:55:48.982Z</time>
      </trkpt>
      <trkpt lat="45.39218" lon="4.58147">
        <ele>1370.2</ele>
        <time>2026-08-18T12:55:49.982Z</time>
      </trkpt>
      <trkpt lat="45.39219" lon="4.58146">
        <ele>1369.9</ele>
        <time>2026-08-18T12:55:51.054Z</time>
      </trkpt>
      <trkpt lat="45.3922" lon="4.58147">
        <ele>1370.2</ele>
        <time>2026-08-18T12:55:52.973Z</time>
      </trkpt>
      <trkpt lat="45.39221" lon="4.58146">
        <ele>1370</ele>
        <time>2026-08-18T12:55:53.974Z</time>
      </trkpt>
      <trkpt lat="45.39222" lon="4.58146">
        <ele>1369.9</ele>
        <time>2026-08-18T12:55:54.974Z</time>
      </trkpt>
      <trkpt lat="45.39224" lon="4.58144">
        <ele>1368.9</ele>
        <time>2026-08-18T12:55:56.973Z</time>
      </trkpt>
      <trkpt lat="45.39225" lon="4.58143">
        <ele>1368.8</ele>
        <time>2026-08-18T12:55:58.974Z</time>
      </trkpt>
      <trkpt lat="45.39227" lon="4.58142">
        <ele>1370</ele>
        <time>2026-08-18T12:56:00.980Z</time>
      </trkpt>
      <trkpt lat="45.39228" lon="4.58141">
        <ele>1369.9</ele>
        <time>2026-08-18T12:56:02.895Z</time>
      </trkpt>
      <trkpt lat="45.39229" lon="4.58141">
        <ele>1371</ele>
        <time>2026-08-18T12:56:03.974Z</time>
      </trkpt>
      <trkpt lat="45.39229" lon="4.5814">
        <ele>1373.3</ele>
        <time>2026-08-18T12:56:04.975Z</time>
      </trkpt>
      <trkpt lat="45.3923" lon="4.58137">
        <ele>1374.9</ele>
        <time>2026-08-18T12:56:06.974Z</time>
      </trkpt>
      <trkpt lat="45.39231" lon="4.58134">
        <ele>1376.5</ele>
        <time>2026-08-18T12:56:08.974Z</time>
      </trkpt>
      <trkpt lat="45.39232" lon="4.58133">
        <ele>1376.7</ele>
        <time>2026-08-18T12:56:09.994Z</time>
      </trkpt>
      <trkpt lat="45.39232" lon="4.58131">
        <ele>1379</ele>
        <time>2026-08-18T12:56:11.974Z</time>
      </trkpt>
      <trkpt lat="45.39233" lon="4.5813">
        <ele>1379</ele>
        <time>2026-08-18T12:56:12.983Z</time>
      </trkpt>
      <trkpt lat="45.39233" lon="4.58129">
        <ele>1378.1</ele>
        <time>2026-08-18T12:56:13.987Z</time>
      </trkpt>
      <trkpt lat="45.39234" lon="4.58126">
        <ele>1378.8</ele>
        <time>2026-08-18T12:56:15.973Z</time>
      </trkpt>
      <trkpt lat="45.39234" lon="4.58125">
        <ele>1378.6</ele>
        <time>2026-08-18T12:56:16.974Z</time>
      </trkpt>
      <trkpt lat="45.39234" lon="4.58123">
        <ele>1378.6</ele>
        <time>2026-08-18T12:56:17.974Z</time>
      </trkpt>
      <trkpt lat="45.39235" lon="4.5812">
        <ele>1378.9</ele>
        <time>2026-08-18T12:56:19.973Z</time>
      </trkpt>
      <trkpt lat="45.39236" lon="4.58118">
        <ele>1378.7</ele>
        <time>2026-08-18T12:56:20.974Z</time>
      </trkpt>
      <trkpt lat="45.39237" lon="4.58115">
        <ele>1379.5</ele>
        <time>2026-08-18T12:56:23.002Z</time>
      </trkpt>
      <trkpt lat="45.39238" lon="4.58111">
        <ele>1381.2</ele>
        <time>2026-08-18T12:56:24.974Z</time>
      </trkpt>
      <trkpt lat="45.3924" lon="4.58107">
        <ele>1381.2</ele>
        <time>2026-08-18T12:56:26.940Z</time>
      </trkpt>
      <trkpt lat="45.3924" lon="4.58105">
        <ele>1379.9</ele>
        <time>2026-08-18T12:56:27.974Z</time>
      </trkpt>
      <trkpt lat="45.39242" lon="4.58102">
        <ele>1380.3</ele>
        <time>2026-08-18T12:56:29.973Z</time>
      </trkpt>
      <trkpt lat="45.39242" lon="4.581">
        <ele>1380.3</ele>
        <time>2026-08-18T12:56:31.019Z</time>
      </trkpt>
      <trkpt lat="45.39243" lon="4.58096">
        <ele>1379.9</ele>
        <time>2026-08-18T12:56:32.974Z</time>
      </trkpt>
      <trkpt lat="45.39243" lon="4.58094">
        <ele>1379.9</ele>
        <time>2026-08-18T12:56:33.995Z</time>
      </trkpt>
      <trkpt lat="45.39244" lon="4.5809">
        <ele>1379.9</ele>
        <time>2026-08-18T12:56:35.974Z</time>
      </trkpt>
      <trkpt lat="45.39245" lon="4.58088">
        <ele>1380.3</ele>
        <time>2026-08-18T12:56:36.974Z</time>
      </trkpt>
      <trkpt lat="45.39246" lon="4.58085">
        <ele>1380</ele>
        <time>2026-08-18T12:56:38.976Z</time>
      </trkpt>
      <trkpt lat="45.39247" lon="4.58082">
        <ele>1380.7</ele>
        <time>2026-08-18T12:56:40.974Z</time>
      </trkpt>
      <trkpt lat="45.39249" lon="4.5808">
        <ele>1382</ele>
        <time>2026-08-18T12:56:42.974Z</time>
      </trkpt>
      <trkpt lat="45.3925" lon="4.58077">
        <ele>1382.3</ele>
        <time>2026-08-18T12:56:44.920Z</time>
      </trkpt>
      <trkpt lat="45.3925" lon="4.58076">
        <ele>1381.9</ele>
        <time>2026-08-18T12:56:45.974Z</time>
      </trkpt>
      <trkpt lat="45.39251" lon="4.58074">
        <ele>1382.3</ele>
        <time>2026-08-18T12:56:46.974Z</time>
      </trkpt>
      <trkpt lat="45.39251" lon="4.58073">
        <ele>1381.9</ele>
        <time>2026-08-18T12:56:47.989Z</time>
      </trkpt>
      <trkpt lat="45.39252" lon="4.5807">
        <ele>1381.9</ele>
        <time>2026-08-18T12:56:49.974Z</time>
      </trkpt>
      <trkpt lat="45.39252" lon="4.58069">
        <ele>1382.2</ele>
        <time>2026-08-18T12:56:50.974Z</time>
      </trkpt>
      <trkpt lat="45.39253" lon="4.58068">
        <ele>1380.9</ele>
        <time>2026-08-18T12:56:51.982Z</time>
      </trkpt>
      <trkpt lat="45.39254" lon="4.58065">
        <ele>1380.9</ele>
        <time>2026-08-18T12:56:54.020Z</time>
      </trkpt>
      <trkpt lat="45.39255" lon="4.58063">
        <ele>1378.9</ele>
        <time>2026-08-18T12:56:55.973Z</time>
      </trkpt>
      <trkpt lat="45.39256" lon="4.58062">
        <ele>1379.6</ele>
        <time>2026-08-18T12:56:56.973Z</time>
      </trkpt>
      <trkpt lat="45.39256" lon="4.58061">
        <ele>1379.7</ele>
        <time>2026-08-18T12:56:57.973Z</time>
      </trkpt>
      <trkpt lat="45.39256" lon="4.58059">
        <ele>1380</ele>
        <time>2026-08-18T12:56:58.973Z</time>
      </trkpt>
      <trkpt lat="45.39256" lon="4.58056">
        <ele>1379.4</ele>
        <time>2026-08-18T12:57:00.996Z</time>
      </trkpt>
      <trkpt lat="45.39257" lon="4.58054">
        <ele>1379.5</ele>
        <time>2026-08-18T12:57:02.974Z</time>
      </trkpt>
      <trkpt lat="45.39257" lon="4.58051">
        <ele>1379.5</ele>
        <time>2026-08-18T12:57:04.990Z</time>
      </trkpt>
      <trkpt lat="45.39257" lon="4.58048">
        <ele>1379.7</ele>
        <time>2026-08-18T12:57:06.974Z</time>
      </trkpt>
      <trkpt lat="45.39258" lon="4.58047">
        <ele>1379.6</ele>
        <time>2026-08-18T12:57:07.974Z</time>
      </trkpt>
      <trkpt lat="45.39258" lon="4.58045">
        <ele>1379.6</ele>
        <time>2026-08-18T12:57:08.983Z</time>
      </trkpt>
      <trkpt lat="45.39258" lon="4.58042">
        <ele>1378.4</ele>
        <time>2026-08-18T12:57:10.974Z</time>
      </trkpt>
      <trkpt lat="45.39258" lon="4.5804">
        <ele>1378</ele>
        <time>2026-08-18T12:57:11.974Z</time>
      </trkpt>
      <trkpt lat="45.39258" lon="4.58038">
        <ele>1378.2</ele>
        <time>2026-08-18T12:57:12.975Z</time>
      </trkpt>
      <trkpt lat="45.39258" lon="4.58036">
        <ele>1378.4</ele>
        <time>2026-08-18T12:57:14.919Z</time>
      </trkpt>
      <trkpt lat="45.39258" lon="4.58035">
        <ele>1378</ele>
        <time>2026-08-18T12:57:15.974Z</time>
      </trkpt>
      <trkpt lat="45.39258" lon="4.58033">
        <ele>1377.2</ele>
        <time>2026-08-18T12:57:17.974Z</time>
      </trkpt>
      <trkpt lat="45.39257" lon="4.58031">
        <ele>1377.2</ele>
        <time>2026-08-18T12:57:19.957Z</time>
      </trkpt>
      <trkpt lat="45.39257" lon="4.5803">
        <ele>1377.2</ele>
        <time>2026-08-18T12:57:20.974Z</time>
      </trkpt>
      <trkpt lat="45.39257" lon="4.58028">
        <ele>1377.3</ele>
        <time>2026-08-18T12:57:21.989Z</time>
      </trkpt>
      <trkpt lat="45.39257" lon="4.58026">
        <ele>1379.9</ele>
        <time>2026-08-18T12:57:23.973Z</time>
      </trkpt>
      <trkpt lat="45.39256" lon="4.58024">
        <ele>1379.8</ele>
        <time>2026-08-18T12:57:25.973Z</time>
      </trkpt>
      <trkpt lat="45.39256" lon="4.58022">
        <ele>1379.6</ele>
        <time>2026-08-18T12:57:27.972Z</time>
      </trkpt>
      <trkpt lat="45.39256" lon="4.58021">
        <ele>1379.9</ele>
        <time>2026-08-18T12:57:28.973Z</time>
      </trkpt>
      <trkpt lat="45.39256" lon="4.58018">
        <ele>1380.3</ele>
        <time>2026-08-18T12:57:30.974Z</time>
      </trkpt>
      <trkpt lat="45.39256" lon="4.58016">
        <ele>1378.3</ele>
        <time>2026-08-18T12:57:32.973Z</time>
      </trkpt>
      <trkpt lat="45.39256" lon="4.58015">
        <ele>1378.6</ele>
        <time>2026-08-18T12:57:33.974Z</time>
      </trkpt>
      <trkpt lat="45.39255" lon="4.58013">
        <ele>1378.7</ele>
        <time>2026-08-18T12:57:34.974Z</time>
      </trkpt>
      <trkpt lat="45.39255" lon="4.58011">
        <ele>1378.2</ele>
        <time>2026-08-18T12:57:36.974Z</time>
      </trkpt>
      <trkpt lat="45.39255" lon="4.58009">
        <ele>1378.7</ele>
        <time>2026-08-18T12:57:37.974Z</time>
      </trkpt>
      <trkpt lat="45.39255" lon="4.58008">
        <ele>1379</ele>
        <time>2026-08-18T12:57:38.989Z</time>
      </trkpt>
      <trkpt lat="45.39254" lon="4.58005">
        <ele>1379.6</ele>
        <time>2026-08-18T12:57:40.974Z</time>
      </trkpt>
      <trkpt lat="45.39254" lon="4.58002">
        <ele>1379.8</ele>
        <time>2026-08-18T12:57:42.984Z</time>
      </trkpt>
      <trkpt lat="45.39253" lon="4.58">
        <ele>1380</ele>
        <time>2026-08-18T12:57:44.897Z</time>
      </trkpt>
      <trkpt lat="45.39253" lon="4.57999">
        <ele>1379</ele>
        <time>2026-08-18T12:57:45.974Z</time>
      </trkpt>
      <trkpt lat="45.39253" lon="4.57996">
        <ele>1377</ele>
        <time>2026-08-18T12:57:47.973Z</time>
      </trkpt>
      <trkpt lat="45.39253" lon="4.57995">
        <ele>1377.3</ele>
        <time>2026-08-18T12:57:48.974Z</time>
      </trkpt>
      <trkpt lat="45.39253" lon="4.57992">
        <ele>1377.5</ele>
        <time>2026-08-18T12:57:50.974Z</time>
      </trkpt>
      <trkpt lat="45.39253" lon="4.5799">
        <ele>1377.5</ele>
        <time>2026-08-18T12:57:51.974Z</time>
      </trkpt>
      <trkpt lat="45.39253" lon="4.57988">
        <ele>1378.5</ele>
        <time>2026-08-18T12:57:53.974Z</time>
      </trkpt>
      <trkpt lat="45.39253" lon="4.57986">
        <ele>1379.2</ele>
        <time>2026-08-18T12:57:55.974Z</time>
      </trkpt>
      <trkpt lat="45.39252" lon="4.57984">
        <ele>1378.8</ele>
        <time>2026-08-18T12:57:56.974Z</time>
      </trkpt>
      <trkpt lat="45.39252" lon="4.57981">
        <ele>1379.9</ele>
        <time>2026-08-18T12:57:58.973Z</time>
      </trkpt>
      <trkpt lat="45.39252" lon="4.5798">
        <ele>1377.2</ele>
        <time>2026-08-18T12:57:59.983Z</time>
      </trkpt>
      <trkpt lat="45.39252" lon="4.57977">
        <ele>1377</ele>
        <time>2026-08-18T12:58:01.955Z</time>
      </trkpt>
      <trkpt lat="45.39252" lon="4.57975">
        <ele>1374.8</ele>
        <time>2026-08-18T12:58:02.974Z</time>
      </trkpt>
      <trkpt lat="45.39252" lon="4.57972">
        <ele>1375.7</ele>
        <time>2026-08-18T12:58:04.974Z</time>
      </trkpt>
      <trkpt lat="45.39252" lon="4.57969">
        <ele>1375.6</ele>
        <time>2026-08-18T12:58:06.973Z</time>
      </trkpt>
      <trkpt lat="45.39252" lon="4.57968">
        <ele>1376.2</ele>
        <time>2026-08-18T12:58:07.973Z</time>
      </trkpt>
      <trkpt lat="45.39251" lon="4.57966">
        <ele>1377.2</ele>
        <time>2026-08-18T12:58:08.973Z</time>
      </trkpt>
      <trkpt lat="45.39251" lon="4.57965">
        <ele>1375.8</ele>
        <time>2026-08-18T12:58:09.974Z</time>
      </trkpt>
      <trkpt lat="45.39251" lon="4.57961">
        <ele>1375.9</ele>
        <time>2026-08-18T12:58:11.973Z</time>
      </trkpt>
      <trkpt lat="45.39251" lon="4.5796">
        <ele>1375.4</ele>
        <time>2026-08-18T12:58:12.990Z</time>
      </trkpt>
      <trkpt lat="45.3925" lon="4.57957">
        <ele>1376.3</ele>
        <time>2026-08-18T12:58:14.974Z</time>
      </trkpt>
      <trkpt lat="45.39249" lon="4.57953">
        <ele>1376.6</ele>
        <time>2026-08-18T12:58:16.972Z</time>
      </trkpt>
      <trkpt lat="45.39249" lon="4.57951">
        <ele>1376.9</ele>
        <time>2026-08-18T12:58:17.973Z</time>
      </trkpt>
      <trkpt lat="45.39249" lon="4.57949">
        <ele>1377.8</ele>
        <time>2026-08-18T12:58:18.974Z</time>
      </trkpt>
      <trkpt lat="45.39248" lon="4.57947">
        <ele>1378.1</ele>
        <time>2026-08-18T12:58:19.974Z</time>
      </trkpt>
      <trkpt lat="45.39248" lon="4.57946">
        <ele>1378.9</ele>
        <time>2026-08-18T12:58:20.978Z</time>
      </trkpt>
      <trkpt lat="45.39247" lon="4.57943">
        <ele>1381.5</ele>
        <time>2026-08-18T12:58:22.974Z</time>
      </trkpt>
      <trkpt lat="45.39246" lon="4.57941">
        <ele>1382.6</ele>
        <time>2026-08-18T12:58:23.974Z</time>
      </trkpt>
      <trkpt lat="45.39246" lon="4.57938">
        <ele>1381.9</ele>
        <time>2026-08-18T12:58:25.974Z</time>
      </trkpt>
      <trkpt lat="45.39245" lon="4.57936">
        <ele>1380.4</ele>
        <time>2026-08-18T12:58:26.974Z</time>
      </trkpt>
      <trkpt lat="45.39244" lon="4.57932">
        <ele>1379</ele>
        <time>2026-08-18T12:58:28.974Z</time>
      </trkpt>
      <trkpt lat="45.39243" lon="4.57928">
        <ele>1379.1</ele>
        <time>2026-08-18T12:58:30.974Z</time>
      </trkpt>
      <trkpt lat="45.39243" lon="4.57926">
        <ele>1378.7</ele>
        <time>2026-08-18T12:58:31.974Z</time>
      </trkpt>
      <trkpt lat="45.39243" lon="4.57925">
        <ele>1378.7</ele>
        <time>2026-08-18T12:58:32.974Z</time>
      </trkpt>
      <trkpt lat="45.39243" lon="4.57923">
        <ele>1379</ele>
        <time>2026-08-18T12:58:33.985Z</time>
      </trkpt>
      <trkpt lat="45.39242" lon="4.5792">
        <ele>1378.3</ele>
        <time>2026-08-18T12:58:35.974Z</time>
      </trkpt>
      <trkpt lat="45.39242" lon="4.57918">
        <ele>1379</ele>
        <time>2026-08-18T12:58:36.974Z</time>
      </trkpt>
      <trkpt lat="45.39242" lon="4.57917">
        <ele>1380.2</ele>
        <time>2026-08-18T12:58:37.979Z</time>
      </trkpt>
      <trkpt lat="45.39241" lon="4.57914">
        <ele>1380.3</ele>
        <time>2026-08-18T12:58:39.974Z</time>
      </trkpt>
      <trkpt lat="45.39241" lon="4.57912">
        <ele>1380.1</ele>
        <time>2026-08-18T12:58:40.974Z</time>
      </trkpt>
      <trkpt lat="45.39241" lon="4.57911">
        <ele>1380.9</ele>
        <time>2026-08-18T12:58:41.974Z</time>
      </trkpt>
      <trkpt lat="45.3924" lon="4.57907">
        <ele>1382.1</ele>
        <time>2026-08-18T12:58:43.974Z</time>
      </trkpt>
      <trkpt lat="45.3924" lon="4.57906">
        <ele>1381.5</ele>
        <time>2026-08-18T12:58:44.974Z</time>
      </trkpt>
      <trkpt lat="45.39239" lon="4.57903">
        <ele>1380.2</ele>
        <time>2026-08-18T12:58:46.974Z</time>
      </trkpt>
      <trkpt lat="45.39239" lon="4.57901">
        <ele>1380.5</ele>
        <time>2026-08-18T12:58:47.974Z</time>
      </trkpt>
      <trkpt lat="45.39239" lon="4.579">
        <ele>1380.3</ele>
        <time>2026-08-18T12:58:48.974Z</time>
      </trkpt>
      <trkpt lat="45.39238" lon="4.57897">
        <ele>1380.2</ele>
        <time>2026-08-18T12:58:50.986Z</time>
      </trkpt>
      <trkpt lat="45.39238" lon="4.57894">
        <ele>1380.2</ele>
        <time>2026-08-18T12:58:52.974Z</time>
      </trkpt>
      <trkpt lat="45.39237" lon="4.5789">
        <ele>1379.5</ele>
        <time>2026-08-18T12:58:55.001Z</time>
      </trkpt>
      <trkpt lat="45.39237" lon="4.57887">
        <ele>1378.9</ele>
        <time>2026-08-18T12:58:56.973Z</time>
      </trkpt>
      <trkpt lat="45.39236" lon="4.57885">
        <ele>1379</ele>
        <time>2026-08-18T12:58:57.974Z</time>
      </trkpt>
      <trkpt lat="45.39236" lon="4.57882">
        <ele>1378.2</ele>
        <time>2026-08-18T12:58:59.974Z</time>
      </trkpt>
      <trkpt lat="45.39235" lon="4.5788">
        <ele>1378.1</ele>
        <time>2026-08-18T12:59:00.974Z</time>
      </trkpt>
      <trkpt lat="45.39235" lon="4.57877">
        <ele>1377.5</ele>
        <time>2026-08-18T12:59:02.874Z</time>
      </trkpt>
      <trkpt lat="45.39235" lon="4.57875">
        <ele>1376.4</ele>
        <time>2026-08-18T12:59:03.974Z</time>
      </trkpt>
      <trkpt lat="45.39233" lon="4.57871">
        <ele>1376.9</ele>
        <time>2026-08-18T12:59:05.973Z</time>
      </trkpt>
      <trkpt lat="45.39232" lon="4.57868">
        <ele>1377.6</ele>
        <time>2026-08-18T12:59:07.987Z</time>
      </trkpt>
      <trkpt lat="45.39231" lon="4.57864">
        <ele>1379.5</ele>
        <time>2026-08-18T12:59:09.973Z</time>
      </trkpt>
      <trkpt lat="45.39229" lon="4.57863">
        <ele>1379.9</ele>
        <time>2026-08-18T12:59:10.974Z</time>
      </trkpt>
      <trkpt lat="45.39229" lon="4.57861">
        <ele>1380.7</ele>
        <time>2026-08-18T12:59:11.980Z</time>
      </trkpt>
      <trkpt lat="45.39227" lon="4.57858">
        <ele>1380.6</ele>
        <time>2026-08-18T12:59:13.941Z</time>
      </trkpt>
      <trkpt lat="45.39226" lon="4.57856">
        <ele>1382.2</ele>
        <time>2026-08-18T12:59:14.974Z</time>
      </trkpt>
      <trkpt lat="45.39225" lon="4.57852">
        <ele>1382.7</ele>
        <time>2026-08-18T12:59:16.974Z</time>
      </trkpt>
      <trkpt lat="45.39224" lon="4.57848">
        <ele>1383.5</ele>
        <time>2026-08-18T12:59:18.974Z</time>
      </trkpt>
      <trkpt lat="45.39223" lon="4.57847">
        <ele>1383.6</ele>
        <time>2026-08-18T12:59:19.974Z</time>
      </trkpt>
      <trkpt lat="45.39223" lon="4.57845">
        <ele>1383.9</ele>
        <time>2026-08-18T12:59:20.994Z</time>
      </trkpt>
      <trkpt lat="45.39222" lon="4.57842">
        <ele>1384.7</ele>
        <time>2026-08-18T12:59:22.974Z</time>
      </trkpt>
      <trkpt lat="45.39222" lon="4.5784">
        <ele>1384.8</ele>
        <time>2026-08-18T12:59:23.974Z</time>
      </trkpt>
      <trkpt lat="45.39221" lon="4.57839">
        <ele>1384.8</ele>
        <time>2026-08-18T12:59:24.988Z</time>
      </trkpt>
      <trkpt lat="45.39221" lon="4.57835">
        <ele>1383.8</ele>
        <time>2026-08-18T12:59:26.973Z</time>
      </trkpt>
      <trkpt lat="45.3922" lon="4.57833">
        <ele>1382.7</ele>
        <time>2026-08-18T12:59:27.973Z</time>
      </trkpt>
      <trkpt lat="45.39219" lon="4.57831">
        <ele>1383.5</ele>
        <time>2026-08-18T12:59:28.981Z</time>
      </trkpt>
      <trkpt lat="45.39218" lon="4.57825">
        <ele>1384.1</ele>
        <time>2026-08-18T12:59:30.973Z</time>
      </trkpt>
      <trkpt lat="45.39217" lon="4.57823">
        <ele>1383.7</ele>
        <time>2026-08-18T12:59:31.974Z</time>
      </trkpt>
      <trkpt lat="45.39216" lon="4.57822">
        <ele>1383.8</ele>
        <time>2026-08-18T12:59:32.974Z</time>
      </trkpt>
      <trkpt lat="45.39215" lon="4.57819">
        <ele>1384.1</ele>
        <time>2026-08-18T12:59:34.974Z</time>
      </trkpt>
      <trkpt lat="45.39215" lon="4.57818">
        <ele>1384</ele>
        <time>2026-08-18T12:59:35.974Z</time>
      </trkpt>
      <trkpt lat="45.39215" lon="4.57817">
        <ele>1383.4</ele>
        <time>2026-08-18T12:59:36.974Z</time>
      </trkpt>
      <trkpt lat="45.39214" lon="4.57815">
        <ele>1383.2</ele>
        <time>2026-08-18T12:59:37.995Z</time>
      </trkpt>
      <trkpt lat="45.39213" lon="4.57811">
        <ele>1383.2</ele>
        <time>2026-08-18T12:59:39.974Z</time>
      </trkpt>
      <trkpt lat="45.39212" lon="4.57808">
        <ele>1382.8</ele>
        <time>2026-08-18T12:59:41.988Z</time>
      </trkpt>
      <trkpt lat="45.39211" lon="4.57805">
        <ele>1382.3</ele>
        <time>2026-08-18T12:59:43.974Z</time>
      </trkpt>
      <trkpt lat="45.3921" lon="4.57803">
        <ele>1382.1</ele>
        <time>2026-08-18T12:59:44.974Z</time>
      </trkpt>
      <trkpt lat="45.39209" lon="4.578">
        <ele>1381.8</ele>
        <time>2026-08-18T12:59:46.935Z</time>
      </trkpt>
      <trkpt lat="45.39208" lon="4.57797">
        <ele>1381.8</ele>
        <time>2026-08-18T12:59:47.974Z</time>
      </trkpt>
      <trkpt lat="45.39207" lon="4.57793">
        <ele>1382.7</ele>
        <time>2026-08-18T12:59:49.976Z</time>
      </trkpt>
      <trkpt lat="45.39206" lon="4.57789">
        <ele>1383.7</ele>
        <time>2026-08-18T12:59:51.974Z</time>
      </trkpt>
      <trkpt lat="45.39206" lon="4.57786">
        <ele>1382.9</ele>
        <time>2026-08-18T12:59:53.974Z</time>
      </trkpt>
      <trkpt lat="45.39205" lon="4.57785">
        <ele>1383.2</ele>
        <time>2026-08-18T12:59:54.974Z</time>
      </trkpt>
      <trkpt lat="45.39205" lon="4.57784">
        <ele>1383.2</ele>
        <time>2026-08-18T12:59:55.974Z</time>
      </trkpt>
      <trkpt lat="45.39204" lon="4.57781">
        <ele>1383</ele>
        <time>2026-08-18T12:59:57.974Z</time>
      </trkpt>
      <trkpt lat="45.39203" lon="4.57779">
        <ele>1383.3</ele>
        <time>2026-08-18T12:59:58.988Z</time>
      </trkpt>
      <trkpt lat="45.39202" lon="4.57775">
        <ele>1384.1</ele>
        <time>2026-08-18T13:00:00.972Z</time>
      </trkpt>
      <trkpt lat="45.39201" lon="4.57772">
        <ele>1384.5</ele>
        <time>2026-08-18T13:00:02.983Z</time>
      </trkpt>
      <trkpt lat="45.39199" lon="4.57769">
        <ele>1385.1</ele>
        <time>2026-08-18T13:00:04.973Z</time>
      </trkpt>
      <trkpt lat="45.39199" lon="4.57768">
        <ele>1384.9</ele>
        <time>2026-08-18T13:00:05.974Z</time>
      </trkpt>
      <trkpt lat="45.39199" lon="4.57766">
        <ele>1384.5</ele>
        <time>2026-08-18T13:00:06.976Z</time>
      </trkpt>
      <trkpt lat="45.39198" lon="4.57762">
        <ele>1384.9</ele>
        <time>2026-08-18T13:00:08.956Z</time>
      </trkpt>
      <trkpt lat="45.39198" lon="4.5776">
        <ele>1386.6</ele>
        <time>2026-08-18T13:00:09.974Z</time>
      </trkpt>
      <trkpt lat="45.39198" lon="4.57759">
        <ele>1387</ele>
        <time>2026-08-18T13:00:10.974Z</time>
      </trkpt>
      <trkpt lat="45.39197" lon="4.57756">
        <ele>1385</ele>
        <time>2026-08-18T13:00:12.902Z</time>
      </trkpt>
      <trkpt lat="45.39197" lon="4.57755">
        <ele>1385</ele>
        <time>2026-08-18T13:00:13.974Z</time>
      </trkpt>
      <trkpt lat="45.39197" lon="4.57754">
        <ele>1384.9</ele>
        <time>2026-08-18T13:00:14.974Z</time>
      </trkpt>
      <trkpt lat="45.39197" lon="4.57753">
        <ele>1384.6</ele>
        <time>2026-08-18T13:00:15.974Z</time>
      </trkpt>
      <trkpt lat="45.39197" lon="4.57751">
        <ele>1384.7</ele>
        <time>2026-08-18T13:00:16.974Z</time>
      </trkpt>
      <trkpt lat="45.39197" lon="4.5775">
        <ele>1384.7</ele>
        <time>2026-08-18T13:00:17.998Z</time>
      </trkpt>
      <trkpt lat="45.39197" lon="4.57748">
        <ele>1385.1</ele>
        <time>2026-08-18T13:00:19.958Z</time>
      </trkpt>
      <trkpt lat="45.39197" lon="4.57746">
        <ele>1384.4</ele>
        <time>2026-08-18T13:00:20.974Z</time>
      </trkpt>
      <trkpt lat="45.39198" lon="4.57744">
        <ele>1382.7</ele>
        <time>2026-08-18T13:00:22.973Z</time>
      </trkpt>
      <trkpt lat="45.39197" lon="4.57742">
        <ele>1383.3</ele>
        <time>2026-08-18T13:00:23.977Z</time>
      </trkpt>
      <trkpt lat="45.39197" lon="4.5774">
        <ele>1384.1</ele>
        <time>2026-08-18T13:00:25.973Z</time>
      </trkpt>
      <trkpt lat="45.39197" lon="4.57738">
        <ele>1384.2</ele>
        <time>2026-08-18T13:00:26.974Z</time>
      </trkpt>
      <trkpt lat="45.39197" lon="4.57737">
        <ele>1383.9</ele>
        <time>2026-08-18T13:00:27.974Z</time>
      </trkpt>
      <trkpt lat="45.39197" lon="4.57735">
        <ele>1384.7</ele>
        <time>2026-08-18T13:00:29.973Z</time>
      </trkpt>
      <trkpt lat="45.39197" lon="4.57734">
        <ele>1385.2</ele>
        <time>2026-08-18T13:00:30.973Z</time>
      </trkpt>
      <trkpt lat="45.39197" lon="4.57733">
        <ele>1384.8</ele>
        <time>2026-08-18T13:00:31.974Z</time>
      </trkpt>
      <trkpt lat="45.39196" lon="4.57732">
        <ele>1384.8</ele>
        <time>2026-08-18T13:00:32.990Z</time>
      </trkpt>
      <trkpt lat="45.39196" lon="4.5773">
        <ele>1386</ele>
        <time>2026-08-18T13:00:34.974Z</time>
      </trkpt>
      <trkpt lat="45.39196" lon="4.57727">
        <ele>1386</ele>
        <time>2026-08-18T13:00:36.939Z</time>
      </trkpt>
      <trkpt lat="45.39195" lon="4.57727">
        <ele>1387.2</ele>
        <time>2026-08-18T13:00:37.974Z</time>
      </trkpt>
      <trkpt lat="45.39195" lon="4.57725">
        <ele>1388.5</ele>
        <time>2026-08-18T13:00:39.973Z</time>
      </trkpt>
      <trkpt lat="45.39195" lon="4.57723">
        <ele>1388.6</ele>
        <time>2026-08-18T13:00:40.977Z</time>
      </trkpt>
      <trkpt lat="45.39194" lon="4.57721">
        <ele>1388.4</ele>
        <time>2026-08-18T13:00:42.974Z</time>
      </trkpt>
      <trkpt lat="45.39194" lon="4.57719">
        <ele>1388.4</ele>
        <time>2026-08-18T13:00:43.975Z</time>
      </trkpt>
      <trkpt lat="45.39193" lon="4.57716">
        <ele>1388.8</ele>
        <time>2026-08-18T13:00:45.974Z</time>
      </trkpt>
      <trkpt lat="45.39192" lon="4.57712">
        <ele>1389.3</ele>
        <time>2026-08-18T13:00:47.973Z</time>
      </trkpt>
      <trkpt lat="45.39192" lon="4.57711">
        <ele>1390.2</ele>
        <time>2026-08-18T13:00:48.973Z</time>
      </trkpt>
      <trkpt lat="45.39191" lon="4.57709">
        <ele>1390.4</ele>
        <time>2026-08-18T13:00:49.991Z</time>
      </trkpt>
      <trkpt lat="45.39191" lon="4.57707">
        <ele>1389.6</ele>
        <time>2026-08-18T13:00:51.974Z</time>
      </trkpt>
      <trkpt lat="45.3919" lon="4.57706">
        <ele>1389.1</ele>
        <time>2026-08-18T13:00:52.974Z</time>
      </trkpt>
      <trkpt lat="45.3919" lon="4.57703">
        <ele>1389.1</ele>
        <time>2026-08-18T13:00:54.974Z</time>
      </trkpt>
      <trkpt lat="45.3919" lon="4.57701">
        <ele>1389.6</ele>
        <time>2026-08-18T13:00:55.974Z</time>
      </trkpt>
      <trkpt lat="45.3919" lon="4.577">
        <ele>1389.1</ele>
        <time>2026-08-18T13:00:56.974Z</time>
      </trkpt>
      <trkpt lat="45.39189" lon="4.57697">
        <ele>1389.7</ele>
        <time>2026-08-18T13:00:58.974Z</time>
      </trkpt>
      <trkpt lat="45.39189" lon="4.57695">
        <ele>1389.1</ele>
        <time>2026-08-18T13:01:00.973Z</time>
      </trkpt>
      <trkpt lat="45.39189" lon="4.57694">
        <ele>1388.9</ele>
        <time>2026-08-18T13:01:01.973Z</time>
      </trkpt>
      <trkpt lat="45.39189" lon="4.57691">
        <ele>1387</ele>
        <time>2026-08-18T13:01:03.973Z</time>
      </trkpt>
      <trkpt lat="45.39189" lon="4.5769">
        <ele>1386.6</ele>
        <time>2026-08-18T13:01:04.974Z</time>
      </trkpt>
      <trkpt lat="45.39188" lon="4.57688">
        <ele>1386.2</ele>
        <time>2026-08-18T13:01:05.974Z</time>
      </trkpt>
      <trkpt lat="45.39188" lon="4.57687">
        <ele>1384.8</ele>
        <time>2026-08-18T13:01:06.974Z</time>
      </trkpt>
      <trkpt lat="45.39188" lon="4.57684">
        <ele>1384.2</ele>
        <time>2026-08-18T13:01:08.974Z</time>
      </trkpt>
      <trkpt lat="45.39188" lon="4.57681">
        <ele>1383.2</ele>
        <time>2026-08-18T13:01:10.987Z</time>
      </trkpt>
      <trkpt lat="45.39187" lon="4.57679">
        <ele>1380.3</ele>
        <time>2026-08-18T13:01:12.974Z</time>
      </trkpt>
      <trkpt lat="45.39187" lon="4.57676">
        <ele>1380.5</ele>
        <time>2026-08-18T13:01:14.979Z</time>
      </trkpt>
      <trkpt lat="45.39186" lon="4.57673">
        <ele>1380.9</ele>
        <time>2026-08-18T13:01:16.973Z</time>
      </trkpt>
      <trkpt lat="45.39186" lon="4.57672">
        <ele>1380.6</ele>
        <time>2026-08-18T13:01:17.974Z</time>
      </trkpt>
      <trkpt lat="45.39186" lon="4.5767">
        <ele>1380.6</ele>
        <time>2026-08-18T13:01:18.976Z</time>
      </trkpt>
      <trkpt lat="45.39186" lon="4.57668">
        <ele>1380.7</ele>
        <time>2026-08-18T13:01:20.001Z</time>
      </trkpt>
      <trkpt lat="45.39185" lon="4.57666">
        <ele>1380.6</ele>
        <time>2026-08-18T13:01:21.974Z</time>
      </trkpt>
      <trkpt lat="45.39185" lon="4.57665">
        <ele>1381.8</ele>
        <time>2026-08-18T13:01:22.974Z</time>
      </trkpt>
      <trkpt lat="45.39185" lon="4.57663">
        <ele>1382.7</ele>
        <time>2026-08-18T13:01:23.993Z</time>
      </trkpt>
      <trkpt lat="45.39184" lon="4.57661">
        <ele>1382.7</ele>
        <time>2026-08-18T13:01:25.013Z</time>
      </trkpt>
      <trkpt lat="45.39183" lon="4.57659">
        <ele>1384.7</ele>
        <time>2026-08-18T13:01:26.973Z</time>
      </trkpt>
      <trkpt lat="45.39183" lon="4.57657">
        <ele>1385.5</ele>
        <time>2026-08-18T13:01:27.973Z</time>
      </trkpt>
      <trkpt lat="45.39182" lon="4.57656">
        <ele>1384.9</ele>
        <time>2026-08-18T13:01:28.973Z</time>
      </trkpt>
      <trkpt lat="45.39181" lon="4.57653">
        <ele>1386.1</ele>
        <time>2026-08-18T13:01:30.973Z</time>
      </trkpt>
      <trkpt lat="45.39181" lon="4.57652">
        <ele>1385.4</ele>
        <time>2026-08-18T13:01:31.981Z</time>
      </trkpt>
      <trkpt lat="45.3918" lon="4.57649">
        <ele>1386.2</ele>
        <time>2026-08-18T13:01:33.973Z</time>
      </trkpt>
      <trkpt lat="45.3918" lon="4.57646">
        <ele>1386.8</ele>
        <time>2026-08-18T13:01:35.974Z</time>
      </trkpt>
      <trkpt lat="45.39179" lon="4.57643">
        <ele>1387.7</ele>
        <time>2026-08-18T13:01:37.974Z</time>
      </trkpt>
      <trkpt lat="45.39178" lon="4.57642">
        <ele>1387.7</ele>
        <time>2026-08-18T13:01:38.974Z</time>
      </trkpt>
      <trkpt lat="45.39177" lon="4.57639">
        <ele>1387.9</ele>
        <time>2026-08-18T13:01:40.994Z</time>
      </trkpt>
      <trkpt lat="45.39176" lon="4.57636">
        <ele>1388.5</ele>
        <time>2026-08-18T13:01:42.974Z</time>
      </trkpt>
      <trkpt lat="45.39175" lon="4.57633">
        <ele>1388.8</ele>
        <time>2026-08-18T13:01:44.982Z</time>
      </trkpt>
      <trkpt lat="45.39174" lon="4.5763">
        <ele>1388.3</ele>
        <time>2026-08-18T13:01:46.973Z</time>
      </trkpt>
      <trkpt lat="45.39173" lon="4.57628">
        <ele>1388.8</ele>
        <time>2026-08-18T13:01:47.974Z</time>
      </trkpt>
      <trkpt lat="45.39173" lon="4.57627">
        <ele>1386.8</ele>
        <time>2026-08-18T13:01:48.983Z</time>
      </trkpt>
      <trkpt lat="45.39172" lon="4.57624">
        <ele>1386.6</ele>
        <time>2026-08-18T13:01:50.974Z</time>
      </trkpt>
      <trkpt lat="45.39171" lon="4.57622">
        <ele>1386.6</ele>
        <time>2026-08-18T13:01:51.998Z</time>
      </trkpt>
      <trkpt lat="45.39171" lon="4.57619">
        <ele>1386.5</ele>
        <time>2026-08-18T13:01:53.974Z</time>
      </trkpt>
      <trkpt lat="45.3917" lon="4.57617">
        <ele>1386.6</ele>
        <time>2026-08-18T13:01:54.974Z</time>
      </trkpt>
      <trkpt lat="45.3917" lon="4.57615">
        <ele>1386.6</ele>
        <time>2026-08-18T13:01:55.974Z</time>
      </trkpt>
      <trkpt lat="45.39169" lon="4.57613">
        <ele>1387</ele>
        <time>2026-08-18T13:01:57.973Z</time>
      </trkpt>
      <trkpt lat="45.39169" lon="4.57611">
        <ele>1386.2</ele>
        <time>2026-08-18T13:01:58.974Z</time>
      </trkpt>
      <trkpt lat="45.39168" lon="4.5761">
        <ele>1387.1</ele>
        <time>2026-08-18T13:01:59.974Z</time>
      </trkpt>
      <trkpt lat="45.39166" lon="4.57607">
        <ele>1385.7</ele>
        <time>2026-08-18T13:02:01.990Z</time>
      </trkpt>
      <trkpt lat="45.39165" lon="4.57603">
        <ele>1384.6</ele>
        <time>2026-08-18T13:02:03.973Z</time>
      </trkpt>
      <trkpt lat="45.39165" lon="4.57601">
        <ele>1383.7</ele>
        <time>2026-08-18T13:02:04.973Z</time>
      </trkpt>
      <trkpt lat="45.39164" lon="4.57599">
        <ele>1383.4</ele>
        <time>2026-08-18T13:02:05.973Z</time>
      </trkpt>
      <trkpt lat="45.39164" lon="4.57598">
        <ele>1383.6</ele>
        <time>2026-08-18T13:02:06.973Z</time>
      </trkpt>
      <trkpt lat="45.39163" lon="4.57596">
        <ele>1383.6</ele>
        <time>2026-08-18T13:02:07.973Z</time>
      </trkpt>
      <trkpt lat="45.39163" lon="4.57595">
        <ele>1382.6</ele>
        <time>2026-08-18T13:02:08.973Z</time>
      </trkpt>
      <trkpt lat="45.39163" lon="4.57593">
        <ele>1381.8</ele>
        <time>2026-08-18T13:02:09.976Z</time>
      </trkpt>
      <trkpt lat="45.39162" lon="4.5759">
        <ele>1382.1</ele>
        <time>2026-08-18T13:02:11.996Z</time>
      </trkpt>
      <trkpt lat="45.3916" lon="4.57587">
        <ele>1382.5</ele>
        <time>2026-08-18T13:02:13.973Z</time>
      </trkpt>
      <trkpt lat="45.3916" lon="4.57585">
        <ele>1382.2</ele>
        <time>2026-08-18T13:02:14.997Z</time>
      </trkpt>
      <trkpt lat="45.39159" lon="4.57582">
        <ele>1380.5</ele>
        <time>2026-08-18T13:02:16.973Z</time>
      </trkpt>
      <trkpt lat="45.39158" lon="4.57581">
        <ele>1380.9</ele>
        <time>2026-08-18T13:02:17.973Z</time>
      </trkpt>
      <trkpt lat="45.39157" lon="4.57578">
        <ele>1379.9</ele>
        <time>2026-08-18T13:02:19.973Z</time>
      </trkpt>
      <trkpt lat="45.39156" lon="4.57574">
        <ele>1379.5</ele>
        <time>2026-08-18T13:02:21.998Z</time>
      </trkpt>
      <trkpt lat="45.39156" lon="4.57572">
        <ele>1379.3</ele>
        <time>2026-08-18T13:02:23.957Z</time>
      </trkpt>
      <trkpt lat="45.39156" lon="4.5757">
        <ele>1376.9</ele>
        <time>2026-08-18T13:02:24.972Z</time>
      </trkpt>
      <trkpt lat="45.39155" lon="4.57569">
        <ele>1377.1</ele>
        <time>2026-08-18T13:02:25.972Z</time>
      </trkpt>
      <trkpt lat="45.39155" lon="4.57566">
        <ele>1377.4</ele>
        <time>2026-08-18T13:02:27.973Z</time>
      </trkpt>
      <trkpt lat="45.39154" lon="4.57564">
        <ele>1377.9</ele>
        <time>2026-08-18T13:02:29.973Z</time>
      </trkpt>
      <trkpt lat="45.39153" lon="4.57562">
        <ele>1377.7</ele>
        <time>2026-08-18T13:02:30.973Z</time>
      </trkpt>
      <trkpt lat="45.39152" lon="4.5756">
        <ele>1377.9</ele>
        <time>2026-08-18T13:02:32.973Z</time>
      </trkpt>
      <trkpt lat="45.39151" lon="4.57557">
        <ele>1379.3</ele>
        <time>2026-08-18T13:02:34.973Z</time>
      </trkpt>
      <trkpt lat="45.3915" lon="4.57556">
        <ele>1379.6</ele>
        <time>2026-08-18T13:02:35.973Z</time>
      </trkpt>
      <trkpt lat="45.39148" lon="4.57553">
        <ele>1378.6</ele>
        <time>2026-08-18T13:02:37.972Z</time>
      </trkpt>
      <trkpt lat="45.39148" lon="4.57552">
        <ele>1378.1</ele>
        <time>2026-08-18T13:02:38.972Z</time>
      </trkpt>
      <trkpt lat="45.39147" lon="4.5755">
        <ele>1379</ele>
        <time>2026-08-18T13:02:39.985Z</time>
      </trkpt>
      <trkpt lat="45.39146" lon="4.57548">
        <ele>1381</ele>
        <time>2026-08-18T13:02:41.973Z</time>
      </trkpt>
      <trkpt lat="45.39144" lon="4.57546">
        <ele>1381.4</ele>
        <time>2026-08-18T13:02:43.979Z</time>
      </trkpt>
      <trkpt lat="45.39142" lon="4.57543">
        <ele>1381.6</ele>
        <time>2026-08-18T13:02:45.973Z</time>
      </trkpt>
      <trkpt lat="45.3914" lon="4.57542">
        <ele>1380.7</ele>
        <time>2026-08-18T13:02:47.974Z</time>
      </trkpt>
      <trkpt lat="45.39139" lon="4.57542">
        <ele>1380.5</ele>
        <time>2026-08-18T13:02:49.000Z</time>
      </trkpt>
      <trkpt lat="45.39137" lon="4.5754">
        <ele>1380.6</ele>
        <time>2026-08-18T13:02:50.999Z</time>
      </trkpt>
      <trkpt lat="45.39137" lon="4.57537">
        <ele>1380.1</ele>
        <time>2026-08-18T13:02:52.994Z</time>
      </trkpt>
      <trkpt lat="45.39136" lon="4.57534">
        <ele>1380.2</ele>
        <time>2026-08-18T13:02:54.973Z</time>
      </trkpt>
      <trkpt lat="45.39136" lon="4.57531">
        <ele>1380.5</ele>
        <time>2026-08-18T13:02:56.973Z</time>
      </trkpt>
      <trkpt lat="45.39135" lon="4.57529">
        <ele>1380</ele>
        <time>2026-08-18T13:02:58.862Z</time>
      </trkpt>
      <trkpt lat="45.39135" lon="4.57527">
        <ele>1380.3</ele>
        <time>2026-08-18T13:02:59.973Z</time>
      </trkpt>
      <trkpt lat="45.39135" lon="4.57526">
        <ele>1380.5</ele>
        <time>2026-08-18T13:03:00.980Z</time>
      </trkpt>
      <trkpt lat="45.39134" lon="4.57524">
        <ele>1380.7</ele>
        <time>2026-08-18T13:03:02.973Z</time>
      </trkpt>
      <trkpt lat="45.39133" lon="4.57524">
        <ele>1380.8</ele>
        <time>2026-08-18T13:03:03.973Z</time>
      </trkpt>
      <trkpt lat="45.39132" lon="4.57524">
        <ele>1380.8</ele>
        <time>2026-08-18T13:03:04.974Z</time>
      </trkpt>
      <trkpt lat="45.39131" lon="4.57524">
        <ele>1381.3</ele>
        <time>2026-08-18T13:03:06.972Z</time>
      </trkpt>
      <trkpt lat="45.39129" lon="4.57524">
        <ele>1381</ele>
        <time>2026-08-18T13:03:08.973Z</time>
      </trkpt>
      <trkpt lat="45.39129" lon="4.57523">
        <ele>1381.3</ele>
        <time>2026-08-18T13:03:10.972Z</time>
      </trkpt>
      <trkpt lat="45.39129" lon="4.57523">
        <ele>1381.3</ele>
        <time>2026-08-18T13:03:11.973Z</time>
      </trkpt>
      <trkpt lat="45.39129" lon="4.57523">
        <ele>1381</ele>
        <time>2026-08-18T13:03:12.973Z</time>
      </trkpt>
      <trkpt lat="45.39129" lon="4.57524">
        <ele>1381.3</ele>
        <time>2026-08-18T13:03:13.989Z</time>
      </trkpt>
      <trkpt lat="45.39127" lon="4.57523">
        <ele>1380.4</ele>
        <time>2026-08-18T13:03:15.973Z</time>
      </trkpt>
      <trkpt lat="45.39125" lon="4.57523">
        <ele>1379.5</ele>
        <time>2026-08-18T13:03:17.983Z</time>
      </trkpt>
      <trkpt lat="45.39125" lon="4.57522">
        <ele>1378.7</ele>
        <time>2026-08-18T13:03:19.009Z</time>
      </trkpt>
      <trkpt lat="45.39123" lon="4.5752">
        <ele>1377.8</ele>
        <time>2026-08-18T13:03:20.973Z</time>
      </trkpt>
      <trkpt lat="45.39123" lon="4.5752">
        <ele>1378</ele>
        <time>2026-08-18T13:03:21.976Z</time>
      </trkpt>
      <trkpt lat="45.39122" lon="4.57518">
        <ele>1378.7</ele>
        <time>2026-08-18T13:03:23.972Z</time>
      </trkpt>
      <trkpt lat="45.39122" lon="4.57516">
        <ele>1379.4</ele>
        <time>2026-08-18T13:03:24.973Z</time>
      </trkpt>
      <trkpt lat="45.39124" lon="4.57513">
        <ele>1379.3</ele>
        <time>2026-08-18T13:03:26.973Z</time>
      </trkpt>
      <trkpt lat="45.39125" lon="4.57514">
        <ele>1379</ele>
        <time>2026-08-18T13:03:27.973Z</time>
      </trkpt>
      <trkpt lat="45.39126" lon="4.57515">
        <ele>1379</ele>
        <time>2026-08-18T13:03:28.973Z</time>
      </trkpt>
      <trkpt lat="45.39126" lon="4.57516">
        <ele>1379</ele>
        <time>2026-08-18T13:03:30.990Z</time>
      </trkpt>
      <trkpt lat="45.39126" lon="4.57516">
        <ele>1379</ele>
        <time>2026-08-18T13:03:32.973Z</time>
      </trkpt>
      <trkpt lat="45.39126" lon="4.57516">
        <ele>1378.9</ele>
        <time>2026-08-18T13:03:33.973Z</time>
      </trkpt>
      <trkpt lat="45.39126" lon="4.57516">
        <ele>1378.9</ele>
        <time>2026-08-18T13:03:35.060Z</time>
      </trkpt>
      <trkpt lat="45.39126" lon="4.57516">
        <ele>1378.9</ele>
        <time>2026-08-18T13:03:36.973Z</time>
      </trkpt>
      <trkpt lat="45.39126" lon="4.57516">
        <ele>1377.9</ele>
        <time>2026-08-18T13:03:37.987Z</time>
      </trkpt>
      <trkpt lat="45.39127" lon="4.57516">
        <ele>1377.2</ele>
        <time>2026-08-18T13:03:39.972Z</time>
      </trkpt>
      <trkpt lat="45.39126" lon="4.57517">
        <ele>1377.7</ele>
        <time>2026-08-18T13:03:41.956Z</time>
      </trkpt>
      <trkpt lat="45.39126" lon="4.57517">
        <ele>1377.7</ele>
        <time>2026-08-18T13:03:42.973Z</time>
      </trkpt>
      <trkpt lat="45.39127" lon="4.57517">
        <ele>1377.7</ele>
        <time>2026-08-18T13:03:44.972Z</time>
      </trkpt>
      <trkpt lat="45.39127" lon="4.57517">
        <ele>1377.7</ele>
        <time>2026-08-18T13:03:45.975Z</time>
      </trkpt>
      <trkpt lat="45.39127" lon="4.57517">
        <ele>1377.7</ele>
        <time>2026-08-18T13:03:47.973Z</time>
      </trkpt>
      <trkpt lat="45.39127" lon="4.57517">
        <ele>1377.7</ele>
        <time>2026-08-18T13:03:48.998Z</time>
      </trkpt>
      <trkpt lat="45.39127" lon="4.57517">
        <ele>1377.7</ele>
        <time>2026-08-18T13:03:51.034Z</time>
      </trkpt>
      <trkpt lat="45.39127" lon="4.57517">
        <ele>1377.7</ele>
        <time>2026-08-18T13:03:52.974Z</time>
      </trkpt>
      <trkpt lat="45.39127" lon="4.57517">
        <ele>1377.4</ele>
        <time>2026-08-18T13:03:54.972Z</time>
      </trkpt>
      <trkpt lat="45.39126" lon="4.57517">
        <ele>1377.4</ele>
        <time>2026-08-18T13:03:56.018Z</time>
      </trkpt>
      <trkpt lat="45.39127" lon="4.57516">
        <ele>1376.1</ele>
        <time>2026-08-18T13:03:57.920Z</time>
      </trkpt>
      <trkpt lat="45.39126" lon="4.57513">
        <ele>1375.3</ele>
        <time>2026-08-18T13:03:58.972Z</time>
      </trkpt>
      <trkpt lat="45.39125" lon="4.57511">
        <ele>1376.1</ele>
        <time>2026-08-18T13:03:59.973Z</time>
      </trkpt>
      <trkpt lat="45.39125" lon="4.5751">
        <ele>1375.4</ele>
        <time>2026-08-18T13:04:00.973Z</time>
      </trkpt>
      <trkpt lat="45.39126" lon="4.57507">
        <ele>1373.8</ele>
        <time>2026-08-18T13:04:02.973Z</time>
      </trkpt>
      <trkpt lat="45.39126" lon="4.57506">
        <ele>1372.9</ele>
        <time>2026-08-18T13:04:03.973Z</time>
      </trkpt>
      <trkpt lat="45.39126" lon="4.57505">
        <ele>1372.8</ele>
        <time>2026-08-18T13:04:04.973Z</time>
      </trkpt>
      <trkpt lat="45.39127" lon="4.57502">
        <ele>1372.5</ele>
        <time>2026-08-18T13:04:06.972Z</time>
      </trkpt>
      <trkpt lat="45.39127" lon="4.57501">
        <ele>1372.9</ele>
        <time>2026-08-18T13:04:07.973Z</time>
      </trkpt>
      <trkpt lat="45.39127" lon="4.57499">
        <ele>1372.8</ele>
        <time>2026-08-18T13:04:08.973Z</time>
      </trkpt>
      <trkpt lat="45.39127" lon="4.57498">
        <ele>1372.4</ele>
        <time>2026-08-18T13:04:09.975Z</time>
      </trkpt>
      <trkpt lat="45.39127" lon="4.57497">
        <ele>1371.9</ele>
        <time>2026-08-18T13:04:11.002Z</time>
      </trkpt>
      <trkpt lat="45.39128" lon="4.57494">
        <ele>1370.7</ele>
        <time>2026-08-18T13:04:12.973Z</time>
      </trkpt>
      <trkpt lat="45.39128" lon="4.57493">
        <ele>1370.3</ele>
        <time>2026-08-18T13:04:13.973Z</time>
      </trkpt>
      <trkpt lat="45.39129" lon="4.5749">
        <ele>1369.9</ele>
        <time>2026-08-18T13:04:15.973Z</time>
      </trkpt>
      <trkpt lat="45.3913" lon="4.57488">
        <ele>1369.6</ele>
        <time>2026-08-18T13:04:17.973Z</time>
      </trkpt>
      <trkpt lat="45.3913" lon="4.57487">
        <ele>1368.8</ele>
        <time>2026-08-18T13:04:18.989Z</time>
      </trkpt>
      <trkpt lat="45.39131" lon="4.57485">
        <ele>1369.2</ele>
        <time>2026-08-18T13:04:20.972Z</time>
      </trkpt>
      <trkpt lat="45.39131" lon="4.57484">
        <ele>1369.5</ele>
        <time>2026-08-18T13:04:21.973Z</time>
      </trkpt>
      <trkpt lat="45.39132" lon="4.57481">
        <ele>1369.2</ele>
        <time>2026-08-18T13:04:23.973Z</time>
      </trkpt>
      <trkpt lat="45.39132" lon="4.57479">
        <ele>1369</ele>
        <time>2026-08-18T13:04:24.973Z</time>
      </trkpt>
      <trkpt lat="45.39132" lon="4.57477">
        <ele>1368.8</ele>
        <time>2026-08-18T13:04:26.973Z</time>
      </trkpt>
      <trkpt lat="45.39133" lon="4.57476">
        <ele>1368.6</ele>
        <time>2026-08-18T13:04:27.973Z</time>
      </trkpt>
      <trkpt lat="45.39133" lon="4.57475">
        <ele>1368</ele>
        <time>2026-08-18T13:04:28.973Z</time>
      </trkpt>
      <trkpt lat="45.39134" lon="4.57472">
        <ele>1367.9</ele>
        <time>2026-08-18T13:04:30.934Z</time>
      </trkpt>
      <trkpt lat="45.39134" lon="4.5747">
        <ele>1368</ele>
        <time>2026-08-18T13:04:31.972Z</time>
      </trkpt>
      <trkpt lat="45.39135" lon="4.57467">
        <ele>1367.6</ele>
        <time>2026-08-18T13:04:33.973Z</time>
      </trkpt>
      <trkpt lat="45.39135" lon="4.57466">
        <ele>1367.5</ele>
        <time>2026-08-18T13:04:34.973Z</time>
      </trkpt>
      <trkpt lat="45.39136" lon="4.57465">
        <ele>1367.6</ele>
        <time>2026-08-18T13:04:35.989Z</time>
      </trkpt>
      <trkpt lat="45.39137" lon="4.57462">
        <ele>1367.2</ele>
        <time>2026-08-18T13:04:37.894Z</time>
      </trkpt>
      <trkpt lat="45.39137" lon="4.57461">
        <ele>1366.5</ele>
        <time>2026-08-18T13:04:38.973Z</time>
      </trkpt>
      <trkpt lat="45.39138" lon="4.57459">
        <ele>1366.6</ele>
        <time>2026-08-18T13:04:39.983Z</time>
      </trkpt>
      <trkpt lat="45.39138" lon="4.57457">
        <ele>1365.8</ele>
        <time>2026-08-18T13:04:41.972Z</time>
      </trkpt>
      <trkpt lat="45.39138" lon="4.57455">
        <ele>1365.3</ele>
        <time>2026-08-18T13:04:42.973Z</time>
      </trkpt>
      <trkpt lat="45.39137" lon="4.57454">
        <ele>1365.3</ele>
        <time>2026-08-18T13:04:43.976Z</time>
      </trkpt>
      <trkpt lat="45.39137" lon="4.57451">
        <ele>1364.9</ele>
        <time>2026-08-18T13:04:45.920Z</time>
      </trkpt>
      <trkpt lat="45.39137" lon="4.5745">
        <ele>1363.7</ele>
        <time>2026-08-18T13:04:46.972Z</time>
      </trkpt>
      <trkpt lat="45.39136" lon="4.57449">
        <ele>1363.9</ele>
        <time>2026-08-18T13:04:47.972Z</time>
      </trkpt>
      <trkpt lat="45.39136" lon="4.57448">
        <ele>1362.7</ele>
        <time>2026-08-18T13:04:48.972Z</time>
      </trkpt>
      <trkpt lat="45.39135" lon="4.57446">
        <ele>1362.6</ele>
        <time>2026-08-18T13:04:49.973Z</time>
      </trkpt>
      <trkpt lat="45.39135" lon="4.57445">
        <ele>1362.6</ele>
        <time>2026-08-18T13:04:50.977Z</time>
      </trkpt>
      <trkpt lat="45.39134" lon="4.57444">
        <ele>1363.1</ele>
        <time>2026-08-18T13:04:52.003Z</time>
      </trkpt>
      <trkpt lat="45.39132" lon="4.57442">
        <ele>1363.2</ele>
        <time>2026-08-18T13:04:53.973Z</time>
      </trkpt>
      <trkpt lat="45.39131" lon="4.57441">
        <ele>1362.9</ele>
        <time>2026-08-18T13:04:54.973Z</time>
      </trkpt>
      <trkpt lat="45.39129" lon="4.5744">
        <ele>1362.7</ele>
        <time>2026-08-18T13:04:56.972Z</time>
      </trkpt>
      <trkpt lat="45.39127" lon="4.57438">
        <ele>1363.6</ele>
        <time>2026-08-18T13:04:58.972Z</time>
      </trkpt>
      <trkpt lat="45.39126" lon="4.57437">
        <ele>1363.5</ele>
        <time>2026-08-18T13:04:59.972Z</time>
      </trkpt>
      <trkpt lat="45.39124" lon="4.57435">
        <ele>1363</ele>
        <time>2026-08-18T13:05:01.973Z</time>
      </trkpt>
      <trkpt lat="45.39122" lon="4.57433">
        <ele>1362.7</ele>
        <time>2026-08-18T13:05:03.972Z</time>
      </trkpt>
      <trkpt lat="45.39122" lon="4.57432">
        <ele>1362.4</ele>
        <time>2026-08-18T13:05:04.972Z</time>
      </trkpt>
      <trkpt lat="45.39121" lon="4.5743">
        <ele>1362.1</ele>
        <time>2026-08-18T13:05:05.972Z</time>
      </trkpt>
      <trkpt lat="45.3912" lon="4.57429">
        <ele>1361.7</ele>
        <time>2026-08-18T13:05:06.973Z</time>
      </trkpt>
      <trkpt lat="45.39119" lon="4.57427">
        <ele>1362.1</ele>
        <time>2026-08-18T13:05:08.972Z</time>
      </trkpt>
      <trkpt lat="45.39118" lon="4.57426">
        <ele>1362.3</ele>
        <time>2026-08-18T13:05:09.973Z</time>
      </trkpt>
      <trkpt lat="45.39117" lon="4.57424">
        <ele>1362.4</ele>
        <time>2026-08-18T13:05:10.981Z</time>
      </trkpt>
      <trkpt lat="45.39117" lon="4.57423">
        <ele>1362.4</ele>
        <time>2026-08-18T13:05:11.983Z</time>
      </trkpt>
      <trkpt lat="45.39115" lon="4.5742">
        <ele>1362.6</ele>
        <time>2026-08-18T13:05:13.941Z</time>
      </trkpt>
      <trkpt lat="45.39114" lon="4.57419">
        <ele>1362.5</ele>
        <time>2026-08-18T13:05:14.975Z</time>
      </trkpt>
      <trkpt lat="45.39113" lon="4.57417">
        <ele>1361.8</ele>
        <time>2026-08-18T13:05:16.973Z</time>
      </trkpt>
      <trkpt lat="45.39112" lon="4.57416">
        <ele>1361.6</ele>
        <time>2026-08-18T13:05:17.973Z</time>
      </trkpt>
      <trkpt lat="45.39111" lon="4.57415">
        <ele>1362.7</ele>
        <time>2026-08-18T13:05:18.973Z</time>
      </trkpt>
      <trkpt lat="45.39111" lon="4.57414">
        <ele>1362.5</ele>
        <time>2026-08-18T13:05:19.973Z</time>
      </trkpt>
      <trkpt lat="45.39109" lon="4.57411">
        <ele>1362.1</ele>
        <time>2026-08-18T13:05:21.972Z</time>
      </trkpt>
      <trkpt lat="45.39108" lon="4.57409">
        <ele>1362.1</ele>
        <time>2026-08-18T13:05:23.041Z</time>
      </trkpt>
      <trkpt lat="45.39108" lon="4.57407">
        <ele>1361</ele>
        <time>2026-08-18T13:05:24.973Z</time>
      </trkpt>
      <trkpt lat="45.39107" lon="4.57406">
        <ele>1360.8</ele>
        <time>2026-08-18T13:05:26.042Z</time>
      </trkpt>
      <trkpt lat="45.39107" lon="4.57404">
        <ele>1360.7</ele>
        <time>2026-08-18T13:05:27.972Z</time>
      </trkpt>
      <trkpt lat="45.39107" lon="4.57403">
        <ele>1361.4</ele>
        <time>2026-08-18T13:05:28.972Z</time>
      </trkpt>
      <trkpt lat="45.39106" lon="4.57401">
        <ele>1362</ele>
        <time>2026-08-18T13:05:30.950Z</time>
      </trkpt>
      <trkpt lat="45.39104" lon="4.57398">
        <ele>1361.8</ele>
        <time>2026-08-18T13:05:32.973Z</time>
      </trkpt>
      <trkpt lat="45.39104" lon="4.57398">
        <ele>1362.1</ele>
        <time>2026-08-18T13:05:34.973Z</time>
      </trkpt>
      <trkpt lat="45.39104" lon="4.57398">
        <ele>1362.1</ele>
        <time>2026-08-18T13:05:36.999Z</time>
      </trkpt>
      <trkpt lat="45.39104" lon="4.57398">
        <ele>1363</ele>
        <time>2026-08-18T13:05:38.973Z</time>
      </trkpt>
      <trkpt lat="45.39104" lon="4.57399">
        <ele>1363.4</ele>
        <time>2026-08-18T13:05:39.973Z</time>
      </trkpt>
      <trkpt lat="45.39104" lon="4.57399">
        <ele>1363.4</ele>
        <time>2026-08-18T13:05:41.002Z</time>
      </trkpt>
      <trkpt lat="45.39106" lon="4.57402">
        <ele>1362.8</ele>
        <time>2026-08-18T13:05:42.972Z</time>
      </trkpt>
      <trkpt lat="45.39106" lon="4.57402">
        <ele>1362.2</ele>
        <time>2026-08-18T13:05:43.973Z</time>
      </trkpt>
      <trkpt lat="45.39106" lon="4.57403">
        <ele>1362.1</ele>
        <time>2026-08-18T13:05:44.983Z</time>
      </trkpt>
      <trkpt lat="45.39106" lon="4.57404">
        <ele>1362.1</ele>
        <time>2026-08-18T13:05:46.973Z</time>
      </trkpt>
      <trkpt lat="45.39106" lon="4.57404">
        <ele>1362.1</ele>
        <time>2026-08-18T13:05:48.978Z</time>
      </trkpt>
      <trkpt lat="45.39105" lon="4.57405">
        <ele>1362.1</ele>
        <time>2026-08-18T13:05:50.972Z</time>
      </trkpt>
      <trkpt lat="45.39105" lon="4.57405">
        <ele>1361.5</ele>
        <time>2026-08-18T13:05:51.972Z</time>
      </trkpt>
      <trkpt lat="45.39106" lon="4.57404">
        <ele>1359.8</ele>
        <time>2026-08-18T13:05:52.973Z</time>
      </trkpt>
      <trkpt lat="45.39106" lon="4.57403">
        <ele>1359.2</ele>
        <time>2026-08-18T13:05:53.998Z</time>
      </trkpt>
      <trkpt lat="45.39107" lon="4.57401">
        <ele>1358.6</ele>
        <time>2026-08-18T13:05:55.062Z</time>
      </trkpt>
      <trkpt lat="45.39107" lon="4.57398">
        <ele>1358.9</ele>
        <time>2026-08-18T13:05:56.089Z</time>
      </trkpt>
      <trkpt lat="45.39107" lon="4.57392">
        <ele>1359.2</ele>
        <time>2026-08-18T13:05:57.973Z</time>
      </trkpt>
      <trkpt lat="45.39107" lon="4.5739">
        <ele>1359.3</ele>
        <time>2026-08-18T13:05:58.973Z</time>
      </trkpt>
      <trkpt lat="45.39106" lon="4.57387">
        <ele>1359.2</ele>
        <time>2026-08-18T13:06:00.999Z</time>
      </trkpt>
      <trkpt lat="45.39102" lon="4.57385">
        <ele>1359.9</ele>
        <time>2026-08-18T13:06:02.973Z</time>
      </trkpt>
      <trkpt lat="45.39099" lon="4.57384">
        <ele>1360.1</ele>
        <time>2026-08-18T13:06:04.971Z</time>
      </trkpt>
      <trkpt lat="45.39098" lon="4.57382">
        <ele>1359.8</ele>
        <time>2026-08-18T13:06:05.972Z</time>
      </trkpt>
      <trkpt lat="45.39097" lon="4.57381">
        <ele>1359.5</ele>
        <time>2026-08-18T13:06:06.973Z</time>
      </trkpt>
      <trkpt lat="45.39096" lon="4.5738">
        <ele>1359.5</ele>
        <time>2026-08-18T13:06:07.973Z</time>
      </trkpt>
      <trkpt lat="45.39096" lon="4.57379">
        <ele>1359.5</ele>
        <time>2026-08-18T13:06:08.973Z</time>
      </trkpt>
      <trkpt lat="45.39095" lon="4.57378">
        <ele>1360.6</ele>
        <time>2026-08-18T13:06:10.011Z</time>
      </trkpt>
      <trkpt lat="45.39095" lon="4.5738">
        <ele>1360.6</ele>
        <time>2026-08-18T13:06:11.971Z</time>
      </trkpt>
      <trkpt lat="45.39095" lon="4.5738">
        <ele>1360.6</ele>
        <time>2026-08-18T13:06:12.978Z</time>
      </trkpt>
      <trkpt lat="45.39096" lon="4.57381">
        <ele>1360.6</ele>
        <time>2026-08-18T13:06:15.049Z</time>
      </trkpt>
      <trkpt lat="45.39096" lon="4.57381">
        <ele>1360.6</ele>
        <time>2026-08-18T13:06:16.058Z</time>
      </trkpt>
      <trkpt lat="45.39096" lon="4.57382">
        <ele>1360.6</ele>
        <time>2026-08-18T13:06:17.973Z</time>
      </trkpt>
      <trkpt lat="45.39096" lon="4.57382">
        <ele>1360.6</ele>
        <time>2026-08-18T13:06:18.973Z</time>
      </trkpt>
      <trkpt lat="45.39096" lon="4.57382">
        <ele>1360.6</ele>
        <time>2026-08-18T13:06:19.973Z</time>
      </trkpt>
      <trkpt lat="45.39095" lon="4.57382">
        <ele>1360.6</ele>
        <time>2026-08-18T13:06:20.973Z</time>
      </trkpt>
      <trkpt lat="45.39095" lon="4.57382">
        <ele>1360.6</ele>
        <time>2026-08-18T13:06:21.992Z</time>
      </trkpt>
      <trkpt lat="45.39095" lon="4.57382">
        <ele>1360.9</ele>
        <time>2026-08-18T13:06:23.973Z</time>
      </trkpt>
      <trkpt lat="45.39095" lon="4.57383">
        <ele>1361.3</ele>
        <time>2026-08-18T13:06:24.973Z</time>
      </trkpt>
      <trkpt lat="45.39095" lon="4.57383">
        <ele>1360.7</ele>
        <time>2026-08-18T13:06:25.984Z</time>
      </trkpt>
      <trkpt lat="45.39093" lon="4.57386">
        <ele>1360</ele>
        <time>2026-08-18T13:06:27.973Z</time>
      </trkpt>
      <trkpt lat="45.39091" lon="4.57389">
        <ele>1360.5</ele>
        <time>2026-08-18T13:06:29.979Z</time>
      </trkpt>
      <trkpt lat="45.39087" lon="4.5739">
        <ele>1360.7</ele>
        <time>2026-08-18T13:06:32.016Z</time>
      </trkpt>
      <trkpt lat="45.39084" lon="4.57391">
        <ele>1359.7</ele>
        <time>2026-08-18T13:06:33.973Z</time>
      </trkpt>
      <trkpt lat="45.39083" lon="4.57392">
        <ele>1359.5</ele>
        <time>2026-08-18T13:06:34.973Z</time>
      </trkpt>
      <trkpt lat="45.39082" lon="4.57392">
        <ele>1359.2</ele>
        <time>2026-08-18T13:06:35.973Z</time>
      </trkpt>
      <trkpt lat="45.39079" lon="4.57393">
        <ele>1358.9</ele>
        <time>2026-08-18T13:06:37.973Z</time>
      </trkpt>
      <trkpt lat="45.39078" lon="4.57393">
        <ele>1358.9</ele>
        <time>2026-08-18T13:06:38.977Z</time>
      </trkpt>
      <trkpt lat="45.39076" lon="4.57394">
        <ele>1359.8</ele>
        <time>2026-08-18T13:06:40.973Z</time>
      </trkpt>
      <trkpt lat="45.39075" lon="4.57394">
        <ele>1359.6</ele>
        <time>2026-08-18T13:06:41.973Z</time>
      </trkpt>
      <trkpt lat="45.39074" lon="4.57395">
        <ele>1359.8</ele>
        <time>2026-08-18T13:06:42.973Z</time>
      </trkpt>
      <trkpt lat="45.39073" lon="4.57395">
        <ele>1359.9</ele>
        <time>2026-08-18T13:06:43.973Z</time>
      </trkpt>
      <trkpt lat="45.3907" lon="4.57395">
        <ele>1360.2</ele>
        <time>2026-08-18T13:06:45.972Z</time>
      </trkpt>
      <trkpt lat="45.39069" lon="4.57395">
        <ele>1360.4</ele>
        <time>2026-08-18T13:06:46.972Z</time>
      </trkpt>
      <trkpt lat="45.39068" lon="4.57396">
        <ele>1360.1</ele>
        <time>2026-08-18T13:06:48.973Z</time>
      </trkpt>
      <trkpt lat="45.39066" lon="4.57396">
        <ele>1360</ele>
        <time>2026-08-18T13:06:50.974Z</time>
      </trkpt>
      <trkpt lat="45.39064" lon="4.57397">
        <ele>1360.1</ele>
        <time>2026-08-18T13:06:52.878Z</time>
      </trkpt>
      <trkpt lat="45.39063" lon="4.57397">
        <ele>1360.2</ele>
        <time>2026-08-18T13:06:53.973Z</time>
      </trkpt>
      <trkpt lat="45.39062" lon="4.57398">
        <ele>1360.2</ele>
        <time>2026-08-18T13:06:54.973Z</time>
      </trkpt>
      <trkpt lat="45.39061" lon="4.57398">
        <ele>1360.3</ele>
        <time>2026-08-18T13:06:55.973Z</time>
      </trkpt>
      <trkpt lat="45.39059" lon="4.57399">
        <ele>1360</ele>
        <time>2026-08-18T13:06:57.973Z</time>
      </trkpt>
      <trkpt lat="45.39058" lon="4.574">
        <ele>1360.1</ele>
        <time>2026-08-18T13:06:59.973Z</time>
      </trkpt>
      <trkpt lat="45.39056" lon="4.57401">
        <ele>1360.4</ele>
        <time>2026-08-18T13:07:01.973Z</time>
      </trkpt>
      <trkpt lat="45.39054" lon="4.57402">
        <ele>1360.3</ele>
        <time>2026-08-18T13:07:03.982Z</time>
      </trkpt>
      <trkpt lat="45.39052" lon="4.57401">
        <ele>1360.2</ele>
        <time>2026-08-18T13:07:05.973Z</time>
      </trkpt>
      <trkpt lat="45.39049" lon="4.574">
        <ele>1359.8</ele>
        <time>2026-08-18T13:07:07.975Z</time>
      </trkpt>
      <trkpt lat="45.39048" lon="4.57398">
        <ele>1359.9</ele>
        <time>2026-08-18T13:07:09.972Z</time>
      </trkpt>
      <trkpt lat="45.39047" lon="4.57397">
        <ele>1359.8</ele>
        <time>2026-08-18T13:07:10.973Z</time>
      </trkpt>
      <trkpt lat="45.39046" lon="4.57395">
        <ele>1360.1</ele>
        <time>2026-08-18T13:07:12.972Z</time>
      </trkpt>
      <trkpt lat="45.39045" lon="4.57395">
        <ele>1359.9</ele>
        <time>2026-08-18T13:07:13.973Z</time>
      </trkpt>
      <trkpt lat="45.39044" lon="4.57394">
        <ele>1359.8</ele>
        <time>2026-08-18T13:07:15.878Z</time>
      </trkpt>
      <trkpt lat="45.39044" lon="4.57394">
        <ele>1360</ele>
        <time>2026-08-18T13:07:16.989Z</time>
      </trkpt>
      <trkpt lat="45.39042" lon="4.57394">
        <ele>1359.7</ele>
        <time>2026-08-18T13:07:18.941Z</time>
      </trkpt>
      <trkpt lat="45.39041" lon="4.57394">
        <ele>1359.7</ele>
        <time>2026-08-18T13:07:19.972Z</time>
      </trkpt>
      <trkpt lat="45.3904" lon="4.57394">
        <ele>1359.9</ele>
        <time>2026-08-18T13:07:20.983Z</time>
      </trkpt>
      <trkpt lat="45.39039" lon="4.57395">
        <ele>1359.5</ele>
        <time>2026-08-18T13:07:22.973Z</time>
      </trkpt>
      <trkpt lat="45.39038" lon="4.57395">
        <ele>1359.6</ele>
        <time>2026-08-18T13:07:23.973Z</time>
      </trkpt>
      <trkpt lat="45.39037" lon="4.57396">
        <ele>1359.6</ele>
        <time>2026-08-18T13:07:24.979Z</time>
      </trkpt>
      <trkpt lat="45.39035" lon="4.57397">
        <ele>1360</ele>
        <time>2026-08-18T13:07:26.957Z</time>
      </trkpt>
      <trkpt lat="45.39034" lon="4.57397">
        <ele>1359.6</ele>
        <time>2026-08-18T13:07:27.973Z</time>
      </trkpt>
      <trkpt lat="45.39033" lon="4.57398">
        <ele>1359.6</ele>
        <time>2026-08-18T13:07:28.973Z</time>
      </trkpt>
      <trkpt lat="45.39032" lon="4.57399">
        <ele>1360</ele>
        <time>2026-08-18T13:07:30.873Z</time>
      </trkpt>
      <trkpt lat="45.3903" lon="4.57399">
        <ele>1357.7</ele>
        <time>2026-08-18T13:07:32.973Z</time>
      </trkpt>
      <trkpt lat="45.39029" lon="4.57399">
        <ele>1357.8</ele>
        <time>2026-08-18T13:07:33.990Z</time>
      </trkpt>
      <trkpt lat="45.39028" lon="4.57398">
        <ele>1358.3</ele>
        <time>2026-08-18T13:07:35.972Z</time>
      </trkpt>
      <trkpt lat="45.39028" lon="4.57397">
        <ele>1358.3</ele>
        <time>2026-08-18T13:07:36.972Z</time>
      </trkpt>
      <trkpt lat="45.39027" lon="4.57396">
        <ele>1358.5</ele>
        <time>2026-08-18T13:07:37.972Z</time>
      </trkpt>
      <trkpt lat="45.39027" lon="4.57396">
        <ele>1358.5</ele>
        <time>2026-08-18T13:07:38.972Z</time>
      </trkpt>
      <trkpt lat="45.39026" lon="4.57394">
        <ele>1357.4</ele>
        <time>2026-08-18T13:07:40.972Z</time>
      </trkpt>
      <trkpt lat="45.39026" lon="4.57393">
        <ele>1357.6</ele>
        <time>2026-08-18T13:07:41.977Z</time>
      </trkpt>
      <trkpt lat="45.39026" lon="4.57392">
        <ele>1357.7</ele>
        <time>2026-08-18T13:07:43.005Z</time>
      </trkpt>
      <trkpt lat="45.39026" lon="4.57389">
        <ele>1357.4</ele>
        <time>2026-08-18T13:07:44.972Z</time>
      </trkpt>
      <trkpt lat="45.39027" lon="4.57388">
        <ele>1357.8</ele>
        <time>2026-08-18T13:07:45.973Z</time>
      </trkpt>
      <trkpt lat="45.39027" lon="4.57384">
        <ele>1359.5</ele>
        <time>2026-08-18T13:07:47.973Z</time>
      </trkpt>
      <trkpt lat="45.39026" lon="4.57381">
        <ele>1360.3</ele>
        <time>2026-08-18T13:07:49.973Z</time>
      </trkpt>
      <trkpt lat="45.39026" lon="4.57379">
        <ele>1360.3</ele>
        <time>2026-08-18T13:07:50.993Z</time>
      </trkpt>
      <trkpt lat="45.39025" lon="4.57376">
        <ele>1360.7</ele>
        <time>2026-08-18T13:07:52.972Z</time>
      </trkpt>
      <trkpt lat="45.39025" lon="4.57375">
        <ele>1360.5</ele>
        <time>2026-08-18T13:07:53.973Z</time>
      </trkpt>
      <trkpt lat="45.39025" lon="4.57373">
        <ele>1360.2</ele>
        <time>2026-08-18T13:07:54.973Z</time>
      </trkpt>
      <trkpt lat="45.39024" lon="4.57372">
        <ele>1360.2</ele>
        <time>2026-08-18T13:07:55.973Z</time>
      </trkpt>
      <trkpt lat="45.39025" lon="4.5737">
        <ele>1360</ele>
        <time>2026-08-18T13:07:57.973Z</time>
      </trkpt>
      <trkpt lat="45.39025" lon="4.57369">
        <ele>1359.8</ele>
        <time>2026-08-18T13:07:58.973Z</time>
      </trkpt>
      <trkpt lat="45.39025" lon="4.57367">
        <ele>1359.1</ele>
        <time>2026-08-18T13:07:59.973Z</time>
      </trkpt>
      <trkpt lat="45.39025" lon="4.57366">
        <ele>1358.5</ele>
        <time>2026-08-18T13:08:00.973Z</time>
      </trkpt>
      <trkpt lat="45.39025" lon="4.57363">
        <ele>1358.2</ele>
        <time>2026-08-18T13:08:02.973Z</time>
      </trkpt>
      <trkpt lat="45.39025" lon="4.57362">
        <ele>1358.4</ele>
        <time>2026-08-18T13:08:03.973Z</time>
      </trkpt>
      <trkpt lat="45.39026" lon="4.57361">
        <ele>1359.2</ele>
        <time>2026-08-18T13:08:04.973Z</time>
      </trkpt>
      <trkpt lat="45.39026" lon="4.5736">
        <ele>1359.1</ele>
        <time>2026-08-18T13:08:05.973Z</time>
      </trkpt>
      <trkpt lat="45.39027" lon="4.57359">
        <ele>1358.4</ele>
        <time>2026-08-18T13:08:06.973Z</time>
      </trkpt>
      <trkpt lat="45.39028" lon="4.5736">
        <ele>1357.9</ele>
        <time>2026-08-18T13:08:07.973Z</time>
      </trkpt>
      <trkpt lat="45.39029" lon="4.5736">
        <ele>1357.7</ele>
        <time>2026-08-18T13:08:09.972Z</time>
      </trkpt>
      <trkpt lat="45.39029" lon="4.5736">
        <ele>1357.6</ele>
        <time>2026-08-18T13:08:10.972Z</time>
      </trkpt>
      <trkpt lat="45.39029" lon="4.57361">
        <ele>1357.6</ele>
        <time>2026-08-18T13:08:11.987Z</time>
      </trkpt>
      <trkpt lat="45.39029" lon="4.57361">
        <ele>1357.8</ele>
        <time>2026-08-18T13:08:13.971Z</time>
      </trkpt>
      <trkpt lat="45.39029" lon="4.57361">
        <ele>1358</ele>
        <time>2026-08-18T13:08:14.972Z</time>
      </trkpt>
      <trkpt lat="45.39029" lon="4.57361">
        <ele>1357.6</ele>
        <time>2026-08-18T13:08:15.979Z</time>
      </trkpt>
      <trkpt lat="45.39028" lon="4.57365">
        <ele>1356.8</ele>
        <time>2026-08-18T13:08:17.971Z</time>
      </trkpt>
      <trkpt lat="45.39027" lon="4.57369">
        <ele>1356.8</ele>
        <time>2026-08-18T13:08:19.974Z</time>
      </trkpt>
      <trkpt lat="45.39028" lon="4.57371">
        <ele>1357.2</ele>
        <time>2026-08-18T13:08:21.971Z</time>
      </trkpt>
      <trkpt lat="45.39029" lon="4.57373">
        <ele>1357.5</ele>
        <time>2026-08-18T13:08:23.972Z</time>
      </trkpt>
      <trkpt lat="45.3903" lon="4.57373">
        <ele>1357.5</ele>
        <time>2026-08-18T13:08:25.972Z</time>
      </trkpt>
      <trkpt lat="45.3903" lon="4.57373">
        <ele>1357.5</ele>
        <time>2026-08-18T13:08:26.972Z</time>
      </trkpt>
      <trkpt lat="45.39029" lon="4.57373">
        <ele>1357.5</ele>
        <time>2026-08-18T13:08:27.972Z</time>
      </trkpt>
      <trkpt lat="45.3903" lon="4.57373">
        <ele>1357.5</ele>
        <time>2026-08-18T13:08:29.972Z</time>
      </trkpt>
      <trkpt lat="45.3903" lon="4.57373">
        <ele>1357.5</ele>
        <time>2026-08-18T13:08:30.972Z</time>
      </trkpt>
      <trkpt lat="45.3903" lon="4.57373">
        <ele>1357.5</ele>
        <time>2026-08-18T13:08:32.982Z</time>
      </trkpt>
      <trkpt lat="45.3903" lon="4.57373">
        <ele>1357.5</ele>
        <time>2026-08-18T13:08:34.972Z</time>
      </trkpt>
      <trkpt lat="45.3903" lon="4.57373">
        <ele>1357.5</ele>
        <time>2026-08-18T13:08:36.975Z</time>
      </trkpt>
      <trkpt lat="45.3903" lon="4.57373">
        <ele>1357.5</ele>
        <time>2026-08-18T13:08:38.971Z</time>
      </trkpt>
      <trkpt lat="45.3903" lon="4.57373">
        <ele>1357.5</ele>
        <time>2026-08-18T13:08:39.971Z</time>
      </trkpt>
      <trkpt lat="45.3903" lon="4.57373">
        <ele>1357.6</ele>
        <time>2026-08-18T13:08:40.972Z</time>
      </trkpt>
      <trkpt lat="45.3903" lon="4.57373">
        <ele>1357.6</ele>
        <time>2026-08-18T13:08:42.971Z</time>
      </trkpt>
      <trkpt lat="45.3903" lon="4.57373">
        <ele>1357.6</ele>
        <time>2026-08-18T13:08:43.972Z</time>
      </trkpt>
      <trkpt lat="45.3903" lon="4.57373">
        <ele>1357.6</ele>
        <time>2026-08-18T13:08:44.972Z</time>
      </trkpt>
      <trkpt lat="45.3903" lon="4.57373">
        <ele>1357.6</ele>
        <time>2026-08-18T13:08:45.989Z</time>
      </trkpt>
      <trkpt lat="45.3903" lon="4.57373">
        <ele>1357.6</ele>
        <time>2026-08-18T13:08:47.015Z</time>
      </trkpt>
      <trkpt lat="45.3903" lon="4.57373">
        <ele>1357.6</ele>
        <time>2026-08-18T13:08:48.972Z</time>
      </trkpt>
      <trkpt lat="45.3903" lon="4.57373">
        <ele>1357.6</ele>
        <time>2026-08-18T13:08:49.983Z</time>
      </trkpt>
      <trkpt lat="45.3903" lon="4.57373">
        <ele>1357.6</ele>
        <time>2026-08-18T13:08:51.972Z</time>
      </trkpt>
      <trkpt lat="45.3903" lon="4.57374">
        <ele>1357.6</ele>
        <time>2026-08-18T13:08:52.972Z</time>
      </trkpt>
      <trkpt lat="45.3903" lon="4.57374">
        <ele>1357.6</ele>
        <time>2026-08-18T13:08:53.977Z</time>
      </trkpt>
      <trkpt lat="45.3903" lon="4.57374">
        <ele>1357.6</ele>
        <time>2026-08-18T13:08:55.972Z</time>
      </trkpt>
      <trkpt lat="45.3903" lon="4.57374">
        <ele>1357.6</ele>
        <time>2026-08-18T13:08:56.972Z</time>
      </trkpt>
      <trkpt lat="45.3903" lon="4.57374">
        <ele>1357.6</ele>
        <time>2026-08-18T13:08:58.971Z</time>
      </trkpt>
      <trkpt lat="45.3903" lon="4.57374">
        <ele>1357.6</ele>
        <time>2026-08-18T13:08:59.972Z</time>
      </trkpt>
      <trkpt lat="45.3903" lon="4.57374">
        <ele>1357.6</ele>
        <time>2026-08-18T13:09:00.972Z</time>
      </trkpt>
      <trkpt lat="45.3903" lon="4.57374">
        <ele>1357.6</ele>
        <time>2026-08-18T13:09:02.970Z</time>
      </trkpt>
      <trkpt lat="45.3903" lon="4.57374">
        <ele>1357.4</ele>
        <time>2026-08-18T13:09:03.972Z</time>
      </trkpt>
      <trkpt lat="45.3903" lon="4.57374">
        <ele>1357.4</ele>
        <time>2026-08-18T13:09:04.972Z</time>
      </trkpt>
      <trkpt lat="45.3903" lon="4.57374">
        <ele>1357.4</ele>
        <time>2026-08-18T13:09:05.972Z</time>
      </trkpt>
      <trkpt lat="45.3903" lon="4.57374">
        <ele>1357.4</ele>
        <time>2026-08-18T13:09:06.984Z</time>
      </trkpt>
      <trkpt lat="45.3903" lon="4.57374">
        <ele>1357.4</ele>
        <time>2026-08-18T13:09:08.972Z</time>
      </trkpt>
      <trkpt lat="45.3903" lon="4.57374">
        <ele>1357.4</ele>
        <time>2026-08-18T13:09:09.972Z</time>
      </trkpt>
      <trkpt lat="45.3903" lon="4.57374">
        <ele>1357.4</ele>
        <time>2026-08-18T13:09:10.978Z</time>
      </trkpt>
      <trkpt lat="45.3903" lon="4.57374">
        <ele>1357.3</ele>
        <time>2026-08-18T13:09:12.971Z</time>
      </trkpt>
      <trkpt lat="45.3903" lon="4.57375">
        <ele>1356.8</ele>
        <time>2026-08-18T13:09:13.971Z</time>
      </trkpt>
      <trkpt lat="45.3903" lon="4.57376">
        <ele>1356.9</ele>
        <time>2026-08-18T13:09:14.971Z</time>
      </trkpt>
      <trkpt lat="45.3903" lon="4.57376">
        <ele>1356.8</ele>
        <time>2026-08-18T13:09:15.972Z</time>
      </trkpt>
      <trkpt lat="45.3903" lon="4.57376">
        <ele>1357</ele>
        <time>2026-08-18T13:09:16.972Z</time>
      </trkpt>
      <trkpt lat="45.3903" lon="4.57376">
        <ele>1356.8</ele>
        <time>2026-08-18T13:09:17.972Z</time>
      </trkpt>
      <trkpt lat="45.3903" lon="4.57376">
        <ele>1356.7</ele>
        <time>2026-08-18T13:09:18.972Z</time>
      </trkpt>
      <trkpt lat="45.3903" lon="4.57377">
        <ele>1356.5</ele>
        <time>2026-08-18T13:09:20.971Z</time>
      </trkpt>
      <trkpt lat="45.3903" lon="4.57377">
        <ele>1356.3</ele>
        <time>2026-08-18T13:09:21.972Z</time>
      </trkpt>
      <trkpt lat="45.3903" lon="4.57377">
        <ele>1356.1</ele>
        <time>2026-08-18T13:09:23.985Z</time>
      </trkpt>
      <trkpt lat="45.3903" lon="4.57377">
        <ele>1355.9</ele>
        <time>2026-08-18T13:09:25.972Z</time>
      </trkpt>
      <trkpt lat="45.3903" lon="4.57377">
        <ele>1355.9</ele>
        <time>2026-08-18T13:09:27.972Z</time>
      </trkpt>
      <trkpt lat="45.3903" lon="4.57377">
        <ele>1355.9</ele>
        <time>2026-08-18T13:09:28.972Z</time>
      </trkpt>
      <trkpt lat="45.3903" lon="4.57377">
        <ele>1355.9</ele>
        <time>2026-08-18T13:09:29.972Z</time>
      </trkpt>
      <trkpt lat="45.3903" lon="4.57378">
        <ele>1355.9</ele>
        <time>2026-08-18T13:09:31.972Z</time>
      </trkpt>
      <trkpt lat="45.3903" lon="4.57378">
        <ele>1355.9</ele>
        <time>2026-08-18T13:09:33.971Z</time>
      </trkpt>
      <trkpt lat="45.3903" lon="4.57378">
        <ele>1355.9</ele>
        <time>2026-08-18T13:09:34.972Z</time>
      </trkpt>
      <trkpt lat="45.3903" lon="4.57378">
        <ele>1355.9</ele>
        <time>2026-08-18T13:09:36.993Z</time>
      </trkpt>
      <trkpt lat="45.3903" lon="4.57378">
        <ele>1355.9</ele>
        <time>2026-08-18T13:09:38.972Z</time>
      </trkpt>
      <trkpt lat="45.3903" lon="4.57378">
        <ele>1355.9</ele>
        <time>2026-08-18T13:09:39.972Z</time>
      </trkpt>
      <trkpt lat="45.3903" lon="4.57378">
        <ele>1355.9</ele>
        <time>2026-08-18T13:09:40.986Z</time>
      </trkpt>
      <trkpt lat="45.3903" lon="4.57378">
        <ele>1355.9</ele>
        <time>2026-08-18T13:09:42.972Z</time>
      </trkpt>
      <trkpt lat="45.3903" lon="4.57378">
        <ele>1355.9</ele>
        <time>2026-08-18T13:09:43.972Z</time>
      </trkpt>
      <trkpt lat="45.39031" lon="4.57378">
        <ele>1355.9</ele>
        <time>2026-08-18T13:09:44.980Z</time>
      </trkpt>
      <trkpt lat="45.39031" lon="4.57378">
        <ele>1355.9</ele>
        <time>2026-08-18T13:09:46.972Z</time>
      </trkpt>
      <trkpt lat="45.39031" lon="4.57378">
        <ele>1355.9</ele>
        <time>2026-08-18T13:09:47.972Z</time>
      </trkpt>
      <trkpt lat="45.39031" lon="4.57378">
        <ele>1355.9</ele>
        <time>2026-08-18T13:09:49.972Z</time>
      </trkpt>
      <trkpt lat="45.39031" lon="4.57378">
        <ele>1355.9</ele>
        <time>2026-08-18T13:09:51.972Z</time>
      </trkpt>
      <trkpt lat="45.39031" lon="4.57378">
        <ele>1355.9</ele>
        <time>2026-08-18T13:09:53.972Z</time>
      </trkpt>
      <trkpt lat="45.39031" lon="4.57378">
        <ele>1355.9</ele>
        <time>2026-08-18T13:09:55.971Z</time>
      </trkpt>
      <trkpt lat="45.39031" lon="4.57378">
        <ele>1355.8</ele>
        <time>2026-08-18T13:09:56.972Z</time>
      </trkpt>
      <trkpt lat="45.39031" lon="4.57378">
        <ele>1355.8</ele>
        <time>2026-08-18T13:09:58.971Z</time>
      </trkpt>
      <trkpt lat="45.39031" lon="4.57378">
        <ele>1355.8</ele>
        <time>2026-08-18T13:10:00.972Z</time>
      </trkpt>
      <trkpt lat="45.39031" lon="4.57378">
        <ele>1355.8</ele>
        <time>2026-08-18T13:10:02.972Z</time>
      </trkpt>
      <trkpt lat="45.39031" lon="4.57378">
        <ele>1355.8</ele>
        <time>2026-08-18T13:10:04.972Z</time>
      </trkpt>
      <trkpt lat="45.39031" lon="4.57378">
        <ele>1355.8</ele>
        <time>2026-08-18T13:10:05.974Z</time>
      </trkpt>
      <trkpt lat="45.39031" lon="4.57378">
        <ele>1355.8</ele>
        <time>2026-08-18T13:10:07.971Z</time>
      </trkpt>
      <trkpt lat="45.39031" lon="4.57378">
        <ele>1355.8</ele>
        <time>2026-08-18T13:10:08.971Z</time>
      </trkpt>
      <trkpt lat="45.39031" lon="4.57378">
        <ele>1355.8</ele>
        <time>2026-08-18T13:10:09.971Z</time>
      </trkpt>
      <trkpt lat="45.39031" lon="4.57378">
        <ele>1355.8</ele>
        <time>2026-08-18T13:10:10.972Z</time>
      </trkpt>
      <trkpt lat="45.39031" lon="4.57378">
        <ele>1355.8</ele>
        <time>2026-08-18T13:10:11.972Z</time>
      </trkpt>
      <trkpt lat="45.39031" lon="4.57378">
        <ele>1355.8</ele>
        <time>2026-08-18T13:10:12.972Z</time>
      </trkpt>
      <trkpt lat="45.39031" lon="4.57378">
        <ele>1355.8</ele>
        <time>2026-08-18T13:10:13.972Z</time>
      </trkpt>
      <trkpt lat="45.3903" lon="4.57378">
        <ele>1355.8</ele>
        <time>2026-08-18T13:10:14.988Z</time>
      </trkpt>
      <trkpt lat="45.39031" lon="4.57378">
        <ele>1355.8</ele>
        <time>2026-08-18T13:10:16.970Z</time>
      </trkpt>
      <trkpt lat="45.39031" lon="4.57378">
        <ele>1355.8</ele>
        <time>2026-08-18T13:10:17.972Z</time>
      </trkpt>
      <trkpt lat="45.3903" lon="4.57378">
        <ele>1355.8</ele>
        <time>2026-08-18T13:10:19.972Z</time>
      </trkpt>
      <trkpt lat="45.3903" lon="4.57378">
        <ele>1355.9</ele>
        <time>2026-08-18T13:10:21.970Z</time>
      </trkpt>
      <trkpt lat="45.3903" lon="4.57378">
        <ele>1355.9</ele>
        <time>2026-08-18T13:10:22.975Z</time>
      </trkpt>
      <trkpt lat="45.3903" lon="4.57378">
        <ele>1355.9</ele>
        <time>2026-08-18T13:10:24.972Z</time>
      </trkpt>
      <trkpt lat="45.3903" lon="4.57378">
        <ele>1355.9</ele>
        <time>2026-08-18T13:10:25.972Z</time>
      </trkpt>
      <trkpt lat="45.3903" lon="4.57378">
        <ele>1355.9</ele>
        <time>2026-08-18T13:10:26.972Z</time>
      </trkpt>
      <trkpt lat="45.3903" lon="4.57378">
        <ele>1355.9</ele>
        <time>2026-08-18T13:10:27.972Z</time>
      </trkpt>
      <trkpt lat="45.3903" lon="4.57378">
        <ele>1355.9</ele>
        <time>2026-08-18T13:10:29.972Z</time>
      </trkpt>
      <trkpt lat="45.3903" lon="4.57378">
        <ele>1355.9</ele>
        <time>2026-08-18T13:10:31.971Z</time>
      </trkpt>
      <trkpt lat="45.3903" lon="4.57378">
        <ele>1355.9</ele>
        <time>2026-08-18T13:10:32.971Z</time>
      </trkpt>
      <trkpt lat="45.3903" lon="4.57378">
        <ele>1355.9</ele>
        <time>2026-08-18T13:10:33.971Z</time>
      </trkpt>
      <trkpt lat="45.3903" lon="4.57378">
        <ele>1355.9</ele>
        <time>2026-08-18T13:10:34.972Z</time>
      </trkpt>
      <trkpt lat="45.3903" lon="4.57378">
        <ele>1356</ele>
        <time>2026-08-18T13:10:35.982Z</time>
      </trkpt>
      <trkpt lat="45.3903" lon="4.57378">
        <ele>1355.9</ele>
        <time>2026-08-18T13:10:37.971Z</time>
      </trkpt>
      <trkpt lat="45.3903" lon="4.57378">
        <ele>1355.9</ele>
        <time>2026-08-18T13:10:38.972Z</time>
      </trkpt>
      <trkpt lat="45.3903" lon="4.57378">
        <ele>1356</ele>
        <time>2026-08-18T13:10:39.975Z</time>
      </trkpt>
      <trkpt lat="45.3903" lon="4.57378">
        <ele>1356.1</ele>
        <time>2026-08-18T13:10:41.971Z</time>
      </trkpt>
      <trkpt lat="45.3903" lon="4.57378">
        <ele>1356</ele>
        <time>2026-08-18T13:10:42.971Z</time>
      </trkpt>
      <trkpt lat="45.3903" lon="4.57378">
        <ele>1356</ele>
        <time>2026-08-18T13:10:43.972Z</time>
      </trkpt>
      <trkpt lat="45.3903" lon="4.57378">
        <ele>1356</ele>
        <time>2026-08-18T13:10:44.972Z</time>
      </trkpt>
      <trkpt lat="45.3903" lon="4.57379">
        <ele>1355.9</ele>
        <time>2026-08-18T13:10:46.972Z</time>
      </trkpt>
      <trkpt lat="45.3903" lon="4.57379">
        <ele>1355.8</ele>
        <time>2026-08-18T13:10:47.972Z</time>
      </trkpt>
      <trkpt lat="45.3903" lon="4.57379">
        <ele>1355.8</ele>
        <time>2026-08-18T13:10:49.971Z</time>
      </trkpt>
      <trkpt lat="45.3903" lon="4.57379">
        <ele>1355.8</ele>
        <time>2026-08-18T13:10:50.971Z</time>
      </trkpt>
      <trkpt lat="45.3903" lon="4.57379">
        <ele>1355.8</ele>
        <time>2026-08-18T13:10:51.971Z</time>
      </trkpt>
      <trkpt lat="45.3903" lon="4.57379">
        <ele>1355.8</ele>
        <time>2026-08-18T13:10:52.982Z</time>
      </trkpt>
      <trkpt lat="45.3903" lon="4.57379">
        <ele>1355.8</ele>
        <time>2026-08-18T13:10:54.971Z</time>
      </trkpt>
      <trkpt lat="45.3903" lon="4.57379">
        <ele>1355.8</ele>
        <time>2026-08-18T13:10:55.972Z</time>
      </trkpt>
      <trkpt lat="45.3903" lon="4.57379">
        <ele>1355.7</ele>
        <time>2026-08-18T13:10:56.977Z</time>
      </trkpt>
      <trkpt lat="45.3903" lon="4.5738">
        <ele>1355.8</ele>
        <time>2026-08-18T13:10:58.971Z</time>
      </trkpt>
      <trkpt lat="45.3903" lon="4.5738">
        <ele>1355.7</ele>
        <time>2026-08-18T13:10:59.971Z</time>
      </trkpt>
      <trkpt lat="45.3903" lon="4.5738">
        <ele>1355.7</ele>
        <time>2026-08-18T13:11:00.971Z</time>
      </trkpt>
      <trkpt lat="45.3903" lon="4.5738">
        <ele>1355.7</ele>
        <time>2026-08-18T13:11:01.971Z</time>
      </trkpt>
      <trkpt lat="45.3903" lon="4.5738">
        <ele>1355.8</ele>
        <time>2026-08-18T13:11:02.972Z</time>
      </trkpt>
      <trkpt lat="45.3903" lon="4.5738">
        <ele>1355.8</ele>
        <time>2026-08-18T13:11:04.972Z</time>
      </trkpt>
      <trkpt lat="45.3903" lon="4.5738">
        <ele>1356</ele>
        <time>2026-08-18T13:11:06.972Z</time>
      </trkpt>
      <trkpt lat="45.3903" lon="4.5738">
        <ele>1356</ele>
        <time>2026-08-18T13:11:07.972Z</time>
      </trkpt>
      <trkpt lat="45.3903" lon="4.5738">
        <ele>1356.1</ele>
        <time>2026-08-18T13:11:08.972Z</time>
      </trkpt>
      <trkpt lat="45.3903" lon="4.5738">
        <ele>1356.2</ele>
        <time>2026-08-18T13:11:10.970Z</time>
      </trkpt>
      <trkpt lat="45.39031" lon="4.5738">
        <ele>1356.2</ele>
        <time>2026-08-18T13:11:11.972Z</time>
      </trkpt>
      <trkpt lat="45.39031" lon="4.5738">
        <ele>1356.2</ele>
        <time>2026-08-18T13:11:12.972Z</time>
      </trkpt>
      <trkpt lat="45.39031" lon="4.5738">
        <ele>1356.2</ele>
        <time>2026-08-18T13:11:13.978Z</time>
      </trkpt>
      <trkpt lat="45.39031" lon="4.5738">
        <ele>1356.2</ele>
        <time>2026-08-18T13:11:15.972Z</time>
      </trkpt>
      <trkpt lat="45.39031" lon="4.5738">
        <ele>1356.2</ele>
        <time>2026-08-18T13:11:17.971Z</time>
      </trkpt>
      <trkpt lat="45.39031" lon="4.5738">
        <ele>1356.2</ele>
        <time>2026-08-18T13:11:18.972Z</time>
      </trkpt>
      <trkpt lat="45.39031" lon="4.57379">
        <ele>1356.3</ele>
        <time>2026-08-18T13:11:20.971Z</time>
      </trkpt>
      <trkpt lat="45.39031" lon="4.57379">
        <ele>1356.6</ele>
        <time>2026-08-18T13:11:21.971Z</time>
      </trkpt>
      <trkpt lat="45.39031" lon="4.5738">
        <ele>1356.3</ele>
        <time>2026-08-18T13:11:22.991Z</time>
      </trkpt>
      <trkpt lat="45.39031" lon="4.57379">
        <ele>1356.3</ele>
        <time>2026-08-18T13:11:24.971Z</time>
      </trkpt>
      <trkpt lat="45.39031" lon="4.57379">
        <ele>1356.2</ele>
        <time>2026-08-18T13:11:25.972Z</time>
      </trkpt>
      <trkpt lat="45.39031" lon="4.57379">
        <ele>1356.2</ele>
        <time>2026-08-18T13:11:26.985Z</time>
      </trkpt>
      <trkpt lat="45.39031" lon="4.57379">
        <ele>1356.2</ele>
        <time>2026-08-18T13:11:28.972Z</time>
      </trkpt>
      <trkpt lat="45.39031" lon="4.57379">
        <ele>1356.3</ele>
        <time>2026-08-18T13:11:29.972Z</time>
      </trkpt>
      <trkpt lat="45.39031" lon="4.57379">
        <ele>1356.4</ele>
        <time>2026-08-18T13:11:30.978Z</time>
      </trkpt>
      <trkpt lat="45.39031" lon="4.57379">
        <ele>1356.5</ele>
        <time>2026-08-18T13:11:32.972Z</time>
      </trkpt>
      <trkpt lat="45.3903" lon="4.57379">
        <ele>1356.4</ele>
        <time>2026-08-18T13:11:34.971Z</time>
      </trkpt>
      <trkpt lat="45.3903" lon="4.57379">
        <ele>1356.4</ele>
        <time>2026-08-18T13:11:35.971Z</time>
      </trkpt>
      <trkpt lat="45.3903" lon="4.57379">
        <ele>1356.4</ele>
        <time>2026-08-18T13:11:36.971Z</time>
      </trkpt>
      <trkpt lat="45.3903" lon="4.57379">
        <ele>1356.4</ele>
        <time>2026-08-18T13:11:37.972Z</time>
      </trkpt>
      <trkpt lat="45.3903" lon="4.57379">
        <ele>1356.4</ele>
        <time>2026-08-18T13:11:38.972Z</time>
      </trkpt>
      <trkpt lat="45.3903" lon="4.57379">
        <ele>1356.4</ele>
        <time>2026-08-18T13:11:39.972Z</time>
      </trkpt>
      <trkpt lat="45.3903" lon="4.57379">
        <ele>1356.4</ele>
        <time>2026-08-18T13:11:41.972Z</time>
      </trkpt>
      <trkpt lat="45.3903" lon="4.57379">
        <ele>1356.2</ele>
        <time>2026-08-18T13:11:43.986Z</time>
      </trkpt>
      <trkpt lat="45.3903" lon="4.57379">
        <ele>1356.8</ele>
        <time>2026-08-18T13:11:45.972Z</time>
      </trkpt>
      <trkpt lat="45.3903" lon="4.5738">
        <ele>1356.8</ele>
        <time>2026-08-18T13:11:46.972Z</time>
      </trkpt>
      <trkpt lat="45.39028" lon="4.57383">
        <ele>1357</ele>
        <time>2026-08-18T13:11:48.923Z</time>
      </trkpt>
      <trkpt lat="45.39028" lon="4.57385">
        <ele>1357.6</ele>
        <time>2026-08-18T13:11:49.971Z</time>
      </trkpt>
      <trkpt lat="45.39027" lon="4.57387">
        <ele>1357.6</ele>
        <time>2026-08-18T13:11:50.976Z</time>
      </trkpt>
      <trkpt lat="45.39027" lon="4.57391">
        <ele>1357.2</ele>
        <time>2026-08-18T13:11:52.972Z</time>
      </trkpt>
      <trkpt lat="45.39026" lon="4.57393">
        <ele>1357.5</ele>
        <time>2026-08-18T13:11:53.972Z</time>
      </trkpt>
      <trkpt lat="45.39026" lon="4.57395">
        <ele>1357.5</ele>
        <time>2026-08-18T13:11:54.980Z</time>
      </trkpt>
      <trkpt lat="45.39024" lon="4.57398">
        <ele>1356.7</ele>
        <time>2026-08-18T13:11:56.938Z</time>
      </trkpt>
      <trkpt lat="45.39024" lon="4.574">
        <ele>1356.6</ele>
        <time>2026-08-18T13:11:57.972Z</time>
      </trkpt>
      <trkpt lat="45.39024" lon="4.57401">
        <ele>1356.6</ele>
        <time>2026-08-18T13:11:58.972Z</time>
      </trkpt>
      <trkpt lat="45.39023" lon="4.57405">
        <ele>1356.6</ele>
        <time>2026-08-18T13:12:00.986Z</time>
      </trkpt>
      <trkpt lat="45.39022" lon="4.57408">
        <ele>1356.8</ele>
        <time>2026-08-18T13:12:02.971Z</time>
      </trkpt>
      <trkpt lat="45.39022" lon="4.5741">
        <ele>1356.8</ele>
        <time>2026-08-18T13:12:03.972Z</time>
      </trkpt>
      <trkpt lat="45.39021" lon="4.57411">
        <ele>1356.9</ele>
        <time>2026-08-18T13:12:04.979Z</time>
      </trkpt>
      <trkpt lat="45.39021" lon="4.57413">
        <ele>1356.9</ele>
        <time>2026-08-18T13:12:05.980Z</time>
      </trkpt>
      <trkpt lat="45.3902" lon="4.57415">
        <ele>1356.5</ele>
        <time>2026-08-18T13:12:07.901Z</time>
      </trkpt>
      <trkpt lat="45.39019" lon="4.57416">
        <ele>1356.2</ele>
        <time>2026-08-18T13:12:08.972Z</time>
      </trkpt>
      <trkpt lat="45.39018" lon="4.57419">
        <ele>1356</ele>
        <time>2026-08-18T13:12:10.972Z</time>
      </trkpt>
      <trkpt lat="45.39018" lon="4.57421">
        <ele>1356.4</ele>
        <time>2026-08-18T13:12:12.972Z</time>
      </trkpt>
      <trkpt lat="45.39018" lon="4.57421">
        <ele>1356.2</ele>
        <time>2026-08-18T13:12:13.993Z</time>
      </trkpt>
      <trkpt lat="45.39018" lon="4.5742">
        <ele>1356.3</ele>
        <time>2026-08-18T13:12:15.972Z</time>
      </trkpt>
      <trkpt lat="45.39019" lon="4.5742">
        <ele>1355.9</ele>
        <time>2026-08-18T13:12:17.971Z</time>
      </trkpt>
      <trkpt lat="45.39019" lon="4.5742">
        <ele>1355.9</ele>
        <time>2026-08-18T13:12:18.972Z</time>
      </trkpt>
      <trkpt lat="45.39019" lon="4.5742">
        <ele>1355.9</ele>
        <time>2026-08-18T13:12:19.972Z</time>
      </trkpt>
      <trkpt lat="45.39019" lon="4.5742">
        <ele>1356</ele>
        <time>2026-08-18T13:12:20.972Z</time>
      </trkpt>
      <trkpt lat="45.39019" lon="4.5742">
        <ele>1356</ele>
        <time>2026-08-18T13:12:21.981Z</time>
      </trkpt>
      <trkpt lat="45.3902" lon="4.5742">
        <ele>1356</ele>
        <time>2026-08-18T13:12:23.971Z</time>
      </trkpt>
      <trkpt lat="45.3902" lon="4.5742">
        <ele>1356</ele>
        <time>2026-08-18T13:12:25.974Z</time>
      </trkpt>
      <trkpt lat="45.3902" lon="4.5742">
        <ele>1355.9</ele>
        <time>2026-08-18T13:12:27.972Z</time>
      </trkpt>
      <trkpt lat="45.3902" lon="4.5742">
        <ele>1355.9</ele>
        <time>2026-08-18T13:12:29.970Z</time>
      </trkpt>
      <trkpt lat="45.3902" lon="4.5742">
        <ele>1355.9</ele>
        <time>2026-08-18T13:12:30.972Z</time>
      </trkpt>
      <trkpt lat="45.3902" lon="4.5742">
        <ele>1355.9</ele>
        <time>2026-08-18T13:12:31.972Z</time>
      </trkpt>
      <trkpt lat="45.3902" lon="4.5742">
        <ele>1355.9</ele>
        <time>2026-08-18T13:12:32.972Z</time>
      </trkpt>
      <trkpt lat="45.3902" lon="4.57419">
        <ele>1355.9</ele>
        <time>2026-08-18T13:12:33.972Z</time>
      </trkpt>
      <trkpt lat="45.3902" lon="4.57419">
        <ele>1355.9</ele>
        <time>2026-08-18T13:12:34.972Z</time>
      </trkpt>
      <trkpt lat="45.3902" lon="4.57419">
        <ele>1355.9</ele>
        <time>2026-08-18T13:12:35.972Z</time>
      </trkpt>
      <trkpt lat="45.3902" lon="4.57419">
        <ele>1355.9</ele>
        <time>2026-08-18T13:12:36.972Z</time>
      </trkpt>
      <trkpt lat="45.3902" lon="4.57419">
        <ele>1355.9</ele>
        <time>2026-08-18T13:12:37.972Z</time>
      </trkpt>
      <trkpt lat="45.3902" lon="4.57419">
        <ele>1355.9</ele>
        <time>2026-08-18T13:12:38.972Z</time>
      </trkpt>
      <trkpt lat="45.3902" lon="4.57419">
        <ele>1355.9</ele>
        <time>2026-08-18T13:12:40.971Z</time>
      </trkpt>
      <trkpt lat="45.3902" lon="4.5742">
        <ele>1355.9</ele>
        <time>2026-08-18T13:12:41.972Z</time>
      </trkpt>
      <trkpt lat="45.3902" lon="4.5742">
        <ele>1355.9</ele>
        <time>2026-08-18T13:12:42.975Z</time>
      </trkpt>
      <trkpt lat="45.3902" lon="4.5742">
        <ele>1355.9</ele>
        <time>2026-08-18T13:12:44.972Z</time>
      </trkpt>
      <trkpt lat="45.3902" lon="4.5742">
        <ele>1355.9</ele>
        <time>2026-08-18T13:12:46.971Z</time>
      </trkpt>
      <trkpt lat="45.3902" lon="4.5742">
        <ele>1355.9</ele>
        <time>2026-08-18T13:12:47.971Z</time>
      </trkpt>
      <trkpt lat="45.3902" lon="4.5742">
        <ele>1355.9</ele>
        <time>2026-08-18T13:12:48.971Z</time>
      </trkpt>
      <trkpt lat="45.3902" lon="4.5742">
        <ele>1355.9</ele>
        <time>2026-08-18T13:12:49.972Z</time>
      </trkpt>
      <trkpt lat="45.3902" lon="4.5742">
        <ele>1355.9</ele>
        <time>2026-08-18T13:12:50.972Z</time>
      </trkpt>
      <trkpt lat="45.3902" lon="4.5742">
        <ele>1355.9</ele>
        <time>2026-08-18T13:12:51.989Z</time>
      </trkpt>
      <trkpt lat="45.3902" lon="4.5742">
        <ele>1355.9</ele>
        <time>2026-08-18T13:12:53.972Z</time>
      </trkpt>
      <trkpt lat="45.3902" lon="4.5742">
        <ele>1355.9</ele>
        <time>2026-08-18T13:12:55.983Z</time>
      </trkpt>
      <trkpt lat="45.3902" lon="4.5742">
        <ele>1355.9</ele>
        <time>2026-08-18T13:12:57.972Z</time>
      </trkpt>
      <trkpt lat="45.3902" lon="4.5742">
        <ele>1355.9</ele>
        <time>2026-08-18T13:12:58.972Z</time>
      </trkpt>
      <trkpt lat="45.3902" lon="4.5742">
        <ele>1355.9</ele>
        <time>2026-08-18T13:12:59.975Z</time>
      </trkpt>
      <trkpt lat="45.3902" lon="4.5742">
        <ele>1355.9</ele>
        <time>2026-08-18T13:13:01.972Z</time>
      </trkpt>
      <trkpt lat="45.3902" lon="4.5742">
        <ele>1355.9</ele>
        <time>2026-08-18T13:13:03.971Z</time>
      </trkpt>
      <trkpt lat="45.3902" lon="4.5742">
        <ele>1355.9</ele>
        <time>2026-08-18T13:13:05.971Z</time>
      </trkpt>
      <trkpt lat="45.3902" lon="4.5742">
        <ele>1355.9</ele>
        <time>2026-08-18T13:13:06.971Z</time>
      </trkpt>
      <trkpt lat="45.3902" lon="4.5742">
        <ele>1355.9</ele>
        <time>2026-08-18T13:13:07.972Z</time>
      </trkpt>
      <trkpt lat="45.3902" lon="4.5742">
        <ele>1355.9</ele>
        <time>2026-08-18T13:13:09.971Z</time>
      </trkpt>
      <trkpt lat="45.3902" lon="4.5742">
        <ele>1355.9</ele>
        <time>2026-08-18T13:13:10.971Z</time>
      </trkpt>
      <trkpt lat="45.3902" lon="4.5742">
        <ele>1356</ele>
        <time>2026-08-18T13:13:11.971Z</time>
      </trkpt>
      <trkpt lat="45.3902" lon="4.5742">
        <ele>1356</ele>
        <time>2026-08-18T13:13:12.972Z</time>
      </trkpt>
      <trkpt lat="45.3902" lon="4.5742">
        <ele>1356</ele>
        <time>2026-08-18T13:13:13.972Z</time>
      </trkpt>
      <trkpt lat="45.3902" lon="4.5742">
        <ele>1356</ele>
        <time>2026-08-18T13:13:14.972Z</time>
      </trkpt>
      <trkpt lat="45.3902" lon="4.5742">
        <ele>1356</ele>
        <time>2026-08-18T13:13:15.972Z</time>
      </trkpt>
      <trkpt lat="45.3902" lon="4.5742">
        <ele>1356</ele>
        <time>2026-08-18T13:13:16.976Z</time>
      </trkpt>
      <trkpt lat="45.3902" lon="4.5742">
        <ele>1356</ele>
        <time>2026-08-18T13:13:18.972Z</time>
      </trkpt>
      <trkpt lat="45.3902" lon="4.5742">
        <ele>1356</ele>
        <time>2026-08-18T13:13:19.972Z</time>
      </trkpt>
      <trkpt lat="45.3902" lon="4.5742">
        <ele>1356</ele>
        <time>2026-08-18T13:13:20.972Z</time>
      </trkpt>
      <trkpt lat="45.3902" lon="4.57419">
        <ele>1356</ele>
        <time>2026-08-18T13:13:22.972Z</time>
      </trkpt>
      <trkpt lat="45.3902" lon="4.57419">
        <ele>1356</ele>
        <time>2026-08-18T13:13:24.972Z</time>
      </trkpt>
      <trkpt lat="45.3902" lon="4.57419">
        <ele>1356</ele>
        <time>2026-08-18T13:13:26.971Z</time>
      </trkpt>
      <trkpt lat="45.3902" lon="4.57419">
        <ele>1356</ele>
        <time>2026-08-18T13:13:28.971Z</time>
      </trkpt>
      <trkpt lat="45.3902" lon="4.57419">
        <ele>1356</ele>
        <time>2026-08-18T13:13:30.972Z</time>
      </trkpt>
      <trkpt lat="45.3902" lon="4.57419">
        <ele>1356</ele>
        <time>2026-08-18T13:13:31.972Z</time>
      </trkpt>
      <trkpt lat="45.3902" lon="4.57419">
        <ele>1356</ele>
        <time>2026-08-18T13:13:32.972Z</time>
      </trkpt>
      <trkpt lat="45.3902" lon="4.57419">
        <ele>1356</ele>
        <time>2026-08-18T13:13:33.977Z</time>
      </trkpt>
      <trkpt lat="45.3902" lon="4.57419">
        <ele>1356</ele>
        <time>2026-08-18T13:13:35.972Z</time>
      </trkpt>
      <trkpt lat="45.3902" lon="4.57419">
        <ele>1356</ele>
        <time>2026-08-18T13:13:37.972Z</time>
      </trkpt>
      <trkpt lat="45.3902" lon="4.57419">
        <ele>1356</ele>
        <time>2026-08-18T13:13:38.972Z</time>
      </trkpt>
      <trkpt lat="45.3902" lon="4.57419">
        <ele>1356</ele>
        <time>2026-08-18T13:13:39.972Z</time>
      </trkpt>
      <trkpt lat="45.3902" lon="4.57419">
        <ele>1356</ele>
        <time>2026-08-18T13:13:41.972Z</time>
      </trkpt>
      <trkpt lat="45.3902" lon="4.57419">
        <ele>1356</ele>
        <time>2026-08-18T13:13:42.972Z</time>
      </trkpt>
      <trkpt lat="45.3902" lon="4.57419">
        <ele>1356</ele>
        <time>2026-08-18T13:13:43.972Z</time>
      </trkpt>
      <trkpt lat="45.3902" lon="4.57419">
        <ele>1356</ele>
        <time>2026-08-18T13:13:45.972Z</time>
      </trkpt>
      <trkpt lat="45.3902" lon="4.57419">
        <ele>1356</ele>
        <time>2026-08-18T13:13:46.983Z</time>
      </trkpt>
      <trkpt lat="45.3902" lon="4.57419">
        <ele>1356</ele>
        <time>2026-08-18T13:13:48.972Z</time>
      </trkpt>
      <trkpt lat="45.3902" lon="4.57419">
        <ele>1356</ele>
        <time>2026-08-18T13:13:50.978Z</time>
      </trkpt>
      <trkpt lat="45.3902" lon="4.57419">
        <ele>1356</ele>
        <time>2026-08-18T13:13:52.972Z</time>
      </trkpt>
      <trkpt lat="45.3902" lon="4.57419">
        <ele>1356</ele>
        <time>2026-08-18T13:13:54.972Z</time>
      </trkpt>
      <trkpt lat="45.3902" lon="4.57419">
        <ele>1356</ele>
        <time>2026-08-18T13:13:55.972Z</time>
      </trkpt>
      <trkpt lat="45.3902" lon="4.57419">
        <ele>1356</ele>
        <time>2026-08-18T13:13:56.972Z</time>
      </trkpt>
      <trkpt lat="45.3902" lon="4.57419">
        <ele>1356</ele>
        <time>2026-08-18T13:13:58.972Z</time>
      </trkpt>
      <trkpt lat="45.3902" lon="4.57419">
        <ele>1356</ele>
        <time>2026-08-18T13:13:59.972Z</time>
      </trkpt>
      <trkpt lat="45.3902" lon="4.57419">
        <ele>1356</ele>
        <time>2026-08-18T13:14:00.972Z</time>
      </trkpt>
      <trkpt lat="45.3902" lon="4.57419">
        <ele>1356</ele>
        <time>2026-08-18T13:14:01.972Z</time>
      </trkpt>
      <trkpt lat="45.3902" lon="4.57419">
        <ele>1356</ele>
        <time>2026-08-18T13:14:02.972Z</time>
      </trkpt>
      <trkpt lat="45.3902" lon="4.57419">
        <ele>1356</ele>
        <time>2026-08-18T13:14:03.984Z</time>
      </trkpt>
      <trkpt lat="45.3902" lon="4.57419">
        <ele>1355.9</ele>
        <time>2026-08-18T13:14:05.972Z</time>
      </trkpt>
      <trkpt lat="45.3902" lon="4.57419">
        <ele>1355.9</ele>
        <time>2026-08-18T13:14:06.972Z</time>
      </trkpt>
      <trkpt lat="45.3902" lon="4.57419">
        <ele>1355.9</ele>
        <time>2026-08-18T13:14:07.972Z</time>
      </trkpt>
      <trkpt lat="45.3902" lon="4.57419">
        <ele>1355.9</ele>
        <time>2026-08-18T13:14:09.971Z</time>
      </trkpt>
      <trkpt lat="45.3902" lon="4.57419">
        <ele>1355.9</ele>
        <time>2026-08-18T13:14:10.971Z</time>
      </trkpt>
      <trkpt lat="45.3902" lon="4.57419">
        <ele>1355.9</ele>
        <time>2026-08-18T13:14:11.972Z</time>
      </trkpt>
      <trkpt lat="45.3902" lon="4.57419">
        <ele>1355.9</ele>
        <time>2026-08-18T13:14:12.972Z</time>
      </trkpt>
      <trkpt lat="45.3902" lon="4.57419">
        <ele>1355.9</ele>
        <time>2026-08-18T13:14:14.972Z</time>
      </trkpt>
      <trkpt lat="45.3902" lon="4.57419">
        <ele>1355.9</ele>
        <time>2026-08-18T13:14:15.972Z</time>
      </trkpt>
      <trkpt lat="45.3902" lon="4.57419">
        <ele>1356</ele>
        <time>2026-08-18T13:14:16.991Z</time>
      </trkpt>
      <trkpt lat="45.3902" lon="4.57419">
        <ele>1356</ele>
        <time>2026-08-18T13:14:18.972Z</time>
      </trkpt>
      <trkpt lat="45.3902" lon="4.57419">
        <ele>1356</ele>
        <time>2026-08-18T13:14:19.972Z</time>
      </trkpt>
      <trkpt lat="45.3902" lon="4.57419">
        <ele>1356</ele>
        <time>2026-08-18T13:14:20.985Z</time>
      </trkpt>
      <trkpt lat="45.3902" lon="4.57419">
        <ele>1356</ele>
        <time>2026-08-18T13:14:22.971Z</time>
      </trkpt>
      <trkpt lat="45.3902" lon="4.57419">
        <ele>1356</ele>
        <time>2026-08-18T13:14:23.972Z</time>
      </trkpt>
      <trkpt lat="45.3902" lon="4.57419">
        <ele>1356</ele>
        <time>2026-08-18T13:14:24.978Z</time>
      </trkpt>
      <trkpt lat="45.3902" lon="4.57419">
        <ele>1356</ele>
        <time>2026-08-18T13:14:26.972Z</time>
      </trkpt>
      <trkpt lat="45.3902" lon="4.57419">
        <ele>1356</ele>
        <time>2026-08-18T13:14:27.972Z</time>
      </trkpt>
      <trkpt lat="45.3902" lon="4.57419">
        <ele>1356</ele>
        <time>2026-08-18T13:14:28.972Z</time>
      </trkpt>
      <trkpt lat="45.3902" lon="4.57419">
        <ele>1356</ele>
        <time>2026-08-18T13:14:30.972Z</time>
      </trkpt>
      <trkpt lat="45.3902" lon="4.57419">
        <ele>1356</ele>
        <time>2026-08-18T13:14:32.972Z</time>
      </trkpt>
      <trkpt lat="45.3902" lon="4.57419">
        <ele>1356</ele>
        <time>2026-08-18T13:14:33.972Z</time>
      </trkpt>
      <trkpt lat="45.3902" lon="4.57419">
        <ele>1356</ele>
        <time>2026-08-18T13:14:35.972Z</time>
      </trkpt>
      <trkpt lat="45.3902" lon="4.57419">
        <ele>1356</ele>
        <time>2026-08-18T13:14:37.984Z</time>
      </trkpt>
      <trkpt lat="45.3902" lon="4.57419">
        <ele>1356</ele>
        <time>2026-08-18T13:14:39.972Z</time>
      </trkpt>
      <trkpt lat="45.3902" lon="4.57419">
        <ele>1356</ele>
        <time>2026-08-18T13:14:40.972Z</time>
      </trkpt>
      <trkpt lat="45.3902" lon="4.57419">
        <ele>1356</ele>
        <time>2026-08-18T13:14:41.978Z</time>
      </trkpt>
      <trkpt lat="45.3902" lon="4.57419">
        <ele>1356</ele>
        <time>2026-08-18T13:14:43.972Z</time>
      </trkpt>
      <trkpt lat="45.3902" lon="4.57419">
        <ele>1356</ele>
        <time>2026-08-18T13:14:44.972Z</time>
      </trkpt>
      <trkpt lat="45.3902" lon="4.57419">
        <ele>1356</ele>
        <time>2026-08-18T13:14:45.972Z</time>
      </trkpt>
      <trkpt lat="45.3902" lon="4.57419">
        <ele>1356</ele>
        <time>2026-08-18T13:14:46.972Z</time>
      </trkpt>
      <trkpt lat="45.3902" lon="4.57419">
        <ele>1356</ele>
        <time>2026-08-18T13:14:47.972Z</time>
      </trkpt>
      <trkpt lat="45.3902" lon="4.57419">
        <ele>1356</ele>
        <time>2026-08-18T13:14:48.972Z</time>
      </trkpt>
      <trkpt lat="45.3902" lon="4.57419">
        <ele>1356</ele>
        <time>2026-08-18T13:14:49.972Z</time>
      </trkpt>
      <trkpt lat="45.3902" lon="4.57419">
        <ele>1356</ele>
        <time>2026-08-18T13:14:51.971Z</time>
      </trkpt>
      <trkpt lat="45.3902" lon="4.57419">
        <ele>1356</ele>
        <time>2026-08-18T13:14:52.971Z</time>
      </trkpt>
      <trkpt lat="45.3902" lon="4.57419">
        <ele>1356</ele>
        <time>2026-08-18T13:14:53.972Z</time>
      </trkpt>
      <trkpt lat="45.3902" lon="4.57419">
        <ele>1356</ele>
        <time>2026-08-18T13:14:55.970Z</time>
      </trkpt>
      <trkpt lat="45.3902" lon="4.57419">
        <ele>1356</ele>
        <time>2026-08-18T13:14:57.969Z</time>
      </trkpt>
      <trkpt lat="45.3902" lon="4.57419">
        <ele>1356</ele>
        <time>2026-08-18T13:14:58.970Z</time>
      </trkpt>
      <trkpt lat="45.3902" lon="4.57419">
        <ele>1356</ele>
        <time>2026-08-18T13:15:00.971Z</time>
      </trkpt>
      <trkpt lat="45.3902" lon="4.57419">
        <ele>1356</ele>
        <time>2026-08-18T13:15:01.971Z</time>
      </trkpt>
      <trkpt lat="45.3902" lon="4.57419">
        <ele>1356</ele>
        <time>2026-08-18T13:15:03.971Z</time>
      </trkpt>
      <trkpt lat="45.3902" lon="4.57419">
        <ele>1356</ele>
        <time>2026-08-18T13:15:04.971Z</time>
      </trkpt>
      <trkpt lat="45.3902" lon="4.57419">
        <ele>1356</ele>
        <time>2026-08-18T13:15:05.971Z</time>
      </trkpt>
      <trkpt lat="45.3902" lon="4.57419">
        <ele>1356</ele>
        <time>2026-08-18T13:15:06.971Z</time>
      </trkpt>
      <trkpt lat="45.3902" lon="4.57419">
        <ele>1356</ele>
        <time>2026-08-18T13:15:07.992Z</time>
      </trkpt>
      <trkpt lat="45.3902" lon="4.57419">
        <ele>1356</ele>
        <time>2026-08-18T13:15:09.970Z</time>
      </trkpt>
      <trkpt lat="45.3902" lon="4.57419">
        <ele>1356</ele>
        <time>2026-08-18T13:15:10.970Z</time>
      </trkpt>
      <trkpt lat="45.3902" lon="4.57419">
        <ele>1356</ele>
        <time>2026-08-18T13:15:11.985Z</time>
      </trkpt>
      <trkpt lat="45.3902" lon="4.57419">
        <ele>1356</ele>
        <time>2026-08-18T13:15:13.971Z</time>
      </trkpt>
      <trkpt lat="45.3902" lon="4.57419">
        <ele>1356</ele>
        <time>2026-08-18T13:15:15.978Z</time>
      </trkpt>
      <trkpt lat="45.3902" lon="4.57419">
        <ele>1356</ele>
        <time>2026-08-18T13:15:17.971Z</time>
      </trkpt>
      <trkpt lat="45.3902" lon="4.57419">
        <ele>1356</ele>
        <time>2026-08-18T13:15:19.970Z</time>
      </trkpt>
      <trkpt lat="45.3902" lon="4.57419">
        <ele>1356</ele>
        <time>2026-08-18T13:15:20.971Z</time>
      </trkpt>
      <trkpt lat="45.3902" lon="4.57419">
        <ele>1356</ele>
        <time>2026-08-18T13:15:22.970Z</time>
      </trkpt>
      <trkpt lat="45.3902" lon="4.57419">
        <ele>1356</ele>
        <time>2026-08-18T13:15:23.971Z</time>
      </trkpt>
      <trkpt lat="45.3902" lon="4.57419">
        <ele>1356</ele>
        <time>2026-08-18T13:15:24.971Z</time>
      </trkpt>
      <trkpt lat="45.3902" lon="4.57419">
        <ele>1356</ele>
        <time>2026-08-18T13:15:26.971Z</time>
      </trkpt>
      <trkpt lat="45.3902" lon="4.57419">
        <ele>1356</ele>
        <time>2026-08-18T13:15:27.971Z</time>
      </trkpt>
      <trkpt lat="45.3902" lon="4.57419">
        <ele>1356</ele>
        <time>2026-08-18T13:15:29.970Z</time>
      </trkpt>
      <trkpt lat="45.3902" lon="4.57419">
        <ele>1356</ele>
        <time>2026-08-18T13:15:30.971Z</time>
      </trkpt>
      <trkpt lat="45.3902" lon="4.57419">
        <ele>1356</ele>
        <time>2026-08-18T13:15:31.971Z</time>
      </trkpt>
      <trkpt lat="45.3902" lon="4.57419">
        <ele>1356</ele>
        <time>2026-08-18T13:15:32.977Z</time>
      </trkpt>
      <trkpt lat="45.3902" lon="4.57419">
        <ele>1356</ele>
        <time>2026-08-18T13:15:34.971Z</time>
      </trkpt>
      <trkpt lat="45.3902" lon="4.57419">
        <ele>1356</ele>
        <time>2026-08-18T13:15:36.971Z</time>
      </trkpt>
      <trkpt lat="45.3902" lon="4.57419">
        <ele>1356</ele>
        <time>2026-08-18T13:15:37.971Z</time>
      </trkpt>
      <trkpt lat="45.3902" lon="4.57419">
        <ele>1356</ele>
        <time>2026-08-18T13:15:38.971Z</time>
      </trkpt>
      <trkpt lat="45.3902" lon="4.57419">
        <ele>1356</ele>
        <time>2026-08-18T13:15:39.971Z</time>
      </trkpt>
      <trkpt lat="45.3902" lon="4.57419">
        <ele>1356</ele>
        <time>2026-08-18T13:15:40.971Z</time>
      </trkpt>
      <trkpt lat="45.3902" lon="4.57419">
        <ele>1356</ele>
        <time>2026-08-18T13:15:42.970Z</time>
      </trkpt>
      <trkpt lat="45.3902" lon="4.57419">
        <ele>1356</ele>
        <time>2026-08-18T13:15:43.970Z</time>
      </trkpt>
      <trkpt lat="45.3902" lon="4.57419">
        <ele>1356</ele>
        <time>2026-08-18T13:15:44.971Z</time>
      </trkpt>
      <trkpt lat="45.3902" lon="4.57419">
        <ele>1356</ele>
        <time>2026-08-18T13:15:46.971Z</time>
      </trkpt>
      <trkpt lat="45.3902" lon="4.57419">
        <ele>1356</ele>
        <time>2026-08-18T13:15:47.971Z</time>
      </trkpt>
      <trkpt lat="45.3902" lon="4.57419">
        <ele>1356</ele>
        <time>2026-08-18T13:15:48.971Z</time>
      </trkpt>
      <trkpt lat="45.3902" lon="4.57419">
        <ele>1356.1</ele>
        <time>2026-08-18T13:15:50.971Z</time>
      </trkpt>
      <trkpt lat="45.3902" lon="4.57419">
        <ele>1356.1</ele>
        <time>2026-08-18T13:15:52.971Z</time>
      </trkpt>
      <trkpt lat="45.3902" lon="4.57419">
        <ele>1356</ele>
        <time>2026-08-18T13:15:54.970Z</time>
      </trkpt>
      <trkpt lat="45.3902" lon="4.57419">
        <ele>1356</ele>
        <time>2026-08-18T13:15:55.971Z</time>
      </trkpt>
      <trkpt lat="45.3902" lon="4.57419">
        <ele>1355.8</ele>
        <time>2026-08-18T13:15:56.971Z</time>
      </trkpt>
      <trkpt lat="45.3902" lon="4.57419">
        <ele>1355.8</ele>
        <time>2026-08-18T13:15:57.971Z</time>
      </trkpt>
      <trkpt lat="45.3902" lon="4.57419">
        <ele>1355.9</ele>
        <time>2026-08-18T13:15:58.971Z</time>
      </trkpt>
      <trkpt lat="45.3902" lon="4.57419">
        <ele>1355.9</ele>
        <time>2026-08-18T13:15:59.971Z</time>
      </trkpt>
      <trkpt lat="45.3902" lon="4.57419">
        <ele>1356.1</ele>
        <time>2026-08-18T13:16:00.971Z</time>
      </trkpt>
      <trkpt lat="45.39021" lon="4.5742">
        <ele>1356.4</ele>
        <time>2026-08-18T13:16:02.971Z</time>
      </trkpt>
      <trkpt lat="45.39021" lon="4.5742">
        <ele>1356.7</ele>
        <time>2026-08-18T13:16:04.971Z</time>
      </trkpt>
      <trkpt lat="45.39021" lon="4.5742">
        <ele>1356.7</ele>
        <time>2026-08-18T13:16:05.971Z</time>
      </trkpt>
      <trkpt lat="45.39021" lon="4.5742">
        <ele>1356.1</ele>
        <time>2026-08-18T13:16:08.003Z</time>
      </trkpt>
      <trkpt lat="45.39021" lon="4.57421">
        <ele>1356.2</ele>
        <time>2026-08-18T13:16:09.970Z</time>
      </trkpt>
      <trkpt lat="45.39021" lon="4.57421">
        <ele>1356.2</ele>
        <time>2026-08-18T13:16:10.970Z</time>
      </trkpt>
      <trkpt lat="45.39021" lon="4.57421">
        <ele>1356.2</ele>
        <time>2026-08-18T13:16:12.970Z</time>
      </trkpt>
      <trkpt lat="45.39021" lon="4.57421">
        <ele>1356.2</ele>
        <time>2026-08-18T13:16:13.970Z</time>
      </trkpt>
      <trkpt lat="45.39021" lon="4.57421">
        <ele>1356.2</ele>
        <time>2026-08-18T13:16:14.971Z</time>
      </trkpt>
      <trkpt lat="45.39021" lon="4.57421">
        <ele>1356.2</ele>
        <time>2026-08-18T13:16:15.971Z</time>
      </trkpt>
      <trkpt lat="45.39021" lon="4.57421">
        <ele>1356.2</ele>
        <time>2026-08-18T13:16:16.971Z</time>
      </trkpt>
      <trkpt lat="45.39021" lon="4.57421">
        <ele>1356.2</ele>
        <time>2026-08-18T13:16:18.970Z</time>
      </trkpt>
      <trkpt lat="45.39021" lon="4.57421">
        <ele>1356.2</ele>
        <time>2026-08-18T13:16:19.971Z</time>
      </trkpt>
      <trkpt lat="45.39021" lon="4.57421">
        <ele>1356.2</ele>
        <time>2026-08-18T13:16:20.971Z</time>
      </trkpt>
      <trkpt lat="45.39021" lon="4.57421">
        <ele>1356.2</ele>
        <time>2026-08-18T13:16:22.971Z</time>
      </trkpt>
      <trkpt lat="45.39021" lon="4.57421">
        <ele>1356.2</ele>
        <time>2026-08-18T13:16:24.970Z</time>
      </trkpt>
      <trkpt lat="45.39021" lon="4.57421">
        <ele>1356.2</ele>
        <time>2026-08-18T13:16:25.970Z</time>
      </trkpt>
      <trkpt lat="45.39021" lon="4.57421">
        <ele>1356.2</ele>
        <time>2026-08-18T13:16:26.970Z</time>
      </trkpt>
      <trkpt lat="45.39021" lon="4.57421">
        <ele>1356.2</ele>
        <time>2026-08-18T13:16:27.971Z</time>
      </trkpt>
      <trkpt lat="45.39021" lon="4.57421">
        <ele>1356.2</ele>
        <time>2026-08-18T13:16:28.997Z</time>
      </trkpt>
      <trkpt lat="45.39021" lon="4.57421">
        <ele>1356.2</ele>
        <time>2026-08-18T13:16:30.971Z</time>
      </trkpt>
      <trkpt lat="45.39021" lon="4.57421">
        <ele>1356.2</ele>
        <time>2026-08-18T13:16:31.971Z</time>
      </trkpt>
      <trkpt lat="45.39021" lon="4.57421">
        <ele>1356.2</ele>
        <time>2026-08-18T13:16:33.970Z</time>
      </trkpt>
      <trkpt lat="45.39021" lon="4.57421">
        <ele>1356.2</ele>
        <time>2026-08-18T13:16:34.971Z</time>
      </trkpt>
      <trkpt lat="45.39021" lon="4.57421">
        <ele>1356.2</ele>
        <time>2026-08-18T13:16:36.971Z</time>
      </trkpt>
      <trkpt lat="45.39021" lon="4.57421">
        <ele>1356.2</ele>
        <time>2026-08-18T13:16:38.971Z</time>
      </trkpt>
      <trkpt lat="45.39021" lon="4.57421">
        <ele>1356.2</ele>
        <time>2026-08-18T13:16:39.971Z</time>
      </trkpt>
      <trkpt lat="45.39021" lon="4.57421">
        <ele>1356.2</ele>
        <time>2026-08-18T13:16:41.970Z</time>
      </trkpt>
      <trkpt lat="45.39021" lon="4.57421">
        <ele>1356.2</ele>
        <time>2026-08-18T13:16:42.970Z</time>
      </trkpt>
      <trkpt lat="45.39021" lon="4.57421">
        <ele>1356.2</ele>
        <time>2026-08-18T13:16:43.970Z</time>
      </trkpt>
      <trkpt lat="45.39021" lon="4.57421">
        <ele>1356.2</ele>
        <time>2026-08-18T13:16:44.971Z</time>
      </trkpt>
      <trkpt lat="45.39021" lon="4.57421">
        <ele>1356.2</ele>
        <time>2026-08-18T13:16:45.971Z</time>
      </trkpt>
      <trkpt lat="45.39021" lon="4.57421">
        <ele>1356.2</ele>
        <time>2026-08-18T13:16:47.970Z</time>
      </trkpt>
      <trkpt lat="45.39021" lon="4.57421">
        <ele>1356.2</ele>
        <time>2026-08-18T13:16:48.970Z</time>
      </trkpt>
      <trkpt lat="45.39021" lon="4.57421">
        <ele>1356.2</ele>
        <time>2026-08-18T13:16:49.971Z</time>
      </trkpt>
      <trkpt lat="45.39021" lon="4.57421">
        <ele>1356.2</ele>
        <time>2026-08-18T13:16:50.971Z</time>
      </trkpt>
      <trkpt lat="45.39021" lon="4.57421">
        <ele>1356.2</ele>
        <time>2026-08-18T13:16:51.971Z</time>
      </trkpt>
      <trkpt lat="45.39021" lon="4.57421">
        <ele>1356.2</ele>
        <time>2026-08-18T13:16:53.971Z</time>
      </trkpt>
      <trkpt lat="45.39021" lon="4.57421">
        <ele>1356.2</ele>
        <time>2026-08-18T13:16:54.971Z</time>
      </trkpt>
      <trkpt lat="45.39021" lon="4.57421">
        <ele>1356.2</ele>
        <time>2026-08-18T13:16:55.971Z</time>
      </trkpt>
      <trkpt lat="45.39021" lon="4.57421">
        <ele>1356.2</ele>
        <time>2026-08-18T13:16:56.971Z</time>
      </trkpt>
      <trkpt lat="45.39021" lon="4.57421">
        <ele>1356.2</ele>
        <time>2026-08-18T13:16:58.971Z</time>
      </trkpt>
      <trkpt lat="45.39021" lon="4.57421">
        <ele>1356.2</ele>
        <time>2026-08-18T13:16:59.971Z</time>
      </trkpt>
      <trkpt lat="45.39021" lon="4.57421">
        <ele>1356.2</ele>
        <time>2026-08-18T13:17:01.971Z</time>
      </trkpt>
      <trkpt lat="45.39021" lon="4.57421">
        <ele>1356.2</ele>
        <time>2026-08-18T13:17:02.971Z</time>
      </trkpt>
      <trkpt lat="45.39021" lon="4.57421">
        <ele>1356.2</ele>
        <time>2026-08-18T13:17:04.971Z</time>
      </trkpt>
      <trkpt lat="45.39021" lon="4.57421">
        <ele>1356.6</ele>
        <time>2026-08-18T13:17:06.971Z</time>
      </trkpt>
      <trkpt lat="45.39021" lon="4.57421">
        <ele>1356.6</ele>
        <time>2026-08-18T13:17:07.971Z</time>
      </trkpt>
      <trkpt lat="45.39021" lon="4.57421">
        <ele>1356.6</ele>
        <time>2026-08-18T13:17:09.971Z</time>
      </trkpt>
      <trkpt lat="45.39021" lon="4.57421">
        <ele>1356.6</ele>
        <time>2026-08-18T13:17:10.971Z</time>
      </trkpt>
      <trkpt lat="45.39021" lon="4.57421">
        <ele>1356.6</ele>
        <time>2026-08-18T13:17:11.971Z</time>
      </trkpt>
      <trkpt lat="45.39021" lon="4.57421">
        <ele>1356.6</ele>
        <time>2026-08-18T13:17:12.971Z</time>
      </trkpt>
      <trkpt lat="45.39021" lon="4.57421">
        <ele>1356.6</ele>
        <time>2026-08-18T13:17:13.971Z</time>
      </trkpt>
      <trkpt lat="45.39021" lon="4.57421">
        <ele>1356.6</ele>
        <time>2026-08-18T13:17:14.971Z</time>
      </trkpt>
      <trkpt lat="45.39021" lon="4.57421">
        <ele>1356.7</ele>
        <time>2026-08-18T13:17:16.971Z</time>
      </trkpt>
      <trkpt lat="45.39021" lon="4.57421">
        <ele>1356.7</ele>
        <time>2026-08-18T13:17:17.971Z</time>
      </trkpt>
      <trkpt lat="45.39021" lon="4.57421">
        <ele>1356.7</ele>
        <time>2026-08-18T13:17:19.971Z</time>
      </trkpt>
      <trkpt lat="45.39021" lon="4.57421">
        <ele>1356.7</ele>
        <time>2026-08-18T13:17:20.971Z</time>
      </trkpt>
      <trkpt lat="45.39021" lon="4.57421">
        <ele>1356.7</ele>
        <time>2026-08-18T13:17:22.971Z</time>
      </trkpt>
      <trkpt lat="45.39021" lon="4.57421">
        <ele>1356.7</ele>
        <time>2026-08-18T13:17:23.971Z</time>
      </trkpt>
      <trkpt lat="45.39021" lon="4.57421">
        <ele>1356.7</ele>
        <time>2026-08-18T13:17:24.971Z</time>
      </trkpt>
      <trkpt lat="45.39021" lon="4.57421">
        <ele>1356.7</ele>
        <time>2026-08-18T13:17:25.971Z</time>
      </trkpt>
      <trkpt lat="45.39021" lon="4.57421">
        <ele>1356.7</ele>
        <time>2026-08-18T13:17:26.971Z</time>
      </trkpt>
      <trkpt lat="45.39021" lon="4.57421">
        <ele>1356.7</ele>
        <time>2026-08-18T13:17:27.990Z</time>
      </trkpt>
      <trkpt lat="45.39021" lon="4.57421">
        <ele>1356.8</ele>
        <time>2026-08-18T13:17:29.971Z</time>
      </trkpt>
      <trkpt lat="45.39021" lon="4.57421">
        <ele>1356.8</ele>
        <time>2026-08-18T13:17:31.971Z</time>
      </trkpt>
      <trkpt lat="45.39021" lon="4.57421">
        <ele>1356.8</ele>
        <time>2026-08-18T13:17:32.971Z</time>
      </trkpt>
      <trkpt lat="45.39021" lon="4.57421">
        <ele>1356.8</ele>
        <time>2026-08-18T13:17:33.971Z</time>
      </trkpt>
      <trkpt lat="45.39021" lon="4.57421">
        <ele>1356.8</ele>
        <time>2026-08-18T13:17:34.971Z</time>
      </trkpt>
      <trkpt lat="45.39021" lon="4.57421">
        <ele>1356.8</ele>
        <time>2026-08-18T13:17:35.971Z</time>
      </trkpt>
      <trkpt lat="45.39021" lon="4.57421">
        <ele>1356.8</ele>
        <time>2026-08-18T13:17:36.971Z</time>
      </trkpt>
      <trkpt lat="45.39021" lon="4.57422">
        <ele>1356.8</ele>
        <time>2026-08-18T13:17:37.971Z</time>
      </trkpt>
      <trkpt lat="45.39021" lon="4.57422">
        <ele>1356.8</ele>
        <time>2026-08-18T13:17:38.971Z</time>
      </trkpt>
      <trkpt lat="45.39021" lon="4.57422">
        <ele>1356.8</ele>
        <time>2026-08-18T13:17:39.971Z</time>
      </trkpt>
      <trkpt lat="45.39021" lon="4.57422">
        <ele>1356.8</ele>
        <time>2026-08-18T13:17:41.970Z</time>
      </trkpt>
      <trkpt lat="45.39021" lon="4.57422">
        <ele>1356.8</ele>
        <time>2026-08-18T13:17:42.970Z</time>
      </trkpt>
      <trkpt lat="45.39021" lon="4.57422">
        <ele>1356.8</ele>
        <time>2026-08-18T13:17:43.970Z</time>
      </trkpt>
      <trkpt lat="45.39021" lon="4.57422">
        <ele>1356.8</ele>
        <time>2026-08-18T13:17:44.971Z</time>
      </trkpt>
      <trkpt lat="45.39021" lon="4.57422">
        <ele>1356.8</ele>
        <time>2026-08-18T13:17:46.970Z</time>
      </trkpt>
      <trkpt lat="45.39021" lon="4.57422">
        <ele>1357.1</ele>
        <time>2026-08-18T13:17:47.970Z</time>
      </trkpt>
      <trkpt lat="45.39021" lon="4.57422">
        <ele>1357.1</ele>
        <time>2026-08-18T13:17:48.970Z</time>
      </trkpt>
      <trkpt lat="45.39021" lon="4.57422">
        <ele>1357.1</ele>
        <time>2026-08-18T13:17:49.971Z</time>
      </trkpt>
      <trkpt lat="45.39021" lon="4.57422">
        <ele>1357.1</ele>
        <time>2026-08-18T13:17:50.971Z</time>
      </trkpt>
      <trkpt lat="45.39021" lon="4.57422">
        <ele>1357.1</ele>
        <time>2026-08-18T13:17:52.970Z</time>
      </trkpt>
      <trkpt lat="45.39021" lon="4.57422">
        <ele>1357.1</ele>
        <time>2026-08-18T13:17:53.970Z</time>
      </trkpt>
      <trkpt lat="45.39021" lon="4.57422">
        <ele>1357.1</ele>
        <time>2026-08-18T13:17:54.970Z</time>
      </trkpt>
      <trkpt lat="45.39021" lon="4.57422">
        <ele>1357.1</ele>
        <time>2026-08-18T13:17:55.970Z</time>
      </trkpt>
      <trkpt lat="45.39021" lon="4.57422">
        <ele>1357.1</ele>
        <time>2026-08-18T13:17:56.971Z</time>
      </trkpt>
      <trkpt lat="45.39021" lon="4.57422">
        <ele>1357.1</ele>
        <time>2026-08-18T13:17:57.971Z</time>
      </trkpt>
      <trkpt lat="45.39021" lon="4.57422">
        <ele>1357.1</ele>
        <time>2026-08-18T13:17:59.970Z</time>
      </trkpt>
      <trkpt lat="45.39021" lon="4.57422">
        <ele>1357.1</ele>
        <time>2026-08-18T13:18:00.971Z</time>
      </trkpt>
      <trkpt lat="45.39021" lon="4.57422">
        <ele>1357.1</ele>
        <time>2026-08-18T13:18:01.971Z</time>
      </trkpt>
      <trkpt lat="45.39021" lon="4.57422">
        <ele>1357</ele>
        <time>2026-08-18T13:18:03.970Z</time>
      </trkpt>
      <trkpt lat="45.39021" lon="4.57422">
        <ele>1357</ele>
        <time>2026-08-18T13:18:04.971Z</time>
      </trkpt>
      <trkpt lat="45.39021" lon="4.57422">
        <ele>1357</ele>
        <time>2026-08-18T13:18:05.971Z</time>
      </trkpt>
      <trkpt lat="45.39021" lon="4.57422">
        <ele>1357</ele>
        <time>2026-08-18T13:18:07.971Z</time>
      </trkpt>
      <trkpt lat="45.39021" lon="4.57422">
        <ele>1357</ele>
        <time>2026-08-18T13:18:08.971Z</time>
      </trkpt>
      <trkpt lat="45.39021" lon="4.57422">
        <ele>1357</ele>
        <time>2026-08-18T13:18:09.980Z</time>
      </trkpt>
      <trkpt lat="45.39021" lon="4.57422">
        <ele>1357</ele>
        <time>2026-08-18T13:18:11.970Z</time>
      </trkpt>
      <trkpt lat="45.39021" lon="4.57422">
        <ele>1357</ele>
        <time>2026-08-18T13:18:13.970Z</time>
      </trkpt>
      <trkpt lat="45.39021" lon="4.57422">
        <ele>1357</ele>
        <time>2026-08-18T13:18:14.970Z</time>
      </trkpt>
      <trkpt lat="45.39021" lon="4.57422">
        <ele>1357</ele>
        <time>2026-08-18T13:18:16.969Z</time>
      </trkpt>
      <trkpt lat="45.39021" lon="4.57422">
        <ele>1357</ele>
        <time>2026-08-18T13:18:17.971Z</time>
      </trkpt>
      <trkpt lat="45.39021" lon="4.57422">
        <ele>1357</ele>
        <time>2026-08-18T13:18:18.971Z</time>
      </trkpt>
      <trkpt lat="45.39021" lon="4.57422">
        <ele>1357</ele>
        <time>2026-08-18T13:18:19.971Z</time>
      </trkpt>
      <trkpt lat="45.39021" lon="4.57422">
        <ele>1357</ele>
        <time>2026-08-18T13:18:20.971Z</time>
      </trkpt>
      <trkpt lat="45.39021" lon="4.57422">
        <ele>1357</ele>
        <time>2026-08-18T13:18:21.971Z</time>
      </trkpt>
      <trkpt lat="45.39021" lon="4.57422">
        <ele>1357</ele>
        <time>2026-08-18T13:18:23.970Z</time>
      </trkpt>
      <trkpt lat="45.39021" lon="4.57422">
        <ele>1357</ele>
        <time>2026-08-18T13:18:24.970Z</time>
      </trkpt>
      <trkpt lat="45.39021" lon="4.57422">
        <ele>1357</ele>
        <time>2026-08-18T13:18:25.971Z</time>
      </trkpt>
      <trkpt lat="45.39021" lon="4.57422">
        <ele>1357</ele>
        <time>2026-08-18T13:18:26.971Z</time>
      </trkpt>
      <trkpt lat="45.39021" lon="4.57422">
        <ele>1357</ele>
        <time>2026-08-18T13:18:28.971Z</time>
      </trkpt>
      <trkpt lat="45.39021" lon="4.57422">
        <ele>1357</ele>
        <time>2026-08-18T13:18:29.971Z</time>
      </trkpt>
      <trkpt lat="45.39021" lon="4.57422">
        <ele>1357</ele>
        <time>2026-08-18T13:18:30.971Z</time>
      </trkpt>
      <trkpt lat="45.39021" lon="4.57422">
        <ele>1357</ele>
        <time>2026-08-18T13:18:32.971Z</time>
      </trkpt>
      <trkpt lat="45.39021" lon="4.57422">
        <ele>1357</ele>
        <time>2026-08-18T13:18:34.971Z</time>
      </trkpt>
      <trkpt lat="45.39021" lon="4.57422">
        <ele>1357</ele>
        <time>2026-08-18T13:18:35.971Z</time>
      </trkpt>
      <trkpt lat="45.39021" lon="4.57422">
        <ele>1357</ele>
        <time>2026-08-18T13:18:36.971Z</time>
      </trkpt>
      <trkpt lat="45.39021" lon="4.57422">
        <ele>1357</ele>
        <time>2026-08-18T13:18:37.971Z</time>
      </trkpt>
      <trkpt lat="45.39021" lon="4.57422">
        <ele>1357</ele>
        <time>2026-08-18T13:18:39.970Z</time>
      </trkpt>
      <trkpt lat="45.39021" lon="4.57422">
        <ele>1357</ele>
        <time>2026-08-18T13:18:40.970Z</time>
      </trkpt>
      <trkpt lat="45.39021" lon="4.57422">
        <ele>1357</ele>
        <time>2026-08-18T13:18:41.970Z</time>
      </trkpt>
      <trkpt lat="45.39021" lon="4.57422">
        <ele>1357</ele>
        <time>2026-08-18T13:18:42.970Z</time>
      </trkpt>
      <trkpt lat="45.39021" lon="4.57422">
        <ele>1357</ele>
        <time>2026-08-18T13:18:43.971Z</time>
      </trkpt>
      <trkpt lat="45.39021" lon="4.57422">
        <ele>1357</ele>
        <time>2026-08-18T13:18:44.971Z</time>
      </trkpt>
      <trkpt lat="45.39021" lon="4.57422">
        <ele>1357</ele>
        <time>2026-08-18T13:18:46.971Z</time>
      </trkpt>
      <trkpt lat="45.39021" lon="4.57422">
        <ele>1357</ele>
        <time>2026-08-18T13:18:47.971Z</time>
      </trkpt>
      <trkpt lat="45.39021" lon="4.57422">
        <ele>1357</ele>
        <time>2026-08-18T13:18:48.971Z</time>
      </trkpt>
    </trkseg>
  </trk>
</gpx>